﻿<?xml version="1.0" encoding="UTF-8"?>
<gpx xmlns="http://www.topografix.com/GPX/1/1" creator="HOLUX ezTour Plus" version="1.1">
<metadata>
<link href="http://www.holux.com"><text>HOLUX Technology, Inc.</text></link>
<time>2012-08-01T18:52:39Z</time></metadata>
<trk>
<name><![CDATA[raw11]]></name>
<trkseg>
<trkpt lat="63.830776215" lon="-21.677864075">
<ele>89.380859</ele>
<time>2012-07-28T12:39:06Z</time>
<speed>2.480000</speed>
<extensions>
<speed>2.5</speed>
<temp>0.00</temp>
<bpm>0</bpm>
<rpm>0.00</rpm>
</extensions>
</trkpt>
<trkpt lat="63.830814362" lon="-21.678071976">
<ele>89.257813</ele>
<time>2012-07-28T12:39:11Z</time>
<speed>1.340000</speed>
<extensions>
<speed>1.3</speed>
<temp>0.00</temp>
<bpm>0</bpm>
<rpm>0.00</rpm>
</extensions>
</trkpt>
<trkpt lat="63.830852509" lon="-21.678297043">
<ele>89.125000</ele>
<time>2012-07-28T12:39:16Z</time>
<speed>2.460000</speed>
<extensions>
<speed>2.5</speed>
<temp>0.00</temp>
<bpm>0</bpm>
<rpm>0.00</rpm>
</extensions>
</trkpt>
<trkpt lat="63.830867767" lon="-21.678546906">
<ele>88.966797</ele>
<time>2012-07-28T12:39:21Z</time>
<speed>2.410000</speed>
<extensions>
<speed>2.4</speed>
<temp>0.00</temp>
<bpm>0</bpm>
<rpm>0.00</rpm>
</extensions>
</trkpt>
<trkpt lat="63.830917358" lon="-21.678745270">
<ele>88.808594</ele>
<time>2012-07-28T12:39:26Z</time>
<speed>2.510000</speed>
<extensions>
<speed>2.5</speed>
<temp>0.00</temp>
<bpm>0</bpm>
<rpm>0.00</rpm>
</extensions>
</trkpt>
<trkpt lat="63.830768585" lon="-21.678983688">
<ele>16.680664</ele>
<time>2012-07-28T12:39:31Z</time>
<speed>2.440000</speed>
<extensions>
<speed>2.4</speed>
<temp>0.00</temp>
<bpm>0</bpm>
<rpm>0.00</rpm>
</extensions>
</trkpt>
<trkpt lat="63.830821991" lon="-21.679246902">
<ele>13.931396</ele>
<time>2012-07-28T12:39:36Z</time>
<speed>2.410000</speed>
<extensions>
<speed>2.4</speed>
<temp>0.00</temp>
<bpm>0</bpm>
<rpm>0.00</rpm>
</extensions>
</trkpt>
<trkpt lat="63.830863953" lon="-21.679477692">
<ele>13.975830</ele>
<time>2012-07-28T12:39:41Z</time>
<speed>2.480000</speed>
<extensions>
<speed>2.5</speed>
<temp>0.00</temp>
<bpm>0</bpm>
<rpm>0.00</rpm>
</extensions>
</trkpt>
<trkpt lat="63.830898285" lon="-21.679721832">
<ele>12.909668</ele>
<time>2012-07-28T12:39:46Z</time>
<speed>2.330000</speed>
<extensions>
<speed>2.3</speed>
<temp>0.00</temp>
<bpm>0</bpm>
<rpm>0.00</rpm>
</extensions>
</trkpt>
<trkpt lat="63.830928802" lon="-21.679912567">
<ele>13.374023</ele>
<time>2012-07-28T12:39:51Z</time>
<speed>1.680000</speed>
<extensions>
<speed>1.7</speed>
<temp>0.00</temp>
<bpm>0</bpm>
<rpm>0.00</rpm>
</extensions>
</trkpt>
<trkpt lat="63.830955505" lon="-21.680080414">
<ele>14.739258</ele>
<time>2012-07-28T12:39:56Z</time>
<speed>1.570000</speed>
<extensions>
<speed>1.6</speed>
<temp>0.00</temp>
<bpm>0</bpm>
<rpm>0.00</rpm>
</extensions>
</trkpt>
<trkpt lat="63.830974579" lon="-21.680215836">
<ele>14.450684</ele>
<time>2012-07-28T12:40:01Z</time>
<speed>1.640000</speed>
<extensions>
<speed>1.6</speed>
<temp>0.00</temp>
<bpm>0</bpm>
<rpm>0.00</rpm>
</extensions>
</trkpt>
<trkpt lat="63.831001282" lon="-21.680427551">
<ele>15.484863</ele>
<time>2012-07-28T12:40:06Z</time>
<speed>2.470000</speed>
<extensions>
<speed>2.5</speed>
<temp>0.00</temp>
<bpm>0</bpm>
<rpm>0.00</rpm>
</extensions>
</trkpt>
<trkpt lat="63.831047058" lon="-21.680686951">
<ele>14.738525</ele>
<time>2012-07-28T12:40:11Z</time>
<speed>2.630000</speed>
<extensions>
<speed>2.6</speed>
<temp>0.00</temp>
<bpm>0</bpm>
<rpm>0.00</rpm>
</extensions>
</trkpt>
<trkpt lat="63.831081390" lon="-21.680936813">
<ele>14.614014</ele>
<time>2012-07-28T12:40:16Z</time>
<speed>2.580000</speed>
<extensions>
<speed>2.6</speed>
<temp>0.00</temp>
<bpm>0</bpm>
<rpm>0.00</rpm>
</extensions>
</trkpt>
<trkpt lat="63.831119537" lon="-21.681196213">
<ele>13.799316</ele>
<time>2012-07-28T12:40:21Z</time>
<speed>2.420000</speed>
<extensions>
<speed>2.4</speed>
<temp>0.00</temp>
<bpm>0</bpm>
<rpm>0.00</rpm>
</extensions>
</trkpt>
<trkpt lat="63.831153870" lon="-21.681432724">
<ele>13.212402</ele>
<time>2012-07-28T12:40:26Z</time>
<speed>2.430000</speed>
<extensions>
<speed>2.4</speed>
<temp>0.00</temp>
<bpm>0</bpm>
<rpm>0.00</rpm>
</extensions>
</trkpt>
<trkpt lat="63.831199646" lon="-21.681650162">
<ele>13.222900</ele>
<time>2012-07-28T12:40:31Z</time>
<speed>2.590000</speed>
<extensions>
<speed>2.6</speed>
<temp>0.00</temp>
<bpm>0</bpm>
<rpm>0.00</rpm>
</extensions>
</trkpt>
<trkpt lat="63.831233978" lon="-21.681903839">
<ele>12.643066</ele>
<time>2012-07-28T12:40:36Z</time>
<speed>2.500000</speed>
<extensions>
<speed>2.5</speed>
<temp>0.00</temp>
<bpm>0</bpm>
<rpm>0.00</rpm>
</extensions>
</trkpt>
<trkpt lat="63.831268311" lon="-21.682144165">
<ele>12.468994</ele>
<time>2012-07-28T12:40:41Z</time>
<speed>2.810000</speed>
<extensions>
<speed>2.8</speed>
<temp>0.00</temp>
<bpm>0</bpm>
<rpm>0.00</rpm>
</extensions>
</trkpt>
<trkpt lat="63.831298828" lon="-21.682437897">
<ele>12.447021</ele>
<time>2012-07-28T12:40:46Z</time>
<speed>3.300000</speed>
<extensions>
<speed>3.3</speed>
<temp>0.00</temp>
<bpm>0</bpm>
<rpm>0.00</rpm>
</extensions>
</trkpt>
<trkpt lat="63.831340790" lon="-21.682748795">
<ele>12.399170</ele>
<time>2012-07-28T12:40:51Z</time>
<speed>2.950000</speed>
<extensions>
<speed>2.9</speed>
<temp>0.00</temp>
<bpm>0</bpm>
<rpm>0.00</rpm>
</extensions>
</trkpt>
<trkpt lat="63.831386566" lon="-21.683019638">
<ele>12.271729</ele>
<time>2012-07-28T12:40:56Z</time>
<speed>2.980000</speed>
<extensions>
<speed>3.0</speed>
<temp>0.00</temp>
<bpm>0</bpm>
<rpm>0.00</rpm>
</extensions>
</trkpt>
<trkpt lat="63.831436157" lon="-21.683313370">
<ele>12.217773</ele>
<time>2012-07-28T12:41:01Z</time>
<speed>2.910000</speed>
<extensions>
<speed>2.9</speed>
<temp>0.00</temp>
<bpm>0</bpm>
<rpm>0.00</rpm>
</extensions>
</trkpt>
<trkpt lat="63.831470490" lon="-21.683622360">
<ele>13.971191</ele>
<time>2012-07-28T12:41:06Z</time>
<speed>3.040000</speed>
<extensions>
<speed>3.0</speed>
<temp>0.00</temp>
<bpm>0</bpm>
<rpm>0.00</rpm>
</extensions>
</trkpt>
<trkpt lat="63.831508636" lon="-21.683935165">
<ele>14.402100</ele>
<time>2012-07-28T12:41:11Z</time>
<speed>3.330000</speed>
<extensions>
<speed>3.3</speed>
<temp>0.00</temp>
<bpm>0</bpm>
<rpm>0.00</rpm>
</extensions>
</trkpt>
<trkpt lat="63.831554413" lon="-21.684234619">
<ele>14.240967</ele>
<time>2012-07-28T12:41:16Z</time>
<speed>3.140000</speed>
<extensions>
<speed>3.1</speed>
<temp>0.00</temp>
<bpm>0</bpm>
<rpm>0.00</rpm>
</extensions>
</trkpt>
<trkpt lat="63.831607819" lon="-21.684541702">
<ele>14.127686</ele>
<time>2012-07-28T12:41:21Z</time>
<speed>3.360000</speed>
<extensions>
<speed>3.4</speed>
<temp>0.00</temp>
<bpm>0</bpm>
<rpm>0.00</rpm>
</extensions>
</trkpt>
<trkpt lat="63.831653595" lon="-21.684858322">
<ele>14.130127</ele>
<time>2012-07-28T12:41:26Z</time>
<speed>3.130000</speed>
<extensions>
<speed>3.1</speed>
<temp>0.00</temp>
<bpm>0</bpm>
<rpm>0.00</rpm>
</extensions>
</trkpt>
<trkpt lat="63.831691742" lon="-21.685134888">
<ele>14.113525</ele>
<time>2012-07-28T12:41:31Z</time>
<speed>2.470000</speed>
<extensions>
<speed>2.5</speed>
<temp>0.00</temp>
<bpm>0</bpm>
<rpm>0.00</rpm>
</extensions>
</trkpt>
<trkpt lat="63.831733704" lon="-21.685396194">
<ele>13.930908</ele>
<time>2012-07-28T12:41:36Z</time>
<speed>3.010000</speed>
<extensions>
<speed>3.0</speed>
<temp>0.00</temp>
<bpm>0</bpm>
<rpm>0.00</rpm>
</extensions>
</trkpt>
<trkpt lat="63.831783295" lon="-21.685693741">
<ele>14.271729</ele>
<time>2012-07-28T12:41:41Z</time>
<speed>3.200000</speed>
<extensions>
<speed>3.2</speed>
<temp>0.00</temp>
<bpm>0</bpm>
<rpm>0.00</rpm>
</extensions>
</trkpt>
<trkpt lat="63.831825256" lon="-21.685977936">
<ele>14.584717</ele>
<time>2012-07-28T12:41:46Z</time>
<speed>3.140000</speed>
<extensions>
<speed>3.1</speed>
<temp>0.00</temp>
<bpm>0</bpm>
<rpm>0.00</rpm>
</extensions>
</trkpt>
<trkpt lat="63.831874847" lon="-21.686290741">
<ele>14.623779</ele>
<time>2012-07-28T12:41:51Z</time>
<speed>2.990000</speed>
<extensions>
<speed>3.0</speed>
<temp>0.00</temp>
<bpm>0</bpm>
<rpm>0.00</rpm>
</extensions>
</trkpt>
<trkpt lat="63.831916809" lon="-21.686584473">
<ele>14.673340</ele>
<time>2012-07-28T12:41:56Z</time>
<speed>2.990000</speed>
<extensions>
<speed>3.0</speed>
<temp>0.00</temp>
<bpm>0</bpm>
<rpm>0.00</rpm>
</extensions>
</trkpt>
<trkpt lat="63.831943512" lon="-21.686815262">
<ele>14.616699</ele>
<time>2012-07-28T12:42:01Z</time>
<speed>2.040000</speed>
<extensions>
<speed>2.0</speed>
<temp>0.00</temp>
<bpm>0</bpm>
<rpm>0.00</rpm>
</extensions>
</trkpt>
<trkpt lat="63.831970215" lon="-21.687011719">
<ele>14.583740</ele>
<time>2012-07-28T12:42:06Z</time>
<speed>2.150000</speed>
<extensions>
<speed>2.1</speed>
<temp>0.00</temp>
<bpm>0</bpm>
<rpm>0.00</rpm>
</extensions>
</trkpt>
<trkpt lat="63.832004547" lon="-21.687225342">
<ele>14.293457</ele>
<time>2012-07-28T12:42:11Z</time>
<speed>2.210000</speed>
<extensions>
<speed>2.2</speed>
<temp>0.00</temp>
<bpm>0</bpm>
<rpm>0.00</rpm>
</extensions>
</trkpt>
<trkpt lat="63.832031250" lon="-21.687423706">
<ele>14.392822</ele>
<time>2012-07-28T12:42:16Z</time>
<speed>2.000000</speed>
<extensions>
<speed>2.0</speed>
<temp>0.00</temp>
<bpm>0</bpm>
<rpm>0.00</rpm>
</extensions>
</trkpt>
<trkpt lat="63.832057953" lon="-21.687604904">
<ele>14.011719</ele>
<time>2012-07-28T12:42:21Z</time>
<speed>1.990000</speed>
<extensions>
<speed>2.0</speed>
<temp>0.00</temp>
<bpm>0</bpm>
<rpm>0.00</rpm>
</extensions>
</trkpt>
<trkpt lat="63.832088470" lon="-21.687801361">
<ele>13.639160</ele>
<time>2012-07-28T12:42:26Z</time>
<speed>1.970000</speed>
<extensions>
<speed>2.0</speed>
<temp>0.00</temp>
<bpm>0</bpm>
<rpm>0.00</rpm>
</extensions>
</trkpt>
<trkpt lat="63.832107544" lon="-21.688003540">
<ele>13.239014</ele>
<time>2012-07-28T12:42:31Z</time>
<speed>2.100000</speed>
<extensions>
<speed>2.1</speed>
<temp>0.00</temp>
<bpm>0</bpm>
<rpm>0.00</rpm>
</extensions>
</trkpt>
<trkpt lat="63.832138062" lon="-21.688203812">
<ele>13.218262</ele>
<time>2012-07-28T12:42:36Z</time>
<speed>2.260000</speed>
<extensions>
<speed>2.3</speed>
<temp>0.00</temp>
<bpm>0</bpm>
<rpm>0.00</rpm>
</extensions>
</trkpt>
<trkpt lat="63.832176208" lon="-21.688442230">
<ele>12.420410</ele>
<time>2012-07-28T12:42:41Z</time>
<speed>3.160000</speed>
<extensions>
<speed>3.2</speed>
<temp>0.00</temp>
<bpm>0</bpm>
<rpm>0.00</rpm>
</extensions>
</trkpt>
<trkpt lat="63.832225800" lon="-21.688785553">
<ele>11.771729</ele>
<time>2012-07-28T12:42:46Z</time>
<speed>4.050000</speed>
<extensions>
<speed>4.0</speed>
<temp>0.00</temp>
<bpm>0</bpm>
<rpm>0.00</rpm>
</extensions>
</trkpt>
<trkpt lat="63.832290649" lon="-21.689186096">
<ele>11.788330</ele>
<time>2012-07-28T12:42:51Z</time>
<speed>4.220000</speed>
<extensions>
<speed>4.2</speed>
<temp>0.00</temp>
<bpm>0</bpm>
<rpm>0.00</rpm>
</extensions>
</trkpt>
<trkpt lat="63.832347870" lon="-21.689592361">
<ele>11.338379</ele>
<time>2012-07-28T12:42:56Z</time>
<speed>4.360000</speed>
<extensions>
<speed>4.4</speed>
<temp>0.00</temp>
<bpm>0</bpm>
<rpm>0.00</rpm>
</extensions>
</trkpt>
<trkpt lat="63.832412720" lon="-21.690021515">
<ele>11.229980</ele>
<time>2012-07-28T12:43:01Z</time>
<speed>4.240000</speed>
<extensions>
<speed>4.2</speed>
<temp>0.00</temp>
<bpm>0</bpm>
<rpm>0.00</rpm>
</extensions>
</trkpt>
<trkpt lat="63.832473755" lon="-21.690399170">
<ele>11.844238</ele>
<time>2012-07-28T12:43:06Z</time>
<speed>3.780000</speed>
<extensions>
<speed>3.8</speed>
<temp>0.00</temp>
<bpm>0</bpm>
<rpm>0.00</rpm>
</extensions>
</trkpt>
<trkpt lat="63.832519531" lon="-21.690750122">
<ele>11.214111</ele>
<time>2012-07-28T12:43:11Z</time>
<speed>3.850000</speed>
<extensions>
<speed>3.8</speed>
<temp>0.00</temp>
<bpm>0</bpm>
<rpm>0.00</rpm>
</extensions>
</trkpt>
<trkpt lat="63.832576752" lon="-21.691125870">
<ele>11.880371</ele>
<time>2012-07-28T12:43:16Z</time>
<speed>3.850000</speed>
<extensions>
<speed>3.8</speed>
<temp>0.00</temp>
<bpm>0</bpm>
<rpm>0.00</rpm>
</extensions>
</trkpt>
<trkpt lat="63.832622528" lon="-21.691467285">
<ele>12.209717</ele>
<time>2012-07-28T12:43:21Z</time>
<speed>2.780000</speed>
<extensions>
<speed>2.8</speed>
<temp>0.00</temp>
<bpm>0</bpm>
<rpm>0.00</rpm>
</extensions>
</trkpt>
<trkpt lat="63.832664490" lon="-21.691753387">
<ele>12.587158</ele>
<time>2012-07-28T12:43:26Z</time>
<speed>2.870000</speed>
<extensions>
<speed>2.9</speed>
<temp>0.00</temp>
<bpm>0</bpm>
<rpm>0.00</rpm>
</extensions>
</trkpt>
<trkpt lat="63.832706451" lon="-21.692037582">
<ele>12.275635</ele>
<time>2012-07-28T12:43:31Z</time>
<speed>3.440000</speed>
<extensions>
<speed>3.4</speed>
<temp>0.00</temp>
<bpm>0</bpm>
<rpm>0.00</rpm>
</extensions>
</trkpt>
<trkpt lat="63.832756042" lon="-21.692378998">
<ele>12.134521</ele>
<time>2012-07-28T12:43:36Z</time>
<speed>3.520000</speed>
<extensions>
<speed>3.5</speed>
<temp>0.00</temp>
<bpm>0</bpm>
<rpm>0.00</rpm>
</extensions>
</trkpt>
<trkpt lat="63.832809448" lon="-21.692718506">
<ele>12.362793</ele>
<time>2012-07-28T12:43:41Z</time>
<speed>3.460000</speed>
<extensions>
<speed>3.5</speed>
<temp>0.00</temp>
<bpm>0</bpm>
<rpm>0.00</rpm>
</extensions>
</trkpt>
<trkpt lat="63.832847595" lon="-21.693050385">
<ele>12.375488</ele>
<time>2012-07-28T12:43:46Z</time>
<speed>2.900000</speed>
<extensions>
<speed>2.9</speed>
<temp>0.00</temp>
<bpm>0</bpm>
<rpm>0.00</rpm>
</extensions>
</trkpt>
<trkpt lat="63.832893372" lon="-21.693338394">
<ele>12.272949</ele>
<time>2012-07-28T12:43:51Z</time>
<speed>3.140000</speed>
<extensions>
<speed>3.1</speed>
<temp>0.00</temp>
<bpm>0</bpm>
<rpm>0.00</rpm>
</extensions>
</trkpt>
<trkpt lat="63.832946777" lon="-21.693634033">
<ele>11.910645</ele>
<time>2012-07-28T12:43:56Z</time>
<speed>3.030000</speed>
<extensions>
<speed>3.0</speed>
<temp>0.00</temp>
<bpm>0</bpm>
<rpm>0.00</rpm>
</extensions>
</trkpt>
<trkpt lat="63.832988739" lon="-21.693922043">
<ele>12.307373</ele>
<time>2012-07-28T12:44:01Z</time>
<speed>2.880000</speed>
<extensions>
<speed>2.9</speed>
<temp>0.00</temp>
<bpm>0</bpm>
<rpm>0.00</rpm>
</extensions>
</trkpt>
<trkpt lat="63.833019257" lon="-21.694190979">
<ele>12.691650</ele>
<time>2012-07-28T12:44:06Z</time>
<speed>2.560000</speed>
<extensions>
<speed>2.6</speed>
<temp>0.00</temp>
<bpm>0</bpm>
<rpm>0.00</rpm>
</extensions>
</trkpt>
<trkpt lat="63.833053589" lon="-21.694435120">
<ele>12.757324</ele>
<time>2012-07-28T12:44:11Z</time>
<speed>2.740000</speed>
<extensions>
<speed>2.7</speed>
<temp>0.00</temp>
<bpm>0</bpm>
<rpm>0.00</rpm>
</extensions>
</trkpt>
<trkpt lat="63.833095551" lon="-21.694766998">
<ele>11.577881</ele>
<time>2012-07-28T12:44:16Z</time>
<speed>4.020000</speed>
<extensions>
<speed>4.0</speed>
<temp>0.00</temp>
<bpm>0</bpm>
<rpm>0.00</rpm>
</extensions>
</trkpt>
<trkpt lat="63.833148956" lon="-21.695154190">
<ele>10.641357</ele>
<time>2012-07-28T12:44:21Z</time>
<speed>3.730000</speed>
<extensions>
<speed>3.7</speed>
<temp>0.00</temp>
<bpm>0</bpm>
<rpm>0.00</rpm>
</extensions>
</trkpt>
<trkpt lat="63.833194733" lon="-21.695495605">
<ele>10.802490</ele>
<time>2012-07-28T12:44:26Z</time>
<speed>3.330000</speed>
<extensions>
<speed>3.3</speed>
<temp>0.00</temp>
<bpm>0</bpm>
<rpm>0.00</rpm>
</extensions>
</trkpt>
<trkpt lat="63.833240509" lon="-21.695795059">
<ele>10.664307</ele>
<time>2012-07-28T12:44:31Z</time>
<speed>3.170000</speed>
<extensions>
<speed>3.2</speed>
<temp>0.00</temp>
<bpm>0</bpm>
<rpm>0.00</rpm>
</extensions>
</trkpt>
<trkpt lat="63.833293915" lon="-21.696104050">
<ele>10.462646</ele>
<time>2012-07-28T12:44:36Z</time>
<speed>3.120000</speed>
<extensions>
<speed>3.1</speed>
<temp>0.00</temp>
<bpm>0</bpm>
<rpm>0.00</rpm>
</extensions>
</trkpt>
<trkpt lat="63.833343506" lon="-21.696411133">
<ele>11.079590</ele>
<time>2012-07-28T12:44:41Z</time>
<speed>3.210000</speed>
<extensions>
<speed>3.2</speed>
<temp>0.00</temp>
<bpm>0</bpm>
<rpm>0.00</rpm>
</extensions>
</trkpt>
<trkpt lat="63.833389282" lon="-21.696687698">
<ele>11.244385</ele>
<time>2012-07-28T12:44:46Z</time>
<speed>2.960000</speed>
<extensions>
<speed>3.0</speed>
<temp>0.00</temp>
<bpm>0</bpm>
<rpm>0.00</rpm>
</extensions>
</trkpt>
<trkpt lat="63.833435059" lon="-21.696977615">
<ele>11.792969</ele>
<time>2012-07-28T12:44:51Z</time>
<speed>3.080000</speed>
<extensions>
<speed>3.1</speed>
<temp>0.00</temp>
<bpm>0</bpm>
<rpm>0.00</rpm>
</extensions>
</trkpt>
<trkpt lat="63.833484650" lon="-21.697296143">
<ele>11.648682</ele>
<time>2012-07-28T12:44:56Z</time>
<speed>3.310000</speed>
<extensions>
<speed>3.3</speed>
<temp>0.00</temp>
<bpm>0</bpm>
<rpm>0.00</rpm>
</extensions>
</trkpt>
<trkpt lat="63.833530426" lon="-21.697612762">
<ele>11.897461</ele>
<time>2012-07-28T12:45:01Z</time>
<speed>3.230000</speed>
<extensions>
<speed>3.2</speed>
<temp>0.00</temp>
<bpm>0</bpm>
<rpm>0.00</rpm>
</extensions>
</trkpt>
<trkpt lat="63.833583832" lon="-21.697925568">
<ele>12.008057</ele>
<time>2012-07-28T12:45:06Z</time>
<speed>3.310000</speed>
<extensions>
<speed>3.3</speed>
<temp>0.00</temp>
<bpm>0</bpm>
<rpm>0.00</rpm>
</extensions>
</trkpt>
<trkpt lat="63.833637238" lon="-21.698226929">
<ele>11.945557</ele>
<time>2012-07-28T12:45:11Z</time>
<speed>3.070000</speed>
<extensions>
<speed>3.1</speed>
<temp>0.00</temp>
<bpm>0</bpm>
<rpm>0.00</rpm>
</extensions>
</trkpt>
<trkpt lat="63.833686829" lon="-21.698530197">
<ele>12.315674</ele>
<time>2012-07-28T12:45:16Z</time>
<speed>3.320000</speed>
<extensions>
<speed>3.3</speed>
<temp>0.00</temp>
<bpm>0</bpm>
<rpm>0.00</rpm>
</extensions>
</trkpt>
<trkpt lat="63.833744049" lon="-21.698827744">
<ele>12.759277</ele>
<time>2012-07-28T12:45:21Z</time>
<speed>3.270000</speed>
<extensions>
<speed>3.3</speed>
<temp>0.00</temp>
<bpm>0</bpm>
<rpm>0.00</rpm>
</extensions>
</trkpt>
<trkpt lat="63.833820343" lon="-21.699129105">
<ele>13.140869</ele>
<time>2012-07-28T12:45:26Z</time>
<speed>3.610000</speed>
<extensions>
<speed>3.6</speed>
<temp>0.00</temp>
<bpm>0</bpm>
<rpm>0.00</rpm>
</extensions>
</trkpt>
<trkpt lat="63.833881378" lon="-21.699470520">
<ele>13.058105</ele>
<time>2012-07-28T12:45:31Z</time>
<speed>3.840000</speed>
<extensions>
<speed>3.8</speed>
<temp>0.00</temp>
<bpm>0</bpm>
<rpm>0.00</rpm>
</extensions>
</trkpt>
<trkpt lat="63.833961487" lon="-21.699888229">
<ele>11.916016</ele>
<time>2012-07-28T12:45:36Z</time>
<speed>4.540000</speed>
<extensions>
<speed>4.5</speed>
<temp>0.00</temp>
<bpm>0</bpm>
<rpm>0.00</rpm>
</extensions>
</trkpt>
<trkpt lat="63.834045410" lon="-21.700304031">
<ele>12.367188</ele>
<time>2012-07-28T12:45:41Z</time>
<speed>4.330000</speed>
<extensions>
<speed>4.3</speed>
<temp>0.00</temp>
<bpm>0</bpm>
<rpm>0.00</rpm>
</extensions>
</trkpt>
<trkpt lat="63.834144592" lon="-21.700700760">
<ele>12.406006</ele>
<time>2012-07-28T12:45:46Z</time>
<speed>4.450000</speed>
<extensions>
<speed>4.5</speed>
<temp>0.00</temp>
<bpm>0</bpm>
<rpm>0.00</rpm>
</extensions>
</trkpt>
<trkpt lat="63.834259033" lon="-21.701078415">
<ele>12.329102</ele>
<time>2012-07-28T12:45:51Z</time>
<speed>4.440000</speed>
<extensions>
<speed>4.4</speed>
<temp>0.00</temp>
<bpm>0</bpm>
<rpm>0.00</rpm>
</extensions>
</trkpt>
<trkpt lat="63.834381104" lon="-21.701444626">
<ele>12.098633</ele>
<time>2012-07-28T12:45:56Z</time>
<speed>4.150000</speed>
<extensions>
<speed>4.1</speed>
<temp>0.00</temp>
<bpm>0</bpm>
<rpm>0.00</rpm>
</extensions>
</trkpt>
<trkpt lat="63.834487915" lon="-21.701774597">
<ele>11.382568</ele>
<time>2012-07-28T12:46:01Z</time>
<speed>3.740000</speed>
<extensions>
<speed>3.7</speed>
<temp>0.00</temp>
<bpm>0</bpm>
<rpm>0.00</rpm>
</extensions>
</trkpt>
<trkpt lat="63.834583282" lon="-21.702070236">
<ele>11.051270</ele>
<time>2012-07-28T12:46:06Z</time>
<speed>3.460000</speed>
<extensions>
<speed>3.5</speed>
<temp>0.00</temp>
<bpm>0</bpm>
<rpm>0.00</rpm>
</extensions>
</trkpt>
<trkpt lat="63.834674835" lon="-21.702350616">
<ele>10.700439</ele>
<time>2012-07-28T12:46:11Z</time>
<speed>3.470000</speed>
<extensions>
<speed>3.5</speed>
<temp>0.00</temp>
<bpm>0</bpm>
<rpm>0.00</rpm>
</extensions>
</trkpt>
<trkpt lat="63.834758759" lon="-21.702644348">
<ele>10.577393</ele>
<time>2012-07-28T12:46:16Z</time>
<speed>3.160000</speed>
<extensions>
<speed>3.2</speed>
<temp>0.00</temp>
<bpm>0</bpm>
<rpm>0.00</rpm>
</extensions>
</trkpt>
<trkpt lat="63.834835052" lon="-21.702915192">
<ele>10.896240</ele>
<time>2012-07-28T12:46:21Z</time>
<speed>3.440000</speed>
<extensions>
<speed>3.4</speed>
<temp>0.00</temp>
<bpm>0</bpm>
<rpm>0.00</rpm>
</extensions>
</trkpt>
<trkpt lat="63.834922791" lon="-21.703195572">
<ele>10.649170</ele>
<time>2012-07-28T12:46:26Z</time>
<speed>3.390000</speed>
<extensions>
<speed>3.4</speed>
<temp>0.00</temp>
<bpm>0</bpm>
<rpm>0.00</rpm>
</extensions>
</trkpt>
<trkpt lat="63.835010529" lon="-21.703481674">
<ele>10.619141</ele>
<time>2012-07-28T12:46:31Z</time>
<speed>3.560000</speed>
<extensions>
<speed>3.6</speed>
<temp>0.00</temp>
<bpm>0</bpm>
<rpm>0.00</rpm>
</extensions>
</trkpt>
<trkpt lat="63.835105896" lon="-21.703784943">
<ele>10.463135</ele>
<time>2012-07-28T12:46:36Z</time>
<speed>3.790000</speed>
<extensions>
<speed>3.8</speed>
<temp>0.00</temp>
<bpm>0</bpm>
<rpm>0.00</rpm>
</extensions>
</trkpt>
<trkpt lat="63.835205078" lon="-21.704109192">
<ele>10.062744</ele>
<time>2012-07-28T12:46:41Z</time>
<speed>3.670000</speed>
<extensions>
<speed>3.7</speed>
<temp>0.00</temp>
<bpm>0</bpm>
<rpm>0.00</rpm>
</extensions>
</trkpt>
<trkpt lat="63.835304260" lon="-21.704399109">
<ele>10.489502</ele>
<time>2012-07-28T12:46:46Z</time>
<speed>3.600000</speed>
<extensions>
<speed>3.6</speed>
<temp>0.00</temp>
<bpm>0</bpm>
<rpm>0.00</rpm>
</extensions>
</trkpt>
<trkpt lat="63.835395813" lon="-21.704641342">
<ele>10.218994</ele>
<time>2012-07-28T12:46:51Z</time>
<speed>2.690000</speed>
<extensions>
<speed>2.7</speed>
<temp>0.00</temp>
<bpm>0</bpm>
<rpm>0.00</rpm>
</extensions>
</trkpt>
<trkpt lat="63.835479736" lon="-21.704845428">
<ele>9.551514</ele>
<time>2012-07-28T12:46:56Z</time>
<speed>2.680000</speed>
<extensions>
<speed>2.7</speed>
<temp>0.00</temp>
<bpm>0</bpm>
<rpm>0.00</rpm>
</extensions>
</trkpt>
<trkpt lat="63.835571289" lon="-21.705030441">
<ele>9.139160</ele>
<time>2012-07-28T12:47:01Z</time>
<speed>2.770000</speed>
<extensions>
<speed>2.8</speed>
<temp>0.00</temp>
<bpm>0</bpm>
<rpm>0.00</rpm>
</extensions>
</trkpt>
<trkpt lat="63.835655212" lon="-21.705175400">
<ele>8.812256</ele>
<time>2012-07-28T12:47:06Z</time>
<speed>1.650000</speed>
<extensions>
<speed>1.7</speed>
<temp>0.00</temp>
<bpm>0</bpm>
<rpm>0.00</rpm>
</extensions>
</trkpt>
<trkpt lat="63.835681915" lon="-21.705282211">
<ele>9.208252</ele>
<time>2012-07-28T12:47:11Z</time>
<speed>1.150000</speed>
<extensions>
<speed>1.1</speed>
<temp>0.00</temp>
<bpm>0</bpm>
<rpm>0.00</rpm>
</extensions>
</trkpt>
<trkpt lat="63.835674286" lon="-21.705286026">
<ele>7.993286</ele>
<time>2012-07-28T12:47:16Z</time>
<speed>0.090000</speed>
<extensions>
<speed>0.1</speed>
<temp>0.00</temp>
<bpm>0</bpm>
<rpm>0.00</rpm>
</extensions>
</trkpt>
<trkpt lat="63.835674286" lon="-21.705291748">
<ele>7.823364</ele>
<time>2012-07-28T12:47:21Z</time>
<speed>0.690000</speed>
<extensions>
<speed>0.7</speed>
<temp>0.00</temp>
<bpm>0</bpm>
<rpm>0.00</rpm>
</extensions>
</trkpt>
<trkpt lat="63.835689545" lon="-21.705282211">
<ele>8.215088</ele>
<time>2012-07-28T12:47:26Z</time>
<speed>0.570000</speed>
<extensions>
<speed>0.6</speed>
<temp>0.00</temp>
<bpm>0</bpm>
<rpm>0.00</rpm>
</extensions>
</trkpt>
<trkpt lat="63.835681915" lon="-21.705259323">
<ele>8.455566</ele>
<time>2012-07-28T12:47:31Z</time>
<speed>0.280000</speed>
<extensions>
<speed>0.3</speed>
<temp>0.00</temp>
<bpm>0</bpm>
<rpm>0.00</rpm>
</extensions>
</trkpt>
<trkpt lat="63.835678101" lon="-21.705230713">
<ele>8.454346</ele>
<time>2012-07-28T12:47:36Z</time>
<speed>0.100000</speed>
<extensions>
<speed>0.1</speed>
<temp>0.00</temp>
<bpm>0</bpm>
<rpm>0.00</rpm>
</extensions>
</trkpt>
<trkpt lat="63.835678101" lon="-21.705226898">
<ele>8.368896</ele>
<time>2012-07-28T12:47:41Z</time>
<speed>0.010000</speed>
<extensions>
<speed>0.0</speed>
<temp>0.00</temp>
<bpm>0</bpm>
<rpm>0.00</rpm>
</extensions>
</trkpt>
<trkpt lat="63.835678101" lon="-21.705226898">
<ele>8.272461</ele>
<time>2012-07-28T12:47:46Z</time>
<speed>0.020000</speed>
<extensions>
<speed>0.0</speed>
<temp>0.00</temp>
<bpm>0</bpm>
<rpm>0.00</rpm>
</extensions>
</trkpt>
<trkpt lat="63.835678101" lon="-21.705228806">
<ele>8.160645</ele>
<time>2012-07-28T12:47:51Z</time>
<speed>0.030000</speed>
<extensions>
<speed>0.0</speed>
<temp>0.00</temp>
<bpm>0</bpm>
<rpm>0.00</rpm>
</extensions>
</trkpt>
<trkpt lat="63.835678101" lon="-21.705228806">
<ele>8.050781</ele>
<time>2012-07-28T12:47:56Z</time>
<speed>0.020000</speed>
<extensions>
<speed>0.0</speed>
<temp>0.00</temp>
<bpm>0</bpm>
<rpm>0.00</rpm>
</extensions>
</trkpt>
<trkpt lat="63.835678101" lon="-21.705228806">
<ele>7.934692</ele>
<time>2012-07-28T12:48:01Z</time>
<speed>0.020000</speed>
<extensions>
<speed>0.0</speed>
<temp>0.00</temp>
<bpm>0</bpm>
<rpm>0.00</rpm>
</extensions>
</trkpt>
<trkpt lat="63.835681915" lon="-21.705228806">
<ele>7.826050</ele>
<time>2012-07-28T12:48:06Z</time>
<speed>0.030000</speed>
<extensions>
<speed>0.0</speed>
<temp>0.00</temp>
<bpm>0</bpm>
<rpm>0.00</rpm>
</extensions>
</trkpt>
<trkpt lat="63.835681915" lon="-21.705228806">
<ele>7.798584</ele>
<time>2012-07-28T12:48:11Z</time>
<speed>0.010000</speed>
<extensions>
<speed>0.0</speed>
<temp>0.00</temp>
<bpm>0</bpm>
<rpm>0.00</rpm>
</extensions>
</trkpt>
<trkpt lat="63.835681915" lon="-21.705230713">
<ele>7.798950</ele>
<time>2012-07-28T12:48:16Z</time>
<extensions>
<speed>0.0</speed>
<temp>0.00</temp>
<bpm>0</bpm>
<rpm>0.00</rpm>
</extensions>
</trkpt>
<trkpt lat="63.835681915" lon="-21.705230713">
<ele>7.798462</ele>
<time>2012-07-28T12:48:21Z</time>
<extensions>
<speed>0.0</speed>
<temp>0.00</temp>
<bpm>0</bpm>
<rpm>0.00</rpm>
</extensions>
</trkpt>
<trkpt lat="63.835681915" lon="-21.705230713">
<ele>7.793579</ele>
<time>2012-07-28T12:48:26Z</time>
<extensions>
<speed>0.0</speed>
<temp>0.00</temp>
<bpm>0</bpm>
<rpm>0.00</rpm>
</extensions>
</trkpt>
<trkpt lat="63.835681915" lon="-21.705230713">
<ele>7.789795</ele>
<time>2012-07-28T12:48:31Z</time>
<extensions>
<speed>0.0</speed>
<temp>0.00</temp>
<bpm>0</bpm>
<rpm>0.00</rpm>
</extensions>
</trkpt>
<trkpt lat="63.835681915" lon="-21.705230713">
<ele>7.782837</ele>
<time>2012-07-28T12:48:36Z</time>
<speed>0.010000</speed>
<extensions>
<speed>0.0</speed>
<temp>0.00</temp>
<bpm>0</bpm>
<rpm>0.00</rpm>
</extensions>
</trkpt>
<trkpt lat="63.835681915" lon="-21.705230713">
<ele>7.775391</ele>
<time>2012-07-28T12:48:41Z</time>
<speed>0.010000</speed>
<extensions>
<speed>0.0</speed>
<temp>0.00</temp>
<bpm>0</bpm>
<rpm>0.00</rpm>
</extensions>
</trkpt>
<trkpt lat="63.835681915" lon="-21.705230713">
<ele>7.768555</ele>
<time>2012-07-28T12:48:46Z</time>
<extensions>
<speed>0.0</speed>
<temp>0.00</temp>
<bpm>0</bpm>
<rpm>0.00</rpm>
</extensions>
</trkpt>
<trkpt lat="63.835681915" lon="-21.705230713">
<ele>7.765869</ele>
<time>2012-07-28T12:48:51Z</time>
<extensions>
<speed>0.0</speed>
<temp>0.00</temp>
<bpm>0</bpm>
<rpm>0.00</rpm>
</extensions>
</trkpt>
<trkpt lat="63.835678101" lon="-21.705230713">
<ele>7.763672</ele>
<time>2012-07-28T12:48:56Z</time>
<extensions>
<speed>0.0</speed>
<temp>0.00</temp>
<bpm>0</bpm>
<rpm>0.00</rpm>
</extensions>
</trkpt>
<trkpt lat="63.835678101" lon="-21.705230713">
<ele>7.760010</ele>
<time>2012-07-28T12:49:01Z</time>
<extensions>
<speed>0.0</speed>
<temp>0.00</temp>
<bpm>0</bpm>
<rpm>0.00</rpm>
</extensions>
</trkpt>
<trkpt lat="63.835678101" lon="-21.705230713">
<ele>7.761597</ele>
<time>2012-07-28T12:49:06Z</time>
<extensions>
<speed>0.0</speed>
<temp>0.00</temp>
<bpm>0</bpm>
<rpm>0.00</rpm>
</extensions>
</trkpt>
<trkpt lat="63.835678101" lon="-21.705230713">
<ele>7.765381</ele>
<time>2012-07-28T12:49:11Z</time>
<speed>0.010000</speed>
<extensions>
<speed>0.0</speed>
<temp>0.00</temp>
<bpm>0</bpm>
<rpm>0.00</rpm>
</extensions>
</trkpt>
<trkpt lat="63.835678101" lon="-21.705230713">
<ele>7.758789</ele>
<time>2012-07-28T12:49:16Z</time>
<speed>0.010000</speed>
<extensions>
<speed>0.0</speed>
<temp>0.00</temp>
<bpm>0</bpm>
<rpm>0.00</rpm>
</extensions>
</trkpt>
<trkpt lat="63.835678101" lon="-21.705230713">
<ele>7.749146</ele>
<time>2012-07-28T12:49:21Z</time>
<extensions>
<speed>0.0</speed>
<temp>0.00</temp>
<bpm>0</bpm>
<rpm>0.00</rpm>
</extensions>
</trkpt>
<trkpt lat="63.835681915" lon="-21.705230713">
<ele>7.742676</ele>
<time>2012-07-28T12:49:26Z</time>
<speed>0.010000</speed>
<extensions>
<speed>0.0</speed>
<temp>0.00</temp>
<bpm>0</bpm>
<rpm>0.00</rpm>
</extensions>
</trkpt>
<trkpt lat="63.835681915" lon="-21.705230713">
<ele>7.724365</ele>
<time>2012-07-28T12:49:31Z</time>
<speed>0.010000</speed>
<extensions>
<speed>0.0</speed>
<temp>0.00</temp>
<bpm>0</bpm>
<rpm>0.00</rpm>
</extensions>
</trkpt>
<trkpt lat="63.835681915" lon="-21.705230713">
<ele>7.711182</ele>
<time>2012-07-28T12:49:36Z</time>
<speed>0.010000</speed>
<extensions>
<speed>0.0</speed>
<temp>0.00</temp>
<bpm>0</bpm>
<rpm>0.00</rpm>
</extensions>
</trkpt>
<trkpt lat="63.835681915" lon="-21.705230713">
<ele>7.704590</ele>
<time>2012-07-28T12:49:41Z</time>
<extensions>
<speed>0.0</speed>
<temp>0.00</temp>
<bpm>0</bpm>
<rpm>0.00</rpm>
</extensions>
</trkpt>
<trkpt lat="63.835681915" lon="-21.705230713">
<ele>7.698608</ele>
<time>2012-07-28T12:49:46Z</time>
<extensions>
<speed>0.0</speed>
<temp>0.00</temp>
<bpm>0</bpm>
<rpm>0.00</rpm>
</extensions>
</trkpt>
<trkpt lat="63.835681915" lon="-21.705230713">
<ele>7.693970</ele>
<time>2012-07-28T12:49:51Z</time>
<extensions>
<speed>0.0</speed>
<temp>0.00</temp>
<bpm>0</bpm>
<rpm>0.00</rpm>
</extensions>
</trkpt>
<trkpt lat="63.835681915" lon="-21.705230713">
<ele>7.690308</ele>
<time>2012-07-28T12:49:56Z</time>
<speed>0.020000</speed>
<extensions>
<speed>0.0</speed>
<temp>0.00</temp>
<bpm>0</bpm>
<rpm>0.00</rpm>
</extensions>
</trkpt>
<trkpt lat="63.835681915" lon="-21.705228806">
<ele>7.692749</ele>
<time>2012-07-28T12:50:01Z</time>
<speed>0.010000</speed>
<extensions>
<speed>0.0</speed>
<temp>0.00</temp>
<bpm>0</bpm>
<rpm>0.00</rpm>
</extensions>
</trkpt>
<trkpt lat="63.835681915" lon="-21.705228806">
<ele>7.692871</ele>
<time>2012-07-28T12:50:06Z</time>
<extensions>
<speed>0.0</speed>
<temp>0.00</temp>
<bpm>0</bpm>
<rpm>0.00</rpm>
</extensions>
</trkpt>
<trkpt lat="63.835681915" lon="-21.705228806">
<ele>7.694092</ele>
<time>2012-07-28T12:50:11Z</time>
<speed>0.010000</speed>
<extensions>
<speed>0.0</speed>
<temp>0.00</temp>
<bpm>0</bpm>
<rpm>0.00</rpm>
</extensions>
</trkpt>
<trkpt lat="63.835681915" lon="-21.705228806">
<ele>7.691040</ele>
<time>2012-07-28T12:50:16Z</time>
<speed>0.010000</speed>
<extensions>
<speed>0.0</speed>
<temp>0.00</temp>
<bpm>0</bpm>
<rpm>0.00</rpm>
</extensions>
</trkpt>
<trkpt lat="63.835681915" lon="-21.705230713">
<ele>7.678833</ele>
<time>2012-07-28T12:50:21Z</time>
<extensions>
<speed>0.0</speed>
<temp>0.00</temp>
<bpm>0</bpm>
<rpm>0.00</rpm>
</extensions>
</trkpt>
<trkpt lat="63.835681915" lon="-21.705230713">
<ele>7.670532</ele>
<time>2012-07-28T12:50:26Z</time>
<speed>0.010000</speed>
<extensions>
<speed>0.0</speed>
<temp>0.00</temp>
<bpm>0</bpm>
<rpm>0.00</rpm>
</extensions>
</trkpt>
<trkpt lat="63.835681915" lon="-21.705230713">
<ele>7.660645</ele>
<time>2012-07-28T12:50:31Z</time>
<extensions>
<speed>0.0</speed>
<temp>0.00</temp>
<bpm>0</bpm>
<rpm>0.00</rpm>
</extensions>
</trkpt>
<trkpt lat="63.835681915" lon="-21.705230713">
<ele>7.658081</ele>
<time>2012-07-28T12:50:36Z</time>
<speed>0.010000</speed>
<extensions>
<speed>0.0</speed>
<temp>0.00</temp>
<bpm>0</bpm>
<rpm>0.00</rpm>
</extensions>
</trkpt>
<trkpt lat="63.835681915" lon="-21.705230713">
<ele>7.654785</ele>
<time>2012-07-28T12:50:41Z</time>
<extensions>
<speed>0.0</speed>
<temp>0.00</temp>
<bpm>0</bpm>
<rpm>0.00</rpm>
</extensions>
</trkpt>
<trkpt lat="63.835681915" lon="-21.705230713">
<ele>7.651978</ele>
<time>2012-07-28T12:50:46Z</time>
<speed>0.010000</speed>
<extensions>
<speed>0.0</speed>
<temp>0.00</temp>
<bpm>0</bpm>
<rpm>0.00</rpm>
</extensions>
</trkpt>
<trkpt lat="63.835681915" lon="-21.705230713">
<ele>7.643555</ele>
<time>2012-07-28T12:50:51Z</time>
<extensions>
<speed>0.0</speed>
<temp>0.00</temp>
<bpm>0</bpm>
<rpm>0.00</rpm>
</extensions>
</trkpt>
<trkpt lat="63.835681915" lon="-21.705230713">
<ele>7.629395</ele>
<time>2012-07-28T12:50:56Z</time>
<extensions>
<speed>0.0</speed>
<temp>0.00</temp>
<bpm>0</bpm>
<rpm>0.00</rpm>
</extensions>
</trkpt>
<trkpt lat="63.835681915" lon="-21.705230713">
<ele>7.615234</ele>
<time>2012-07-28T12:51:01Z</time>
<extensions>
<speed>0.0</speed>
<temp>0.00</temp>
<bpm>0</bpm>
<rpm>0.00</rpm>
</extensions>
</trkpt>
<trkpt lat="63.835681915" lon="-21.705230713">
<ele>7.603394</ele>
<time>2012-07-28T12:51:06Z</time>
<extensions>
<speed>0.0</speed>
<temp>0.00</temp>
<bpm>0</bpm>
<rpm>0.00</rpm>
</extensions>
</trkpt>
<trkpt lat="63.835681915" lon="-21.705230713">
<ele>7.595337</ele>
<time>2012-07-28T12:51:11Z</time>
<speed>0.010000</speed>
<extensions>
<speed>0.0</speed>
<temp>0.00</temp>
<bpm>0</bpm>
<rpm>0.00</rpm>
</extensions>
</trkpt>
<trkpt lat="63.835681915" lon="-21.705230713">
<ele>7.595093</ele>
<time>2012-07-28T12:51:16Z</time>
<extensions>
<speed>0.0</speed>
<temp>0.00</temp>
<bpm>0</bpm>
<rpm>0.00</rpm>
</extensions>
</trkpt>
<trkpt lat="63.835681915" lon="-21.705230713">
<ele>7.594604</ele>
<time>2012-07-28T12:51:21Z</time>
<extensions>
<speed>0.0</speed>
<temp>0.00</temp>
<bpm>0</bpm>
<rpm>0.00</rpm>
</extensions>
</trkpt>
<trkpt lat="63.835681915" lon="-21.705230713">
<ele>7.593018</ele>
<time>2012-07-28T12:51:26Z</time>
<extensions>
<speed>0.0</speed>
<temp>0.00</temp>
<bpm>0</bpm>
<rpm>0.00</rpm>
</extensions>
</trkpt>
<trkpt lat="63.835681915" lon="-21.705230713">
<ele>7.589478</ele>
<time>2012-07-28T12:51:31Z</time>
<speed>0.010000</speed>
<extensions>
<speed>0.0</speed>
<temp>0.00</temp>
<bpm>0</bpm>
<rpm>0.00</rpm>
</extensions>
</trkpt>
<trkpt lat="63.835681915" lon="-21.705230713">
<ele>7.586060</ele>
<time>2012-07-28T12:51:36Z</time>
<speed>0.010000</speed>
<extensions>
<speed>0.0</speed>
<temp>0.00</temp>
<bpm>0</bpm>
<rpm>0.00</rpm>
</extensions>
</trkpt>
<trkpt lat="63.835681915" lon="-21.705230713">
<ele>7.579834</ele>
<time>2012-07-28T12:51:41Z</time>
<extensions>
<speed>0.0</speed>
<temp>0.00</temp>
<bpm>0</bpm>
<rpm>0.00</rpm>
</extensions>
</trkpt>
<trkpt lat="63.835681915" lon="-21.705230713">
<ele>7.564209</ele>
<time>2012-07-28T12:51:46Z</time>
<speed>0.010000</speed>
<extensions>
<speed>0.0</speed>
<temp>0.00</temp>
<bpm>0</bpm>
<rpm>0.00</rpm>
</extensions>
</trkpt>
<trkpt lat="63.835681915" lon="-21.705230713">
<ele>7.554443</ele>
<time>2012-07-28T12:51:51Z</time>
<speed>0.010000</speed>
<extensions>
<speed>0.0</speed>
<temp>0.00</temp>
<bpm>0</bpm>
<rpm>0.00</rpm>
</extensions>
</trkpt>
<trkpt lat="63.835681915" lon="-21.705228806">
<ele>7.546143</ele>
<time>2012-07-28T12:51:56Z</time>
<extensions>
<speed>0.0</speed>
<temp>0.00</temp>
<bpm>0</bpm>
<rpm>0.00</rpm>
</extensions>
</trkpt>
<trkpt lat="63.835681915" lon="-21.705228806">
<ele>7.531006</ele>
<time>2012-07-28T12:52:01Z</time>
<extensions>
<speed>0.0</speed>
<temp>0.00</temp>
<bpm>0</bpm>
<rpm>0.00</rpm>
</extensions>
</trkpt>
<trkpt lat="63.835681915" lon="-21.705228806">
<ele>7.514160</ele>
<time>2012-07-28T12:52:06Z</time>
<speed>0.010000</speed>
<extensions>
<speed>0.0</speed>
<temp>0.00</temp>
<bpm>0</bpm>
<rpm>0.00</rpm>
</extensions>
</trkpt>
<trkpt lat="63.835681915" lon="-21.705228806">
<ele>7.502319</ele>
<time>2012-07-28T12:52:11Z</time>
<extensions>
<speed>0.0</speed>
<temp>0.00</temp>
<bpm>0</bpm>
<rpm>0.00</rpm>
</extensions>
</trkpt>
<trkpt lat="63.835681915" lon="-21.705226898">
<ele>7.486938</ele>
<time>2012-07-28T12:52:16Z</time>
<extensions>
<speed>0.0</speed>
<temp>0.00</temp>
<bpm>0</bpm>
<rpm>0.00</rpm>
</extensions>
</trkpt>
<trkpt lat="63.835681915" lon="-21.705226898">
<ele>7.474976</ele>
<time>2012-07-28T12:52:21Z</time>
<speed>0.010000</speed>
<extensions>
<speed>0.0</speed>
<temp>0.00</temp>
<bpm>0</bpm>
<rpm>0.00</rpm>
</extensions>
</trkpt>
<trkpt lat="63.835681915" lon="-21.705226898">
<ele>7.468384</ele>
<time>2012-07-28T12:52:26Z</time>
<extensions>
<speed>0.0</speed>
<temp>0.00</temp>
<bpm>0</bpm>
<rpm>0.00</rpm>
</extensions>
</trkpt>
<trkpt lat="63.835681915" lon="-21.705224991">
<ele>7.455444</ele>
<time>2012-07-28T12:52:31Z</time>
<extensions>
<speed>0.0</speed>
<temp>0.00</temp>
<bpm>0</bpm>
<rpm>0.00</rpm>
</extensions>
</trkpt>
<trkpt lat="63.835678101" lon="-21.705224991">
<ele>7.457520</ele>
<time>2012-07-28T12:52:36Z</time>
<speed>0.010000</speed>
<extensions>
<speed>0.0</speed>
<temp>0.00</temp>
<bpm>0</bpm>
<rpm>0.00</rpm>
</extensions>
</trkpt>
<trkpt lat="63.835678101" lon="-21.705224991">
<ele>7.465576</ele>
<time>2012-07-28T12:52:41Z</time>
<extensions>
<speed>0.0</speed>
<temp>0.00</temp>
<bpm>0</bpm>
<rpm>0.00</rpm>
</extensions>
</trkpt>
<trkpt lat="63.835678101" lon="-21.705224991">
<ele>7.469849</ele>
<time>2012-07-28T12:52:46Z</time>
<extensions>
<speed>0.0</speed>
<temp>0.00</temp>
<bpm>0</bpm>
<rpm>0.00</rpm>
</extensions>
</trkpt>
<trkpt lat="63.835678101" lon="-21.705224991">
<ele>7.463501</ele>
<time>2012-07-28T12:52:51Z</time>
<speed>0.020000</speed>
<extensions>
<speed>0.0</speed>
<temp>0.00</temp>
<bpm>0</bpm>
<rpm>0.00</rpm>
</extensions>
</trkpt>
<trkpt lat="63.835678101" lon="-21.705224991">
<ele>7.450195</ele>
<time>2012-07-28T12:52:56Z</time>
<extensions>
<speed>0.0</speed>
<temp>0.00</temp>
<bpm>0</bpm>
<rpm>0.00</rpm>
</extensions>
</trkpt>
<trkpt lat="63.835678101" lon="-21.705224991">
<ele>7.436646</ele>
<time>2012-07-28T12:53:01Z</time>
<extensions>
<speed>0.0</speed>
<temp>0.00</temp>
<bpm>0</bpm>
<rpm>0.00</rpm>
</extensions>
</trkpt>
<trkpt lat="63.835678101" lon="-21.705224991">
<ele>7.425781</ele>
<time>2012-07-28T12:53:06Z</time>
<extensions>
<speed>0.0</speed>
<temp>0.00</temp>
<bpm>0</bpm>
<rpm>0.00</rpm>
</extensions>
</trkpt>
<trkpt lat="63.835678101" lon="-21.705223083">
<ele>7.421753</ele>
<time>2012-07-28T12:53:11Z</time>
<speed>0.010000</speed>
<extensions>
<speed>0.0</speed>
<temp>0.00</temp>
<bpm>0</bpm>
<rpm>0.00</rpm>
</extensions>
</trkpt>
<trkpt lat="63.835678101" lon="-21.705223083">
<ele>7.410889</ele>
<time>2012-07-28T12:53:16Z</time>
<extensions>
<speed>0.0</speed>
<temp>0.00</temp>
<bpm>0</bpm>
<rpm>0.00</rpm>
</extensions>
</trkpt>
<trkpt lat="63.835678101" lon="-21.705223083">
<ele>7.397095</ele>
<time>2012-07-28T12:53:21Z</time>
<extensions>
<speed>0.0</speed>
<temp>0.00</temp>
<bpm>0</bpm>
<rpm>0.00</rpm>
</extensions>
</trkpt>
<trkpt lat="63.835678101" lon="-21.705223083">
<ele>7.382202</ele>
<time>2012-07-28T12:53:26Z</time>
<extensions>
<speed>0.0</speed>
<temp>0.00</temp>
<bpm>0</bpm>
<rpm>0.00</rpm>
</extensions>
</trkpt>
<trkpt lat="63.835678101" lon="-21.705221176">
<ele>7.360840</ele>
<time>2012-07-28T12:53:31Z</time>
<extensions>
<speed>0.0</speed>
<temp>0.00</temp>
<bpm>0</bpm>
<rpm>0.00</rpm>
</extensions>
</trkpt>
<trkpt lat="63.835678101" lon="-21.705221176">
<ele>7.347778</ele>
<time>2012-07-28T12:53:36Z</time>
<extensions>
<speed>0.0</speed>
<temp>0.00</temp>
<bpm>0</bpm>
<rpm>0.00</rpm>
</extensions>
</trkpt>
<trkpt lat="63.835678101" lon="-21.705221176">
<ele>7.328979</ele>
<time>2012-07-28T12:53:41Z</time>
<extensions>
<speed>0.0</speed>
<temp>0.00</temp>
<bpm>0</bpm>
<rpm>0.00</rpm>
</extensions>
</trkpt>
<trkpt lat="63.835678101" lon="-21.705219269">
<ele>7.310425</ele>
<time>2012-07-28T12:53:46Z</time>
<extensions>
<speed>0.0</speed>
<temp>0.00</temp>
<bpm>0</bpm>
<rpm>0.00</rpm>
</extensions>
</trkpt>
<trkpt lat="63.835678101" lon="-21.705219269">
<ele>7.294678</ele>
<time>2012-07-28T12:53:51Z</time>
<extensions>
<speed>0.0</speed>
<temp>0.00</temp>
<bpm>0</bpm>
<rpm>0.00</rpm>
</extensions>
</trkpt>
<trkpt lat="63.835678101" lon="-21.705219269">
<ele>7.280518</ele>
<time>2012-07-28T12:53:56Z</time>
<extensions>
<speed>0.0</speed>
<temp>0.00</temp>
<bpm>0</bpm>
<rpm>0.00</rpm>
</extensions>
</trkpt>
<trkpt lat="63.835678101" lon="-21.705217361">
<ele>7.266968</ele>
<time>2012-07-28T12:54:01Z</time>
<extensions>
<speed>0.0</speed>
<temp>0.00</temp>
<bpm>0</bpm>
<rpm>0.00</rpm>
</extensions>
</trkpt>
<trkpt lat="63.835678101" lon="-21.705217361">
<ele>7.256714</ele>
<time>2012-07-28T12:54:06Z</time>
<speed>0.010000</speed>
<extensions>
<speed>0.0</speed>
<temp>0.00</temp>
<bpm>0</bpm>
<rpm>0.00</rpm>
</extensions>
</trkpt>
<trkpt lat="63.835678101" lon="-21.705217361">
<ele>7.245728</ele>
<time>2012-07-28T12:54:11Z</time>
<extensions>
<speed>0.0</speed>
<temp>0.00</temp>
<bpm>0</bpm>
<rpm>0.00</rpm>
</extensions>
</trkpt>
<trkpt lat="63.835678101" lon="-21.705217361">
<ele>7.238281</ele>
<time>2012-07-28T12:54:16Z</time>
<extensions>
<speed>0.0</speed>
<temp>0.00</temp>
<bpm>0</bpm>
<rpm>0.00</rpm>
</extensions>
</trkpt>
<trkpt lat="63.835678101" lon="-21.705215454">
<ele>7.232300</ele>
<time>2012-07-28T12:54:21Z</time>
<extensions>
<speed>0.0</speed>
<temp>0.00</temp>
<bpm>0</bpm>
<rpm>0.00</rpm>
</extensions>
</trkpt>
<trkpt lat="63.835678101" lon="-21.705215454">
<ele>7.225830</ele>
<time>2012-07-28T12:54:26Z</time>
<extensions>
<speed>0.0</speed>
<temp>0.00</temp>
<bpm>0</bpm>
<rpm>0.00</rpm>
</extensions>
</trkpt>
<trkpt lat="63.835678101" lon="-21.705215454">
<ele>7.214722</ele>
<time>2012-07-28T12:54:31Z</time>
<extensions>
<speed>0.0</speed>
<temp>0.00</temp>
<bpm>0</bpm>
<rpm>0.00</rpm>
</extensions>
</trkpt>
<trkpt lat="63.835678101" lon="-21.705215454">
<ele>7.198486</ele>
<time>2012-07-28T12:54:36Z</time>
<extensions>
<speed>0.0</speed>
<temp>0.00</temp>
<bpm>0</bpm>
<rpm>0.00</rpm>
</extensions>
</trkpt>
<trkpt lat="63.835678101" lon="-21.705213547">
<ele>7.180664</ele>
<time>2012-07-28T12:54:41Z</time>
<speed>0.010000</speed>
<extensions>
<speed>0.0</speed>
<temp>0.00</temp>
<bpm>0</bpm>
<rpm>0.00</rpm>
</extensions>
</trkpt>
<trkpt lat="63.835678101" lon="-21.705213547">
<ele>7.164673</ele>
<time>2012-07-28T12:54:46Z</time>
<extensions>
<speed>0.0</speed>
<temp>0.00</temp>
<bpm>0</bpm>
<rpm>0.00</rpm>
</extensions>
</trkpt>
<trkpt lat="63.835678101" lon="-21.705213547">
<ele>7.155640</ele>
<time>2012-07-28T12:54:51Z</time>
<extensions>
<speed>0.0</speed>
<temp>0.00</temp>
<bpm>0</bpm>
<rpm>0.00</rpm>
</extensions>
</trkpt>
<trkpt lat="63.835678101" lon="-21.705213547">
<ele>7.139648</ele>
<time>2012-07-28T12:54:56Z</time>
<extensions>
<speed>0.0</speed>
<temp>0.00</temp>
<bpm>0</bpm>
<rpm>0.00</rpm>
</extensions>
</trkpt>
<trkpt lat="63.835678101" lon="-21.705213547">
<ele>7.128052</ele>
<time>2012-07-28T12:55:01Z</time>
<extensions>
<speed>0.0</speed>
<temp>0.00</temp>
<bpm>0</bpm>
<rpm>0.00</rpm>
</extensions>
</trkpt>
<trkpt lat="63.835678101" lon="-21.705213547">
<ele>7.127808</ele>
<time>2012-07-28T12:55:06Z</time>
<extensions>
<speed>0.0</speed>
<temp>0.00</temp>
<bpm>0</bpm>
<rpm>0.00</rpm>
</extensions>
</trkpt>
<trkpt lat="63.835678101" lon="-21.705213547">
<ele>7.120972</ele>
<time>2012-07-28T12:55:11Z</time>
<extensions>
<speed>0.0</speed>
<temp>0.00</temp>
<bpm>0</bpm>
<rpm>0.00</rpm>
</extensions>
</trkpt>
<trkpt lat="63.835678101" lon="-21.705211639">
<ele>7.110962</ele>
<time>2012-07-28T12:55:16Z</time>
<extensions>
<speed>0.0</speed>
<temp>0.00</temp>
<bpm>0</bpm>
<rpm>0.00</rpm>
</extensions>
</trkpt>
<trkpt lat="63.835678101" lon="-21.705211639">
<ele>7.102539</ele>
<time>2012-07-28T12:55:21Z</time>
<extensions>
<speed>0.0</speed>
<temp>0.00</temp>
<bpm>0</bpm>
<rpm>0.00</rpm>
</extensions>
</trkpt>
<trkpt lat="63.835678101" lon="-21.705211639">
<ele>7.095947</ele>
<time>2012-07-28T12:55:26Z</time>
<extensions>
<speed>0.0</speed>
<temp>0.00</temp>
<bpm>0</bpm>
<rpm>0.00</rpm>
</extensions>
</trkpt>
<trkpt lat="63.835678101" lon="-21.705211639">
<ele>7.090576</ele>
<time>2012-07-28T12:55:31Z</time>
<speed>0.010000</speed>
<extensions>
<speed>0.0</speed>
<temp>0.00</temp>
<bpm>0</bpm>
<rpm>0.00</rpm>
</extensions>
</trkpt>
<trkpt lat="63.835678101" lon="-21.705211639">
<ele>7.081421</ele>
<time>2012-07-28T12:55:36Z</time>
<extensions>
<speed>0.0</speed>
<temp>0.00</temp>
<bpm>0</bpm>
<rpm>0.00</rpm>
</extensions>
</trkpt>
<trkpt lat="63.835678101" lon="-21.705211639">
<ele>7.078979</ele>
<time>2012-07-28T12:55:41Z</time>
<extensions>
<speed>0.0</speed>
<temp>0.00</temp>
<bpm>0</bpm>
<rpm>0.00</rpm>
</extensions>
</trkpt>
<trkpt lat="63.835678101" lon="-21.705211639">
<ele>7.073364</ele>
<time>2012-07-28T12:55:46Z</time>
<speed>0.020000</speed>
<extensions>
<speed>0.0</speed>
<temp>0.00</temp>
<bpm>0</bpm>
<rpm>0.00</rpm>
</extensions>
</trkpt>
<trkpt lat="63.835678101" lon="-21.705211639">
<ele>7.068115</ele>
<time>2012-07-28T12:55:51Z</time>
<extensions>
<speed>0.0</speed>
<temp>0.00</temp>
<bpm>0</bpm>
<rpm>0.00</rpm>
</extensions>
</trkpt>
<trkpt lat="63.835678101" lon="-21.705211639">
<ele>7.063232</ele>
<time>2012-07-28T12:55:56Z</time>
<extensions>
<speed>0.0</speed>
<temp>0.00</temp>
<bpm>0</bpm>
<rpm>0.00</rpm>
</extensions>
</trkpt>
<trkpt lat="63.835678101" lon="-21.705211639">
<ele>7.055298</ele>
<time>2012-07-28T12:56:01Z</time>
<extensions>
<speed>0.0</speed>
<temp>0.00</temp>
<bpm>0</bpm>
<rpm>0.00</rpm>
</extensions>
</trkpt>
<trkpt lat="63.835678101" lon="-21.705211639">
<ele>7.049194</ele>
<time>2012-07-28T12:56:06Z</time>
<extensions>
<speed>0.0</speed>
<temp>0.00</temp>
<bpm>0</bpm>
<rpm>0.00</rpm>
</extensions>
</trkpt>
<trkpt lat="63.835678101" lon="-21.705209732">
<ele>7.043091</ele>
<time>2012-07-28T12:56:11Z</time>
<extensions>
<speed>0.0</speed>
<temp>0.00</temp>
<bpm>0</bpm>
<rpm>0.00</rpm>
</extensions>
</trkpt>
<trkpt lat="63.835674286" lon="-21.705209732">
<ele>7.038452</ele>
<time>2012-07-28T12:56:16Z</time>
<extensions>
<speed>0.0</speed>
<temp>0.00</temp>
<bpm>0</bpm>
<rpm>0.00</rpm>
</extensions>
</trkpt>
<trkpt lat="63.835674286" lon="-21.705209732">
<ele>7.036621</ele>
<time>2012-07-28T12:56:21Z</time>
<extensions>
<speed>0.0</speed>
<temp>0.00</temp>
<bpm>0</bpm>
<rpm>0.00</rpm>
</extensions>
</trkpt>
<trkpt lat="63.835674286" lon="-21.705209732">
<ele>7.030396</ele>
<time>2012-07-28T12:56:26Z</time>
<speed>0.010000</speed>
<extensions>
<speed>0.0</speed>
<temp>0.00</temp>
<bpm>0</bpm>
<rpm>0.00</rpm>
</extensions>
</trkpt>
<trkpt lat="63.835674286" lon="-21.705209732">
<ele>7.025024</ele>
<time>2012-07-28T12:56:31Z</time>
<extensions>
<speed>0.0</speed>
<temp>0.00</temp>
<bpm>0</bpm>
<rpm>0.00</rpm>
</extensions>
</trkpt>
<trkpt lat="63.835674286" lon="-21.705209732">
<ele>7.023438</ele>
<time>2012-07-28T12:56:36Z</time>
<speed>0.010000</speed>
<extensions>
<speed>0.0</speed>
<temp>0.00</temp>
<bpm>0</bpm>
<rpm>0.00</rpm>
</extensions>
</trkpt>
<trkpt lat="63.835674286" lon="-21.705209732">
<ele>7.017822</ele>
<time>2012-07-28T12:56:41Z</time>
<extensions>
<speed>0.0</speed>
<temp>0.00</temp>
<bpm>0</bpm>
<rpm>0.00</rpm>
</extensions>
</trkpt>
<trkpt lat="63.835674286" lon="-21.705209732">
<ele>7.005127</ele>
<time>2012-07-28T12:56:46Z</time>
<speed>0.010000</speed>
<extensions>
<speed>0.0</speed>
<temp>0.00</temp>
<bpm>0</bpm>
<rpm>0.00</rpm>
</extensions>
</trkpt>
<trkpt lat="63.835674286" lon="-21.705207825">
<ele>6.989746</ele>
<time>2012-07-28T12:56:51Z</time>
<extensions>
<speed>0.0</speed>
<temp>0.00</temp>
<bpm>0</bpm>
<rpm>0.00</rpm>
</extensions>
</trkpt>
<trkpt lat="63.835674286" lon="-21.705207825">
<ele>6.975342</ele>
<time>2012-07-28T12:56:56Z</time>
<extensions>
<speed>0.0</speed>
<temp>0.00</temp>
<bpm>0</bpm>
<rpm>0.00</rpm>
</extensions>
</trkpt>
<trkpt lat="63.835674286" lon="-21.705207825">
<ele>6.966187</ele>
<time>2012-07-28T12:57:01Z</time>
<extensions>
<speed>0.0</speed>
<temp>0.00</temp>
<bpm>0</bpm>
<rpm>0.00</rpm>
</extensions>
</trkpt>
<trkpt lat="63.835674286" lon="-21.705207825">
<ele>6.956543</ele>
<time>2012-07-28T12:57:06Z</time>
<speed>0.010000</speed>
<extensions>
<speed>0.0</speed>
<temp>0.00</temp>
<bpm>0</bpm>
<rpm>0.00</rpm>
</extensions>
</trkpt>
<trkpt lat="63.835674286" lon="-21.705207825">
<ele>6.948608</ele>
<time>2012-07-28T12:57:11Z</time>
<extensions>
<speed>0.0</speed>
<temp>0.00</temp>
<bpm>0</bpm>
<rpm>0.00</rpm>
</extensions>
</trkpt>
<trkpt lat="63.835674286" lon="-21.705207825">
<ele>6.939087</ele>
<time>2012-07-28T12:57:16Z</time>
<extensions>
<speed>0.0</speed>
<temp>0.00</temp>
<bpm>0</bpm>
<rpm>0.00</rpm>
</extensions>
</trkpt>
<trkpt lat="63.835674286" lon="-21.705207825">
<ele>6.929810</ele>
<time>2012-07-28T12:57:21Z</time>
<speed>0.010000</speed>
<extensions>
<speed>0.0</speed>
<temp>0.00</temp>
<bpm>0</bpm>
<rpm>0.00</rpm>
</extensions>
</trkpt>
<trkpt lat="63.835674286" lon="-21.705205917">
<ele>6.922241</ele>
<time>2012-07-28T12:57:26Z</time>
<extensions>
<speed>0.0</speed>
<temp>0.00</temp>
<bpm>0</bpm>
<rpm>0.00</rpm>
</extensions>
</trkpt>
<trkpt lat="63.835674286" lon="-21.705205917">
<ele>6.915283</ele>
<time>2012-07-28T12:57:31Z</time>
<speed>0.010000</speed>
<extensions>
<speed>0.0</speed>
<temp>0.00</temp>
<bpm>0</bpm>
<rpm>0.00</rpm>
</extensions>
</trkpt>
<trkpt lat="63.835674286" lon="-21.705205917">
<ele>6.906860</ele>
<time>2012-07-28T12:57:36Z</time>
<extensions>
<speed>0.0</speed>
<temp>0.00</temp>
<bpm>0</bpm>
<rpm>0.00</rpm>
</extensions>
</trkpt>
<trkpt lat="63.835674286" lon="-21.705205917">
<ele>6.900391</ele>
<time>2012-07-28T12:57:41Z</time>
<extensions>
<speed>0.0</speed>
<temp>0.00</temp>
<bpm>0</bpm>
<rpm>0.00</rpm>
</extensions>
</trkpt>
<trkpt lat="63.835674286" lon="-21.705205917">
<ele>6.893311</ele>
<time>2012-07-28T12:57:46Z</time>
<extensions>
<speed>0.0</speed>
<temp>0.00</temp>
<bpm>0</bpm>
<rpm>0.00</rpm>
</extensions>
</trkpt>
<trkpt lat="63.835674286" lon="-21.705204010">
<ele>6.883057</ele>
<time>2012-07-28T12:57:51Z</time>
<speed>0.010000</speed>
<extensions>
<speed>0.0</speed>
<temp>0.00</temp>
<bpm>0</bpm>
<rpm>0.00</rpm>
</extensions>
</trkpt>
<trkpt lat="63.835674286" lon="-21.705204010">
<ele>6.875000</ele>
<time>2012-07-28T12:57:56Z</time>
<speed>0.010000</speed>
<extensions>
<speed>0.0</speed>
<temp>0.00</temp>
<bpm>0</bpm>
<rpm>0.00</rpm>
</extensions>
</trkpt>
<trkpt lat="63.835674286" lon="-21.705204010">
<ele>6.868164</ele>
<time>2012-07-28T12:58:01Z</time>
<extensions>
<speed>0.0</speed>
<temp>0.00</temp>
<bpm>0</bpm>
<rpm>0.00</rpm>
</extensions>
</trkpt>
<trkpt lat="63.835674286" lon="-21.705204010">
<ele>6.866577</ele>
<time>2012-07-28T12:58:06Z</time>
<extensions>
<speed>0.0</speed>
<temp>0.00</temp>
<bpm>0</bpm>
<rpm>0.00</rpm>
</extensions>
</trkpt>
<trkpt lat="63.835674286" lon="-21.705204010">
<ele>6.864868</ele>
<time>2012-07-28T12:58:11Z</time>
<speed>0.010000</speed>
<extensions>
<speed>0.0</speed>
<temp>0.00</temp>
<bpm>0</bpm>
<rpm>0.00</rpm>
</extensions>
</trkpt>
<trkpt lat="63.835674286" lon="-21.705204010">
<ele>6.860962</ele>
<time>2012-07-28T12:58:16Z</time>
<extensions>
<speed>0.0</speed>
<temp>0.00</temp>
<bpm>0</bpm>
<rpm>0.00</rpm>
</extensions>
</trkpt>
<trkpt lat="63.835674286" lon="-21.705204010">
<ele>6.858154</ele>
<time>2012-07-28T12:58:21Z</time>
<extensions>
<speed>0.0</speed>
<temp>0.00</temp>
<bpm>0</bpm>
<rpm>0.00</rpm>
</extensions>
</trkpt>
<trkpt lat="63.835674286" lon="-21.705204010">
<ele>6.855469</ele>
<time>2012-07-28T12:58:26Z</time>
<extensions>
<speed>0.0</speed>
<temp>0.00</temp>
<bpm>0</bpm>
<rpm>0.00</rpm>
</extensions>
</trkpt>
<trkpt lat="63.835674286" lon="-21.705204010">
<ele>6.852051</ele>
<time>2012-07-28T12:58:31Z</time>
<speed>0.010000</speed>
<extensions>
<speed>0.0</speed>
<temp>0.00</temp>
<bpm>0</bpm>
<rpm>0.00</rpm>
</extensions>
</trkpt>
<trkpt lat="63.835674286" lon="-21.705204010">
<ele>6.854370</ele>
<time>2012-07-28T12:58:36Z</time>
<extensions>
<speed>0.0</speed>
<temp>0.00</temp>
<bpm>0</bpm>
<rpm>0.00</rpm>
</extensions>
</trkpt>
<trkpt lat="63.835674286" lon="-21.705202103">
<ele>6.854614</ele>
<time>2012-07-28T12:58:41Z</time>
<extensions>
<speed>0.0</speed>
<temp>0.00</temp>
<bpm>0</bpm>
<rpm>0.00</rpm>
</extensions>
</trkpt>
<trkpt lat="63.835674286" lon="-21.705202103">
<ele>6.856812</ele>
<time>2012-07-28T12:58:46Z</time>
<extensions>
<speed>0.0</speed>
<temp>0.00</temp>
<bpm>0</bpm>
<rpm>0.00</rpm>
</extensions>
</trkpt>
<trkpt lat="63.835674286" lon="-21.705202103">
<ele>6.859741</ele>
<time>2012-07-28T12:58:51Z</time>
<extensions>
<speed>0.0</speed>
<temp>0.00</temp>
<bpm>0</bpm>
<rpm>0.00</rpm>
</extensions>
</trkpt>
<trkpt lat="63.835674286" lon="-21.705202103">
<ele>6.855103</ele>
<time>2012-07-28T12:58:56Z</time>
<extensions>
<speed>0.0</speed>
<temp>0.00</temp>
<bpm>0</bpm>
<rpm>0.00</rpm>
</extensions>
</trkpt>
<trkpt lat="63.835674286" lon="-21.705202103">
<ele>6.850342</ele>
<time>2012-07-28T12:59:01Z</time>
<extensions>
<speed>0.0</speed>
<temp>0.00</temp>
<bpm>0</bpm>
<rpm>0.00</rpm>
</extensions>
</trkpt>
<trkpt lat="63.835674286" lon="-21.705200195">
<ele>6.848389</ele>
<time>2012-07-28T12:59:06Z</time>
<speed>0.010000</speed>
<extensions>
<speed>0.0</speed>
<temp>0.00</temp>
<bpm>0</bpm>
<rpm>0.00</rpm>
</extensions>
</trkpt>
<trkpt lat="63.835674286" lon="-21.705200195">
<ele>6.844849</ele>
<time>2012-07-28T12:59:11Z</time>
<extensions>
<speed>0.0</speed>
<temp>0.00</temp>
<bpm>0</bpm>
<rpm>0.00</rpm>
</extensions>
</trkpt>
<trkpt lat="63.835674286" lon="-21.705200195">
<ele>6.844116</ele>
<time>2012-07-28T12:59:16Z</time>
<extensions>
<speed>0.0</speed>
<temp>0.00</temp>
<bpm>0</bpm>
<rpm>0.00</rpm>
</extensions>
</trkpt>
<trkpt lat="63.835674286" lon="-21.705200195">
<ele>6.844360</ele>
<time>2012-07-28T12:59:21Z</time>
<extensions>
<speed>0.0</speed>
<temp>0.00</temp>
<bpm>0</bpm>
<rpm>0.00</rpm>
</extensions>
</trkpt>
<trkpt lat="63.835674286" lon="-21.705200195">
<ele>6.841919</ele>
<time>2012-07-28T12:59:26Z</time>
<extensions>
<speed>0.0</speed>
<temp>0.00</temp>
<bpm>0</bpm>
<rpm>0.00</rpm>
</extensions>
</trkpt>
<trkpt lat="63.835674286" lon="-21.705200195">
<ele>6.838867</ele>
<time>2012-07-28T12:59:31Z</time>
<extensions>
<speed>0.0</speed>
<temp>0.00</temp>
<bpm>0</bpm>
<rpm>0.00</rpm>
</extensions>
</trkpt>
<trkpt lat="63.835674286" lon="-21.705200195">
<ele>6.835083</ele>
<time>2012-07-28T12:59:36Z</time>
<extensions>
<speed>0.0</speed>
<temp>0.00</temp>
<bpm>0</bpm>
<rpm>0.00</rpm>
</extensions>
</trkpt>
<trkpt lat="63.835674286" lon="-21.705200195">
<ele>6.835571</ele>
<time>2012-07-28T12:59:41Z</time>
<extensions>
<speed>0.0</speed>
<temp>0.00</temp>
<bpm>0</bpm>
<rpm>0.00</rpm>
</extensions>
</trkpt>
<trkpt lat="63.835674286" lon="-21.705200195">
<ele>6.837158</ele>
<time>2012-07-28T12:59:46Z</time>
<extensions>
<speed>0.0</speed>
<temp>0.00</temp>
<bpm>0</bpm>
<rpm>0.00</rpm>
</extensions>
</trkpt>
<trkpt lat="63.835670471" lon="-21.705198288">
<ele>6.840088</ele>
<time>2012-07-28T12:59:51Z</time>
<speed>0.010000</speed>
<extensions>
<speed>0.0</speed>
<temp>0.00</temp>
<bpm>0</bpm>
<rpm>0.00</rpm>
</extensions>
</trkpt>
<trkpt lat="63.835670471" lon="-21.705198288">
<ele>6.835938</ele>
<time>2012-07-28T12:59:56Z</time>
<extensions>
<speed>0.0</speed>
<temp>0.00</temp>
<bpm>0</bpm>
<rpm>0.00</rpm>
</extensions>
</trkpt>
<trkpt lat="63.835670471" lon="-21.705198288">
<ele>6.839600</ele>
<time>2012-07-28T13:00:01Z</time>
<extensions>
<speed>0.0</speed>
<temp>0.00</temp>
<bpm>0</bpm>
<rpm>0.00</rpm>
</extensions>
</trkpt>
<trkpt lat="63.835670471" lon="-21.705198288">
<ele>6.840576</ele>
<time>2012-07-28T13:00:06Z</time>
<extensions>
<speed>0.0</speed>
<temp>0.00</temp>
<bpm>0</bpm>
<rpm>0.00</rpm>
</extensions>
</trkpt>
<trkpt lat="63.835670471" lon="-21.705198288">
<ele>6.832764</ele>
<time>2012-07-28T13:00:11Z</time>
<extensions>
<speed>0.0</speed>
<temp>0.00</temp>
<bpm>0</bpm>
<rpm>0.00</rpm>
</extensions>
</trkpt>
<trkpt lat="63.835670471" lon="-21.705198288">
<ele>6.830322</ele>
<time>2012-07-28T13:00:16Z</time>
<extensions>
<speed>0.0</speed>
<temp>0.00</temp>
<bpm>0</bpm>
<rpm>0.00</rpm>
</extensions>
</trkpt>
<trkpt lat="63.835670471" lon="-21.705200195">
<ele>6.824463</ele>
<time>2012-07-28T13:00:21Z</time>
<extensions>
<speed>0.0</speed>
<temp>0.00</temp>
<bpm>0</bpm>
<rpm>0.00</rpm>
</extensions>
</trkpt>
<trkpt lat="63.835670471" lon="-21.705200195">
<ele>6.824219</ele>
<time>2012-07-28T13:00:26Z</time>
<extensions>
<speed>0.0</speed>
<temp>0.00</temp>
<bpm>0</bpm>
<rpm>0.00</rpm>
</extensions>
</trkpt>
<trkpt lat="63.835670471" lon="-21.705198288">
<ele>6.829956</ele>
<time>2012-07-28T13:00:31Z</time>
<extensions>
<speed>0.0</speed>
<temp>0.00</temp>
<bpm>0</bpm>
<rpm>0.00</rpm>
</extensions>
</trkpt>
<trkpt lat="63.835670471" lon="-21.705198288">
<ele>6.832764</ele>
<time>2012-07-28T13:00:36Z</time>
<extensions>
<speed>0.0</speed>
<temp>0.00</temp>
<bpm>0</bpm>
<rpm>0.00</rpm>
</extensions>
</trkpt>
<trkpt lat="63.835670471" lon="-21.705198288">
<ele>6.837524</ele>
<time>2012-07-28T13:00:41Z</time>
<speed>0.010000</speed>
<extensions>
<speed>0.0</speed>
<temp>0.00</temp>
<bpm>0</bpm>
<rpm>0.00</rpm>
</extensions>
</trkpt>
<trkpt lat="63.835670471" lon="-21.705198288">
<ele>6.835571</ele>
<time>2012-07-28T13:00:46Z</time>
<extensions>
<speed>0.0</speed>
<temp>0.00</temp>
<bpm>0</bpm>
<rpm>0.00</rpm>
</extensions>
</trkpt>
<trkpt lat="63.835670471" lon="-21.705198288">
<ele>6.835083</ele>
<time>2012-07-28T13:00:51Z</time>
<speed>0.010000</speed>
<extensions>
<speed>0.0</speed>
<temp>0.00</temp>
<bpm>0</bpm>
<rpm>0.00</rpm>
</extensions>
</trkpt>
<trkpt lat="63.835670471" lon="-21.705198288">
<ele>6.826050</ele>
<time>2012-07-28T13:00:56Z</time>
<extensions>
<speed>0.0</speed>
<temp>0.00</temp>
<bpm>0</bpm>
<rpm>0.00</rpm>
</extensions>
</trkpt>
<trkpt lat="63.835659027" lon="-21.705226898">
<ele>6.740112</ele>
<time>2012-07-28T13:01:01Z</time>
<speed>1.710000</speed>
<extensions>
<speed>1.7</speed>
<temp>0.00</temp>
<bpm>0</bpm>
<rpm>0.00</rpm>
</extensions>
</trkpt>
<trkpt lat="63.835590363" lon="-21.705413818">
<ele>7.565308</ele>
<time>2012-07-28T13:01:06Z</time>
<speed>2.330000</speed>
<extensions>
<speed>2.3</speed>
<temp>0.00</temp>
<bpm>0</bpm>
<rpm>0.00</rpm>
</extensions>
</trkpt>
<trkpt lat="63.835536957" lon="-21.705562592">
<ele>8.020508</ele>
<time>2012-07-28T13:01:11Z</time>
<speed>1.680000</speed>
<extensions>
<speed>1.7</speed>
<temp>0.00</temp>
<bpm>0</bpm>
<rpm>0.00</rpm>
</extensions>
</trkpt>
<trkpt lat="63.835502625" lon="-21.705671310">
<ele>7.162231</ele>
<time>2012-07-28T13:01:16Z</time>
<speed>0.930000</speed>
<extensions>
<speed>0.9</speed>
<temp>0.00</temp>
<bpm>0</bpm>
<rpm>0.00</rpm>
</extensions>
</trkpt>
<trkpt lat="63.835453033" lon="-21.705865860">
<ele>6.007324</ele>
<time>2012-07-28T13:01:21Z</time>
<speed>2.590000</speed>
<extensions>
<speed>2.6</speed>
<temp>0.00</temp>
<bpm>0</bpm>
<rpm>0.00</rpm>
</extensions>
</trkpt>
<trkpt lat="63.835430145" lon="-21.705995560">
<ele>6.630371</ele>
<time>2012-07-28T13:01:26Z</time>
<speed>0.020000</speed>
<extensions>
<speed>0.0</speed>
<temp>0.00</temp>
<bpm>0</bpm>
<rpm>0.00</rpm>
</extensions>
</trkpt>
<trkpt lat="63.835433960" lon="-21.705999374">
<ele>6.583984</ele>
<time>2012-07-28T13:01:31Z</time>
<speed>0.050000</speed>
<extensions>
<speed>0.1</speed>
<temp>0.00</temp>
<bpm>0</bpm>
<rpm>0.00</rpm>
</extensions>
</trkpt>
<trkpt lat="63.835437775" lon="-21.705999374">
<ele>6.628296</ele>
<time>2012-07-28T13:01:36Z</time>
<speed>0.020000</speed>
<extensions>
<speed>0.0</speed>
<temp>0.00</temp>
<bpm>0</bpm>
<rpm>0.00</rpm>
</extensions>
</trkpt>
<trkpt lat="63.835437775" lon="-21.705999374">
<ele>6.681641</ele>
<time>2012-07-28T13:01:41Z</time>
<speed>0.020000</speed>
<extensions>
<speed>0.0</speed>
<temp>0.00</temp>
<bpm>0</bpm>
<rpm>0.00</rpm>
</extensions>
</trkpt>
<trkpt lat="63.835437775" lon="-21.705999374">
<ele>6.693726</ele>
<time>2012-07-28T13:01:46Z</time>
<extensions>
<speed>0.0</speed>
<temp>0.00</temp>
<bpm>0</bpm>
<rpm>0.00</rpm>
</extensions>
</trkpt>
<trkpt lat="63.835437775" lon="-21.705999374">
<ele>6.693604</ele>
<time>2012-07-28T13:01:51Z</time>
<extensions>
<speed>0.0</speed>
<temp>0.00</temp>
<bpm>0</bpm>
<rpm>0.00</rpm>
</extensions>
</trkpt>
<trkpt lat="63.835437775" lon="-21.705999374">
<ele>6.703125</ele>
<time>2012-07-28T13:01:56Z</time>
<extensions>
<speed>0.0</speed>
<temp>0.00</temp>
<bpm>0</bpm>
<rpm>0.00</rpm>
</extensions>
</trkpt>
<trkpt lat="63.835437775" lon="-21.705999374">
<ele>6.721191</ele>
<time>2012-07-28T13:02:01Z</time>
<extensions>
<speed>0.0</speed>
<temp>0.00</temp>
<bpm>0</bpm>
<rpm>0.00</rpm>
</extensions>
</trkpt>
<trkpt lat="63.835437775" lon="-21.705999374">
<ele>6.724731</ele>
<time>2012-07-28T13:02:06Z</time>
<extensions>
<speed>0.0</speed>
<temp>0.00</temp>
<bpm>0</bpm>
<rpm>0.00</rpm>
</extensions>
</trkpt>
<trkpt lat="63.835437775" lon="-21.705999374">
<ele>6.734131</ele>
<time>2012-07-28T13:02:11Z</time>
<extensions>
<speed>0.0</speed>
<temp>0.00</temp>
<bpm>0</bpm>
<rpm>0.00</rpm>
</extensions>
</trkpt>
<trkpt lat="63.835437775" lon="-21.706001282">
<ele>6.732178</ele>
<time>2012-07-28T13:02:16Z</time>
<speed>0.010000</speed>
<extensions>
<speed>0.0</speed>
<temp>0.00</temp>
<bpm>0</bpm>
<rpm>0.00</rpm>
</extensions>
</trkpt>
<trkpt lat="63.835441589" lon="-21.706001282">
<ele>6.735840</ele>
<time>2012-07-28T13:02:21Z</time>
<extensions>
<speed>0.0</speed>
<temp>0.00</temp>
<bpm>0</bpm>
<rpm>0.00</rpm>
</extensions>
</trkpt>
<trkpt lat="63.835441589" lon="-21.706001282">
<ele>6.743896</ele>
<time>2012-07-28T13:02:26Z</time>
<speed>0.010000</speed>
<extensions>
<speed>0.0</speed>
<temp>0.00</temp>
<bpm>0</bpm>
<rpm>0.00</rpm>
</extensions>
</trkpt>
<trkpt lat="63.835441589" lon="-21.706001282">
<ele>6.767090</ele>
<time>2012-07-28T13:02:31Z</time>
<extensions>
<speed>0.0</speed>
<temp>0.00</temp>
<bpm>0</bpm>
<rpm>0.00</rpm>
</extensions>
</trkpt>
<trkpt lat="63.835441589" lon="-21.706001282">
<ele>6.769775</ele>
<time>2012-07-28T13:02:36Z</time>
<extensions>
<speed>0.0</speed>
<temp>0.00</temp>
<bpm>0</bpm>
<rpm>0.00</rpm>
</extensions>
</trkpt>
<trkpt lat="63.835441589" lon="-21.706001282">
<ele>6.785889</ele>
<time>2012-07-28T13:02:41Z</time>
<extensions>
<speed>0.0</speed>
<temp>0.00</temp>
<bpm>0</bpm>
<rpm>0.00</rpm>
</extensions>
</trkpt>
<trkpt lat="63.835441589" lon="-21.706001282">
<ele>6.793945</ele>
<time>2012-07-28T13:02:46Z</time>
<speed>0.010000</speed>
<extensions>
<speed>0.0</speed>
<temp>0.00</temp>
<bpm>0</bpm>
<rpm>0.00</rpm>
</extensions>
</trkpt>
<trkpt lat="63.835441589" lon="-21.706001282">
<ele>6.802246</ele>
<time>2012-07-28T13:02:51Z</time>
<extensions>
<speed>0.0</speed>
<temp>0.00</temp>
<bpm>0</bpm>
<rpm>0.00</rpm>
</extensions>
</trkpt>
<trkpt lat="63.835441589" lon="-21.706001282">
<ele>6.805542</ele>
<time>2012-07-28T13:02:56Z</time>
<extensions>
<speed>0.0</speed>
<temp>0.00</temp>
<bpm>0</bpm>
<rpm>0.00</rpm>
</extensions>
</trkpt>
<trkpt lat="63.835441589" lon="-21.706001282">
<ele>6.812012</ele>
<time>2012-07-28T13:03:01Z</time>
<speed>0.010000</speed>
<extensions>
<speed>0.0</speed>
<temp>0.00</temp>
<bpm>0</bpm>
<rpm>0.00</rpm>
</extensions>
</trkpt>
<trkpt lat="63.835441589" lon="-21.706003189">
<ele>6.824951</ele>
<time>2012-07-28T13:03:06Z</time>
<speed>0.010000</speed>
<extensions>
<speed>0.0</speed>
<temp>0.00</temp>
<bpm>0</bpm>
<rpm>0.00</rpm>
</extensions>
</trkpt>
<trkpt lat="63.835441589" lon="-21.706003189">
<ele>6.841919</ele>
<time>2012-07-28T13:03:11Z</time>
<extensions>
<speed>0.0</speed>
<temp>0.00</temp>
<bpm>0</bpm>
<rpm>0.00</rpm>
</extensions>
</trkpt>
<trkpt lat="63.835441589" lon="-21.706003189">
<ele>6.854980</ele>
<time>2012-07-28T13:03:16Z</time>
<speed>0.010000</speed>
<extensions>
<speed>0.0</speed>
<temp>0.00</temp>
<bpm>0</bpm>
<rpm>0.00</rpm>
</extensions>
</trkpt>
<trkpt lat="63.835441589" lon="-21.706003189">
<ele>6.854736</ele>
<time>2012-07-28T13:03:21Z</time>
<extensions>
<speed>0.0</speed>
<temp>0.00</temp>
<bpm>0</bpm>
<rpm>0.00</rpm>
</extensions>
</trkpt>
<trkpt lat="63.835441589" lon="-21.706003189">
<ele>6.871338</ele>
<time>2012-07-28T13:03:26Z</time>
<extensions>
<speed>0.0</speed>
<temp>0.00</temp>
<bpm>0</bpm>
<rpm>0.00</rpm>
</extensions>
</trkpt>
<trkpt lat="63.835441589" lon="-21.706003189">
<ele>6.896240</ele>
<time>2012-07-28T13:03:31Z</time>
<extensions>
<speed>0.0</speed>
<temp>0.00</temp>
<bpm>0</bpm>
<rpm>0.00</rpm>
</extensions>
</trkpt>
<trkpt lat="63.835441589" lon="-21.706003189">
<ele>6.909546</ele>
<time>2012-07-28T13:03:36Z</time>
<extensions>
<speed>0.0</speed>
<temp>0.00</temp>
<bpm>0</bpm>
<rpm>0.00</rpm>
</extensions>
</trkpt>
<trkpt lat="63.835441589" lon="-21.706003189">
<ele>6.915527</ele>
<time>2012-07-28T13:03:41Z</time>
<speed>0.010000</speed>
<extensions>
<speed>0.0</speed>
<temp>0.00</temp>
<bpm>0</bpm>
<rpm>0.00</rpm>
</extensions>
</trkpt>
<trkpt lat="63.835441589" lon="-21.706003189">
<ele>6.913696</ele>
<time>2012-07-28T13:03:46Z</time>
<extensions>
<speed>0.0</speed>
<temp>0.00</temp>
<bpm>0</bpm>
<rpm>0.00</rpm>
</extensions>
</trkpt>
<trkpt lat="63.835441589" lon="-21.706005096">
<ele>6.911377</ele>
<time>2012-07-28T13:03:51Z</time>
<speed>0.040000</speed>
<extensions>
<speed>0.0</speed>
<temp>0.00</temp>
<bpm>0</bpm>
<rpm>0.00</rpm>
</extensions>
</trkpt>
<trkpt lat="63.835437775" lon="-21.706007004">
<ele>6.982178</ele>
<time>2012-07-28T13:03:56Z</time>
<speed>0.460000</speed>
<extensions>
<speed>0.5</speed>
<temp>0.00</temp>
<bpm>0</bpm>
<rpm>0.00</rpm>
</extensions>
</trkpt>
<trkpt lat="63.835441589" lon="-21.705984116">
<ele>6.688599</ele>
<time>2012-07-28T13:04:01Z</time>
<speed>0.290000</speed>
<extensions>
<speed>0.3</speed>
<temp>0.00</temp>
<bpm>0</bpm>
<rpm>0.00</rpm>
</extensions>
</trkpt>
<trkpt lat="63.835464478" lon="-21.705892563">
<ele>6.531372</ele>
<time>2012-07-28T13:04:06Z</time>
<speed>2.230000</speed>
<extensions>
<speed>2.2</speed>
<temp>0.00</temp>
<bpm>0</bpm>
<rpm>0.00</rpm>
</extensions>
</trkpt>
<trkpt lat="63.835533142" lon="-21.705713272">
<ele>6.497803</ele>
<time>2012-07-28T13:04:11Z</time>
<speed>1.760000</speed>
<extensions>
<speed>1.8</speed>
<temp>0.00</temp>
<bpm>0</bpm>
<rpm>0.00</rpm>
</extensions>
</trkpt>
<trkpt lat="63.835563660" lon="-21.705469131">
<ele>6.401978</ele>
<time>2012-07-28T13:04:16Z</time>
<speed>3.120000</speed>
<extensions>
<speed>3.1</speed>
<temp>0.00</temp>
<bpm>0</bpm>
<rpm>0.00</rpm>
</extensions>
</trkpt>
<trkpt lat="63.835536957" lon="-21.705141068">
<ele>5.972046</ele>
<time>2012-07-28T13:04:21Z</time>
<speed>3.420000</speed>
<extensions>
<speed>3.4</speed>
<temp>0.00</temp>
<bpm>0</bpm>
<rpm>0.00</rpm>
</extensions>
</trkpt>
<trkpt lat="63.835464478" lon="-21.704809189">
<ele>5.256470</ele>
<time>2012-07-28T13:04:26Z</time>
<speed>3.530000</speed>
<extensions>
<speed>3.5</speed>
<temp>0.00</temp>
<bpm>0</bpm>
<rpm>0.00</rpm>
</extensions>
</trkpt>
<trkpt lat="63.835380554" lon="-21.704538345">
<ele>4.856445</ele>
<time>2012-07-28T13:04:31Z</time>
<speed>3.230000</speed>
<extensions>
<speed>3.2</speed>
<temp>0.00</temp>
<bpm>0</bpm>
<rpm>0.00</rpm>
</extensions>
</trkpt>
<trkpt lat="63.835300446" lon="-21.704259872">
<ele>5.370117</ele>
<time>2012-07-28T13:04:36Z</time>
<speed>3.230000</speed>
<extensions>
<speed>3.2</speed>
<temp>0.00</temp>
<bpm>0</bpm>
<rpm>0.00</rpm>
</extensions>
</trkpt>
<trkpt lat="63.835208893" lon="-21.703994751">
<ele>4.968384</ele>
<time>2012-07-28T13:04:41Z</time>
<speed>3.430000</speed>
<extensions>
<speed>3.4</speed>
<temp>0.00</temp>
<bpm>0</bpm>
<rpm>0.00</rpm>
</extensions>
</trkpt>
<trkpt lat="63.835117340" lon="-21.703706741">
<ele>4.775879</ele>
<time>2012-07-28T13:04:46Z</time>
<speed>3.260000</speed>
<extensions>
<speed>3.3</speed>
<temp>0.00</temp>
<bpm>0</bpm>
<rpm>0.00</rpm>
</extensions>
</trkpt>
<trkpt lat="63.835021973" lon="-21.703422546">
<ele>4.532227</ele>
<time>2012-07-28T13:04:51Z</time>
<speed>3.800000</speed>
<extensions>
<speed>3.8</speed>
<temp>0.00</temp>
<bpm>0</bpm>
<rpm>0.00</rpm>
</extensions>
</trkpt>
<trkpt lat="63.834918976" lon="-21.703123093">
<ele>1.843536</ele>
<time>2012-07-28T13:04:56Z</time>
<speed>3.670000</speed>
<extensions>
<speed>3.7</speed>
<temp>0.00</temp>
<bpm>0</bpm>
<rpm>0.00</rpm>
</extensions>
</trkpt>
<trkpt lat="63.834827423" lon="-21.702819824">
<ele>2.021667</ele>
<time>2012-07-28T13:05:01Z</time>
<speed>3.440000</speed>
<extensions>
<speed>3.4</speed>
<temp>0.00</temp>
<bpm>0</bpm>
<rpm>0.00</rpm>
</extensions>
</trkpt>
<trkpt lat="63.834739685" lon="-21.702522278">
<ele>2.246826</ele>
<time>2012-07-28T13:05:06Z</time>
<speed>3.790000</speed>
<extensions>
<speed>3.8</speed>
<temp>0.00</temp>
<bpm>0</bpm>
<rpm>0.00</rpm>
</extensions>
</trkpt>
<trkpt lat="63.834644318" lon="-21.702213287">
<ele>2.979431</ele>
<time>2012-07-28T13:05:11Z</time>
<speed>3.850000</speed>
<extensions>
<speed>3.8</speed>
<temp>0.00</temp>
<bpm>0</bpm>
<rpm>0.00</rpm>
</extensions>
</trkpt>
<trkpt lat="63.834545135" lon="-21.701900482">
<ele>4.365845</ele>
<time>2012-07-28T13:05:16Z</time>
<speed>3.880000</speed>
<extensions>
<speed>3.9</speed>
<temp>0.00</temp>
<bpm>0</bpm>
<rpm>0.00</rpm>
</extensions>
</trkpt>
<trkpt lat="63.834426880" lon="-21.701578140">
<ele>2.845703</ele>
<time>2012-07-28T13:05:21Z</time>
<speed>3.950000</speed>
<extensions>
<speed>4.0</speed>
<temp>0.00</temp>
<bpm>0</bpm>
<rpm>0.00</rpm>
</extensions>
</trkpt>
<trkpt lat="63.834327698" lon="-21.701242447">
<ele>3.830383</ele>
<time>2012-07-28T13:05:26Z</time>
<speed>4.100000</speed>
<extensions>
<speed>4.1</speed>
<temp>0.00</temp>
<bpm>0</bpm>
<rpm>0.00</rpm>
</extensions>
</trkpt>
<trkpt lat="63.834220886" lon="-21.700897217">
<ele>3.691895</ele>
<time>2012-07-28T13:05:31Z</time>
<speed>4.120000</speed>
<extensions>
<speed>4.1</speed>
<temp>0.00</temp>
<bpm>0</bpm>
<rpm>0.00</rpm>
</extensions>
</trkpt>
<trkpt lat="63.834117889" lon="-21.700521469">
<ele>4.582153</ele>
<time>2012-07-28T13:05:36Z</time>
<speed>4.340000</speed>
<extensions>
<speed>4.3</speed>
<temp>0.00</temp>
<bpm>0</bpm>
<rpm>0.00</rpm>
</extensions>
</trkpt>
<trkpt lat="63.834033966" lon="-21.700126648">
<ele>4.981079</ele>
<time>2012-07-28T13:05:41Z</time>
<speed>3.820000</speed>
<extensions>
<speed>3.8</speed>
<temp>0.00</temp>
<bpm>0</bpm>
<rpm>0.00</rpm>
</extensions>
</trkpt>
<trkpt lat="63.833965302" lon="-21.699754715">
<ele>5.450806</ele>
<time>2012-07-28T13:05:46Z</time>
<speed>3.850000</speed>
<extensions>
<speed>3.8</speed>
<temp>0.00</temp>
<bpm>0</bpm>
<rpm>0.00</rpm>
</extensions>
</trkpt>
<trkpt lat="63.833900452" lon="-21.699459076">
<ele>4.903564</ele>
<time>2012-07-28T13:05:51Z</time>
<speed>2.890000</speed>
<extensions>
<speed>2.9</speed>
<temp>0.00</temp>
<bpm>0</bpm>
<rpm>0.00</rpm>
</extensions>
</trkpt>
<trkpt lat="63.833850861" lon="-21.699178696">
<ele>4.867188</ele>
<time>2012-07-28T13:05:56Z</time>
<speed>3.240000</speed>
<extensions>
<speed>3.2</speed>
<temp>0.00</temp>
<bpm>0</bpm>
<rpm>0.00</rpm>
</extensions>
</trkpt>
<trkpt lat="63.833797455" lon="-21.698881149">
<ele>4.606445</ele>
<time>2012-07-28T13:06:01Z</time>
<speed>3.260000</speed>
<extensions>
<speed>3.3</speed>
<temp>0.00</temp>
<bpm>0</bpm>
<rpm>0.00</rpm>
</extensions>
</trkpt>
<trkpt lat="63.833732605" lon="-21.698530197">
<ele>4.267822</ele>
<time>2012-07-28T13:06:06Z</time>
<speed>4.010000</speed>
<extensions>
<speed>4.0</speed>
<temp>0.00</temp>
<bpm>0</bpm>
<rpm>0.00</rpm>
</extensions>
</trkpt>
<trkpt lat="63.833675385" lon="-21.698163986">
<ele>7.507202</ele>
<time>2012-07-28T13:06:11Z</time>
<speed>4.040000</speed>
<extensions>
<speed>4.0</speed>
<temp>0.00</temp>
<bpm>0</bpm>
<rpm>0.00</rpm>
</extensions>
</trkpt>
<trkpt lat="63.833591461" lon="-21.697761536">
<ele>6.919312</ele>
<time>2012-07-28T13:06:16Z</time>
<speed>3.940000</speed>
<extensions>
<speed>3.9</speed>
<temp>0.00</temp>
<bpm>0</bpm>
<rpm>0.00</rpm>
</extensions>
</trkpt>
<trkpt lat="63.833522797" lon="-21.697376251">
<ele>5.668579</ele>
<time>2012-07-28T13:06:21Z</time>
<speed>4.110000</speed>
<extensions>
<speed>4.1</speed>
<temp>0.00</temp>
<bpm>0</bpm>
<rpm>0.00</rpm>
</extensions>
</trkpt>
<trkpt lat="63.833457947" lon="-21.696971893">
<ele>5.583618</ele>
<time>2012-07-28T13:06:26Z</time>
<speed>4.120000</speed>
<extensions>
<speed>4.1</speed>
<temp>0.00</temp>
<bpm>0</bpm>
<rpm>0.00</rpm>
</extensions>
</trkpt>
<trkpt lat="63.833385468" lon="-21.696563721">
<ele>5.216675</ele>
<time>2012-07-28T13:06:31Z</time>
<speed>4.530000</speed>
<extensions>
<speed>4.5</speed>
<temp>0.00</temp>
<bpm>0</bpm>
<rpm>0.00</rpm>
</extensions>
</trkpt>
<trkpt lat="63.833316803" lon="-21.696126938">
<ele>3.386780</ele>
<time>2012-07-28T13:06:36Z</time>
<speed>4.230000</speed>
<extensions>
<speed>4.2</speed>
<temp>0.00</temp>
<bpm>0</bpm>
<rpm>0.00</rpm>
</extensions>
</trkpt>
<trkpt lat="63.833267212" lon="-21.695713043">
<ele>4.157227</ele>
<time>2012-07-28T13:06:41Z</time>
<speed>4.150000</speed>
<extensions>
<speed>4.1</speed>
<temp>0.00</temp>
<bpm>0</bpm>
<rpm>0.00</rpm>
</extensions>
</trkpt>
<trkpt lat="63.833194733" lon="-21.695314407">
<ele>4.522339</ele>
<time>2012-07-28T13:06:46Z</time>
<speed>4.020000</speed>
<extensions>
<speed>4.0</speed>
<temp>0.00</temp>
<bpm>0</bpm>
<rpm>0.00</rpm>
</extensions>
</trkpt>
<trkpt lat="63.833126068" lon="-21.694963455">
<ele>4.450806</ele>
<time>2012-07-28T13:06:51Z</time>
<speed>3.390000</speed>
<extensions>
<speed>3.4</speed>
<temp>0.00</temp>
<bpm>0</bpm>
<rpm>0.00</rpm>
</extensions>
</trkpt>
<trkpt lat="63.833087921" lon="-21.694698334">
<ele>3.462280</ele>
<time>2012-07-28T13:06:56Z</time>
<speed>2.360000</speed>
<extensions>
<speed>2.4</speed>
<temp>0.00</temp>
<bpm>0</bpm>
<rpm>0.00</rpm>
</extensions>
</trkpt>
<trkpt lat="63.833057404" lon="-21.694469452">
<ele>5.025391</ele>
<time>2012-07-28T13:07:01Z</time>
<speed>2.030000</speed>
<extensions>
<speed>2.0</speed>
<temp>0.00</temp>
<bpm>0</bpm>
<rpm>0.00</rpm>
</extensions>
</trkpt>
<trkpt lat="63.833038330" lon="-21.694261551">
<ele>6.389893</ele>
<time>2012-07-28T13:07:06Z</time>
<speed>1.980000</speed>
<extensions>
<speed>2.0</speed>
<temp>0.00</temp>
<bpm>0</bpm>
<rpm>0.00</rpm>
</extensions>
</trkpt>
<trkpt lat="63.833019257" lon="-21.694084167">
<ele>6.951294</ele>
<time>2012-07-28T13:07:11Z</time>
<speed>2.130000</speed>
<extensions>
<speed>2.1</speed>
<temp>0.00</temp>
<bpm>0</bpm>
<rpm>0.00</rpm>
</extensions>
</trkpt>
<trkpt lat="63.832984924" lon="-21.693773270">
<ele>6.942993</ele>
<time>2012-07-28T13:07:16Z</time>
<speed>3.220000</speed>
<extensions>
<speed>3.2</speed>
<temp>0.00</temp>
<bpm>0</bpm>
<rpm>0.00</rpm>
</extensions>
</trkpt>
<trkpt lat="63.832935333" lon="-21.693414688">
<ele>7.325439</ele>
<time>2012-07-28T13:07:21Z</time>
<speed>3.670000</speed>
<extensions>
<speed>3.7</speed>
<temp>0.00</temp>
<bpm>0</bpm>
<rpm>0.00</rpm>
</extensions>
</trkpt>
<trkpt lat="63.832885742" lon="-21.693075180">
<ele>7.599854</ele>
<time>2012-07-28T13:07:26Z</time>
<speed>3.550000</speed>
<extensions>
<speed>3.5</speed>
<temp>0.00</temp>
<bpm>0</bpm>
<rpm>0.00</rpm>
</extensions>
</trkpt>
<trkpt lat="63.832832336" lon="-21.692720413">
<ele>7.715576</ele>
<time>2012-07-28T13:07:31Z</time>
<speed>3.890000</speed>
<extensions>
<speed>3.9</speed>
<temp>0.00</temp>
<bpm>0</bpm>
<rpm>0.00</rpm>
</extensions>
</trkpt>
<trkpt lat="63.832771301" lon="-21.692340851">
<ele>5.555298</ele>
<time>2012-07-28T13:07:36Z</time>
<speed>3.890000</speed>
<extensions>
<speed>3.9</speed>
<temp>0.00</temp>
<bpm>0</bpm>
<rpm>0.00</rpm>
</extensions>
</trkpt>
<trkpt lat="63.832717896" lon="-21.691970825">
<ele>7.882202</ele>
<time>2012-07-28T13:07:41Z</time>
<speed>3.750000</speed>
<extensions>
<speed>3.8</speed>
<temp>0.00</temp>
<bpm>0</bpm>
<rpm>0.00</rpm>
</extensions>
</trkpt>
<trkpt lat="63.832660675" lon="-21.691614151">
<ele>7.239868</ele>
<time>2012-07-28T13:07:46Z</time>
<speed>3.800000</speed>
<extensions>
<speed>3.8</speed>
<temp>0.00</temp>
<bpm>0</bpm>
<rpm>0.00</rpm>
</extensions>
</trkpt>
<trkpt lat="63.832599640" lon="-21.691188812">
<ele>7.388062</ele>
<time>2012-07-28T13:07:51Z</time>
<speed>4.680000</speed>
<extensions>
<speed>4.7</speed>
<temp>0.00</temp>
<bpm>0</bpm>
<rpm>0.00</rpm>
</extensions>
</trkpt>
<trkpt lat="63.832530975" lon="-21.690748215">
<ele>7.242065</ele>
<time>2012-07-28T13:07:56Z</time>
<speed>4.500000</speed>
<extensions>
<speed>4.5</speed>
<temp>0.00</temp>
<bpm>0</bpm>
<rpm>0.00</rpm>
</extensions>
</trkpt>
<trkpt lat="63.832466125" lon="-21.690313339">
<ele>8.374512</ele>
<time>2012-07-28T13:08:01Z</time>
<speed>4.460000</speed>
<extensions>
<speed>4.5</speed>
<temp>0.00</temp>
<bpm>0</bpm>
<rpm>0.00</rpm>
</extensions>
</trkpt>
<trkpt lat="63.832401276" lon="-21.689872742">
<ele>7.206665</ele>
<time>2012-07-28T13:08:06Z</time>
<speed>4.720000</speed>
<extensions>
<speed>4.7</speed>
<temp>0.00</temp>
<bpm>0</bpm>
<rpm>0.00</rpm>
</extensions>
</trkpt>
<trkpt lat="63.832324982" lon="-21.689418793">
<ele>8.764160</ele>
<time>2012-07-28T13:08:11Z</time>
<speed>4.400000</speed>
<extensions>
<speed>4.4</speed>
<temp>0.00</temp>
<bpm>0</bpm>
<rpm>0.00</rpm>
</extensions>
</trkpt>
<trkpt lat="63.832279205" lon="-21.689081192">
<ele>7.932007</ele>
<time>2012-07-28T13:08:16Z</time>
<speed>3.240000</speed>
<extensions>
<speed>3.2</speed>
<temp>0.00</temp>
<bpm>0</bpm>
<rpm>0.00</rpm>
</extensions>
</trkpt>
<trkpt lat="63.832229614" lon="-21.688745499">
<ele>6.699463</ele>
<time>2012-07-28T13:08:21Z</time>
<speed>3.270000</speed>
<extensions>
<speed>3.3</speed>
<temp>0.00</temp>
<bpm>0</bpm>
<rpm>0.00</rpm>
</extensions>
</trkpt>
<trkpt lat="63.832199097" lon="-21.688474655">
<ele>6.770752</ele>
<time>2012-07-28T13:08:26Z</time>
<speed>2.550000</speed>
<extensions>
<speed>2.6</speed>
<temp>0.00</temp>
<bpm>0</bpm>
<rpm>0.00</rpm>
</extensions>
</trkpt>
<trkpt lat="63.832157135" lon="-21.688249588">
<ele>7.556641</ele>
<time>2012-07-28T13:08:31Z</time>
<speed>2.420000</speed>
<extensions>
<speed>2.4</speed>
<temp>0.00</temp>
<bpm>0</bpm>
<rpm>0.00</rpm>
</extensions>
</trkpt>
<trkpt lat="63.832130432" lon="-21.688007355">
<ele>8.767334</ele>
<time>2012-07-28T13:08:36Z</time>
<speed>2.360000</speed>
<extensions>
<speed>2.4</speed>
<temp>0.00</temp>
<bpm>0</bpm>
<rpm>0.00</rpm>
</extensions>
</trkpt>
<trkpt lat="63.832107544" lon="-21.687736511">
<ele>9.583984</ele>
<time>2012-07-28T13:08:41Z</time>
<speed>2.600000</speed>
<extensions>
<speed>2.6</speed>
<temp>0.00</temp>
<bpm>0</bpm>
<rpm>0.00</rpm>
</extensions>
</trkpt>
<trkpt lat="63.832084656" lon="-21.687446594">
<ele>8.072266</ele>
<time>2012-07-28T13:08:46Z</time>
<speed>2.960000</speed>
<extensions>
<speed>3.0</speed>
<temp>0.00</temp>
<bpm>0</bpm>
<rpm>0.00</rpm>
</extensions>
</trkpt>
<trkpt lat="63.832019806" lon="-21.687088013">
<ele>7.001953</ele>
<time>2012-07-28T13:08:51Z</time>
<speed>3.880000</speed>
<extensions>
<speed>3.9</speed>
<temp>0.00</temp>
<bpm>0</bpm>
<rpm>0.00</rpm>
</extensions>
</trkpt>
<trkpt lat="63.831962585" lon="-21.686746597">
<ele>6.254272</ele>
<time>2012-07-28T13:08:56Z</time>
<speed>3.310000</speed>
<extensions>
<speed>3.3</speed>
<temp>0.00</temp>
<bpm>0</bpm>
<rpm>0.00</rpm>
</extensions>
</trkpt>
<trkpt lat="63.831912994" lon="-21.686439514">
<ele>4.892578</ele>
<time>2012-07-28T13:09:01Z</time>
<speed>3.090000</speed>
<extensions>
<speed>3.1</speed>
<temp>0.00</temp>
<bpm>0</bpm>
<rpm>0.00</rpm>
</extensions>
</trkpt>
<trkpt lat="63.831867218" lon="-21.686092377">
<ele>4.890381</ele>
<time>2012-07-28T13:09:06Z</time>
<speed>4.090000</speed>
<extensions>
<speed>4.1</speed>
<temp>0.00</temp>
<bpm>0</bpm>
<rpm>0.00</rpm>
</extensions>
</trkpt>
<trkpt lat="63.831809998" lon="-21.685676575">
<ele>5.901855</ele>
<time>2012-07-28T13:09:11Z</time>
<speed>4.130000</speed>
<extensions>
<speed>4.1</speed>
<temp>0.00</temp>
<bpm>0</bpm>
<rpm>0.00</rpm>
</extensions>
</trkpt>
<trkpt lat="63.831756592" lon="-21.685287476">
<ele>7.895020</ele>
<time>2012-07-28T13:09:16Z</time>
<speed>4.310000</speed>
<extensions>
<speed>4.3</speed>
<temp>0.00</temp>
<bpm>0</bpm>
<rpm>0.00</rpm>
</extensions>
</trkpt>
<trkpt lat="63.831680298" lon="-21.684858322">
<ele>8.242188</ele>
<time>2012-07-28T13:09:21Z</time>
<speed>4.340000</speed>
<extensions>
<speed>4.3</speed>
<temp>0.00</temp>
<bpm>0</bpm>
<rpm>0.00</rpm>
</extensions>
</trkpt>
<trkpt lat="63.831623077" lon="-21.684465408">
<ele>7.454346</ele>
<time>2012-07-28T13:09:26Z</time>
<speed>4.360000</speed>
<extensions>
<speed>4.4</speed>
<temp>0.00</temp>
<bpm>0</bpm>
<rpm>0.00</rpm>
</extensions>
</trkpt>
<trkpt lat="63.831558228" lon="-21.684026718">
<ele>8.612061</ele>
<time>2012-07-28T13:09:31Z</time>
<speed>4.400000</speed>
<extensions>
<speed>4.4</speed>
<temp>0.00</temp>
<bpm>0</bpm>
<rpm>0.00</rpm>
</extensions>
</trkpt>
<trkpt lat="63.831504822" lon="-21.683568954">
<ele>8.324707</ele>
<time>2012-07-28T13:09:36Z</time>
<speed>4.970000</speed>
<extensions>
<speed>5.0</speed>
<temp>0.00</temp>
<bpm>0</bpm>
<rpm>0.00</rpm>
</extensions>
</trkpt>
<trkpt lat="63.831417084" lon="-21.683086395">
<ele>7.181396</ele>
<time>2012-07-28T13:09:41Z</time>
<speed>5.110000</speed>
<extensions>
<speed>5.1</speed>
<temp>0.00</temp>
<bpm>0</bpm>
<rpm>0.00</rpm>
</extensions>
</trkpt>
<trkpt lat="63.831352234" lon="-21.682592392">
<ele>9.551514</ele>
<time>2012-07-28T13:09:46Z</time>
<speed>4.650000</speed>
<extensions>
<speed>4.6</speed>
<temp>0.00</temp>
<bpm>0</bpm>
<rpm>0.00</rpm>
</extensions>
</trkpt>
<trkpt lat="63.831287384" lon="-21.682161331">
<ele>11.607422</ele>
<time>2012-07-28T13:09:51Z</time>
<speed>4.170000</speed>
<extensions>
<speed>4.2</speed>
<temp>0.00</temp>
<bpm>0</bpm>
<rpm>0.00</rpm>
</extensions>
</trkpt>
<trkpt lat="63.831226349" lon="-21.681760788">
<ele>11.688232</ele>
<time>2012-07-28T13:09:56Z</time>
<speed>4.120000</speed>
<extensions>
<speed>4.1</speed>
<temp>0.00</temp>
<bpm>0</bpm>
<rpm>0.00</rpm>
</extensions>
</trkpt>
<trkpt lat="63.831169128" lon="-21.681398392">
<ele>11.274658</ele>
<time>2012-07-28T13:10:01Z</time>
<speed>3.450000</speed>
<extensions>
<speed>3.5</speed>
<temp>0.00</temp>
<bpm>0</bpm>
<rpm>0.00</rpm>
</extensions>
</trkpt>
<trkpt lat="63.831115723" lon="-21.681083679">
<ele>11.687012</ele>
<time>2012-07-28T13:10:06Z</time>
<speed>3.480000</speed>
<extensions>
<speed>3.5</speed>
<temp>0.00</temp>
<bpm>0</bpm>
<rpm>0.00</rpm>
</extensions>
</trkpt>
<trkpt lat="63.831058502" lon="-21.680711746">
<ele>10.794434</ele>
<time>2012-07-28T13:10:11Z</time>
<speed>4.060000</speed>
<extensions>
<speed>4.1</speed>
<temp>0.00</temp>
<bpm>0</bpm>
<rpm>0.00</rpm>
</extensions>
</trkpt>
<trkpt lat="63.831005096" lon="-21.680360794">
<ele>10.442139</ele>
<time>2012-07-28T13:10:16Z</time>
<speed>3.010000</speed>
<extensions>
<speed>3.0</speed>
<temp>0.00</temp>
<bpm>0</bpm>
<rpm>0.00</rpm>
</extensions>
</trkpt>
<trkpt lat="63.830966949" lon="-21.680019379">
<ele>8.708008</ele>
<time>2012-07-28T13:10:21Z</time>
<speed>4.220000</speed>
<extensions>
<speed>4.2</speed>
<temp>0.00</temp>
<bpm>0</bpm>
<rpm>0.00</rpm>
</extensions>
</trkpt>
<trkpt lat="63.830898285" lon="-21.679567337">
<ele>8.498535</ele>
<time>2012-07-28T13:10:26Z</time>
<speed>4.960000</speed>
<extensions>
<speed>5.0</speed>
<temp>0.00</temp>
<bpm>0</bpm>
<rpm>0.00</rpm>
</extensions>
</trkpt>
<trkpt lat="63.830825806" lon="-21.679077148">
<ele>7.535645</ele>
<time>2012-07-28T13:10:31Z</time>
<speed>4.960000</speed>
<extensions>
<speed>5.0</speed>
<temp>0.00</temp>
<bpm>0</bpm>
<rpm>0.00</rpm>
</extensions>
</trkpt>
<trkpt lat="63.830760956" lon="-21.678583145">
<ele>8.749268</ele>
<time>2012-07-28T13:10:36Z</time>
<speed>4.640000</speed>
<extensions>
<speed>4.6</speed>
<temp>0.00</temp>
<bpm>0</bpm>
<rpm>0.00</rpm>
</extensions>
</trkpt>
<trkpt lat="63.830692291" lon="-21.678112030">
<ele>8.148926</ele>
<time>2012-07-28T13:10:41Z</time>
<speed>5.170000</speed>
<extensions>
<speed>5.2</speed>
<temp>0.00</temp>
<bpm>0</bpm>
<rpm>0.00</rpm>
</extensions>
</trkpt>
<trkpt lat="63.830619812" lon="-21.677642822">
<ele>7.566406</ele>
<time>2012-07-28T13:10:46Z</time>
<speed>4.110000</speed>
<extensions>
<speed>4.1</speed>
<temp>0.00</temp>
<bpm>0</bpm>
<rpm>0.00</rpm>
</extensions>
</trkpt>
<trkpt lat="63.830551147" lon="-21.677286148">
<ele>7.936035</ele>
<time>2012-07-28T13:10:51Z</time>
<speed>3.630000</speed>
<extensions>
<speed>3.6</speed>
<temp>0.00</temp>
<bpm>0</bpm>
<rpm>0.00</rpm>
</extensions>
</trkpt>
<trkpt lat="63.830501556" lon="-21.676877975">
<ele>8.050537</ele>
<time>2012-07-28T13:10:56Z</time>
<speed>4.580000</speed>
<extensions>
<speed>4.6</speed>
<temp>0.00</temp>
<bpm>0</bpm>
<rpm>0.00</rpm>
</extensions>
</trkpt>
<trkpt lat="63.830436707" lon="-21.676454544">
<ele>8.375488</ele>
<time>2012-07-28T13:11:01Z</time>
<speed>3.620000</speed>
<extensions>
<speed>3.6</speed>
<temp>0.00</temp>
<bpm>0</bpm>
<rpm>0.00</rpm>
</extensions>
</trkpt>
<trkpt lat="63.830505371" lon="-21.676101685">
<ele>10.635254</ele>
<time>2012-07-28T13:11:06Z</time>
<speed>3.820000</speed>
<extensions>
<speed>3.8</speed>
<temp>0.00</temp>
<bpm>0</bpm>
<rpm>0.00</rpm>
</extensions>
</trkpt>
<trkpt lat="63.830642700" lon="-21.675939560">
<ele>10.663818</ele>
<time>2012-07-28T13:11:11Z</time>
<speed>2.650000</speed>
<extensions>
<speed>2.6</speed>
<temp>0.00</temp>
<bpm>0</bpm>
<rpm>0.00</rpm>
</extensions>
</trkpt>
<trkpt lat="63.830738068" lon="-21.675868988">
<ele>10.053711</ele>
<time>2012-07-28T13:11:16Z</time>
<speed>2.290000</speed>
<extensions>
<speed>2.3</speed>
<temp>0.00</temp>
<bpm>0</bpm>
<rpm>0.00</rpm>
</extensions>
</trkpt>
<trkpt lat="63.830848694" lon="-21.675754547">
<ele>10.983887</ele>
<time>2012-07-28T13:11:21Z</time>
<speed>2.040000</speed>
<extensions>
<speed>2.0</speed>
<temp>0.00</temp>
<bpm>0</bpm>
<rpm>0.00</rpm>
</extensions>
</trkpt>
<trkpt lat="63.830963135" lon="-21.675636292">
<ele>11.479248</ele>
<time>2012-07-28T13:11:26Z</time>
<speed>2.500000</speed>
<extensions>
<speed>2.5</speed>
<temp>0.00</temp>
<bpm>0</bpm>
<rpm>0.00</rpm>
</extensions>
</trkpt>
<trkpt lat="63.831089020" lon="-21.675544739">
<ele>11.808838</ele>
<time>2012-07-28T13:11:31Z</time>
<speed>3.440000</speed>
<extensions>
<speed>3.4</speed>
<temp>0.00</temp>
<bpm>0</bpm>
<rpm>0.00</rpm>
</extensions>
</trkpt>
<trkpt lat="63.831230164" lon="-21.675411224">
<ele>11.242920</ele>
<time>2012-07-28T13:11:36Z</time>
<speed>3.740000</speed>
<extensions>
<speed>3.7</speed>
<temp>0.00</temp>
<bpm>0</bpm>
<rpm>0.00</rpm>
</extensions>
</trkpt>
<trkpt lat="63.831375122" lon="-21.675254822">
<ele>11.175781</ele>
<time>2012-07-28T13:11:41Z</time>
<speed>3.450000</speed>
<extensions>
<speed>3.5</speed>
<temp>0.00</temp>
<bpm>0</bpm>
<rpm>0.00</rpm>
</extensions>
</trkpt>
<trkpt lat="63.831504822" lon="-21.675121307">
<ele>11.333984</ele>
<time>2012-07-28T13:11:46Z</time>
<speed>2.740000</speed>
<extensions>
<speed>2.7</speed>
<temp>0.00</temp>
<bpm>0</bpm>
<rpm>0.00</rpm>
</extensions>
</trkpt>
<trkpt lat="63.831619263" lon="-21.675020218">
<ele>11.747559</ele>
<time>2012-07-28T13:11:51Z</time>
<speed>3.160000</speed>
<extensions>
<speed>3.2</speed>
<temp>0.00</temp>
<bpm>0</bpm>
<rpm>0.00</rpm>
</extensions>
</trkpt>
<trkpt lat="63.831752777" lon="-21.674921036">
<ele>12.851318</ele>
<time>2012-07-28T13:11:56Z</time>
<speed>3.000000</speed>
<extensions>
<speed>3.0</speed>
<temp>0.00</temp>
<bpm>0</bpm>
<rpm>0.00</rpm>
</extensions>
</trkpt>
<trkpt lat="63.831867218" lon="-21.674808502">
<ele>12.101563</ele>
<time>2012-07-28T13:12:01Z</time>
<speed>3.040000</speed>
<extensions>
<speed>3.0</speed>
<temp>0.00</temp>
<bpm>0</bpm>
<rpm>0.00</rpm>
</extensions>
</trkpt>
<trkpt lat="63.831996918" lon="-21.674684525">
<ele>11.226318</ele>
<time>2012-07-28T13:12:06Z</time>
<speed>3.130000</speed>
<extensions>
<speed>3.1</speed>
<temp>0.00</temp>
<bpm>0</bpm>
<rpm>0.00</rpm>
</extensions>
</trkpt>
<trkpt lat="63.832118988" lon="-21.674600601">
<ele>11.085449</ele>
<time>2012-07-28T13:12:11Z</time>
<speed>2.720000</speed>
<extensions>
<speed>2.7</speed>
<temp>0.00</temp>
<bpm>0</bpm>
<rpm>0.00</rpm>
</extensions>
</trkpt>
<trkpt lat="63.832260132" lon="-21.674531937">
<ele>13.489258</ele>
<time>2012-07-28T13:12:16Z</time>
<speed>2.620000</speed>
<extensions>
<speed>2.6</speed>
<temp>0.00</temp>
<bpm>0</bpm>
<rpm>0.00</rpm>
</extensions>
</trkpt>
<trkpt lat="63.832340240" lon="-21.674442291">
<ele>14.422363</ele>
<time>2012-07-28T13:12:21Z</time>
<speed>1.570000</speed>
<extensions>
<speed>1.6</speed>
<temp>0.00</temp>
<bpm>0</bpm>
<rpm>0.00</rpm>
</extensions>
</trkpt>
<trkpt lat="63.832420349" lon="-21.674390793">
<ele>14.953125</ele>
<time>2012-07-28T13:12:26Z</time>
<speed>1.770000</speed>
<extensions>
<speed>1.8</speed>
<temp>0.00</temp>
<bpm>0</bpm>
<rpm>0.00</rpm>
</extensions>
</trkpt>
<trkpt lat="63.832508087" lon="-21.674348831">
<ele>14.658447</ele>
<time>2012-07-28T13:12:31Z</time>
<speed>2.170000</speed>
<extensions>
<speed>2.2</speed>
<temp>0.00</temp>
<bpm>0</bpm>
<rpm>0.00</rpm>
</extensions>
</trkpt>
<trkpt lat="63.832611084" lon="-21.674293518">
<ele>15.859863</ele>
<time>2012-07-28T13:12:36Z</time>
<speed>2.500000</speed>
<extensions>
<speed>2.5</speed>
<temp>0.00</temp>
<bpm>0</bpm>
<rpm>0.00</rpm>
</extensions>
</trkpt>
<trkpt lat="63.832733154" lon="-21.674200058">
<ele>15.020020</ele>
<time>2012-07-28T13:12:41Z</time>
<speed>3.300000</speed>
<extensions>
<speed>3.3</speed>
<temp>0.00</temp>
<bpm>0</bpm>
<rpm>0.00</rpm>
</extensions>
</trkpt>
<trkpt lat="63.832866669" lon="-21.674076080">
<ele>15.031250</ele>
<time>2012-07-28T13:12:46Z</time>
<speed>3.170000</speed>
<extensions>
<speed>3.2</speed>
<temp>0.00</temp>
<bpm>0</bpm>
<rpm>0.00</rpm>
</extensions>
</trkpt>
<trkpt lat="63.833000183" lon="-21.673984528">
<ele>15.160889</ele>
<time>2012-07-28T13:12:51Z</time>
<speed>2.870000</speed>
<extensions>
<speed>2.9</speed>
<temp>0.00</temp>
<bpm>0</bpm>
<rpm>0.00</rpm>
</extensions>
</trkpt>
<trkpt lat="63.833133698" lon="-21.673894882">
<ele>15.422363</ele>
<time>2012-07-28T13:12:56Z</time>
<speed>3.130000</speed>
<extensions>
<speed>3.1</speed>
<temp>0.00</temp>
<bpm>0</bpm>
<rpm>0.00</rpm>
</extensions>
</trkpt>
<trkpt lat="63.833274841" lon="-21.673791885">
<ele>15.268799</ele>
<time>2012-07-28T13:13:01Z</time>
<speed>3.390000</speed>
<extensions>
<speed>3.4</speed>
<temp>0.00</temp>
<bpm>0</bpm>
<rpm>0.00</rpm>
</extensions>
</trkpt>
<trkpt lat="63.833408356" lon="-21.673686981">
<ele>16.049316</ele>
<time>2012-07-28T13:13:06Z</time>
<speed>2.880000</speed>
<extensions>
<speed>2.9</speed>
<temp>0.00</temp>
<bpm>0</bpm>
<rpm>0.00</rpm>
</extensions>
</trkpt>
<trkpt lat="63.833530426" lon="-21.673570633">
<ele>16.949219</ele>
<time>2012-07-28T13:13:11Z</time>
<speed>2.550000</speed>
<extensions>
<speed>2.6</speed>
<temp>0.00</temp>
<bpm>0</bpm>
<rpm>0.00</rpm>
</extensions>
</trkpt>
<trkpt lat="63.833633423" lon="-21.673500061">
<ele>16.729980</ele>
<time>2012-07-28T13:13:16Z</time>
<speed>2.850000</speed>
<extensions>
<speed>2.9</speed>
<temp>0.00</temp>
<bpm>0</bpm>
<rpm>0.00</rpm>
</extensions>
</trkpt>
<trkpt lat="63.833755493" lon="-21.673414230">
<ele>16.834473</ele>
<time>2012-07-28T13:13:21Z</time>
<speed>2.480000</speed>
<extensions>
<speed>2.5</speed>
<temp>0.00</temp>
<bpm>0</bpm>
<rpm>0.00</rpm>
</extensions>
</trkpt>
<trkpt lat="63.833850861" lon="-21.673336029">
<ele>17.129883</ele>
<time>2012-07-28T13:13:26Z</time>
<speed>2.270000</speed>
<extensions>
<speed>2.3</speed>
<temp>0.00</temp>
<bpm>0</bpm>
<rpm>0.00</rpm>
</extensions>
</trkpt>
<trkpt lat="63.833942413" lon="-21.673254013">
<ele>17.111328</ele>
<time>2012-07-28T13:13:31Z</time>
<speed>2.150000</speed>
<extensions>
<speed>2.1</speed>
<temp>0.00</temp>
<bpm>0</bpm>
<rpm>0.00</rpm>
</extensions>
</trkpt>
<trkpt lat="63.834030151" lon="-21.673177719">
<ele>16.936523</ele>
<time>2012-07-28T13:13:36Z</time>
<speed>1.920000</speed>
<extensions>
<speed>1.9</speed>
<temp>0.00</temp>
<bpm>0</bpm>
<rpm>0.00</rpm>
</extensions>
</trkpt>
<trkpt lat="63.834117889" lon="-21.673114777">
<ele>16.972168</ele>
<time>2012-07-28T13:13:41Z</time>
<speed>2.130000</speed>
<extensions>
<speed>2.1</speed>
<temp>0.00</temp>
<bpm>0</bpm>
<rpm>0.00</rpm>
</extensions>
</trkpt>
<trkpt lat="63.834217072" lon="-21.673013687">
<ele>17.534668</ele>
<time>2012-07-28T13:13:46Z</time>
<speed>2.250000</speed>
<extensions>
<speed>2.3</speed>
<temp>0.00</temp>
<bpm>0</bpm>
<rpm>0.00</rpm>
</extensions>
</trkpt>
<trkpt lat="63.834304810" lon="-21.672943115">
<ele>17.604980</ele>
<time>2012-07-28T13:13:51Z</time>
<speed>2.270000</speed>
<extensions>
<speed>2.3</speed>
<temp>0.00</temp>
<bpm>0</bpm>
<rpm>0.00</rpm>
</extensions>
</trkpt>
<trkpt lat="63.834388733" lon="-21.672857285">
<ele>16.987305</ele>
<time>2012-07-28T13:13:56Z</time>
<speed>1.940000</speed>
<extensions>
<speed>1.9</speed>
<temp>0.00</temp>
<bpm>0</bpm>
<rpm>0.00</rpm>
</extensions>
</trkpt>
<trkpt lat="63.834472656" lon="-21.672792435">
<ele>16.707031</ele>
<time>2012-07-28T13:14:01Z</time>
<speed>2.370000</speed>
<extensions>
<speed>2.4</speed>
<temp>0.00</temp>
<bpm>0</bpm>
<rpm>0.00</rpm>
</extensions>
</trkpt>
<trkpt lat="63.834568024" lon="-21.672721863">
<ele>17.572266</ele>
<time>2012-07-28T13:14:06Z</time>
<speed>2.320000</speed>
<extensions>
<speed>2.3</speed>
<temp>0.00</temp>
<bpm>0</bpm>
<rpm>0.00</rpm>
</extensions>
</trkpt>
<trkpt lat="63.834690094" lon="-21.672643661">
<ele>18.525391</ele>
<time>2012-07-28T13:14:11Z</time>
<speed>2.850000</speed>
<extensions>
<speed>2.9</speed>
<temp>0.00</temp>
<bpm>0</bpm>
<rpm>0.00</rpm>
</extensions>
</trkpt>
<trkpt lat="63.834808350" lon="-21.672573090">
<ele>17.435547</ele>
<time>2012-07-28T13:14:16Z</time>
<speed>2.710000</speed>
<extensions>
<speed>2.7</speed>
<temp>0.00</temp>
<bpm>0</bpm>
<rpm>0.00</rpm>
</extensions>
</trkpt>
<trkpt lat="63.834922791" lon="-21.672483444">
<ele>17.986328</ele>
<time>2012-07-28T13:14:21Z</time>
<speed>2.840000</speed>
<extensions>
<speed>2.8</speed>
<temp>0.00</temp>
<bpm>0</bpm>
<rpm>0.00</rpm>
</extensions>
</trkpt>
<trkpt lat="63.835048676" lon="-21.672386169">
<ele>19.154785</ele>
<time>2012-07-28T13:14:26Z</time>
<speed>2.890000</speed>
<extensions>
<speed>2.9</speed>
<temp>0.00</temp>
<bpm>0</bpm>
<rpm>0.00</rpm>
</extensions>
</trkpt>
<trkpt lat="63.835178375" lon="-21.672229767">
<ele>19.822754</ele>
<time>2012-07-28T13:14:31Z</time>
<speed>3.350000</speed>
<extensions>
<speed>3.4</speed>
<temp>0.00</temp>
<bpm>0</bpm>
<rpm>0.00</rpm>
</extensions>
</trkpt>
<trkpt lat="63.835311890" lon="-21.672092438">
<ele>19.077148</ele>
<time>2012-07-28T13:14:36Z</time>
<speed>3.490000</speed>
<extensions>
<speed>3.5</speed>
<temp>0.00</temp>
<bpm>0</bpm>
<rpm>0.00</rpm>
</extensions>
</trkpt>
<trkpt lat="63.835437775" lon="-21.671981812">
<ele>18.574219</ele>
<time>2012-07-28T13:14:41Z</time>
<speed>2.990000</speed>
<extensions>
<speed>3.0</speed>
<temp>0.00</temp>
<bpm>0</bpm>
<rpm>0.00</rpm>
</extensions>
</trkpt>
<trkpt lat="63.835556030" lon="-21.671838760">
<ele>18.673340</ele>
<time>2012-07-28T13:14:46Z</time>
<speed>2.370000</speed>
<extensions>
<speed>2.4</speed>
<temp>0.00</temp>
<bpm>0</bpm>
<rpm>0.00</rpm>
</extensions>
</trkpt>
<trkpt lat="63.835609436" lon="-21.671766281">
<ele>18.601563</ele>
<time>2012-07-28T13:14:51Z</time>
<speed>1.260000</speed>
<extensions>
<speed>1.3</speed>
<temp>0.00</temp>
<bpm>0</bpm>
<rpm>0.00</rpm>
</extensions>
</trkpt>
<trkpt lat="63.835651398" lon="-21.671758652">
<ele>18.336914</ele>
<time>2012-07-28T13:14:56Z</time>
<speed>1.360000</speed>
<extensions>
<speed>1.4</speed>
<temp>0.00</temp>
<bpm>0</bpm>
<rpm>0.00</rpm>
</extensions>
</trkpt>
<trkpt lat="63.835697174" lon="-21.671707153">
<ele>17.368652</ele>
<time>2012-07-28T13:15:01Z</time>
<speed>0.980000</speed>
<extensions>
<speed>1.0</speed>
<temp>0.00</temp>
<bpm>0</bpm>
<rpm>0.00</rpm>
</extensions>
</trkpt>
<trkpt lat="63.835742950" lon="-21.671606064">
<ele>16.220215</ele>
<time>2012-07-28T13:15:06Z</time>
<speed>1.860000</speed>
<extensions>
<speed>1.9</speed>
<temp>0.00</temp>
<bpm>0</bpm>
<rpm>0.00</rpm>
</extensions>
</trkpt>
<trkpt lat="63.835792542" lon="-21.671577454">
<ele>15.669922</ele>
<time>2012-07-28T13:15:11Z</time>
<speed>1.180000</speed>
<extensions>
<speed>1.2</speed>
<temp>0.00</temp>
<bpm>0</bpm>
<rpm>0.00</rpm>
</extensions>
</trkpt>
<trkpt lat="63.835853577" lon="-21.671510696">
<ele>16.603027</ele>
<time>2012-07-28T13:15:16Z</time>
<speed>1.530000</speed>
<extensions>
<speed>1.5</speed>
<temp>0.00</temp>
<bpm>0</bpm>
<rpm>0.00</rpm>
</extensions>
</trkpt>
<trkpt lat="63.835849762" lon="-21.671310425">
<ele>16.415527</ele>
<time>2012-07-28T13:15:21Z</time>
<speed>1.410000</speed>
<extensions>
<speed>1.4</speed>
<temp>0.00</temp>
<bpm>0</bpm>
<rpm>0.00</rpm>
</extensions>
</trkpt>
<trkpt lat="63.835826874" lon="-21.671175003">
<ele>17.372070</ele>
<time>2012-07-28T13:15:26Z</time>
<speed>0.050000</speed>
<extensions>
<speed>0.1</speed>
<temp>0.00</temp>
<bpm>0</bpm>
<rpm>0.00</rpm>
</extensions>
</trkpt>
<trkpt lat="63.835834503" lon="-21.671167374">
<ele>18.153809</ele>
<time>2012-07-28T13:15:31Z</time>
<speed>0.360000</speed>
<extensions>
<speed>0.4</speed>
<temp>0.00</temp>
<bpm>0</bpm>
<rpm>0.00</rpm>
</extensions>
</trkpt>
<trkpt lat="63.835811615" lon="-21.671079636">
<ele>18.158691</ele>
<time>2012-07-28T13:15:36Z</time>
<speed>1.090000</speed>
<extensions>
<speed>1.1</speed>
<temp>0.00</temp>
<bpm>0</bpm>
<rpm>0.00</rpm>
</extensions>
</trkpt>
<trkpt lat="63.835765839" lon="-21.670936584">
<ele>18.049805</ele>
<time>2012-07-28T13:15:41Z</time>
<speed>0.990000</speed>
<extensions>
<speed>1.0</speed>
<temp>0.00</temp>
<bpm>0</bpm>
<rpm>0.00</rpm>
</extensions>
</trkpt>
<trkpt lat="63.835746765" lon="-21.670837402">
<ele>18.225586</ele>
<time>2012-07-28T13:15:46Z</time>
<speed>0.940000</speed>
<extensions>
<speed>0.9</speed>
<temp>0.00</temp>
<bpm>0</bpm>
<rpm>0.00</rpm>
</extensions>
</trkpt>
<trkpt lat="63.835735321" lon="-21.670732498">
<ele>19.363770</ele>
<time>2012-07-28T13:15:51Z</time>
<speed>0.910000</speed>
<extensions>
<speed>0.9</speed>
<temp>0.00</temp>
<bpm>0</bpm>
<rpm>0.00</rpm>
</extensions>
</trkpt>
<trkpt lat="63.835762024" lon="-21.670677185">
<ele>19.019531</ele>
<time>2012-07-28T13:15:56Z</time>
<speed>1.120000</speed>
<extensions>
<speed>1.1</speed>
<temp>0.00</temp>
<bpm>0</bpm>
<rpm>0.00</rpm>
</extensions>
</trkpt>
<trkpt lat="63.835792542" lon="-21.670650482">
<ele>19.104004</ele>
<time>2012-07-28T13:16:01Z</time>
<speed>0.600000</speed>
<extensions>
<speed>0.6</speed>
<temp>0.00</temp>
<bpm>0</bpm>
<rpm>0.00</rpm>
</extensions>
</trkpt>
<trkpt lat="63.835811615" lon="-21.670619965">
<ele>18.788574</ele>
<time>2012-07-28T13:16:06Z</time>
<speed>0.680000</speed>
<extensions>
<speed>0.7</speed>
<temp>0.00</temp>
<bpm>0</bpm>
<rpm>0.00</rpm>
</extensions>
</trkpt>
<trkpt lat="63.835811615" lon="-21.670570374">
<ele>18.810059</ele>
<time>2012-07-28T13:16:11Z</time>
<speed>0.580000</speed>
<extensions>
<speed>0.6</speed>
<temp>0.00</temp>
<bpm>0</bpm>
<rpm>0.00</rpm>
</extensions>
</trkpt>
<trkpt lat="63.835868835" lon="-21.670539856">
<ele>18.463867</ele>
<time>2012-07-28T13:16:16Z</time>
<speed>1.170000</speed>
<extensions>
<speed>1.2</speed>
<temp>0.00</temp>
<bpm>0</bpm>
<rpm>0.00</rpm>
</extensions>
</trkpt>
<trkpt lat="63.835998535" lon="-21.670516968">
<ele>17.991699</ele>
<time>2012-07-28T13:16:21Z</time>
<speed>1.260000</speed>
<extensions>
<speed>1.3</speed>
<temp>0.00</temp>
<bpm>0</bpm>
<rpm>0.00</rpm>
</extensions>
</trkpt>
<trkpt lat="63.836059570" lon="-21.670454025">
<ele>18.469727</ele>
<time>2012-07-28T13:16:26Z</time>
<speed>0.350000</speed>
<extensions>
<speed>0.3</speed>
<temp>0.00</temp>
<bpm>0</bpm>
<rpm>0.00</rpm>
</extensions>
</trkpt>
<trkpt lat="63.836055756" lon="-21.670486450">
<ele>18.828613</ele>
<time>2012-07-28T13:16:31Z</time>
<speed>0.010000</speed>
<extensions>
<speed>0.0</speed>
<temp>0.00</temp>
<bpm>0</bpm>
<rpm>0.00</rpm>
</extensions>
</trkpt>
<trkpt lat="63.836055756" lon="-21.670486450">
<ele>18.824219</ele>
<time>2012-07-28T13:16:36Z</time>
<speed>0.310000</speed>
<extensions>
<speed>0.3</speed>
<temp>0.00</temp>
<bpm>0</bpm>
<rpm>0.00</rpm>
</extensions>
</trkpt>
<trkpt lat="63.836059570" lon="-21.670478821">
<ele>18.557129</ele>
<time>2012-07-28T13:16:41Z</time>
<speed>0.110000</speed>
<extensions>
<speed>0.1</speed>
<temp>0.00</temp>
<bpm>0</bpm>
<rpm>0.00</rpm>
</extensions>
</trkpt>
<trkpt lat="63.836086273" lon="-21.670448303">
<ele>18.937012</ele>
<time>2012-07-28T13:16:46Z</time>
<speed>0.370000</speed>
<extensions>
<speed>0.4</speed>
<temp>0.00</temp>
<bpm>0</bpm>
<rpm>0.00</rpm>
</extensions>
</trkpt>
<trkpt lat="63.836101532" lon="-21.670440674">
<ele>19.117188</ele>
<time>2012-07-28T13:16:51Z</time>
<speed>0.080000</speed>
<extensions>
<speed>0.1</speed>
<temp>0.00</temp>
<bpm>0</bpm>
<rpm>0.00</rpm>
</extensions>
</trkpt>
<trkpt lat="63.836093903" lon="-21.670429230">
<ele>19.030762</ele>
<time>2012-07-28T13:16:56Z</time>
<speed>0.040000</speed>
<extensions>
<speed>0.0</speed>
<temp>0.00</temp>
<bpm>0</bpm>
<rpm>0.00</rpm>
</extensions>
</trkpt>
<trkpt lat="63.836093903" lon="-21.670429230">
<ele>19.034668</ele>
<time>2012-07-28T13:17:01Z</time>
<extensions>
<speed>0.0</speed>
<temp>0.00</temp>
<bpm>0</bpm>
<rpm>0.00</rpm>
</extensions>
</trkpt>
<trkpt lat="63.836112976" lon="-21.670425415">
<ele>19.220215</ele>
<time>2012-07-28T13:17:06Z</time>
<speed>0.580000</speed>
<extensions>
<speed>0.6</speed>
<temp>0.00</temp>
<bpm>0</bpm>
<rpm>0.00</rpm>
</extensions>
</trkpt>
<trkpt lat="63.836139679" lon="-21.670408249">
<ele>18.804199</ele>
<time>2012-07-28T13:17:11Z</time>
<speed>0.740000</speed>
<extensions>
<speed>0.7</speed>
<temp>0.00</temp>
<bpm>0</bpm>
<rpm>0.00</rpm>
</extensions>
</trkpt>
<trkpt lat="63.836177826" lon="-21.670394897">
<ele>18.448242</ele>
<time>2012-07-28T13:17:16Z</time>
<speed>0.910000</speed>
<extensions>
<speed>0.9</speed>
<temp>0.00</temp>
<bpm>0</bpm>
<rpm>0.00</rpm>
</extensions>
</trkpt>
<trkpt lat="63.836212158" lon="-21.670352936">
<ele>18.634766</ele>
<time>2012-07-28T13:17:21Z</time>
<speed>0.200000</speed>
<extensions>
<speed>0.2</speed>
<temp>0.00</temp>
<bpm>0</bpm>
<rpm>0.00</rpm>
</extensions>
</trkpt>
<trkpt lat="63.836265564" lon="-21.670391083">
<ele>18.528809</ele>
<time>2012-07-28T13:17:26Z</time>
<speed>0.980000</speed>
<extensions>
<speed>1.0</speed>
<temp>0.00</temp>
<bpm>0</bpm>
<rpm>0.00</rpm>
</extensions>
</trkpt>
<trkpt lat="63.836273193" lon="-21.670370102">
<ele>16.414551</ele>
<time>2012-07-28T13:17:31Z</time>
<speed>0.020000</speed>
<extensions>
<speed>0.0</speed>
<temp>0.00</temp>
<bpm>0</bpm>
<rpm>0.00</rpm>
</extensions>
</trkpt>
<trkpt lat="63.836273193" lon="-21.670370102">
<ele>16.246582</ele>
<time>2012-07-28T13:17:36Z</time>
<speed>0.010000</speed>
<extensions>
<speed>0.0</speed>
<temp>0.00</temp>
<bpm>0</bpm>
<rpm>0.00</rpm>
</extensions>
</trkpt>
<trkpt lat="63.836273193" lon="-21.670370102">
<ele>16.229980</ele>
<time>2012-07-28T13:17:41Z</time>
<speed>0.010000</speed>
<extensions>
<speed>0.0</speed>
<temp>0.00</temp>
<bpm>0</bpm>
<rpm>0.00</rpm>
</extensions>
</trkpt>
<trkpt lat="63.836273193" lon="-21.670370102">
<ele>16.220703</ele>
<time>2012-07-28T13:17:46Z</time>
<speed>0.110000</speed>
<extensions>
<speed>0.1</speed>
<temp>0.00</temp>
<bpm>0</bpm>
<rpm>0.00</rpm>
</extensions>
</trkpt>
<trkpt lat="63.836322784" lon="-21.670349121">
<ele>16.549805</ele>
<time>2012-07-28T13:17:51Z</time>
<speed>1.670000</speed>
<extensions>
<speed>1.7</speed>
<temp>0.00</temp>
<bpm>0</bpm>
<rpm>0.00</rpm>
</extensions>
</trkpt>
<trkpt lat="63.836399078" lon="-21.670368195">
<ele>16.619141</ele>
<time>2012-07-28T13:17:56Z</time>
<speed>1.650000</speed>
<extensions>
<speed>1.7</speed>
<temp>0.00</temp>
<bpm>0</bpm>
<rpm>0.00</rpm>
</extensions>
</trkpt>
<trkpt lat="63.836421967" lon="-21.670427322">
<ele>17.026367</ele>
<time>2012-07-28T13:18:01Z</time>
<speed>0.880000</speed>
<extensions>
<speed>0.9</speed>
<temp>0.00</temp>
<bpm>0</bpm>
<rpm>0.00</rpm>
</extensions>
</trkpt>
<trkpt lat="63.836463928" lon="-21.670505524">
<ele>17.791504</ele>
<time>2012-07-28T13:18:06Z</time>
<speed>1.300000</speed>
<extensions>
<speed>1.3</speed>
<temp>0.00</temp>
<bpm>0</bpm>
<rpm>0.00</rpm>
</extensions>
</trkpt>
<trkpt lat="63.836505890" lon="-21.670616150">
<ele>17.654785</ele>
<time>2012-07-28T13:18:11Z</time>
<speed>1.430000</speed>
<extensions>
<speed>1.4</speed>
<temp>0.00</temp>
<bpm>0</bpm>
<rpm>0.00</rpm>
</extensions>
</trkpt>
<trkpt lat="63.836521149" lon="-21.670679092">
<ele>18.299316</ele>
<time>2012-07-28T13:18:16Z</time>
<speed>0.560000</speed>
<extensions>
<speed>0.6</speed>
<temp>0.00</temp>
<bpm>0</bpm>
<rpm>0.00</rpm>
</extensions>
</trkpt>
<trkpt lat="63.836505890" lon="-21.670703888">
<ele>16.691406</ele>
<time>2012-07-28T13:18:21Z</time>
<speed>0.050000</speed>
<extensions>
<speed>0.1</speed>
<temp>0.00</temp>
<bpm>0</bpm>
<rpm>0.00</rpm>
</extensions>
</trkpt>
<trkpt lat="63.836509705" lon="-21.670677185">
<ele>16.834473</ele>
<time>2012-07-28T13:18:26Z</time>
<speed>0.060000</speed>
<extensions>
<speed>0.1</speed>
<temp>0.00</temp>
<bpm>0</bpm>
<rpm>0.00</rpm>
</extensions>
</trkpt>
<trkpt lat="63.836490631" lon="-21.670686722">
<ele>17.019531</ele>
<time>2012-07-28T13:18:31Z</time>
<speed>0.360000</speed>
<extensions>
<speed>0.4</speed>
<temp>0.00</temp>
<bpm>0</bpm>
<rpm>0.00</rpm>
</extensions>
</trkpt>
<trkpt lat="63.836418152" lon="-21.670738220">
<ele>15.530273</ele>
<time>2012-07-28T13:18:36Z</time>
<speed>2.680000</speed>
<extensions>
<speed>2.7</speed>
<temp>0.00</temp>
<bpm>0</bpm>
<rpm>0.00</rpm>
</extensions>
</trkpt>
<trkpt lat="63.836318970" lon="-21.670848846">
<ele>15.016846</ele>
<time>2012-07-28T13:18:41Z</time>
<speed>2.220000</speed>
<extensions>
<speed>2.2</speed>
<temp>0.00</temp>
<bpm>0</bpm>
<rpm>0.00</rpm>
</extensions>
</trkpt>
<trkpt lat="63.836250305" lon="-21.670959473">
<ele>13.627686</ele>
<time>2012-07-28T13:18:46Z</time>
<speed>1.760000</speed>
<extensions>
<speed>1.8</speed>
<temp>0.00</temp>
<bpm>0</bpm>
<rpm>0.00</rpm>
</extensions>
</trkpt>
<trkpt lat="63.836174011" lon="-21.671089172">
<ele>13.192383</ele>
<time>2012-07-28T13:18:51Z</time>
<speed>1.840000</speed>
<extensions>
<speed>1.8</speed>
<temp>0.00</temp>
<bpm>0</bpm>
<rpm>0.00</rpm>
</extensions>
</trkpt>
<trkpt lat="63.836124420" lon="-21.671237946">
<ele>12.172852</ele>
<time>2012-07-28T13:18:56Z</time>
<speed>1.590000</speed>
<extensions>
<speed>1.6</speed>
<temp>0.00</temp>
<bpm>0</bpm>
<rpm>0.00</rpm>
</extensions>
</trkpt>
<trkpt lat="63.836154938" lon="-21.671480179">
<ele>14.114014</ele>
<time>2012-07-28T13:19:01Z</time>
<speed>1.830000</speed>
<extensions>
<speed>1.8</speed>
<temp>0.00</temp>
<bpm>0</bpm>
<rpm>0.00</rpm>
</extensions>
</trkpt>
<trkpt lat="63.836212158" lon="-21.671735764">
<ele>15.880127</ele>
<time>2012-07-28T13:19:06Z</time>
<speed>2.840000</speed>
<extensions>
<speed>2.8</speed>
<temp>0.00</temp>
<bpm>0</bpm>
<rpm>0.00</rpm>
</extensions>
</trkpt>
<trkpt lat="63.836288452" lon="-21.672012329">
<ele>17.116211</ele>
<time>2012-07-28T13:19:11Z</time>
<speed>3.100000</speed>
<extensions>
<speed>3.1</speed>
<temp>0.00</temp>
<bpm>0</bpm>
<rpm>0.00</rpm>
</extensions>
</trkpt>
<trkpt lat="63.836372375" lon="-21.672300339">
<ele>18.200195</ele>
<time>2012-07-28T13:19:16Z</time>
<speed>3.260000</speed>
<extensions>
<speed>3.3</speed>
<temp>0.00</temp>
<bpm>0</bpm>
<rpm>0.00</rpm>
</extensions>
</trkpt>
<trkpt lat="63.836452484" lon="-21.672580719">
<ele>18.573242</ele>
<time>2012-07-28T13:19:21Z</time>
<speed>3.250000</speed>
<extensions>
<speed>3.2</speed>
<temp>0.00</temp>
<bpm>0</bpm>
<rpm>0.00</rpm>
</extensions>
</trkpt>
<trkpt lat="63.836536407" lon="-21.672851563">
<ele>18.743652</ele>
<time>2012-07-28T13:19:26Z</time>
<speed>3.250000</speed>
<extensions>
<speed>3.2</speed>
<temp>0.00</temp>
<bpm>0</bpm>
<rpm>0.00</rpm>
</extensions>
</trkpt>
<trkpt lat="63.836620331" lon="-21.673120499">
<ele>18.876953</ele>
<time>2012-07-28T13:19:31Z</time>
<speed>3.290000</speed>
<extensions>
<speed>3.3</speed>
<temp>0.00</temp>
<bpm>0</bpm>
<rpm>0.00</rpm>
</extensions>
</trkpt>
<trkpt lat="63.836704254" lon="-21.673372269">
<ele>19.551270</ele>
<time>2012-07-28T13:19:36Z</time>
<speed>2.880000</speed>
<extensions>
<speed>2.9</speed>
<temp>0.00</temp>
<bpm>0</bpm>
<rpm>0.00</rpm>
</extensions>
</trkpt>
<trkpt lat="63.836788177" lon="-21.673631668">
<ele>19.680664</ele>
<time>2012-07-28T13:19:41Z</time>
<speed>3.330000</speed>
<extensions>
<speed>3.3</speed>
<temp>0.00</temp>
<bpm>0</bpm>
<rpm>0.00</rpm>
</extensions>
</trkpt>
<trkpt lat="63.836868286" lon="-21.673896790">
<ele>19.837891</ele>
<time>2012-07-28T13:19:46Z</time>
<speed>3.210000</speed>
<extensions>
<speed>3.2</speed>
<temp>0.00</temp>
<bpm>0</bpm>
<rpm>0.00</rpm>
</extensions>
</trkpt>
<trkpt lat="63.836956024" lon="-21.674156189">
<ele>20.231445</ele>
<time>2012-07-28T13:19:51Z</time>
<speed>3.130000</speed>
<extensions>
<speed>3.1</speed>
<temp>0.00</temp>
<bpm>0</bpm>
<rpm>0.00</rpm>
</extensions>
</trkpt>
<trkpt lat="63.837055206" lon="-21.674402237">
<ele>19.690430</ele>
<time>2012-07-28T13:19:56Z</time>
<speed>3.250000</speed>
<extensions>
<speed>3.2</speed>
<temp>0.00</temp>
<bpm>0</bpm>
<rpm>0.00</rpm>
</extensions>
</trkpt>
<trkpt lat="63.837142944" lon="-21.674657822">
<ele>19.340820</ele>
<time>2012-07-28T13:20:01Z</time>
<speed>3.060000</speed>
<extensions>
<speed>3.1</speed>
<temp>0.00</temp>
<bpm>0</bpm>
<rpm>0.00</rpm>
</extensions>
</trkpt>
<trkpt lat="63.837219238" lon="-21.674922943">
<ele>19.069824</ele>
<time>2012-07-28T13:20:06Z</time>
<speed>3.310000</speed>
<extensions>
<speed>3.3</speed>
<temp>0.00</temp>
<bpm>0</bpm>
<rpm>0.00</rpm>
</extensions>
</trkpt>
<trkpt lat="63.837314606" lon="-21.675205231">
<ele>19.656738</ele>
<time>2012-07-28T13:20:11Z</time>
<speed>3.530000</speed>
<extensions>
<speed>3.5</speed>
<temp>0.00</temp>
<bpm>0</bpm>
<rpm>0.00</rpm>
</extensions>
</trkpt>
<trkpt lat="63.837406158" lon="-21.675485611">
<ele>19.236816</ele>
<time>2012-07-28T13:20:16Z</time>
<speed>3.500000</speed>
<extensions>
<speed>3.5</speed>
<temp>0.00</temp>
<bpm>0</bpm>
<rpm>0.00</rpm>
</extensions>
</trkpt>
<trkpt lat="63.837505341" lon="-21.675783157">
<ele>19.551758</ele>
<time>2012-07-28T13:20:21Z</time>
<speed>3.530000</speed>
<extensions>
<speed>3.5</speed>
<temp>0.00</temp>
<bpm>0</bpm>
<rpm>0.00</rpm>
</extensions>
</trkpt>
<trkpt lat="63.837604523" lon="-21.676048279">
<ele>19.296875</ele>
<time>2012-07-28T13:20:26Z</time>
<speed>3.390000</speed>
<extensions>
<speed>3.4</speed>
<temp>0.00</temp>
<bpm>0</bpm>
<rpm>0.00</rpm>
</extensions>
</trkpt>
<trkpt lat="63.837703705" lon="-21.676319122">
<ele>19.091797</ele>
<time>2012-07-28T13:20:31Z</time>
<speed>3.450000</speed>
<extensions>
<speed>3.5</speed>
<temp>0.00</temp>
<bpm>0</bpm>
<rpm>0.00</rpm>
</extensions>
</trkpt>
<trkpt lat="63.837799072" lon="-21.676563263">
<ele>18.229492</ele>
<time>2012-07-28T13:20:36Z</time>
<speed>3.280000</speed>
<extensions>
<speed>3.3</speed>
<temp>0.00</temp>
<bpm>0</bpm>
<rpm>0.00</rpm>
</extensions>
</trkpt>
<trkpt lat="63.837886810" lon="-21.676809311">
<ele>18.091797</ele>
<time>2012-07-28T13:20:41Z</time>
<speed>3.050000</speed>
<extensions>
<speed>3.0</speed>
<temp>0.00</temp>
<bpm>0</bpm>
<rpm>0.00</rpm>
</extensions>
</trkpt>
<trkpt lat="63.837978363" lon="-21.677045822">
<ele>18.295410</ele>
<time>2012-07-28T13:20:46Z</time>
<speed>3.080000</speed>
<extensions>
<speed>3.1</speed>
<temp>0.00</temp>
<bpm>0</bpm>
<rpm>0.00</rpm>
</extensions>
</trkpt>
<trkpt lat="63.838069916" lon="-21.677291870">
<ele>18.073730</ele>
<time>2012-07-28T13:20:51Z</time>
<speed>3.120000</speed>
<extensions>
<speed>3.1</speed>
<temp>0.00</temp>
<bpm>0</bpm>
<rpm>0.00</rpm>
</extensions>
</trkpt>
<trkpt lat="63.838161469" lon="-21.677518845">
<ele>18.188477</ele>
<time>2012-07-28T13:20:56Z</time>
<speed>3.030000</speed>
<extensions>
<speed>3.0</speed>
<temp>0.00</temp>
<bpm>0</bpm>
<rpm>0.00</rpm>
</extensions>
</trkpt>
<trkpt lat="63.838260651" lon="-21.677761078">
<ele>18.379883</ele>
<time>2012-07-28T13:21:01Z</time>
<speed>3.160000</speed>
<extensions>
<speed>3.2</speed>
<temp>0.00</temp>
<bpm>0</bpm>
<rpm>0.00</rpm>
</extensions>
</trkpt>
<trkpt lat="63.838359833" lon="-21.677995682">
<ele>18.652832</ele>
<time>2012-07-28T13:21:06Z</time>
<speed>3.020000</speed>
<extensions>
<speed>3.0</speed>
<temp>0.00</temp>
<bpm>0</bpm>
<rpm>0.00</rpm>
</extensions>
</trkpt>
<trkpt lat="63.838432312" lon="-21.678195953">
<ele>18.213379</ele>
<time>2012-07-28T13:21:11Z</time>
<speed>2.020000</speed>
<extensions>
<speed>2.0</speed>
<temp>0.00</temp>
<bpm>0</bpm>
<rpm>0.00</rpm>
</extensions>
</trkpt>
<trkpt lat="63.838512421" lon="-21.678400040">
<ele>18.354492</ele>
<time>2012-07-28T13:21:16Z</time>
<speed>2.970000</speed>
<extensions>
<speed>3.0</speed>
<temp>0.00</temp>
<bpm>0</bpm>
<rpm>0.00</rpm>
</extensions>
</trkpt>
<trkpt lat="63.838607788" lon="-21.678642273">
<ele>18.857422</ele>
<time>2012-07-28T13:21:21Z</time>
<speed>3.120000</speed>
<extensions>
<speed>3.1</speed>
<temp>0.00</temp>
<bpm>0</bpm>
<rpm>0.00</rpm>
</extensions>
</trkpt>
<trkpt lat="63.838699341" lon="-21.678894043">
<ele>19.530762</ele>
<time>2012-07-28T13:21:26Z</time>
<speed>3.400000</speed>
<extensions>
<speed>3.4</speed>
<temp>0.00</temp>
<bpm>0</bpm>
<rpm>0.00</rpm>
</extensions>
</trkpt>
<trkpt lat="63.838794708" lon="-21.679136276">
<ele>19.116699</ele>
<time>2012-07-28T13:21:31Z</time>
<speed>3.130000</speed>
<extensions>
<speed>3.1</speed>
<temp>0.00</temp>
<bpm>0</bpm>
<rpm>0.00</rpm>
</extensions>
</trkpt>
<trkpt lat="63.838893890" lon="-21.679374695">
<ele>19.049805</ele>
<time>2012-07-28T13:21:36Z</time>
<speed>3.090000</speed>
<extensions>
<speed>3.1</speed>
<temp>0.00</temp>
<bpm>0</bpm>
<rpm>0.00</rpm>
</extensions>
</trkpt>
<trkpt lat="63.838989258" lon="-21.679618835">
<ele>18.783691</ele>
<time>2012-07-28T13:21:41Z</time>
<speed>3.570000</speed>
<extensions>
<speed>3.6</speed>
<temp>0.00</temp>
<bpm>0</bpm>
<rpm>0.00</rpm>
</extensions>
</trkpt>
<trkpt lat="63.839099884" lon="-21.679851532">
<ele>18.963379</ele>
<time>2012-07-28T13:21:46Z</time>
<speed>3.370000</speed>
<extensions>
<speed>3.4</speed>
<temp>0.00</temp>
<bpm>0</bpm>
<rpm>0.00</rpm>
</extensions>
</trkpt>
<trkpt lat="63.839199066" lon="-21.680103302">
<ele>18.652832</ele>
<time>2012-07-28T13:21:51Z</time>
<speed>3.150000</speed>
<extensions>
<speed>3.2</speed>
<temp>0.00</temp>
<bpm>0</bpm>
<rpm>0.00</rpm>
</extensions>
</trkpt>
<trkpt lat="63.839305878" lon="-21.680328369">
<ele>18.909668</ele>
<time>2012-07-28T13:21:56Z</time>
<speed>3.320000</speed>
<extensions>
<speed>3.3</speed>
<temp>0.00</temp>
<bpm>0</bpm>
<rpm>0.00</rpm>
</extensions>
</trkpt>
<trkpt lat="63.839416504" lon="-21.680574417">
<ele>18.666504</ele>
<time>2012-07-28T13:22:01Z</time>
<speed>3.190000</speed>
<extensions>
<speed>3.2</speed>
<temp>0.00</temp>
<bpm>0</bpm>
<rpm>0.00</rpm>
</extensions>
</trkpt>
<trkpt lat="63.839511871" lon="-21.680778503">
<ele>18.711914</ele>
<time>2012-07-28T13:22:06Z</time>
<speed>2.970000</speed>
<extensions>
<speed>3.0</speed>
<temp>0.00</temp>
<bpm>0</bpm>
<rpm>0.00</rpm>
</extensions>
</trkpt>
<trkpt lat="63.839603424" lon="-21.680992126">
<ele>18.629395</ele>
<time>2012-07-28T13:22:11Z</time>
<speed>2.920000</speed>
<extensions>
<speed>2.9</speed>
<temp>0.00</temp>
<bpm>0</bpm>
<rpm>0.00</rpm>
</extensions>
</trkpt>
<trkpt lat="63.839702606" lon="-21.681192398">
<ele>18.494629</ele>
<time>2012-07-28T13:22:16Z</time>
<speed>2.880000</speed>
<extensions>
<speed>2.9</speed>
<temp>0.00</temp>
<bpm>0</bpm>
<rpm>0.00</rpm>
</extensions>
</trkpt>
<trkpt lat="63.839786530" lon="-21.681392670">
<ele>18.626465</ele>
<time>2012-07-28T13:22:21Z</time>
<speed>2.910000</speed>
<extensions>
<speed>2.9</speed>
<temp>0.00</temp>
<bpm>0</bpm>
<rpm>0.00</rpm>
</extensions>
</trkpt>
<trkpt lat="63.839878082" lon="-21.681591034">
<ele>17.983887</ele>
<time>2012-07-28T13:22:26Z</time>
<speed>2.880000</speed>
<extensions>
<speed>2.9</speed>
<temp>0.00</temp>
<bpm>0</bpm>
<rpm>0.00</rpm>
</extensions>
</trkpt>
<trkpt lat="63.839969635" lon="-21.681808472">
<ele>18.000000</ele>
<time>2012-07-28T13:22:31Z</time>
<speed>2.870000</speed>
<extensions>
<speed>2.9</speed>
<temp>0.00</temp>
<bpm>0</bpm>
<rpm>0.00</rpm>
</extensions>
</trkpt>
<trkpt lat="63.840072632" lon="-21.682025909">
<ele>17.692383</ele>
<time>2012-07-28T13:22:36Z</time>
<speed>3.080000</speed>
<extensions>
<speed>3.1</speed>
<temp>0.00</temp>
<bpm>0</bpm>
<rpm>0.00</rpm>
</extensions>
</trkpt>
<trkpt lat="63.840167999" lon="-21.682239532">
<ele>17.580078</ele>
<time>2012-07-28T13:22:41Z</time>
<speed>3.030000</speed>
<extensions>
<speed>3.0</speed>
<temp>0.00</temp>
<bpm>0</bpm>
<rpm>0.00</rpm>
</extensions>
</trkpt>
<trkpt lat="63.840270996" lon="-21.682477951">
<ele>17.885742</ele>
<time>2012-07-28T13:22:46Z</time>
<speed>3.260000</speed>
<extensions>
<speed>3.3</speed>
<temp>0.00</temp>
<bpm>0</bpm>
<rpm>0.00</rpm>
</extensions>
</trkpt>
<trkpt lat="63.840370178" lon="-21.682680130">
<ele>18.103027</ele>
<time>2012-07-28T13:22:51Z</time>
<speed>2.940000</speed>
<extensions>
<speed>2.9</speed>
<temp>0.00</temp>
<bpm>0</bpm>
<rpm>0.00</rpm>
</extensions>
</trkpt>
<trkpt lat="63.840473175" lon="-21.682886124">
<ele>18.327148</ele>
<time>2012-07-28T13:22:56Z</time>
<speed>3.020000</speed>
<extensions>
<speed>3.0</speed>
<temp>0.00</temp>
<bpm>0</bpm>
<rpm>0.00</rpm>
</extensions>
</trkpt>
<trkpt lat="63.840560913" lon="-21.683115005">
<ele>18.330566</ele>
<time>2012-07-28T13:23:01Z</time>
<speed>2.960000</speed>
<extensions>
<speed>3.0</speed>
<temp>0.00</temp>
<bpm>0</bpm>
<rpm>0.00</rpm>
</extensions>
</trkpt>
<trkpt lat="63.840652466" lon="-21.683336258">
<ele>18.457520</ele>
<time>2012-07-28T13:23:06Z</time>
<speed>2.890000</speed>
<extensions>
<speed>2.9</speed>
<temp>0.00</temp>
<bpm>0</bpm>
<rpm>0.00</rpm>
</extensions>
</trkpt>
<trkpt lat="63.840747833" lon="-21.683559418">
<ele>18.635742</ele>
<time>2012-07-28T13:23:11Z</time>
<speed>3.110000</speed>
<extensions>
<speed>3.1</speed>
<temp>0.00</temp>
<bpm>0</bpm>
<rpm>0.00</rpm>
</extensions>
</trkpt>
<trkpt lat="63.840850830" lon="-21.683795929">
<ele>18.877441</ele>
<time>2012-07-28T13:23:16Z</time>
<speed>3.320000</speed>
<extensions>
<speed>3.3</speed>
<temp>0.00</temp>
<bpm>0</bpm>
<rpm>0.00</rpm>
</extensions>
</trkpt>
<trkpt lat="63.840965271" lon="-21.684051514">
<ele>19.483398</ele>
<time>2012-07-28T13:23:21Z</time>
<speed>3.510000</speed>
<extensions>
<speed>3.5</speed>
<temp>0.00</temp>
<bpm>0</bpm>
<rpm>0.00</rpm>
</extensions>
</trkpt>
<trkpt lat="63.841083527" lon="-21.684318542">
<ele>19.288086</ele>
<time>2012-07-28T13:23:26Z</time>
<speed>3.620000</speed>
<extensions>
<speed>3.6</speed>
<temp>0.00</temp>
<bpm>0</bpm>
<rpm>0.00</rpm>
</extensions>
</trkpt>
<trkpt lat="63.841205597" lon="-21.684558868">
<ele>19.626465</ele>
<time>2012-07-28T13:23:31Z</time>
<speed>3.530000</speed>
<extensions>
<speed>3.5</speed>
<temp>0.00</temp>
<bpm>0</bpm>
<rpm>0.00</rpm>
</extensions>
</trkpt>
<trkpt lat="63.841327667" lon="-21.684825897">
<ele>19.374512</ele>
<time>2012-07-28T13:23:36Z</time>
<speed>3.740000</speed>
<extensions>
<speed>3.7</speed>
<temp>0.00</temp>
<bpm>0</bpm>
<rpm>0.00</rpm>
</extensions>
</trkpt>
<trkpt lat="63.841445923" lon="-21.685113907">
<ele>19.977539</ele>
<time>2012-07-28T13:23:41Z</time>
<speed>3.500000</speed>
<extensions>
<speed>3.5</speed>
<temp>0.00</temp>
<bpm>0</bpm>
<rpm>0.00</rpm>
</extensions>
</trkpt>
<trkpt lat="63.841552734" lon="-21.685348511">
<ele>19.832520</ele>
<time>2012-07-28T13:23:46Z</time>
<speed>3.340000</speed>
<extensions>
<speed>3.3</speed>
<temp>0.00</temp>
<bpm>0</bpm>
<rpm>0.00</rpm>
</extensions>
</trkpt>
<trkpt lat="63.841663361" lon="-21.685592651">
<ele>19.115234</ele>
<time>2012-07-28T13:23:51Z</time>
<speed>3.510000</speed>
<extensions>
<speed>3.5</speed>
<temp>0.00</temp>
<bpm>0</bpm>
<rpm>0.00</rpm>
</extensions>
</trkpt>
<trkpt lat="63.841758728" lon="-21.685855865">
<ele>19.602051</ele>
<time>2012-07-28T13:23:56Z</time>
<speed>3.540000</speed>
<extensions>
<speed>3.5</speed>
<temp>0.00</temp>
<bpm>0</bpm>
<rpm>0.00</rpm>
</extensions>
</trkpt>
<trkpt lat="63.841869354" lon="-21.686100006">
<ele>19.114258</ele>
<time>2012-07-28T13:24:01Z</time>
<speed>3.540000</speed>
<extensions>
<speed>3.5</speed>
<temp>0.00</temp>
<bpm>0</bpm>
<rpm>0.00</rpm>
</extensions>
</trkpt>
<trkpt lat="63.841968536" lon="-21.686349869">
<ele>18.081055</ele>
<time>2012-07-28T13:24:06Z</time>
<speed>3.400000</speed>
<extensions>
<speed>3.4</speed>
<temp>0.00</temp>
<bpm>0</bpm>
<rpm>0.00</rpm>
</extensions>
</trkpt>
<trkpt lat="63.842082977" lon="-21.686607361">
<ele>17.790039</ele>
<time>2012-07-28T13:24:11Z</time>
<speed>3.480000</speed>
<extensions>
<speed>3.5</speed>
<temp>0.00</temp>
<bpm>0</bpm>
<rpm>0.00</rpm>
</extensions>
</trkpt>
<trkpt lat="63.842182159" lon="-21.686849594">
<ele>17.183594</ele>
<time>2012-07-28T13:24:16Z</time>
<speed>3.210000</speed>
<extensions>
<speed>3.2</speed>
<temp>0.00</temp>
<bpm>0</bpm>
<rpm>0.00</rpm>
</extensions>
</trkpt>
<trkpt lat="63.842292786" lon="-21.687063217">
<ele>17.245117</ele>
<time>2012-07-28T13:24:21Z</time>
<speed>3.230000</speed>
<extensions>
<speed>3.2</speed>
<temp>0.00</temp>
<bpm>0</bpm>
<rpm>0.00</rpm>
</extensions>
</trkpt>
<trkpt lat="63.842384338" lon="-21.687299728">
<ele>16.658691</ele>
<time>2012-07-28T13:24:26Z</time>
<speed>2.920000</speed>
<extensions>
<speed>2.9</speed>
<temp>0.00</temp>
<bpm>0</bpm>
<rpm>0.00</rpm>
</extensions>
</trkpt>
<trkpt lat="63.842479706" lon="-21.687524796">
<ele>16.732910</ele>
<time>2012-07-28T13:24:31Z</time>
<speed>3.080000</speed>
<extensions>
<speed>3.1</speed>
<temp>0.00</temp>
<bpm>0</bpm>
<rpm>0.00</rpm>
</extensions>
</trkpt>
<trkpt lat="63.842582703" lon="-21.687755585">
<ele>16.046875</ele>
<time>2012-07-28T13:24:36Z</time>
<speed>2.690000</speed>
<extensions>
<speed>2.7</speed>
<temp>0.00</temp>
<bpm>0</bpm>
<rpm>0.00</rpm>
</extensions>
</trkpt>
<trkpt lat="63.842662811" lon="-21.687957764">
<ele>15.335938</ele>
<time>2012-07-28T13:24:41Z</time>
<speed>2.990000</speed>
<extensions>
<speed>3.0</speed>
<temp>0.00</temp>
<bpm>0</bpm>
<rpm>0.00</rpm>
</extensions>
</trkpt>
<trkpt lat="63.842742920" lon="-21.688194275">
<ele>15.068115</ele>
<time>2012-07-28T13:24:46Z</time>
<speed>3.130000</speed>
<extensions>
<speed>3.1</speed>
<temp>0.00</temp>
<bpm>0</bpm>
<rpm>0.00</rpm>
</extensions>
</trkpt>
<trkpt lat="63.842845917" lon="-21.688415527">
<ele>15.484375</ele>
<time>2012-07-28T13:24:51Z</time>
<speed>3.170000</speed>
<extensions>
<speed>3.2</speed>
<temp>0.00</temp>
<bpm>0</bpm>
<rpm>0.00</rpm>
</extensions>
</trkpt>
<trkpt lat="63.842945099" lon="-21.688671112">
<ele>15.412109</ele>
<time>2012-07-28T13:24:56Z</time>
<speed>3.280000</speed>
<extensions>
<speed>3.3</speed>
<temp>0.00</temp>
<bpm>0</bpm>
<rpm>0.00</rpm>
</extensions>
</trkpt>
<trkpt lat="63.843048096" lon="-21.688909531">
<ele>14.201172</ele>
<time>2012-07-28T13:25:01Z</time>
<speed>3.340000</speed>
<extensions>
<speed>3.3</speed>
<temp>0.00</temp>
<bpm>0</bpm>
<rpm>0.00</rpm>
</extensions>
</trkpt>
<trkpt lat="63.843135834" lon="-21.689174652">
<ele>13.787109</ele>
<time>2012-07-28T13:25:06Z</time>
<speed>3.370000</speed>
<extensions>
<speed>3.4</speed>
<temp>0.00</temp>
<bpm>0</bpm>
<rpm>0.00</rpm>
</extensions>
</trkpt>
<trkpt lat="63.843231201" lon="-21.689418793">
<ele>13.203857</ele>
<time>2012-07-28T13:25:11Z</time>
<speed>3.320000</speed>
<extensions>
<speed>3.3</speed>
<temp>0.00</temp>
<bpm>0</bpm>
<rpm>0.00</rpm>
</extensions>
</trkpt>
<trkpt lat="63.843341827" lon="-21.689678192">
<ele>13.190674</ele>
<time>2012-07-28T13:25:16Z</time>
<speed>3.300000</speed>
<extensions>
<speed>3.3</speed>
<temp>0.00</temp>
<bpm>0</bpm>
<rpm>0.00</rpm>
</extensions>
</trkpt>
<trkpt lat="63.843433380" lon="-21.689903259">
<ele>13.630615</ele>
<time>2012-07-28T13:25:21Z</time>
<speed>3.010000</speed>
<extensions>
<speed>3.0</speed>
<temp>0.00</temp>
<bpm>0</bpm>
<rpm>0.00</rpm>
</extensions>
</trkpt>
<trkpt lat="63.843521118" lon="-21.690160751">
<ele>13.372803</ele>
<time>2012-07-28T13:25:26Z</time>
<speed>3.010000</speed>
<extensions>
<speed>3.0</speed>
<temp>0.00</temp>
<bpm>0</bpm>
<rpm>0.00</rpm>
</extensions>
</trkpt>
<trkpt lat="63.843620300" lon="-21.690370560">
<ele>14.157471</ele>
<time>2012-07-28T13:25:31Z</time>
<speed>2.990000</speed>
<extensions>
<speed>3.0</speed>
<temp>0.00</temp>
<bpm>0</bpm>
<rpm>0.00</rpm>
</extensions>
</trkpt>
<trkpt lat="63.843708038" lon="-21.690620422">
<ele>13.459473</ele>
<time>2012-07-28T13:25:36Z</time>
<speed>3.210000</speed>
<extensions>
<speed>3.2</speed>
<temp>0.00</temp>
<bpm>0</bpm>
<rpm>0.00</rpm>
</extensions>
</trkpt>
<trkpt lat="63.843803406" lon="-21.690902710">
<ele>13.321777</ele>
<time>2012-07-28T13:25:41Z</time>
<speed>3.300000</speed>
<extensions>
<speed>3.3</speed>
<temp>0.00</temp>
<bpm>0</bpm>
<rpm>0.00</rpm>
</extensions>
</trkpt>
<trkpt lat="63.843914032" lon="-21.691143036">
<ele>14.746338</ele>
<time>2012-07-28T13:25:46Z</time>
<speed>3.340000</speed>
<extensions>
<speed>3.3</speed>
<temp>0.00</temp>
<bpm>0</bpm>
<rpm>0.00</rpm>
</extensions>
</trkpt>
<trkpt lat="63.844020844" lon="-21.691404343">
<ele>15.593018</ele>
<time>2012-07-28T13:25:51Z</time>
<speed>3.760000</speed>
<extensions>
<speed>3.8</speed>
<temp>0.00</temp>
<bpm>0</bpm>
<rpm>0.00</rpm>
</extensions>
</trkpt>
<trkpt lat="63.844116211" lon="-21.691663742">
<ele>14.733398</ele>
<time>2012-07-28T13:25:56Z</time>
<speed>3.740000</speed>
<extensions>
<speed>3.7</speed>
<temp>0.00</temp>
<bpm>0</bpm>
<rpm>0.00</rpm>
</extensions>
</trkpt>
<trkpt lat="63.844223022" lon="-21.691944122">
<ele>15.119385</ele>
<time>2012-07-28T13:26:01Z</time>
<speed>3.700000</speed>
<extensions>
<speed>3.7</speed>
<temp>0.00</temp>
<bpm>0</bpm>
<rpm>0.00</rpm>
</extensions>
</trkpt>
<trkpt lat="63.844329834" lon="-21.692247391">
<ele>16.435059</ele>
<time>2012-07-28T13:26:06Z</time>
<speed>4.020000</speed>
<extensions>
<speed>4.0</speed>
<temp>0.00</temp>
<bpm>0</bpm>
<rpm>0.00</rpm>
</extensions>
</trkpt>
<trkpt lat="63.844432831" lon="-21.692543030">
<ele>15.129395</ele>
<time>2012-07-28T13:26:11Z</time>
<speed>3.810000</speed>
<extensions>
<speed>3.8</speed>
<temp>0.00</temp>
<bpm>0</bpm>
<rpm>0.00</rpm>
</extensions>
</trkpt>
<trkpt lat="63.844528198" lon="-21.692823410">
<ele>13.831543</ele>
<time>2012-07-28T13:26:16Z</time>
<speed>3.510000</speed>
<extensions>
<speed>3.5</speed>
<temp>0.00</temp>
<bpm>0</bpm>
<rpm>0.00</rpm>
</extensions>
</trkpt>
<trkpt lat="63.844627380" lon="-21.693120956">
<ele>13.363770</ele>
<time>2012-07-28T13:26:21Z</time>
<speed>3.750000</speed>
<extensions>
<speed>3.8</speed>
<temp>0.00</temp>
<bpm>0</bpm>
<rpm>0.00</rpm>
</extensions>
</trkpt>
<trkpt lat="63.844734192" lon="-21.693391800">
<ele>12.854980</ele>
<time>2012-07-28T13:26:26Z</time>
<speed>3.540000</speed>
<extensions>
<speed>3.5</speed>
<temp>0.00</temp>
<bpm>0</bpm>
<rpm>0.00</rpm>
</extensions>
</trkpt>
<trkpt lat="63.844848633" lon="-21.693655014">
<ele>11.972168</ele>
<time>2012-07-28T13:26:31Z</time>
<speed>3.650000</speed>
<extensions>
<speed>3.7</speed>
<temp>0.00</temp>
<bpm>0</bpm>
<rpm>0.00</rpm>
</extensions>
</trkpt>
<trkpt lat="63.844940186" lon="-21.693935394">
<ele>11.805908</ele>
<time>2012-07-28T13:26:36Z</time>
<speed>3.790000</speed>
<extensions>
<speed>3.8</speed>
<temp>0.00</temp>
<bpm>0</bpm>
<rpm>0.00</rpm>
</extensions>
</trkpt>
<trkpt lat="63.845058441" lon="-21.694211960">
<ele>10.570801</ele>
<time>2012-07-28T13:26:41Z</time>
<speed>3.650000</speed>
<extensions>
<speed>3.7</speed>
<temp>0.00</temp>
<bpm>0</bpm>
<rpm>0.00</rpm>
</extensions>
</trkpt>
<trkpt lat="63.845157623" lon="-21.694478989">
<ele>11.494873</ele>
<time>2012-07-28T13:26:46Z</time>
<speed>3.210000</speed>
<extensions>
<speed>3.2</speed>
<temp>0.00</temp>
<bpm>0</bpm>
<rpm>0.00</rpm>
</extensions>
</trkpt>
<trkpt lat="63.845249176" lon="-21.694744110">
<ele>11.500000</ele>
<time>2012-07-28T13:26:51Z</time>
<speed>3.290000</speed>
<extensions>
<speed>3.3</speed>
<temp>0.00</temp>
<bpm>0</bpm>
<rpm>0.00</rpm>
</extensions>
</trkpt>
<trkpt lat="63.845348358" lon="-21.695020676">
<ele>10.248047</ele>
<time>2012-07-28T13:26:56Z</time>
<speed>3.780000</speed>
<extensions>
<speed>3.8</speed>
<temp>0.00</temp>
<bpm>0</bpm>
<rpm>0.00</rpm>
</extensions>
</trkpt>
<trkpt lat="63.845451355" lon="-21.695306778">
<ele>9.777588</ele>
<time>2012-07-28T13:27:01Z</time>
<speed>3.760000</speed>
<extensions>
<speed>3.8</speed>
<temp>0.00</temp>
<bpm>0</bpm>
<rpm>0.00</rpm>
</extensions>
</trkpt>
<trkpt lat="63.845550537" lon="-21.695610046">
<ele>10.428223</ele>
<time>2012-07-28T13:27:06Z</time>
<speed>4.020000</speed>
<extensions>
<speed>4.0</speed>
<temp>0.00</temp>
<bpm>0</bpm>
<rpm>0.00</rpm>
</extensions>
</trkpt>
<trkpt lat="63.845668793" lon="-21.695926666">
<ele>10.791260</ele>
<time>2012-07-28T13:27:11Z</time>
<speed>3.750000</speed>
<extensions>
<speed>3.8</speed>
<temp>0.00</temp>
<bpm>0</bpm>
<rpm>0.00</rpm>
</extensions>
</trkpt>
<trkpt lat="63.845764160" lon="-21.696220398">
<ele>8.321777</ele>
<time>2012-07-28T13:27:16Z</time>
<speed>3.790000</speed>
<extensions>
<speed>3.8</speed>
<temp>0.00</temp>
<bpm>0</bpm>
<rpm>0.00</rpm>
</extensions>
</trkpt>
<trkpt lat="63.845855713" lon="-21.696540833">
<ele>6.022339</ele>
<time>2012-07-28T13:27:21Z</time>
<speed>3.720000</speed>
<extensions>
<speed>3.7</speed>
<temp>0.00</temp>
<bpm>0</bpm>
<rpm>0.00</rpm>
</extensions>
</trkpt>
<trkpt lat="63.845973969" lon="-21.696838379">
<ele>4.148560</ele>
<time>2012-07-28T13:27:26Z</time>
<speed>4.040000</speed>
<extensions>
<speed>4.0</speed>
<temp>0.00</temp>
<bpm>0</bpm>
<rpm>0.00</rpm>
</extensions>
</trkpt>
<trkpt lat="63.846065521" lon="-21.697149277">
<ele>3.046631</ele>
<time>2012-07-28T13:27:31Z</time>
<speed>3.330000</speed>
<extensions>
<speed>3.3</speed>
<temp>0.00</temp>
<bpm>0</bpm>
<rpm>0.00</rpm>
</extensions>
</trkpt>
<trkpt lat="63.846187592" lon="-21.697448730">
<ele>3.816223</ele>
<time>2012-07-28T13:27:36Z</time>
<speed>4.090000</speed>
<extensions>
<speed>4.1</speed>
<temp>0.00</temp>
<bpm>0</bpm>
<rpm>0.00</rpm>
</extensions>
</trkpt>
<trkpt lat="63.846282959" lon="-21.697731018">
<ele>2.553345</ele>
<time>2012-07-28T13:27:41Z</time>
<speed>3.730000</speed>
<extensions>
<speed>3.7</speed>
<temp>0.00</temp>
<bpm>0</bpm>
<rpm>0.00</rpm>
</extensions>
</trkpt>
<trkpt lat="63.846378326" lon="-21.698019028">
<ele>1.641937</ele>
<time>2012-07-28T13:27:46Z</time>
<speed>3.320000</speed>
<extensions>
<speed>3.3</speed>
<temp>0.00</temp>
<bpm>0</bpm>
<rpm>0.00</rpm>
</extensions>
</trkpt>
<trkpt lat="63.846477509" lon="-21.698316574">
<ele>1.826904</ele>
<time>2012-07-28T13:27:51Z</time>
<speed>3.810000</speed>
<extensions>
<speed>3.8</speed>
<temp>0.00</temp>
<bpm>0</bpm>
<rpm>0.00</rpm>
</extensions>
</trkpt>
<trkpt lat="63.846584320" lon="-21.698604584">
<ele>4.124878</ele>
<time>2012-07-28T13:27:56Z</time>
<speed>3.240000</speed>
<extensions>
<speed>3.2</speed>
<temp>0.00</temp>
<bpm>0</bpm>
<rpm>0.00</rpm>
</extensions>
</trkpt>
<trkpt lat="63.846664429" lon="-21.698898315">
<ele>5.222778</ele>
<time>2012-07-28T13:28:01Z</time>
<speed>3.490000</speed>
<extensions>
<speed>3.5</speed>
<temp>0.00</temp>
<bpm>0</bpm>
<rpm>0.00</rpm>
</extensions>
</trkpt>
<trkpt lat="63.846744537" lon="-21.699148178">
<ele>4.651245</ele>
<time>2012-07-28T13:28:06Z</time>
<speed>2.970000</speed>
<extensions>
<speed>3.0</speed>
<temp>0.00</temp>
<bpm>0</bpm>
<rpm>0.00</rpm>
</extensions>
</trkpt>
<trkpt lat="63.846832275" lon="-21.699386597">
<ele>3.599243</ele>
<time>2012-07-28T13:28:11Z</time>
<speed>3.210000</speed>
<extensions>
<speed>3.2</speed>
<temp>0.00</temp>
<bpm>0</bpm>
<rpm>0.00</rpm>
</extensions>
</trkpt>
<trkpt lat="63.846916199" lon="-21.699666977">
<ele>3.681763</ele>
<time>2012-07-28T13:28:16Z</time>
<speed>3.130000</speed>
<extensions>
<speed>3.1</speed>
<temp>0.00</temp>
<bpm>0</bpm>
<rpm>0.00</rpm>
</extensions>
</trkpt>
<trkpt lat="63.846992493" lon="-21.699932098">
<ele>4.011719</ele>
<time>2012-07-28T13:28:21Z</time>
<speed>3.370000</speed>
<extensions>
<speed>3.4</speed>
<temp>0.00</temp>
<bpm>0</bpm>
<rpm>0.00</rpm>
</extensions>
</trkpt>
<trkpt lat="63.847080231" lon="-21.700195313">
<ele>3.061584</ele>
<time>2012-07-28T13:28:26Z</time>
<speed>3.230000</speed>
<extensions>
<speed>3.2</speed>
<temp>0.00</temp>
<bpm>0</bpm>
<rpm>0.00</rpm>
</extensions>
</trkpt>
<trkpt lat="63.847179413" lon="-21.700490952">
<ele>4.243408</ele>
<time>2012-07-28T13:28:31Z</time>
<speed>3.440000</speed>
<extensions>
<speed>3.4</speed>
<temp>0.00</temp>
<bpm>0</bpm>
<rpm>0.00</rpm>
</extensions>
</trkpt>
<trkpt lat="63.847270966" lon="-21.700773239">
<ele>3.247437</ele>
<time>2012-07-28T13:28:36Z</time>
<speed>3.640000</speed>
<extensions>
<speed>3.6</speed>
<temp>0.00</temp>
<bpm>0</bpm>
<rpm>0.00</rpm>
</extensions>
</trkpt>
<trkpt lat="63.847366333" lon="-21.701070786">
<ele>3.148010</ele>
<time>2012-07-28T13:28:41Z</time>
<speed>3.400000</speed>
<extensions>
<speed>3.4</speed>
<temp>0.00</temp>
<bpm>0</bpm>
<rpm>0.00</rpm>
</extensions>
</trkpt>
<trkpt lat="63.847461700" lon="-21.701351166">
<ele>2.163086</ele>
<time>2012-07-28T13:28:46Z</time>
<speed>3.490000</speed>
<extensions>
<speed>3.5</speed>
<temp>0.00</temp>
<bpm>0</bpm>
<rpm>0.00</rpm>
</extensions>
</trkpt>
<trkpt lat="63.847553253" lon="-21.701665878">
<ele>3.194641</ele>
<time>2012-07-28T13:28:51Z</time>
<speed>3.760000</speed>
<extensions>
<speed>3.8</speed>
<temp>0.00</temp>
<bpm>0</bpm>
<rpm>0.00</rpm>
</extensions>
</trkpt>
<trkpt lat="63.847652435" lon="-21.701953888">
<ele>2.649719</ele>
<time>2012-07-28T13:28:56Z</time>
<speed>3.590000</speed>
<extensions>
<speed>3.6</speed>
<temp>0.00</temp>
<bpm>0</bpm>
<rpm>0.00</rpm>
</extensions>
</trkpt>
<trkpt lat="63.847743988" lon="-21.702243805">
<ele>2.492371</ele>
<time>2012-07-28T13:29:01Z</time>
<speed>3.550000</speed>
<extensions>
<speed>3.5</speed>
<temp>0.00</temp>
<bpm>0</bpm>
<rpm>0.00</rpm>
</extensions>
</trkpt>
<trkpt lat="63.847843170" lon="-21.702543259">
<ele>2.997192</ele>
<time>2012-07-28T13:29:06Z</time>
<speed>3.420000</speed>
<extensions>
<speed>3.4</speed>
<temp>0.00</temp>
<bpm>0</bpm>
<rpm>0.00</rpm>
</extensions>
</trkpt>
<trkpt lat="63.847927094" lon="-21.702808380">
<ele>3.305786</ele>
<time>2012-07-28T13:29:11Z</time>
<speed>3.200000</speed>
<extensions>
<speed>3.2</speed>
<temp>0.00</temp>
<bpm>0</bpm>
<rpm>0.00</rpm>
</extensions>
</trkpt>
<trkpt lat="63.848003387" lon="-21.703077316">
<ele>3.429626</ele>
<time>2012-07-28T13:29:16Z</time>
<speed>3.030000</speed>
<extensions>
<speed>3.0</speed>
<temp>0.00</temp>
<bpm>0</bpm>
<rpm>0.00</rpm>
</extensions>
</trkpt>
<trkpt lat="63.848083496" lon="-21.703313828">
<ele>2.779053</ele>
<time>2012-07-28T13:29:21Z</time>
<speed>3.090000</speed>
<extensions>
<speed>3.1</speed>
<temp>0.00</temp>
<bpm>0</bpm>
<rpm>0.00</rpm>
</extensions>
</trkpt>
<trkpt lat="63.848159790" lon="-21.703565598">
<ele>3.017639</ele>
<time>2012-07-28T13:29:26Z</time>
<speed>3.200000</speed>
<extensions>
<speed>3.2</speed>
<temp>0.00</temp>
<bpm>0</bpm>
<rpm>0.00</rpm>
</extensions>
</trkpt>
<trkpt lat="63.848239899" lon="-21.703817368">
<ele>3.334290</ele>
<time>2012-07-28T13:29:31Z</time>
<speed>3.140000</speed>
<extensions>
<speed>3.1</speed>
<temp>0.00</temp>
<bpm>0</bpm>
<rpm>0.00</rpm>
</extensions>
</trkpt>
<trkpt lat="63.848323822" lon="-21.704103470">
<ele>3.125061</ele>
<time>2012-07-28T13:29:36Z</time>
<speed>3.540000</speed>
<extensions>
<speed>3.5</speed>
<temp>0.00</temp>
<bpm>0</bpm>
<rpm>0.00</rpm>
</extensions>
</trkpt>
<trkpt lat="63.848415375" lon="-21.704395294">
<ele>3.217224</ele>
<time>2012-07-28T13:29:41Z</time>
<speed>3.260000</speed>
<extensions>
<speed>3.3</speed>
<temp>0.00</temp>
<bpm>0</bpm>
<rpm>0.00</rpm>
</extensions>
</trkpt>
<trkpt lat="63.848506927" lon="-21.704681396">
<ele>3.212341</ele>
<time>2012-07-28T13:29:46Z</time>
<speed>3.480000</speed>
<extensions>
<speed>3.5</speed>
<temp>0.00</temp>
<bpm>0</bpm>
<rpm>0.00</rpm>
</extensions>
</trkpt>
<trkpt lat="63.848583221" lon="-21.704950333">
<ele>4.070313</ele>
<time>2012-07-28T13:29:51Z</time>
<speed>3.130000</speed>
<extensions>
<speed>3.1</speed>
<temp>0.00</temp>
<bpm>0</bpm>
<rpm>0.00</rpm>
</extensions>
</trkpt>
<trkpt lat="63.848659515" lon="-21.705184937">
<ele>3.752747</ele>
<time>2012-07-28T13:29:56Z</time>
<speed>3.210000</speed>
<extensions>
<speed>3.2</speed>
<temp>0.00</temp>
<bpm>0</bpm>
<rpm>0.00</rpm>
</extensions>
</trkpt>
<trkpt lat="63.848747253" lon="-21.705444336">
<ele>3.597595</ele>
<time>2012-07-28T13:30:01Z</time>
<speed>2.770000</speed>
<extensions>
<speed>2.8</speed>
<temp>0.00</temp>
<bpm>0</bpm>
<rpm>0.00</rpm>
</extensions>
</trkpt>
<trkpt lat="63.848815918" lon="-21.705677032">
<ele>4.254028</ele>
<time>2012-07-28T13:30:06Z</time>
<speed>3.160000</speed>
<extensions>
<speed>3.2</speed>
<temp>0.00</temp>
<bpm>0</bpm>
<rpm>0.00</rpm>
</extensions>
</trkpt>
<trkpt lat="63.848888397" lon="-21.705932617">
<ele>4.088623</ele>
<time>2012-07-28T13:30:11Z</time>
<speed>3.090000</speed>
<extensions>
<speed>3.1</speed>
<temp>0.00</temp>
<bpm>0</bpm>
<rpm>0.00</rpm>
</extensions>
</trkpt>
<trkpt lat="63.848957062" lon="-21.706172943">
<ele>4.372192</ele>
<time>2012-07-28T13:30:16Z</time>
<speed>2.800000</speed>
<extensions>
<speed>2.8</speed>
<temp>0.00</temp>
<bpm>0</bpm>
<rpm>0.00</rpm>
</extensions>
</trkpt>
<trkpt lat="63.849040985" lon="-21.706399918">
<ele>4.065918</ele>
<time>2012-07-28T13:30:21Z</time>
<speed>2.810000</speed>
<extensions>
<speed>2.8</speed>
<temp>0.00</temp>
<bpm>0</bpm>
<rpm>0.00</rpm>
</extensions>
</trkpt>
<trkpt lat="63.849113464" lon="-21.706644058">
<ele>4.253296</ele>
<time>2012-07-28T13:30:26Z</time>
<speed>2.880000</speed>
<extensions>
<speed>2.9</speed>
<temp>0.00</temp>
<bpm>0</bpm>
<rpm>0.00</rpm>
</extensions>
</trkpt>
<trkpt lat="63.849182129" lon="-21.706880569">
<ele>4.535034</ele>
<time>2012-07-28T13:30:31Z</time>
<speed>2.640000</speed>
<extensions>
<speed>2.6</speed>
<temp>0.00</temp>
<bpm>0</bpm>
<rpm>0.00</rpm>
</extensions>
</trkpt>
<trkpt lat="63.849258423" lon="-21.707099915">
<ele>4.686890</ele>
<time>2012-07-28T13:30:36Z</time>
<speed>2.610000</speed>
<extensions>
<speed>2.6</speed>
<temp>0.00</temp>
<bpm>0</bpm>
<rpm>0.00</rpm>
</extensions>
</trkpt>
<trkpt lat="63.849315643" lon="-21.707300186">
<ele>4.572144</ele>
<time>2012-07-28T13:30:41Z</time>
<speed>2.070000</speed>
<extensions>
<speed>2.1</speed>
<temp>0.00</temp>
<bpm>0</bpm>
<rpm>0.00</rpm>
</extensions>
</trkpt>
<trkpt lat="63.849384308" lon="-21.707489014">
<ele>5.478882</ele>
<time>2012-07-28T13:30:46Z</time>
<speed>2.370000</speed>
<extensions>
<speed>2.4</speed>
<temp>0.00</temp>
<bpm>0</bpm>
<rpm>0.00</rpm>
</extensions>
</trkpt>
<trkpt lat="63.849437714" lon="-21.707681656">
<ele>5.765381</ele>
<time>2012-07-28T13:30:51Z</time>
<speed>2.370000</speed>
<extensions>
<speed>2.4</speed>
<temp>0.00</temp>
<bpm>0</bpm>
<rpm>0.00</rpm>
</extensions>
</trkpt>
<trkpt lat="63.849494934" lon="-21.707876205">
<ele>5.542847</ele>
<time>2012-07-28T13:30:56Z</time>
<speed>2.470000</speed>
<extensions>
<speed>2.5</speed>
<temp>0.00</temp>
<bpm>0</bpm>
<rpm>0.00</rpm>
</extensions>
</trkpt>
<trkpt lat="63.849552155" lon="-21.708072662">
<ele>6.104858</ele>
<time>2012-07-28T13:31:01Z</time>
<speed>2.060000</speed>
<extensions>
<speed>2.1</speed>
<temp>0.00</temp>
<bpm>0</bpm>
<rpm>0.00</rpm>
</extensions>
</trkpt>
<trkpt lat="63.849613190" lon="-21.708238602">
<ele>6.125488</ele>
<time>2012-07-28T13:31:06Z</time>
<speed>2.290000</speed>
<extensions>
<speed>2.3</speed>
<temp>0.00</temp>
<bpm>0</bpm>
<rpm>0.00</rpm>
</extensions>
</trkpt>
<trkpt lat="63.849674225" lon="-21.708421707">
<ele>6.409546</ele>
<time>2012-07-28T13:31:11Z</time>
<speed>2.360000</speed>
<extensions>
<speed>2.4</speed>
<temp>0.00</temp>
<bpm>0</bpm>
<rpm>0.00</rpm>
</extensions>
</trkpt>
<trkpt lat="63.849731445" lon="-21.708604813">
<ele>6.781616</ele>
<time>2012-07-28T13:31:16Z</time>
<speed>2.210000</speed>
<extensions>
<speed>2.2</speed>
<temp>0.00</temp>
<bpm>0</bpm>
<rpm>0.00</rpm>
</extensions>
</trkpt>
<trkpt lat="63.849781036" lon="-21.708805084">
<ele>6.400635</ele>
<time>2012-07-28T13:31:21Z</time>
<speed>2.390000</speed>
<extensions>
<speed>2.4</speed>
<temp>0.00</temp>
<bpm>0</bpm>
<rpm>0.00</rpm>
</extensions>
</trkpt>
<trkpt lat="63.849864960" lon="-21.709009171">
<ele>6.521606</ele>
<time>2012-07-28T13:31:26Z</time>
<speed>2.570000</speed>
<extensions>
<speed>2.6</speed>
<temp>0.00</temp>
<bpm>0</bpm>
<rpm>0.00</rpm>
</extensions>
</trkpt>
<trkpt lat="63.849925995" lon="-21.709236145">
<ele>5.952515</ele>
<time>2012-07-28T13:31:31Z</time>
<speed>2.860000</speed>
<extensions>
<speed>2.9</speed>
<temp>0.00</temp>
<bpm>0</bpm>
<rpm>0.00</rpm>
</extensions>
</trkpt>
<trkpt lat="63.849998474" lon="-21.709470749">
<ele>4.869141</ele>
<time>2012-07-28T13:31:36Z</time>
<speed>3.070000</speed>
<extensions>
<speed>3.1</speed>
<temp>0.00</temp>
<bpm>0</bpm>
<rpm>0.00</rpm>
</extensions>
</trkpt>
<trkpt lat="63.850074768" lon="-21.709711075">
<ele>4.316650</ele>
<time>2012-07-28T13:31:41Z</time>
<speed>2.970000</speed>
<extensions>
<speed>3.0</speed>
<temp>0.00</temp>
<bpm>0</bpm>
<rpm>0.00</rpm>
</extensions>
</trkpt>
<trkpt lat="63.850154877" lon="-21.709945679">
<ele>4.234009</ele>
<time>2012-07-28T13:31:46Z</time>
<speed>2.790000</speed>
<extensions>
<speed>2.8</speed>
<temp>0.00</temp>
<bpm>0</bpm>
<rpm>0.00</rpm>
</extensions>
</trkpt>
<trkpt lat="63.850242615" lon="-21.710163116">
<ele>3.530945</ele>
<time>2012-07-28T13:31:51Z</time>
<speed>2.760000</speed>
<extensions>
<speed>2.8</speed>
<temp>0.00</temp>
<bpm>0</bpm>
<rpm>0.00</rpm>
</extensions>
</trkpt>
<trkpt lat="63.850322723" lon="-21.710390091">
<ele>2.780212</ele>
<time>2012-07-28T13:31:56Z</time>
<speed>2.820000</speed>
<extensions>
<speed>2.8</speed>
<temp>0.00</temp>
<bpm>0</bpm>
<rpm>0.00</rpm>
</extensions>
</trkpt>
<trkpt lat="63.850395203" lon="-21.710615158">
<ele>2.725342</ele>
<time>2012-07-28T13:32:01Z</time>
<speed>2.910000</speed>
<extensions>
<speed>2.9</speed>
<temp>0.00</temp>
<bpm>0</bpm>
<rpm>0.00</rpm>
</extensions>
</trkpt>
<trkpt lat="63.850475311" lon="-21.710836411">
<ele>3.640198</ele>
<time>2012-07-28T13:32:06Z</time>
<speed>2.820000</speed>
<extensions>
<speed>2.8</speed>
<temp>0.00</temp>
<bpm>0</bpm>
<rpm>0.00</rpm>
</extensions>
</trkpt>
<trkpt lat="63.850551605" lon="-21.711063385">
<ele>3.621216</ele>
<time>2012-07-28T13:32:11Z</time>
<speed>2.640000</speed>
<extensions>
<speed>2.6</speed>
<temp>0.00</temp>
<bpm>0</bpm>
<rpm>0.00</rpm>
</extensions>
</trkpt>
<trkpt lat="63.850627899" lon="-21.711278915">
<ele>4.458374</ele>
<time>2012-07-28T13:32:16Z</time>
<speed>2.670000</speed>
<extensions>
<speed>2.7</speed>
<temp>0.00</temp>
<bpm>0</bpm>
<rpm>0.00</rpm>
</extensions>
</trkpt>
<trkpt lat="63.850708008" lon="-21.711511612">
<ele>5.281494</ele>
<time>2012-07-28T13:32:21Z</time>
<speed>2.520000</speed>
<extensions>
<speed>2.5</speed>
<temp>0.00</temp>
<bpm>0</bpm>
<rpm>0.00</rpm>
</extensions>
</trkpt>
<trkpt lat="63.850788116" lon="-21.711732864">
<ele>5.498901</ele>
<time>2012-07-28T13:32:26Z</time>
<speed>2.810000</speed>
<extensions>
<speed>2.8</speed>
<temp>0.00</temp>
<bpm>0</bpm>
<rpm>0.00</rpm>
</extensions>
</trkpt>
<trkpt lat="63.850872040" lon="-21.711971283">
<ele>5.547852</ele>
<time>2012-07-28T13:32:31Z</time>
<speed>3.110000</speed>
<extensions>
<speed>3.1</speed>
<temp>0.00</temp>
<bpm>0</bpm>
<rpm>0.00</rpm>
</extensions>
</trkpt>
<trkpt lat="63.850963593" lon="-21.712196350">
<ele>5.048462</ele>
<time>2012-07-28T13:32:36Z</time>
<speed>3.050000</speed>
<extensions>
<speed>3.0</speed>
<temp>0.00</temp>
<bpm>0</bpm>
<rpm>0.00</rpm>
</extensions>
</trkpt>
<trkpt lat="63.851043701" lon="-21.712423325">
<ele>5.270996</ele>
<time>2012-07-28T13:32:41Z</time>
<speed>2.730000</speed>
<extensions>
<speed>2.7</speed>
<temp>0.00</temp>
<bpm>0</bpm>
<rpm>0.00</rpm>
</extensions>
</trkpt>
<trkpt lat="63.851119995" lon="-21.712636948">
<ele>4.984619</ele>
<time>2012-07-28T13:32:46Z</time>
<speed>2.750000</speed>
<extensions>
<speed>2.7</speed>
<temp>0.00</temp>
<bpm>0</bpm>
<rpm>0.00</rpm>
</extensions>
</trkpt>
<trkpt lat="63.851196289" lon="-21.712837219">
<ele>4.716309</ele>
<time>2012-07-28T13:32:51Z</time>
<speed>2.660000</speed>
<extensions>
<speed>2.7</speed>
<temp>0.00</temp>
<bpm>0</bpm>
<rpm>0.00</rpm>
</extensions>
</trkpt>
<trkpt lat="63.851272583" lon="-21.713045120">
<ele>4.726318</ele>
<time>2012-07-28T13:32:56Z</time>
<speed>2.640000</speed>
<extensions>
<speed>2.6</speed>
<temp>0.00</temp>
<bpm>0</bpm>
<rpm>0.00</rpm>
</extensions>
</trkpt>
<trkpt lat="63.851348877" lon="-21.713258743">
<ele>5.072388</ele>
<time>2012-07-28T13:33:01Z</time>
<speed>2.780000</speed>
<extensions>
<speed>2.8</speed>
<temp>0.00</temp>
<bpm>0</bpm>
<rpm>0.00</rpm>
</extensions>
</trkpt>
<trkpt lat="63.851428986" lon="-21.713438034">
<ele>5.281738</ele>
<time>2012-07-28T13:33:06Z</time>
<speed>2.650000</speed>
<extensions>
<speed>2.6</speed>
<temp>0.00</temp>
<bpm>0</bpm>
<rpm>0.00</rpm>
</extensions>
</trkpt>
<trkpt lat="63.851497650" lon="-21.713638306">
<ele>5.850952</ele>
<time>2012-07-28T13:33:11Z</time>
<speed>2.560000</speed>
<extensions>
<speed>2.6</speed>
<temp>0.00</temp>
<bpm>0</bpm>
<rpm>0.00</rpm>
</extensions>
</trkpt>
<trkpt lat="63.851577759" lon="-21.713832855">
<ele>5.821167</ele>
<time>2012-07-28T13:33:16Z</time>
<speed>2.790000</speed>
<extensions>
<speed>2.8</speed>
<temp>0.00</temp>
<bpm>0</bpm>
<rpm>0.00</rpm>
</extensions>
</trkpt>
<trkpt lat="63.851661682" lon="-21.714042664">
<ele>5.791016</ele>
<time>2012-07-28T13:33:21Z</time>
<speed>2.700000</speed>
<extensions>
<speed>2.7</speed>
<temp>0.00</temp>
<bpm>0</bpm>
<rpm>0.00</rpm>
</extensions>
</trkpt>
<trkpt lat="63.851734161" lon="-21.714246750">
<ele>5.531372</ele>
<time>2012-07-28T13:33:26Z</time>
<speed>2.790000</speed>
<extensions>
<speed>2.8</speed>
<temp>0.00</temp>
<bpm>0</bpm>
<rpm>0.00</rpm>
</extensions>
</trkpt>
<trkpt lat="63.851821899" lon="-21.714464188">
<ele>5.439209</ele>
<time>2012-07-28T13:33:31Z</time>
<speed>2.680000</speed>
<extensions>
<speed>2.7</speed>
<temp>0.00</temp>
<bpm>0</bpm>
<rpm>0.00</rpm>
</extensions>
</trkpt>
<trkpt lat="63.851898193" lon="-21.714653015">
<ele>4.976563</ele>
<time>2012-07-28T13:33:36Z</time>
<speed>2.630000</speed>
<extensions>
<speed>2.6</speed>
<temp>0.00</temp>
<bpm>0</bpm>
<rpm>0.00</rpm>
</extensions>
</trkpt>
<trkpt lat="63.851970673" lon="-21.714847565">
<ele>5.647461</ele>
<time>2012-07-28T13:33:41Z</time>
<speed>2.500000</speed>
<extensions>
<speed>2.5</speed>
<temp>0.00</temp>
<bpm>0</bpm>
<rpm>0.00</rpm>
</extensions>
</trkpt>
<trkpt lat="63.852046967" lon="-21.715059280">
<ele>6.112183</ele>
<time>2012-07-28T13:33:46Z</time>
<speed>2.470000</speed>
<extensions>
<speed>2.5</speed>
<temp>0.00</temp>
<bpm>0</bpm>
<rpm>0.00</rpm>
</extensions>
</trkpt>
<trkpt lat="63.852134705" lon="-21.715263367">
<ele>5.931519</ele>
<time>2012-07-28T13:33:51Z</time>
<speed>2.770000</speed>
<extensions>
<speed>2.8</speed>
<temp>0.00</temp>
<bpm>0</bpm>
<rpm>0.00</rpm>
</extensions>
</trkpt>
<trkpt lat="63.852218628" lon="-21.715476990">
<ele>5.926025</ele>
<time>2012-07-28T13:33:56Z</time>
<speed>2.970000</speed>
<extensions>
<speed>3.0</speed>
<temp>0.00</temp>
<bpm>0</bpm>
<rpm>0.00</rpm>
</extensions>
</trkpt>
<trkpt lat="63.852313995" lon="-21.715703964">
<ele>5.253052</ele>
<time>2012-07-28T13:34:01Z</time>
<speed>2.970000</speed>
<extensions>
<speed>3.0</speed>
<temp>0.00</temp>
<bpm>0</bpm>
<rpm>0.00</rpm>
</extensions>
</trkpt>
<trkpt lat="63.852401733" lon="-21.715936661">
<ele>4.376831</ele>
<time>2012-07-28T13:34:06Z</time>
<speed>3.010000</speed>
<extensions>
<speed>3.0</speed>
<temp>0.00</temp>
<bpm>0</bpm>
<rpm>0.00</rpm>
</extensions>
</trkpt>
<trkpt lat="63.852497101" lon="-21.716138840">
<ele>4.264893</ele>
<time>2012-07-28T13:34:11Z</time>
<speed>2.600000</speed>
<extensions>
<speed>2.6</speed>
<temp>0.00</temp>
<bpm>0</bpm>
<rpm>0.00</rpm>
</extensions>
</trkpt>
<trkpt lat="63.852592468" lon="-21.716358185">
<ele>4.075562</ele>
<time>2012-07-28T13:34:16Z</time>
<speed>3.180000</speed>
<extensions>
<speed>3.2</speed>
<temp>0.00</temp>
<bpm>0</bpm>
<rpm>0.00</rpm>
</extensions>
</trkpt>
<trkpt lat="63.852687836" lon="-21.716590881">
<ele>4.398315</ele>
<time>2012-07-28T13:34:21Z</time>
<speed>3.060000</speed>
<extensions>
<speed>3.1</speed>
<temp>0.00</temp>
<bpm>0</bpm>
<rpm>0.00</rpm>
</extensions>
</trkpt>
<trkpt lat="63.852783203" lon="-21.716823578">
<ele>4.457642</ele>
<time>2012-07-28T13:34:26Z</time>
<speed>3.210000</speed>
<extensions>
<speed>3.2</speed>
<temp>0.00</temp>
<bpm>0</bpm>
<rpm>0.00</rpm>
</extensions>
</trkpt>
<trkpt lat="63.852874756" lon="-21.717067719">
<ele>4.914429</ele>
<time>2012-07-28T13:34:31Z</time>
<speed>3.210000</speed>
<extensions>
<speed>3.2</speed>
<temp>0.00</temp>
<bpm>0</bpm>
<rpm>0.00</rpm>
</extensions>
</trkpt>
<trkpt lat="63.852973938" lon="-21.717309952">
<ele>4.834595</ele>
<time>2012-07-28T13:34:36Z</time>
<speed>3.120000</speed>
<extensions>
<speed>3.1</speed>
<temp>0.00</temp>
<bpm>0</bpm>
<rpm>0.00</rpm>
</extensions>
</trkpt>
<trkpt lat="63.853073120" lon="-21.717544556">
<ele>4.637939</ele>
<time>2012-07-28T13:34:41Z</time>
<speed>3.230000</speed>
<extensions>
<speed>3.2</speed>
<temp>0.00</temp>
<bpm>0</bpm>
<rpm>0.00</rpm>
</extensions>
</trkpt>
<trkpt lat="63.853179932" lon="-21.717775345">
<ele>4.557983</ele>
<time>2012-07-28T13:34:46Z</time>
<speed>3.140000</speed>
<extensions>
<speed>3.1</speed>
<temp>0.00</temp>
<bpm>0</bpm>
<rpm>0.00</rpm>
</extensions>
</trkpt>
<trkpt lat="63.853275299" lon="-21.717981339">
<ele>4.078735</ele>
<time>2012-07-28T13:34:51Z</time>
<speed>2.970000</speed>
<extensions>
<speed>3.0</speed>
<temp>0.00</temp>
<bpm>0</bpm>
<rpm>0.00</rpm>
</extensions>
</trkpt>
<trkpt lat="63.853374481" lon="-21.718204498">
<ele>4.396240</ele>
<time>2012-07-28T13:34:56Z</time>
<speed>3.080000</speed>
<extensions>
<speed>3.1</speed>
<temp>0.00</temp>
<bpm>0</bpm>
<rpm>0.00</rpm>
</extensions>
</trkpt>
<trkpt lat="63.853473663" lon="-21.718414307">
<ele>4.428101</ele>
<time>2012-07-28T13:35:01Z</time>
<speed>3.110000</speed>
<extensions>
<speed>3.1</speed>
<temp>0.00</temp>
<bpm>0</bpm>
<rpm>0.00</rpm>
</extensions>
</trkpt>
<trkpt lat="63.853576660" lon="-21.718626022">
<ele>2.710449</ele>
<time>2012-07-28T13:35:06Z</time>
<speed>3.100000</speed>
<extensions>
<speed>3.1</speed>
<temp>0.00</temp>
<bpm>0</bpm>
<rpm>0.00</rpm>
</extensions>
</trkpt>
<trkpt lat="63.853668213" lon="-21.718851089">
<ele>3.576233</ele>
<time>2012-07-28T13:35:11Z</time>
<speed>2.880000</speed>
<extensions>
<speed>2.9</speed>
<temp>0.00</temp>
<bpm>0</bpm>
<rpm>0.00</rpm>
</extensions>
</trkpt>
<trkpt lat="63.853755951" lon="-21.719058990">
<ele>3.180969</ele>
<time>2012-07-28T13:35:16Z</time>
<speed>2.960000</speed>
<extensions>
<speed>3.0</speed>
<temp>0.00</temp>
<bpm>0</bpm>
<rpm>0.00</rpm>
</extensions>
</trkpt>
<trkpt lat="63.853858948" lon="-21.719259262">
<ele>3.307922</ele>
<time>2012-07-28T13:35:21Z</time>
<speed>3.050000</speed>
<extensions>
<speed>3.0</speed>
<temp>0.00</temp>
<bpm>0</bpm>
<rpm>0.00</rpm>
</extensions>
</trkpt>
<trkpt lat="63.853950500" lon="-21.719474792">
<ele>4.146729</ele>
<time>2012-07-28T13:35:26Z</time>
<speed>2.940000</speed>
<extensions>
<speed>2.9</speed>
<temp>0.00</temp>
<bpm>0</bpm>
<rpm>0.00</rpm>
</extensions>
</trkpt>
<trkpt lat="63.854049683" lon="-21.719692230">
<ele>4.246460</ele>
<time>2012-07-28T13:35:31Z</time>
<speed>2.920000</speed>
<extensions>
<speed>2.9</speed>
<temp>0.00</temp>
<bpm>0</bpm>
<rpm>0.00</rpm>
</extensions>
</trkpt>
<trkpt lat="63.854152679" lon="-21.719907761">
<ele>5.467651</ele>
<time>2012-07-28T13:35:36Z</time>
<speed>2.980000</speed>
<extensions>
<speed>3.0</speed>
<temp>0.00</temp>
<bpm>0</bpm>
<rpm>0.00</rpm>
</extensions>
</trkpt>
<trkpt lat="63.854248047" lon="-21.720088959">
<ele>6.198486</ele>
<time>2012-07-28T13:35:41Z</time>
<speed>2.770000</speed>
<extensions>
<speed>2.8</speed>
<temp>0.00</temp>
<bpm>0</bpm>
<rpm>0.00</rpm>
</extensions>
</trkpt>
<trkpt lat="63.854335785" lon="-21.720266342">
<ele>6.118408</ele>
<time>2012-07-28T13:35:46Z</time>
<speed>2.430000</speed>
<extensions>
<speed>2.4</speed>
<temp>0.00</temp>
<bpm>0</bpm>
<rpm>0.00</rpm>
</extensions>
</trkpt>
<trkpt lat="63.854419708" lon="-21.720428467">
<ele>5.958862</ele>
<time>2012-07-28T13:35:51Z</time>
<speed>2.110000</speed>
<extensions>
<speed>2.1</speed>
<temp>0.00</temp>
<bpm>0</bpm>
<rpm>0.00</rpm>
</extensions>
</trkpt>
<trkpt lat="63.854446411" lon="-21.720497131">
<ele>6.165283</ele>
<time>2012-07-28T13:35:56Z</time>
<speed>0.940000</speed>
<extensions>
<speed>0.9</speed>
<temp>0.00</temp>
<bpm>0</bpm>
<rpm>0.00</rpm>
</extensions>
</trkpt>
<trkpt lat="63.854488373" lon="-21.720592499">
<ele>5.817139</ele>
<time>2012-07-28T13:36:01Z</time>
<speed>2.200000</speed>
<extensions>
<speed>2.2</speed>
<temp>0.00</temp>
<bpm>0</bpm>
<rpm>0.00</rpm>
</extensions>
</trkpt>
<trkpt lat="63.854549408" lon="-21.720726013">
<ele>6.346558</ele>
<time>2012-07-28T13:36:06Z</time>
<speed>1.600000</speed>
<extensions>
<speed>1.6</speed>
<temp>0.00</temp>
<bpm>0</bpm>
<rpm>0.00</rpm>
</extensions>
</trkpt>
<trkpt lat="63.854621887" lon="-21.720849991">
<ele>6.152344</ele>
<time>2012-07-28T13:36:11Z</time>
<speed>2.280000</speed>
<extensions>
<speed>2.3</speed>
<temp>0.00</temp>
<bpm>0</bpm>
<rpm>0.00</rpm>
</extensions>
</trkpt>
<trkpt lat="63.854705811" lon="-21.721040726">
<ele>6.500732</ele>
<time>2012-07-28T13:36:16Z</time>
<speed>2.870000</speed>
<extensions>
<speed>2.9</speed>
<temp>0.00</temp>
<bpm>0</bpm>
<rpm>0.00</rpm>
</extensions>
</trkpt>
<trkpt lat="63.854804993" lon="-21.721231461">
<ele>7.131714</ele>
<time>2012-07-28T13:36:21Z</time>
<speed>3.050000</speed>
<extensions>
<speed>3.0</speed>
<temp>0.00</temp>
<bpm>0</bpm>
<rpm>0.00</rpm>
</extensions>
</trkpt>
<trkpt lat="63.854911804" lon="-21.721445084">
<ele>6.596191</ele>
<time>2012-07-28T13:36:26Z</time>
<speed>3.320000</speed>
<extensions>
<speed>3.3</speed>
<temp>0.00</temp>
<bpm>0</bpm>
<rpm>0.00</rpm>
</extensions>
</trkpt>
<trkpt lat="63.855018616" lon="-21.721668243">
<ele>6.632080</ele>
<time>2012-07-28T13:36:31Z</time>
<speed>3.390000</speed>
<extensions>
<speed>3.4</speed>
<temp>0.00</temp>
<bpm>0</bpm>
<rpm>0.00</rpm>
</extensions>
</trkpt>
<trkpt lat="63.855121613" lon="-21.721853256">
<ele>6.691772</ele>
<time>2012-07-28T13:36:36Z</time>
<speed>2.120000</speed>
<extensions>
<speed>2.1</speed>
<temp>0.00</temp>
<bpm>0</bpm>
<rpm>0.00</rpm>
</extensions>
</trkpt>
<trkpt lat="63.855205536" lon="-21.722015381">
<ele>7.109253</ele>
<time>2012-07-28T13:36:41Z</time>
<speed>2.920000</speed>
<extensions>
<speed>2.9</speed>
<temp>0.00</temp>
<bpm>0</bpm>
<rpm>0.00</rpm>
</extensions>
</trkpt>
<trkpt lat="63.855308533" lon="-21.722213745">
<ele>6.954346</ele>
<time>2012-07-28T13:36:46Z</time>
<speed>3.090000</speed>
<extensions>
<speed>3.1</speed>
<temp>0.00</temp>
<bpm>0</bpm>
<rpm>0.00</rpm>
</extensions>
</trkpt>
<trkpt lat="63.855388641" lon="-21.722379684">
<ele>6.867188</ele>
<time>2012-07-28T13:36:51Z</time>
<speed>2.270000</speed>
<extensions>
<speed>2.3</speed>
<temp>0.00</temp>
<bpm>0</bpm>
<rpm>0.00</rpm>
</extensions>
</trkpt>
<trkpt lat="63.855491638" lon="-21.722560883">
<ele>6.767212</ele>
<time>2012-07-28T13:36:56Z</time>
<speed>3.140000</speed>
<extensions>
<speed>3.1</speed>
<temp>0.00</temp>
<bpm>0</bpm>
<rpm>0.00</rpm>
</extensions>
</trkpt>
<trkpt lat="63.855590820" lon="-21.722755432">
<ele>6.385742</ele>
<time>2012-07-28T13:37:01Z</time>
<speed>2.980000</speed>
<extensions>
<speed>3.0</speed>
<temp>0.00</temp>
<bpm>0</bpm>
<rpm>0.00</rpm>
</extensions>
</trkpt>
<trkpt lat="63.855690002" lon="-21.722949982">
<ele>7.398560</ele>
<time>2012-07-28T13:37:06Z</time>
<speed>2.230000</speed>
<extensions>
<speed>2.2</speed>
<temp>0.00</temp>
<bpm>0</bpm>
<rpm>0.00</rpm>
</extensions>
</trkpt>
<trkpt lat="63.855781555" lon="-21.723136902">
<ele>7.468262</ele>
<time>2012-07-28T13:37:11Z</time>
<speed>2.450000</speed>
<extensions>
<speed>2.4</speed>
<temp>0.00</temp>
<bpm>0</bpm>
<rpm>0.00</rpm>
</extensions>
</trkpt>
<trkpt lat="63.855873108" lon="-21.723312378">
<ele>7.215820</ele>
<time>2012-07-28T13:37:16Z</time>
<speed>2.730000</speed>
<extensions>
<speed>2.7</speed>
<temp>0.00</temp>
<bpm>0</bpm>
<rpm>0.00</rpm>
</extensions>
</trkpt>
<trkpt lat="63.855960846" lon="-21.723493576">
<ele>7.224609</ele>
<time>2012-07-28T13:37:21Z</time>
<speed>2.320000</speed>
<extensions>
<speed>2.3</speed>
<temp>0.00</temp>
<bpm>0</bpm>
<rpm>0.00</rpm>
</extensions>
</trkpt>
<trkpt lat="63.856060028" lon="-21.723680496">
<ele>7.204468</ele>
<time>2012-07-28T13:37:26Z</time>
<speed>2.950000</speed>
<extensions>
<speed>2.9</speed>
<temp>0.00</temp>
<bpm>0</bpm>
<rpm>0.00</rpm>
</extensions>
</trkpt>
<trkpt lat="63.856163025" lon="-21.723854065">
<ele>6.993652</ele>
<time>2012-07-28T13:37:31Z</time>
<speed>3.260000</speed>
<extensions>
<speed>3.3</speed>
<temp>0.00</temp>
<bpm>0</bpm>
<rpm>0.00</rpm>
</extensions>
</trkpt>
<trkpt lat="63.856269836" lon="-21.724040985">
<ele>7.377686</ele>
<time>2012-07-28T13:37:36Z</time>
<speed>2.820000</speed>
<extensions>
<speed>2.8</speed>
<temp>0.00</temp>
<bpm>0</bpm>
<rpm>0.00</rpm>
</extensions>
</trkpt>
<trkpt lat="63.856380463" lon="-21.724227905">
<ele>7.415649</ele>
<time>2012-07-28T13:37:41Z</time>
<speed>3.220000</speed>
<extensions>
<speed>3.2</speed>
<temp>0.00</temp>
<bpm>0</bpm>
<rpm>0.00</rpm>
</extensions>
</trkpt>
<trkpt lat="63.856483459" lon="-21.724426270">
<ele>7.319214</ele>
<time>2012-07-28T13:37:46Z</time>
<speed>2.870000</speed>
<extensions>
<speed>2.9</speed>
<temp>0.00</temp>
<bpm>0</bpm>
<rpm>0.00</rpm>
</extensions>
</trkpt>
<trkpt lat="63.856582642" lon="-21.724590302">
<ele>7.834717</ele>
<time>2012-07-28T13:37:51Z</time>
<speed>2.760000</speed>
<extensions>
<speed>2.8</speed>
<temp>0.00</temp>
<bpm>0</bpm>
<rpm>0.00</rpm>
</extensions>
</trkpt>
<trkpt lat="63.856670380" lon="-21.724752426">
<ele>8.108398</ele>
<time>2012-07-28T13:37:56Z</time>
<speed>2.770000</speed>
<extensions>
<speed>2.8</speed>
<temp>0.00</temp>
<bpm>0</bpm>
<rpm>0.00</rpm>
</extensions>
</trkpt>
<trkpt lat="63.856777191" lon="-21.724933624">
<ele>7.608398</ele>
<time>2012-07-28T13:38:01Z</time>
<speed>3.080000</speed>
<extensions>
<speed>3.1</speed>
<temp>0.00</temp>
<bpm>0</bpm>
<rpm>0.00</rpm>
</extensions>
</trkpt>
<trkpt lat="63.856864929" lon="-21.725084305">
<ele>7.158936</ele>
<time>2012-07-28T13:38:06Z</time>
<speed>2.250000</speed>
<extensions>
<speed>2.3</speed>
<temp>0.00</temp>
<bpm>0</bpm>
<rpm>0.00</rpm>
</extensions>
</trkpt>
<trkpt lat="63.856960297" lon="-21.725234985">
<ele>6.464966</ele>
<time>2012-07-28T13:38:11Z</time>
<speed>2.830000</speed>
<extensions>
<speed>2.8</speed>
<temp>0.00</temp>
<bpm>0</bpm>
<rpm>0.00</rpm>
</extensions>
</trkpt>
<trkpt lat="63.857055664" lon="-21.725395203">
<ele>6.446777</ele>
<time>2012-07-28T13:38:16Z</time>
<speed>2.390000</speed>
<extensions>
<speed>2.4</speed>
<temp>0.00</temp>
<bpm>0</bpm>
<rpm>0.00</rpm>
</extensions>
</trkpt>
<trkpt lat="63.857139587" lon="-21.725542068">
<ele>6.405151</ele>
<time>2012-07-28T13:38:21Z</time>
<speed>2.150000</speed>
<extensions>
<speed>2.1</speed>
<temp>0.00</temp>
<bpm>0</bpm>
<rpm>0.00</rpm>
</extensions>
</trkpt>
<trkpt lat="63.857204437" lon="-21.725662231">
<ele>6.037476</ele>
<time>2012-07-28T13:38:26Z</time>
<speed>2.130000</speed>
<extensions>
<speed>2.1</speed>
<temp>0.00</temp>
<bpm>0</bpm>
<rpm>0.00</rpm>
</extensions>
</trkpt>
<trkpt lat="63.857292175" lon="-21.725801468">
<ele>5.833130</ele>
<time>2012-07-28T13:38:31Z</time>
<speed>2.370000</speed>
<extensions>
<speed>2.4</speed>
<temp>0.00</temp>
<bpm>0</bpm>
<rpm>0.00</rpm>
</extensions>
</trkpt>
<trkpt lat="63.857364655" lon="-21.725938797">
<ele>5.306885</ele>
<time>2012-07-28T13:38:36Z</time>
<speed>1.960000</speed>
<extensions>
<speed>2.0</speed>
<temp>0.00</temp>
<bpm>0</bpm>
<rpm>0.00</rpm>
</extensions>
</trkpt>
<trkpt lat="63.857437134" lon="-21.726053238">
<ele>5.386108</ele>
<time>2012-07-28T13:38:41Z</time>
<speed>2.490000</speed>
<extensions>
<speed>2.5</speed>
<temp>0.00</temp>
<bpm>0</bpm>
<rpm>0.00</rpm>
</extensions>
</trkpt>
<trkpt lat="63.857517242" lon="-21.726200104">
<ele>5.648804</ele>
<time>2012-07-28T13:38:46Z</time>
<speed>2.390000</speed>
<extensions>
<speed>2.4</speed>
<temp>0.00</temp>
<bpm>0</bpm>
<rpm>0.00</rpm>
</extensions>
</trkpt>
<trkpt lat="63.857601166" lon="-21.726331711">
<ele>5.518921</ele>
<time>2012-07-28T13:38:51Z</time>
<speed>2.260000</speed>
<extensions>
<speed>2.3</speed>
<temp>0.00</temp>
<bpm>0</bpm>
<rpm>0.00</rpm>
</extensions>
</trkpt>
<trkpt lat="63.857688904" lon="-21.726470947">
<ele>5.746704</ele>
<time>2012-07-28T13:38:56Z</time>
<speed>2.610000</speed>
<extensions>
<speed>2.6</speed>
<temp>0.00</temp>
<bpm>0</bpm>
<rpm>0.00</rpm>
</extensions>
</trkpt>
<trkpt lat="63.857776642" lon="-21.726608276">
<ele>5.325439</ele>
<time>2012-07-28T13:39:01Z</time>
<speed>1.710000</speed>
<extensions>
<speed>1.7</speed>
<temp>0.00</temp>
<bpm>0</bpm>
<rpm>0.00</rpm>
</extensions>
</trkpt>
<trkpt lat="63.857833862" lon="-21.726709366">
<ele>5.240234</ele>
<time>2012-07-28T13:39:06Z</time>
<speed>2.280000</speed>
<extensions>
<speed>2.3</speed>
<temp>0.00</temp>
<bpm>0</bpm>
<rpm>0.00</rpm>
</extensions>
</trkpt>
<trkpt lat="63.857936859" lon="-21.726886749">
<ele>4.929810</ele>
<time>2012-07-28T13:39:11Z</time>
<speed>2.830000</speed>
<extensions>
<speed>2.8</speed>
<temp>0.00</temp>
<bpm>0</bpm>
<rpm>0.00</rpm>
</extensions>
</trkpt>
<trkpt lat="63.858036041" lon="-21.727054596">
<ele>4.308838</ele>
<time>2012-07-28T13:39:16Z</time>
<speed>2.920000</speed>
<extensions>
<speed>2.9</speed>
<temp>0.00</temp>
<bpm>0</bpm>
<rpm>0.00</rpm>
</extensions>
</trkpt>
<trkpt lat="63.858116150" lon="-21.727182388">
<ele>3.940002</ele>
<time>2012-07-28T13:39:21Z</time>
<speed>2.500000</speed>
<extensions>
<speed>2.5</speed>
<temp>0.00</temp>
<bpm>0</bpm>
<rpm>0.00</rpm>
</extensions>
</trkpt>
<trkpt lat="63.858219147" lon="-21.727350235">
<ele>4.792725</ele>
<time>2012-07-28T13:39:26Z</time>
<speed>2.610000</speed>
<extensions>
<speed>2.6</speed>
<temp>0.00</temp>
<bpm>0</bpm>
<rpm>0.00</rpm>
</extensions>
</trkpt>
<trkpt lat="63.858333588" lon="-21.727514267">
<ele>4.477661</ele>
<time>2012-07-28T13:39:31Z</time>
<speed>2.970000</speed>
<extensions>
<speed>3.0</speed>
<temp>0.00</temp>
<bpm>0</bpm>
<rpm>0.00</rpm>
</extensions>
</trkpt>
<trkpt lat="63.858448029" lon="-21.727693558">
<ele>4.389771</ele>
<time>2012-07-28T13:39:36Z</time>
<speed>3.310000</speed>
<extensions>
<speed>3.3</speed>
<temp>0.00</temp>
<bpm>0</bpm>
<rpm>0.00</rpm>
</extensions>
</trkpt>
<trkpt lat="63.858562469" lon="-21.727876663">
<ele>4.417480</ele>
<time>2012-07-28T13:39:41Z</time>
<speed>3.010000</speed>
<extensions>
<speed>3.0</speed>
<temp>0.00</temp>
<bpm>0</bpm>
<rpm>0.00</rpm>
</extensions>
</trkpt>
<trkpt lat="63.858650208" lon="-21.728031158">
<ele>4.279907</ele>
<time>2012-07-28T13:39:46Z</time>
<speed>2.230000</speed>
<extensions>
<speed>2.2</speed>
<temp>0.00</temp>
<bpm>0</bpm>
<rpm>0.00</rpm>
</extensions>
</trkpt>
<trkpt lat="63.858734131" lon="-21.728157043">
<ele>3.433167</ele>
<time>2012-07-28T13:39:51Z</time>
<speed>2.170000</speed>
<extensions>
<speed>2.2</speed>
<temp>0.00</temp>
<bpm>0</bpm>
<rpm>0.00</rpm>
</extensions>
</trkpt>
<trkpt lat="63.858818054" lon="-21.728271484">
<ele>3.271790</ele>
<time>2012-07-28T13:39:56Z</time>
<speed>2.370000</speed>
<extensions>
<speed>2.4</speed>
<temp>0.00</temp>
<bpm>0</bpm>
<rpm>0.00</rpm>
</extensions>
</trkpt>
<trkpt lat="63.858921051" lon="-21.728406906">
<ele>3.269043</ele>
<time>2012-07-28T13:40:01Z</time>
<speed>2.480000</speed>
<extensions>
<speed>2.5</speed>
<temp>0.00</temp>
<bpm>0</bpm>
<rpm>0.00</rpm>
</extensions>
</trkpt>
<trkpt lat="63.859012604" lon="-21.728534698">
<ele>1.901154</ele>
<time>2012-07-28T13:40:06Z</time>
<speed>2.400000</speed>
<extensions>
<speed>2.4</speed>
<temp>0.00</temp>
<bpm>0</bpm>
<rpm>0.00</rpm>
</extensions>
</trkpt>
<trkpt lat="63.859107971" lon="-21.728677750">
<ele>1.481476</ele>
<time>2012-07-28T13:40:11Z</time>
<speed>2.450000</speed>
<extensions>
<speed>2.4</speed>
<temp>0.00</temp>
<bpm>0</bpm>
<rpm>0.00</rpm>
</extensions>
</trkpt>
<trkpt lat="63.859169006" lon="-21.728767395">
<ele>2.567749</ele>
<time>2012-07-28T13:40:16Z</time>
<speed>1.240000</speed>
<extensions>
<speed>1.2</speed>
<temp>0.00</temp>
<bpm>0</bpm>
<rpm>0.00</rpm>
</extensions>
</trkpt>
<trkpt lat="63.859207153" lon="-21.728813171">
<ele>2.664978</ele>
<time>2012-07-28T13:40:21Z</time>
<speed>0.440000</speed>
<extensions>
<speed>0.4</speed>
<temp>0.00</temp>
<bpm>0</bpm>
<rpm>0.00</rpm>
</extensions>
</trkpt>
<trkpt lat="63.859237671" lon="-21.728860855">
<ele>2.622620</ele>
<time>2012-07-28T13:40:26Z</time>
<speed>2.000000</speed>
<extensions>
<speed>2.0</speed>
<temp>0.00</temp>
<bpm>0</bpm>
<rpm>0.00</rpm>
</extensions>
</trkpt>
<trkpt lat="63.859329224" lon="-21.729001999">
<ele>2.204468</ele>
<time>2012-07-28T13:40:31Z</time>
<speed>2.660000</speed>
<extensions>
<speed>2.7</speed>
<temp>0.00</temp>
<bpm>0</bpm>
<rpm>0.00</rpm>
</extensions>
</trkpt>
<trkpt lat="63.859424591" lon="-21.729167938">
<ele>1.634827</ele>
<time>2012-07-28T13:40:36Z</time>
<speed>2.610000</speed>
<extensions>
<speed>2.6</speed>
<temp>0.00</temp>
<bpm>0</bpm>
<rpm>0.00</rpm>
</extensions>
</trkpt>
<trkpt lat="63.859527588" lon="-21.729324341">
<ele>1.434357</ele>
<time>2012-07-28T13:40:41Z</time>
<speed>2.500000</speed>
<extensions>
<speed>2.5</speed>
<temp>0.00</temp>
<bpm>0</bpm>
<rpm>0.00</rpm>
</extensions>
</trkpt>
<trkpt lat="63.859603882" lon="-21.729467392">
<ele>0.850388</ele>
<time>2012-07-28T13:40:46Z</time>
<speed>2.470000</speed>
<extensions>
<speed>2.5</speed>
<temp>0.00</temp>
<bpm>0</bpm>
<rpm>0.00</rpm>
</extensions>
</trkpt>
<trkpt lat="63.859699249" lon="-21.729591370">
<ele>-0.315575</ele>
<time>2012-07-28T13:40:51Z</time>
<speed>2.130000</speed>
<extensions>
<speed>2.1</speed>
<temp>0.00</temp>
<bpm>0</bpm>
<rpm>0.00</rpm>
</extensions>
</trkpt>
<trkpt lat="63.859783173" lon="-21.729722977">
<ele>0.148350</ele>
<time>2012-07-28T13:40:56Z</time>
<speed>2.310000</speed>
<extensions>
<speed>2.3</speed>
<temp>0.00</temp>
<bpm>0</bpm>
<rpm>0.00</rpm>
</extensions>
</trkpt>
<trkpt lat="63.859878540" lon="-21.729854584">
<ele>0.324425</ele>
<time>2012-07-28T13:41:01Z</time>
<speed>2.230000</speed>
<extensions>
<speed>2.2</speed>
<temp>0.00</temp>
<bpm>0</bpm>
<rpm>0.00</rpm>
</extensions>
</trkpt>
<trkpt lat="63.859962463" lon="-21.729999542">
<ele>1.164093</ele>
<time>2012-07-28T13:41:06Z</time>
<speed>2.420000</speed>
<extensions>
<speed>2.4</speed>
<temp>0.00</temp>
<bpm>0</bpm>
<rpm>0.00</rpm>
</extensions>
</trkpt>
<trkpt lat="63.860046387" lon="-21.730152130">
<ele>0.105257</ele>
<time>2012-07-28T13:41:11Z</time>
<speed>2.230000</speed>
<extensions>
<speed>2.2</speed>
<temp>0.00</temp>
<bpm>0</bpm>
<rpm>0.00</rpm>
</extensions>
</trkpt>
<trkpt lat="63.860115051" lon="-21.730285645">
<ele>0.208370</ele>
<time>2012-07-28T13:41:16Z</time>
<speed>2.030000</speed>
<extensions>
<speed>2.0</speed>
<temp>0.00</temp>
<bpm>0</bpm>
<rpm>0.00</rpm>
</extensions>
</trkpt>
<trkpt lat="63.860191345" lon="-21.730409622">
<ele>1.057373</ele>
<time>2012-07-28T13:41:21Z</time>
<speed>2.210000</speed>
<extensions>
<speed>2.2</speed>
<temp>0.00</temp>
<bpm>0</bpm>
<rpm>0.00</rpm>
</extensions>
</trkpt>
<trkpt lat="63.860271454" lon="-21.730535507">
<ele>0.812546</ele>
<time>2012-07-28T13:41:26Z</time>
<speed>2.240000</speed>
<extensions>
<speed>2.2</speed>
<temp>0.00</temp>
<bpm>0</bpm>
<rpm>0.00</rpm>
</extensions>
</trkpt>
<trkpt lat="63.860355377" lon="-21.730669022">
<ele>1.194122</ele>
<time>2012-07-28T13:41:31Z</time>
<speed>2.310000</speed>
<extensions>
<speed>2.3</speed>
<temp>0.00</temp>
<bpm>0</bpm>
<rpm>0.00</rpm>
</extensions>
</trkpt>
<trkpt lat="63.860439301" lon="-21.730791092">
<ele>2.048584</ele>
<time>2012-07-28T13:41:36Z</time>
<speed>2.190000</speed>
<extensions>
<speed>2.2</speed>
<temp>0.00</temp>
<bpm>0</bpm>
<rpm>0.00</rpm>
</extensions>
</trkpt>
<trkpt lat="63.860515594" lon="-21.730915070">
<ele>1.688019</ele>
<time>2012-07-28T13:41:41Z</time>
<speed>2.170000</speed>
<extensions>
<speed>2.2</speed>
<temp>0.00</temp>
<bpm>0</bpm>
<rpm>0.00</rpm>
</extensions>
</trkpt>
<trkpt lat="63.860607147" lon="-21.731048584">
<ele>2.724915</ele>
<time>2012-07-28T13:41:46Z</time>
<speed>2.310000</speed>
<extensions>
<speed>2.3</speed>
<temp>0.00</temp>
<bpm>0</bpm>
<rpm>0.00</rpm>
</extensions>
</trkpt>
<trkpt lat="63.860687256" lon="-21.731164932">
<ele>2.884705</ele>
<time>2012-07-28T13:41:51Z</time>
<speed>1.620000</speed>
<extensions>
<speed>1.6</speed>
<temp>0.00</temp>
<bpm>0</bpm>
<rpm>0.00</rpm>
</extensions>
</trkpt>
<trkpt lat="63.860744476" lon="-21.731267929">
<ele>3.046753</ele>
<time>2012-07-28T13:41:56Z</time>
<speed>2.130000</speed>
<extensions>
<speed>2.1</speed>
<temp>0.00</temp>
<bpm>0</bpm>
<rpm>0.00</rpm>
</extensions>
</trkpt>
<trkpt lat="63.860813141" lon="-21.731386185">
<ele>2.376160</ele>
<time>2012-07-28T13:42:01Z</time>
<speed>2.140000</speed>
<extensions>
<speed>2.1</speed>
<temp>0.00</temp>
<bpm>0</bpm>
<rpm>0.00</rpm>
</extensions>
</trkpt>
<trkpt lat="63.860889435" lon="-21.731512070">
<ele>1.725494</ele>
<time>2012-07-28T13:42:06Z</time>
<speed>2.120000</speed>
<extensions>
<speed>2.1</speed>
<temp>0.00</temp>
<bpm>0</bpm>
<rpm>0.00</rpm>
</extensions>
</trkpt>
<trkpt lat="63.860969543" lon="-21.731655121">
<ele>2.310242</ele>
<time>2012-07-28T13:42:11Z</time>
<speed>2.310000</speed>
<extensions>
<speed>2.3</speed>
<temp>0.00</temp>
<bpm>0</bpm>
<rpm>0.00</rpm>
</extensions>
</trkpt>
<trkpt lat="63.861045837" lon="-21.731798172">
<ele>2.428467</ele>
<time>2012-07-28T13:42:16Z</time>
<speed>2.230000</speed>
<extensions>
<speed>2.2</speed>
<temp>0.00</temp>
<bpm>0</bpm>
<rpm>0.00</rpm>
</extensions>
</trkpt>
<trkpt lat="63.861114502" lon="-21.731937408">
<ele>3.668945</ele>
<time>2012-07-28T13:42:21Z</time>
<speed>1.820000</speed>
<extensions>
<speed>1.8</speed>
<temp>0.00</temp>
<bpm>0</bpm>
<rpm>0.00</rpm>
</extensions>
</trkpt>
<trkpt lat="63.861190796" lon="-21.732065201">
<ele>3.631165</ele>
<time>2012-07-28T13:42:26Z</time>
<speed>1.920000</speed>
<extensions>
<speed>1.9</speed>
<temp>0.00</temp>
<bpm>0</bpm>
<rpm>0.00</rpm>
</extensions>
</trkpt>
<trkpt lat="63.861267090" lon="-21.732210159">
<ele>4.210083</ele>
<time>2012-07-28T13:42:31Z</time>
<speed>2.340000</speed>
<extensions>
<speed>2.3</speed>
<temp>0.00</temp>
<bpm>0</bpm>
<rpm>0.00</rpm>
</extensions>
</trkpt>
<trkpt lat="63.861343384" lon="-21.732358932">
<ele>3.894531</ele>
<time>2012-07-28T13:42:36Z</time>
<speed>2.290000</speed>
<extensions>
<speed>2.3</speed>
<temp>0.00</temp>
<bpm>0</bpm>
<rpm>0.00</rpm>
</extensions>
</trkpt>
<trkpt lat="63.861423492" lon="-21.732494354">
<ele>3.279297</ele>
<time>2012-07-28T13:42:41Z</time>
<speed>2.020000</speed>
<extensions>
<speed>2.0</speed>
<temp>0.00</temp>
<bpm>0</bpm>
<rpm>0.00</rpm>
</extensions>
</trkpt>
<trkpt lat="63.861484528" lon="-21.732624054">
<ele>3.611145</ele>
<time>2012-07-28T13:42:46Z</time>
<speed>1.980000</speed>
<extensions>
<speed>2.0</speed>
<temp>0.00</temp>
<bpm>0</bpm>
<rpm>0.00</rpm>
</extensions>
</trkpt>
<trkpt lat="63.861549377" lon="-21.732769012">
<ele>3.846130</ele>
<time>2012-07-28T13:42:51Z</time>
<speed>2.070000</speed>
<extensions>
<speed>2.1</speed>
<temp>0.00</temp>
<bpm>0</bpm>
<rpm>0.00</rpm>
</extensions>
</trkpt>
<trkpt lat="63.861618042" lon="-21.732881546">
<ele>3.131714</ele>
<time>2012-07-28T13:42:56Z</time>
<speed>2.180000</speed>
<extensions>
<speed>2.2</speed>
<temp>0.00</temp>
<bpm>0</bpm>
<rpm>0.00</rpm>
</extensions>
</trkpt>
<trkpt lat="63.861698151" lon="-21.733028412">
<ele>3.481201</ele>
<time>2012-07-28T13:43:01Z</time>
<speed>2.260000</speed>
<extensions>
<speed>2.3</speed>
<temp>0.00</temp>
<bpm>0</bpm>
<rpm>0.00</rpm>
</extensions>
</trkpt>
<trkpt lat="63.861770630" lon="-21.733150482">
<ele>3.003967</ele>
<time>2012-07-28T13:43:06Z</time>
<speed>2.250000</speed>
<extensions>
<speed>2.3</speed>
<temp>0.00</temp>
<bpm>0</bpm>
<rpm>0.00</rpm>
</extensions>
</trkpt>
<trkpt lat="63.861850739" lon="-21.733322144">
<ele>3.020386</ele>
<time>2012-07-28T13:43:11Z</time>
<speed>2.300000</speed>
<extensions>
<speed>2.3</speed>
<temp>0.00</temp>
<bpm>0</bpm>
<rpm>0.00</rpm>
</extensions>
</trkpt>
<trkpt lat="63.861927032" lon="-21.733488083">
<ele>2.660522</ele>
<time>2012-07-28T13:43:16Z</time>
<speed>2.310000</speed>
<extensions>
<speed>2.3</speed>
<temp>0.00</temp>
<bpm>0</bpm>
<rpm>0.00</rpm>
</extensions>
</trkpt>
<trkpt lat="63.862007141" lon="-21.733650208">
<ele>3.086060</ele>
<time>2012-07-28T13:43:21Z</time>
<speed>2.460000</speed>
<extensions>
<speed>2.5</speed>
<temp>0.00</temp>
<bpm>0</bpm>
<rpm>0.00</rpm>
</extensions>
</trkpt>
<trkpt lat="63.862083435" lon="-21.733814240">
<ele>3.234680</ele>
<time>2012-07-28T13:43:26Z</time>
<speed>2.390000</speed>
<extensions>
<speed>2.4</speed>
<temp>0.00</temp>
<bpm>0</bpm>
<rpm>0.00</rpm>
</extensions>
</trkpt>
<trkpt lat="63.862171173" lon="-21.733972549">
<ele>2.892212</ele>
<time>2012-07-28T13:43:31Z</time>
<speed>2.530000</speed>
<extensions>
<speed>2.5</speed>
<temp>0.00</temp>
<bpm>0</bpm>
<rpm>0.00</rpm>
</extensions>
</trkpt>
<trkpt lat="63.862251282" lon="-21.734119415">
<ele>2.206787</ele>
<time>2012-07-28T13:43:36Z</time>
<speed>2.290000</speed>
<extensions>
<speed>2.3</speed>
<temp>0.00</temp>
<bpm>0</bpm>
<rpm>0.00</rpm>
</extensions>
</trkpt>
<trkpt lat="63.862331390" lon="-21.734308243">
<ele>2.439209</ele>
<time>2012-07-28T13:43:41Z</time>
<speed>2.400000</speed>
<extensions>
<speed>2.4</speed>
<temp>0.00</temp>
<bpm>0</bpm>
<rpm>0.00</rpm>
</extensions>
</trkpt>
<trkpt lat="63.862407684" lon="-21.734498978">
<ele>3.113342</ele>
<time>2012-07-28T13:43:46Z</time>
<speed>2.450000</speed>
<extensions>
<speed>2.4</speed>
<temp>0.00</temp>
<bpm>0</bpm>
<rpm>0.00</rpm>
</extensions>
</trkpt>
<trkpt lat="63.862491608" lon="-21.734680176">
<ele>3.480408</ele>
<time>2012-07-28T13:43:51Z</time>
<speed>2.540000</speed>
<extensions>
<speed>2.5</speed>
<temp>0.00</temp>
<bpm>0</bpm>
<rpm>0.00</rpm>
</extensions>
</trkpt>
<trkpt lat="63.862571716" lon="-21.734857559">
<ele>3.270203</ele>
<time>2012-07-28T13:43:56Z</time>
<speed>2.460000</speed>
<extensions>
<speed>2.5</speed>
<temp>0.00</temp>
<bpm>0</bpm>
<rpm>0.00</rpm>
</extensions>
</trkpt>
<trkpt lat="63.862659454" lon="-21.735050201">
<ele>4.026855</ele>
<time>2012-07-28T13:44:01Z</time>
<speed>2.690000</speed>
<extensions>
<speed>2.7</speed>
<temp>0.00</temp>
<bpm>0</bpm>
<rpm>0.00</rpm>
</extensions>
</trkpt>
<trkpt lat="63.862747192" lon="-21.735239029">
<ele>4.154541</ele>
<time>2012-07-28T13:44:06Z</time>
<speed>2.810000</speed>
<extensions>
<speed>2.8</speed>
<temp>0.00</temp>
<bpm>0</bpm>
<rpm>0.00</rpm>
</extensions>
</trkpt>
<trkpt lat="63.862834930" lon="-21.735431671">
<ele>4.299683</ele>
<time>2012-07-28T13:44:11Z</time>
<speed>2.620000</speed>
<extensions>
<speed>2.6</speed>
<temp>0.00</temp>
<bpm>0</bpm>
<rpm>0.00</rpm>
</extensions>
</trkpt>
<trkpt lat="63.862918854" lon="-21.735645294">
<ele>4.181763</ele>
<time>2012-07-28T13:44:16Z</time>
<speed>2.910000</speed>
<extensions>
<speed>2.9</speed>
<temp>0.00</temp>
<bpm>0</bpm>
<rpm>0.00</rpm>
</extensions>
</trkpt>
<trkpt lat="63.863006592" lon="-21.735836029">
<ele>3.875793</ele>
<time>2012-07-28T13:44:21Z</time>
<speed>2.850000</speed>
<extensions>
<speed>2.9</speed>
<temp>0.00</temp>
<bpm>0</bpm>
<rpm>0.00</rpm>
</extensions>
</trkpt>
<trkpt lat="63.863086700" lon="-21.736021042">
<ele>4.026733</ele>
<time>2012-07-28T13:44:26Z</time>
<speed>2.620000</speed>
<extensions>
<speed>2.6</speed>
<temp>0.00</temp>
<bpm>0</bpm>
<rpm>0.00</rpm>
</extensions>
</trkpt>
<trkpt lat="63.863174438" lon="-21.736217499">
<ele>3.968506</ele>
<time>2012-07-28T13:44:31Z</time>
<speed>2.630000</speed>
<extensions>
<speed>2.6</speed>
<temp>0.00</temp>
<bpm>0</bpm>
<rpm>0.00</rpm>
</extensions>
</trkpt>
<trkpt lat="63.863250732" lon="-21.736417770">
<ele>3.927124</ele>
<time>2012-07-28T13:44:36Z</time>
<speed>2.900000</speed>
<extensions>
<speed>2.9</speed>
<temp>0.00</temp>
<bpm>0</bpm>
<rpm>0.00</rpm>
</extensions>
</trkpt>
<trkpt lat="63.863338470" lon="-21.736639023">
<ele>4.063232</ele>
<time>2012-07-28T13:44:41Z</time>
<speed>2.910000</speed>
<extensions>
<speed>2.9</speed>
<temp>0.00</temp>
<bpm>0</bpm>
<rpm>0.00</rpm>
</extensions>
</trkpt>
<trkpt lat="63.863422394" lon="-21.736858368">
<ele>4.866699</ele>
<time>2012-07-28T13:44:46Z</time>
<speed>2.880000</speed>
<extensions>
<speed>2.9</speed>
<temp>0.00</temp>
<bpm>0</bpm>
<rpm>0.00</rpm>
</extensions>
</trkpt>
<trkpt lat="63.863498688" lon="-21.737051010">
<ele>4.935669</ele>
<time>2012-07-28T13:44:51Z</time>
<speed>1.970000</speed>
<extensions>
<speed>2.0</speed>
<temp>0.00</temp>
<bpm>0</bpm>
<rpm>0.00</rpm>
</extensions>
</trkpt>
<trkpt lat="63.863548279" lon="-21.737201691">
<ele>6.224609</ele>
<time>2012-07-28T13:44:56Z</time>
<speed>2.120000</speed>
<extensions>
<speed>2.1</speed>
<temp>0.00</temp>
<bpm>0</bpm>
<rpm>0.00</rpm>
</extensions>
</trkpt>
<trkpt lat="63.863620758" lon="-21.737373352">
<ele>5.495239</ele>
<time>2012-07-28T13:45:01Z</time>
<speed>2.590000</speed>
<extensions>
<speed>2.6</speed>
<temp>0.00</temp>
<bpm>0</bpm>
<rpm>0.00</rpm>
</extensions>
</trkpt>
<trkpt lat="63.863693237" lon="-21.737569809">
<ele>5.994019</ele>
<time>2012-07-28T13:45:06Z</time>
<speed>2.470000</speed>
<extensions>
<speed>2.5</speed>
<temp>0.00</temp>
<bpm>0</bpm>
<rpm>0.00</rpm>
</extensions>
</trkpt>
<trkpt lat="63.863773346" lon="-21.737768173">
<ele>5.911743</ele>
<time>2012-07-28T13:45:11Z</time>
<speed>2.420000</speed>
<extensions>
<speed>2.4</speed>
<temp>0.00</temp>
<bpm>0</bpm>
<rpm>0.00</rpm>
</extensions>
</trkpt>
<trkpt lat="63.863845825" lon="-21.737937927">
<ele>4.809692</ele>
<time>2012-07-28T13:45:16Z</time>
<speed>2.320000</speed>
<extensions>
<speed>2.3</speed>
<temp>0.00</temp>
<bpm>0</bpm>
<rpm>0.00</rpm>
</extensions>
</trkpt>
<trkpt lat="63.863918304" lon="-21.738136292">
<ele>4.288818</ele>
<time>2012-07-28T13:45:21Z</time>
<speed>2.660000</speed>
<extensions>
<speed>2.7</speed>
<temp>0.00</temp>
<bpm>0</bpm>
<rpm>0.00</rpm>
</extensions>
</trkpt>
<trkpt lat="63.863990784" lon="-21.738363266">
<ele>4.539917</ele>
<time>2012-07-28T13:45:26Z</time>
<speed>2.660000</speed>
<extensions>
<speed>2.7</speed>
<temp>0.00</temp>
<bpm>0</bpm>
<rpm>0.00</rpm>
</extensions>
</trkpt>
<trkpt lat="63.864063263" lon="-21.738571167">
<ele>4.879272</ele>
<time>2012-07-28T13:45:31Z</time>
<speed>2.640000</speed>
<extensions>
<speed>2.6</speed>
<temp>0.00</temp>
<bpm>0</bpm>
<rpm>0.00</rpm>
</extensions>
</trkpt>
<trkpt lat="63.864135742" lon="-21.738779068">
<ele>4.549438</ele>
<time>2012-07-28T13:45:36Z</time>
<speed>2.700000</speed>
<extensions>
<speed>2.7</speed>
<temp>0.00</temp>
<bpm>0</bpm>
<rpm>0.00</rpm>
</extensions>
</trkpt>
<trkpt lat="63.864215851" lon="-21.739006042">
<ele>4.755737</ele>
<time>2012-07-28T13:45:41Z</time>
<speed>2.470000</speed>
<extensions>
<speed>2.5</speed>
<temp>0.00</temp>
<bpm>0</bpm>
<rpm>0.00</rpm>
</extensions>
</trkpt>
<trkpt lat="63.864280701" lon="-21.739212036">
<ele>4.630371</ele>
<time>2012-07-28T13:45:46Z</time>
<speed>2.900000</speed>
<extensions>
<speed>2.9</speed>
<temp>0.00</temp>
<bpm>0</bpm>
<rpm>0.00</rpm>
</extensions>
</trkpt>
<trkpt lat="63.864356995" lon="-21.739461899">
<ele>4.945313</ele>
<time>2012-07-28T13:45:51Z</time>
<speed>2.830000</speed>
<extensions>
<speed>2.8</speed>
<temp>0.00</temp>
<bpm>0</bpm>
<rpm>0.00</rpm>
</extensions>
</trkpt>
<trkpt lat="63.864429474" lon="-21.739667892">
<ele>5.007202</ele>
<time>2012-07-28T13:45:56Z</time>
<speed>2.570000</speed>
<extensions>
<speed>2.6</speed>
<temp>0.00</temp>
<bpm>0</bpm>
<rpm>0.00</rpm>
</extensions>
</trkpt>
<trkpt lat="63.864494324" lon="-21.739894867">
<ele>4.940918</ele>
<time>2012-07-28T13:46:01Z</time>
<speed>2.590000</speed>
<extensions>
<speed>2.6</speed>
<temp>0.00</temp>
<bpm>0</bpm>
<rpm>0.00</rpm>
</extensions>
</trkpt>
<trkpt lat="63.864559174" lon="-21.740118027">
<ele>5.470825</ele>
<time>2012-07-28T13:46:06Z</time>
<speed>2.530000</speed>
<extensions>
<speed>2.5</speed>
<temp>0.00</temp>
<bpm>0</bpm>
<rpm>0.00</rpm>
</extensions>
</trkpt>
<trkpt lat="63.864612579" lon="-21.740310669">
<ele>6.156006</ele>
<time>2012-07-28T13:46:11Z</time>
<speed>2.300000</speed>
<extensions>
<speed>2.3</speed>
<temp>0.00</temp>
<bpm>0</bpm>
<rpm>0.00</rpm>
</extensions>
</trkpt>
<trkpt lat="63.864673615" lon="-21.740455627">
<ele>6.280273</ele>
<time>2012-07-28T13:46:16Z</time>
<speed>1.920000</speed>
<extensions>
<speed>1.9</speed>
<temp>0.00</temp>
<bpm>0</bpm>
<rpm>0.00</rpm>
</extensions>
</trkpt>
<trkpt lat="63.864730835" lon="-21.740648270">
<ele>6.517700</ele>
<time>2012-07-28T13:46:21Z</time>
<speed>2.340000</speed>
<extensions>
<speed>2.3</speed>
<temp>0.00</temp>
<bpm>0</bpm>
<rpm>0.00</rpm>
</extensions>
</trkpt>
<trkpt lat="63.864788055" lon="-21.740831375">
<ele>6.864624</ele>
<time>2012-07-28T13:46:26Z</time>
<speed>2.480000</speed>
<extensions>
<speed>2.5</speed>
<temp>0.00</temp>
<bpm>0</bpm>
<rpm>0.00</rpm>
</extensions>
</trkpt>
<trkpt lat="63.864852905" lon="-21.741014481">
<ele>7.079834</ele>
<time>2012-07-28T13:46:31Z</time>
<speed>2.320000</speed>
<extensions>
<speed>2.3</speed>
<temp>0.00</temp>
<bpm>0</bpm>
<rpm>0.00</rpm>
</extensions>
</trkpt>
<trkpt lat="63.864913940" lon="-21.741226196">
<ele>7.262085</ele>
<time>2012-07-28T13:46:36Z</time>
<speed>2.360000</speed>
<extensions>
<speed>2.4</speed>
<temp>0.00</temp>
<bpm>0</bpm>
<rpm>0.00</rpm>
</extensions>
</trkpt>
<trkpt lat="63.864971161" lon="-21.741430283">
<ele>6.615967</ele>
<time>2012-07-28T13:46:41Z</time>
<speed>2.450000</speed>
<extensions>
<speed>2.4</speed>
<temp>0.00</temp>
<bpm>0</bpm>
<rpm>0.00</rpm>
</extensions>
</trkpt>
<trkpt lat="63.865028381" lon="-21.741647720">
<ele>6.615479</ele>
<time>2012-07-28T13:46:46Z</time>
<speed>2.870000</speed>
<extensions>
<speed>2.9</speed>
<temp>0.00</temp>
<bpm>0</bpm>
<rpm>0.00</rpm>
</extensions>
</trkpt>
<trkpt lat="63.865085602" lon="-21.741836548">
<ele>7.319702</ele>
<time>2012-07-28T13:46:51Z</time>
<speed>2.130000</speed>
<extensions>
<speed>2.1</speed>
<temp>0.00</temp>
<bpm>0</bpm>
<rpm>0.00</rpm>
</extensions>
</trkpt>
<trkpt lat="63.865142822" lon="-21.742050171">
<ele>7.386230</ele>
<time>2012-07-28T13:46:56Z</time>
<speed>2.470000</speed>
<extensions>
<speed>2.5</speed>
<temp>0.00</temp>
<bpm>0</bpm>
<rpm>0.00</rpm>
</extensions>
</trkpt>
<trkpt lat="63.865211487" lon="-21.742263794">
<ele>6.708862</ele>
<time>2012-07-28T13:47:01Z</time>
<speed>2.660000</speed>
<extensions>
<speed>2.7</speed>
<temp>0.00</temp>
<bpm>0</bpm>
<rpm>0.00</rpm>
</extensions>
</trkpt>
<trkpt lat="63.865272522" lon="-21.742486954">
<ele>6.413574</ele>
<time>2012-07-28T13:47:06Z</time>
<speed>2.450000</speed>
<extensions>
<speed>2.4</speed>
<temp>0.00</temp>
<bpm>0</bpm>
<rpm>0.00</rpm>
</extensions>
</trkpt>
<trkpt lat="63.865325928" lon="-21.742717743">
<ele>6.374634</ele>
<time>2012-07-28T13:47:11Z</time>
<speed>2.320000</speed>
<extensions>
<speed>2.3</speed>
<temp>0.00</temp>
<bpm>0</bpm>
<rpm>0.00</rpm>
</extensions>
</trkpt>
<trkpt lat="63.865386963" lon="-21.742927551">
<ele>5.683228</ele>
<time>2012-07-28T13:47:16Z</time>
<speed>2.720000</speed>
<extensions>
<speed>2.7</speed>
<temp>0.00</temp>
<bpm>0</bpm>
<rpm>0.00</rpm>
</extensions>
</trkpt>
<trkpt lat="63.865440369" lon="-21.743131638">
<ele>5.374390</ele>
<time>2012-07-28T13:47:21Z</time>
<speed>2.480000</speed>
<extensions>
<speed>2.5</speed>
<temp>0.00</temp>
<bpm>0</bpm>
<rpm>0.00</rpm>
</extensions>
</trkpt>
<trkpt lat="63.865493774" lon="-21.743337631">
<ele>5.142700</ele>
<time>2012-07-28T13:47:26Z</time>
<speed>1.970000</speed>
<extensions>
<speed>2.0</speed>
<temp>0.00</temp>
<bpm>0</bpm>
<rpm>0.00</rpm>
</extensions>
</trkpt>
<trkpt lat="63.865531921" lon="-21.743507385">
<ele>4.985474</ele>
<time>2012-07-28T13:47:31Z</time>
<speed>2.250000</speed>
<extensions>
<speed>2.3</speed>
<temp>0.00</temp>
<bpm>0</bpm>
<rpm>0.00</rpm>
</extensions>
</trkpt>
<trkpt lat="63.865585327" lon="-21.743701935">
<ele>5.114014</ele>
<time>2012-07-28T13:47:36Z</time>
<speed>2.320000</speed>
<extensions>
<speed>2.3</speed>
<temp>0.00</temp>
<bpm>0</bpm>
<rpm>0.00</rpm>
</extensions>
</trkpt>
<trkpt lat="63.865642548" lon="-21.743896484">
<ele>6.104248</ele>
<time>2012-07-28T13:47:41Z</time>
<speed>2.490000</speed>
<extensions>
<speed>2.5</speed>
<temp>0.00</temp>
<bpm>0</bpm>
<rpm>0.00</rpm>
</extensions>
</trkpt>
<trkpt lat="63.865699768" lon="-21.744127274">
<ele>5.929077</ele>
<time>2012-07-28T13:47:46Z</time>
<speed>2.410000</speed>
<extensions>
<speed>2.4</speed>
<temp>0.00</temp>
<bpm>0</bpm>
<rpm>0.00</rpm>
</extensions>
</trkpt>
<trkpt lat="63.865760803" lon="-21.744380951">
<ele>6.148804</ele>
<time>2012-07-28T13:47:51Z</time>
<speed>2.760000</speed>
<extensions>
<speed>2.8</speed>
<temp>0.00</temp>
<bpm>0</bpm>
<rpm>0.00</rpm>
</extensions>
</trkpt>
<trkpt lat="63.865798950" lon="-21.744537354">
<ele>5.860596</ele>
<time>2012-07-28T13:47:56Z</time>
<speed>1.240000</speed>
<extensions>
<speed>1.2</speed>
<temp>0.00</temp>
<bpm>0</bpm>
<rpm>0.00</rpm>
</extensions>
</trkpt>
<trkpt lat="63.865848541" lon="-21.744733810">
<ele>6.065063</ele>
<time>2012-07-28T13:48:01Z</time>
<speed>2.460000</speed>
<extensions>
<speed>2.5</speed>
<temp>0.00</temp>
<bpm>0</bpm>
<rpm>0.00</rpm>
</extensions>
</trkpt>
<trkpt lat="63.865909576" lon="-21.744960785">
<ele>6.370972</ele>
<time>2012-07-28T13:48:06Z</time>
<speed>2.290000</speed>
<extensions>
<speed>2.3</speed>
<temp>0.00</temp>
<bpm>0</bpm>
<rpm>0.00</rpm>
</extensions>
</trkpt>
<trkpt lat="63.865959167" lon="-21.745182037">
<ele>6.045288</ele>
<time>2012-07-28T13:48:11Z</time>
<speed>2.570000</speed>
<extensions>
<speed>2.6</speed>
<temp>0.00</temp>
<bpm>0</bpm>
<rpm>0.00</rpm>
</extensions>
</trkpt>
<trkpt lat="63.866012573" lon="-21.745418549">
<ele>5.731079</ele>
<time>2012-07-28T13:48:16Z</time>
<speed>2.710000</speed>
<extensions>
<speed>2.7</speed>
<temp>0.00</temp>
<bpm>0</bpm>
<rpm>0.00</rpm>
</extensions>
</trkpt>
<trkpt lat="63.866077423" lon="-21.745645523">
<ele>5.937866</ele>
<time>2012-07-28T13:48:21Z</time>
<speed>2.410000</speed>
<extensions>
<speed>2.4</speed>
<temp>0.00</temp>
<bpm>0</bpm>
<rpm>0.00</rpm>
</extensions>
</trkpt>
<trkpt lat="63.866123199" lon="-21.745847702">
<ele>5.855225</ele>
<time>2012-07-28T13:48:26Z</time>
<speed>2.610000</speed>
<extensions>
<speed>2.6</speed>
<temp>0.00</temp>
<bpm>0</bpm>
<rpm>0.00</rpm>
</extensions>
</trkpt>
<trkpt lat="63.866180420" lon="-21.746086121">
<ele>5.762207</ele>
<time>2012-07-28T13:48:31Z</time>
<speed>2.830000</speed>
<extensions>
<speed>2.8</speed>
<temp>0.00</temp>
<bpm>0</bpm>
<rpm>0.00</rpm>
</extensions>
</trkpt>
<trkpt lat="63.866237640" lon="-21.746276855">
<ele>5.820923</ele>
<time>2012-07-28T13:48:36Z</time>
<speed>1.940000</speed>
<extensions>
<speed>1.9</speed>
<temp>0.00</temp>
<bpm>0</bpm>
<rpm>0.00</rpm>
</extensions>
</trkpt>
<trkpt lat="63.866287231" lon="-21.746494293">
<ele>5.984863</ele>
<time>2012-07-28T13:48:41Z</time>
<speed>2.420000</speed>
<extensions>
<speed>2.4</speed>
<temp>0.00</temp>
<bpm>0</bpm>
<rpm>0.00</rpm>
</extensions>
</trkpt>
<trkpt lat="63.866336823" lon="-21.746740341">
<ele>5.778809</ele>
<time>2012-07-28T13:48:46Z</time>
<speed>2.720000</speed>
<extensions>
<speed>2.7</speed>
<temp>0.00</temp>
<bpm>0</bpm>
<rpm>0.00</rpm>
</extensions>
</trkpt>
<trkpt lat="63.866397858" lon="-21.746982574">
<ele>6.012329</ele>
<time>2012-07-28T13:48:51Z</time>
<speed>2.680000</speed>
<extensions>
<speed>2.7</speed>
<temp>0.00</temp>
<bpm>0</bpm>
<rpm>0.00</rpm>
</extensions>
</trkpt>
<trkpt lat="63.866458893" lon="-21.747240067">
<ele>5.859131</ele>
<time>2012-07-28T13:48:56Z</time>
<speed>2.820000</speed>
<extensions>
<speed>2.8</speed>
<temp>0.00</temp>
<bpm>0</bpm>
<rpm>0.00</rpm>
</extensions>
</trkpt>
<trkpt lat="63.866516113" lon="-21.747507095">
<ele>5.864136</ele>
<time>2012-07-28T13:49:01Z</time>
<speed>3.030000</speed>
<extensions>
<speed>3.0</speed>
<temp>0.00</temp>
<bpm>0</bpm>
<rpm>0.00</rpm>
</extensions>
</trkpt>
<trkpt lat="63.866573334" lon="-21.747776031">
<ele>5.913452</ele>
<time>2012-07-28T13:49:06Z</time>
<speed>2.840000</speed>
<extensions>
<speed>2.8</speed>
<temp>0.00</temp>
<bpm>0</bpm>
<rpm>0.00</rpm>
</extensions>
</trkpt>
<trkpt lat="63.866626740" lon="-21.748041153">
<ele>5.756348</ele>
<time>2012-07-28T13:49:11Z</time>
<speed>2.870000</speed>
<extensions>
<speed>2.9</speed>
<temp>0.00</temp>
<bpm>0</bpm>
<rpm>0.00</rpm>
</extensions>
</trkpt>
<trkpt lat="63.866687775" lon="-21.748304367">
<ele>5.727417</ele>
<time>2012-07-28T13:49:16Z</time>
<speed>2.870000</speed>
<extensions>
<speed>2.9</speed>
<temp>0.00</temp>
<bpm>0</bpm>
<rpm>0.00</rpm>
</extensions>
</trkpt>
<trkpt lat="63.866744995" lon="-21.748548508">
<ele>6.036621</ele>
<time>2012-07-28T13:49:21Z</time>
<speed>2.870000</speed>
<extensions>
<speed>2.9</speed>
<temp>0.00</temp>
<bpm>0</bpm>
<rpm>0.00</rpm>
</extensions>
</trkpt>
<trkpt lat="63.866806030" lon="-21.748811722">
<ele>6.217896</ele>
<time>2012-07-28T13:49:26Z</time>
<speed>2.890000</speed>
<extensions>
<speed>2.9</speed>
<temp>0.00</temp>
<bpm>0</bpm>
<rpm>0.00</rpm>
</extensions>
</trkpt>
<trkpt lat="63.866867065" lon="-21.749073029">
<ele>6.242554</ele>
<time>2012-07-28T13:49:31Z</time>
<speed>2.870000</speed>
<extensions>
<speed>2.9</speed>
<temp>0.00</temp>
<bpm>0</bpm>
<rpm>0.00</rpm>
</extensions>
</trkpt>
<trkpt lat="63.866924286" lon="-21.749351501">
<ele>6.187744</ele>
<time>2012-07-28T13:49:36Z</time>
<speed>3.300000</speed>
<extensions>
<speed>3.3</speed>
<temp>0.00</temp>
<bpm>0</bpm>
<rpm>0.00</rpm>
</extensions>
</trkpt>
<trkpt lat="63.866989136" lon="-21.749595642">
<ele>6.224731</ele>
<time>2012-07-28T13:49:41Z</time>
<speed>2.040000</speed>
<extensions>
<speed>2.0</speed>
<temp>0.00</temp>
<bpm>0</bpm>
<rpm>0.00</rpm>
</extensions>
</trkpt>
<trkpt lat="63.867027283" lon="-21.749828339">
<ele>5.861206</ele>
<time>2012-07-28T13:49:46Z</time>
<speed>2.860000</speed>
<extensions>
<speed>2.9</speed>
<temp>0.00</temp>
<bpm>0</bpm>
<rpm>0.00</rpm>
</extensions>
</trkpt>
<trkpt lat="63.867088318" lon="-21.750102997">
<ele>5.884277</ele>
<time>2012-07-28T13:49:51Z</time>
<speed>2.890000</speed>
<extensions>
<speed>2.9</speed>
<temp>0.00</temp>
<bpm>0</bpm>
<rpm>0.00</rpm>
</extensions>
</trkpt>
<trkpt lat="63.867153168" lon="-21.750379562">
<ele>5.467529</ele>
<time>2012-07-28T13:49:56Z</time>
<speed>3.190000</speed>
<extensions>
<speed>3.2</speed>
<temp>0.00</temp>
<bpm>0</bpm>
<rpm>0.00</rpm>
</extensions>
</trkpt>
<trkpt lat="63.867218018" lon="-21.750680923">
<ele>5.393677</ele>
<time>2012-07-28T13:50:01Z</time>
<speed>2.930000</speed>
<extensions>
<speed>2.9</speed>
<temp>0.00</temp>
<bpm>0</bpm>
<rpm>0.00</rpm>
</extensions>
</trkpt>
<trkpt lat="63.867271423" lon="-21.750923157">
<ele>4.819336</ele>
<time>2012-07-28T13:50:06Z</time>
<speed>2.900000</speed>
<extensions>
<speed>2.9</speed>
<temp>0.00</temp>
<bpm>0</bpm>
<rpm>0.00</rpm>
</extensions>
</trkpt>
<trkpt lat="63.867340088" lon="-21.751214981">
<ele>4.781006</ele>
<time>2012-07-28T13:50:11Z</time>
<speed>3.020000</speed>
<extensions>
<speed>3.0</speed>
<temp>0.00</temp>
<bpm>0</bpm>
<rpm>0.00</rpm>
</extensions>
</trkpt>
<trkpt lat="63.867401123" lon="-21.751497269">
<ele>4.897217</ele>
<time>2012-07-28T13:50:16Z</time>
<speed>3.300000</speed>
<extensions>
<speed>3.3</speed>
<temp>0.00</temp>
<bpm>0</bpm>
<rpm>0.00</rpm>
</extensions>
</trkpt>
<trkpt lat="63.867465973" lon="-21.751798630">
<ele>5.124756</ele>
<time>2012-07-28T13:50:21Z</time>
<speed>3.280000</speed>
<extensions>
<speed>3.3</speed>
<temp>0.00</temp>
<bpm>0</bpm>
<rpm>0.00</rpm>
</extensions>
</trkpt>
<trkpt lat="63.867515564" lon="-21.752052307">
<ele>4.771484</ele>
<time>2012-07-28T13:50:26Z</time>
<speed>2.980000</speed>
<extensions>
<speed>3.0</speed>
<temp>0.00</temp>
<bpm>0</bpm>
<rpm>0.00</rpm>
</extensions>
</trkpt>
<trkpt lat="63.867561340" lon="-21.752338409">
<ele>5.109497</ele>
<time>2012-07-28T13:50:31Z</time>
<speed>3.230000</speed>
<extensions>
<speed>3.2</speed>
<temp>0.00</temp>
<bpm>0</bpm>
<rpm>0.00</rpm>
</extensions>
</trkpt>
<trkpt lat="63.867618561" lon="-21.752622604">
<ele>5.382813</ele>
<time>2012-07-28T13:50:36Z</time>
<speed>2.460000</speed>
<extensions>
<speed>2.5</speed>
<temp>0.00</temp>
<bpm>0</bpm>
<rpm>0.00</rpm>
</extensions>
</trkpt>
<trkpt lat="63.867660522" lon="-21.752843857">
<ele>5.941772</ele>
<time>2012-07-28T13:50:41Z</time>
<speed>2.930000</speed>
<extensions>
<speed>2.9</speed>
<temp>0.00</temp>
<bpm>0</bpm>
<rpm>0.00</rpm>
</extensions>
</trkpt>
<trkpt lat="63.867713928" lon="-21.753089905">
<ele>5.573608</ele>
<time>2012-07-28T13:50:46Z</time>
<speed>2.300000</speed>
<extensions>
<speed>2.3</speed>
<temp>0.00</temp>
<bpm>0</bpm>
<rpm>0.00</rpm>
</extensions>
</trkpt>
<trkpt lat="63.867740631" lon="-21.753250122">
<ele>5.275024</ele>
<time>2012-07-28T13:50:51Z</time>
<speed>1.660000</speed>
<extensions>
<speed>1.7</speed>
<temp>0.00</temp>
<bpm>0</bpm>
<rpm>0.00</rpm>
</extensions>
</trkpt>
<trkpt lat="63.867763519" lon="-21.753438950">
<ele>5.674805</ele>
<time>2012-07-28T13:50:56Z</time>
<speed>2.060000</speed>
<extensions>
<speed>2.1</speed>
<temp>0.00</temp>
<bpm>0</bpm>
<rpm>0.00</rpm>
</extensions>
</trkpt>
<trkpt lat="63.867805481" lon="-21.753627777">
<ele>5.106079</ele>
<time>2012-07-28T13:51:01Z</time>
<speed>2.260000</speed>
<extensions>
<speed>2.3</speed>
<temp>0.00</temp>
<bpm>0</bpm>
<rpm>0.00</rpm>
</extensions>
</trkpt>
<trkpt lat="63.867828369" lon="-21.753845215">
<ele>4.583618</ele>
<time>2012-07-28T13:51:06Z</time>
<speed>2.520000</speed>
<extensions>
<speed>2.5</speed>
<temp>0.00</temp>
<bpm>0</bpm>
<rpm>0.00</rpm>
</extensions>
</trkpt>
<trkpt lat="63.867874146" lon="-21.754087448">
<ele>4.553711</ele>
<time>2012-07-28T13:51:11Z</time>
<speed>2.580000</speed>
<extensions>
<speed>2.6</speed>
<temp>0.00</temp>
<bpm>0</bpm>
<rpm>0.00</rpm>
</extensions>
</trkpt>
<trkpt lat="63.867931366" lon="-21.754327774">
<ele>4.603882</ele>
<time>2012-07-28T13:51:16Z</time>
<speed>2.560000</speed>
<extensions>
<speed>2.6</speed>
<temp>0.00</temp>
<bpm>0</bpm>
<rpm>0.00</rpm>
</extensions>
</trkpt>
<trkpt lat="63.867977142" lon="-21.754545212">
<ele>5.644775</ele>
<time>2012-07-28T13:51:21Z</time>
<speed>1.750000</speed>
<extensions>
<speed>1.8</speed>
<temp>0.00</temp>
<bpm>0</bpm>
<rpm>0.00</rpm>
</extensions>
</trkpt>
<trkpt lat="63.868034363" lon="-21.754774094">
<ele>6.035645</ele>
<time>2012-07-28T13:51:26Z</time>
<speed>2.760000</speed>
<extensions>
<speed>2.8</speed>
<temp>0.00</temp>
<bpm>0</bpm>
<rpm>0.00</rpm>
</extensions>
</trkpt>
<trkpt lat="63.868076324" lon="-21.755022049">
<ele>4.714966</ele>
<time>2012-07-28T13:51:31Z</time>
<speed>2.370000</speed>
<extensions>
<speed>2.4</speed>
<temp>0.00</temp>
<bpm>0</bpm>
<rpm>0.00</rpm>
</extensions>
</trkpt>
<trkpt lat="63.868114471" lon="-21.755250931">
<ele>4.008179</ele>
<time>2012-07-28T13:51:36Z</time>
<speed>2.360000</speed>
<extensions>
<speed>2.4</speed>
<temp>0.00</temp>
<bpm>0</bpm>
<rpm>0.00</rpm>
</extensions>
</trkpt>
<trkpt lat="63.868148804" lon="-21.755495071">
<ele>4.551758</ele>
<time>2012-07-28T13:51:41Z</time>
<speed>2.180000</speed>
<extensions>
<speed>2.2</speed>
<temp>0.00</temp>
<bpm>0</bpm>
<rpm>0.00</rpm>
</extensions>
</trkpt>
<trkpt lat="63.868194580" lon="-21.755683899">
<ele>5.446533</ele>
<time>2012-07-28T13:51:46Z</time>
<speed>2.610000</speed>
<extensions>
<speed>2.6</speed>
<temp>0.00</temp>
<bpm>0</bpm>
<rpm>0.00</rpm>
</extensions>
</trkpt>
<trkpt lat="63.868228912" lon="-21.755907059">
<ele>5.366821</ele>
<time>2012-07-28T13:51:51Z</time>
<speed>1.930000</speed>
<extensions>
<speed>1.9</speed>
<temp>0.00</temp>
<bpm>0</bpm>
<rpm>0.00</rpm>
</extensions>
</trkpt>
<trkpt lat="63.868251801" lon="-21.756093979">
<ele>6.094482</ele>
<time>2012-07-28T13:51:56Z</time>
<speed>2.520000</speed>
<extensions>
<speed>2.5</speed>
<temp>0.00</temp>
<bpm>0</bpm>
<rpm>0.00</rpm>
</extensions>
</trkpt>
<trkpt lat="63.868289948" lon="-21.756330490">
<ele>5.748047</ele>
<time>2012-07-28T13:52:01Z</time>
<speed>2.550000</speed>
<extensions>
<speed>2.6</speed>
<temp>0.00</temp>
<bpm>0</bpm>
<rpm>0.00</rpm>
</extensions>
</trkpt>
<trkpt lat="63.868331909" lon="-21.756553650">
<ele>5.335571</ele>
<time>2012-07-28T13:52:06Z</time>
<speed>2.710000</speed>
<extensions>
<speed>2.7</speed>
<temp>0.00</temp>
<bpm>0</bpm>
<rpm>0.00</rpm>
</extensions>
</trkpt>
<trkpt lat="63.868366241" lon="-21.756822586">
<ele>5.109497</ele>
<time>2012-07-28T13:52:11Z</time>
<speed>2.320000</speed>
<extensions>
<speed>2.3</speed>
<temp>0.00</temp>
<bpm>0</bpm>
<rpm>0.00</rpm>
</extensions>
</trkpt>
<trkpt lat="63.868408203" lon="-21.757028580">
<ele>4.344482</ele>
<time>2012-07-28T13:52:16Z</time>
<speed>2.270000</speed>
<extensions>
<speed>2.3</speed>
<temp>0.00</temp>
<bpm>0</bpm>
<rpm>0.00</rpm>
</extensions>
</trkpt>
<trkpt lat="63.868434906" lon="-21.757230759">
<ele>3.775452</ele>
<time>2012-07-28T13:52:21Z</time>
<speed>1.950000</speed>
<extensions>
<speed>1.9</speed>
<temp>0.00</temp>
<bpm>0</bpm>
<rpm>0.00</rpm>
</extensions>
</trkpt>
<trkpt lat="63.868469238" lon="-21.757438660">
<ele>3.619812</ele>
<time>2012-07-28T13:52:26Z</time>
<speed>2.480000</speed>
<extensions>
<speed>2.5</speed>
<temp>0.00</temp>
<bpm>0</bpm>
<rpm>0.00</rpm>
</extensions>
</trkpt>
<trkpt lat="63.868499756" lon="-21.757587433">
<ele>3.455200</ele>
<time>2012-07-28T13:52:31Z</time>
<speed>0.410000</speed>
<extensions>
<speed>0.4</speed>
<temp>0.00</temp>
<bpm>0</bpm>
<rpm>0.00</rpm>
</extensions>
</trkpt>
<trkpt lat="63.868522644" lon="-21.757728577">
<ele>3.081909</ele>
<time>2012-07-28T13:52:36Z</time>
<speed>2.560000</speed>
<extensions>
<speed>2.6</speed>
<temp>0.00</temp>
<bpm>0</bpm>
<rpm>0.00</rpm>
</extensions>
</trkpt>
<trkpt lat="63.868549347" lon="-21.757938385">
<ele>3.498901</ele>
<time>2012-07-28T13:52:41Z</time>
<speed>2.070000</speed>
<extensions>
<speed>2.1</speed>
<temp>0.00</temp>
<bpm>0</bpm>
<rpm>0.00</rpm>
</extensions>
</trkpt>
<trkpt lat="63.868595123" lon="-21.758163452">
<ele>3.445557</ele>
<time>2012-07-28T13:52:46Z</time>
<speed>2.340000</speed>
<extensions>
<speed>2.3</speed>
<temp>0.00</temp>
<bpm>0</bpm>
<rpm>0.00</rpm>
</extensions>
</trkpt>
<trkpt lat="63.868629456" lon="-21.758419037">
<ele>4.146606</ele>
<time>2012-07-28T13:52:51Z</time>
<speed>2.910000</speed>
<extensions>
<speed>2.9</speed>
<temp>0.00</temp>
<bpm>0</bpm>
<rpm>0.00</rpm>
</extensions>
</trkpt>
<trkpt lat="63.868675232" lon="-21.758695602">
<ele>3.289551</ele>
<time>2012-07-28T13:52:56Z</time>
<speed>2.870000</speed>
<extensions>
<speed>2.9</speed>
<temp>0.00</temp>
<bpm>0</bpm>
<rpm>0.00</rpm>
</extensions>
</trkpt>
<trkpt lat="63.868713379" lon="-21.758922577">
<ele>3.604309</ele>
<time>2012-07-28T13:53:01Z</time>
<speed>1.650000</speed>
<extensions>
<speed>1.7</speed>
<temp>0.00</temp>
<bpm>0</bpm>
<rpm>0.00</rpm>
</extensions>
</trkpt>
<trkpt lat="63.868747711" lon="-21.759126663">
<ele>3.966980</ele>
<time>2012-07-28T13:53:06Z</time>
<speed>2.720000</speed>
<extensions>
<speed>2.7</speed>
<temp>0.00</temp>
<bpm>0</bpm>
<rpm>0.00</rpm>
</extensions>
</trkpt>
<trkpt lat="63.868797302" lon="-21.759382248">
<ele>4.237061</ele>
<time>2012-07-28T13:53:11Z</time>
<speed>2.490000</speed>
<extensions>
<speed>2.5</speed>
<temp>0.00</temp>
<bpm>0</bpm>
<rpm>0.00</rpm>
</extensions>
</trkpt>
<trkpt lat="63.868820190" lon="-21.759588242">
<ele>4.644775</ele>
<time>2012-07-28T13:53:16Z</time>
<speed>2.520000</speed>
<extensions>
<speed>2.5</speed>
<temp>0.00</temp>
<bpm>0</bpm>
<rpm>0.00</rpm>
</extensions>
</trkpt>
<trkpt lat="63.868862152" lon="-21.759836197">
<ele>4.370239</ele>
<time>2012-07-28T13:53:21Z</time>
<speed>2.900000</speed>
<extensions>
<speed>2.9</speed>
<temp>0.00</temp>
<bpm>0</bpm>
<rpm>0.00</rpm>
</extensions>
</trkpt>
<trkpt lat="63.868911743" lon="-21.760122299">
<ele>3.859070</ele>
<time>2012-07-28T13:53:26Z</time>
<speed>3.010000</speed>
<extensions>
<speed>3.0</speed>
<temp>0.00</temp>
<bpm>0</bpm>
<rpm>0.00</rpm>
</extensions>
</trkpt>
<trkpt lat="63.868957520" lon="-21.760368347">
<ele>4.451660</ele>
<time>2012-07-28T13:53:31Z</time>
<speed>2.490000</speed>
<extensions>
<speed>2.5</speed>
<temp>0.00</temp>
<bpm>0</bpm>
<rpm>0.00</rpm>
</extensions>
</trkpt>
<trkpt lat="63.868980408" lon="-21.760641098">
<ele>4.129517</ele>
<time>2012-07-28T13:53:36Z</time>
<speed>2.600000</speed>
<extensions>
<speed>2.6</speed>
<temp>0.00</temp>
<bpm>0</bpm>
<rpm>0.00</rpm>
</extensions>
</trkpt>
<trkpt lat="63.869010925" lon="-21.760885239">
<ele>4.748413</ele>
<time>2012-07-28T13:53:41Z</time>
<speed>2.660000</speed>
<extensions>
<speed>2.7</speed>
<temp>0.00</temp>
<bpm>0</bpm>
<rpm>0.00</rpm>
</extensions>
</trkpt>
<trkpt lat="63.869049072" lon="-21.761173248">
<ele>4.729614</ele>
<time>2012-07-28T13:53:46Z</time>
<speed>3.030000</speed>
<extensions>
<speed>3.0</speed>
<temp>0.00</temp>
<bpm>0</bpm>
<rpm>0.00</rpm>
</extensions>
</trkpt>
<trkpt lat="63.869094849" lon="-21.761442184">
<ele>4.219604</ele>
<time>2012-07-28T13:53:51Z</time>
<speed>2.270000</speed>
<extensions>
<speed>2.3</speed>
<temp>0.00</temp>
<bpm>0</bpm>
<rpm>0.00</rpm>
</extensions>
</trkpt>
<trkpt lat="63.869129181" lon="-21.761638641">
<ele>4.311523</ele>
<time>2012-07-28T13:53:56Z</time>
<speed>2.430000</speed>
<extensions>
<speed>2.4</speed>
<temp>0.00</temp>
<bpm>0</bpm>
<rpm>0.00</rpm>
</extensions>
</trkpt>
<trkpt lat="63.869182587" lon="-21.761928558">
<ele>4.323486</ele>
<time>2012-07-28T13:54:01Z</time>
<speed>3.070000</speed>
<extensions>
<speed>3.1</speed>
<temp>0.00</temp>
<bpm>0</bpm>
<rpm>0.00</rpm>
</extensions>
</trkpt>
<trkpt lat="63.869224548" lon="-21.762229919">
<ele>4.152832</ele>
<time>2012-07-28T13:54:06Z</time>
<speed>3.310000</speed>
<extensions>
<speed>3.3</speed>
<temp>0.00</temp>
<bpm>0</bpm>
<rpm>0.00</rpm>
</extensions>
</trkpt>
<trkpt lat="63.869247437" lon="-21.762542725">
<ele>4.351196</ele>
<time>2012-07-28T13:54:11Z</time>
<speed>2.680000</speed>
<extensions>
<speed>2.7</speed>
<temp>0.00</temp>
<bpm>0</bpm>
<rpm>0.00</rpm>
</extensions>
</trkpt>
<trkpt lat="63.869277954" lon="-21.762769699">
<ele>3.784546</ele>
<time>2012-07-28T13:54:16Z</time>
<speed>2.770000</speed>
<extensions>
<speed>2.8</speed>
<temp>0.00</temp>
<bpm>0</bpm>
<rpm>0.00</rpm>
</extensions>
</trkpt>
<trkpt lat="63.869327545" lon="-21.763061523">
<ele>4.323486</ele>
<time>2012-07-28T13:54:21Z</time>
<speed>2.910000</speed>
<extensions>
<speed>2.9</speed>
<temp>0.00</temp>
<bpm>0</bpm>
<rpm>0.00</rpm>
</extensions>
</trkpt>
<trkpt lat="63.869369507" lon="-21.763341904">
<ele>4.896484</ele>
<time>2012-07-28T13:54:26Z</time>
<speed>2.290000</speed>
<extensions>
<speed>2.3</speed>
<temp>0.00</temp>
<bpm>0</bpm>
<rpm>0.00</rpm>
</extensions>
</trkpt>
<trkpt lat="63.869400024" lon="-21.763582230">
<ele>6.969604</ele>
<time>2012-07-28T13:54:31Z</time>
<speed>2.770000</speed>
<extensions>
<speed>2.8</speed>
<temp>0.00</temp>
<bpm>0</bpm>
<rpm>0.00</rpm>
</extensions>
</trkpt>
<trkpt lat="63.869422913" lon="-21.763820648">
<ele>5.953247</ele>
<time>2012-07-28T13:54:36Z</time>
<speed>2.380000</speed>
<extensions>
<speed>2.4</speed>
<temp>0.00</temp>
<bpm>0</bpm>
<rpm>0.00</rpm>
</extensions>
</trkpt>
<trkpt lat="63.869449615" lon="-21.764034271">
<ele>6.863403</ele>
<time>2012-07-28T13:54:41Z</time>
<speed>2.340000</speed>
<extensions>
<speed>2.3</speed>
<temp>0.00</temp>
<bpm>0</bpm>
<rpm>0.00</rpm>
</extensions>
</trkpt>
<trkpt lat="63.869483948" lon="-21.764297485">
<ele>7.380859</ele>
<time>2012-07-28T13:54:46Z</time>
<speed>2.500000</speed>
<extensions>
<speed>2.5</speed>
<temp>0.00</temp>
<bpm>0</bpm>
<rpm>0.00</rpm>
</extensions>
</trkpt>
<trkpt lat="63.869522095" lon="-21.764467239">
<ele>8.534668</ele>
<time>2012-07-28T13:54:51Z</time>
<speed>2.070000</speed>
<extensions>
<speed>2.1</speed>
<temp>0.00</temp>
<bpm>0</bpm>
<rpm>0.00</rpm>
</extensions>
</trkpt>
<trkpt lat="63.869552612" lon="-21.764694214">
<ele>7.803711</ele>
<time>2012-07-28T13:54:56Z</time>
<speed>2.290000</speed>
<extensions>
<speed>2.3</speed>
<temp>0.00</temp>
<bpm>0</bpm>
<rpm>0.00</rpm>
</extensions>
</trkpt>
<trkpt lat="63.869586945" lon="-21.764902115">
<ele>7.820313</ele>
<time>2012-07-28T13:55:01Z</time>
<speed>2.330000</speed>
<extensions>
<speed>2.3</speed>
<temp>0.00</temp>
<bpm>0</bpm>
<rpm>0.00</rpm>
</extensions>
</trkpt>
<trkpt lat="63.869621277" lon="-21.765132904">
<ele>7.594727</ele>
<time>2012-07-28T13:55:06Z</time>
<speed>2.590000</speed>
<extensions>
<speed>2.6</speed>
<temp>0.00</temp>
<bpm>0</bpm>
<rpm>0.00</rpm>
</extensions>
</trkpt>
<trkpt lat="63.869647980" lon="-21.765396118">
<ele>8.217285</ele>
<time>2012-07-28T13:55:11Z</time>
<speed>2.740000</speed>
<extensions>
<speed>2.7</speed>
<temp>0.00</temp>
<bpm>0</bpm>
<rpm>0.00</rpm>
</extensions>
</trkpt>
<trkpt lat="63.869682312" lon="-21.765666962">
<ele>7.354980</ele>
<time>2012-07-28T13:55:16Z</time>
<speed>2.960000</speed>
<extensions>
<speed>3.0</speed>
<temp>0.00</temp>
<bpm>0</bpm>
<rpm>0.00</rpm>
</extensions>
</trkpt>
<trkpt lat="63.869724274" lon="-21.765970230">
<ele>7.975464</ele>
<time>2012-07-28T13:55:21Z</time>
<speed>3.220000</speed>
<extensions>
<speed>3.2</speed>
<temp>0.00</temp>
<bpm>0</bpm>
<rpm>0.00</rpm>
</extensions>
</trkpt>
<trkpt lat="63.869754791" lon="-21.766292572">
<ele>7.632446</ele>
<time>2012-07-28T13:55:26Z</time>
<speed>3.080000</speed>
<extensions>
<speed>3.1</speed>
<temp>0.00</temp>
<bpm>0</bpm>
<rpm>0.00</rpm>
</extensions>
</trkpt>
<trkpt lat="63.869785309" lon="-21.766571045">
<ele>7.940918</ele>
<time>2012-07-28T13:55:31Z</time>
<speed>2.880000</speed>
<extensions>
<speed>2.9</speed>
<temp>0.00</temp>
<bpm>0</bpm>
<rpm>0.00</rpm>
</extensions>
</trkpt>
<trkpt lat="63.869812012" lon="-21.766838074">
<ele>7.825928</ele>
<time>2012-07-28T13:55:36Z</time>
<speed>2.250000</speed>
<extensions>
<speed>2.3</speed>
<temp>0.00</temp>
<bpm>0</bpm>
<rpm>0.00</rpm>
</extensions>
</trkpt>
<trkpt lat="63.869842529" lon="-21.767068863">
<ele>7.140503</ele>
<time>2012-07-28T13:55:41Z</time>
<speed>2.530000</speed>
<extensions>
<speed>2.5</speed>
<temp>0.00</temp>
<bpm>0</bpm>
<rpm>0.00</rpm>
</extensions>
</trkpt>
<trkpt lat="63.869873047" lon="-21.767335892">
<ele>7.664063</ele>
<time>2012-07-28T13:55:46Z</time>
<speed>2.390000</speed>
<extensions>
<speed>2.4</speed>
<temp>0.00</temp>
<bpm>0</bpm>
<rpm>0.00</rpm>
</extensions>
</trkpt>
<trkpt lat="63.869907379" lon="-21.767612457">
<ele>8.352051</ele>
<time>2012-07-28T13:55:51Z</time>
<speed>2.890000</speed>
<extensions>
<speed>2.9</speed>
<temp>0.00</temp>
<bpm>0</bpm>
<rpm>0.00</rpm>
</extensions>
</trkpt>
<trkpt lat="63.869934082" lon="-21.767889023">
<ele>8.579590</ele>
<time>2012-07-28T13:55:56Z</time>
<speed>3.000000</speed>
<extensions>
<speed>3.0</speed>
<temp>0.00</temp>
<bpm>0</bpm>
<rpm>0.00</rpm>
</extensions>
</trkpt>
<trkpt lat="63.869964600" lon="-21.768175125">
<ele>7.454102</ele>
<time>2012-07-28T13:56:01Z</time>
<speed>3.000000</speed>
<extensions>
<speed>3.0</speed>
<temp>0.00</temp>
<bpm>0</bpm>
<rpm>0.00</rpm>
</extensions>
</trkpt>
<trkpt lat="63.870002747" lon="-21.768487930">
<ele>7.076904</ele>
<time>2012-07-28T13:56:06Z</time>
<speed>3.070000</speed>
<extensions>
<speed>3.1</speed>
<temp>0.00</temp>
<bpm>0</bpm>
<rpm>0.00</rpm>
</extensions>
</trkpt>
<trkpt lat="63.870033264" lon="-21.768785477">
<ele>6.723145</ele>
<time>2012-07-28T13:56:11Z</time>
<speed>3.050000</speed>
<extensions>
<speed>3.0</speed>
<temp>0.00</temp>
<bpm>0</bpm>
<rpm>0.00</rpm>
</extensions>
</trkpt>
<trkpt lat="63.870052338" lon="-21.769020081">
<ele>7.354614</ele>
<time>2012-07-28T13:56:16Z</time>
<speed>2.090000</speed>
<extensions>
<speed>2.1</speed>
<temp>0.00</temp>
<bpm>0</bpm>
<rpm>0.00</rpm>
</extensions>
</trkpt>
<trkpt lat="63.870086670" lon="-21.769292831">
<ele>8.696045</ele>
<time>2012-07-28T13:56:21Z</time>
<speed>2.670000</speed>
<extensions>
<speed>2.7</speed>
<temp>0.00</temp>
<bpm>0</bpm>
<rpm>0.00</rpm>
</extensions>
</trkpt>
<trkpt lat="63.870117188" lon="-21.769586563">
<ele>8.044922</ele>
<time>2012-07-28T13:56:26Z</time>
<speed>2.900000</speed>
<extensions>
<speed>2.9</speed>
<temp>0.00</temp>
<bpm>0</bpm>
<rpm>0.00</rpm>
</extensions>
</trkpt>
<trkpt lat="63.870140076" lon="-21.769838333">
<ele>8.710693</ele>
<time>2012-07-28T13:56:31Z</time>
<speed>2.260000</speed>
<extensions>
<speed>2.3</speed>
<temp>0.00</temp>
<bpm>0</bpm>
<rpm>0.00</rpm>
</extensions>
</trkpt>
<trkpt lat="63.870182037" lon="-21.770095825">
<ele>9.126465</ele>
<time>2012-07-28T13:56:36Z</time>
<speed>2.310000</speed>
<extensions>
<speed>2.3</speed>
<temp>0.00</temp>
<bpm>0</bpm>
<rpm>0.00</rpm>
</extensions>
</trkpt>
<trkpt lat="63.870201111" lon="-21.770317078">
<ele>7.869507</ele>
<time>2012-07-28T13:56:41Z</time>
<speed>2.670000</speed>
<extensions>
<speed>2.7</speed>
<temp>0.00</temp>
<bpm>0</bpm>
<rpm>0.00</rpm>
</extensions>
</trkpt>
<trkpt lat="63.870212555" lon="-21.770555496">
<ele>6.057983</ele>
<time>2012-07-28T13:56:46Z</time>
<speed>2.720000</speed>
<extensions>
<speed>2.7</speed>
<temp>0.00</temp>
<bpm>0</bpm>
<rpm>0.00</rpm>
</extensions>
</trkpt>
<trkpt lat="63.870254517" lon="-21.770824432">
<ele>6.830322</ele>
<time>2012-07-28T13:56:51Z</time>
<speed>2.390000</speed>
<extensions>
<speed>2.4</speed>
<temp>0.00</temp>
<bpm>0</bpm>
<rpm>0.00</rpm>
</extensions>
</trkpt>
<trkpt lat="63.870265961" lon="-21.771068573">
<ele>8.516113</ele>
<time>2012-07-28T13:56:56Z</time>
<speed>2.360000</speed>
<extensions>
<speed>2.4</speed>
<temp>0.00</temp>
<bpm>0</bpm>
<rpm>0.00</rpm>
</extensions>
</trkpt>
<trkpt lat="63.870292664" lon="-21.771360397">
<ele>11.206787</ele>
<time>2012-07-28T13:57:01Z</time>
<speed>2.830000</speed>
<extensions>
<speed>2.8</speed>
<temp>0.00</temp>
<bpm>0</bpm>
<rpm>0.00</rpm>
</extensions>
</trkpt>
<trkpt lat="63.870342255" lon="-21.771665573">
<ele>11.032227</ele>
<time>2012-07-28T13:57:06Z</time>
<speed>3.320000</speed>
<extensions>
<speed>3.3</speed>
<temp>0.00</temp>
<bpm>0</bpm>
<rpm>0.00</rpm>
</extensions>
</trkpt>
<trkpt lat="63.870361328" lon="-21.771924973">
<ele>10.681152</ele>
<time>2012-07-28T13:57:11Z</time>
<speed>2.540000</speed>
<extensions>
<speed>2.5</speed>
<temp>0.00</temp>
<bpm>0</bpm>
<rpm>0.00</rpm>
</extensions>
</trkpt>
<trkpt lat="63.870372772" lon="-21.772214890">
<ele>8.075684</ele>
<time>2012-07-28T13:57:16Z</time>
<speed>2.960000</speed>
<extensions>
<speed>3.0</speed>
<temp>0.00</temp>
<bpm>0</bpm>
<rpm>0.00</rpm>
</extensions>
</trkpt>
<trkpt lat="63.870403290" lon="-21.772527695">
<ele>8.226563</ele>
<time>2012-07-28T13:57:21Z</time>
<speed>3.090000</speed>
<extensions>
<speed>3.1</speed>
<temp>0.00</temp>
<bpm>0</bpm>
<rpm>0.00</rpm>
</extensions>
</trkpt>
<trkpt lat="63.870437622" lon="-21.772851944">
<ele>8.959717</ele>
<time>2012-07-28T13:57:26Z</time>
<speed>2.490000</speed>
<extensions>
<speed>2.5</speed>
<temp>0.00</temp>
<bpm>0</bpm>
<rpm>0.00</rpm>
</extensions>
</trkpt>
<trkpt lat="63.870460510" lon="-21.773080826">
<ele>9.373535</ele>
<time>2012-07-28T13:57:31Z</time>
<speed>2.510000</speed>
<extensions>
<speed>2.5</speed>
<temp>0.00</temp>
<bpm>0</bpm>
<rpm>0.00</rpm>
</extensions>
</trkpt>
<trkpt lat="63.870487213" lon="-21.773359299">
<ele>8.611816</ele>
<time>2012-07-28T13:57:36Z</time>
<speed>2.580000</speed>
<extensions>
<speed>2.6</speed>
<temp>0.00</temp>
<bpm>0</bpm>
<rpm>0.00</rpm>
</extensions>
</trkpt>
<trkpt lat="63.870483398" lon="-21.773555756">
<ele>7.072144</ele>
<time>2012-07-28T13:57:41Z</time>
<speed>2.490000</speed>
<extensions>
<speed>2.5</speed>
<temp>0.00</temp>
<bpm>0</bpm>
<rpm>0.00</rpm>
</extensions>
</trkpt>
<trkpt lat="63.870498657" lon="-21.773788452">
<ele>5.734009</ele>
<time>2012-07-28T13:57:46Z</time>
<speed>2.390000</speed>
<extensions>
<speed>2.4</speed>
<temp>0.00</temp>
<bpm>0</bpm>
<rpm>0.00</rpm>
</extensions>
</trkpt>
<trkpt lat="63.870521545" lon="-21.774055481">
<ele>6.182983</ele>
<time>2012-07-28T13:57:51Z</time>
<speed>2.580000</speed>
<extensions>
<speed>2.6</speed>
<temp>0.00</temp>
<bpm>0</bpm>
<rpm>0.00</rpm>
</extensions>
</trkpt>
<trkpt lat="63.870544434" lon="-21.774332047">
<ele>6.348022</ele>
<time>2012-07-28T13:57:56Z</time>
<speed>2.840000</speed>
<extensions>
<speed>2.8</speed>
<temp>0.00</temp>
<bpm>0</bpm>
<rpm>0.00</rpm>
</extensions>
</trkpt>
<trkpt lat="63.870571136" lon="-21.774560928">
<ele>4.908325</ele>
<time>2012-07-28T13:58:01Z</time>
<speed>1.310000</speed>
<extensions>
<speed>1.3</speed>
<temp>0.00</temp>
<bpm>0</bpm>
<rpm>0.00</rpm>
</extensions>
</trkpt>
<trkpt lat="63.870590210" lon="-21.774755478">
<ele>3.450378</ele>
<time>2012-07-28T13:58:06Z</time>
<speed>2.570000</speed>
<extensions>
<speed>2.6</speed>
<temp>0.00</temp>
<bpm>0</bpm>
<rpm>0.00</rpm>
</extensions>
</trkpt>
<trkpt lat="63.870616913" lon="-21.775047302">
<ele>3.973206</ele>
<time>2012-07-28T13:58:11Z</time>
<speed>2.690000</speed>
<extensions>
<speed>2.7</speed>
<temp>0.00</temp>
<bpm>0</bpm>
<rpm>0.00</rpm>
</extensions>
</trkpt>
<trkpt lat="63.870632172" lon="-21.775335312">
<ele>5.131470</ele>
<time>2012-07-28T13:58:16Z</time>
<speed>2.560000</speed>
<extensions>
<speed>2.6</speed>
<temp>0.00</temp>
<bpm>0</bpm>
<rpm>0.00</rpm>
</extensions>
</trkpt>
<trkpt lat="63.870639801" lon="-21.775617599">
<ele>5.790161</ele>
<time>2012-07-28T13:58:21Z</time>
<speed>2.790000</speed>
<extensions>
<speed>2.8</speed>
<temp>0.00</temp>
<bpm>0</bpm>
<rpm>0.00</rpm>
</extensions>
</trkpt>
<trkpt lat="63.870658875" lon="-21.775926590">
<ele>8.573975</ele>
<time>2012-07-28T13:58:26Z</time>
<speed>2.880000</speed>
<extensions>
<speed>2.9</speed>
<temp>0.00</temp>
<bpm>0</bpm>
<rpm>0.00</rpm>
</extensions>
</trkpt>
<trkpt lat="63.870697021" lon="-21.776237488">
<ele>9.278076</ele>
<time>2012-07-28T13:58:31Z</time>
<speed>3.040000</speed>
<extensions>
<speed>3.0</speed>
<temp>0.00</temp>
<bpm>0</bpm>
<rpm>0.00</rpm>
</extensions>
</trkpt>
<trkpt lat="63.870716095" lon="-21.776531219">
<ele>8.730713</ele>
<time>2012-07-28T13:58:36Z</time>
<speed>3.220000</speed>
<extensions>
<speed>3.2</speed>
<temp>0.00</temp>
<bpm>0</bpm>
<rpm>0.00</rpm>
</extensions>
</trkpt>
<trkpt lat="63.870731354" lon="-21.776742935">
<ele>9.802490</ele>
<time>2012-07-28T13:58:41Z</time>
<speed>1.160000</speed>
<extensions>
<speed>1.2</speed>
<temp>0.00</temp>
<bpm>0</bpm>
<rpm>0.00</rpm>
</extensions>
</trkpt>
<trkpt lat="63.870750427" lon="-21.776851654">
<ele>9.163574</ele>
<time>2012-07-28T13:58:46Z</time>
<speed>1.310000</speed>
<extensions>
<speed>1.3</speed>
<temp>0.00</temp>
<bpm>0</bpm>
<rpm>0.00</rpm>
</extensions>
</trkpt>
<trkpt lat="63.870765686" lon="-21.777063370">
<ele>8.305908</ele>
<time>2012-07-28T13:58:51Z</time>
<speed>2.680000</speed>
<extensions>
<speed>2.7</speed>
<temp>0.00</temp>
<bpm>0</bpm>
<rpm>0.00</rpm>
</extensions>
</trkpt>
<trkpt lat="63.870784760" lon="-21.777366638">
<ele>8.607910</ele>
<time>2012-07-28T13:58:56Z</time>
<speed>3.100000</speed>
<extensions>
<speed>3.1</speed>
<temp>0.00</temp>
<bpm>0</bpm>
<rpm>0.00</rpm>
</extensions>
</trkpt>
<trkpt lat="63.870788574" lon="-21.777660370">
<ele>7.996216</ele>
<time>2012-07-28T13:59:01Z</time>
<speed>2.870000</speed>
<extensions>
<speed>2.9</speed>
<temp>0.00</temp>
<bpm>0</bpm>
<rpm>0.00</rpm>
</extensions>
</trkpt>
<trkpt lat="63.870811462" lon="-21.777894974">
<ele>8.740967</ele>
<time>2012-07-28T13:59:06Z</time>
<speed>1.410000</speed>
<extensions>
<speed>1.4</speed>
<temp>0.00</temp>
<bpm>0</bpm>
<rpm>0.00</rpm>
</extensions>
</trkpt>
<trkpt lat="63.870830536" lon="-21.778009415">
<ele>9.666260</ele>
<time>2012-07-28T13:59:11Z</time>
<speed>2.300000</speed>
<extensions>
<speed>2.3</speed>
<temp>0.00</temp>
<bpm>0</bpm>
<rpm>0.00</rpm>
</extensions>
</trkpt>
<trkpt lat="63.870838165" lon="-21.778305054">
<ele>10.470703</ele>
<time>2012-07-28T13:59:16Z</time>
<speed>2.790000</speed>
<extensions>
<speed>2.8</speed>
<temp>0.00</temp>
<bpm>0</bpm>
<rpm>0.00</rpm>
</extensions>
</trkpt>
<trkpt lat="63.870841980" lon="-21.778577805">
<ele>11.036133</ele>
<time>2012-07-28T13:59:21Z</time>
<speed>2.520000</speed>
<extensions>
<speed>2.5</speed>
<temp>0.00</temp>
<bpm>0</bpm>
<rpm>0.00</rpm>
</extensions>
</trkpt>
<trkpt lat="63.870857239" lon="-21.778818130">
<ele>10.583496</ele>
<time>2012-07-28T13:59:26Z</time>
<speed>1.600000</speed>
<extensions>
<speed>1.6</speed>
<temp>0.00</temp>
<bpm>0</bpm>
<rpm>0.00</rpm>
</extensions>
</trkpt>
<trkpt lat="63.870841980" lon="-21.779005051">
<ele>10.322754</ele>
<time>2012-07-28T13:59:31Z</time>
<speed>2.090000</speed>
<extensions>
<speed>2.1</speed>
<temp>0.00</temp>
<bpm>0</bpm>
<rpm>0.00</rpm>
</extensions>
</trkpt>
<trkpt lat="63.870838165" lon="-21.779174805">
<ele>8.483643</ele>
<time>2012-07-28T13:59:36Z</time>
<speed>1.180000</speed>
<extensions>
<speed>1.2</speed>
<temp>0.00</temp>
<bpm>0</bpm>
<rpm>0.00</rpm>
</extensions>
</trkpt>
<trkpt lat="63.870845795" lon="-21.779262543">
<ele>7.974731</ele>
<time>2012-07-28T13:59:41Z</time>
<speed>0.470000</speed>
<extensions>
<speed>0.5</speed>
<temp>0.00</temp>
<bpm>0</bpm>
<rpm>0.00</rpm>
</extensions>
</trkpt>
<trkpt lat="63.870883942" lon="-21.779308319">
<ele>7.297852</ele>
<time>2012-07-28T13:59:46Z</time>
<speed>0.650000</speed>
<extensions>
<speed>0.6</speed>
<temp>0.00</temp>
<bpm>0</bpm>
<rpm>0.00</rpm>
</extensions>
</trkpt>
<trkpt lat="63.870899200" lon="-21.779310226">
<ele>7.985107</ele>
<time>2012-07-28T13:59:51Z</time>
<speed>0.090000</speed>
<extensions>
<speed>0.1</speed>
<temp>0.00</temp>
<bpm>0</bpm>
<rpm>0.00</rpm>
</extensions>
</trkpt>
<trkpt lat="63.870899200" lon="-21.779312134">
<ele>8.350342</ele>
<time>2012-07-28T13:59:56Z</time>
<speed>0.640000</speed>
<extensions>
<speed>0.6</speed>
<temp>0.00</temp>
<bpm>0</bpm>
<rpm>0.00</rpm>
</extensions>
</trkpt>
<trkpt lat="63.870910645" lon="-21.779388428">
<ele>9.385742</ele>
<time>2012-07-28T14:00:01Z</time>
<speed>0.370000</speed>
<extensions>
<speed>0.4</speed>
<temp>0.00</temp>
<bpm>0</bpm>
<rpm>0.00</rpm>
</extensions>
</trkpt>
<trkpt lat="63.870914459" lon="-21.779403687">
<ele>10.171875</ele>
<time>2012-07-28T14:00:06Z</time>
<speed>0.020000</speed>
<extensions>
<speed>0.0</speed>
<temp>0.00</temp>
<bpm>0</bpm>
<rpm>0.00</rpm>
</extensions>
</trkpt>
<trkpt lat="63.870918274" lon="-21.779405594">
<ele>10.177734</ele>
<time>2012-07-28T14:00:11Z</time>
<speed>0.090000</speed>
<extensions>
<speed>0.1</speed>
<temp>0.00</temp>
<bpm>0</bpm>
<rpm>0.00</rpm>
</extensions>
</trkpt>
<trkpt lat="63.870918274" lon="-21.779405594">
<ele>10.178467</ele>
<time>2012-07-28T14:00:16Z</time>
<speed>0.020000</speed>
<extensions>
<speed>0.0</speed>
<temp>0.00</temp>
<bpm>0</bpm>
<rpm>0.00</rpm>
</extensions>
</trkpt>
<trkpt lat="63.870918274" lon="-21.779405594">
<ele>10.183838</ele>
<time>2012-07-28T14:00:21Z</time>
<speed>0.010000</speed>
<extensions>
<speed>0.0</speed>
<temp>0.00</temp>
<bpm>0</bpm>
<rpm>0.00</rpm>
</extensions>
</trkpt>
<trkpt lat="63.870918274" lon="-21.779405594">
<ele>10.188721</ele>
<time>2012-07-28T14:00:26Z</time>
<speed>0.010000</speed>
<extensions>
<speed>0.0</speed>
<temp>0.00</temp>
<bpm>0</bpm>
<rpm>0.00</rpm>
</extensions>
</trkpt>
<trkpt lat="63.870918274" lon="-21.779405594">
<ele>10.197754</ele>
<time>2012-07-28T14:00:31Z</time>
<extensions>
<speed>0.0</speed>
<temp>0.00</temp>
<bpm>0</bpm>
<rpm>0.00</rpm>
</extensions>
</trkpt>
<trkpt lat="63.870918274" lon="-21.779405594">
<ele>10.207031</ele>
<time>2012-07-28T14:00:36Z</time>
<extensions>
<speed>0.0</speed>
<temp>0.00</temp>
<bpm>0</bpm>
<rpm>0.00</rpm>
</extensions>
</trkpt>
<trkpt lat="63.870918274" lon="-21.779405594">
<ele>10.207031</ele>
<time>2012-07-28T14:00:41Z</time>
<extensions>
<speed>0.0</speed>
<temp>0.00</temp>
<bpm>0</bpm>
<rpm>0.00</rpm>
</extensions>
</trkpt>
<trkpt lat="63.870918274" lon="-21.779405594">
<ele>10.211914</ele>
<time>2012-07-28T14:00:46Z</time>
<extensions>
<speed>0.0</speed>
<temp>0.00</temp>
<bpm>0</bpm>
<rpm>0.00</rpm>
</extensions>
</trkpt>
<trkpt lat="63.870918274" lon="-21.779405594">
<ele>10.218994</ele>
<time>2012-07-28T14:00:51Z</time>
<extensions>
<speed>0.0</speed>
<temp>0.00</temp>
<bpm>0</bpm>
<rpm>0.00</rpm>
</extensions>
</trkpt>
<trkpt lat="63.870918274" lon="-21.779405594">
<ele>10.227539</ele>
<time>2012-07-28T14:00:56Z</time>
<extensions>
<speed>0.0</speed>
<temp>0.00</temp>
<bpm>0</bpm>
<rpm>0.00</rpm>
</extensions>
</trkpt>
<trkpt lat="63.870918274" lon="-21.779405594">
<ele>10.226318</ele>
<time>2012-07-28T14:01:01Z</time>
<extensions>
<speed>0.0</speed>
<temp>0.00</temp>
<bpm>0</bpm>
<rpm>0.00</rpm>
</extensions>
</trkpt>
<trkpt lat="63.870918274" lon="-21.779405594">
<ele>10.219482</ele>
<time>2012-07-28T14:01:06Z</time>
<extensions>
<speed>0.0</speed>
<temp>0.00</temp>
<bpm>0</bpm>
<rpm>0.00</rpm>
</extensions>
</trkpt>
<trkpt lat="63.870918274" lon="-21.779405594">
<ele>10.212891</ele>
<time>2012-07-28T14:01:11Z</time>
<extensions>
<speed>0.0</speed>
<temp>0.00</temp>
<bpm>0</bpm>
<rpm>0.00</rpm>
</extensions>
</trkpt>
<trkpt lat="63.870918274" lon="-21.779405594">
<ele>10.211914</ele>
<time>2012-07-28T14:01:16Z</time>
<extensions>
<speed>0.0</speed>
<temp>0.00</temp>
<bpm>0</bpm>
<rpm>0.00</rpm>
</extensions>
</trkpt>
<trkpt lat="63.870918274" lon="-21.779405594">
<ele>10.211914</ele>
<time>2012-07-28T14:01:21Z</time>
<speed>0.010000</speed>
<extensions>
<speed>0.0</speed>
<temp>0.00</temp>
<bpm>0</bpm>
<rpm>0.00</rpm>
</extensions>
</trkpt>
<trkpt lat="63.870918274" lon="-21.779405594">
<ele>10.210938</ele>
<time>2012-07-28T14:01:26Z</time>
<speed>0.010000</speed>
<extensions>
<speed>0.0</speed>
<temp>0.00</temp>
<bpm>0</bpm>
<rpm>0.00</rpm>
</extensions>
</trkpt>
<trkpt lat="63.870918274" lon="-21.779405594">
<ele>10.199951</ele>
<time>2012-07-28T14:01:31Z</time>
<speed>0.010000</speed>
<extensions>
<speed>0.0</speed>
<temp>0.00</temp>
<bpm>0</bpm>
<rpm>0.00</rpm>
</extensions>
</trkpt>
<trkpt lat="63.870918274" lon="-21.779405594">
<ele>10.193359</ele>
<time>2012-07-28T14:01:36Z</time>
<speed>0.010000</speed>
<extensions>
<speed>0.0</speed>
<temp>0.00</temp>
<bpm>0</bpm>
<rpm>0.00</rpm>
</extensions>
</trkpt>
<trkpt lat="63.870918274" lon="-21.779405594">
<ele>10.186768</ele>
<time>2012-07-28T14:01:41Z</time>
<extensions>
<speed>0.0</speed>
<temp>0.00</temp>
<bpm>0</bpm>
<rpm>0.00</rpm>
</extensions>
</trkpt>
<trkpt lat="63.870918274" lon="-21.779405594">
<ele>10.182129</ele>
<time>2012-07-28T14:01:46Z</time>
<speed>0.010000</speed>
<extensions>
<speed>0.0</speed>
<temp>0.00</temp>
<bpm>0</bpm>
<rpm>0.00</rpm>
</extensions>
</trkpt>
<trkpt lat="63.870918274" lon="-21.779405594">
<ele>10.176270</ele>
<time>2012-07-28T14:01:51Z</time>
<speed>0.010000</speed>
<extensions>
<speed>0.0</speed>
<temp>0.00</temp>
<bpm>0</bpm>
<rpm>0.00</rpm>
</extensions>
</trkpt>
<trkpt lat="63.870918274" lon="-21.779405594">
<ele>10.177246</ele>
<time>2012-07-28T14:01:56Z</time>
<speed>0.010000</speed>
<extensions>
<speed>0.0</speed>
<temp>0.00</temp>
<bpm>0</bpm>
<rpm>0.00</rpm>
</extensions>
</trkpt>
<trkpt lat="63.870918274" lon="-21.779405594">
<ele>10.174072</ele>
<time>2012-07-28T14:02:01Z</time>
<extensions>
<speed>0.0</speed>
<temp>0.00</temp>
<bpm>0</bpm>
<rpm>0.00</rpm>
</extensions>
</trkpt>
<trkpt lat="63.870918274" lon="-21.779405594">
<ele>10.171875</ele>
<time>2012-07-28T14:02:06Z</time>
<extensions>
<speed>0.0</speed>
<temp>0.00</temp>
<bpm>0</bpm>
<rpm>0.00</rpm>
</extensions>
</trkpt>
<trkpt lat="63.870918274" lon="-21.779405594">
<ele>10.180176</ele>
<time>2012-07-28T14:02:11Z</time>
<extensions>
<speed>0.0</speed>
<temp>0.00</temp>
<bpm>0</bpm>
<rpm>0.00</rpm>
</extensions>
</trkpt>
<trkpt lat="63.870918274" lon="-21.779405594">
<ele>10.181396</ele>
<time>2012-07-28T14:02:16Z</time>
<extensions>
<speed>0.0</speed>
<temp>0.00</temp>
<bpm>0</bpm>
<rpm>0.00</rpm>
</extensions>
</trkpt>
<trkpt lat="63.870918274" lon="-21.779405594">
<ele>10.182129</ele>
<time>2012-07-28T14:02:21Z</time>
<extensions>
<speed>0.0</speed>
<temp>0.00</temp>
<bpm>0</bpm>
<rpm>0.00</rpm>
</extensions>
</trkpt>
<trkpt lat="63.870918274" lon="-21.779405594">
<ele>10.183105</ele>
<time>2012-07-28T14:02:26Z</time>
<extensions>
<speed>0.0</speed>
<temp>0.00</temp>
<bpm>0</bpm>
<rpm>0.00</rpm>
</extensions>
</trkpt>
<trkpt lat="63.870918274" lon="-21.779405594">
<ele>10.178711</ele>
<time>2012-07-28T14:02:31Z</time>
<speed>0.010000</speed>
<extensions>
<speed>0.0</speed>
<temp>0.00</temp>
<bpm>0</bpm>
<rpm>0.00</rpm>
</extensions>
</trkpt>
<trkpt lat="63.870918274" lon="-21.779405594">
<ele>10.168457</ele>
<time>2012-07-28T14:02:36Z</time>
<extensions>
<speed>0.0</speed>
<temp>0.00</temp>
<bpm>0</bpm>
<rpm>0.00</rpm>
</extensions>
</trkpt>
<trkpt lat="63.870918274" lon="-21.779405594">
<ele>10.169434</ele>
<time>2012-07-28T14:02:41Z</time>
<extensions>
<speed>0.0</speed>
<temp>0.00</temp>
<bpm>0</bpm>
<rpm>0.00</rpm>
</extensions>
</trkpt>
<trkpt lat="63.870918274" lon="-21.779405594">
<ele>10.163330</ele>
<time>2012-07-28T14:02:46Z</time>
<extensions>
<speed>0.0</speed>
<temp>0.00</temp>
<bpm>0</bpm>
<rpm>0.00</rpm>
</extensions>
</trkpt>
<trkpt lat="63.870918274" lon="-21.779405594">
<ele>10.159668</ele>
<time>2012-07-28T14:02:51Z</time>
<extensions>
<speed>0.0</speed>
<temp>0.00</temp>
<bpm>0</bpm>
<rpm>0.00</rpm>
</extensions>
</trkpt>
<trkpt lat="63.870918274" lon="-21.779405594">
<ele>10.151611</ele>
<time>2012-07-28T14:02:56Z</time>
<extensions>
<speed>0.0</speed>
<temp>0.00</temp>
<bpm>0</bpm>
<rpm>0.00</rpm>
</extensions>
</trkpt>
<trkpt lat="63.870918274" lon="-21.779405594">
<ele>10.155273</ele>
<time>2012-07-28T14:03:01Z</time>
<extensions>
<speed>0.0</speed>
<temp>0.00</temp>
<bpm>0</bpm>
<rpm>0.00</rpm>
</extensions>
</trkpt>
<trkpt lat="63.870918274" lon="-21.779405594">
<ele>10.163818</ele>
<time>2012-07-28T14:03:06Z</time>
<extensions>
<speed>0.0</speed>
<temp>0.00</temp>
<bpm>0</bpm>
<rpm>0.00</rpm>
</extensions>
</trkpt>
<trkpt lat="63.870918274" lon="-21.779407501">
<ele>10.172119</ele>
<time>2012-07-28T14:03:11Z</time>
<speed>0.010000</speed>
<extensions>
<speed>0.0</speed>
<temp>0.00</temp>
<bpm>0</bpm>
<rpm>0.00</rpm>
</extensions>
</trkpt>
<trkpt lat="63.870918274" lon="-21.779407501">
<ele>10.177734</ele>
<time>2012-07-28T14:03:16Z</time>
<extensions>
<speed>0.0</speed>
<temp>0.00</temp>
<bpm>0</bpm>
<rpm>0.00</rpm>
</extensions>
</trkpt>
<trkpt lat="63.870918274" lon="-21.779407501">
<ele>10.190918</ele>
<time>2012-07-28T14:03:21Z</time>
<extensions>
<speed>0.0</speed>
<temp>0.00</temp>
<bpm>0</bpm>
<rpm>0.00</rpm>
</extensions>
</trkpt>
<trkpt lat="63.870918274" lon="-21.779407501">
<ele>10.193359</ele>
<time>2012-07-28T14:03:26Z</time>
<extensions>
<speed>0.0</speed>
<temp>0.00</temp>
<bpm>0</bpm>
<rpm>0.00</rpm>
</extensions>
</trkpt>
<trkpt lat="63.870918274" lon="-21.779407501">
<ele>10.198975</ele>
<time>2012-07-28T14:03:31Z</time>
<extensions>
<speed>0.0</speed>
<temp>0.00</temp>
<bpm>0</bpm>
<rpm>0.00</rpm>
</extensions>
</trkpt>
<trkpt lat="63.870918274" lon="-21.779407501">
<ele>10.207031</ele>
<time>2012-07-28T14:03:36Z</time>
<extensions>
<speed>0.0</speed>
<temp>0.00</temp>
<bpm>0</bpm>
<rpm>0.00</rpm>
</extensions>
</trkpt>
<trkpt lat="63.870918274" lon="-21.779407501">
<ele>10.211426</ele>
<time>2012-07-28T14:03:41Z</time>
<speed>0.010000</speed>
<extensions>
<speed>0.0</speed>
<temp>0.00</temp>
<bpm>0</bpm>
<rpm>0.00</rpm>
</extensions>
</trkpt>
<trkpt lat="63.870918274" lon="-21.779407501">
<ele>10.218262</ele>
<time>2012-07-28T14:03:46Z</time>
<extensions>
<speed>0.0</speed>
<temp>0.00</temp>
<bpm>0</bpm>
<rpm>0.00</rpm>
</extensions>
</trkpt>
<trkpt lat="63.870918274" lon="-21.779407501">
<ele>10.233643</ele>
<time>2012-07-28T14:03:51Z</time>
<extensions>
<speed>0.0</speed>
<temp>0.00</temp>
<bpm>0</bpm>
<rpm>0.00</rpm>
</extensions>
</trkpt>
<trkpt lat="63.870918274" lon="-21.779407501">
<ele>10.239014</ele>
<time>2012-07-28T14:03:56Z</time>
<extensions>
<speed>0.0</speed>
<temp>0.00</temp>
<bpm>0</bpm>
<rpm>0.00</rpm>
</extensions>
</trkpt>
<trkpt lat="63.870918274" lon="-21.779407501">
<ele>10.247559</ele>
<time>2012-07-28T14:04:01Z</time>
<extensions>
<speed>0.0</speed>
<temp>0.00</temp>
<bpm>0</bpm>
<rpm>0.00</rpm>
</extensions>
</trkpt>
<trkpt lat="63.870922089" lon="-21.779407501">
<ele>10.254639</ele>
<time>2012-07-28T14:04:06Z</time>
<extensions>
<speed>0.0</speed>
<temp>0.00</temp>
<bpm>0</bpm>
<rpm>0.00</rpm>
</extensions>
</trkpt>
<trkpt lat="63.870922089" lon="-21.779407501">
<ele>10.268066</ele>
<time>2012-07-28T14:04:11Z</time>
<extensions>
<speed>0.0</speed>
<temp>0.00</temp>
<bpm>0</bpm>
<rpm>0.00</rpm>
</extensions>
</trkpt>
<trkpt lat="63.870922089" lon="-21.779407501">
<ele>10.275391</ele>
<time>2012-07-28T14:04:16Z</time>
<speed>0.010000</speed>
<extensions>
<speed>0.0</speed>
<temp>0.00</temp>
<bpm>0</bpm>
<rpm>0.00</rpm>
</extensions>
</trkpt>
<trkpt lat="63.870922089" lon="-21.779407501">
<ele>10.274902</ele>
<time>2012-07-28T14:04:21Z</time>
<extensions>
<speed>0.0</speed>
<temp>0.00</temp>
<bpm>0</bpm>
<rpm>0.00</rpm>
</extensions>
</trkpt>
<trkpt lat="63.870922089" lon="-21.779407501">
<ele>10.279053</ele>
<time>2012-07-28T14:04:26Z</time>
<speed>0.010000</speed>
<extensions>
<speed>0.0</speed>
<temp>0.00</temp>
<bpm>0</bpm>
<rpm>0.00</rpm>
</extensions>
</trkpt>
<trkpt lat="63.870922089" lon="-21.779407501">
<ele>10.276123</ele>
<time>2012-07-28T14:04:31Z</time>
<extensions>
<speed>0.0</speed>
<temp>0.00</temp>
<bpm>0</bpm>
<rpm>0.00</rpm>
</extensions>
</trkpt>
<trkpt lat="63.870922089" lon="-21.779407501">
<ele>10.268311</ele>
<time>2012-07-28T14:04:36Z</time>
<extensions>
<speed>0.0</speed>
<temp>0.00</temp>
<bpm>0</bpm>
<rpm>0.00</rpm>
</extensions>
</trkpt>
<trkpt lat="63.870922089" lon="-21.779407501">
<ele>10.278809</ele>
<time>2012-07-28T14:04:41Z</time>
<extensions>
<speed>0.0</speed>
<temp>0.00</temp>
<bpm>0</bpm>
<rpm>0.00</rpm>
</extensions>
</trkpt>
<trkpt lat="63.870922089" lon="-21.779407501">
<ele>10.289063</ele>
<time>2012-07-28T14:04:46Z</time>
<extensions>
<speed>0.0</speed>
<temp>0.00</temp>
<bpm>0</bpm>
<rpm>0.00</rpm>
</extensions>
</trkpt>
<trkpt lat="63.870922089" lon="-21.779407501">
<ele>10.307129</ele>
<time>2012-07-28T14:04:51Z</time>
<extensions>
<speed>0.0</speed>
<temp>0.00</temp>
<bpm>0</bpm>
<rpm>0.00</rpm>
</extensions>
</trkpt>
<trkpt lat="63.870922089" lon="-21.779407501">
<ele>10.319336</ele>
<time>2012-07-28T14:04:56Z</time>
<extensions>
<speed>0.0</speed>
<temp>0.00</temp>
<bpm>0</bpm>
<rpm>0.00</rpm>
</extensions>
</trkpt>
<trkpt lat="63.870922089" lon="-21.779407501">
<ele>10.342773</ele>
<time>2012-07-28T14:05:01Z</time>
<extensions>
<speed>0.0</speed>
<temp>0.00</temp>
<bpm>0</bpm>
<rpm>0.00</rpm>
</extensions>
</trkpt>
<trkpt lat="63.870922089" lon="-21.779407501">
<ele>10.364502</ele>
<time>2012-07-28T14:05:06Z</time>
<extensions>
<speed>0.0</speed>
<temp>0.00</temp>
<bpm>0</bpm>
<rpm>0.00</rpm>
</extensions>
</trkpt>
<trkpt lat="63.870922089" lon="-21.779407501">
<ele>10.383545</ele>
<time>2012-07-28T14:05:11Z</time>
<extensions>
<speed>0.0</speed>
<temp>0.00</temp>
<bpm>0</bpm>
<rpm>0.00</rpm>
</extensions>
</trkpt>
<trkpt lat="63.870922089" lon="-21.779407501">
<ele>10.400391</ele>
<time>2012-07-28T14:05:16Z</time>
<speed>0.010000</speed>
<extensions>
<speed>0.0</speed>
<temp>0.00</temp>
<bpm>0</bpm>
<rpm>0.00</rpm>
</extensions>
</trkpt>
<trkpt lat="63.870922089" lon="-21.779407501">
<ele>10.421875</ele>
<time>2012-07-28T14:05:21Z</time>
<extensions>
<speed>0.0</speed>
<temp>0.00</temp>
<bpm>0</bpm>
<rpm>0.00</rpm>
</extensions>
</trkpt>
<trkpt lat="63.870922089" lon="-21.779407501">
<ele>10.451904</ele>
<time>2012-07-28T14:05:26Z</time>
<extensions>
<speed>0.0</speed>
<temp>0.00</temp>
<bpm>0</bpm>
<rpm>0.00</rpm>
</extensions>
</trkpt>
<trkpt lat="63.870922089" lon="-21.779407501">
<ele>10.471680</ele>
<time>2012-07-28T14:05:31Z</time>
<extensions>
<speed>0.0</speed>
<temp>0.00</temp>
<bpm>0</bpm>
<rpm>0.00</rpm>
</extensions>
</trkpt>
<trkpt lat="63.870922089" lon="-21.779407501">
<ele>10.480713</ele>
<time>2012-07-28T14:05:36Z</time>
<extensions>
<speed>0.0</speed>
<temp>0.00</temp>
<bpm>0</bpm>
<rpm>0.00</rpm>
</extensions>
</trkpt>
<trkpt lat="63.870922089" lon="-21.779407501">
<ele>10.500977</ele>
<time>2012-07-28T14:05:41Z</time>
<extensions>
<speed>0.0</speed>
<temp>0.00</temp>
<bpm>0</bpm>
<rpm>0.00</rpm>
</extensions>
</trkpt>
<trkpt lat="63.870922089" lon="-21.779407501">
<ele>10.512939</ele>
<time>2012-07-28T14:05:46Z</time>
<extensions>
<speed>0.0</speed>
<temp>0.00</temp>
<bpm>0</bpm>
<rpm>0.00</rpm>
</extensions>
</trkpt>
<trkpt lat="63.870922089" lon="-21.779407501">
<ele>10.522949</ele>
<time>2012-07-28T14:05:51Z</time>
<extensions>
<speed>0.0</speed>
<temp>0.00</temp>
<bpm>0</bpm>
<rpm>0.00</rpm>
</extensions>
</trkpt>
<trkpt lat="63.870922089" lon="-21.779407501">
<ele>10.539063</ele>
<time>2012-07-28T14:05:56Z</time>
<extensions>
<speed>0.0</speed>
<temp>0.00</temp>
<bpm>0</bpm>
<rpm>0.00</rpm>
</extensions>
</trkpt>
<trkpt lat="63.870922089" lon="-21.779407501">
<ele>10.557861</ele>
<time>2012-07-28T14:06:01Z</time>
<extensions>
<speed>0.0</speed>
<temp>0.00</temp>
<bpm>0</bpm>
<rpm>0.00</rpm>
</extensions>
</trkpt>
<trkpt lat="63.870922089" lon="-21.779407501">
<ele>10.579834</ele>
<time>2012-07-28T14:06:06Z</time>
<extensions>
<speed>0.0</speed>
<temp>0.00</temp>
<bpm>0</bpm>
<rpm>0.00</rpm>
</extensions>
</trkpt>
<trkpt lat="63.870922089" lon="-21.779407501">
<ele>10.605225</ele>
<time>2012-07-28T14:06:11Z</time>
<extensions>
<speed>0.0</speed>
<temp>0.00</temp>
<bpm>0</bpm>
<rpm>0.00</rpm>
</extensions>
</trkpt>
<trkpt lat="63.870922089" lon="-21.779407501">
<ele>10.619385</ele>
<time>2012-07-28T14:06:16Z</time>
<speed>0.010000</speed>
<extensions>
<speed>0.0</speed>
<temp>0.00</temp>
<bpm>0</bpm>
<rpm>0.00</rpm>
</extensions>
</trkpt>
<trkpt lat="63.870922089" lon="-21.779407501">
<ele>10.635010</ele>
<time>2012-07-28T14:06:21Z</time>
<extensions>
<speed>0.0</speed>
<temp>0.00</temp>
<bpm>0</bpm>
<rpm>0.00</rpm>
</extensions>
</trkpt>
<trkpt lat="63.870922089" lon="-21.779407501">
<ele>10.655762</ele>
<time>2012-07-28T14:06:26Z</time>
<speed>0.010000</speed>
<extensions>
<speed>0.0</speed>
<temp>0.00</temp>
<bpm>0</bpm>
<rpm>0.00</rpm>
</extensions>
</trkpt>
<trkpt lat="63.870922089" lon="-21.779407501">
<ele>10.670410</ele>
<time>2012-07-28T14:06:31Z</time>
<extensions>
<speed>0.0</speed>
<temp>0.00</temp>
<bpm>0</bpm>
<rpm>0.00</rpm>
</extensions>
</trkpt>
<trkpt lat="63.870922089" lon="-21.779407501">
<ele>10.684326</ele>
<time>2012-07-28T14:06:36Z</time>
<extensions>
<speed>0.0</speed>
<temp>0.00</temp>
<bpm>0</bpm>
<rpm>0.00</rpm>
</extensions>
</trkpt>
<trkpt lat="63.870922089" lon="-21.779407501">
<ele>10.700684</ele>
<time>2012-07-28T14:06:41Z</time>
<extensions>
<speed>0.0</speed>
<temp>0.00</temp>
<bpm>0</bpm>
<rpm>0.00</rpm>
</extensions>
</trkpt>
<trkpt lat="63.870922089" lon="-21.779407501">
<ele>10.712891</ele>
<time>2012-07-28T14:06:46Z</time>
<extensions>
<speed>0.0</speed>
<temp>0.00</temp>
<bpm>0</bpm>
<rpm>0.00</rpm>
</extensions>
</trkpt>
<trkpt lat="63.870922089" lon="-21.779407501">
<ele>10.719238</ele>
<time>2012-07-28T14:06:51Z</time>
<extensions>
<speed>0.0</speed>
<temp>0.00</temp>
<bpm>0</bpm>
<rpm>0.00</rpm>
</extensions>
</trkpt>
<trkpt lat="63.870922089" lon="-21.779407501">
<ele>10.725342</ele>
<time>2012-07-28T14:06:56Z</time>
<extensions>
<speed>0.0</speed>
<temp>0.00</temp>
<bpm>0</bpm>
<rpm>0.00</rpm>
</extensions>
</trkpt>
<trkpt lat="63.870922089" lon="-21.779407501">
<ele>10.738037</ele>
<time>2012-07-28T14:07:01Z</time>
<extensions>
<speed>0.0</speed>
<temp>0.00</temp>
<bpm>0</bpm>
<rpm>0.00</rpm>
</extensions>
</trkpt>
<trkpt lat="63.870922089" lon="-21.779407501">
<ele>10.749756</ele>
<time>2012-07-28T14:07:06Z</time>
<extensions>
<speed>0.0</speed>
<temp>0.00</temp>
<bpm>0</bpm>
<rpm>0.00</rpm>
</extensions>
</trkpt>
<trkpt lat="63.870922089" lon="-21.779407501">
<ele>10.760498</ele>
<time>2012-07-28T14:07:11Z</time>
<speed>0.010000</speed>
<extensions>
<speed>0.0</speed>
<temp>0.00</temp>
<bpm>0</bpm>
<rpm>0.00</rpm>
</extensions>
</trkpt>
<trkpt lat="63.870922089" lon="-21.779407501">
<ele>10.774170</ele>
<time>2012-07-28T14:07:16Z</time>
<speed>0.010000</speed>
<extensions>
<speed>0.0</speed>
<temp>0.00</temp>
<bpm>0</bpm>
<rpm>0.00</rpm>
</extensions>
</trkpt>
<trkpt lat="63.870922089" lon="-21.779407501">
<ele>10.787109</ele>
<time>2012-07-28T14:07:21Z</time>
<extensions>
<speed>0.0</speed>
<temp>0.00</temp>
<bpm>0</bpm>
<rpm>0.00</rpm>
</extensions>
</trkpt>
<trkpt lat="63.870922089" lon="-21.779407501">
<ele>10.798096</ele>
<time>2012-07-28T14:07:26Z</time>
<extensions>
<speed>0.0</speed>
<temp>0.00</temp>
<bpm>0</bpm>
<rpm>0.00</rpm>
</extensions>
</trkpt>
<trkpt lat="63.870922089" lon="-21.779407501">
<ele>10.809082</ele>
<time>2012-07-28T14:07:31Z</time>
<extensions>
<speed>0.0</speed>
<temp>0.00</temp>
<bpm>0</bpm>
<rpm>0.00</rpm>
</extensions>
</trkpt>
<trkpt lat="63.870922089" lon="-21.779407501">
<ele>10.819336</ele>
<time>2012-07-28T14:07:36Z</time>
<extensions>
<speed>0.0</speed>
<temp>0.00</temp>
<bpm>0</bpm>
<rpm>0.00</rpm>
</extensions>
</trkpt>
<trkpt lat="63.870922089" lon="-21.779407501">
<ele>10.832275</ele>
<time>2012-07-28T14:07:41Z</time>
<extensions>
<speed>0.0</speed>
<temp>0.00</temp>
<bpm>0</bpm>
<rpm>0.00</rpm>
</extensions>
</trkpt>
<trkpt lat="63.870922089" lon="-21.779407501">
<ele>10.840088</ele>
<time>2012-07-28T14:07:46Z</time>
<speed>0.010000</speed>
<extensions>
<speed>0.0</speed>
<temp>0.00</temp>
<bpm>0</bpm>
<rpm>0.00</rpm>
</extensions>
</trkpt>
<trkpt lat="63.870922089" lon="-21.779407501">
<ele>10.852295</ele>
<time>2012-07-28T14:07:51Z</time>
<extensions>
<speed>0.0</speed>
<temp>0.00</temp>
<bpm>0</bpm>
<rpm>0.00</rpm>
</extensions>
</trkpt>
<trkpt lat="63.870922089" lon="-21.779407501">
<ele>10.859863</ele>
<time>2012-07-28T14:07:56Z</time>
<extensions>
<speed>0.0</speed>
<temp>0.00</temp>
<bpm>0</bpm>
<rpm>0.00</rpm>
</extensions>
</trkpt>
<trkpt lat="63.870922089" lon="-21.779407501">
<ele>10.872803</ele>
<time>2012-07-28T14:08:01Z</time>
<extensions>
<speed>0.0</speed>
<temp>0.00</temp>
<bpm>0</bpm>
<rpm>0.00</rpm>
</extensions>
</trkpt>
<trkpt lat="63.870922089" lon="-21.779407501">
<ele>10.888184</ele>
<time>2012-07-28T14:08:06Z</time>
<extensions>
<speed>0.0</speed>
<temp>0.00</temp>
<bpm>0</bpm>
<rpm>0.00</rpm>
</extensions>
</trkpt>
<trkpt lat="63.870922089" lon="-21.779407501">
<ele>10.897705</ele>
<time>2012-07-28T14:08:11Z</time>
<extensions>
<speed>0.0</speed>
<temp>0.00</temp>
<bpm>0</bpm>
<rpm>0.00</rpm>
</extensions>
</trkpt>
<trkpt lat="63.870922089" lon="-21.779407501">
<ele>10.905518</ele>
<time>2012-07-28T14:08:16Z</time>
<extensions>
<speed>0.0</speed>
<temp>0.00</temp>
<bpm>0</bpm>
<rpm>0.00</rpm>
</extensions>
</trkpt>
<trkpt lat="63.870922089" lon="-21.779407501">
<ele>10.915771</ele>
<time>2012-07-28T14:08:21Z</time>
<extensions>
<speed>0.0</speed>
<temp>0.00</temp>
<bpm>0</bpm>
<rpm>0.00</rpm>
</extensions>
</trkpt>
<trkpt lat="63.870922089" lon="-21.779407501">
<ele>10.925293</ele>
<time>2012-07-28T14:08:26Z</time>
<extensions>
<speed>0.0</speed>
<temp>0.00</temp>
<bpm>0</bpm>
<rpm>0.00</rpm>
</extensions>
</trkpt>
<trkpt lat="63.870922089" lon="-21.779407501">
<ele>10.930176</ele>
<time>2012-07-28T14:08:31Z</time>
<extensions>
<speed>0.0</speed>
<temp>0.00</temp>
<bpm>0</bpm>
<rpm>0.00</rpm>
</extensions>
</trkpt>
<trkpt lat="63.870922089" lon="-21.779407501">
<ele>10.937500</ele>
<time>2012-07-28T14:08:36Z</time>
<extensions>
<speed>0.0</speed>
<temp>0.00</temp>
<bpm>0</bpm>
<rpm>0.00</rpm>
</extensions>
</trkpt>
<trkpt lat="63.870922089" lon="-21.779407501">
<ele>10.943359</ele>
<time>2012-07-28T14:08:41Z</time>
<speed>0.010000</speed>
<extensions>
<speed>0.0</speed>
<temp>0.00</temp>
<bpm>0</bpm>
<rpm>0.00</rpm>
</extensions>
</trkpt>
<trkpt lat="63.870922089" lon="-21.779409409">
<ele>10.951172</ele>
<time>2012-07-28T14:08:46Z</time>
<speed>0.020000</speed>
<extensions>
<speed>0.0</speed>
<temp>0.00</temp>
<bpm>0</bpm>
<rpm>0.00</rpm>
</extensions>
</trkpt>
<trkpt lat="63.870922089" lon="-21.779409409">
<ele>10.963623</ele>
<time>2012-07-28T14:08:51Z</time>
<speed>0.020000</speed>
<extensions>
<speed>0.0</speed>
<temp>0.00</temp>
<bpm>0</bpm>
<rpm>0.00</rpm>
</extensions>
</trkpt>
<trkpt lat="63.870922089" lon="-21.779409409">
<ele>10.971924</ele>
<time>2012-07-28T14:08:56Z</time>
<speed>0.010000</speed>
<extensions>
<speed>0.0</speed>
<temp>0.00</temp>
<bpm>0</bpm>
<rpm>0.00</rpm>
</extensions>
</trkpt>
<trkpt lat="63.870922089" lon="-21.779409409">
<ele>10.981689</ele>
<time>2012-07-28T14:09:01Z</time>
<extensions>
<speed>0.0</speed>
<temp>0.00</temp>
<bpm>0</bpm>
<rpm>0.00</rpm>
</extensions>
</trkpt>
<trkpt lat="63.870922089" lon="-21.779409409">
<ele>10.990967</ele>
<time>2012-07-28T14:09:06Z</time>
<speed>0.010000</speed>
<extensions>
<speed>0.0</speed>
<temp>0.00</temp>
<bpm>0</bpm>
<rpm>0.00</rpm>
</extensions>
</trkpt>
<trkpt lat="63.870922089" lon="-21.779409409">
<ele>11.000244</ele>
<time>2012-07-28T14:09:11Z</time>
<speed>0.020000</speed>
<extensions>
<speed>0.0</speed>
<temp>0.00</temp>
<bpm>0</bpm>
<rpm>0.00</rpm>
</extensions>
</trkpt>
<trkpt lat="63.870922089" lon="-21.779409409">
<ele>11.011230</ele>
<time>2012-07-28T14:09:16Z</time>
<extensions>
<speed>0.0</speed>
<temp>0.00</temp>
<bpm>0</bpm>
<rpm>0.00</rpm>
</extensions>
</trkpt>
<trkpt lat="63.870922089" lon="-21.779409409">
<ele>11.015137</ele>
<time>2012-07-28T14:09:21Z</time>
<extensions>
<speed>0.0</speed>
<temp>0.00</temp>
<bpm>0</bpm>
<rpm>0.00</rpm>
</extensions>
</trkpt>
<trkpt lat="63.870922089" lon="-21.779409409">
<ele>11.025146</ele>
<time>2012-07-28T14:09:26Z</time>
<extensions>
<speed>0.0</speed>
<temp>0.00</temp>
<bpm>0</bpm>
<rpm>0.00</rpm>
</extensions>
</trkpt>
<trkpt lat="63.870922089" lon="-21.779409409">
<ele>11.036621</ele>
<time>2012-07-28T14:09:31Z</time>
<speed>0.010000</speed>
<extensions>
<speed>0.0</speed>
<temp>0.00</temp>
<bpm>0</bpm>
<rpm>0.00</rpm>
</extensions>
</trkpt>
<trkpt lat="63.870922089" lon="-21.779409409">
<ele>11.038330</ele>
<time>2012-07-28T14:09:36Z</time>
<extensions>
<speed>0.0</speed>
<temp>0.00</temp>
<bpm>0</bpm>
<rpm>0.00</rpm>
</extensions>
</trkpt>
<trkpt lat="63.870918274" lon="-21.779409409">
<ele>11.040283</ele>
<time>2012-07-28T14:09:41Z</time>
<speed>0.010000</speed>
<extensions>
<speed>0.0</speed>
<temp>0.00</temp>
<bpm>0</bpm>
<rpm>0.00</rpm>
</extensions>
</trkpt>
<trkpt lat="63.870918274" lon="-21.779409409">
<ele>11.056152</ele>
<time>2012-07-28T14:09:46Z</time>
<speed>0.010000</speed>
<extensions>
<speed>0.0</speed>
<temp>0.00</temp>
<bpm>0</bpm>
<rpm>0.00</rpm>
</extensions>
</trkpt>
<trkpt lat="63.870918274" lon="-21.779409409">
<ele>11.063477</ele>
<time>2012-07-28T14:09:51Z</time>
<extensions>
<speed>0.0</speed>
<temp>0.00</temp>
<bpm>0</bpm>
<rpm>0.00</rpm>
</extensions>
</trkpt>
<trkpt lat="63.870918274" lon="-21.779409409">
<ele>11.073975</ele>
<time>2012-07-28T14:09:56Z</time>
<speed>0.030000</speed>
<extensions>
<speed>0.0</speed>
<temp>0.00</temp>
<bpm>0</bpm>
<rpm>0.00</rpm>
</extensions>
</trkpt>
<trkpt lat="63.870918274" lon="-21.779409409">
<ele>11.089355</ele>
<time>2012-07-28T14:10:01Z</time>
<speed>0.010000</speed>
<extensions>
<speed>0.0</speed>
<temp>0.00</temp>
<bpm>0</bpm>
<rpm>0.00</rpm>
</extensions>
</trkpt>
<trkpt lat="63.870918274" lon="-21.779409409">
<ele>11.103516</ele>
<time>2012-07-28T14:10:06Z</time>
<extensions>
<speed>0.0</speed>
<temp>0.00</temp>
<bpm>0</bpm>
<rpm>0.00</rpm>
</extensions>
</trkpt>
<trkpt lat="63.870918274" lon="-21.779409409">
<ele>11.117188</ele>
<time>2012-07-28T14:10:11Z</time>
<speed>0.010000</speed>
<extensions>
<speed>0.0</speed>
<temp>0.00</temp>
<bpm>0</bpm>
<rpm>0.00</rpm>
</extensions>
</trkpt>
<trkpt lat="63.870918274" lon="-21.779409409">
<ele>11.132813</ele>
<time>2012-07-28T14:10:16Z</time>
<extensions>
<speed>0.0</speed>
<temp>0.00</temp>
<bpm>0</bpm>
<rpm>0.00</rpm>
</extensions>
</trkpt>
<trkpt lat="63.870918274" lon="-21.779411316">
<ele>11.146973</ele>
<time>2012-07-28T14:10:21Z</time>
<speed>0.010000</speed>
<extensions>
<speed>0.0</speed>
<temp>0.00</temp>
<bpm>0</bpm>
<rpm>0.00</rpm>
</extensions>
</trkpt>
<trkpt lat="63.870918274" lon="-21.779411316">
<ele>11.159912</ele>
<time>2012-07-28T14:10:26Z</time>
<extensions>
<speed>0.0</speed>
<temp>0.00</temp>
<bpm>0</bpm>
<rpm>0.00</rpm>
</extensions>
</trkpt>
<trkpt lat="63.870918274" lon="-21.779411316">
<ele>11.171387</ele>
<time>2012-07-28T14:10:31Z</time>
<speed>0.020000</speed>
<extensions>
<speed>0.0</speed>
<temp>0.00</temp>
<bpm>0</bpm>
<rpm>0.00</rpm>
</extensions>
</trkpt>
<trkpt lat="63.870918274" lon="-21.779409409">
<ele>11.187744</ele>
<time>2012-07-28T14:10:36Z</time>
<extensions>
<speed>0.0</speed>
<temp>0.00</temp>
<bpm>0</bpm>
<rpm>0.00</rpm>
</extensions>
</trkpt>
<trkpt lat="63.870918274" lon="-21.779409409">
<ele>11.205566</ele>
<time>2012-07-28T14:10:41Z</time>
<extensions>
<speed>0.0</speed>
<temp>0.00</temp>
<bpm>0</bpm>
<rpm>0.00</rpm>
</extensions>
</trkpt>
<trkpt lat="63.870918274" lon="-21.779411316">
<ele>11.210693</ele>
<time>2012-07-28T14:10:46Z</time>
<speed>0.010000</speed>
<extensions>
<speed>0.0</speed>
<temp>0.00</temp>
<bpm>0</bpm>
<rpm>0.00</rpm>
</extensions>
</trkpt>
<trkpt lat="63.870918274" lon="-21.779411316">
<ele>11.214355</ele>
<time>2012-07-28T14:10:51Z</time>
<extensions>
<speed>0.0</speed>
<temp>0.00</temp>
<bpm>0</bpm>
<rpm>0.00</rpm>
</extensions>
</trkpt>
<trkpt lat="63.870918274" lon="-21.779409409">
<ele>11.224609</ele>
<time>2012-07-28T14:10:56Z</time>
<extensions>
<speed>0.0</speed>
<temp>0.00</temp>
<bpm>0</bpm>
<rpm>0.00</rpm>
</extensions>
</trkpt>
<trkpt lat="63.870918274" lon="-21.779411316">
<ele>11.232666</ele>
<time>2012-07-28T14:11:01Z</time>
<extensions>
<speed>0.0</speed>
<temp>0.00</temp>
<bpm>0</bpm>
<rpm>0.00</rpm>
</extensions>
</trkpt>
<trkpt lat="63.870918274" lon="-21.779411316">
<ele>11.246826</ele>
<time>2012-07-28T14:11:06Z</time>
<speed>0.010000</speed>
<extensions>
<speed>0.0</speed>
<temp>0.00</temp>
<bpm>0</bpm>
<rpm>0.00</rpm>
</extensions>
</trkpt>
<trkpt lat="63.870918274" lon="-21.779411316">
<ele>11.255127</ele>
<time>2012-07-28T14:11:11Z</time>
<speed>0.010000</speed>
<extensions>
<speed>0.0</speed>
<temp>0.00</temp>
<bpm>0</bpm>
<rpm>0.00</rpm>
</extensions>
</trkpt>
<trkpt lat="63.870918274" lon="-21.779411316">
<ele>11.267578</ele>
<time>2012-07-28T14:11:16Z</time>
<speed>0.020000</speed>
<extensions>
<speed>0.0</speed>
<temp>0.00</temp>
<bpm>0</bpm>
<rpm>0.00</rpm>
</extensions>
</trkpt>
<trkpt lat="63.870918274" lon="-21.779411316">
<ele>11.279297</ele>
<time>2012-07-28T14:11:21Z</time>
<speed>0.010000</speed>
<extensions>
<speed>0.0</speed>
<temp>0.00</temp>
<bpm>0</bpm>
<rpm>0.00</rpm>
</extensions>
</trkpt>
<trkpt lat="63.870918274" lon="-21.779411316">
<ele>11.289307</ele>
<time>2012-07-28T14:11:26Z</time>
<speed>0.010000</speed>
<extensions>
<speed>0.0</speed>
<temp>0.00</temp>
<bpm>0</bpm>
<rpm>0.00</rpm>
</extensions>
</trkpt>
<trkpt lat="63.870918274" lon="-21.779411316">
<ele>11.300781</ele>
<time>2012-07-28T14:11:31Z</time>
<speed>0.010000</speed>
<extensions>
<speed>0.0</speed>
<temp>0.00</temp>
<bpm>0</bpm>
<rpm>0.00</rpm>
</extensions>
</trkpt>
<trkpt lat="63.870918274" lon="-21.779411316">
<ele>11.311279</ele>
<time>2012-07-28T14:11:36Z</time>
<extensions>
<speed>0.0</speed>
<temp>0.00</temp>
<bpm>0</bpm>
<rpm>0.00</rpm>
</extensions>
</trkpt>
<trkpt lat="63.870918274" lon="-21.779411316">
<ele>11.316895</ele>
<time>2012-07-28T14:11:41Z</time>
<extensions>
<speed>0.0</speed>
<temp>0.00</temp>
<bpm>0</bpm>
<rpm>0.00</rpm>
</extensions>
</trkpt>
<trkpt lat="63.870918274" lon="-21.779411316">
<ele>11.323242</ele>
<time>2012-07-28T14:11:46Z</time>
<speed>0.010000</speed>
<extensions>
<speed>0.0</speed>
<temp>0.00</temp>
<bpm>0</bpm>
<rpm>0.00</rpm>
</extensions>
</trkpt>
<trkpt lat="63.870918274" lon="-21.779411316">
<ele>11.322021</ele>
<time>2012-07-28T14:11:51Z</time>
<extensions>
<speed>0.0</speed>
<temp>0.00</temp>
<bpm>0</bpm>
<rpm>0.00</rpm>
</extensions>
</trkpt>
<trkpt lat="63.870918274" lon="-21.779411316">
<ele>11.322998</ele>
<time>2012-07-28T14:11:56Z</time>
<speed>0.010000</speed>
<extensions>
<speed>0.0</speed>
<temp>0.00</temp>
<bpm>0</bpm>
<rpm>0.00</rpm>
</extensions>
</trkpt>
<trkpt lat="63.870918274" lon="-21.779411316">
<ele>11.327881</ele>
<time>2012-07-28T14:12:01Z</time>
<extensions>
<speed>0.0</speed>
<temp>0.00</temp>
<bpm>0</bpm>
<rpm>0.00</rpm>
</extensions>
</trkpt>
<trkpt lat="63.870918274" lon="-21.779411316">
<ele>11.335205</ele>
<time>2012-07-28T14:12:06Z</time>
<speed>0.010000</speed>
<extensions>
<speed>0.0</speed>
<temp>0.00</temp>
<bpm>0</bpm>
<rpm>0.00</rpm>
</extensions>
</trkpt>
<trkpt lat="63.870918274" lon="-21.779411316">
<ele>11.345459</ele>
<time>2012-07-28T14:12:11Z</time>
<extensions>
<speed>0.0</speed>
<temp>0.00</temp>
<bpm>0</bpm>
<rpm>0.00</rpm>
</extensions>
</trkpt>
<trkpt lat="63.870918274" lon="-21.779411316">
<ele>11.356689</ele>
<time>2012-07-28T14:12:16Z</time>
<extensions>
<speed>0.0</speed>
<temp>0.00</temp>
<bpm>0</bpm>
<rpm>0.00</rpm>
</extensions>
</trkpt>
<trkpt lat="63.870918274" lon="-21.779411316">
<ele>11.358154</ele>
<time>2012-07-28T14:12:21Z</time>
<extensions>
<speed>0.0</speed>
<temp>0.00</temp>
<bpm>0</bpm>
<rpm>0.00</rpm>
</extensions>
</trkpt>
<trkpt lat="63.870918274" lon="-21.779411316">
<ele>11.360352</ele>
<time>2012-07-28T14:12:26Z</time>
<extensions>
<speed>0.0</speed>
<temp>0.00</temp>
<bpm>0</bpm>
<rpm>0.00</rpm>
</extensions>
</trkpt>
<trkpt lat="63.870918274" lon="-21.779411316">
<ele>11.366943</ele>
<time>2012-07-28T14:12:31Z</time>
<extensions>
<speed>0.0</speed>
<temp>0.00</temp>
<bpm>0</bpm>
<rpm>0.00</rpm>
</extensions>
</trkpt>
<trkpt lat="63.870918274" lon="-21.779411316">
<ele>11.369629</ele>
<time>2012-07-28T14:12:36Z</time>
<speed>0.010000</speed>
<extensions>
<speed>0.0</speed>
<temp>0.00</temp>
<bpm>0</bpm>
<rpm>0.00</rpm>
</extensions>
</trkpt>
<trkpt lat="63.870918274" lon="-21.779411316">
<ele>11.374512</ele>
<time>2012-07-28T14:12:41Z</time>
<extensions>
<speed>0.0</speed>
<temp>0.00</temp>
<bpm>0</bpm>
<rpm>0.00</rpm>
</extensions>
</trkpt>
<trkpt lat="63.870918274" lon="-21.779411316">
<ele>11.383301</ele>
<time>2012-07-28T14:12:46Z</time>
<speed>0.020000</speed>
<extensions>
<speed>0.0</speed>
<temp>0.00</temp>
<bpm>0</bpm>
<rpm>0.00</rpm>
</extensions>
</trkpt>
<trkpt lat="63.870918274" lon="-21.779413223">
<ele>11.381836</ele>
<time>2012-07-28T14:12:51Z</time>
<speed>0.030000</speed>
<extensions>
<speed>0.0</speed>
<temp>0.00</temp>
<bpm>0</bpm>
<rpm>0.00</rpm>
</extensions>
</trkpt>
<trkpt lat="63.870918274" lon="-21.779413223">
<ele>11.384277</ele>
<time>2012-07-28T14:12:56Z</time>
<speed>0.030000</speed>
<extensions>
<speed>0.0</speed>
<temp>0.00</temp>
<bpm>0</bpm>
<rpm>0.00</rpm>
</extensions>
</trkpt>
<trkpt lat="63.870914459" lon="-21.779413223">
<ele>11.388916</ele>
<time>2012-07-28T14:13:01Z</time>
<speed>0.020000</speed>
<extensions>
<speed>0.0</speed>
<temp>0.00</temp>
<bpm>0</bpm>
<rpm>0.00</rpm>
</extensions>
</trkpt>
<trkpt lat="63.870914459" lon="-21.779415131">
<ele>11.381104</ele>
<time>2012-07-28T14:13:06Z</time>
<speed>0.190000</speed>
<extensions>
<speed>0.2</speed>
<temp>0.00</temp>
<bpm>0</bpm>
<rpm>0.00</rpm>
</extensions>
</trkpt>
<trkpt lat="63.870903015" lon="-21.779434204">
<ele>11.548584</ele>
<time>2012-07-28T14:13:11Z</time>
<speed>0.050000</speed>
<extensions>
<speed>0.1</speed>
<temp>0.00</temp>
<bpm>0</bpm>
<rpm>0.00</rpm>
</extensions>
</trkpt>
<trkpt lat="63.870883942" lon="-21.779485703">
<ele>11.817139</ele>
<time>2012-07-28T14:13:16Z</time>
<speed>0.070000</speed>
<extensions>
<speed>0.1</speed>
<temp>0.00</temp>
<bpm>0</bpm>
<rpm>0.00</rpm>
</extensions>
</trkpt>
<trkpt lat="63.870883942" lon="-21.779500961">
<ele>11.508545</ele>
<time>2012-07-28T14:13:21Z</time>
<speed>0.050000</speed>
<extensions>
<speed>0.1</speed>
<temp>0.00</temp>
<bpm>0</bpm>
<rpm>0.00</rpm>
</extensions>
</trkpt>
<trkpt lat="63.870872498" lon="-21.779592514">
<ele>11.612305</ele>
<time>2012-07-28T14:13:26Z</time>
<speed>1.970000</speed>
<extensions>
<speed>2.0</speed>
<temp>0.00</temp>
<bpm>0</bpm>
<rpm>0.00</rpm>
</extensions>
</trkpt>
<trkpt lat="63.870857239" lon="-21.779861450">
<ele>12.082520</ele>
<time>2012-07-28T14:13:31Z</time>
<speed>2.880000</speed>
<extensions>
<speed>2.9</speed>
<temp>0.00</temp>
<bpm>0</bpm>
<rpm>0.00</rpm>
</extensions>
</trkpt>
<trkpt lat="63.870849609" lon="-21.780199051">
<ele>12.864502</ele>
<time>2012-07-28T14:13:36Z</time>
<speed>3.070000</speed>
<extensions>
<speed>3.1</speed>
<temp>0.00</temp>
<bpm>0</bpm>
<rpm>0.00</rpm>
</extensions>
</trkpt>
<trkpt lat="63.870838165" lon="-21.780532837">
<ele>12.475830</ele>
<time>2012-07-28T14:13:41Z</time>
<speed>3.070000</speed>
<extensions>
<speed>3.1</speed>
<temp>0.00</temp>
<bpm>0</bpm>
<rpm>0.00</rpm>
</extensions>
</trkpt>
<trkpt lat="63.870838165" lon="-21.780885696">
<ele>12.536133</ele>
<time>2012-07-28T14:13:46Z</time>
<speed>3.400000</speed>
<extensions>
<speed>3.4</speed>
<temp>0.00</temp>
<bpm>0</bpm>
<rpm>0.00</rpm>
</extensions>
</trkpt>
<trkpt lat="63.870826721" lon="-21.781265259">
<ele>12.750000</ele>
<time>2012-07-28T14:13:51Z</time>
<speed>3.500000</speed>
<extensions>
<speed>3.5</speed>
<temp>0.00</temp>
<bpm>0</bpm>
<rpm>0.00</rpm>
</extensions>
</trkpt>
<trkpt lat="63.870819092" lon="-21.781631470">
<ele>12.642578</ele>
<time>2012-07-28T14:13:56Z</time>
<speed>3.540000</speed>
<extensions>
<speed>3.5</speed>
<temp>0.00</temp>
<bpm>0</bpm>
<rpm>0.00</rpm>
</extensions>
</trkpt>
<trkpt lat="63.870803833" lon="-21.781986237">
<ele>13.265137</ele>
<time>2012-07-28T14:14:01Z</time>
<speed>3.820000</speed>
<extensions>
<speed>3.8</speed>
<temp>0.00</temp>
<bpm>0</bpm>
<rpm>0.00</rpm>
</extensions>
</trkpt>
<trkpt lat="63.870784760" lon="-21.782346725">
<ele>13.642578</ele>
<time>2012-07-28T14:14:06Z</time>
<speed>3.500000</speed>
<extensions>
<speed>3.5</speed>
<temp>0.00</temp>
<bpm>0</bpm>
<rpm>0.00</rpm>
</extensions>
</trkpt>
<trkpt lat="63.870758057" lon="-21.782709122">
<ele>13.840576</ele>
<time>2012-07-28T14:14:11Z</time>
<speed>3.720000</speed>
<extensions>
<speed>3.7</speed>
<temp>0.00</temp>
<bpm>0</bpm>
<rpm>0.00</rpm>
</extensions>
</trkpt>
<trkpt lat="63.870738983" lon="-21.783092499">
<ele>14.482178</ele>
<time>2012-07-28T14:14:16Z</time>
<speed>3.880000</speed>
<extensions>
<speed>3.9</speed>
<temp>0.00</temp>
<bpm>0</bpm>
<rpm>0.00</rpm>
</extensions>
</trkpt>
<trkpt lat="63.870704651" lon="-21.783479691">
<ele>15.093994</ele>
<time>2012-07-28T14:14:21Z</time>
<speed>4.080000</speed>
<extensions>
<speed>4.1</speed>
<temp>0.00</temp>
<bpm>0</bpm>
<rpm>0.00</rpm>
</extensions>
</trkpt>
<trkpt lat="63.870666504" lon="-21.783868790">
<ele>15.599121</ele>
<time>2012-07-28T14:14:26Z</time>
<speed>3.760000</speed>
<extensions>
<speed>3.8</speed>
<temp>0.00</temp>
<bpm>0</bpm>
<rpm>0.00</rpm>
</extensions>
</trkpt>
<trkpt lat="63.870635986" lon="-21.784255981">
<ele>15.812500</ele>
<time>2012-07-28T14:14:31Z</time>
<speed>3.750000</speed>
<extensions>
<speed>3.8</speed>
<temp>0.00</temp>
<bpm>0</bpm>
<rpm>0.00</rpm>
</extensions>
</trkpt>
<trkpt lat="63.870601654" lon="-21.784624100">
<ele>16.132813</ele>
<time>2012-07-28T14:14:36Z</time>
<speed>3.720000</speed>
<extensions>
<speed>3.7</speed>
<temp>0.00</temp>
<bpm>0</bpm>
<rpm>0.00</rpm>
</extensions>
</trkpt>
<trkpt lat="63.870555878" lon="-21.785001755">
<ele>16.544434</ele>
<time>2012-07-28T14:14:41Z</time>
<speed>3.710000</speed>
<extensions>
<speed>3.7</speed>
<temp>0.00</temp>
<bpm>0</bpm>
<rpm>0.00</rpm>
</extensions>
</trkpt>
<trkpt lat="63.870525360" lon="-21.785377502">
<ele>16.549316</ele>
<time>2012-07-28T14:14:46Z</time>
<speed>3.860000</speed>
<extensions>
<speed>3.9</speed>
<temp>0.00</temp>
<bpm>0</bpm>
<rpm>0.00</rpm>
</extensions>
</trkpt>
<trkpt lat="63.870479584" lon="-21.785764694">
<ele>16.752930</ele>
<time>2012-07-28T14:14:51Z</time>
<speed>4.250000</speed>
<extensions>
<speed>4.3</speed>
<temp>0.00</temp>
<bpm>0</bpm>
<rpm>0.00</rpm>
</extensions>
</trkpt>
<trkpt lat="63.870433807" lon="-21.786188126">
<ele>16.940430</ele>
<time>2012-07-28T14:14:56Z</time>
<speed>4.250000</speed>
<extensions>
<speed>4.3</speed>
<temp>0.00</temp>
<bpm>0</bpm>
<rpm>0.00</rpm>
</extensions>
</trkpt>
<trkpt lat="63.870388031" lon="-21.786623001">
<ele>16.864746</ele>
<time>2012-07-28T14:15:01Z</time>
<speed>4.550000</speed>
<extensions>
<speed>4.5</speed>
<temp>0.00</temp>
<bpm>0</bpm>
<rpm>0.00</rpm>
</extensions>
</trkpt>
<trkpt lat="63.870346069" lon="-21.787071228">
<ele>16.214355</ele>
<time>2012-07-28T14:15:06Z</time>
<speed>4.560000</speed>
<extensions>
<speed>4.6</speed>
<temp>0.00</temp>
<bpm>0</bpm>
<rpm>0.00</rpm>
</extensions>
</trkpt>
<trkpt lat="63.870292664" lon="-21.787538528">
<ele>16.135254</ele>
<time>2012-07-28T14:15:11Z</time>
<speed>4.730000</speed>
<extensions>
<speed>4.7</speed>
<temp>0.00</temp>
<bpm>0</bpm>
<rpm>0.00</rpm>
</extensions>
</trkpt>
<trkpt lat="63.870235443" lon="-21.788022995">
<ele>16.323242</ele>
<time>2012-07-28T14:15:16Z</time>
<speed>5.260000</speed>
<extensions>
<speed>5.3</speed>
<temp>0.00</temp>
<bpm>0</bpm>
<rpm>0.00</rpm>
</extensions>
</trkpt>
<trkpt lat="63.870178223" lon="-21.788553238">
<ele>16.210938</ele>
<time>2012-07-28T14:15:21Z</time>
<speed>5.300000</speed>
<extensions>
<speed>5.3</speed>
<temp>0.00</temp>
<bpm>0</bpm>
<rpm>0.00</rpm>
</extensions>
</trkpt>
<trkpt lat="63.870121002" lon="-21.789068222">
<ele>15.823975</ele>
<time>2012-07-28T14:15:26Z</time>
<speed>5.360000</speed>
<extensions>
<speed>5.4</speed>
<temp>0.00</temp>
<bpm>0</bpm>
<rpm>0.00</rpm>
</extensions>
</trkpt>
<trkpt lat="63.870075226" lon="-21.789581299">
<ele>15.575684</ele>
<time>2012-07-28T14:15:31Z</time>
<speed>4.810000</speed>
<extensions>
<speed>4.8</speed>
<temp>0.00</temp>
<bpm>0</bpm>
<rpm>0.00</rpm>
</extensions>
</trkpt>
<trkpt lat="63.870021820" lon="-21.790088654">
<ele>15.779297</ele>
<time>2012-07-28T14:15:36Z</time>
<speed>5.410000</speed>
<extensions>
<speed>5.4</speed>
<temp>0.00</temp>
<bpm>0</bpm>
<rpm>0.00</rpm>
</extensions>
</trkpt>
<trkpt lat="63.869972229" lon="-21.790592194">
<ele>16.088867</ele>
<time>2012-07-28T14:15:41Z</time>
<speed>4.730000</speed>
<extensions>
<speed>4.7</speed>
<temp>0.00</temp>
<bpm>0</bpm>
<rpm>0.00</rpm>
</extensions>
</trkpt>
<trkpt lat="63.869934082" lon="-21.791009903">
<ele>16.230469</ele>
<time>2012-07-28T14:15:46Z</time>
<speed>4.030000</speed>
<extensions>
<speed>4.0</speed>
<temp>0.00</temp>
<bpm>0</bpm>
<rpm>0.00</rpm>
</extensions>
</trkpt>
<trkpt lat="63.869903564" lon="-21.791410446">
<ele>16.280762</ele>
<time>2012-07-28T14:15:51Z</time>
<speed>3.970000</speed>
<extensions>
<speed>4.0</speed>
<temp>0.00</temp>
<bpm>0</bpm>
<rpm>0.00</rpm>
</extensions>
</trkpt>
<trkpt lat="63.869873047" lon="-21.791772842">
<ele>16.206543</ele>
<time>2012-07-28T14:15:56Z</time>
<speed>3.030000</speed>
<extensions>
<speed>3.0</speed>
<temp>0.00</temp>
<bpm>0</bpm>
<rpm>0.00</rpm>
</extensions>
</trkpt>
<trkpt lat="63.869861603" lon="-21.792032242">
<ele>15.991699</ele>
<time>2012-07-28T14:16:01Z</time>
<speed>2.170000</speed>
<extensions>
<speed>2.2</speed>
<temp>0.00</temp>
<bpm>0</bpm>
<rpm>0.00</rpm>
</extensions>
</trkpt>
<trkpt lat="63.869846344" lon="-21.792297363">
<ele>16.158203</ele>
<time>2012-07-28T14:16:06Z</time>
<speed>3.260000</speed>
<extensions>
<speed>3.3</speed>
<temp>0.00</temp>
<bpm>0</bpm>
<rpm>0.00</rpm>
</extensions>
</trkpt>
<trkpt lat="63.869819641" lon="-21.792638779">
<ele>16.309570</ele>
<time>2012-07-28T14:16:11Z</time>
<speed>3.600000</speed>
<extensions>
<speed>3.6</speed>
<temp>0.00</temp>
<bpm>0</bpm>
<rpm>0.00</rpm>
</extensions>
</trkpt>
<trkpt lat="63.869800568" lon="-21.792999268">
<ele>16.349609</ele>
<time>2012-07-28T14:16:16Z</time>
<speed>3.350000</speed>
<extensions>
<speed>3.4</speed>
<temp>0.00</temp>
<bpm>0</bpm>
<rpm>0.00</rpm>
</extensions>
</trkpt>
<trkpt lat="63.869789124" lon="-21.793338776">
<ele>16.000488</ele>
<time>2012-07-28T14:16:21Z</time>
<speed>3.210000</speed>
<extensions>
<speed>3.2</speed>
<temp>0.00</temp>
<bpm>0</bpm>
<rpm>0.00</rpm>
</extensions>
</trkpt>
<trkpt lat="63.869773865" lon="-21.793680191">
<ele>16.339844</ele>
<time>2012-07-28T14:16:26Z</time>
<speed>3.540000</speed>
<extensions>
<speed>3.5</speed>
<temp>0.00</temp>
<bpm>0</bpm>
<rpm>0.00</rpm>
</extensions>
</trkpt>
<trkpt lat="63.869770050" lon="-21.794050217">
<ele>16.439453</ele>
<time>2012-07-28T14:16:31Z</time>
<speed>3.850000</speed>
<extensions>
<speed>3.8</speed>
<temp>0.00</temp>
<bpm>0</bpm>
<rpm>0.00</rpm>
</extensions>
</trkpt>
<trkpt lat="63.869773865" lon="-21.794439316">
<ele>15.962646</ele>
<time>2012-07-28T14:16:36Z</time>
<speed>3.910000</speed>
<extensions>
<speed>3.9</speed>
<temp>0.00</temp>
<bpm>0</bpm>
<rpm>0.00</rpm>
</extensions>
</trkpt>
<trkpt lat="63.869773865" lon="-21.794788361">
<ele>15.517090</ele>
<time>2012-07-28T14:16:41Z</time>
<speed>3.390000</speed>
<extensions>
<speed>3.4</speed>
<temp>0.00</temp>
<bpm>0</bpm>
<rpm>0.00</rpm>
</extensions>
</trkpt>
<trkpt lat="63.869770050" lon="-21.795150757">
<ele>15.777588</ele>
<time>2012-07-28T14:16:46Z</time>
<speed>3.760000</speed>
<extensions>
<speed>3.8</speed>
<temp>0.00</temp>
<bpm>0</bpm>
<rpm>0.00</rpm>
</extensions>
</trkpt>
<trkpt lat="63.869773865" lon="-21.795545578">
<ele>15.485840</ele>
<time>2012-07-28T14:16:51Z</time>
<speed>3.780000</speed>
<extensions>
<speed>3.8</speed>
<temp>0.00</temp>
<bpm>0</bpm>
<rpm>0.00</rpm>
</extensions>
</trkpt>
<trkpt lat="63.869773865" lon="-21.795883179">
<ele>15.826416</ele>
<time>2012-07-28T14:16:56Z</time>
<speed>2.700000</speed>
<extensions>
<speed>2.7</speed>
<temp>0.00</temp>
<bpm>0</bpm>
<rpm>0.00</rpm>
</extensions>
</trkpt>
<trkpt lat="63.869785309" lon="-21.796146393">
<ele>16.227051</ele>
<time>2012-07-28T14:17:01Z</time>
<speed>2.590000</speed>
<extensions>
<speed>2.6</speed>
<temp>0.00</temp>
<bpm>0</bpm>
<rpm>0.00</rpm>
</extensions>
</trkpt>
<trkpt lat="63.869792938" lon="-21.796407700">
<ele>16.445801</ele>
<time>2012-07-28T14:17:06Z</time>
<speed>2.560000</speed>
<extensions>
<speed>2.6</speed>
<temp>0.00</temp>
<bpm>0</bpm>
<rpm>0.00</rpm>
</extensions>
</trkpt>
<trkpt lat="63.869808197" lon="-21.796688080">
<ele>16.078125</ele>
<time>2012-07-28T14:17:11Z</time>
<speed>2.830000</speed>
<extensions>
<speed>2.8</speed>
<temp>0.00</temp>
<bpm>0</bpm>
<rpm>0.00</rpm>
</extensions>
</trkpt>
<trkpt lat="63.869819641" lon="-21.796979904">
<ele>15.892090</ele>
<time>2012-07-28T14:17:16Z</time>
<speed>2.630000</speed>
<extensions>
<speed>2.6</speed>
<temp>0.00</temp>
<bpm>0</bpm>
<rpm>0.00</rpm>
</extensions>
</trkpt>
<trkpt lat="63.869838715" lon="-21.797231674">
<ele>14.948730</ele>
<time>2012-07-28T14:17:21Z</time>
<speed>2.520000</speed>
<extensions>
<speed>2.5</speed>
<temp>0.00</temp>
<bpm>0</bpm>
<rpm>0.00</rpm>
</extensions>
</trkpt>
<trkpt lat="63.869853973" lon="-21.797496796">
<ele>15.042725</ele>
<time>2012-07-28T14:17:26Z</time>
<speed>2.690000</speed>
<extensions>
<speed>2.7</speed>
<temp>0.00</temp>
<bpm>0</bpm>
<rpm>0.00</rpm>
</extensions>
</trkpt>
<trkpt lat="63.869869232" lon="-21.797767639">
<ele>15.889404</ele>
<time>2012-07-28T14:17:31Z</time>
<speed>3.010000</speed>
<extensions>
<speed>3.0</speed>
<temp>0.00</temp>
<bpm>0</bpm>
<rpm>0.00</rpm>
</extensions>
</trkpt>
<trkpt lat="63.869892120" lon="-21.798042297">
<ele>16.714355</ele>
<time>2012-07-28T14:17:36Z</time>
<speed>2.730000</speed>
<extensions>
<speed>2.7</speed>
<temp>0.00</temp>
<bpm>0</bpm>
<rpm>0.00</rpm>
</extensions>
</trkpt>
<trkpt lat="63.869915009" lon="-21.798286438">
<ele>16.272461</ele>
<time>2012-07-28T14:17:41Z</time>
<speed>1.930000</speed>
<extensions>
<speed>1.9</speed>
<temp>0.00</temp>
<bpm>0</bpm>
<rpm>0.00</rpm>
</extensions>
</trkpt>
<trkpt lat="63.869934082" lon="-21.798486710">
<ele>16.145508</ele>
<time>2012-07-28T14:17:46Z</time>
<speed>2.360000</speed>
<extensions>
<speed>2.4</speed>
<temp>0.00</temp>
<bpm>0</bpm>
<rpm>0.00</rpm>
</extensions>
</trkpt>
<trkpt lat="63.869956970" lon="-21.798734665">
<ele>16.638672</ele>
<time>2012-07-28T14:17:51Z</time>
<speed>2.380000</speed>
<extensions>
<speed>2.4</speed>
<temp>0.00</temp>
<bpm>0</bpm>
<rpm>0.00</rpm>
</extensions>
</trkpt>
<trkpt lat="63.869983673" lon="-21.798965454">
<ele>16.793945</ele>
<time>2012-07-28T14:17:56Z</time>
<speed>2.460000</speed>
<extensions>
<speed>2.5</speed>
<temp>0.00</temp>
<bpm>0</bpm>
<rpm>0.00</rpm>
</extensions>
</trkpt>
<trkpt lat="63.870010376" lon="-21.799186707">
<ele>16.944336</ele>
<time>2012-07-28T14:18:01Z</time>
<speed>2.240000</speed>
<extensions>
<speed>2.2</speed>
<temp>0.00</temp>
<bpm>0</bpm>
<rpm>0.00</rpm>
</extensions>
</trkpt>
<trkpt lat="63.870040894" lon="-21.799406052">
<ele>16.841797</ele>
<time>2012-07-28T14:18:06Z</time>
<speed>2.120000</speed>
<extensions>
<speed>2.1</speed>
<temp>0.00</temp>
<bpm>0</bpm>
<rpm>0.00</rpm>
</extensions>
</trkpt>
<trkpt lat="63.870059967" lon="-21.799619675">
<ele>16.532227</ele>
<time>2012-07-28T14:18:11Z</time>
<speed>2.220000</speed>
<extensions>
<speed>2.2</speed>
<temp>0.00</temp>
<bpm>0</bpm>
<rpm>0.00</rpm>
</extensions>
</trkpt>
<trkpt lat="63.870079041" lon="-21.799850464">
<ele>16.829102</ele>
<time>2012-07-28T14:18:16Z</time>
<speed>2.500000</speed>
<extensions>
<speed>2.5</speed>
<temp>0.00</temp>
<bpm>0</bpm>
<rpm>0.00</rpm>
</extensions>
</trkpt>
<trkpt lat="63.870105743" lon="-21.800092697">
<ele>16.967773</ele>
<time>2012-07-28T14:18:21Z</time>
<speed>2.530000</speed>
<extensions>
<speed>2.5</speed>
<temp>0.00</temp>
<bpm>0</bpm>
<rpm>0.00</rpm>
</extensions>
</trkpt>
<trkpt lat="63.870132446" lon="-21.800354004">
<ele>16.722656</ele>
<time>2012-07-28T14:18:26Z</time>
<speed>2.470000</speed>
<extensions>
<speed>2.5</speed>
<temp>0.00</temp>
<bpm>0</bpm>
<rpm>0.00</rpm>
</extensions>
</trkpt>
<trkpt lat="63.870159149" lon="-21.800567627">
<ele>16.307617</ele>
<time>2012-07-28T14:18:31Z</time>
<speed>2.380000</speed>
<extensions>
<speed>2.4</speed>
<temp>0.00</temp>
<bpm>0</bpm>
<rpm>0.00</rpm>
</extensions>
</trkpt>
<trkpt lat="63.870185852" lon="-21.800802231">
<ele>16.653320</ele>
<time>2012-07-28T14:18:36Z</time>
<speed>2.160000</speed>
<extensions>
<speed>2.2</speed>
<temp>0.00</temp>
<bpm>0</bpm>
<rpm>0.00</rpm>
</extensions>
</trkpt>
<trkpt lat="63.870220184" lon="-21.801010132">
<ele>17.016602</ele>
<time>2012-07-28T14:18:41Z</time>
<speed>2.330000</speed>
<extensions>
<speed>2.3</speed>
<temp>0.00</temp>
<bpm>0</bpm>
<rpm>0.00</rpm>
</extensions>
</trkpt>
<trkpt lat="63.870246887" lon="-21.801233292">
<ele>16.846191</ele>
<time>2012-07-28T14:18:46Z</time>
<speed>2.450000</speed>
<extensions>
<speed>2.4</speed>
<temp>0.00</temp>
<bpm>0</bpm>
<rpm>0.00</rpm>
</extensions>
</trkpt>
<trkpt lat="63.870277405" lon="-21.801475525">
<ele>16.322266</ele>
<time>2012-07-28T14:18:51Z</time>
<speed>2.380000</speed>
<extensions>
<speed>2.4</speed>
<temp>0.00</temp>
<bpm>0</bpm>
<rpm>0.00</rpm>
</extensions>
</trkpt>
<trkpt lat="63.870304108" lon="-21.801731110">
<ele>16.476563</ele>
<time>2012-07-28T14:18:56Z</time>
<speed>2.480000</speed>
<extensions>
<speed>2.5</speed>
<temp>0.00</temp>
<bpm>0</bpm>
<rpm>0.00</rpm>
</extensions>
</trkpt>
<trkpt lat="63.870334625" lon="-21.801992416">
<ele>16.483887</ele>
<time>2012-07-28T14:19:01Z</time>
<speed>2.880000</speed>
<extensions>
<speed>2.9</speed>
<temp>0.00</temp>
<bpm>0</bpm>
<rpm>0.00</rpm>
</extensions>
</trkpt>
<trkpt lat="63.870361328" lon="-21.802309036">
<ele>16.723633</ele>
<time>2012-07-28T14:19:06Z</time>
<speed>3.170000</speed>
<extensions>
<speed>3.2</speed>
<temp>0.00</temp>
<bpm>0</bpm>
<rpm>0.00</rpm>
</extensions>
</trkpt>
<trkpt lat="63.870391846" lon="-21.802619934">
<ele>17.114746</ele>
<time>2012-07-28T14:19:11Z</time>
<speed>2.430000</speed>
<extensions>
<speed>2.4</speed>
<temp>0.00</temp>
<bpm>0</bpm>
<rpm>0.00</rpm>
</extensions>
</trkpt>
<trkpt lat="63.870414734" lon="-21.802894592">
<ele>17.024414</ele>
<time>2012-07-28T14:19:16Z</time>
<speed>3.390000</speed>
<extensions>
<speed>3.4</speed>
<temp>0.00</temp>
<bpm>0</bpm>
<rpm>0.00</rpm>
</extensions>
</trkpt>
<trkpt lat="63.870433807" lon="-21.803255081">
<ele>16.885254</ele>
<time>2012-07-28T14:19:21Z</time>
<speed>3.160000</speed>
<extensions>
<speed>3.2</speed>
<temp>0.00</temp>
<bpm>0</bpm>
<rpm>0.00</rpm>
</extensions>
</trkpt>
<trkpt lat="63.870445251" lon="-21.803518295">
<ele>16.757813</ele>
<time>2012-07-28T14:19:26Z</time>
<speed>2.740000</speed>
<extensions>
<speed>2.7</speed>
<temp>0.00</temp>
<bpm>0</bpm>
<rpm>0.00</rpm>
</extensions>
</trkpt>
<trkpt lat="63.870460510" lon="-21.803834915">
<ele>16.977539</ele>
<time>2012-07-28T14:19:31Z</time>
<speed>3.110000</speed>
<extensions>
<speed>3.1</speed>
<temp>0.00</temp>
<bpm>0</bpm>
<rpm>0.00</rpm>
</extensions>
</trkpt>
<trkpt lat="63.870487213" lon="-21.804191589">
<ele>17.041992</ele>
<time>2012-07-28T14:19:36Z</time>
<speed>3.380000</speed>
<extensions>
<speed>3.4</speed>
<temp>0.00</temp>
<bpm>0</bpm>
<rpm>0.00</rpm>
</extensions>
</trkpt>
<trkpt lat="63.870494843" lon="-21.804553986">
<ele>17.167480</ele>
<time>2012-07-28T14:19:41Z</time>
<speed>4.000000</speed>
<extensions>
<speed>4.0</speed>
<temp>0.00</temp>
<bpm>0</bpm>
<rpm>0.00</rpm>
</extensions>
</trkpt>
<trkpt lat="63.870502472" lon="-21.805011749">
<ele>16.580566</ele>
<time>2012-07-28T14:19:46Z</time>
<speed>5.010000</speed>
<extensions>
<speed>5.0</speed>
<temp>0.00</temp>
<bpm>0</bpm>
<rpm>0.00</rpm>
</extensions>
</trkpt>
<trkpt lat="63.870506287" lon="-21.805498123">
<ele>16.907227</ele>
<time>2012-07-28T14:19:51Z</time>
<speed>4.950000</speed>
<extensions>
<speed>4.9</speed>
<temp>0.00</temp>
<bpm>0</bpm>
<rpm>0.00</rpm>
</extensions>
</trkpt>
<trkpt lat="63.870502472" lon="-21.806015015">
<ele>16.552246</ele>
<time>2012-07-28T14:19:56Z</time>
<speed>4.820000</speed>
<extensions>
<speed>4.8</speed>
<temp>0.00</temp>
<bpm>0</bpm>
<rpm>0.00</rpm>
</extensions>
</trkpt>
<trkpt lat="63.870494843" lon="-21.806440353">
<ele>16.228027</ele>
<time>2012-07-28T14:20:01Z</time>
<speed>3.640000</speed>
<extensions>
<speed>3.6</speed>
<temp>0.00</temp>
<bpm>0</bpm>
<rpm>0.00</rpm>
</extensions>
</trkpt>
<trkpt lat="63.870487213" lon="-21.806798935">
<ele>15.870605</ele>
<time>2012-07-28T14:20:06Z</time>
<speed>3.460000</speed>
<extensions>
<speed>3.5</speed>
<temp>0.00</temp>
<bpm>0</bpm>
<rpm>0.00</rpm>
</extensions>
</trkpt>
<trkpt lat="63.870475769" lon="-21.807157516">
<ele>15.149658</ele>
<time>2012-07-28T14:20:11Z</time>
<speed>4.000000</speed>
<extensions>
<speed>4.0</speed>
<temp>0.00</temp>
<bpm>0</bpm>
<rpm>0.00</rpm>
</extensions>
</trkpt>
<trkpt lat="63.870460510" lon="-21.807592392">
<ele>15.201904</ele>
<time>2012-07-28T14:20:16Z</time>
<speed>4.620000</speed>
<extensions>
<speed>4.6</speed>
<temp>0.00</temp>
<bpm>0</bpm>
<rpm>0.00</rpm>
</extensions>
</trkpt>
<trkpt lat="63.870449066" lon="-21.808076859">
<ele>14.915039</ele>
<time>2012-07-28T14:20:21Z</time>
<speed>4.920000</speed>
<extensions>
<speed>4.9</speed>
<temp>0.00</temp>
<bpm>0</bpm>
<rpm>0.00</rpm>
</extensions>
</trkpt>
<trkpt lat="63.870429993" lon="-21.808584213">
<ele>14.789063</ele>
<time>2012-07-28T14:20:26Z</time>
<speed>4.680000</speed>
<extensions>
<speed>4.7</speed>
<temp>0.00</temp>
<bpm>0</bpm>
<rpm>0.00</rpm>
</extensions>
</trkpt>
<trkpt lat="63.870426178" lon="-21.809078217">
<ele>14.531250</ele>
<time>2012-07-28T14:20:31Z</time>
<speed>4.930000</speed>
<extensions>
<speed>4.9</speed>
<temp>0.00</temp>
<bpm>0</bpm>
<rpm>0.00</rpm>
</extensions>
</trkpt>
<trkpt lat="63.870403290" lon="-21.809539795">
<ele>14.240479</ele>
<time>2012-07-28T14:20:36Z</time>
<speed>4.840000</speed>
<extensions>
<speed>4.8</speed>
<temp>0.00</temp>
<bpm>0</bpm>
<rpm>0.00</rpm>
</extensions>
</trkpt>
<trkpt lat="63.870384216" lon="-21.809970856">
<ele>13.898193</ele>
<time>2012-07-28T14:20:41Z</time>
<speed>3.840000</speed>
<extensions>
<speed>3.8</speed>
<temp>0.00</temp>
<bpm>0</bpm>
<rpm>0.00</rpm>
</extensions>
</trkpt>
<trkpt lat="63.870372772" lon="-21.810321808">
<ele>13.875977</ele>
<time>2012-07-28T14:20:46Z</time>
<speed>3.150000</speed>
<extensions>
<speed>3.2</speed>
<temp>0.00</temp>
<bpm>0</bpm>
<rpm>0.00</rpm>
</extensions>
</trkpt>
<trkpt lat="63.870372772" lon="-21.810632706">
<ele>14.336670</ele>
<time>2012-07-28T14:20:51Z</time>
<speed>3.040000</speed>
<extensions>
<speed>3.0</speed>
<temp>0.00</temp>
<bpm>0</bpm>
<rpm>0.00</rpm>
</extensions>
</trkpt>
<trkpt lat="63.870361328" lon="-21.810991287">
<ele>14.898682</ele>
<time>2012-07-28T14:20:56Z</time>
<speed>3.380000</speed>
<extensions>
<speed>3.4</speed>
<temp>0.00</temp>
<bpm>0</bpm>
<rpm>0.00</rpm>
</extensions>
</trkpt>
<trkpt lat="63.870353699" lon="-21.811323166">
<ele>14.875488</ele>
<time>2012-07-28T14:21:01Z</time>
<speed>3.130000</speed>
<extensions>
<speed>3.1</speed>
<temp>0.00</temp>
<bpm>0</bpm>
<rpm>0.00</rpm>
</extensions>
</trkpt>
<trkpt lat="63.870353699" lon="-21.811586380">
<ele>14.219971</ele>
<time>2012-07-28T14:21:06Z</time>
<speed>2.520000</speed>
<extensions>
<speed>2.5</speed>
<temp>0.00</temp>
<bpm>0</bpm>
<rpm>0.00</rpm>
</extensions>
</trkpt>
<trkpt lat="63.870349884" lon="-21.811855316">
<ele>13.944092</ele>
<time>2012-07-28T14:21:11Z</time>
<speed>2.930000</speed>
<extensions>
<speed>2.9</speed>
<temp>0.00</temp>
<bpm>0</bpm>
<rpm>0.00</rpm>
</extensions>
</trkpt>
<trkpt lat="63.870346069" lon="-21.812149048">
<ele>13.593994</ele>
<time>2012-07-28T14:21:16Z</time>
<speed>2.680000</speed>
<extensions>
<speed>2.7</speed>
<temp>0.00</temp>
<bpm>0</bpm>
<rpm>0.00</rpm>
</extensions>
</trkpt>
<trkpt lat="63.870346069" lon="-21.812416077">
<ele>13.385254</ele>
<time>2012-07-28T14:21:21Z</time>
<speed>2.820000</speed>
<extensions>
<speed>2.8</speed>
<temp>0.00</temp>
<bpm>0</bpm>
<rpm>0.00</rpm>
</extensions>
</trkpt>
<trkpt lat="63.870334625" lon="-21.812690735">
<ele>13.390137</ele>
<time>2012-07-28T14:21:26Z</time>
<speed>2.560000</speed>
<extensions>
<speed>2.6</speed>
<temp>0.00</temp>
<bpm>0</bpm>
<rpm>0.00</rpm>
</extensions>
</trkpt>
<trkpt lat="63.870326996" lon="-21.812973022">
<ele>13.283203</ele>
<time>2012-07-28T14:21:31Z</time>
<speed>2.790000</speed>
<extensions>
<speed>2.8</speed>
<temp>0.00</temp>
<bpm>0</bpm>
<rpm>0.00</rpm>
</extensions>
</trkpt>
<trkpt lat="63.870319366" lon="-21.813306808">
<ele>13.220459</ele>
<time>2012-07-28T14:21:36Z</time>
<speed>3.420000</speed>
<extensions>
<speed>3.4</speed>
<temp>0.00</temp>
<bpm>0</bpm>
<rpm>0.00</rpm>
</extensions>
</trkpt>
<trkpt lat="63.870330811" lon="-21.813703537">
<ele>12.590088</ele>
<time>2012-07-28T14:21:41Z</time>
<speed>4.200000</speed>
<extensions>
<speed>4.2</speed>
<temp>0.00</temp>
<bpm>0</bpm>
<rpm>0.00</rpm>
</extensions>
</trkpt>
<trkpt lat="63.870326996" lon="-21.814203262">
<ele>11.291992</ele>
<time>2012-07-28T14:21:46Z</time>
<speed>5.110000</speed>
<extensions>
<speed>5.1</speed>
<temp>0.00</temp>
<bpm>0</bpm>
<rpm>0.00</rpm>
</extensions>
</trkpt>
<trkpt lat="63.870326996" lon="-21.814689636">
<ele>10.593750</ele>
<time>2012-07-28T14:21:51Z</time>
<speed>4.700000</speed>
<extensions>
<speed>4.7</speed>
<temp>0.00</temp>
<bpm>0</bpm>
<rpm>0.00</rpm>
</extensions>
</trkpt>
<trkpt lat="63.870315552" lon="-21.815122604">
<ele>10.387451</ele>
<time>2012-07-28T14:21:56Z</time>
<speed>4.310000</speed>
<extensions>
<speed>4.3</speed>
<temp>0.00</temp>
<bpm>0</bpm>
<rpm>0.00</rpm>
</extensions>
</trkpt>
<trkpt lat="63.870319366" lon="-21.815538406">
<ele>10.691406</ele>
<time>2012-07-28T14:22:01Z</time>
<speed>3.950000</speed>
<extensions>
<speed>4.0</speed>
<temp>0.00</temp>
<bpm>0</bpm>
<rpm>0.00</rpm>
</extensions>
</trkpt>
<trkpt lat="63.870326996" lon="-21.815944672">
<ele>11.379639</ele>
<time>2012-07-28T14:22:06Z</time>
<speed>4.120000</speed>
<extensions>
<speed>4.1</speed>
<temp>0.00</temp>
<bpm>0</bpm>
<rpm>0.00</rpm>
</extensions>
</trkpt>
<trkpt lat="63.870323181" lon="-21.816368103">
<ele>11.867188</ele>
<time>2012-07-28T14:22:11Z</time>
<speed>4.160000</speed>
<extensions>
<speed>4.2</speed>
<temp>0.00</temp>
<bpm>0</bpm>
<rpm>0.00</rpm>
</extensions>
</trkpt>
<trkpt lat="63.870323181" lon="-21.816810608">
<ele>12.566406</ele>
<time>2012-07-28T14:22:16Z</time>
<speed>4.480000</speed>
<extensions>
<speed>4.5</speed>
<temp>0.00</temp>
<bpm>0</bpm>
<rpm>0.00</rpm>
</extensions>
</trkpt>
<trkpt lat="63.870346069" lon="-21.817245483">
<ele>11.959473</ele>
<time>2012-07-28T14:22:21Z</time>
<speed>4.100000</speed>
<extensions>
<speed>4.1</speed>
<temp>0.00</temp>
<bpm>0</bpm>
<rpm>0.00</rpm>
</extensions>
</trkpt>
<trkpt lat="63.870349884" lon="-21.817663193">
<ele>12.096191</ele>
<time>2012-07-28T14:22:26Z</time>
<speed>4.300000</speed>
<extensions>
<speed>4.3</speed>
<temp>0.00</temp>
<bpm>0</bpm>
<rpm>0.00</rpm>
</extensions>
</trkpt>
<trkpt lat="63.870365143" lon="-21.818099976">
<ele>11.678711</ele>
<time>2012-07-28T14:22:31Z</time>
<speed>4.170000</speed>
<extensions>
<speed>4.2</speed>
<temp>0.00</temp>
<bpm>0</bpm>
<rpm>0.00</rpm>
</extensions>
</trkpt>
<trkpt lat="63.870372772" lon="-21.818525314">
<ele>11.955078</ele>
<time>2012-07-28T14:22:36Z</time>
<speed>4.270000</speed>
<extensions>
<speed>4.3</speed>
<temp>0.00</temp>
<bpm>0</bpm>
<rpm>0.00</rpm>
</extensions>
</trkpt>
<trkpt lat="63.870368958" lon="-21.818948746">
<ele>12.271973</ele>
<time>2012-07-28T14:22:41Z</time>
<speed>4.040000</speed>
<extensions>
<speed>4.0</speed>
<temp>0.00</temp>
<bpm>0</bpm>
<rpm>0.00</rpm>
</extensions>
</trkpt>
<trkpt lat="63.870384216" lon="-21.819335938">
<ele>12.063721</ele>
<time>2012-07-28T14:22:46Z</time>
<speed>3.310000</speed>
<extensions>
<speed>3.3</speed>
<temp>0.00</temp>
<bpm>0</bpm>
<rpm>0.00</rpm>
</extensions>
</trkpt>
<trkpt lat="63.870388031" lon="-21.819656372">
<ele>12.431152</ele>
<time>2012-07-28T14:22:51Z</time>
<speed>3.230000</speed>
<extensions>
<speed>3.2</speed>
<temp>0.00</temp>
<bpm>0</bpm>
<rpm>0.00</rpm>
</extensions>
</trkpt>
<trkpt lat="63.870407104" lon="-21.819990158">
<ele>12.364502</ele>
<time>2012-07-28T14:22:56Z</time>
<speed>3.440000</speed>
<extensions>
<speed>3.4</speed>
<temp>0.00</temp>
<bpm>0</bpm>
<rpm>0.00</rpm>
</extensions>
</trkpt>
<trkpt lat="63.870414734" lon="-21.820358276">
<ele>12.354980</ele>
<time>2012-07-28T14:23:01Z</time>
<speed>3.680000</speed>
<extensions>
<speed>3.7</speed>
<temp>0.00</temp>
<bpm>0</bpm>
<rpm>0.00</rpm>
</extensions>
</trkpt>
<trkpt lat="63.870426178" lon="-21.820711136">
<ele>12.096191</ele>
<time>2012-07-28T14:23:06Z</time>
<speed>3.340000</speed>
<extensions>
<speed>3.3</speed>
<temp>0.00</temp>
<bpm>0</bpm>
<rpm>0.00</rpm>
</extensions>
</trkpt>
<trkpt lat="63.870449066" lon="-21.821033478">
<ele>11.580322</ele>
<time>2012-07-28T14:23:11Z</time>
<speed>2.420000</speed>
<extensions>
<speed>2.4</speed>
<temp>0.00</temp>
<bpm>0</bpm>
<rpm>0.00</rpm>
</extensions>
</trkpt>
<trkpt lat="63.870452881" lon="-21.821250916">
<ele>12.045410</ele>
<time>2012-07-28T14:23:16Z</time>
<speed>2.160000</speed>
<extensions>
<speed>2.2</speed>
<temp>0.00</temp>
<bpm>0</bpm>
<rpm>0.00</rpm>
</extensions>
</trkpt>
<trkpt lat="63.870464325" lon="-21.821437836">
<ele>11.992188</ele>
<time>2012-07-28T14:23:21Z</time>
<speed>2.050000</speed>
<extensions>
<speed>2.1</speed>
<temp>0.00</temp>
<bpm>0</bpm>
<rpm>0.00</rpm>
</extensions>
</trkpt>
<trkpt lat="63.870471954" lon="-21.821645737">
<ele>11.944336</ele>
<time>2012-07-28T14:23:26Z</time>
<speed>2.090000</speed>
<extensions>
<speed>2.1</speed>
<temp>0.00</temp>
<bpm>0</bpm>
<rpm>0.00</rpm>
</extensions>
</trkpt>
<trkpt lat="63.870487213" lon="-21.821857452">
<ele>12.486084</ele>
<time>2012-07-28T14:23:31Z</time>
<speed>2.170000</speed>
<extensions>
<speed>2.2</speed>
<temp>0.00</temp>
<bpm>0</bpm>
<rpm>0.00</rpm>
</extensions>
</trkpt>
<trkpt lat="63.870498657" lon="-21.822065353">
<ele>12.928711</ele>
<time>2012-07-28T14:23:36Z</time>
<speed>1.500000</speed>
<extensions>
<speed>1.5</speed>
<temp>0.00</temp>
<bpm>0</bpm>
<rpm>0.00</rpm>
</extensions>
</trkpt>
<trkpt lat="63.870506287" lon="-21.822259903">
<ele>13.144531</ele>
<time>2012-07-28T14:23:41Z</time>
<speed>2.340000</speed>
<extensions>
<speed>2.3</speed>
<temp>0.00</temp>
<bpm>0</bpm>
<rpm>0.00</rpm>
</extensions>
</trkpt>
<trkpt lat="63.870517731" lon="-21.822496414">
<ele>14.357422</ele>
<time>2012-07-28T14:23:46Z</time>
<speed>2.470000</speed>
<extensions>
<speed>2.5</speed>
<temp>0.00</temp>
<bpm>0</bpm>
<rpm>0.00</rpm>
</extensions>
</trkpt>
<trkpt lat="63.870529175" lon="-21.822788239">
<ele>14.612549</ele>
<time>2012-07-28T14:23:51Z</time>
<speed>3.050000</speed>
<extensions>
<speed>3.0</speed>
<temp>0.00</temp>
<bpm>0</bpm>
<rpm>0.00</rpm>
</extensions>
</trkpt>
<trkpt lat="63.870548248" lon="-21.823091507">
<ele>14.784912</ele>
<time>2012-07-28T14:23:56Z</time>
<speed>3.340000</speed>
<extensions>
<speed>3.3</speed>
<temp>0.00</temp>
<bpm>0</bpm>
<rpm>0.00</rpm>
</extensions>
</trkpt>
<trkpt lat="63.870567322" lon="-21.823455811">
<ele>16.228027</ele>
<time>2012-07-28T14:24:01Z</time>
<speed>3.560000</speed>
<extensions>
<speed>3.6</speed>
<temp>0.00</temp>
<bpm>0</bpm>
<rpm>0.00</rpm>
</extensions>
</trkpt>
<trkpt lat="63.870571136" lon="-21.823797226">
<ele>16.389160</ele>
<time>2012-07-28T14:24:06Z</time>
<speed>3.310000</speed>
<extensions>
<speed>3.3</speed>
<temp>0.00</temp>
<bpm>0</bpm>
<rpm>0.00</rpm>
</extensions>
</trkpt>
<trkpt lat="63.870578766" lon="-21.824081421">
<ele>15.858643</ele>
<time>2012-07-28T14:24:11Z</time>
<speed>2.580000</speed>
<extensions>
<speed>2.6</speed>
<temp>0.00</temp>
<bpm>0</bpm>
<rpm>0.00</rpm>
</extensions>
</trkpt>
<trkpt lat="63.870578766" lon="-21.824352264">
<ele>16.245117</ele>
<time>2012-07-28T14:24:16Z</time>
<speed>2.810000</speed>
<extensions>
<speed>2.8</speed>
<temp>0.00</temp>
<bpm>0</bpm>
<rpm>0.00</rpm>
</extensions>
</trkpt>
<trkpt lat="63.870582581" lon="-21.824600220">
<ele>16.064941</ele>
<time>2012-07-28T14:24:21Z</time>
<speed>2.390000</speed>
<extensions>
<speed>2.4</speed>
<temp>0.00</temp>
<bpm>0</bpm>
<rpm>0.00</rpm>
</extensions>
</trkpt>
<trkpt lat="63.870590210" lon="-21.824836731">
<ele>16.312500</ele>
<time>2012-07-28T14:24:26Z</time>
<speed>2.250000</speed>
<extensions>
<speed>2.3</speed>
<temp>0.00</temp>
<bpm>0</bpm>
<rpm>0.00</rpm>
</extensions>
</trkpt>
<trkpt lat="63.870597839" lon="-21.825090408">
<ele>16.233398</ele>
<time>2012-07-28T14:24:31Z</time>
<speed>2.650000</speed>
<extensions>
<speed>2.6</speed>
<temp>0.00</temp>
<bpm>0</bpm>
<rpm>0.00</rpm>
</extensions>
</trkpt>
<trkpt lat="63.870601654" lon="-21.825361252">
<ele>16.101074</ele>
<time>2012-07-28T14:24:36Z</time>
<speed>2.720000</speed>
<extensions>
<speed>2.7</speed>
<temp>0.00</temp>
<bpm>0</bpm>
<rpm>0.00</rpm>
</extensions>
</trkpt>
<trkpt lat="63.870605469" lon="-21.825632095">
<ele>16.537598</ele>
<time>2012-07-28T14:24:41Z</time>
<speed>2.730000</speed>
<extensions>
<speed>2.7</speed>
<temp>0.00</temp>
<bpm>0</bpm>
<rpm>0.00</rpm>
</extensions>
</trkpt>
<trkpt lat="63.870609283" lon="-21.825885773">
<ele>16.629395</ele>
<time>2012-07-28T14:24:46Z</time>
<speed>2.670000</speed>
<extensions>
<speed>2.7</speed>
<temp>0.00</temp>
<bpm>0</bpm>
<rpm>0.00</rpm>
</extensions>
</trkpt>
<trkpt lat="63.870616913" lon="-21.826158524">
<ele>18.206055</ele>
<time>2012-07-28T14:24:51Z</time>
<speed>2.300000</speed>
<extensions>
<speed>2.3</speed>
<temp>0.00</temp>
<bpm>0</bpm>
<rpm>0.00</rpm>
</extensions>
</trkpt>
<trkpt lat="63.870616913" lon="-21.826385498">
<ele>18.457520</ele>
<time>2012-07-28T14:24:56Z</time>
<speed>2.360000</speed>
<extensions>
<speed>2.4</speed>
<temp>0.00</temp>
<bpm>0</bpm>
<rpm>0.00</rpm>
</extensions>
</trkpt>
<trkpt lat="63.870624542" lon="-21.826593399">
<ele>19.581543</ele>
<time>2012-07-28T14:25:01Z</time>
<speed>2.130000</speed>
<extensions>
<speed>2.1</speed>
<temp>0.00</temp>
<bpm>0</bpm>
<rpm>0.00</rpm>
</extensions>
</trkpt>
<trkpt lat="63.870632172" lon="-21.826829910">
<ele>19.640137</ele>
<time>2012-07-28T14:25:06Z</time>
<speed>2.610000</speed>
<extensions>
<speed>2.6</speed>
<temp>0.00</temp>
<bpm>0</bpm>
<rpm>0.00</rpm>
</extensions>
</trkpt>
<trkpt lat="63.870628357" lon="-21.827089310">
<ele>19.027832</ele>
<time>2012-07-28T14:25:11Z</time>
<speed>2.590000</speed>
<extensions>
<speed>2.6</speed>
<temp>0.00</temp>
<bpm>0</bpm>
<rpm>0.00</rpm>
</extensions>
</trkpt>
<trkpt lat="63.870628357" lon="-21.827344894">
<ele>19.347168</ele>
<time>2012-07-28T14:25:16Z</time>
<speed>2.470000</speed>
<extensions>
<speed>2.5</speed>
<temp>0.00</temp>
<bpm>0</bpm>
<rpm>0.00</rpm>
</extensions>
</trkpt>
<trkpt lat="63.870632172" lon="-21.827596664">
<ele>19.651367</ele>
<time>2012-07-28T14:25:21Z</time>
<speed>2.350000</speed>
<extensions>
<speed>2.4</speed>
<temp>0.00</temp>
<bpm>0</bpm>
<rpm>0.00</rpm>
</extensions>
</trkpt>
<trkpt lat="63.870632172" lon="-21.827857971">
<ele>20.207031</ele>
<time>2012-07-28T14:25:26Z</time>
<speed>2.580000</speed>
<extensions>
<speed>2.6</speed>
<temp>0.00</temp>
<bpm>0</bpm>
<rpm>0.00</rpm>
</extensions>
</trkpt>
<trkpt lat="63.870628357" lon="-21.828144073">
<ele>19.792480</ele>
<time>2012-07-28T14:25:31Z</time>
<speed>2.960000</speed>
<extensions>
<speed>3.0</speed>
<temp>0.00</temp>
<bpm>0</bpm>
<rpm>0.00</rpm>
</extensions>
</trkpt>
<trkpt lat="63.870620728" lon="-21.828475952">
<ele>20.043945</ele>
<time>2012-07-28T14:25:36Z</time>
<speed>3.530000</speed>
<extensions>
<speed>3.5</speed>
<temp>0.00</temp>
<bpm>0</bpm>
<rpm>0.00</rpm>
</extensions>
</trkpt>
<trkpt lat="63.870624542" lon="-21.828838348">
<ele>20.230469</ele>
<time>2012-07-28T14:25:41Z</time>
<speed>3.480000</speed>
<extensions>
<speed>3.5</speed>
<temp>0.00</temp>
<bpm>0</bpm>
<rpm>0.00</rpm>
</extensions>
</trkpt>
<trkpt lat="63.870628357" lon="-21.829147339">
<ele>19.965820</ele>
<time>2012-07-28T14:25:46Z</time>
<speed>2.580000</speed>
<extensions>
<speed>2.6</speed>
<temp>0.00</temp>
<bpm>0</bpm>
<rpm>0.00</rpm>
</extensions>
</trkpt>
<trkpt lat="63.870624542" lon="-21.829429626">
<ele>19.659180</ele>
<time>2012-07-28T14:25:51Z</time>
<speed>2.710000</speed>
<extensions>
<speed>2.7</speed>
<temp>0.00</temp>
<bpm>0</bpm>
<rpm>0.00</rpm>
</extensions>
</trkpt>
<trkpt lat="63.870620728" lon="-21.829690933">
<ele>20.056641</ele>
<time>2012-07-28T14:25:56Z</time>
<speed>2.550000</speed>
<extensions>
<speed>2.6</speed>
<temp>0.00</temp>
<bpm>0</bpm>
<rpm>0.00</rpm>
</extensions>
</trkpt>
<trkpt lat="63.870620728" lon="-21.829971313">
<ele>20.900391</ele>
<time>2012-07-28T14:26:01Z</time>
<speed>2.910000</speed>
<extensions>
<speed>2.9</speed>
<temp>0.00</temp>
<bpm>0</bpm>
<rpm>0.00</rpm>
</extensions>
</trkpt>
<trkpt lat="63.870616913" lon="-21.830284119">
<ele>20.559082</ele>
<time>2012-07-28T14:26:06Z</time>
<speed>2.890000</speed>
<extensions>
<speed>2.9</speed>
<temp>0.00</temp>
<bpm>0</bpm>
<rpm>0.00</rpm>
</extensions>
</trkpt>
<trkpt lat="63.870616913" lon="-21.830533981">
<ele>19.739258</ele>
<time>2012-07-28T14:26:11Z</time>
<speed>2.730000</speed>
<extensions>
<speed>2.7</speed>
<temp>0.00</temp>
<bpm>0</bpm>
<rpm>0.00</rpm>
</extensions>
</trkpt>
<trkpt lat="63.870620728" lon="-21.830785751">
<ele>18.437012</ele>
<time>2012-07-28T14:26:16Z</time>
<speed>1.910000</speed>
<extensions>
<speed>1.9</speed>
<temp>0.00</temp>
<bpm>0</bpm>
<rpm>0.00</rpm>
</extensions>
</trkpt>
<trkpt lat="63.870613098" lon="-21.831022263">
<ele>18.194824</ele>
<time>2012-07-28T14:26:21Z</time>
<speed>2.200000</speed>
<extensions>
<speed>2.2</speed>
<temp>0.00</temp>
<bpm>0</bpm>
<rpm>0.00</rpm>
</extensions>
</trkpt>
<trkpt lat="63.870616913" lon="-21.831253052">
<ele>18.404297</ele>
<time>2012-07-28T14:26:26Z</time>
<speed>2.450000</speed>
<extensions>
<speed>2.4</speed>
<temp>0.00</temp>
<bpm>0</bpm>
<rpm>0.00</rpm>
</extensions>
</trkpt>
<trkpt lat="63.870616913" lon="-21.831537247">
<ele>18.588867</ele>
<time>2012-07-28T14:26:31Z</time>
<speed>2.900000</speed>
<extensions>
<speed>2.9</speed>
<temp>0.00</temp>
<bpm>0</bpm>
<rpm>0.00</rpm>
</extensions>
</trkpt>
<trkpt lat="63.870613098" lon="-21.831827164">
<ele>20.805664</ele>
<time>2012-07-28T14:26:36Z</time>
<speed>3.030000</speed>
<extensions>
<speed>3.0</speed>
<temp>0.00</temp>
<bpm>0</bpm>
<rpm>0.00</rpm>
</extensions>
</trkpt>
<trkpt lat="63.870609283" lon="-21.832189560">
<ele>22.396484</ele>
<time>2012-07-28T14:26:41Z</time>
<speed>3.820000</speed>
<extensions>
<speed>3.8</speed>
<temp>0.00</temp>
<bpm>0</bpm>
<rpm>0.00</rpm>
</extensions>
</trkpt>
<trkpt lat="63.870597839" lon="-21.832580566">
<ele>22.743164</ele>
<time>2012-07-28T14:26:46Z</time>
<speed>3.640000</speed>
<extensions>
<speed>3.6</speed>
<temp>0.00</temp>
<bpm>0</bpm>
<rpm>0.00</rpm>
</extensions>
</trkpt>
<trkpt lat="63.870601654" lon="-21.832925797">
<ele>22.995117</ele>
<time>2012-07-28T14:26:51Z</time>
<speed>3.490000</speed>
<extensions>
<speed>3.5</speed>
<temp>0.00</temp>
<bpm>0</bpm>
<rpm>0.00</rpm>
</extensions>
</trkpt>
<trkpt lat="63.870590210" lon="-21.833305359">
<ele>23.481934</ele>
<time>2012-07-28T14:26:56Z</time>
<speed>3.870000</speed>
<extensions>
<speed>3.9</speed>
<temp>0.00</temp>
<bpm>0</bpm>
<rpm>0.00</rpm>
</extensions>
</trkpt>
<trkpt lat="63.870594025" lon="-21.833703995">
<ele>24.722656</ele>
<time>2012-07-28T14:27:01Z</time>
<speed>3.540000</speed>
<extensions>
<speed>3.5</speed>
<temp>0.00</temp>
<bpm>0</bpm>
<rpm>0.00</rpm>
</extensions>
</trkpt>
<trkpt lat="63.870571136" lon="-21.834005356">
<ele>23.326660</ele>
<time>2012-07-28T14:27:06Z</time>
<speed>3.100000</speed>
<extensions>
<speed>3.1</speed>
<temp>0.00</temp>
<bpm>0</bpm>
<rpm>0.00</rpm>
</extensions>
</trkpt>
<trkpt lat="63.870578766" lon="-21.834272385">
<ele>23.307617</ele>
<time>2012-07-28T14:27:11Z</time>
<speed>2.230000</speed>
<extensions>
<speed>2.2</speed>
<temp>0.00</temp>
<bpm>0</bpm>
<rpm>0.00</rpm>
</extensions>
</trkpt>
<trkpt lat="63.870563507" lon="-21.834499359">
<ele>20.585449</ele>
<time>2012-07-28T14:27:16Z</time>
<speed>2.530000</speed>
<extensions>
<speed>2.5</speed>
<temp>0.00</temp>
<bpm>0</bpm>
<rpm>0.00</rpm>
</extensions>
</trkpt>
<trkpt lat="63.870574951" lon="-21.834772110">
<ele>21.768066</ele>
<time>2012-07-28T14:27:21Z</time>
<speed>2.730000</speed>
<extensions>
<speed>2.7</speed>
<temp>0.00</temp>
<bpm>0</bpm>
<rpm>0.00</rpm>
</extensions>
</trkpt>
<trkpt lat="63.870571136" lon="-21.835063934">
<ele>23.210449</ele>
<time>2012-07-28T14:27:26Z</time>
<speed>3.240000</speed>
<extensions>
<speed>3.2</speed>
<temp>0.00</temp>
<bpm>0</bpm>
<rpm>0.00</rpm>
</extensions>
</trkpt>
<trkpt lat="63.870563507" lon="-21.835445404">
<ele>23.792480</ele>
<time>2012-07-28T14:27:31Z</time>
<speed>3.990000</speed>
<extensions>
<speed>4.0</speed>
<temp>0.00</temp>
<bpm>0</bpm>
<rpm>0.00</rpm>
</extensions>
</trkpt>
<trkpt lat="63.870548248" lon="-21.835836411">
<ele>25.707031</ele>
<time>2012-07-28T14:27:36Z</time>
<speed>3.740000</speed>
<extensions>
<speed>3.7</speed>
<temp>0.00</temp>
<bpm>0</bpm>
<rpm>0.00</rpm>
</extensions>
</trkpt>
<trkpt lat="63.870536804" lon="-21.836181641">
<ele>25.146484</ele>
<time>2012-07-28T14:27:41Z</time>
<speed>3.180000</speed>
<extensions>
<speed>3.2</speed>
<temp>0.00</temp>
<bpm>0</bpm>
<rpm>0.00</rpm>
</extensions>
</trkpt>
<trkpt lat="63.870525360" lon="-21.836559296">
<ele>25.545410</ele>
<time>2012-07-28T14:27:46Z</time>
<speed>4.030000</speed>
<extensions>
<speed>4.0</speed>
<temp>0.00</temp>
<bpm>0</bpm>
<rpm>0.00</rpm>
</extensions>
</trkpt>
<trkpt lat="63.870510101" lon="-21.836938858">
<ele>24.902344</ele>
<time>2012-07-28T14:27:51Z</time>
<speed>3.620000</speed>
<extensions>
<speed>3.6</speed>
<temp>0.00</temp>
<bpm>0</bpm>
<rpm>0.00</rpm>
</extensions>
</trkpt>
<trkpt lat="63.870498657" lon="-21.837318420">
<ele>24.761719</ele>
<time>2012-07-28T14:27:56Z</time>
<speed>3.940000</speed>
<extensions>
<speed>3.9</speed>
<temp>0.00</temp>
<bpm>0</bpm>
<rpm>0.00</rpm>
</extensions>
</trkpt>
<trkpt lat="63.870479584" lon="-21.837699890">
<ele>23.186523</ele>
<time>2012-07-28T14:28:01Z</time>
<speed>3.310000</speed>
<extensions>
<speed>3.3</speed>
<temp>0.00</temp>
<bpm>0</bpm>
<rpm>0.00</rpm>
</extensions>
</trkpt>
<trkpt lat="63.870464325" lon="-21.838010788">
<ele>23.596680</ele>
<time>2012-07-28T14:28:06Z</time>
<speed>2.750000</speed>
<extensions>
<speed>2.7</speed>
<temp>0.00</temp>
<bpm>0</bpm>
<rpm>0.00</rpm>
</extensions>
</trkpt>
<trkpt lat="63.870452881" lon="-21.838245392">
<ele>22.256348</ele>
<time>2012-07-28T14:28:11Z</time>
<speed>2.420000</speed>
<extensions>
<speed>2.4</speed>
<temp>0.00</temp>
<bpm>0</bpm>
<rpm>0.00</rpm>
</extensions>
</trkpt>
<trkpt lat="63.870433807" lon="-21.838483810">
<ele>21.137695</ele>
<time>2012-07-28T14:28:16Z</time>
<speed>2.560000</speed>
<extensions>
<speed>2.6</speed>
<temp>0.00</temp>
<bpm>0</bpm>
<rpm>0.00</rpm>
</extensions>
</trkpt>
<trkpt lat="63.870422363" lon="-21.838727951">
<ele>20.589355</ele>
<time>2012-07-28T14:28:21Z</time>
<speed>2.380000</speed>
<extensions>
<speed>2.4</speed>
<temp>0.00</temp>
<bpm>0</bpm>
<rpm>0.00</rpm>
</extensions>
</trkpt>
<trkpt lat="63.870410919" lon="-21.838996887">
<ele>20.079590</ele>
<time>2012-07-28T14:28:26Z</time>
<speed>2.480000</speed>
<extensions>
<speed>2.5</speed>
<temp>0.00</temp>
<bpm>0</bpm>
<rpm>0.00</rpm>
</extensions>
</trkpt>
<trkpt lat="63.870399475" lon="-21.839265823">
<ele>19.052734</ele>
<time>2012-07-28T14:28:31Z</time>
<speed>2.830000</speed>
<extensions>
<speed>2.8</speed>
<temp>0.00</temp>
<bpm>0</bpm>
<rpm>0.00</rpm>
</extensions>
</trkpt>
<trkpt lat="63.870388031" lon="-21.839548111">
<ele>17.940918</ele>
<time>2012-07-28T14:28:36Z</time>
<speed>2.860000</speed>
<extensions>
<speed>2.9</speed>
<temp>0.00</temp>
<bpm>0</bpm>
<rpm>0.00</rpm>
</extensions>
</trkpt>
<trkpt lat="63.870368958" lon="-21.839830399">
<ele>18.014160</ele>
<time>2012-07-28T14:28:41Z</time>
<speed>3.270000</speed>
<extensions>
<speed>3.3</speed>
<temp>0.00</temp>
<bpm>0</bpm>
<rpm>0.00</rpm>
</extensions>
</trkpt>
<trkpt lat="63.870353699" lon="-21.840147018">
<ele>17.893066</ele>
<time>2012-07-28T14:28:46Z</time>
<speed>3.290000</speed>
<extensions>
<speed>3.3</speed>
<temp>0.00</temp>
<bpm>0</bpm>
<rpm>0.00</rpm>
</extensions>
</trkpt>
<trkpt lat="63.870334625" lon="-21.840490341">
<ele>17.218750</ele>
<time>2012-07-28T14:28:51Z</time>
<speed>3.320000</speed>
<extensions>
<speed>3.3</speed>
<temp>0.00</temp>
<bpm>0</bpm>
<rpm>0.00</rpm>
</extensions>
</trkpt>
<trkpt lat="63.870315552" lon="-21.840845108">
<ele>17.281738</ele>
<time>2012-07-28T14:28:56Z</time>
<speed>3.500000</speed>
<extensions>
<speed>3.5</speed>
<temp>0.00</temp>
<bpm>0</bpm>
<rpm>0.00</rpm>
</extensions>
</trkpt>
<trkpt lat="63.870300293" lon="-21.841203690">
<ele>17.430176</ele>
<time>2012-07-28T14:29:01Z</time>
<speed>3.520000</speed>
<extensions>
<speed>3.5</speed>
<temp>0.00</temp>
<bpm>0</bpm>
<rpm>0.00</rpm>
</extensions>
</trkpt>
<trkpt lat="63.870273590" lon="-21.841539383">
<ele>17.557617</ele>
<time>2012-07-28T14:29:06Z</time>
<speed>3.500000</speed>
<extensions>
<speed>3.5</speed>
<temp>0.00</temp>
<bpm>0</bpm>
<rpm>0.00</rpm>
</extensions>
</trkpt>
<trkpt lat="63.870254517" lon="-21.841901779">
<ele>16.514648</ele>
<time>2012-07-28T14:29:11Z</time>
<speed>3.520000</speed>
<extensions>
<speed>3.5</speed>
<temp>0.00</temp>
<bpm>0</bpm>
<rpm>0.00</rpm>
</extensions>
</trkpt>
<trkpt lat="63.870235443" lon="-21.842287064">
<ele>16.881348</ele>
<time>2012-07-28T14:29:16Z</time>
<speed>3.940000</speed>
<extensions>
<speed>3.9</speed>
<temp>0.00</temp>
<bpm>0</bpm>
<rpm>0.00</rpm>
</extensions>
</trkpt>
<trkpt lat="63.870208740" lon="-21.842632294">
<ele>16.713379</ele>
<time>2012-07-28T14:29:21Z</time>
<speed>2.950000</speed>
<extensions>
<speed>2.9</speed>
<temp>0.00</temp>
<bpm>0</bpm>
<rpm>0.00</rpm>
</extensions>
</trkpt>
<trkpt lat="63.870182037" lon="-21.842956543">
<ele>16.148926</ele>
<time>2012-07-28T14:29:26Z</time>
<speed>3.640000</speed>
<extensions>
<speed>3.6</speed>
<temp>0.00</temp>
<bpm>0</bpm>
<rpm>0.00</rpm>
</extensions>
</trkpt>
<trkpt lat="63.870159149" lon="-21.843322754">
<ele>16.001465</ele>
<time>2012-07-28T14:29:31Z</time>
<speed>3.710000</speed>
<extensions>
<speed>3.7</speed>
<temp>0.00</temp>
<bpm>0</bpm>
<rpm>0.00</rpm>
</extensions>
</trkpt>
<trkpt lat="63.870140076" lon="-21.843690872">
<ele>15.778076</ele>
<time>2012-07-28T14:29:36Z</time>
<speed>3.400000</speed>
<extensions>
<speed>3.4</speed>
<temp>0.00</temp>
<bpm>0</bpm>
<rpm>0.00</rpm>
</extensions>
</trkpt>
<trkpt lat="63.870113373" lon="-21.843996048">
<ele>13.982910</ele>
<time>2012-07-28T14:29:41Z</time>
<speed>2.870000</speed>
<extensions>
<speed>2.9</speed>
<temp>0.00</temp>
<bpm>0</bpm>
<rpm>0.00</rpm>
</extensions>
</trkpt>
<trkpt lat="63.870098114" lon="-21.844360352">
<ele>16.856445</ele>
<time>2012-07-28T14:29:46Z</time>
<speed>3.610000</speed>
<extensions>
<speed>3.6</speed>
<temp>0.00</temp>
<bpm>0</bpm>
<rpm>0.00</rpm>
</extensions>
</trkpt>
<trkpt lat="63.870086670" lon="-21.844644547">
<ele>16.069336</ele>
<time>2012-07-28T14:29:51Z</time>
<speed>2.430000</speed>
<extensions>
<speed>2.4</speed>
<temp>0.00</temp>
<bpm>0</bpm>
<rpm>0.00</rpm>
</extensions>
</trkpt>
<trkpt lat="63.870067596" lon="-21.844837189">
<ele>16.020508</ele>
<time>2012-07-28T14:29:56Z</time>
<speed>2.030000</speed>
<extensions>
<speed>2.0</speed>
<temp>0.00</temp>
<bpm>0</bpm>
<rpm>0.00</rpm>
</extensions>
</trkpt>
<trkpt lat="63.870063782" lon="-21.845067978">
<ele>18.355469</ele>
<time>2012-07-28T14:30:01Z</time>
<speed>2.150000</speed>
<extensions>
<speed>2.1</speed>
<temp>0.00</temp>
<bpm>0</bpm>
<rpm>0.00</rpm>
</extensions>
</trkpt>
<trkpt lat="63.870052338" lon="-21.845270157">
<ele>18.999512</ele>
<time>2012-07-28T14:30:06Z</time>
<speed>1.970000</speed>
<extensions>
<speed>2.0</speed>
<temp>0.00</temp>
<bpm>0</bpm>
<rpm>0.00</rpm>
</extensions>
</trkpt>
<trkpt lat="63.870033264" lon="-21.845462799">
<ele>19.165527</ele>
<time>2012-07-28T14:30:11Z</time>
<speed>1.710000</speed>
<extensions>
<speed>1.7</speed>
<temp>0.00</temp>
<bpm>0</bpm>
<rpm>0.00</rpm>
</extensions>
</trkpt>
<trkpt lat="63.870018005" lon="-21.845645905">
<ele>18.941406</ele>
<time>2012-07-28T14:30:16Z</time>
<speed>2.160000</speed>
<extensions>
<speed>2.2</speed>
<temp>0.00</temp>
<bpm>0</bpm>
<rpm>0.00</rpm>
</extensions>
</trkpt>
<trkpt lat="63.870002747" lon="-21.845878601">
<ele>18.775879</ele>
<time>2012-07-28T14:30:21Z</time>
<speed>2.400000</speed>
<extensions>
<speed>2.4</speed>
<temp>0.00</temp>
<bpm>0</bpm>
<rpm>0.00</rpm>
</extensions>
</trkpt>
<trkpt lat="63.869979858" lon="-21.846117020">
<ele>18.985352</ele>
<time>2012-07-28T14:30:26Z</time>
<speed>2.580000</speed>
<extensions>
<speed>2.6</speed>
<temp>0.00</temp>
<bpm>0</bpm>
<rpm>0.00</rpm>
</extensions>
</trkpt>
<trkpt lat="63.869976044" lon="-21.846357346">
<ele>20.316406</ele>
<time>2012-07-28T14:30:31Z</time>
<speed>1.970000</speed>
<extensions>
<speed>2.0</speed>
<temp>0.00</temp>
<bpm>0</bpm>
<rpm>0.00</rpm>
</extensions>
</trkpt>
<trkpt lat="63.869953156" lon="-21.846555710">
<ele>20.183594</ele>
<time>2012-07-28T14:30:36Z</time>
<speed>2.050000</speed>
<extensions>
<speed>2.1</speed>
<temp>0.00</temp>
<bpm>0</bpm>
<rpm>0.00</rpm>
</extensions>
</trkpt>
<trkpt lat="63.869945526" lon="-21.846754074">
<ele>20.413574</ele>
<time>2012-07-28T14:30:41Z</time>
<speed>2.140000</speed>
<extensions>
<speed>2.1</speed>
<temp>0.00</temp>
<bpm>0</bpm>
<rpm>0.00</rpm>
</extensions>
</trkpt>
<trkpt lat="63.869934082" lon="-21.846973419">
<ele>20.594238</ele>
<time>2012-07-28T14:30:46Z</time>
<speed>1.740000</speed>
<extensions>
<speed>1.7</speed>
<temp>0.00</temp>
<bpm>0</bpm>
<rpm>0.00</rpm>
</extensions>
</trkpt>
<trkpt lat="63.869934082" lon="-21.847169876">
<ele>21.475098</ele>
<time>2012-07-28T14:30:51Z</time>
<speed>2.160000</speed>
<extensions>
<speed>2.2</speed>
<temp>0.00</temp>
<bpm>0</bpm>
<rpm>0.00</rpm>
</extensions>
</trkpt>
<trkpt lat="63.869915009" lon="-21.847377777">
<ele>21.093262</ele>
<time>2012-07-28T14:30:56Z</time>
<speed>2.300000</speed>
<extensions>
<speed>2.3</speed>
<temp>0.00</temp>
<bpm>0</bpm>
<rpm>0.00</rpm>
</extensions>
</trkpt>
<trkpt lat="63.869895935" lon="-21.847606659">
<ele>19.673828</ele>
<time>2012-07-28T14:31:01Z</time>
<speed>2.440000</speed>
<extensions>
<speed>2.4</speed>
<temp>0.00</temp>
<bpm>0</bpm>
<rpm>0.00</rpm>
</extensions>
</trkpt>
<trkpt lat="63.869873047" lon="-21.847839355">
<ele>19.706543</ele>
<time>2012-07-28T14:31:06Z</time>
<speed>2.240000</speed>
<extensions>
<speed>2.2</speed>
<temp>0.00</temp>
<bpm>0</bpm>
<rpm>0.00</rpm>
</extensions>
</trkpt>
<trkpt lat="63.869846344" lon="-21.848047256">
<ele>18.606934</ele>
<time>2012-07-28T14:31:11Z</time>
<speed>2.100000</speed>
<extensions>
<speed>2.1</speed>
<temp>0.00</temp>
<bpm>0</bpm>
<rpm>0.00</rpm>
</extensions>
</trkpt>
<trkpt lat="63.869834900" lon="-21.848270416">
<ele>19.179199</ele>
<time>2012-07-28T14:31:16Z</time>
<speed>2.140000</speed>
<extensions>
<speed>2.1</speed>
<temp>0.00</temp>
<bpm>0</bpm>
<rpm>0.00</rpm>
</extensions>
</trkpt>
<trkpt lat="63.869808197" lon="-21.848478317">
<ele>20.451172</ele>
<time>2012-07-28T14:31:21Z</time>
<speed>2.170000</speed>
<extensions>
<speed>2.2</speed>
<temp>0.00</temp>
<bpm>0</bpm>
<rpm>0.00</rpm>
</extensions>
</trkpt>
<trkpt lat="63.869777679" lon="-21.848693848">
<ele>20.839355</ele>
<time>2012-07-28T14:31:26Z</time>
<speed>2.400000</speed>
<extensions>
<speed>2.4</speed>
<temp>0.00</temp>
<bpm>0</bpm>
<rpm>0.00</rpm>
</extensions>
</trkpt>
<trkpt lat="63.869754791" lon="-21.848932266">
<ele>20.815918</ele>
<time>2012-07-28T14:31:31Z</time>
<speed>2.320000</speed>
<extensions>
<speed>2.3</speed>
<temp>0.00</temp>
<bpm>0</bpm>
<rpm>0.00</rpm>
</extensions>
</trkpt>
<trkpt lat="63.869731903" lon="-21.849170685">
<ele>20.479492</ele>
<time>2012-07-28T14:31:36Z</time>
<speed>1.840000</speed>
<extensions>
<speed>1.8</speed>
<temp>0.00</temp>
<bpm>0</bpm>
<rpm>0.00</rpm>
</extensions>
</trkpt>
<trkpt lat="63.869716644" lon="-21.849359512">
<ele>21.274414</ele>
<time>2012-07-28T14:31:41Z</time>
<speed>2.340000</speed>
<extensions>
<speed>2.3</speed>
<temp>0.00</temp>
<bpm>0</bpm>
<rpm>0.00</rpm>
</extensions>
</trkpt>
<trkpt lat="63.869697571" lon="-21.849580765">
<ele>21.291504</ele>
<time>2012-07-28T14:31:46Z</time>
<speed>2.210000</speed>
<extensions>
<speed>2.2</speed>
<temp>0.00</temp>
<bpm>0</bpm>
<rpm>0.00</rpm>
</extensions>
</trkpt>
<trkpt lat="63.869667053" lon="-21.849792480">
<ele>20.701172</ele>
<time>2012-07-28T14:31:51Z</time>
<speed>2.370000</speed>
<extensions>
<speed>2.4</speed>
<temp>0.00</temp>
<bpm>0</bpm>
<rpm>0.00</rpm>
</extensions>
</trkpt>
<trkpt lat="63.869647980" lon="-21.850038528">
<ele>22.083496</ele>
<time>2012-07-28T14:31:56Z</time>
<speed>2.520000</speed>
<extensions>
<speed>2.5</speed>
<temp>0.00</temp>
<bpm>0</bpm>
<rpm>0.00</rpm>
</extensions>
</trkpt>
<trkpt lat="63.869628906" lon="-21.850301743">
<ele>20.967285</ele>
<time>2012-07-28T14:32:01Z</time>
<speed>2.570000</speed>
<extensions>
<speed>2.6</speed>
<temp>0.00</temp>
<bpm>0</bpm>
<rpm>0.00</rpm>
</extensions>
</trkpt>
<trkpt lat="63.869613647" lon="-21.850572586">
<ele>20.515625</ele>
<time>2012-07-28T14:32:06Z</time>
<speed>2.520000</speed>
<extensions>
<speed>2.5</speed>
<temp>0.00</temp>
<bpm>0</bpm>
<rpm>0.00</rpm>
</extensions>
</trkpt>
<trkpt lat="63.869602203" lon="-21.850824356">
<ele>21.432617</ele>
<time>2012-07-28T14:32:11Z</time>
<speed>2.490000</speed>
<extensions>
<speed>2.5</speed>
<temp>0.00</temp>
<bpm>0</bpm>
<rpm>0.00</rpm>
</extensions>
</trkpt>
<trkpt lat="63.869575500" lon="-21.851083755">
<ele>21.330566</ele>
<time>2012-07-28T14:32:16Z</time>
<speed>2.690000</speed>
<extensions>
<speed>2.7</speed>
<temp>0.00</temp>
<bpm>0</bpm>
<rpm>0.00</rpm>
</extensions>
</trkpt>
<trkpt lat="63.869548798" lon="-21.851341248">
<ele>21.494629</ele>
<time>2012-07-28T14:32:21Z</time>
<speed>2.560000</speed>
<extensions>
<speed>2.6</speed>
<temp>0.00</temp>
<bpm>0</bpm>
<rpm>0.00</rpm>
</extensions>
</trkpt>
<trkpt lat="63.869522095" lon="-21.851591110">
<ele>22.267090</ele>
<time>2012-07-28T14:32:26Z</time>
<speed>2.620000</speed>
<extensions>
<speed>2.6</speed>
<temp>0.00</temp>
<bpm>0</bpm>
<rpm>0.00</rpm>
</extensions>
</trkpt>
<trkpt lat="63.869506836" lon="-21.851840973">
<ele>21.917969</ele>
<time>2012-07-28T14:32:31Z</time>
<speed>2.430000</speed>
<extensions>
<speed>2.4</speed>
<temp>0.00</temp>
<bpm>0</bpm>
<rpm>0.00</rpm>
</extensions>
</trkpt>
<trkpt lat="63.869476318" lon="-21.852087021">
<ele>22.077637</ele>
<time>2012-07-28T14:32:36Z</time>
<speed>2.530000</speed>
<extensions>
<speed>2.5</speed>
<temp>0.00</temp>
<bpm>0</bpm>
<rpm>0.00</rpm>
</extensions>
</trkpt>
<trkpt lat="63.869445801" lon="-21.852338791">
<ele>21.026855</ele>
<time>2012-07-28T14:32:41Z</time>
<speed>2.740000</speed>
<extensions>
<speed>2.7</speed>
<temp>0.00</temp>
<bpm>0</bpm>
<rpm>0.00</rpm>
</extensions>
</trkpt>
<trkpt lat="63.869426727" lon="-21.852619171">
<ele>21.720703</ele>
<time>2012-07-28T14:32:46Z</time>
<speed>2.820000</speed>
<extensions>
<speed>2.8</speed>
<temp>0.00</temp>
<bpm>0</bpm>
<rpm>0.00</rpm>
</extensions>
</trkpt>
<trkpt lat="63.869392395" lon="-21.852899551">
<ele>22.059082</ele>
<time>2012-07-28T14:32:51Z</time>
<speed>2.870000</speed>
<extensions>
<speed>2.9</speed>
<temp>0.00</temp>
<bpm>0</bpm>
<rpm>0.00</rpm>
</extensions>
</trkpt>
<trkpt lat="63.869358063" lon="-21.853170395">
<ele>21.605957</ele>
<time>2012-07-28T14:32:56Z</time>
<speed>2.970000</speed>
<extensions>
<speed>3.0</speed>
<temp>0.00</temp>
<bpm>0</bpm>
<rpm>0.00</rpm>
</extensions>
</trkpt>
<trkpt lat="63.869319916" lon="-21.853466034">
<ele>22.516602</ele>
<time>2012-07-28T14:33:01Z</time>
<speed>2.650000</speed>
<extensions>
<speed>2.6</speed>
<temp>0.00</temp>
<bpm>0</bpm>
<rpm>0.00</rpm>
</extensions>
</trkpt>
<trkpt lat="63.869293213" lon="-21.853670120">
<ele>22.121094</ele>
<time>2012-07-28T14:33:06Z</time>
<speed>2.570000</speed>
<extensions>
<speed>2.6</speed>
<temp>0.00</temp>
<bpm>0</bpm>
<rpm>0.00</rpm>
</extensions>
</trkpt>
<trkpt lat="63.869266510" lon="-21.853952408">
<ele>22.804688</ele>
<time>2012-07-28T14:33:11Z</time>
<speed>2.810000</speed>
<extensions>
<speed>2.8</speed>
<temp>0.00</temp>
<bpm>0</bpm>
<rpm>0.00</rpm>
</extensions>
</trkpt>
<trkpt lat="63.869235992" lon="-21.854236603">
<ele>22.965820</ele>
<time>2012-07-28T14:33:16Z</time>
<speed>2.920000</speed>
<extensions>
<speed>2.9</speed>
<temp>0.00</temp>
<bpm>0</bpm>
<rpm>0.00</rpm>
</extensions>
</trkpt>
<trkpt lat="63.869205475" lon="-21.854536057">
<ele>23.501465</ele>
<time>2012-07-28T14:33:21Z</time>
<speed>3.030000</speed>
<extensions>
<speed>3.0</speed>
<temp>0.00</temp>
<bpm>0</bpm>
<rpm>0.00</rpm>
</extensions>
</trkpt>
<trkpt lat="63.869171143" lon="-21.854820251">
<ele>23.723633</ele>
<time>2012-07-28T14:33:26Z</time>
<speed>2.950000</speed>
<extensions>
<speed>2.9</speed>
<temp>0.00</temp>
<bpm>0</bpm>
<rpm>0.00</rpm>
</extensions>
</trkpt>
<trkpt lat="63.869129181" lon="-21.855127335">
<ele>24.199707</ele>
<time>2012-07-28T14:33:31Z</time>
<speed>3.200000</speed>
<extensions>
<speed>3.2</speed>
<temp>0.00</temp>
<bpm>0</bpm>
<rpm>0.00</rpm>
</extensions>
</trkpt>
<trkpt lat="63.869102478" lon="-21.855438232">
<ele>24.188965</ele>
<time>2012-07-28T14:33:36Z</time>
<speed>2.760000</speed>
<extensions>
<speed>2.8</speed>
<temp>0.00</temp>
<bpm>0</bpm>
<rpm>0.00</rpm>
</extensions>
</trkpt>
<trkpt lat="63.869075775" lon="-21.855680466">
<ele>24.408203</ele>
<time>2012-07-28T14:33:41Z</time>
<speed>2.930000</speed>
<extensions>
<speed>2.9</speed>
<temp>0.00</temp>
<bpm>0</bpm>
<rpm>0.00</rpm>
</extensions>
</trkpt>
<trkpt lat="63.869045258" lon="-21.855978012">
<ele>24.528320</ele>
<time>2012-07-28T14:33:46Z</time>
<speed>2.920000</speed>
<extensions>
<speed>2.9</speed>
<temp>0.00</temp>
<bpm>0</bpm>
<rpm>0.00</rpm>
</extensions>
</trkpt>
<trkpt lat="63.869010925" lon="-21.856225967">
<ele>25.001953</ele>
<time>2012-07-28T14:33:51Z</time>
<speed>2.310000</speed>
<extensions>
<speed>2.3</speed>
<temp>0.00</temp>
<bpm>0</bpm>
<rpm>0.00</rpm>
</extensions>
</trkpt>
<trkpt lat="63.868972778" lon="-21.856487274">
<ele>26.207031</ele>
<time>2012-07-28T14:33:56Z</time>
<speed>2.890000</speed>
<extensions>
<speed>2.9</speed>
<temp>0.00</temp>
<bpm>0</bpm>
<rpm>0.00</rpm>
</extensions>
</trkpt>
<trkpt lat="63.868949890" lon="-21.856727600">
<ele>25.990234</ele>
<time>2012-07-28T14:34:01Z</time>
<speed>2.400000</speed>
<extensions>
<speed>2.4</speed>
<temp>0.00</temp>
<bpm>0</bpm>
<rpm>0.00</rpm>
</extensions>
</trkpt>
<trkpt lat="63.868911743" lon="-21.856983185">
<ele>26.708496</ele>
<time>2012-07-28T14:34:06Z</time>
<speed>2.740000</speed>
<extensions>
<speed>2.7</speed>
<temp>0.00</temp>
<bpm>0</bpm>
<rpm>0.00</rpm>
</extensions>
</trkpt>
<trkpt lat="63.868885040" lon="-21.857257843">
<ele>26.644531</ele>
<time>2012-07-28T14:34:11Z</time>
<speed>2.760000</speed>
<extensions>
<speed>2.8</speed>
<temp>0.00</temp>
<bpm>0</bpm>
<rpm>0.00</rpm>
</extensions>
</trkpt>
<trkpt lat="63.868846893" lon="-21.857513428">
<ele>26.827148</ele>
<time>2012-07-28T14:34:16Z</time>
<speed>2.690000</speed>
<extensions>
<speed>2.7</speed>
<temp>0.00</temp>
<bpm>0</bpm>
<rpm>0.00</rpm>
</extensions>
</trkpt>
<trkpt lat="63.868820190" lon="-21.857761383">
<ele>26.595703</ele>
<time>2012-07-28T14:34:21Z</time>
<speed>2.650000</speed>
<extensions>
<speed>2.6</speed>
<temp>0.00</temp>
<bpm>0</bpm>
<rpm>0.00</rpm>
</extensions>
</trkpt>
<trkpt lat="63.868782043" lon="-21.858020782">
<ele>26.665039</ele>
<time>2012-07-28T14:34:26Z</time>
<speed>2.850000</speed>
<extensions>
<speed>2.9</speed>
<temp>0.00</temp>
<bpm>0</bpm>
<rpm>0.00</rpm>
</extensions>
</trkpt>
<trkpt lat="63.868747711" lon="-21.858297348">
<ele>27.347168</ele>
<time>2012-07-28T14:34:31Z</time>
<speed>3.010000</speed>
<extensions>
<speed>3.0</speed>
<temp>0.00</temp>
<bpm>0</bpm>
<rpm>0.00</rpm>
</extensions>
</trkpt>
<trkpt lat="63.868709564" lon="-21.858558655">
<ele>27.206543</ele>
<time>2012-07-28T14:34:36Z</time>
<speed>1.940000</speed>
<extensions>
<speed>1.9</speed>
<temp>0.00</temp>
<bpm>0</bpm>
<rpm>0.00</rpm>
</extensions>
</trkpt>
<trkpt lat="63.868686676" lon="-21.858787537">
<ele>27.332520</ele>
<time>2012-07-28T14:34:41Z</time>
<speed>2.230000</speed>
<extensions>
<speed>2.2</speed>
<temp>0.00</temp>
<bpm>0</bpm>
<rpm>0.00</rpm>
</extensions>
</trkpt>
<trkpt lat="63.868656158" lon="-21.859022141">
<ele>27.062500</ele>
<time>2012-07-28T14:34:46Z</time>
<speed>2.560000</speed>
<extensions>
<speed>2.6</speed>
<temp>0.00</temp>
<bpm>0</bpm>
<rpm>0.00</rpm>
</extensions>
</trkpt>
<trkpt lat="63.868614197" lon="-21.859289169">
<ele>27.430176</ele>
<time>2012-07-28T14:34:51Z</time>
<speed>2.930000</speed>
<extensions>
<speed>2.9</speed>
<temp>0.00</temp>
<bpm>0</bpm>
<rpm>0.00</rpm>
</extensions>
</trkpt>
<trkpt lat="63.868583679" lon="-21.859504700">
<ele>27.643066</ele>
<time>2012-07-28T14:34:56Z</time>
<speed>2.510000</speed>
<extensions>
<speed>2.5</speed>
<temp>0.00</temp>
<bpm>0</bpm>
<rpm>0.00</rpm>
</extensions>
</trkpt>
<trkpt lat="63.868549347" lon="-21.859756470">
<ele>28.504883</ele>
<time>2012-07-28T14:35:01Z</time>
<speed>2.370000</speed>
<extensions>
<speed>2.4</speed>
<temp>0.00</temp>
<bpm>0</bpm>
<rpm>0.00</rpm>
</extensions>
</trkpt>
<trkpt lat="63.868526459" lon="-21.859939575">
<ele>28.646973</ele>
<time>2012-07-28T14:35:06Z</time>
<speed>1.880000</speed>
<extensions>
<speed>1.9</speed>
<temp>0.00</temp>
<bpm>0</bpm>
<rpm>0.00</rpm>
</extensions>
</trkpt>
<trkpt lat="63.868492126" lon="-21.860176086">
<ele>28.416016</ele>
<time>2012-07-28T14:35:11Z</time>
<speed>2.450000</speed>
<extensions>
<speed>2.4</speed>
<temp>0.00</temp>
<bpm>0</bpm>
<rpm>0.00</rpm>
</extensions>
</trkpt>
<trkpt lat="63.868457794" lon="-21.860412598">
<ele>29.386230</ele>
<time>2012-07-28T14:35:16Z</time>
<speed>2.620000</speed>
<extensions>
<speed>2.6</speed>
<temp>0.00</temp>
<bpm>0</bpm>
<rpm>0.00</rpm>
</extensions>
</trkpt>
<trkpt lat="63.868423462" lon="-21.860662460">
<ele>29.780273</ele>
<time>2012-07-28T14:35:21Z</time>
<speed>2.650000</speed>
<extensions>
<speed>2.6</speed>
<temp>0.00</temp>
<bpm>0</bpm>
<rpm>0.00</rpm>
</extensions>
</trkpt>
<trkpt lat="63.868389130" lon="-21.860904694">
<ele>29.874023</ele>
<time>2012-07-28T14:35:26Z</time>
<speed>2.580000</speed>
<extensions>
<speed>2.6</speed>
<temp>0.00</temp>
<bpm>0</bpm>
<rpm>0.00</rpm>
</extensions>
</trkpt>
<trkpt lat="63.868350983" lon="-21.861154556">
<ele>30.552246</ele>
<time>2012-07-28T14:35:31Z</time>
<speed>2.720000</speed>
<extensions>
<speed>2.7</speed>
<temp>0.00</temp>
<bpm>0</bpm>
<rpm>0.00</rpm>
</extensions>
</trkpt>
<trkpt lat="63.868316650" lon="-21.861429214">
<ele>30.514160</ele>
<time>2012-07-28T14:35:36Z</time>
<speed>2.860000</speed>
<extensions>
<speed>2.9</speed>
<temp>0.00</temp>
<bpm>0</bpm>
<rpm>0.00</rpm>
</extensions>
</trkpt>
<trkpt lat="63.868274689" lon="-21.861728668">
<ele>30.729980</ele>
<time>2012-07-28T14:35:41Z</time>
<speed>3.080000</speed>
<extensions>
<speed>3.1</speed>
<temp>0.00</temp>
<bpm>0</bpm>
<rpm>0.00</rpm>
</extensions>
</trkpt>
<trkpt lat="63.868228912" lon="-21.862049103">
<ele>30.636719</ele>
<time>2012-07-28T14:35:46Z</time>
<speed>3.330000</speed>
<extensions>
<speed>3.3</speed>
<temp>0.00</temp>
<bpm>0</bpm>
<rpm>0.00</rpm>
</extensions>
</trkpt>
<trkpt lat="63.868186951" lon="-21.862350464">
<ele>31.052734</ele>
<time>2012-07-28T14:35:51Z</time>
<speed>2.470000</speed>
<extensions>
<speed>2.5</speed>
<temp>0.00</temp>
<bpm>0</bpm>
<rpm>0.00</rpm>
</extensions>
</trkpt>
<trkpt lat="63.868167877" lon="-21.862571716">
<ele>30.696289</ele>
<time>2012-07-28T14:35:56Z</time>
<speed>2.390000</speed>
<extensions>
<speed>2.4</speed>
<temp>0.00</temp>
<bpm>0</bpm>
<rpm>0.00</rpm>
</extensions>
</trkpt>
<trkpt lat="63.868129730" lon="-21.862812042">
<ele>32.297852</ele>
<time>2012-07-28T14:36:01Z</time>
<speed>2.440000</speed>
<extensions>
<speed>2.4</speed>
<temp>0.00</temp>
<bpm>0</bpm>
<rpm>0.00</rpm>
</extensions>
</trkpt>
<trkpt lat="63.868110657" lon="-21.862983704">
<ele>31.139648</ele>
<time>2012-07-28T14:36:06Z</time>
<speed>1.980000</speed>
<extensions>
<speed>2.0</speed>
<temp>0.00</temp>
<bpm>0</bpm>
<rpm>0.00</rpm>
</extensions>
</trkpt>
<trkpt lat="63.868072510" lon="-21.863216400">
<ele>30.531250</ele>
<time>2012-07-28T14:36:11Z</time>
<speed>2.490000</speed>
<extensions>
<speed>2.5</speed>
<temp>0.00</temp>
<bpm>0</bpm>
<rpm>0.00</rpm>
</extensions>
</trkpt>
<trkpt lat="63.868045807" lon="-21.863399506">
<ele>30.455566</ele>
<time>2012-07-28T14:36:16Z</time>
<speed>2.330000</speed>
<extensions>
<speed>2.3</speed>
<temp>0.00</temp>
<bpm>0</bpm>
<rpm>0.00</rpm>
</extensions>
</trkpt>
<trkpt lat="63.868015289" lon="-21.863616943">
<ele>30.589355</ele>
<time>2012-07-28T14:36:21Z</time>
<speed>2.160000</speed>
<extensions>
<speed>2.2</speed>
<temp>0.00</temp>
<bpm>0</bpm>
<rpm>0.00</rpm>
</extensions>
</trkpt>
<trkpt lat="63.867984772" lon="-21.863815308">
<ele>30.393555</ele>
<time>2012-07-28T14:36:26Z</time>
<speed>1.610000</speed>
<extensions>
<speed>1.6</speed>
<temp>0.00</temp>
<bpm>0</bpm>
<rpm>0.00</rpm>
</extensions>
</trkpt>
<trkpt lat="63.867954254" lon="-21.864027023">
<ele>30.444824</ele>
<time>2012-07-28T14:36:31Z</time>
<speed>2.660000</speed>
<extensions>
<speed>2.7</speed>
<temp>0.00</temp>
<bpm>0</bpm>
<rpm>0.00</rpm>
</extensions>
</trkpt>
<trkpt lat="63.867908478" lon="-21.864332199">
<ele>29.255371</ele>
<time>2012-07-28T14:36:36Z</time>
<speed>3.320000</speed>
<extensions>
<speed>3.3</speed>
<temp>0.00</temp>
<bpm>0</bpm>
<rpm>0.00</rpm>
</extensions>
</trkpt>
<trkpt lat="63.867858887" lon="-21.864597321">
<ele>30.314453</ele>
<time>2012-07-28T14:36:41Z</time>
<speed>1.840000</speed>
<extensions>
<speed>1.8</speed>
<temp>0.00</temp>
<bpm>0</bpm>
<rpm>0.00</rpm>
</extensions>
</trkpt>
<trkpt lat="63.867824554" lon="-21.864795685">
<ele>31.123047</ele>
<time>2012-07-28T14:36:46Z</time>
<speed>2.530000</speed>
<extensions>
<speed>2.5</speed>
<temp>0.00</temp>
<bpm>0</bpm>
<rpm>0.00</rpm>
</extensions>
</trkpt>
<trkpt lat="63.867782593" lon="-21.865039825">
<ele>32.180664</ele>
<time>2012-07-28T14:36:51Z</time>
<speed>2.590000</speed>
<extensions>
<speed>2.6</speed>
<temp>0.00</temp>
<bpm>0</bpm>
<rpm>0.00</rpm>
</extensions>
</trkpt>
<trkpt lat="63.867752075" lon="-21.865224838">
<ele>32.723633</ele>
<time>2012-07-28T14:36:56Z</time>
<speed>1.710000</speed>
<extensions>
<speed>1.7</speed>
<temp>0.00</temp>
<bpm>0</bpm>
<rpm>0.00</rpm>
</extensions>
</trkpt>
<trkpt lat="63.867717743" lon="-21.865407944">
<ele>32.517578</ele>
<time>2012-07-28T14:37:01Z</time>
<speed>2.190000</speed>
<extensions>
<speed>2.2</speed>
<temp>0.00</temp>
<bpm>0</bpm>
<rpm>0.00</rpm>
</extensions>
</trkpt>
<trkpt lat="63.867675781" lon="-21.865640640">
<ele>32.745117</ele>
<time>2012-07-28T14:37:06Z</time>
<speed>2.830000</speed>
<extensions>
<speed>2.8</speed>
<temp>0.00</temp>
<bpm>0</bpm>
<rpm>0.00</rpm>
</extensions>
</trkpt>
<trkpt lat="63.867630005" lon="-21.865955353">
<ele>32.808594</ele>
<time>2012-07-28T14:37:11Z</time>
<speed>3.270000</speed>
<extensions>
<speed>3.3</speed>
<temp>0.00</temp>
<bpm>0</bpm>
<rpm>0.00</rpm>
</extensions>
</trkpt>
<trkpt lat="63.867591858" lon="-21.866209030">
<ele>33.185547</ele>
<time>2012-07-28T14:37:16Z</time>
<speed>3.060000</speed>
<extensions>
<speed>3.1</speed>
<temp>0.00</temp>
<bpm>0</bpm>
<rpm>0.00</rpm>
</extensions>
</trkpt>
<trkpt lat="63.867534637" lon="-21.866539001">
<ele>33.537109</ele>
<time>2012-07-28T14:37:21Z</time>
<speed>3.600000</speed>
<extensions>
<speed>3.6</speed>
<temp>0.00</temp>
<bpm>0</bpm>
<rpm>0.00</rpm>
</extensions>
</trkpt>
<trkpt lat="63.867477417" lon="-21.866893768">
<ele>33.361328</ele>
<time>2012-07-28T14:37:26Z</time>
<speed>3.570000</speed>
<extensions>
<speed>3.6</speed>
<temp>0.00</temp>
<bpm>0</bpm>
<rpm>0.00</rpm>
</extensions>
</trkpt>
<trkpt lat="63.867424011" lon="-21.867174149">
<ele>33.588867</ele>
<time>2012-07-28T14:37:31Z</time>
<speed>2.680000</speed>
<extensions>
<speed>2.7</speed>
<temp>0.00</temp>
<bpm>0</bpm>
<rpm>0.00</rpm>
</extensions>
</trkpt>
<trkpt lat="63.867374420" lon="-21.867475510">
<ele>33.527344</ele>
<time>2012-07-28T14:37:36Z</time>
<speed>3.380000</speed>
<extensions>
<speed>3.4</speed>
<temp>0.00</temp>
<bpm>0</bpm>
<rpm>0.00</rpm>
</extensions>
</trkpt>
<trkpt lat="63.867313385" lon="-21.867818832">
<ele>33.938477</ele>
<time>2012-07-28T14:37:41Z</time>
<speed>3.290000</speed>
<extensions>
<speed>3.3</speed>
<temp>0.00</temp>
<bpm>0</bpm>
<rpm>0.00</rpm>
</extensions>
</trkpt>
<trkpt lat="63.867252350" lon="-21.868131638">
<ele>34.503906</ele>
<time>2012-07-28T14:37:46Z</time>
<speed>3.610000</speed>
<extensions>
<speed>3.6</speed>
<temp>0.00</temp>
<bpm>0</bpm>
<rpm>0.00</rpm>
</extensions>
</trkpt>
<trkpt lat="63.867195129" lon="-21.868482590">
<ele>34.414063</ele>
<time>2012-07-28T14:37:51Z</time>
<speed>3.280000</speed>
<extensions>
<speed>3.3</speed>
<temp>0.00</temp>
<bpm>0</bpm>
<rpm>0.00</rpm>
</extensions>
</trkpt>
<trkpt lat="63.867149353" lon="-21.868736267">
<ele>34.643555</ele>
<time>2012-07-28T14:37:56Z</time>
<speed>2.860000</speed>
<extensions>
<speed>2.9</speed>
<temp>0.00</temp>
<bpm>0</bpm>
<rpm>0.00</rpm>
</extensions>
</trkpt>
<trkpt lat="63.867099762" lon="-21.869047165">
<ele>34.024414</ele>
<time>2012-07-28T14:38:01Z</time>
<speed>3.680000</speed>
<extensions>
<speed>3.7</speed>
<temp>0.00</temp>
<bpm>0</bpm>
<rpm>0.00</rpm>
</extensions>
</trkpt>
<trkpt lat="63.867038727" lon="-21.869342804">
<ele>34.310547</ele>
<time>2012-07-28T14:38:06Z</time>
<speed>2.650000</speed>
<extensions>
<speed>2.6</speed>
<temp>0.00</temp>
<bpm>0</bpm>
<rpm>0.00</rpm>
</extensions>
</trkpt>
<trkpt lat="63.866985321" lon="-21.869581223">
<ele>34.755859</ele>
<time>2012-07-28T14:38:11Z</time>
<speed>3.010000</speed>
<extensions>
<speed>3.0</speed>
<temp>0.00</temp>
<bpm>0</bpm>
<rpm>0.00</rpm>
</extensions>
</trkpt>
<trkpt lat="63.866924286" lon="-21.869888306">
<ele>35.168945</ele>
<time>2012-07-28T14:38:16Z</time>
<speed>3.480000</speed>
<extensions>
<speed>3.5</speed>
<temp>0.00</temp>
<bpm>0</bpm>
<rpm>0.00</rpm>
</extensions>
</trkpt>
<trkpt lat="63.866863251" lon="-21.870222092">
<ele>35.345703</ele>
<time>2012-07-28T14:38:21Z</time>
<speed>3.090000</speed>
<extensions>
<speed>3.1</speed>
<temp>0.00</temp>
<bpm>0</bpm>
<rpm>0.00</rpm>
</extensions>
</trkpt>
<trkpt lat="63.866821289" lon="-21.870477676">
<ele>35.352539</ele>
<time>2012-07-28T14:38:26Z</time>
<speed>2.850000</speed>
<extensions>
<speed>2.9</speed>
<temp>0.00</temp>
<bpm>0</bpm>
<rpm>0.00</rpm>
</extensions>
</trkpt>
<trkpt lat="63.866767883" lon="-21.870750427">
<ele>34.920898</ele>
<time>2012-07-28T14:38:31Z</time>
<speed>2.840000</speed>
<extensions>
<speed>2.8</speed>
<temp>0.00</temp>
<bpm>0</bpm>
<rpm>0.00</rpm>
</extensions>
</trkpt>
<trkpt lat="63.866706848" lon="-21.871026993">
<ele>35.165039</ele>
<time>2012-07-28T14:38:36Z</time>
<speed>3.280000</speed>
<extensions>
<speed>3.3</speed>
<temp>0.00</temp>
<bpm>0</bpm>
<rpm>0.00</rpm>
</extensions>
</trkpt>
<trkpt lat="63.866641998" lon="-21.871356964">
<ele>35.669922</ele>
<time>2012-07-28T14:38:41Z</time>
<speed>3.660000</speed>
<extensions>
<speed>3.7</speed>
<temp>0.00</temp>
<bpm>0</bpm>
<rpm>0.00</rpm>
</extensions>
</trkpt>
<trkpt lat="63.866569519" lon="-21.871715546">
<ele>36.037109</ele>
<time>2012-07-28T14:38:46Z</time>
<speed>3.580000</speed>
<extensions>
<speed>3.6</speed>
<temp>0.00</temp>
<bpm>0</bpm>
<rpm>0.00</rpm>
</extensions>
</trkpt>
<trkpt lat="63.866516113" lon="-21.872003555">
<ele>35.900391</ele>
<time>2012-07-28T14:38:51Z</time>
<speed>2.850000</speed>
<extensions>
<speed>2.9</speed>
<temp>0.00</temp>
<bpm>0</bpm>
<rpm>0.00</rpm>
</extensions>
</trkpt>
<trkpt lat="63.866458893" lon="-21.872320175">
<ele>35.919922</ele>
<time>2012-07-28T14:38:56Z</time>
<speed>3.500000</speed>
<extensions>
<speed>3.5</speed>
<temp>0.00</temp>
<bpm>0</bpm>
<rpm>0.00</rpm>
</extensions>
</trkpt>
<trkpt lat="63.866397858" lon="-21.872665405">
<ele>35.664063</ele>
<time>2012-07-28T14:39:01Z</time>
<speed>3.580000</speed>
<extensions>
<speed>3.6</speed>
<temp>0.00</temp>
<bpm>0</bpm>
<rpm>0.00</rpm>
</extensions>
</trkpt>
<trkpt lat="63.866340637" lon="-21.872972488">
<ele>34.904297</ele>
<time>2012-07-28T14:39:06Z</time>
<speed>3.160000</speed>
<extensions>
<speed>3.2</speed>
<temp>0.00</temp>
<bpm>0</bpm>
<rpm>0.00</rpm>
</extensions>
</trkpt>
<trkpt lat="63.866268158" lon="-21.873279572">
<ele>33.523438</ele>
<time>2012-07-28T14:39:11Z</time>
<speed>3.350000</speed>
<extensions>
<speed>3.4</speed>
<temp>0.00</temp>
<bpm>0</bpm>
<rpm>0.00</rpm>
</extensions>
</trkpt>
<trkpt lat="63.866218567" lon="-21.873556137">
<ele>34.127930</ele>
<time>2012-07-28T14:39:16Z</time>
<speed>2.940000</speed>
<extensions>
<speed>2.9</speed>
<temp>0.00</temp>
<bpm>0</bpm>
<rpm>0.00</rpm>
</extensions>
</trkpt>
<trkpt lat="63.866184235" lon="-21.873781204">
<ele>37.320313</ele>
<time>2012-07-28T14:39:21Z</time>
<speed>3.030000</speed>
<extensions>
<speed>3.0</speed>
<temp>0.00</temp>
<bpm>0</bpm>
<rpm>0.00</rpm>
</extensions>
</trkpt>
<trkpt lat="63.866123199" lon="-21.874057770">
<ele>37.159180</ele>
<time>2012-07-28T14:39:26Z</time>
<speed>3.260000</speed>
<extensions>
<speed>3.3</speed>
<temp>0.00</temp>
<bpm>0</bpm>
<rpm>0.00</rpm>
</extensions>
</trkpt>
<trkpt lat="63.866065979" lon="-21.874361038">
<ele>37.156250</ele>
<time>2012-07-28T14:39:31Z</time>
<speed>3.340000</speed>
<extensions>
<speed>3.3</speed>
<temp>0.00</temp>
<bpm>0</bpm>
<rpm>0.00</rpm>
</extensions>
</trkpt>
<trkpt lat="63.865997314" lon="-21.874666214">
<ele>37.303711</ele>
<time>2012-07-28T14:39:36Z</time>
<speed>3.440000</speed>
<extensions>
<speed>3.4</speed>
<temp>0.00</temp>
<bpm>0</bpm>
<rpm>0.00</rpm>
</extensions>
</trkpt>
<trkpt lat="63.865936279" lon="-21.874977112">
<ele>37.589844</ele>
<time>2012-07-28T14:39:41Z</time>
<speed>3.400000</speed>
<extensions>
<speed>3.4</speed>
<temp>0.00</temp>
<bpm>0</bpm>
<rpm>0.00</rpm>
</extensions>
</trkpt>
<trkpt lat="63.865875244" lon="-21.875284195">
<ele>37.972656</ele>
<time>2012-07-28T14:39:46Z</time>
<speed>2.950000</speed>
<extensions>
<speed>2.9</speed>
<temp>0.00</temp>
<bpm>0</bpm>
<rpm>0.00</rpm>
</extensions>
</trkpt>
<trkpt lat="63.865825653" lon="-21.875568390">
<ele>37.373047</ele>
<time>2012-07-28T14:39:51Z</time>
<speed>3.320000</speed>
<extensions>
<speed>3.3</speed>
<temp>0.00</temp>
<bpm>0</bpm>
<rpm>0.00</rpm>
</extensions>
</trkpt>
<trkpt lat="63.865760803" lon="-21.875898361">
<ele>37.745117</ele>
<time>2012-07-28T14:39:56Z</time>
<speed>3.480000</speed>
<extensions>
<speed>3.5</speed>
<temp>0.00</temp>
<bpm>0</bpm>
<rpm>0.00</rpm>
</extensions>
</trkpt>
<trkpt lat="63.865707397" lon="-21.876213074">
<ele>38.064453</ele>
<time>2012-07-28T14:40:01Z</time>
<speed>3.160000</speed>
<extensions>
<speed>3.2</speed>
<temp>0.00</temp>
<bpm>0</bpm>
<rpm>0.00</rpm>
</extensions>
</trkpt>
<trkpt lat="63.865642548" lon="-21.876493454">
<ele>38.268555</ele>
<time>2012-07-28T14:40:06Z</time>
<speed>3.130000</speed>
<extensions>
<speed>3.1</speed>
<temp>0.00</temp>
<bpm>0</bpm>
<rpm>0.00</rpm>
</extensions>
</trkpt>
<trkpt lat="63.865592957" lon="-21.876808167">
<ele>38.960938</ele>
<time>2012-07-28T14:40:11Z</time>
<speed>3.100000</speed>
<extensions>
<speed>3.1</speed>
<temp>0.00</temp>
<bpm>0</bpm>
<rpm>0.00</rpm>
</extensions>
</trkpt>
<trkpt lat="63.865547180" lon="-21.877105713">
<ele>39.928711</ele>
<time>2012-07-28T14:40:16Z</time>
<speed>3.030000</speed>
<extensions>
<speed>3.0</speed>
<temp>0.00</temp>
<bpm>0</bpm>
<rpm>0.00</rpm>
</extensions>
</trkpt>
<trkpt lat="63.865493774" lon="-21.877393723">
<ele>39.356445</ele>
<time>2012-07-28T14:40:21Z</time>
<speed>3.070000</speed>
<extensions>
<speed>3.1</speed>
<temp>0.00</temp>
<bpm>0</bpm>
<rpm>0.00</rpm>
</extensions>
</trkpt>
<trkpt lat="63.865440369" lon="-21.877677917">
<ele>39.064453</ele>
<time>2012-07-28T14:40:26Z</time>
<speed>3.140000</speed>
<extensions>
<speed>3.1</speed>
<temp>0.00</temp>
<bpm>0</bpm>
<rpm>0.00</rpm>
</extensions>
</trkpt>
<trkpt lat="63.865375519" lon="-21.877975464">
<ele>40.465820</ele>
<time>2012-07-28T14:40:31Z</time>
<speed>3.050000</speed>
<extensions>
<speed>3.0</speed>
<temp>0.00</temp>
<bpm>0</bpm>
<rpm>0.00</rpm>
</extensions>
</trkpt>
<trkpt lat="63.865325928" lon="-21.878259659">
<ele>40.662109</ele>
<time>2012-07-28T14:40:36Z</time>
<speed>3.010000</speed>
<extensions>
<speed>3.0</speed>
<temp>0.00</temp>
<bpm>0</bpm>
<rpm>0.00</rpm>
</extensions>
</trkpt>
<trkpt lat="63.865268707" lon="-21.878541946">
<ele>40.796875</ele>
<time>2012-07-28T14:40:41Z</time>
<speed>3.080000</speed>
<extensions>
<speed>3.1</speed>
<temp>0.00</temp>
<bpm>0</bpm>
<rpm>0.00</rpm>
</extensions>
</trkpt>
<trkpt lat="63.865207672" lon="-21.878831863">
<ele>41.492188</ele>
<time>2012-07-28T14:40:46Z</time>
<speed>3.170000</speed>
<extensions>
<speed>3.2</speed>
<temp>0.00</temp>
<bpm>0</bpm>
<rpm>0.00</rpm>
</extensions>
</trkpt>
<trkpt lat="63.865154266" lon="-21.879137039">
<ele>42.007813</ele>
<time>2012-07-28T14:40:51Z</time>
<speed>3.170000</speed>
<extensions>
<speed>3.2</speed>
<temp>0.00</temp>
<bpm>0</bpm>
<rpm>0.00</rpm>
</extensions>
</trkpt>
<trkpt lat="63.865089417" lon="-21.879430771">
<ele>42.455078</ele>
<time>2012-07-28T14:40:56Z</time>
<speed>3.140000</speed>
<extensions>
<speed>3.1</speed>
<temp>0.00</temp>
<bpm>0</bpm>
<rpm>0.00</rpm>
</extensions>
</trkpt>
<trkpt lat="63.865036011" lon="-21.879714966">
<ele>42.533203</ele>
<time>2012-07-28T14:41:01Z</time>
<speed>3.080000</speed>
<extensions>
<speed>3.1</speed>
<temp>0.00</temp>
<bpm>0</bpm>
<rpm>0.00</rpm>
</extensions>
</trkpt>
<trkpt lat="63.864982605" lon="-21.880006790">
<ele>42.280273</ele>
<time>2012-07-28T14:41:06Z</time>
<speed>3.120000</speed>
<extensions>
<speed>3.1</speed>
<temp>0.00</temp>
<bpm>0</bpm>
<rpm>0.00</rpm>
</extensions>
</trkpt>
<trkpt lat="63.864929199" lon="-21.880289078">
<ele>42.107422</ele>
<time>2012-07-28T14:41:11Z</time>
<speed>3.050000</speed>
<extensions>
<speed>3.0</speed>
<temp>0.00</temp>
<bpm>0</bpm>
<rpm>0.00</rpm>
</extensions>
</trkpt>
<trkpt lat="63.864875793" lon="-21.880577087">
<ele>41.961914</ele>
<time>2012-07-28T14:41:16Z</time>
<speed>3.100000</speed>
<extensions>
<speed>3.1</speed>
<temp>0.00</temp>
<bpm>0</bpm>
<rpm>0.00</rpm>
</extensions>
</trkpt>
<trkpt lat="63.864818573" lon="-21.880880356">
<ele>41.998047</ele>
<time>2012-07-28T14:41:21Z</time>
<speed>3.220000</speed>
<extensions>
<speed>3.2</speed>
<temp>0.00</temp>
<bpm>0</bpm>
<rpm>0.00</rpm>
</extensions>
</trkpt>
<trkpt lat="63.864761353" lon="-21.881170273">
<ele>41.969727</ele>
<time>2012-07-28T14:41:26Z</time>
<speed>3.350000</speed>
<extensions>
<speed>3.4</speed>
<temp>0.00</temp>
<bpm>0</bpm>
<rpm>0.00</rpm>
</extensions>
</trkpt>
<trkpt lat="63.864696503" lon="-21.881498337">
<ele>42.122070</ele>
<time>2012-07-28T14:41:31Z</time>
<speed>3.440000</speed>
<extensions>
<speed>3.4</speed>
<temp>0.00</temp>
<bpm>0</bpm>
<rpm>0.00</rpm>
</extensions>
</trkpt>
<trkpt lat="63.864643097" lon="-21.881818771">
<ele>42.355469</ele>
<time>2012-07-28T14:41:36Z</time>
<speed>3.450000</speed>
<extensions>
<speed>3.5</speed>
<temp>0.00</temp>
<bpm>0</bpm>
<rpm>0.00</rpm>
</extensions>
</trkpt>
<trkpt lat="63.864582062" lon="-21.882152557">
<ele>42.376953</ele>
<time>2012-07-28T14:41:41Z</time>
<speed>3.560000</speed>
<extensions>
<speed>3.6</speed>
<temp>0.00</temp>
<bpm>0</bpm>
<rpm>0.00</rpm>
</extensions>
</trkpt>
<trkpt lat="63.864517212" lon="-21.882492065">
<ele>42.565430</ele>
<time>2012-07-28T14:41:46Z</time>
<speed>3.440000</speed>
<extensions>
<speed>3.4</speed>
<temp>0.00</temp>
<bpm>0</bpm>
<rpm>0.00</rpm>
</extensions>
</trkpt>
<trkpt lat="63.864459991" lon="-21.882837296">
<ele>42.590820</ele>
<time>2012-07-28T14:41:51Z</time>
<speed>3.700000</speed>
<extensions>
<speed>3.7</speed>
<temp>0.00</temp>
<bpm>0</bpm>
<rpm>0.00</rpm>
</extensions>
</trkpt>
<trkpt lat="63.864402771" lon="-21.883169174">
<ele>43.044922</ele>
<time>2012-07-28T14:41:56Z</time>
<speed>3.240000</speed>
<extensions>
<speed>3.2</speed>
<temp>0.00</temp>
<bpm>0</bpm>
<rpm>0.00</rpm>
</extensions>
</trkpt>
<trkpt lat="63.864337921" lon="-21.883489609">
<ele>43.821289</ele>
<time>2012-07-28T14:42:01Z</time>
<speed>3.470000</speed>
<extensions>
<speed>3.5</speed>
<temp>0.00</temp>
<bpm>0</bpm>
<rpm>0.00</rpm>
</extensions>
</trkpt>
<trkpt lat="63.864284515" lon="-21.883819580">
<ele>44.088867</ele>
<time>2012-07-28T14:42:06Z</time>
<speed>3.420000</speed>
<extensions>
<speed>3.4</speed>
<temp>0.00</temp>
<bpm>0</bpm>
<rpm>0.00</rpm>
</extensions>
</trkpt>
<trkpt lat="63.864231110" lon="-21.884140015">
<ele>44.086914</ele>
<time>2012-07-28T14:42:11Z</time>
<speed>3.270000</speed>
<extensions>
<speed>3.3</speed>
<temp>0.00</temp>
<bpm>0</bpm>
<rpm>0.00</rpm>
</extensions>
</trkpt>
<trkpt lat="63.864177704" lon="-21.884449005">
<ele>44.504883</ele>
<time>2012-07-28T14:42:16Z</time>
<speed>3.370000</speed>
<extensions>
<speed>3.4</speed>
<temp>0.00</temp>
<bpm>0</bpm>
<rpm>0.00</rpm>
</extensions>
</trkpt>
<trkpt lat="63.864120483" lon="-21.884750366">
<ele>44.430664</ele>
<time>2012-07-28T14:42:21Z</time>
<speed>3.310000</speed>
<extensions>
<speed>3.3</speed>
<temp>0.00</temp>
<bpm>0</bpm>
<rpm>0.00</rpm>
</extensions>
</trkpt>
<trkpt lat="63.864067078" lon="-21.885061264">
<ele>45.031250</ele>
<time>2012-07-28T14:42:26Z</time>
<speed>3.170000</speed>
<extensions>
<speed>3.2</speed>
<temp>0.00</temp>
<bpm>0</bpm>
<rpm>0.00</rpm>
</extensions>
</trkpt>
<trkpt lat="63.864017487" lon="-21.885358810">
<ele>45.599609</ele>
<time>2012-07-28T14:42:31Z</time>
<speed>3.220000</speed>
<extensions>
<speed>3.2</speed>
<temp>0.00</temp>
<bpm>0</bpm>
<rpm>0.00</rpm>
</extensions>
</trkpt>
<trkpt lat="63.863960266" lon="-21.885669708">
<ele>46.057617</ele>
<time>2012-07-28T14:42:36Z</time>
<speed>3.240000</speed>
<extensions>
<speed>3.2</speed>
<temp>0.00</temp>
<bpm>0</bpm>
<rpm>0.00</rpm>
</extensions>
</trkpt>
<trkpt lat="63.863903046" lon="-21.885963440">
<ele>46.360352</ele>
<time>2012-07-28T14:42:41Z</time>
<speed>3.200000</speed>
<extensions>
<speed>3.2</speed>
<temp>0.00</temp>
<bpm>0</bpm>
<rpm>0.00</rpm>
</extensions>
</trkpt>
<trkpt lat="63.863845825" lon="-21.886280060">
<ele>46.123047</ele>
<time>2012-07-28T14:42:46Z</time>
<speed>3.450000</speed>
<extensions>
<speed>3.5</speed>
<temp>0.00</temp>
<bpm>0</bpm>
<rpm>0.00</rpm>
</extensions>
</trkpt>
<trkpt lat="63.863788605" lon="-21.886604309">
<ele>46.375000</ele>
<time>2012-07-28T14:42:51Z</time>
<speed>3.480000</speed>
<extensions>
<speed>3.5</speed>
<temp>0.00</temp>
<bpm>0</bpm>
<rpm>0.00</rpm>
</extensions>
</trkpt>
<trkpt lat="63.863735199" lon="-21.886932373">
<ele>46.608398</ele>
<time>2012-07-28T14:42:56Z</time>
<speed>3.430000</speed>
<extensions>
<speed>3.4</speed>
<temp>0.00</temp>
<bpm>0</bpm>
<rpm>0.00</rpm>
</extensions>
</trkpt>
<trkpt lat="63.863674164" lon="-21.887256622">
<ele>47.239258</ele>
<time>2012-07-28T14:43:01Z</time>
<speed>3.380000</speed>
<extensions>
<speed>3.4</speed>
<temp>0.00</temp>
<bpm>0</bpm>
<rpm>0.00</rpm>
</extensions>
</trkpt>
<trkpt lat="63.863624573" lon="-21.887584686">
<ele>47.278320</ele>
<time>2012-07-28T14:43:06Z</time>
<speed>3.460000</speed>
<extensions>
<speed>3.5</speed>
<temp>0.00</temp>
<bpm>0</bpm>
<rpm>0.00</rpm>
</extensions>
</trkpt>
<trkpt lat="63.863563538" lon="-21.887908936">
<ele>47.644531</ele>
<time>2012-07-28T14:43:11Z</time>
<speed>3.530000</speed>
<extensions>
<speed>3.5</speed>
<temp>0.00</temp>
<bpm>0</bpm>
<rpm>0.00</rpm>
</extensions>
</trkpt>
<trkpt lat="63.863510132" lon="-21.888250351">
<ele>48.080078</ele>
<time>2012-07-28T14:43:16Z</time>
<speed>3.730000</speed>
<extensions>
<speed>3.7</speed>
<temp>0.00</temp>
<bpm>0</bpm>
<rpm>0.00</rpm>
</extensions>
</trkpt>
<trkpt lat="63.863456726" lon="-21.888612747">
<ele>48.615234</ele>
<time>2012-07-28T14:43:21Z</time>
<speed>3.680000</speed>
<extensions>
<speed>3.7</speed>
<temp>0.00</temp>
<bpm>0</bpm>
<rpm>0.00</rpm>
</extensions>
</trkpt>
<trkpt lat="63.863407135" lon="-21.888889313">
<ele>48.555664</ele>
<time>2012-07-28T14:43:26Z</time>
<speed>2.750000</speed>
<extensions>
<speed>2.7</speed>
<temp>0.00</temp>
<bpm>0</bpm>
<rpm>0.00</rpm>
</extensions>
</trkpt>
<trkpt lat="63.863357544" lon="-21.889183044">
<ele>48.697266</ele>
<time>2012-07-28T14:43:31Z</time>
<speed>3.290000</speed>
<extensions>
<speed>3.3</speed>
<temp>0.00</temp>
<bpm>0</bpm>
<rpm>0.00</rpm>
</extensions>
</trkpt>
<trkpt lat="63.863304138" lon="-21.889499664">
<ele>49.206055</ele>
<time>2012-07-28T14:43:36Z</time>
<speed>3.470000</speed>
<extensions>
<speed>3.5</speed>
<temp>0.00</temp>
<bpm>0</bpm>
<rpm>0.00</rpm>
</extensions>
</trkpt>
<trkpt lat="63.863250732" lon="-21.889808655">
<ele>49.750977</ele>
<time>2012-07-28T14:43:41Z</time>
<speed>2.610000</speed>
<extensions>
<speed>2.6</speed>
<temp>0.00</temp>
<bpm>0</bpm>
<rpm>0.00</rpm>
</extensions>
</trkpt>
<trkpt lat="63.863227844" lon="-21.889991760">
<ele>49.657227</ele>
<time>2012-07-28T14:43:46Z</time>
<speed>0.960000</speed>
<extensions>
<speed>1.0</speed>
<temp>0.00</temp>
<bpm>0</bpm>
<rpm>0.00</rpm>
</extensions>
</trkpt>
<trkpt lat="63.863201141" lon="-21.890150070">
<ele>49.789063</ele>
<time>2012-07-28T14:43:51Z</time>
<speed>2.160000</speed>
<extensions>
<speed>2.2</speed>
<temp>0.00</temp>
<bpm>0</bpm>
<rpm>0.00</rpm>
</extensions>
</trkpt>
<trkpt lat="63.863151550" lon="-21.890357971">
<ele>50.302734</ele>
<time>2012-07-28T14:43:56Z</time>
<speed>2.620000</speed>
<extensions>
<speed>2.6</speed>
<temp>0.00</temp>
<bpm>0</bpm>
<rpm>0.00</rpm>
</extensions>
</trkpt>
<trkpt lat="63.863113403" lon="-21.890636444">
<ele>50.994141</ele>
<time>2012-07-28T14:44:01Z</time>
<speed>2.910000</speed>
<extensions>
<speed>2.9</speed>
<temp>0.00</temp>
<bpm>0</bpm>
<rpm>0.00</rpm>
</extensions>
</trkpt>
<trkpt lat="63.863067627" lon="-21.890920639">
<ele>51.546875</ele>
<time>2012-07-28T14:44:06Z</time>
<speed>2.920000</speed>
<extensions>
<speed>2.9</speed>
<temp>0.00</temp>
<bpm>0</bpm>
<rpm>0.00</rpm>
</extensions>
</trkpt>
<trkpt lat="63.863025665" lon="-21.891178131">
<ele>52.868164</ele>
<time>2012-07-28T14:44:11Z</time>
<speed>2.730000</speed>
<extensions>
<speed>2.7</speed>
<temp>0.00</temp>
<bpm>0</bpm>
<rpm>0.00</rpm>
</extensions>
</trkpt>
<trkpt lat="63.862972260" lon="-21.891437531">
<ele>54.116211</ele>
<time>2012-07-28T14:44:16Z</time>
<speed>2.870000</speed>
<extensions>
<speed>2.9</speed>
<temp>0.00</temp>
<bpm>0</bpm>
<rpm>0.00</rpm>
</extensions>
</trkpt>
<trkpt lat="63.862934113" lon="-21.891731262">
<ele>54.464844</ele>
<time>2012-07-28T14:44:21Z</time>
<speed>3.030000</speed>
<extensions>
<speed>3.0</speed>
<temp>0.00</temp>
<bpm>0</bpm>
<rpm>0.00</rpm>
</extensions>
</trkpt>
<trkpt lat="63.862884521" lon="-21.892015457">
<ele>54.743164</ele>
<time>2012-07-28T14:44:26Z</time>
<speed>2.980000</speed>
<extensions>
<speed>3.0</speed>
<temp>0.00</temp>
<bpm>0</bpm>
<rpm>0.00</rpm>
</extensions>
</trkpt>
<trkpt lat="63.862838745" lon="-21.892309189">
<ele>55.222656</ele>
<time>2012-07-28T14:44:31Z</time>
<speed>3.090000</speed>
<extensions>
<speed>3.1</speed>
<temp>0.00</temp>
<bpm>0</bpm>
<rpm>0.00</rpm>
</extensions>
</trkpt>
<trkpt lat="63.862796783" lon="-21.892606735">
<ele>55.236328</ele>
<time>2012-07-28T14:44:36Z</time>
<speed>3.090000</speed>
<extensions>
<speed>3.1</speed>
<temp>0.00</temp>
<bpm>0</bpm>
<rpm>0.00</rpm>
</extensions>
</trkpt>
<trkpt lat="63.862751007" lon="-21.892890930">
<ele>55.403320</ele>
<time>2012-07-28T14:44:41Z</time>
<speed>2.970000</speed>
<extensions>
<speed>3.0</speed>
<temp>0.00</temp>
<bpm>0</bpm>
<rpm>0.00</rpm>
</extensions>
</trkpt>
<trkpt lat="63.862701416" lon="-21.893169403">
<ele>55.430664</ele>
<time>2012-07-28T14:44:46Z</time>
<speed>3.050000</speed>
<extensions>
<speed>3.0</speed>
<temp>0.00</temp>
<bpm>0</bpm>
<rpm>0.00</rpm>
</extensions>
</trkpt>
<trkpt lat="63.862651825" lon="-21.893459320">
<ele>54.982422</ele>
<time>2012-07-28T14:44:51Z</time>
<speed>3.150000</speed>
<extensions>
<speed>3.2</speed>
<temp>0.00</temp>
<bpm>0</bpm>
<rpm>0.00</rpm>
</extensions>
</trkpt>
<trkpt lat="63.862602234" lon="-21.893753052">
<ele>55.493164</ele>
<time>2012-07-28T14:44:56Z</time>
<speed>3.190000</speed>
<extensions>
<speed>3.2</speed>
<temp>0.00</temp>
<bpm>0</bpm>
<rpm>0.00</rpm>
</extensions>
</trkpt>
<trkpt lat="63.862548828" lon="-21.894058228">
<ele>56.354492</ele>
<time>2012-07-28T14:45:01Z</time>
<speed>3.120000</speed>
<extensions>
<speed>3.1</speed>
<temp>0.00</temp>
<bpm>0</bpm>
<rpm>0.00</rpm>
</extensions>
</trkpt>
<trkpt lat="63.862499237" lon="-21.894357681">
<ele>56.553711</ele>
<time>2012-07-28T14:45:06Z</time>
<speed>3.170000</speed>
<extensions>
<speed>3.2</speed>
<temp>0.00</temp>
<bpm>0</bpm>
<rpm>0.00</rpm>
</extensions>
</trkpt>
<trkpt lat="63.862449646" lon="-21.894664764">
<ele>56.773438</ele>
<time>2012-07-28T14:45:11Z</time>
<speed>3.060000</speed>
<extensions>
<speed>3.1</speed>
<temp>0.00</temp>
<bpm>0</bpm>
<rpm>0.00</rpm>
</extensions>
</trkpt>
<trkpt lat="63.862400055" lon="-21.894964218">
<ele>56.986328</ele>
<time>2012-07-28T14:45:16Z</time>
<speed>3.100000</speed>
<extensions>
<speed>3.1</speed>
<temp>0.00</temp>
<bpm>0</bpm>
<rpm>0.00</rpm>
</extensions>
</trkpt>
<trkpt lat="63.862350464" lon="-21.895271301">
<ele>57.126953</ele>
<time>2012-07-28T14:45:21Z</time>
<speed>3.180000</speed>
<extensions>
<speed>3.2</speed>
<temp>0.00</temp>
<bpm>0</bpm>
<rpm>0.00</rpm>
</extensions>
</trkpt>
<trkpt lat="63.862308502" lon="-21.895578384">
<ele>57.252930</ele>
<time>2012-07-28T14:45:26Z</time>
<speed>3.120000</speed>
<extensions>
<speed>3.1</speed>
<temp>0.00</temp>
<bpm>0</bpm>
<rpm>0.00</rpm>
</extensions>
</trkpt>
<trkpt lat="63.862262726" lon="-21.895883560">
<ele>57.466797</ele>
<time>2012-07-28T14:45:31Z</time>
<speed>3.200000</speed>
<extensions>
<speed>3.2</speed>
<temp>0.00</temp>
<bpm>0</bpm>
<rpm>0.00</rpm>
</extensions>
</trkpt>
<trkpt lat="63.862209320" lon="-21.896196365">
<ele>57.974609</ele>
<time>2012-07-28T14:45:36Z</time>
<speed>3.250000</speed>
<extensions>
<speed>3.2</speed>
<temp>0.00</temp>
<bpm>0</bpm>
<rpm>0.00</rpm>
</extensions>
</trkpt>
<trkpt lat="63.862163544" lon="-21.896507263">
<ele>58.199219</ele>
<time>2012-07-28T14:45:41Z</time>
<speed>3.200000</speed>
<extensions>
<speed>3.2</speed>
<temp>0.00</temp>
<bpm>0</bpm>
<rpm>0.00</rpm>
</extensions>
</trkpt>
<trkpt lat="63.862110138" lon="-21.896812439">
<ele>58.490234</ele>
<time>2012-07-28T14:45:46Z</time>
<speed>3.310000</speed>
<extensions>
<speed>3.3</speed>
<temp>0.00</temp>
<bpm>0</bpm>
<rpm>0.00</rpm>
</extensions>
</trkpt>
<trkpt lat="63.862064362" lon="-21.897140503">
<ele>59.030273</ele>
<time>2012-07-28T14:45:51Z</time>
<speed>3.390000</speed>
<extensions>
<speed>3.4</speed>
<temp>0.00</temp>
<bpm>0</bpm>
<rpm>0.00</rpm>
</extensions>
</trkpt>
<trkpt lat="63.862018585" lon="-21.897460938">
<ele>59.280273</ele>
<time>2012-07-28T14:45:56Z</time>
<speed>3.410000</speed>
<extensions>
<speed>3.4</speed>
<temp>0.00</temp>
<bpm>0</bpm>
<rpm>0.00</rpm>
</extensions>
</trkpt>
<trkpt lat="63.861957550" lon="-21.897800446">
<ele>60.099609</ele>
<time>2012-07-28T14:46:01Z</time>
<speed>3.520000</speed>
<extensions>
<speed>3.5</speed>
<temp>0.00</temp>
<bpm>0</bpm>
<rpm>0.00</rpm>
</extensions>
</trkpt>
<trkpt lat="63.861904144" lon="-21.898139954">
<ele>60.249023</ele>
<time>2012-07-28T14:46:06Z</time>
<speed>3.660000</speed>
<extensions>
<speed>3.7</speed>
<temp>0.00</temp>
<bpm>0</bpm>
<rpm>0.00</rpm>
</extensions>
</trkpt>
<trkpt lat="63.861846924" lon="-21.898485184">
<ele>60.411133</ele>
<time>2012-07-28T14:46:11Z</time>
<speed>3.600000</speed>
<extensions>
<speed>3.6</speed>
<temp>0.00</temp>
<bpm>0</bpm>
<rpm>0.00</rpm>
</extensions>
</trkpt>
<trkpt lat="63.861789703" lon="-21.898839951">
<ele>60.766602</ele>
<time>2012-07-28T14:46:16Z</time>
<speed>3.700000</speed>
<extensions>
<speed>3.7</speed>
<temp>0.00</temp>
<bpm>0</bpm>
<rpm>0.00</rpm>
</extensions>
</trkpt>
<trkpt lat="63.861743927" lon="-21.899143219">
<ele>60.559570</ele>
<time>2012-07-28T14:46:21Z</time>
<speed>2.780000</speed>
<extensions>
<speed>2.8</speed>
<temp>0.00</temp>
<bpm>0</bpm>
<rpm>0.00</rpm>
</extensions>
</trkpt>
<trkpt lat="63.861701965" lon="-21.899452209">
<ele>60.077148</ele>
<time>2012-07-28T14:46:26Z</time>
<speed>3.380000</speed>
<extensions>
<speed>3.4</speed>
<temp>0.00</temp>
<bpm>0</bpm>
<rpm>0.00</rpm>
</extensions>
</trkpt>
<trkpt lat="63.861663818" lon="-21.899692535">
<ele>61.206055</ele>
<time>2012-07-28T14:46:31Z</time>
<speed>2.300000</speed>
<extensions>
<speed>2.3</speed>
<temp>0.00</temp>
<bpm>0</bpm>
<rpm>0.00</rpm>
</extensions>
</trkpt>
<trkpt lat="63.861629486" lon="-21.899959564">
<ele>61.058594</ele>
<time>2012-07-28T14:46:36Z</time>
<speed>3.170000</speed>
<extensions>
<speed>3.2</speed>
<temp>0.00</temp>
<bpm>0</bpm>
<rpm>0.00</rpm>
</extensions>
</trkpt>
<trkpt lat="63.861583710" lon="-21.900270462">
<ele>61.223633</ele>
<time>2012-07-28T14:46:41Z</time>
<speed>3.320000</speed>
<extensions>
<speed>3.3</speed>
<temp>0.00</temp>
<bpm>0</bpm>
<rpm>0.00</rpm>
</extensions>
</trkpt>
<trkpt lat="63.861541748" lon="-21.900588989">
<ele>61.570313</ele>
<time>2012-07-28T14:46:46Z</time>
<speed>3.170000</speed>
<extensions>
<speed>3.2</speed>
<temp>0.00</temp>
<bpm>0</bpm>
<rpm>0.00</rpm>
</extensions>
</trkpt>
<trkpt lat="63.861488342" lon="-21.900907516">
<ele>61.296875</ele>
<time>2012-07-28T14:46:51Z</time>
<speed>3.440000</speed>
<extensions>
<speed>3.4</speed>
<temp>0.00</temp>
<bpm>0</bpm>
<rpm>0.00</rpm>
</extensions>
</trkpt>
<trkpt lat="63.861434937" lon="-21.901233673">
<ele>61.563477</ele>
<time>2012-07-28T14:46:56Z</time>
<speed>3.520000</speed>
<extensions>
<speed>3.5</speed>
<temp>0.00</temp>
<bpm>0</bpm>
<rpm>0.00</rpm>
</extensions>
</trkpt>
<trkpt lat="63.861389160" lon="-21.901573181">
<ele>61.600586</ele>
<time>2012-07-28T14:47:01Z</time>
<speed>3.490000</speed>
<extensions>
<speed>3.5</speed>
<temp>0.00</temp>
<bpm>0</bpm>
<rpm>0.00</rpm>
</extensions>
</trkpt>
<trkpt lat="63.861335754" lon="-21.901916504">
<ele>62.324219</ele>
<time>2012-07-28T14:47:06Z</time>
<speed>3.550000</speed>
<extensions>
<speed>3.5</speed>
<temp>0.00</temp>
<bpm>0</bpm>
<rpm>0.00</rpm>
</extensions>
</trkpt>
<trkpt lat="63.861282349" lon="-21.902254105">
<ele>62.977539</ele>
<time>2012-07-28T14:47:11Z</time>
<speed>3.540000</speed>
<extensions>
<speed>3.5</speed>
<temp>0.00</temp>
<bpm>0</bpm>
<rpm>0.00</rpm>
</extensions>
</trkpt>
<trkpt lat="63.861232758" lon="-21.902601242">
<ele>62.564453</ele>
<time>2012-07-28T14:47:16Z</time>
<speed>3.640000</speed>
<extensions>
<speed>3.6</speed>
<temp>0.00</temp>
<bpm>0</bpm>
<rpm>0.00</rpm>
</extensions>
</trkpt>
<trkpt lat="63.861179352" lon="-21.902940750">
<ele>62.761719</ele>
<time>2012-07-28T14:47:21Z</time>
<speed>3.410000</speed>
<extensions>
<speed>3.4</speed>
<temp>0.00</temp>
<bpm>0</bpm>
<rpm>0.00</rpm>
</extensions>
</trkpt>
<trkpt lat="63.861125946" lon="-21.903266907">
<ele>62.567383</ele>
<time>2012-07-28T14:47:26Z</time>
<speed>3.000000</speed>
<extensions>
<speed>3.0</speed>
<temp>0.00</temp>
<bpm>0</bpm>
<rpm>0.00</rpm>
</extensions>
</trkpt>
<trkpt lat="63.861110687" lon="-21.903482437">
<ele>62.550781</ele>
<time>2012-07-28T14:47:31Z</time>
<speed>1.870000</speed>
<extensions>
<speed>1.9</speed>
<temp>0.00</temp>
<bpm>0</bpm>
<rpm>0.00</rpm>
</extensions>
</trkpt>
<trkpt lat="63.861068726" lon="-21.903718948">
<ele>62.960938</ele>
<time>2012-07-28T14:47:36Z</time>
<speed>3.130000</speed>
<extensions>
<speed>3.1</speed>
<temp>0.00</temp>
<bpm>0</bpm>
<rpm>0.00</rpm>
</extensions>
</trkpt>
<trkpt lat="63.861026764" lon="-21.904033661">
<ele>62.913086</ele>
<time>2012-07-28T14:47:41Z</time>
<speed>3.360000</speed>
<extensions>
<speed>3.4</speed>
<temp>0.00</temp>
<bpm>0</bpm>
<rpm>0.00</rpm>
</extensions>
</trkpt>
<trkpt lat="63.860980988" lon="-21.904357910">
<ele>63.059570</ele>
<time>2012-07-28T14:47:46Z</time>
<speed>3.450000</speed>
<extensions>
<speed>3.5</speed>
<temp>0.00</temp>
<bpm>0</bpm>
<rpm>0.00</rpm>
</extensions>
</trkpt>
<trkpt lat="63.860931396" lon="-21.904699326">
<ele>63.613281</ele>
<time>2012-07-28T14:47:51Z</time>
<speed>3.520000</speed>
<extensions>
<speed>3.5</speed>
<temp>0.00</temp>
<bpm>0</bpm>
<rpm>0.00</rpm>
</extensions>
</trkpt>
<trkpt lat="63.860885620" lon="-21.905048370">
<ele>63.622070</ele>
<time>2012-07-28T14:47:56Z</time>
<speed>3.430000</speed>
<extensions>
<speed>3.4</speed>
<temp>0.00</temp>
<bpm>0</bpm>
<rpm>0.00</rpm>
</extensions>
</trkpt>
<trkpt lat="63.860843658" lon="-21.905311584">
<ele>64.009766</ele>
<time>2012-07-28T14:48:01Z</time>
<speed>2.680000</speed>
<extensions>
<speed>2.7</speed>
<temp>0.00</temp>
<bpm>0</bpm>
<rpm>0.00</rpm>
</extensions>
</trkpt>
<trkpt lat="63.860801697" lon="-21.905614853">
<ele>64.226563</ele>
<time>2012-07-28T14:48:06Z</time>
<speed>3.550000</speed>
<extensions>
<speed>3.5</speed>
<temp>0.00</temp>
<bpm>0</bpm>
<rpm>0.00</rpm>
</extensions>
</trkpt>
<trkpt lat="63.860752106" lon="-21.905929565">
<ele>63.985352</ele>
<time>2012-07-28T14:48:11Z</time>
<speed>2.410000</speed>
<extensions>
<speed>2.4</speed>
<temp>0.00</temp>
<bpm>0</bpm>
<rpm>0.00</rpm>
</extensions>
</trkpt>
<trkpt lat="63.860725403" lon="-21.906135559">
<ele>63.914063</ele>
<time>2012-07-28T14:48:16Z</time>
<speed>2.680000</speed>
<extensions>
<speed>2.7</speed>
<temp>0.00</temp>
<bpm>0</bpm>
<rpm>0.00</rpm>
</extensions>
</trkpt>
<trkpt lat="63.860683441" lon="-21.906427383">
<ele>64.312500</ele>
<time>2012-07-28T14:48:21Z</time>
<speed>3.230000</speed>
<extensions>
<speed>3.2</speed>
<temp>0.00</temp>
<bpm>0</bpm>
<rpm>0.00</rpm>
</extensions>
</trkpt>
<trkpt lat="63.860645294" lon="-21.906740189">
<ele>64.300781</ele>
<time>2012-07-28T14:48:26Z</time>
<speed>3.080000</speed>
<extensions>
<speed>3.1</speed>
<temp>0.00</temp>
<bpm>0</bpm>
<rpm>0.00</rpm>
</extensions>
</trkpt>
<trkpt lat="63.860607147" lon="-21.907030106">
<ele>64.128906</ele>
<time>2012-07-28T14:48:31Z</time>
<speed>2.370000</speed>
<extensions>
<speed>2.4</speed>
<temp>0.00</temp>
<bpm>0</bpm>
<rpm>0.00</rpm>
</extensions>
</trkpt>
<trkpt lat="63.860576630" lon="-21.907213211">
<ele>63.880859</ele>
<time>2012-07-28T14:48:36Z</time>
<speed>2.570000</speed>
<extensions>
<speed>2.6</speed>
<temp>0.00</temp>
<bpm>0</bpm>
<rpm>0.00</rpm>
</extensions>
</trkpt>
<trkpt lat="63.860542297" lon="-21.907482147">
<ele>64.109375</ele>
<time>2012-07-28T14:48:41Z</time>
<speed>3.040000</speed>
<extensions>
<speed>3.0</speed>
<temp>0.00</temp>
<bpm>0</bpm>
<rpm>0.00</rpm>
</extensions>
</trkpt>
<trkpt lat="63.860500336" lon="-21.907794952">
<ele>64.265625</ele>
<time>2012-07-28T14:48:46Z</time>
<speed>3.180000</speed>
<extensions>
<speed>3.2</speed>
<temp>0.00</temp>
<bpm>0</bpm>
<rpm>0.00</rpm>
</extensions>
</trkpt>
<trkpt lat="63.860458374" lon="-21.908102036">
<ele>64.128906</ele>
<time>2012-07-28T14:48:51Z</time>
<speed>2.740000</speed>
<extensions>
<speed>2.7</speed>
<temp>0.00</temp>
<bpm>0</bpm>
<rpm>0.00</rpm>
</extensions>
</trkpt>
<trkpt lat="63.860424042" lon="-21.908346176">
<ele>64.763672</ele>
<time>2012-07-28T14:48:56Z</time>
<speed>2.990000</speed>
<extensions>
<speed>3.0</speed>
<temp>0.00</temp>
<bpm>0</bpm>
<rpm>0.00</rpm>
</extensions>
</trkpt>
<trkpt lat="63.860378265" lon="-21.908658981">
<ele>65.406250</ele>
<time>2012-07-28T14:49:01Z</time>
<speed>3.470000</speed>
<extensions>
<speed>3.5</speed>
<temp>0.00</temp>
<bpm>0</bpm>
<rpm>0.00</rpm>
</extensions>
</trkpt>
<trkpt lat="63.860336304" lon="-21.909000397">
<ele>65.474609</ele>
<time>2012-07-28T14:49:06Z</time>
<speed>3.360000</speed>
<extensions>
<speed>3.4</speed>
<temp>0.00</temp>
<bpm>0</bpm>
<rpm>0.00</rpm>
</extensions>
</trkpt>
<trkpt lat="63.860290527" lon="-21.909336090">
<ele>65.277344</ele>
<time>2012-07-28T14:49:11Z</time>
<speed>3.330000</speed>
<extensions>
<speed>3.3</speed>
<temp>0.00</temp>
<bpm>0</bpm>
<rpm>0.00</rpm>
</extensions>
</trkpt>
<trkpt lat="63.860252380" lon="-21.909673691">
<ele>65.312500</ele>
<time>2012-07-28T14:49:16Z</time>
<speed>3.550000</speed>
<extensions>
<speed>3.5</speed>
<temp>0.00</temp>
<bpm>0</bpm>
<rpm>0.00</rpm>
</extensions>
</trkpt>
<trkpt lat="63.860206604" lon="-21.910018921">
<ele>65.833984</ele>
<time>2012-07-28T14:49:21Z</time>
<speed>3.400000</speed>
<extensions>
<speed>3.4</speed>
<temp>0.00</temp>
<bpm>0</bpm>
<rpm>0.00</rpm>
</extensions>
</trkpt>
<trkpt lat="63.860172272" lon="-21.910261154">
<ele>66.298828</ele>
<time>2012-07-28T14:49:26Z</time>
<speed>2.310000</speed>
<extensions>
<speed>2.3</speed>
<temp>0.00</temp>
<bpm>0</bpm>
<rpm>0.00</rpm>
</extensions>
</trkpt>
<trkpt lat="63.860130310" lon="-21.910562515">
<ele>67.902344</ele>
<time>2012-07-28T14:49:31Z</time>
<speed>3.430000</speed>
<extensions>
<speed>3.4</speed>
<temp>0.00</temp>
<bpm>0</bpm>
<rpm>0.00</rpm>
</extensions>
</trkpt>
<trkpt lat="63.860088348" lon="-21.910894394">
<ele>69.964844</ele>
<time>2012-07-28T14:49:36Z</time>
<speed>2.420000</speed>
<extensions>
<speed>2.4</speed>
<temp>0.00</temp>
<bpm>0</bpm>
<rpm>0.00</rpm>
</extensions>
</trkpt>
<trkpt lat="63.860069275" lon="-21.911041260">
<ele>70.882813</ele>
<time>2012-07-28T14:49:41Z</time>
<speed>0.710000</speed>
<extensions>
<speed>0.7</speed>
<temp>0.00</temp>
<bpm>0</bpm>
<rpm>0.00</rpm>
</extensions>
</trkpt>
<trkpt lat="63.860038757" lon="-21.911195755">
<ele>72.263672</ele>
<time>2012-07-28T14:49:46Z</time>
<speed>2.490000</speed>
<extensions>
<speed>2.5</speed>
<temp>0.00</temp>
<bpm>0</bpm>
<rpm>0.00</rpm>
</extensions>
</trkpt>
<trkpt lat="63.859992981" lon="-21.911472321">
<ele>73.080078</ele>
<time>2012-07-28T14:49:51Z</time>
<speed>3.000000</speed>
<extensions>
<speed>3.0</speed>
<temp>0.00</temp>
<bpm>0</bpm>
<rpm>0.00</rpm>
</extensions>
</trkpt>
<trkpt lat="63.859947205" lon="-21.911783218">
<ele>73.732422</ele>
<time>2012-07-28T14:49:56Z</time>
<speed>3.090000</speed>
<extensions>
<speed>3.1</speed>
<temp>0.00</temp>
<bpm>0</bpm>
<rpm>0.00</rpm>
</extensions>
</trkpt>
<trkpt lat="63.859897614" lon="-21.912101746">
<ele>73.789063</ele>
<time>2012-07-28T14:50:01Z</time>
<speed>3.230000</speed>
<extensions>
<speed>3.2</speed>
<temp>0.00</temp>
<bpm>0</bpm>
<rpm>0.00</rpm>
</extensions>
</trkpt>
<trkpt lat="63.859867096" lon="-21.912355423">
<ele>73.593750</ele>
<time>2012-07-28T14:50:06Z</time>
<speed>1.780000</speed>
<extensions>
<speed>1.8</speed>
<temp>0.00</temp>
<bpm>0</bpm>
<rpm>0.00</rpm>
</extensions>
</trkpt>
<trkpt lat="63.859836578" lon="-21.912580490">
<ele>73.501953</ele>
<time>2012-07-28T14:50:11Z</time>
<speed>2.950000</speed>
<extensions>
<speed>2.9</speed>
<temp>0.00</temp>
<bpm>0</bpm>
<rpm>0.00</rpm>
</extensions>
</trkpt>
<trkpt lat="63.859794617" lon="-21.912900925">
<ele>74.468750</ele>
<time>2012-07-28T14:50:16Z</time>
<speed>3.360000</speed>
<extensions>
<speed>3.4</speed>
<temp>0.00</temp>
<bpm>0</bpm>
<rpm>0.00</rpm>
</extensions>
</trkpt>
<trkpt lat="63.859760284" lon="-21.913181305">
<ele>74.818359</ele>
<time>2012-07-28T14:50:21Z</time>
<speed>2.140000</speed>
<extensions>
<speed>2.1</speed>
<temp>0.00</temp>
<bpm>0</bpm>
<rpm>0.00</rpm>
</extensions>
</trkpt>
<trkpt lat="63.859714508" lon="-21.913425446">
<ele>75.804688</ele>
<time>2012-07-28T14:50:26Z</time>
<speed>2.990000</speed>
<extensions>
<speed>3.0</speed>
<temp>0.00</temp>
<bpm>0</bpm>
<rpm>0.00</rpm>
</extensions>
</trkpt>
<trkpt lat="63.859672546" lon="-21.913721085">
<ele>76.562500</ele>
<time>2012-07-28T14:50:31Z</time>
<speed>3.070000</speed>
<extensions>
<speed>3.1</speed>
<temp>0.00</temp>
<bpm>0</bpm>
<rpm>0.00</rpm>
</extensions>
</trkpt>
<trkpt lat="63.859626770" lon="-21.914024353">
<ele>77.482422</ele>
<time>2012-07-28T14:50:36Z</time>
<speed>3.180000</speed>
<extensions>
<speed>3.2</speed>
<temp>0.00</temp>
<bpm>0</bpm>
<rpm>0.00</rpm>
</extensions>
</trkpt>
<trkpt lat="63.859611511" lon="-21.914134979">
<ele>77.431641</ele>
<time>2012-07-28T14:50:41Z</time>
<speed>0.010000</speed>
<extensions>
<speed>0.0</speed>
<temp>0.00</temp>
<bpm>0</bpm>
<rpm>0.00</rpm>
</extensions>
</trkpt>
<trkpt lat="63.859611511" lon="-21.914131165">
<ele>77.123047</ele>
<time>2012-07-28T14:50:46Z</time>
<extensions>
<speed>0.0</speed>
<temp>0.00</temp>
<bpm>0</bpm>
<rpm>0.00</rpm>
</extensions>
</trkpt>
<trkpt lat="63.859611511" lon="-21.914131165">
<ele>77.058594</ele>
<time>2012-07-28T14:50:51Z</time>
<speed>0.050000</speed>
<extensions>
<speed>0.1</speed>
<temp>0.00</temp>
<bpm>0</bpm>
<rpm>0.00</rpm>
</extensions>
</trkpt>
<trkpt lat="63.859607697" lon="-21.914133072">
<ele>76.996094</ele>
<time>2012-07-28T14:50:56Z</time>
<speed>0.020000</speed>
<extensions>
<speed>0.0</speed>
<temp>0.00</temp>
<bpm>0</bpm>
<rpm>0.00</rpm>
</extensions>
</trkpt>
<trkpt lat="63.859611511" lon="-21.914131165">
<ele>76.935547</ele>
<time>2012-07-28T14:51:01Z</time>
<speed>0.580000</speed>
<extensions>
<speed>0.6</speed>
<temp>0.00</temp>
<bpm>0</bpm>
<rpm>0.00</rpm>
</extensions>
</trkpt>
<trkpt lat="63.859580994" lon="-21.914272308">
<ele>76.957031</ele>
<time>2012-07-28T14:51:06Z</time>
<speed>2.610000</speed>
<extensions>
<speed>2.6</speed>
<temp>0.00</temp>
<bpm>0</bpm>
<rpm>0.00</rpm>
</extensions>
</trkpt>
<trkpt lat="63.859531403" lon="-21.914583206">
<ele>77.279297</ele>
<time>2012-07-28T14:51:11Z</time>
<speed>3.280000</speed>
<extensions>
<speed>3.3</speed>
<temp>0.00</temp>
<bpm>0</bpm>
<rpm>0.00</rpm>
</extensions>
</trkpt>
<trkpt lat="63.859481812" lon="-21.914907455">
<ele>77.169922</ele>
<time>2012-07-28T14:51:16Z</time>
<speed>3.150000</speed>
<extensions>
<speed>3.2</speed>
<temp>0.00</temp>
<bpm>0</bpm>
<rpm>0.00</rpm>
</extensions>
</trkpt>
<trkpt lat="63.859432220" lon="-21.915203094">
<ele>76.726563</ele>
<time>2012-07-28T14:51:21Z</time>
<speed>2.680000</speed>
<extensions>
<speed>2.7</speed>
<temp>0.00</temp>
<bpm>0</bpm>
<rpm>0.00</rpm>
</extensions>
</trkpt>
<trkpt lat="63.859394073" lon="-21.915384293">
<ele>75.853516</ele>
<time>2012-07-28T14:51:26Z</time>
<speed>1.510000</speed>
<extensions>
<speed>1.5</speed>
<temp>0.00</temp>
<bpm>0</bpm>
<rpm>0.00</rpm>
</extensions>
</trkpt>
<trkpt lat="63.859363556" lon="-21.915592194">
<ele>75.419922</ele>
<time>2012-07-28T14:51:31Z</time>
<speed>2.830000</speed>
<extensions>
<speed>2.8</speed>
<temp>0.00</temp>
<bpm>0</bpm>
<rpm>0.00</rpm>
</extensions>
</trkpt>
<trkpt lat="63.859302521" lon="-21.915906906">
<ele>75.304688</ele>
<time>2012-07-28T14:51:36Z</time>
<speed>3.150000</speed>
<extensions>
<speed>3.2</speed>
<temp>0.00</temp>
<bpm>0</bpm>
<rpm>0.00</rpm>
</extensions>
</trkpt>
<trkpt lat="63.859256744" lon="-21.916189194">
<ele>76.423828</ele>
<time>2012-07-28T14:51:41Z</time>
<speed>3.180000</speed>
<extensions>
<speed>3.2</speed>
<temp>0.00</temp>
<bpm>0</bpm>
<rpm>0.00</rpm>
</extensions>
</trkpt>
<trkpt lat="63.859210968" lon="-21.916471481">
<ele>76.064453</ele>
<time>2012-07-28T14:51:46Z</time>
<speed>2.710000</speed>
<extensions>
<speed>2.7</speed>
<temp>0.00</temp>
<bpm>0</bpm>
<rpm>0.00</rpm>
</extensions>
</trkpt>
<trkpt lat="63.859165192" lon="-21.916746140">
<ele>76.912109</ele>
<time>2012-07-28T14:51:51Z</time>
<speed>2.940000</speed>
<extensions>
<speed>2.9</speed>
<temp>0.00</temp>
<bpm>0</bpm>
<rpm>0.00</rpm>
</extensions>
</trkpt>
<trkpt lat="63.859115601" lon="-21.916990280">
<ele>74.199219</ele>
<time>2012-07-28T14:51:56Z</time>
<speed>2.330000</speed>
<extensions>
<speed>2.3</speed>
<temp>0.00</temp>
<bpm>0</bpm>
<rpm>0.00</rpm>
</extensions>
</trkpt>
<trkpt lat="63.859069824" lon="-21.917181015">
<ele>73.574219</ele>
<time>2012-07-28T14:52:01Z</time>
<speed>1.840000</speed>
<extensions>
<speed>1.8</speed>
<temp>0.00</temp>
<bpm>0</bpm>
<rpm>0.00</rpm>
</extensions>
</trkpt>
<trkpt lat="63.859043121" lon="-21.917320251">
<ele>73.476563</ele>
<time>2012-07-28T14:52:06Z</time>
<speed>1.350000</speed>
<extensions>
<speed>1.4</speed>
<temp>0.00</temp>
<bpm>0</bpm>
<rpm>0.00</rpm>
</extensions>
</trkpt>
<trkpt lat="63.859027863" lon="-21.917446136">
<ele>73.996094</ele>
<time>2012-07-28T14:52:11Z</time>
<speed>0.920000</speed>
<extensions>
<speed>0.9</speed>
<temp>0.00</temp>
<bpm>0</bpm>
<rpm>0.00</rpm>
</extensions>
</trkpt>
<trkpt lat="63.859024048" lon="-21.917510986">
<ele>73.984375</ele>
<time>2012-07-28T14:52:16Z</time>
<speed>0.070000</speed>
<extensions>
<speed>0.1</speed>
<temp>0.00</temp>
<bpm>0</bpm>
<rpm>0.00</rpm>
</extensions>
</trkpt>
<trkpt lat="63.859020233" lon="-21.917507172">
<ele>74.013672</ele>
<time>2012-07-28T14:52:21Z</time>
<speed>0.010000</speed>
<extensions>
<speed>0.0</speed>
<temp>0.00</temp>
<bpm>0</bpm>
<rpm>0.00</rpm>
</extensions>
</trkpt>
<trkpt lat="63.859024048" lon="-21.917509079">
<ele>73.943359</ele>
<time>2012-07-28T14:52:26Z</time>
<speed>0.030000</speed>
<extensions>
<speed>0.0</speed>
<temp>0.00</temp>
<bpm>0</bpm>
<rpm>0.00</rpm>
</extensions>
</trkpt>
<trkpt lat="63.859020233" lon="-21.917509079">
<ele>73.843750</ele>
<time>2012-07-28T14:52:31Z</time>
<speed>0.020000</speed>
<extensions>
<speed>0.0</speed>
<temp>0.00</temp>
<bpm>0</bpm>
<rpm>0.00</rpm>
</extensions>
</trkpt>
<trkpt lat="63.859020233" lon="-21.917507172">
<ele>73.771484</ele>
<time>2012-07-28T14:52:36Z</time>
<speed>0.010000</speed>
<extensions>
<speed>0.0</speed>
<temp>0.00</temp>
<bpm>0</bpm>
<rpm>0.00</rpm>
</extensions>
</trkpt>
<trkpt lat="63.859020233" lon="-21.917507172">
<ele>73.617188</ele>
<time>2012-07-28T14:52:41Z</time>
<speed>0.020000</speed>
<extensions>
<speed>0.0</speed>
<temp>0.00</temp>
<bpm>0</bpm>
<rpm>0.00</rpm>
</extensions>
</trkpt>
<trkpt lat="63.859024048" lon="-21.917509079">
<ele>73.572266</ele>
<time>2012-07-28T14:52:46Z</time>
<speed>0.010000</speed>
<extensions>
<speed>0.0</speed>
<temp>0.00</temp>
<bpm>0</bpm>
<rpm>0.00</rpm>
</extensions>
</trkpt>
<trkpt lat="63.859024048" lon="-21.917507172">
<ele>73.554688</ele>
<time>2012-07-28T14:52:51Z</time>
<speed>0.030000</speed>
<extensions>
<speed>0.0</speed>
<temp>0.00</temp>
<bpm>0</bpm>
<rpm>0.00</rpm>
</extensions>
</trkpt>
<trkpt lat="63.859024048" lon="-21.917507172">
<ele>73.552734</ele>
<time>2012-07-28T14:52:56Z</time>
<speed>0.010000</speed>
<extensions>
<speed>0.0</speed>
<temp>0.00</temp>
<bpm>0</bpm>
<rpm>0.00</rpm>
</extensions>
</trkpt>
<trkpt lat="63.859024048" lon="-21.917507172">
<ele>73.556641</ele>
<time>2012-07-28T14:53:01Z</time>
<extensions>
<speed>0.0</speed>
<temp>0.00</temp>
<bpm>0</bpm>
<rpm>0.00</rpm>
</extensions>
</trkpt>
<trkpt lat="63.859024048" lon="-21.917507172">
<ele>73.560547</ele>
<time>2012-07-28T14:53:06Z</time>
<extensions>
<speed>0.0</speed>
<temp>0.00</temp>
<bpm>0</bpm>
<rpm>0.00</rpm>
</extensions>
</trkpt>
<trkpt lat="63.859024048" lon="-21.917507172">
<ele>73.574219</ele>
<time>2012-07-28T14:53:11Z</time>
<extensions>
<speed>0.0</speed>
<temp>0.00</temp>
<bpm>0</bpm>
<rpm>0.00</rpm>
</extensions>
</trkpt>
<trkpt lat="63.859024048" lon="-21.917507172">
<ele>73.580078</ele>
<time>2012-07-28T14:53:16Z</time>
<extensions>
<speed>0.0</speed>
<temp>0.00</temp>
<bpm>0</bpm>
<rpm>0.00</rpm>
</extensions>
</trkpt>
<trkpt lat="63.859024048" lon="-21.917507172">
<ele>73.580078</ele>
<time>2012-07-28T14:53:21Z</time>
<extensions>
<speed>0.0</speed>
<temp>0.00</temp>
<bpm>0</bpm>
<rpm>0.00</rpm>
</extensions>
</trkpt>
<trkpt lat="63.859024048" lon="-21.917507172">
<ele>73.578125</ele>
<time>2012-07-28T14:53:26Z</time>
<extensions>
<speed>0.0</speed>
<temp>0.00</temp>
<bpm>0</bpm>
<rpm>0.00</rpm>
</extensions>
</trkpt>
<trkpt lat="63.859024048" lon="-21.917507172">
<ele>73.605469</ele>
<time>2012-07-28T14:53:31Z</time>
<extensions>
<speed>0.0</speed>
<temp>0.00</temp>
<bpm>0</bpm>
<rpm>0.00</rpm>
</extensions>
</trkpt>
<trkpt lat="63.859024048" lon="-21.917507172">
<ele>73.609375</ele>
<time>2012-07-28T14:53:36Z</time>
<extensions>
<speed>0.0</speed>
<temp>0.00</temp>
<bpm>0</bpm>
<rpm>0.00</rpm>
</extensions>
</trkpt>
<trkpt lat="63.859024048" lon="-21.917507172">
<ele>73.607422</ele>
<time>2012-07-28T14:53:41Z</time>
<extensions>
<speed>0.0</speed>
<temp>0.00</temp>
<bpm>0</bpm>
<rpm>0.00</rpm>
</extensions>
</trkpt>
<trkpt lat="63.859024048" lon="-21.917507172">
<ele>73.595703</ele>
<time>2012-07-28T14:53:46Z</time>
<speed>0.490000</speed>
<extensions>
<speed>0.5</speed>
<temp>0.00</temp>
<bpm>0</bpm>
<rpm>0.00</rpm>
</extensions>
</trkpt>
<trkpt lat="63.858970642" lon="-21.917718887">
<ele>73.433594</ele>
<time>2012-07-28T14:53:51Z</time>
<speed>3.390000</speed>
<extensions>
<speed>3.4</speed>
<temp>0.00</temp>
<bpm>0</bpm>
<rpm>0.00</rpm>
</extensions>
</trkpt>
<trkpt lat="63.858909607" lon="-21.918056488">
<ele>71.906250</ele>
<time>2012-07-28T14:53:56Z</time>
<speed>3.590000</speed>
<extensions>
<speed>3.6</speed>
<temp>0.00</temp>
<bpm>0</bpm>
<rpm>0.00</rpm>
</extensions>
</trkpt>
<trkpt lat="63.858840942" lon="-21.918432236">
<ele>70.599609</ele>
<time>2012-07-28T14:54:01Z</time>
<speed>4.070000</speed>
<extensions>
<speed>4.1</speed>
<temp>0.00</temp>
<bpm>0</bpm>
<rpm>0.00</rpm>
</extensions>
</trkpt>
<trkpt lat="63.858757019" lon="-21.918794632">
<ele>69.320313</ele>
<time>2012-07-28T14:54:06Z</time>
<speed>3.830000</speed>
<extensions>
<speed>3.8</speed>
<temp>0.00</temp>
<bpm>0</bpm>
<rpm>0.00</rpm>
</extensions>
</trkpt>
<trkpt lat="63.858695984" lon="-21.919118881">
<ele>72.857422</ele>
<time>2012-07-28T14:54:11Z</time>
<speed>3.190000</speed>
<extensions>
<speed>3.2</speed>
<temp>0.00</temp>
<bpm>0</bpm>
<rpm>0.00</rpm>
</extensions>
</trkpt>
<trkpt lat="63.858634949" lon="-21.919443130">
<ele>72.939453</ele>
<time>2012-07-28T14:54:16Z</time>
<speed>3.970000</speed>
<extensions>
<speed>4.0</speed>
<temp>0.00</temp>
<bpm>0</bpm>
<rpm>0.00</rpm>
</extensions>
</trkpt>
<trkpt lat="63.858547211" lon="-21.919839859">
<ele>68.818359</ele>
<time>2012-07-28T14:54:21Z</time>
<speed>4.450000</speed>
<extensions>
<speed>4.5</speed>
<temp>0.00</temp>
<bpm>0</bpm>
<rpm>0.00</rpm>
</extensions>
</trkpt>
<trkpt lat="63.858448029" lon="-21.920244217">
<ele>65.892578</ele>
<time>2012-07-28T14:54:26Z</time>
<speed>4.580000</speed>
<extensions>
<speed>4.6</speed>
<temp>0.00</temp>
<bpm>0</bpm>
<rpm>0.00</rpm>
</extensions>
</trkpt>
<trkpt lat="63.858356476" lon="-21.920682907">
<ele>67.156250</ele>
<time>2012-07-28T14:54:31Z</time>
<speed>4.780000</speed>
<extensions>
<speed>4.8</speed>
<temp>0.00</temp>
<bpm>0</bpm>
<rpm>0.00</rpm>
</extensions>
</trkpt>
<trkpt lat="63.858253479" lon="-21.921119690">
<ele>65.289063</ele>
<time>2012-07-28T14:54:36Z</time>
<speed>5.110000</speed>
<extensions>
<speed>5.1</speed>
<temp>0.00</temp>
<bpm>0</bpm>
<rpm>0.00</rpm>
</extensions>
</trkpt>
<trkpt lat="63.858135223" lon="-21.921617508">
<ele>66.029297</ele>
<time>2012-07-28T14:54:41Z</time>
<speed>5.770000</speed>
<extensions>
<speed>5.8</speed>
<temp>0.00</temp>
<bpm>0</bpm>
<rpm>0.00</rpm>
</extensions>
</trkpt>
<trkpt lat="63.858013153" lon="-21.922176361">
<ele>65.412109</ele>
<time>2012-07-28T14:54:46Z</time>
<speed>6.470000</speed>
<extensions>
<speed>6.5</speed>
<temp>0.00</temp>
<bpm>0</bpm>
<rpm>0.00</rpm>
</extensions>
</trkpt>
<trkpt lat="63.857872009" lon="-21.922780991">
<ele>64.488281</ele>
<time>2012-07-28T14:54:51Z</time>
<speed>6.980000</speed>
<extensions>
<speed>7.0</speed>
<temp>0.00</temp>
<bpm>0</bpm>
<rpm>0.00</rpm>
</extensions>
</trkpt>
<trkpt lat="63.857719421" lon="-21.923431396">
<ele>67.107422</ele>
<time>2012-07-28T14:54:56Z</time>
<speed>7.500000</speed>
<extensions>
<speed>7.5</speed>
<temp>0.00</temp>
<bpm>0</bpm>
<rpm>0.00</rpm>
</extensions>
</trkpt>
<trkpt lat="63.857555389" lon="-21.924142838">
<ele>70.716797</ele>
<time>2012-07-28T14:55:01Z</time>
<speed>7.980000</speed>
<extensions>
<speed>8.0</speed>
<temp>0.00</temp>
<bpm>0</bpm>
<rpm>0.00</rpm>
</extensions>
</trkpt>
<trkpt lat="63.857368469" lon="-21.924863815">
<ele>69.685547</ele>
<time>2012-07-28T14:55:06Z</time>
<speed>8.340000</speed>
<extensions>
<speed>8.3</speed>
<temp>0.00</temp>
<bpm>0</bpm>
<rpm>0.00</rpm>
</extensions>
</trkpt>
<trkpt lat="63.857181549" lon="-21.925584793">
<ele>66.832031</ele>
<time>2012-07-28T14:55:11Z</time>
<speed>8.290000</speed>
<extensions>
<speed>8.3</speed>
<temp>0.00</temp>
<bpm>0</bpm>
<rpm>0.00</rpm>
</extensions>
</trkpt>
<trkpt lat="63.856979370" lon="-21.926298141">
<ele>65.724609</ele>
<time>2012-07-28T14:55:16Z</time>
<speed>8.170000</speed>
<extensions>
<speed>8.2</speed>
<temp>0.00</temp>
<bpm>0</bpm>
<rpm>0.00</rpm>
</extensions>
</trkpt>
<trkpt lat="63.856792450" lon="-21.926979065">
<ele>64.277344</ele>
<time>2012-07-28T14:55:21Z</time>
<speed>7.620000</speed>
<extensions>
<speed>7.6</speed>
<temp>0.00</temp>
<bpm>0</bpm>
<rpm>0.00</rpm>
</extensions>
</trkpt>
<trkpt lat="63.856601715" lon="-21.927576065">
<ele>59.750977</ele>
<time>2012-07-28T14:55:26Z</time>
<speed>7.020000</speed>
<extensions>
<speed>7.0</speed>
<temp>0.00</temp>
<bpm>0</bpm>
<rpm>0.00</rpm>
</extensions>
</trkpt>
<trkpt lat="63.856422424" lon="-21.928155899">
<ele>57.201172</ele>
<time>2012-07-28T14:55:31Z</time>
<speed>7.230000</speed>
<extensions>
<speed>7.2</speed>
<temp>0.00</temp>
<bpm>0</bpm>
<rpm>0.00</rpm>
</extensions>
</trkpt>
<trkpt lat="63.856231689" lon="-21.928781509">
<ele>55.910156</ele>
<time>2012-07-28T14:55:36Z</time>
<speed>7.720000</speed>
<extensions>
<speed>7.7</speed>
<temp>0.00</temp>
<bpm>0</bpm>
<rpm>0.00</rpm>
</extensions>
</trkpt>
<trkpt lat="63.856029510" lon="-21.929439545">
<ele>53.548828</ele>
<time>2012-07-28T14:55:41Z</time>
<speed>8.070000</speed>
<extensions>
<speed>8.1</speed>
<temp>0.00</temp>
<bpm>0</bpm>
<rpm>0.00</rpm>
</extensions>
</trkpt>
<trkpt lat="63.855827332" lon="-21.930109024">
<ele>50.752930</ele>
<time>2012-07-28T14:55:46Z</time>
<speed>7.540000</speed>
<extensions>
<speed>7.5</speed>
<temp>0.00</temp>
<bpm>0</bpm>
<rpm>0.00</rpm>
</extensions>
</trkpt>
<trkpt lat="63.855648041" lon="-21.930704117">
<ele>50.105469</ele>
<time>2012-07-28T14:55:51Z</time>
<speed>6.990000</speed>
<extensions>
<speed>7.0</speed>
<temp>0.00</temp>
<bpm>0</bpm>
<rpm>0.00</rpm>
</extensions>
</trkpt>
<trkpt lat="63.855472565" lon="-21.931280136">
<ele>48.281250</ele>
<time>2012-07-28T14:55:56Z</time>
<speed>6.830000</speed>
<extensions>
<speed>6.8</speed>
<temp>0.00</temp>
<bpm>0</bpm>
<rpm>0.00</rpm>
</extensions>
</trkpt>
<trkpt lat="63.855308533" lon="-21.931856155">
<ele>46.721680</ele>
<time>2012-07-28T14:56:01Z</time>
<speed>5.880000</speed>
<extensions>
<speed>5.9</speed>
<temp>0.00</temp>
<bpm>0</bpm>
<rpm>0.00</rpm>
</extensions>
</trkpt>
<trkpt lat="63.855190277" lon="-21.932283401">
<ele>46.029297</ele>
<time>2012-07-28T14:56:06Z</time>
<speed>4.010000</speed>
<extensions>
<speed>4.0</speed>
<temp>0.00</temp>
<bpm>0</bpm>
<rpm>0.00</rpm>
</extensions>
</trkpt>
<trkpt lat="63.855098724" lon="-21.932579041">
<ele>46.220703</ele>
<time>2012-07-28T14:56:11Z</time>
<speed>3.420000</speed>
<extensions>
<speed>3.4</speed>
<temp>0.00</temp>
<bpm>0</bpm>
<rpm>0.00</rpm>
</extensions>
</trkpt>
<trkpt lat="63.855022430" lon="-21.932872772">
<ele>46.667969</ele>
<time>2012-07-28T14:56:16Z</time>
<speed>3.280000</speed>
<extensions>
<speed>3.3</speed>
<temp>0.00</temp>
<bpm>0</bpm>
<rpm>0.00</rpm>
</extensions>
</trkpt>
<trkpt lat="63.854953766" lon="-21.933189392">
<ele>45.372070</ele>
<time>2012-07-28T14:56:21Z</time>
<speed>3.160000</speed>
<extensions>
<speed>3.2</speed>
<temp>0.00</temp>
<bpm>0</bpm>
<rpm>0.00</rpm>
</extensions>
</trkpt>
<trkpt lat="63.854892731" lon="-21.933383942">
<ele>46.779297</ele>
<time>2012-07-28T14:56:26Z</time>
<speed>1.790000</speed>
<extensions>
<speed>1.8</speed>
<temp>0.00</temp>
<bpm>0</bpm>
<rpm>0.00</rpm>
</extensions>
</trkpt>
<trkpt lat="63.854858398" lon="-21.933568954">
<ele>46.284180</ele>
<time>2012-07-28T14:56:31Z</time>
<speed>2.460000</speed>
<extensions>
<speed>2.5</speed>
<temp>0.00</temp>
<bpm>0</bpm>
<rpm>0.00</rpm>
</extensions>
</trkpt>
<trkpt lat="63.854808807" lon="-21.933811188">
<ele>46.806641</ele>
<time>2012-07-28T14:56:36Z</time>
<speed>2.830000</speed>
<extensions>
<speed>2.8</speed>
<temp>0.00</temp>
<bpm>0</bpm>
<rpm>0.00</rpm>
</extensions>
</trkpt>
<trkpt lat="63.854747772" lon="-21.934072495">
<ele>47.249023</ele>
<time>2012-07-28T14:56:41Z</time>
<speed>2.940000</speed>
<extensions>
<speed>2.9</speed>
<temp>0.00</temp>
<bpm>0</bpm>
<rpm>0.00</rpm>
</extensions>
</trkpt>
<trkpt lat="63.854690552" lon="-21.934339523">
<ele>47.764648</ele>
<time>2012-07-28T14:56:46Z</time>
<speed>2.810000</speed>
<extensions>
<speed>2.8</speed>
<temp>0.00</temp>
<bpm>0</bpm>
<rpm>0.00</rpm>
</extensions>
</trkpt>
<trkpt lat="63.854637146" lon="-21.934597015">
<ele>48.601563</ele>
<time>2012-07-28T14:56:51Z</time>
<speed>2.840000</speed>
<extensions>
<speed>2.8</speed>
<temp>0.00</temp>
<bpm>0</bpm>
<rpm>0.00</rpm>
</extensions>
</trkpt>
<trkpt lat="63.854579926" lon="-21.934869766">
<ele>49.119141</ele>
<time>2012-07-28T14:56:56Z</time>
<speed>3.020000</speed>
<extensions>
<speed>3.0</speed>
<temp>0.00</temp>
<bpm>0</bpm>
<rpm>0.00</rpm>
</extensions>
</trkpt>
<trkpt lat="63.854522705" lon="-21.935136795">
<ele>49.734375</ele>
<time>2012-07-28T14:57:01Z</time>
<speed>3.020000</speed>
<extensions>
<speed>3.0</speed>
<temp>0.00</temp>
<bpm>0</bpm>
<rpm>0.00</rpm>
</extensions>
</trkpt>
<trkpt lat="63.854476929" lon="-21.935405731">
<ele>50.421875</ele>
<time>2012-07-28T14:57:06Z</time>
<speed>2.900000</speed>
<extensions>
<speed>2.9</speed>
<temp>0.00</temp>
<bpm>0</bpm>
<rpm>0.00</rpm>
</extensions>
</trkpt>
<trkpt lat="63.854423523" lon="-21.935678482">
<ele>51.246094</ele>
<time>2012-07-28T14:57:11Z</time>
<speed>3.110000</speed>
<extensions>
<speed>3.1</speed>
<temp>0.00</temp>
<bpm>0</bpm>
<rpm>0.00</rpm>
</extensions>
</trkpt>
<trkpt lat="63.854373932" lon="-21.935976028">
<ele>51.929688</ele>
<time>2012-07-28T14:57:16Z</time>
<speed>2.870000</speed>
<extensions>
<speed>2.9</speed>
<temp>0.00</temp>
<bpm>0</bpm>
<rpm>0.00</rpm>
</extensions>
</trkpt>
<trkpt lat="63.854324341" lon="-21.936285019">
<ele>52.060547</ele>
<time>2012-07-28T14:57:21Z</time>
<speed>3.260000</speed>
<extensions>
<speed>3.3</speed>
<temp>0.00</temp>
<bpm>0</bpm>
<rpm>0.00</rpm>
</extensions>
</trkpt>
<trkpt lat="63.854274750" lon="-21.936611176">
<ele>52.486328</ele>
<time>2012-07-28T14:57:26Z</time>
<speed>3.360000</speed>
<extensions>
<speed>3.4</speed>
<temp>0.00</temp>
<bpm>0</bpm>
<rpm>0.00</rpm>
</extensions>
</trkpt>
<trkpt lat="63.854225159" lon="-21.936925888">
<ele>52.690430</ele>
<time>2012-07-28T14:57:31Z</time>
<speed>3.270000</speed>
<extensions>
<speed>3.3</speed>
<temp>0.00</temp>
<bpm>0</bpm>
<rpm>0.00</rpm>
</extensions>
</trkpt>
<trkpt lat="63.854194641" lon="-21.937149048">
<ele>52.783203</ele>
<time>2012-07-28T14:57:36Z</time>
<speed>1.360000</speed>
<extensions>
<speed>1.4</speed>
<temp>0.00</temp>
<bpm>0</bpm>
<rpm>0.00</rpm>
</extensions>
</trkpt>
<trkpt lat="63.854160309" lon="-21.937294006">
<ele>52.966797</ele>
<time>2012-07-28T14:57:41Z</time>
<speed>2.530000</speed>
<extensions>
<speed>2.5</speed>
<temp>0.00</temp>
<bpm>0</bpm>
<rpm>0.00</rpm>
</extensions>
</trkpt>
<trkpt lat="63.854118347" lon="-21.937576294">
<ele>53.457031</ele>
<time>2012-07-28T14:57:46Z</time>
<speed>3.230000</speed>
<extensions>
<speed>3.2</speed>
<temp>0.00</temp>
<bpm>0</bpm>
<rpm>0.00</rpm>
</extensions>
</trkpt>
<trkpt lat="63.854068756" lon="-21.937883377">
<ele>54.152344</ele>
<time>2012-07-28T14:57:51Z</time>
<speed>3.250000</speed>
<extensions>
<speed>3.2</speed>
<temp>0.00</temp>
<bpm>0</bpm>
<rpm>0.00</rpm>
</extensions>
</trkpt>
<trkpt lat="63.854030609" lon="-21.938201904">
<ele>54.730469</ele>
<time>2012-07-28T14:57:56Z</time>
<speed>3.250000</speed>
<extensions>
<speed>3.2</speed>
<temp>0.00</temp>
<bpm>0</bpm>
<rpm>0.00</rpm>
</extensions>
</trkpt>
<trkpt lat="63.853988647" lon="-21.938507080">
<ele>55.326172</ele>
<time>2012-07-28T14:58:01Z</time>
<speed>2.690000</speed>
<extensions>
<speed>2.7</speed>
<temp>0.00</temp>
<bpm>0</bpm>
<rpm>0.00</rpm>
</extensions>
</trkpt>
<trkpt lat="63.853954315" lon="-21.938722610">
<ele>55.695313</ele>
<time>2012-07-28T14:58:06Z</time>
<speed>2.650000</speed>
<extensions>
<speed>2.6</speed>
<temp>0.00</temp>
<bpm>0</bpm>
<rpm>0.00</rpm>
</extensions>
</trkpt>
<trkpt lat="63.853919983" lon="-21.939004898">
<ele>56.408203</ele>
<time>2012-07-28T14:58:11Z</time>
<speed>2.960000</speed>
<extensions>
<speed>3.0</speed>
<temp>0.00</temp>
<bpm>0</bpm>
<rpm>0.00</rpm>
</extensions>
</trkpt>
<trkpt lat="63.853885651" lon="-21.939298630">
<ele>57.050781</ele>
<time>2012-07-28T14:58:16Z</time>
<speed>3.170000</speed>
<extensions>
<speed>3.2</speed>
<temp>0.00</temp>
<bpm>0</bpm>
<rpm>0.00</rpm>
</extensions>
</trkpt>
<trkpt lat="63.853851318" lon="-21.939617157">
<ele>57.618164</ele>
<time>2012-07-28T14:58:21Z</time>
<speed>3.260000</speed>
<extensions>
<speed>3.3</speed>
<temp>0.00</temp>
<bpm>0</bpm>
<rpm>0.00</rpm>
</extensions>
</trkpt>
<trkpt lat="63.853813171" lon="-21.939939499">
<ele>58.278320</ele>
<time>2012-07-28T14:58:26Z</time>
<speed>3.340000</speed>
<extensions>
<speed>3.3</speed>
<temp>0.00</temp>
<bpm>0</bpm>
<rpm>0.00</rpm>
</extensions>
</trkpt>
<trkpt lat="63.853775024" lon="-21.940271378">
<ele>59.161133</ele>
<time>2012-07-28T14:58:31Z</time>
<speed>3.380000</speed>
<extensions>
<speed>3.4</speed>
<temp>0.00</temp>
<bpm>0</bpm>
<rpm>0.00</rpm>
</extensions>
</trkpt>
<trkpt lat="63.853740692" lon="-21.940597534">
<ele>59.755859</ele>
<time>2012-07-28T14:58:36Z</time>
<speed>3.280000</speed>
<extensions>
<speed>3.3</speed>
<temp>0.00</temp>
<bpm>0</bpm>
<rpm>0.00</rpm>
</extensions>
</trkpt>
<trkpt lat="63.853713989" lon="-21.940870285">
<ele>60.594727</ele>
<time>2012-07-28T14:58:41Z</time>
<speed>2.710000</speed>
<extensions>
<speed>2.7</speed>
<temp>0.00</temp>
<bpm>0</bpm>
<rpm>0.00</rpm>
</extensions>
</trkpt>
<trkpt lat="63.853687286" lon="-21.941135406">
<ele>61.172852</ele>
<time>2012-07-28T14:58:46Z</time>
<speed>2.280000</speed>
<extensions>
<speed>2.3</speed>
<temp>0.00</temp>
<bpm>0</bpm>
<rpm>0.00</rpm>
</extensions>
</trkpt>
<trkpt lat="63.853668213" lon="-21.941350937">
<ele>61.692383</ele>
<time>2012-07-28T14:58:51Z</time>
<speed>2.280000</speed>
<extensions>
<speed>2.3</speed>
<temp>0.00</temp>
<bpm>0</bpm>
<rpm>0.00</rpm>
</extensions>
</trkpt>
<trkpt lat="63.853652954" lon="-21.941574097">
<ele>62.288086</ele>
<time>2012-07-28T14:58:56Z</time>
<speed>2.140000</speed>
<extensions>
<speed>2.1</speed>
<temp>0.00</temp>
<bpm>0</bpm>
<rpm>0.00</rpm>
</extensions>
</trkpt>
<trkpt lat="63.853633881" lon="-21.941791534">
<ele>62.769531</ele>
<time>2012-07-28T14:59:01Z</time>
<speed>2.240000</speed>
<extensions>
<speed>2.2</speed>
<temp>0.00</temp>
<bpm>0</bpm>
<rpm>0.00</rpm>
</extensions>
</trkpt>
<trkpt lat="63.853618622" lon="-21.942028046">
<ele>63.264648</ele>
<time>2012-07-28T14:59:06Z</time>
<speed>2.210000</speed>
<extensions>
<speed>2.2</speed>
<temp>0.00</temp>
<bpm>0</bpm>
<rpm>0.00</rpm>
</extensions>
</trkpt>
<trkpt lat="63.853603363" lon="-21.942239761">
<ele>63.842773</ele>
<time>2012-07-28T14:59:11Z</time>
<speed>2.190000</speed>
<extensions>
<speed>2.2</speed>
<temp>0.00</temp>
<bpm>0</bpm>
<rpm>0.00</rpm>
</extensions>
</trkpt>
<trkpt lat="63.853584290" lon="-21.942476273">
<ele>64.402344</ele>
<time>2012-07-28T14:59:16Z</time>
<speed>2.350000</speed>
<extensions>
<speed>2.4</speed>
<temp>0.00</temp>
<bpm>0</bpm>
<rpm>0.00</rpm>
</extensions>
</trkpt>
<trkpt lat="63.853569031" lon="-21.942707062">
<ele>65.187500</ele>
<time>2012-07-28T14:59:21Z</time>
<speed>2.100000</speed>
<extensions>
<speed>2.1</speed>
<temp>0.00</temp>
<bpm>0</bpm>
<rpm>0.00</rpm>
</extensions>
</trkpt>
<trkpt lat="63.853553772" lon="-21.942909241">
<ele>65.574219</ele>
<time>2012-07-28T14:59:26Z</time>
<speed>2.020000</speed>
<extensions>
<speed>2.0</speed>
<temp>0.00</temp>
<bpm>0</bpm>
<rpm>0.00</rpm>
</extensions>
</trkpt>
<trkpt lat="63.853542328" lon="-21.943092346">
<ele>66.173828</ele>
<time>2012-07-28T14:59:31Z</time>
<speed>1.870000</speed>
<extensions>
<speed>1.9</speed>
<temp>0.00</temp>
<bpm>0</bpm>
<rpm>0.00</rpm>
</extensions>
</trkpt>
<trkpt lat="63.853527069" lon="-21.943292618">
<ele>66.644531</ele>
<time>2012-07-28T14:59:36Z</time>
<speed>1.970000</speed>
<extensions>
<speed>2.0</speed>
<temp>0.00</temp>
<bpm>0</bpm>
<rpm>0.00</rpm>
</extensions>
</trkpt>
<trkpt lat="63.853519440" lon="-21.943502426">
<ele>67.080078</ele>
<time>2012-07-28T14:59:41Z</time>
<speed>2.070000</speed>
<extensions>
<speed>2.1</speed>
<temp>0.00</temp>
<bpm>0</bpm>
<rpm>0.00</rpm>
</extensions>
</trkpt>
<trkpt lat="63.853507996" lon="-21.943710327">
<ele>67.095703</ele>
<time>2012-07-28T14:59:46Z</time>
<speed>2.150000</speed>
<extensions>
<speed>2.1</speed>
<temp>0.00</temp>
<bpm>0</bpm>
<rpm>0.00</rpm>
</extensions>
</trkpt>
<trkpt lat="63.853492737" lon="-21.943933487">
<ele>67.433594</ele>
<time>2012-07-28T14:59:51Z</time>
<speed>2.140000</speed>
<extensions>
<speed>2.1</speed>
<temp>0.00</temp>
<bpm>0</bpm>
<rpm>0.00</rpm>
</extensions>
</trkpt>
<trkpt lat="63.853485107" lon="-21.944150925">
<ele>67.878906</ele>
<time>2012-07-28T14:59:56Z</time>
<speed>2.060000</speed>
<extensions>
<speed>2.1</speed>
<temp>0.00</temp>
<bpm>0</bpm>
<rpm>0.00</rpm>
</extensions>
</trkpt>
<trkpt lat="63.853469849" lon="-21.944364548">
<ele>68.376953</ele>
<time>2012-07-28T15:00:01Z</time>
<speed>2.280000</speed>
<extensions>
<speed>2.3</speed>
<temp>0.00</temp>
<bpm>0</bpm>
<rpm>0.00</rpm>
</extensions>
</trkpt>
<trkpt lat="63.853462219" lon="-21.944576263">
<ele>69.035156</ele>
<time>2012-07-28T15:00:06Z</time>
<speed>2.150000</speed>
<extensions>
<speed>2.1</speed>
<temp>0.00</temp>
<bpm>0</bpm>
<rpm>0.00</rpm>
</extensions>
</trkpt>
<trkpt lat="63.853450775" lon="-21.944795609">
<ele>69.498047</ele>
<time>2012-07-28T15:00:11Z</time>
<speed>2.210000</speed>
<extensions>
<speed>2.2</speed>
<temp>0.00</temp>
<bpm>0</bpm>
<rpm>0.00</rpm>
</extensions>
</trkpt>
<trkpt lat="63.853435516" lon="-21.945024490">
<ele>70.201172</ele>
<time>2012-07-28T15:00:16Z</time>
<speed>2.230000</speed>
<extensions>
<speed>2.2</speed>
<temp>0.00</temp>
<bpm>0</bpm>
<rpm>0.00</rpm>
</extensions>
</trkpt>
<trkpt lat="63.853424072" lon="-21.945243835">
<ele>70.646484</ele>
<time>2012-07-28T15:00:21Z</time>
<speed>2.090000</speed>
<extensions>
<speed>2.1</speed>
<temp>0.00</temp>
<bpm>0</bpm>
<rpm>0.00</rpm>
</extensions>
</trkpt>
<trkpt lat="63.853416443" lon="-21.945451736">
<ele>71.335938</ele>
<time>2012-07-28T15:00:26Z</time>
<speed>1.990000</speed>
<extensions>
<speed>2.0</speed>
<temp>0.00</temp>
<bpm>0</bpm>
<rpm>0.00</rpm>
</extensions>
</trkpt>
<trkpt lat="63.853404999" lon="-21.945674896">
<ele>71.593750</ele>
<time>2012-07-28T15:00:31Z</time>
<speed>2.190000</speed>
<extensions>
<speed>2.2</speed>
<temp>0.00</temp>
<bpm>0</bpm>
<rpm>0.00</rpm>
</extensions>
</trkpt>
<trkpt lat="63.853397369" lon="-21.945886612">
<ele>72.261719</ele>
<time>2012-07-28T15:00:36Z</time>
<speed>2.230000</speed>
<extensions>
<speed>2.2</speed>
<temp>0.00</temp>
<bpm>0</bpm>
<rpm>0.00</rpm>
</extensions>
</trkpt>
<trkpt lat="63.853393555" lon="-21.946098328">
<ele>72.839844</ele>
<time>2012-07-28T15:00:41Z</time>
<speed>2.140000</speed>
<extensions>
<speed>2.1</speed>
<temp>0.00</temp>
<bpm>0</bpm>
<rpm>0.00</rpm>
</extensions>
</trkpt>
<trkpt lat="63.853389740" lon="-21.946311951">
<ele>73.228516</ele>
<time>2012-07-28T15:00:46Z</time>
<speed>2.180000</speed>
<extensions>
<speed>2.2</speed>
<temp>0.00</temp>
<bpm>0</bpm>
<rpm>0.00</rpm>
</extensions>
</trkpt>
<trkpt lat="63.853389740" lon="-21.946546555">
<ele>73.716797</ele>
<time>2012-07-28T15:00:51Z</time>
<speed>2.370000</speed>
<extensions>
<speed>2.4</speed>
<temp>0.00</temp>
<bpm>0</bpm>
<rpm>0.00</rpm>
</extensions>
</trkpt>
<trkpt lat="63.853385925" lon="-21.946798325">
<ele>74.240234</ele>
<time>2012-07-28T15:00:56Z</time>
<speed>2.230000</speed>
<extensions>
<speed>2.2</speed>
<temp>0.00</temp>
<bpm>0</bpm>
<rpm>0.00</rpm>
</extensions>
</trkpt>
<trkpt lat="63.853385925" lon="-21.947029114">
<ele>74.531250</ele>
<time>2012-07-28T15:01:01Z</time>
<speed>2.340000</speed>
<extensions>
<speed>2.3</speed>
<temp>0.00</temp>
<bpm>0</bpm>
<rpm>0.00</rpm>
</extensions>
</trkpt>
<trkpt lat="63.853378296" lon="-21.947238922">
<ele>74.562500</ele>
<time>2012-07-28T15:01:06Z</time>
<speed>2.110000</speed>
<extensions>
<speed>2.1</speed>
<temp>0.00</temp>
<bpm>0</bpm>
<rpm>0.00</rpm>
</extensions>
</trkpt>
<trkpt lat="63.853378296" lon="-21.947458267">
<ele>74.697266</ele>
<time>2012-07-28T15:01:11Z</time>
<speed>2.130000</speed>
<extensions>
<speed>2.1</speed>
<temp>0.00</temp>
<bpm>0</bpm>
<rpm>0.00</rpm>
</extensions>
</trkpt>
<trkpt lat="63.853378296" lon="-21.947673798">
<ele>74.908203</ele>
<time>2012-07-28T15:01:16Z</time>
<speed>2.010000</speed>
<extensions>
<speed>2.0</speed>
<temp>0.00</temp>
<bpm>0</bpm>
<rpm>0.00</rpm>
</extensions>
</trkpt>
<trkpt lat="63.853374481" lon="-21.947883606">
<ele>74.699219</ele>
<time>2012-07-28T15:01:21Z</time>
<speed>2.110000</speed>
<extensions>
<speed>2.1</speed>
<temp>0.00</temp>
<bpm>0</bpm>
<rpm>0.00</rpm>
</extensions>
</trkpt>
<trkpt lat="63.853366852" lon="-21.948127747">
<ele>74.417969</ele>
<time>2012-07-28T15:01:26Z</time>
<speed>2.510000</speed>
<extensions>
<speed>2.5</speed>
<temp>0.00</temp>
<bpm>0</bpm>
<rpm>0.00</rpm>
</extensions>
</trkpt>
<trkpt lat="63.853366852" lon="-21.948368073">
<ele>74.529297</ele>
<time>2012-07-28T15:01:31Z</time>
<speed>2.150000</speed>
<extensions>
<speed>2.1</speed>
<temp>0.00</temp>
<bpm>0</bpm>
<rpm>0.00</rpm>
</extensions>
</trkpt>
<trkpt lat="63.853370667" lon="-21.948600769">
<ele>74.449219</ele>
<time>2012-07-28T15:01:36Z</time>
<speed>2.030000</speed>
<extensions>
<speed>2.0</speed>
<temp>0.00</temp>
<bpm>0</bpm>
<rpm>0.00</rpm>
</extensions>
</trkpt>
<trkpt lat="63.853366852" lon="-21.948837280">
<ele>75.275391</ele>
<time>2012-07-28T15:01:41Z</time>
<speed>2.350000</speed>
<extensions>
<speed>2.4</speed>
<temp>0.00</temp>
<bpm>0</bpm>
<rpm>0.00</rpm>
</extensions>
</trkpt>
<trkpt lat="63.853363037" lon="-21.949010849">
<ele>75.753906</ele>
<time>2012-07-28T15:01:46Z</time>
<speed>1.020000</speed>
<extensions>
<speed>1.0</speed>
<temp>0.00</temp>
<bpm>0</bpm>
<rpm>0.00</rpm>
</extensions>
</trkpt>
<trkpt lat="63.853355408" lon="-21.949176788">
<ele>75.296875</ele>
<time>2012-07-28T15:01:51Z</time>
<speed>2.430000</speed>
<extensions>
<speed>2.4</speed>
<temp>0.00</temp>
<bpm>0</bpm>
<rpm>0.00</rpm>
</extensions>
</trkpt>
<trkpt lat="63.853351593" lon="-21.949449539">
<ele>75.623047</ele>
<time>2012-07-28T15:01:56Z</time>
<speed>2.920000</speed>
<extensions>
<speed>2.9</speed>
<temp>0.00</temp>
<bpm>0</bpm>
<rpm>0.00</rpm>
</extensions>
</trkpt>
<trkpt lat="63.853351593" lon="-21.949731827">
<ele>76.177734</ele>
<time>2012-07-28T15:02:01Z</time>
<speed>2.650000</speed>
<extensions>
<speed>2.6</speed>
<temp>0.00</temp>
<bpm>0</bpm>
<rpm>0.00</rpm>
</extensions>
</trkpt>
<trkpt lat="63.853347778" lon="-21.950008392">
<ele>76.832031</ele>
<time>2012-07-28T15:02:06Z</time>
<speed>2.230000</speed>
<extensions>
<speed>2.2</speed>
<temp>0.00</temp>
<bpm>0</bpm>
<rpm>0.00</rpm>
</extensions>
</trkpt>
<trkpt lat="63.853355408" lon="-21.950248718">
<ele>77.666016</ele>
<time>2012-07-28T15:02:11Z</time>
<speed>2.710000</speed>
<extensions>
<speed>2.7</speed>
<temp>0.00</temp>
<bpm>0</bpm>
<rpm>0.00</rpm>
</extensions>
</trkpt>
<trkpt lat="63.853351593" lon="-21.950471878">
<ele>79.257813</ele>
<time>2012-07-28T15:02:16Z</time>
<speed>2.630000</speed>
<extensions>
<speed>2.6</speed>
<temp>0.00</temp>
<bpm>0</bpm>
<rpm>0.00</rpm>
</extensions>
</trkpt>
<trkpt lat="63.853332520" lon="-21.950757980">
<ele>78.171875</ele>
<time>2012-07-28T15:02:21Z</time>
<speed>2.870000</speed>
<extensions>
<speed>2.9</speed>
<temp>0.00</temp>
<bpm>0</bpm>
<rpm>0.00</rpm>
</extensions>
</trkpt>
<trkpt lat="63.853332520" lon="-21.951025009">
<ele>77.494141</ele>
<time>2012-07-28T15:02:26Z</time>
<speed>2.400000</speed>
<extensions>
<speed>2.4</speed>
<temp>0.00</temp>
<bpm>0</bpm>
<rpm>0.00</rpm>
</extensions>
</trkpt>
<trkpt lat="63.853324890" lon="-21.951267242">
<ele>76.253906</ele>
<time>2012-07-28T15:02:31Z</time>
<speed>2.520000</speed>
<extensions>
<speed>2.5</speed>
<temp>0.00</temp>
<bpm>0</bpm>
<rpm>0.00</rpm>
</extensions>
</trkpt>
<trkpt lat="63.853313446" lon="-21.951488495">
<ele>76.955078</ele>
<time>2012-07-28T15:02:36Z</time>
<speed>2.490000</speed>
<extensions>
<speed>2.5</speed>
<temp>0.00</temp>
<bpm>0</bpm>
<rpm>0.00</rpm>
</extensions>
</trkpt>
<trkpt lat="63.853305817" lon="-21.951753616">
<ele>79.019531</ele>
<time>2012-07-28T15:02:41Z</time>
<speed>2.140000</speed>
<extensions>
<speed>2.1</speed>
<temp>0.00</temp>
<bpm>0</bpm>
<rpm>0.00</rpm>
</extensions>
</trkpt>
<trkpt lat="63.853298187" lon="-21.951959610">
<ele>79.134766</ele>
<time>2012-07-28T15:02:46Z</time>
<speed>2.160000</speed>
<extensions>
<speed>2.2</speed>
<temp>0.00</temp>
<bpm>0</bpm>
<rpm>0.00</rpm>
</extensions>
</trkpt>
<trkpt lat="63.853290558" lon="-21.952148438">
<ele>79.853516</ele>
<time>2012-07-28T15:02:51Z</time>
<speed>2.170000</speed>
<extensions>
<speed>2.2</speed>
<temp>0.00</temp>
<bpm>0</bpm>
<rpm>0.00</rpm>
</extensions>
</trkpt>
<trkpt lat="63.853279114" lon="-21.952409744">
<ele>80.939453</ele>
<time>2012-07-28T15:02:56Z</time>
<speed>2.720000</speed>
<extensions>
<speed>2.7</speed>
<temp>0.00</temp>
<bpm>0</bpm>
<rpm>0.00</rpm>
</extensions>
</trkpt>
<trkpt lat="63.853275299" lon="-21.952642441">
<ele>83.257813</ele>
<time>2012-07-28T15:03:01Z</time>
<speed>2.620000</speed>
<extensions>
<speed>2.6</speed>
<temp>0.00</temp>
<bpm>0</bpm>
<rpm>0.00</rpm>
</extensions>
</trkpt>
<trkpt lat="63.853267670" lon="-21.952901840">
<ele>84.216797</ele>
<time>2012-07-28T15:03:06Z</time>
<speed>2.510000</speed>
<extensions>
<speed>2.5</speed>
<temp>0.00</temp>
<bpm>0</bpm>
<rpm>0.00</rpm>
</extensions>
</trkpt>
<trkpt lat="63.853256226" lon="-21.953207016">
<ele>83.201172</ele>
<time>2012-07-28T15:03:11Z</time>
<speed>3.380000</speed>
<extensions>
<speed>3.4</speed>
<temp>0.00</temp>
<bpm>0</bpm>
<rpm>0.00</rpm>
</extensions>
</trkpt>
<trkpt lat="63.853244781" lon="-21.953466415">
<ele>82.957031</ele>
<time>2012-07-28T15:03:16Z</time>
<speed>1.890000</speed>
<extensions>
<speed>1.9</speed>
<temp>0.00</temp>
<bpm>0</bpm>
<rpm>0.00</rpm>
</extensions>
</trkpt>
<trkpt lat="63.853237152" lon="-21.953546524">
<ele>83.166016</ele>
<time>2012-07-28T15:03:21Z</time>
<speed>0.010000</speed>
<extensions>
<speed>0.0</speed>
<temp>0.00</temp>
<bpm>0</bpm>
<rpm>0.00</rpm>
</extensions>
</trkpt>
<trkpt lat="63.853237152" lon="-21.953544617">
<ele>83.074219</ele>
<time>2012-07-28T15:03:26Z</time>
<extensions>
<speed>0.0</speed>
<temp>0.00</temp>
<bpm>0</bpm>
<rpm>0.00</rpm>
</extensions>
</trkpt>
<trkpt lat="63.853237152" lon="-21.953542709">
<ele>83.054688</ele>
<time>2012-07-28T15:03:31Z</time>
<extensions>
<speed>0.0</speed>
<temp>0.00</temp>
<bpm>0</bpm>
<rpm>0.00</rpm>
</extensions>
</trkpt>
<trkpt lat="63.853237152" lon="-21.953542709">
<ele>83.023438</ele>
<time>2012-07-28T15:03:36Z</time>
<extensions>
<speed>0.0</speed>
<temp>0.00</temp>
<bpm>0</bpm>
<rpm>0.00</rpm>
</extensions>
</trkpt>
<trkpt lat="63.853237152" lon="-21.953542709">
<ele>83.003906</ele>
<time>2012-07-28T15:03:41Z</time>
<extensions>
<speed>0.0</speed>
<temp>0.00</temp>
<bpm>0</bpm>
<rpm>0.00</rpm>
</extensions>
</trkpt>
<trkpt lat="63.853237152" lon="-21.953542709">
<ele>82.955078</ele>
<time>2012-07-28T15:03:46Z</time>
<speed>0.010000</speed>
<extensions>
<speed>0.0</speed>
<temp>0.00</temp>
<bpm>0</bpm>
<rpm>0.00</rpm>
</extensions>
</trkpt>
<trkpt lat="63.853237152" lon="-21.953542709">
<ele>82.917969</ele>
<time>2012-07-28T15:03:51Z</time>
<speed>0.010000</speed>
<extensions>
<speed>0.0</speed>
<temp>0.00</temp>
<bpm>0</bpm>
<rpm>0.00</rpm>
</extensions>
</trkpt>
<trkpt lat="63.853237152" lon="-21.953540802">
<ele>82.906250</ele>
<time>2012-07-28T15:03:56Z</time>
<speed>0.010000</speed>
<extensions>
<speed>0.0</speed>
<temp>0.00</temp>
<bpm>0</bpm>
<rpm>0.00</rpm>
</extensions>
</trkpt>
<trkpt lat="63.853233337" lon="-21.953556061">
<ele>82.929688</ele>
<time>2012-07-28T15:04:01Z</time>
<speed>0.770000</speed>
<extensions>
<speed>0.8</speed>
<temp>0.00</temp>
<bpm>0</bpm>
<rpm>0.00</rpm>
</extensions>
</trkpt>
<trkpt lat="63.853218079" lon="-21.953754425">
<ele>83.515625</ele>
<time>2012-07-28T15:04:06Z</time>
<speed>2.660000</speed>
<extensions>
<speed>2.7</speed>
<temp>0.00</temp>
<bpm>0</bpm>
<rpm>0.00</rpm>
</extensions>
</trkpt>
<trkpt lat="63.853210449" lon="-21.954065323">
<ele>83.587891</ele>
<time>2012-07-28T15:04:11Z</time>
<speed>3.180000</speed>
<extensions>
<speed>3.2</speed>
<temp>0.00</temp>
<bpm>0</bpm>
<rpm>0.00</rpm>
</extensions>
</trkpt>
<trkpt lat="63.853202820" lon="-21.954338074">
<ele>83.919922</ele>
<time>2012-07-28T15:04:16Z</time>
<speed>1.610000</speed>
<extensions>
<speed>1.6</speed>
<temp>0.00</temp>
<bpm>0</bpm>
<rpm>0.00</rpm>
</extensions>
</trkpt>
<trkpt lat="63.853202820" lon="-21.954395294">
<ele>83.998047</ele>
<time>2012-07-28T15:04:21Z</time>
<speed>0.210000</speed>
<extensions>
<speed>0.2</speed>
<temp>0.00</temp>
<bpm>0</bpm>
<rpm>0.00</rpm>
</extensions>
</trkpt>
<trkpt lat="63.853206635" lon="-21.954383850">
<ele>83.937500</ele>
<time>2012-07-28T15:04:26Z</time>
<speed>0.010000</speed>
<extensions>
<speed>0.0</speed>
<temp>0.00</temp>
<bpm>0</bpm>
<rpm>0.00</rpm>
</extensions>
</trkpt>
<trkpt lat="63.853206635" lon="-21.954383850">
<ele>83.951172</ele>
<time>2012-07-28T15:04:31Z</time>
<speed>0.020000</speed>
<extensions>
<speed>0.0</speed>
<temp>0.00</temp>
<bpm>0</bpm>
<rpm>0.00</rpm>
</extensions>
</trkpt>
<trkpt lat="63.853206635" lon="-21.954381943">
<ele>83.976563</ele>
<time>2012-07-28T15:04:36Z</time>
<extensions>
<speed>0.0</speed>
<temp>0.00</temp>
<bpm>0</bpm>
<rpm>0.00</rpm>
</extensions>
</trkpt>
<trkpt lat="63.853206635" lon="-21.954381943">
<ele>83.953125</ele>
<time>2012-07-28T15:04:41Z</time>
<extensions>
<speed>0.0</speed>
<temp>0.00</temp>
<bpm>0</bpm>
<rpm>0.00</rpm>
</extensions>
</trkpt>
<trkpt lat="63.853206635" lon="-21.954381943">
<ele>83.929688</ele>
<time>2012-07-28T15:04:46Z</time>
<speed>0.010000</speed>
<extensions>
<speed>0.0</speed>
<temp>0.00</temp>
<bpm>0</bpm>
<rpm>0.00</rpm>
</extensions>
</trkpt>
<trkpt lat="63.853206635" lon="-21.954381943">
<ele>83.910156</ele>
<time>2012-07-28T15:04:51Z</time>
<extensions>
<speed>0.0</speed>
<temp>0.00</temp>
<bpm>0</bpm>
<rpm>0.00</rpm>
</extensions>
</trkpt>
<trkpt lat="63.853206635" lon="-21.954381943">
<ele>83.880859</ele>
<time>2012-07-28T15:04:56Z</time>
<speed>0.040000</speed>
<extensions>
<speed>0.0</speed>
<temp>0.00</temp>
<bpm>0</bpm>
<rpm>0.00</rpm>
</extensions>
</trkpt>
<trkpt lat="63.853199005" lon="-21.954444885">
<ele>83.644531</ele>
<time>2012-07-28T15:05:01Z</time>
<speed>2.060000</speed>
<extensions>
<speed>2.1</speed>
<temp>0.00</temp>
<bpm>0</bpm>
<rpm>0.00</rpm>
</extensions>
</trkpt>
<trkpt lat="63.853183746" lon="-21.954742432">
<ele>83.187500</ele>
<time>2012-07-28T15:05:06Z</time>
<speed>3.360000</speed>
<extensions>
<speed>3.4</speed>
<temp>0.00</temp>
<bpm>0</bpm>
<rpm>0.00</rpm>
</extensions>
</trkpt>
<trkpt lat="63.853164673" lon="-21.955120087">
<ele>83.125000</ele>
<time>2012-07-28T15:05:11Z</time>
<speed>3.870000</speed>
<extensions>
<speed>3.9</speed>
<temp>0.00</temp>
<bpm>0</bpm>
<rpm>0.00</rpm>
</extensions>
</trkpt>
<trkpt lat="63.853145599" lon="-21.955511093">
<ele>83.095703</ele>
<time>2012-07-28T15:05:16Z</time>
<speed>3.330000</speed>
<extensions>
<speed>3.3</speed>
<temp>0.00</temp>
<bpm>0</bpm>
<rpm>0.00</rpm>
</extensions>
</trkpt>
<trkpt lat="63.853118896" lon="-21.955900192">
<ele>83.253906</ele>
<time>2012-07-28T15:05:21Z</time>
<speed>3.790000</speed>
<extensions>
<speed>3.8</speed>
<temp>0.00</temp>
<bpm>0</bpm>
<rpm>0.00</rpm>
</extensions>
</trkpt>
<trkpt lat="63.853092194" lon="-21.956287384">
<ele>83.326172</ele>
<time>2012-07-28T15:05:26Z</time>
<speed>2.880000</speed>
<extensions>
<speed>2.9</speed>
<temp>0.00</temp>
<bpm>0</bpm>
<rpm>0.00</rpm>
</extensions>
</trkpt>
<trkpt lat="63.853069305" lon="-21.956623077">
<ele>83.068359</ele>
<time>2012-07-28T15:05:31Z</time>
<speed>4.340000</speed>
<extensions>
<speed>4.3</speed>
<temp>0.00</temp>
<bpm>0</bpm>
<rpm>0.00</rpm>
</extensions>
</trkpt>
<trkpt lat="63.853031158" lon="-21.957002640">
<ele>82.496094</ele>
<time>2012-07-28T15:05:36Z</time>
<speed>3.720000</speed>
<extensions>
<speed>3.7</speed>
<temp>0.00</temp>
<bpm>0</bpm>
<rpm>0.00</rpm>
</extensions>
</trkpt>
<trkpt lat="63.853008270" lon="-21.957315445">
<ele>82.376953</ele>
<time>2012-07-28T15:05:41Z</time>
<speed>2.790000</speed>
<extensions>
<speed>2.8</speed>
<temp>0.00</temp>
<bpm>0</bpm>
<rpm>0.00</rpm>
</extensions>
</trkpt>
<trkpt lat="63.852989197" lon="-21.957555771">
<ele>82.583984</ele>
<time>2012-07-28T15:05:46Z</time>
<speed>2.160000</speed>
<extensions>
<speed>2.2</speed>
<temp>0.00</temp>
<bpm>0</bpm>
<rpm>0.00</rpm>
</extensions>
</trkpt>
<trkpt lat="63.852966309" lon="-21.957799911">
<ele>82.189453</ele>
<time>2012-07-28T15:05:51Z</time>
<speed>2.900000</speed>
<extensions>
<speed>2.9</speed>
<temp>0.00</temp>
<bpm>0</bpm>
<rpm>0.00</rpm>
</extensions>
</trkpt>
<trkpt lat="63.852947235" lon="-21.958074570">
<ele>82.619141</ele>
<time>2012-07-28T15:05:56Z</time>
<speed>2.270000</speed>
<extensions>
<speed>2.3</speed>
<temp>0.00</temp>
<bpm>0</bpm>
<rpm>0.00</rpm>
</extensions>
</trkpt>
<trkpt lat="63.852920532" lon="-21.958255768">
<ele>82.087891</ele>
<time>2012-07-28T15:06:01Z</time>
<speed>2.220000</speed>
<extensions>
<speed>2.2</speed>
<temp>0.00</temp>
<bpm>0</bpm>
<rpm>0.00</rpm>
</extensions>
</trkpt>
<trkpt lat="63.852893829" lon="-21.958492279">
<ele>81.535156</ele>
<time>2012-07-28T15:06:06Z</time>
<speed>2.450000</speed>
<extensions>
<speed>2.4</speed>
<temp>0.00</temp>
<bpm>0</bpm>
<rpm>0.00</rpm>
</extensions>
</trkpt>
<trkpt lat="63.852878571" lon="-21.958782196">
<ele>81.587891</ele>
<time>2012-07-28T15:06:11Z</time>
<speed>3.040000</speed>
<extensions>
<speed>3.0</speed>
<temp>0.00</temp>
<bpm>0</bpm>
<rpm>0.00</rpm>
</extensions>
</trkpt>
<trkpt lat="63.852851868" lon="-21.959095001">
<ele>81.421875</ele>
<time>2012-07-28T15:06:16Z</time>
<speed>3.160000</speed>
<extensions>
<speed>3.2</speed>
<temp>0.00</temp>
<bpm>0</bpm>
<rpm>0.00</rpm>
</extensions>
</trkpt>
<trkpt lat="63.852817535" lon="-21.959417343">
<ele>81.492188</ele>
<time>2012-07-28T15:06:21Z</time>
<speed>2.880000</speed>
<extensions>
<speed>2.9</speed>
<temp>0.00</temp>
<bpm>0</bpm>
<rpm>0.00</rpm>
</extensions>
</trkpt>
<trkpt lat="63.852779388" lon="-21.959735870">
<ele>81.076172</ele>
<time>2012-07-28T15:06:26Z</time>
<speed>3.020000</speed>
<extensions>
<speed>3.0</speed>
<temp>0.00</temp>
<bpm>0</bpm>
<rpm>0.00</rpm>
</extensions>
</trkpt>
<trkpt lat="63.852756500" lon="-21.960023880">
<ele>81.607422</ele>
<time>2012-07-28T15:06:31Z</time>
<speed>2.920000</speed>
<extensions>
<speed>2.9</speed>
<temp>0.00</temp>
<bpm>0</bpm>
<rpm>0.00</rpm>
</extensions>
</trkpt>
<trkpt lat="63.852725983" lon="-21.960374832">
<ele>81.773438</ele>
<time>2012-07-28T15:06:36Z</time>
<speed>3.850000</speed>
<extensions>
<speed>3.8</speed>
<temp>0.00</temp>
<bpm>0</bpm>
<rpm>0.00</rpm>
</extensions>
</trkpt>
<trkpt lat="63.852687836" lon="-21.960710526">
<ele>81.384766</ele>
<time>2012-07-28T15:06:41Z</time>
<speed>3.280000</speed>
<extensions>
<speed>3.3</speed>
<temp>0.00</temp>
<bpm>0</bpm>
<rpm>0.00</rpm>
</extensions>
</trkpt>
<trkpt lat="63.852645874" lon="-21.961063385">
<ele>81.300781</ele>
<time>2012-07-28T15:06:46Z</time>
<speed>3.840000</speed>
<extensions>
<speed>3.8</speed>
<temp>0.00</temp>
<bpm>0</bpm>
<rpm>0.00</rpm>
</extensions>
</trkpt>
<trkpt lat="63.852607727" lon="-21.961372375">
<ele>80.861328</ele>
<time>2012-07-28T15:06:51Z</time>
<speed>2.560000</speed>
<extensions>
<speed>2.6</speed>
<temp>0.00</temp>
<bpm>0</bpm>
<rpm>0.00</rpm>
</extensions>
</trkpt>
<trkpt lat="63.852577209" lon="-21.961645126">
<ele>81.279297</ele>
<time>2012-07-28T15:06:56Z</time>
<speed>3.170000</speed>
<extensions>
<speed>3.2</speed>
<temp>0.00</temp>
<bpm>0</bpm>
<rpm>0.00</rpm>
</extensions>
</trkpt>
<trkpt lat="63.852535248" lon="-21.961980820">
<ele>80.919922</ele>
<time>2012-07-28T15:07:01Z</time>
<speed>3.030000</speed>
<extensions>
<speed>3.0</speed>
<temp>0.00</temp>
<bpm>0</bpm>
<rpm>0.00</rpm>
</extensions>
</trkpt>
<trkpt lat="63.852500916" lon="-21.962226868">
<ele>80.896484</ele>
<time>2012-07-28T15:07:06Z</time>
<speed>2.510000</speed>
<extensions>
<speed>2.5</speed>
<temp>0.00</temp>
<bpm>0</bpm>
<rpm>0.00</rpm>
</extensions>
</trkpt>
<trkpt lat="63.852458954" lon="-21.962516785">
<ele>80.609375</ele>
<time>2012-07-28T15:07:11Z</time>
<speed>3.300000</speed>
<extensions>
<speed>3.3</speed>
<temp>0.00</temp>
<bpm>0</bpm>
<rpm>0.00</rpm>
</extensions>
</trkpt>
<trkpt lat="63.852420807" lon="-21.962800980">
<ele>80.617188</ele>
<time>2012-07-28T15:07:16Z</time>
<speed>2.530000</speed>
<extensions>
<speed>2.5</speed>
<temp>0.00</temp>
<bpm>0</bpm>
<rpm>0.00</rpm>
</extensions>
</trkpt>
<trkpt lat="63.852386475" lon="-21.963079453">
<ele>79.939453</ele>
<time>2012-07-28T15:07:21Z</time>
<speed>3.290000</speed>
<extensions>
<speed>3.3</speed>
<temp>0.00</temp>
<bpm>0</bpm>
<rpm>0.00</rpm>
</extensions>
</trkpt>
<trkpt lat="63.852336884" lon="-21.963397980">
<ele>79.011719</ele>
<time>2012-07-28T15:07:26Z</time>
<speed>3.020000</speed>
<extensions>
<speed>3.0</speed>
<temp>0.00</temp>
<bpm>0</bpm>
<rpm>0.00</rpm>
</extensions>
</trkpt>
<trkpt lat="63.852306366" lon="-21.963691711">
<ele>79.513672</ele>
<time>2012-07-28T15:07:31Z</time>
<speed>3.120000</speed>
<extensions>
<speed>3.1</speed>
<temp>0.00</temp>
<bpm>0</bpm>
<rpm>0.00</rpm>
</extensions>
</trkpt>
<trkpt lat="63.852260590" lon="-21.964031219">
<ele>79.562500</ele>
<time>2012-07-28T15:07:36Z</time>
<speed>4.080000</speed>
<extensions>
<speed>4.1</speed>
<temp>0.00</temp>
<bpm>0</bpm>
<rpm>0.00</rpm>
</extensions>
</trkpt>
<trkpt lat="63.852207184" lon="-21.964374542">
<ele>79.646484</ele>
<time>2012-07-28T15:07:41Z</time>
<speed>3.320000</speed>
<extensions>
<speed>3.3</speed>
<temp>0.00</temp>
<bpm>0</bpm>
<rpm>0.00</rpm>
</extensions>
</trkpt>
<trkpt lat="63.852161407" lon="-21.964715958">
<ele>79.580078</ele>
<time>2012-07-28T15:07:46Z</time>
<speed>3.760000</speed>
<extensions>
<speed>3.8</speed>
<temp>0.00</temp>
<bpm>0</bpm>
<rpm>0.00</rpm>
</extensions>
</trkpt>
<trkpt lat="63.852104187" lon="-21.965097427">
<ele>80.251953</ele>
<time>2012-07-28T15:07:51Z</time>
<speed>3.750000</speed>
<extensions>
<speed>3.8</speed>
<temp>0.00</temp>
<bpm>0</bpm>
<rpm>0.00</rpm>
</extensions>
</trkpt>
<trkpt lat="63.852058411" lon="-21.965391159">
<ele>80.714844</ele>
<time>2012-07-28T15:07:56Z</time>
<speed>2.540000</speed>
<extensions>
<speed>2.5</speed>
<temp>0.00</temp>
<bpm>0</bpm>
<rpm>0.00</rpm>
</extensions>
</trkpt>
<trkpt lat="63.852020264" lon="-21.965698242">
<ele>81.222656</ele>
<time>2012-07-28T15:08:01Z</time>
<speed>3.630000</speed>
<extensions>
<speed>3.6</speed>
<temp>0.00</temp>
<bpm>0</bpm>
<rpm>0.00</rpm>
</extensions>
</trkpt>
<trkpt lat="63.851970673" lon="-21.966047287">
<ele>81.951172</ele>
<time>2012-07-28T15:08:06Z</time>
<speed>3.450000</speed>
<extensions>
<speed>3.5</speed>
<temp>0.00</temp>
<bpm>0</bpm>
<rpm>0.00</rpm>
</extensions>
</trkpt>
<trkpt lat="63.851928711" lon="-21.966320038">
<ele>82.255859</ele>
<time>2012-07-28T15:08:11Z</time>
<speed>3.000000</speed>
<extensions>
<speed>3.0</speed>
<temp>0.00</temp>
<bpm>0</bpm>
<rpm>0.00</rpm>
</extensions>
</trkpt>
<trkpt lat="63.851890564" lon="-21.966606140">
<ele>82.888672</ele>
<time>2012-07-28T15:08:16Z</time>
<speed>2.760000</speed>
<extensions>
<speed>2.8</speed>
<temp>0.00</temp>
<bpm>0</bpm>
<rpm>0.00</rpm>
</extensions>
</trkpt>
<trkpt lat="63.851852417" lon="-21.966888428">
<ele>83.419922</ele>
<time>2012-07-28T15:08:21Z</time>
<speed>2.970000</speed>
<extensions>
<speed>3.0</speed>
<temp>0.00</temp>
<bpm>0</bpm>
<rpm>0.00</rpm>
</extensions>
</trkpt>
<trkpt lat="63.851818085" lon="-21.967185974">
<ele>83.490234</ele>
<time>2012-07-28T15:08:26Z</time>
<speed>2.940000</speed>
<extensions>
<speed>2.9</speed>
<temp>0.00</temp>
<bpm>0</bpm>
<rpm>0.00</rpm>
</extensions>
</trkpt>
<trkpt lat="63.851779938" lon="-21.967487335">
<ele>84.109375</ele>
<time>2012-07-28T15:08:31Z</time>
<speed>3.400000</speed>
<extensions>
<speed>3.4</speed>
<temp>0.00</temp>
<bpm>0</bpm>
<rpm>0.00</rpm>
</extensions>
</trkpt>
<trkpt lat="63.851730347" lon="-21.967815399">
<ele>84.787109</ele>
<time>2012-07-28T15:08:36Z</time>
<speed>2.740000</speed>
<extensions>
<speed>2.7</speed>
<temp>0.00</temp>
<bpm>0</bpm>
<rpm>0.00</rpm>
</extensions>
</trkpt>
<trkpt lat="63.851703644" lon="-21.968063354">
<ele>85.351563</ele>
<time>2012-07-28T15:08:41Z</time>
<speed>2.970000</speed>
<extensions>
<speed>3.0</speed>
<temp>0.00</temp>
<bpm>0</bpm>
<rpm>0.00</rpm>
</extensions>
</trkpt>
<trkpt lat="63.851665497" lon="-21.968374252">
<ele>86.111328</ele>
<time>2012-07-28T15:08:46Z</time>
<speed>3.240000</speed>
<extensions>
<speed>3.2</speed>
<temp>0.00</temp>
<bpm>0</bpm>
<rpm>0.00</rpm>
</extensions>
</trkpt>
<trkpt lat="63.851631165" lon="-21.968692780">
<ele>87.181641</ele>
<time>2012-07-28T15:08:51Z</time>
<speed>2.640000</speed>
<extensions>
<speed>2.6</speed>
<temp>0.00</temp>
<bpm>0</bpm>
<rpm>0.00</rpm>
</extensions>
</trkpt>
<trkpt lat="63.851596832" lon="-21.968982697">
<ele>88.042969</ele>
<time>2012-07-28T15:08:56Z</time>
<speed>3.230000</speed>
<extensions>
<speed>3.2</speed>
<temp>0.00</temp>
<bpm>0</bpm>
<rpm>0.00</rpm>
</extensions>
</trkpt>
<trkpt lat="63.851562500" lon="-21.969303131">
<ele>88.808594</ele>
<time>2012-07-28T15:09:01Z</time>
<speed>3.270000</speed>
<extensions>
<speed>3.3</speed>
<temp>0.00</temp>
<bpm>0</bpm>
<rpm>0.00</rpm>
</extensions>
</trkpt>
<trkpt lat="63.851520538" lon="-21.969635010">
<ele>89.437500</ele>
<time>2012-07-28T15:09:06Z</time>
<speed>3.110000</speed>
<extensions>
<speed>3.1</speed>
<temp>0.00</temp>
<bpm>0</bpm>
<rpm>0.00</rpm>
</extensions>
</trkpt>
<trkpt lat="63.851482391" lon="-21.969957352">
<ele>89.908203</ele>
<time>2012-07-28T15:09:11Z</time>
<speed>3.370000</speed>
<extensions>
<speed>3.4</speed>
<temp>0.00</temp>
<bpm>0</bpm>
<rpm>0.00</rpm>
</extensions>
</trkpt>
<trkpt lat="63.851451874" lon="-21.970281601">
<ele>90.716797</ele>
<time>2012-07-28T15:09:16Z</time>
<speed>3.290000</speed>
<extensions>
<speed>3.3</speed>
<temp>0.00</temp>
<bpm>0</bpm>
<rpm>0.00</rpm>
</extensions>
</trkpt>
<trkpt lat="63.851413727" lon="-21.970588684">
<ele>91.494141</ele>
<time>2012-07-28T15:09:21Z</time>
<speed>2.390000</speed>
<extensions>
<speed>2.4</speed>
<temp>0.00</temp>
<bpm>0</bpm>
<rpm>0.00</rpm>
</extensions>
</trkpt>
<trkpt lat="63.851379395" lon="-21.970869064">
<ele>91.931641</ele>
<time>2012-07-28T15:09:26Z</time>
<speed>3.240000</speed>
<extensions>
<speed>3.2</speed>
<temp>0.00</temp>
<bpm>0</bpm>
<rpm>0.00</rpm>
</extensions>
</trkpt>
<trkpt lat="63.851345062" lon="-21.971189499">
<ele>92.498047</ele>
<time>2012-07-28T15:09:31Z</time>
<speed>3.310000</speed>
<extensions>
<speed>3.3</speed>
<temp>0.00</temp>
<bpm>0</bpm>
<rpm>0.00</rpm>
</extensions>
</trkpt>
<trkpt lat="63.851306915" lon="-21.971521378">
<ele>93.066406</ele>
<time>2012-07-28T15:09:36Z</time>
<speed>3.330000</speed>
<extensions>
<speed>3.3</speed>
<temp>0.00</temp>
<bpm>0</bpm>
<rpm>0.00</rpm>
</extensions>
</trkpt>
<trkpt lat="63.851268768" lon="-21.971847534">
<ele>93.398438</ele>
<time>2012-07-28T15:09:41Z</time>
<speed>2.780000</speed>
<extensions>
<speed>2.8</speed>
<temp>0.00</temp>
<bpm>0</bpm>
<rpm>0.00</rpm>
</extensions>
</trkpt>
<trkpt lat="63.851238251" lon="-21.972154617">
<ele>93.724609</ele>
<time>2012-07-28T15:09:46Z</time>
<speed>3.320000</speed>
<extensions>
<speed>3.3</speed>
<temp>0.00</temp>
<bpm>0</bpm>
<rpm>0.00</rpm>
</extensions>
</trkpt>
<trkpt lat="63.851203918" lon="-21.972486496">
<ele>94.318359</ele>
<time>2012-07-28T15:09:51Z</time>
<speed>3.590000</speed>
<extensions>
<speed>3.6</speed>
<temp>0.00</temp>
<bpm>0</bpm>
<rpm>0.00</rpm>
</extensions>
</trkpt>
<trkpt lat="63.851169586" lon="-21.972841263">
<ele>94.500000</ele>
<time>2012-07-28T15:09:56Z</time>
<speed>3.230000</speed>
<extensions>
<speed>3.2</speed>
<temp>0.00</temp>
<bpm>0</bpm>
<rpm>0.00</rpm>
</extensions>
</trkpt>
<trkpt lat="63.851135254" lon="-21.973173141">
<ele>95.291016</ele>
<time>2012-07-28T15:10:01Z</time>
<speed>2.810000</speed>
<extensions>
<speed>2.8</speed>
<temp>0.00</temp>
<bpm>0</bpm>
<rpm>0.00</rpm>
</extensions>
</trkpt>
<trkpt lat="63.851108551" lon="-21.973485947">
<ele>95.884766</ele>
<time>2012-07-28T15:10:06Z</time>
<speed>3.330000</speed>
<extensions>
<speed>3.3</speed>
<temp>0.00</temp>
<bpm>0</bpm>
<rpm>0.00</rpm>
</extensions>
</trkpt>
<trkpt lat="63.851089478" lon="-21.973688126">
<ele>96.134766</ele>
<time>2012-07-28T15:10:11Z</time>
<speed>1.470000</speed>
<extensions>
<speed>1.5</speed>
<temp>0.00</temp>
<bpm>0</bpm>
<rpm>0.00</rpm>
</extensions>
</trkpt>
<trkpt lat="63.851070404" lon="-21.973928452">
<ele>95.654297</ele>
<time>2012-07-28T15:10:16Z</time>
<speed>3.060000</speed>
<extensions>
<speed>3.1</speed>
<temp>0.00</temp>
<bpm>0</bpm>
<rpm>0.00</rpm>
</extensions>
</trkpt>
<trkpt lat="63.851032257" lon="-21.974258423">
<ele>96.234375</ele>
<time>2012-07-28T15:10:21Z</time>
<speed>3.660000</speed>
<extensions>
<speed>3.7</speed>
<temp>0.00</temp>
<bpm>0</bpm>
<rpm>0.00</rpm>
</extensions>
</trkpt>
<trkpt lat="63.851005554" lon="-21.974555969">
<ele>96.990234</ele>
<time>2012-07-28T15:10:26Z</time>
<speed>2.880000</speed>
<extensions>
<speed>2.9</speed>
<temp>0.00</temp>
<bpm>0</bpm>
<rpm>0.00</rpm>
</extensions>
</trkpt>
<trkpt lat="63.850978851" lon="-21.974870682">
<ele>97.919922</ele>
<time>2012-07-28T15:10:31Z</time>
<speed>3.170000</speed>
<extensions>
<speed>3.2</speed>
<temp>0.00</temp>
<bpm>0</bpm>
<rpm>0.00</rpm>
</extensions>
</trkpt>
<trkpt lat="63.850959778" lon="-21.975095749">
<ele>97.427734</ele>
<time>2012-07-28T15:10:36Z</time>
<speed>1.350000</speed>
<extensions>
<speed>1.4</speed>
<temp>0.00</temp>
<bpm>0</bpm>
<rpm>0.00</rpm>
</extensions>
</trkpt>
<trkpt lat="63.850940704" lon="-21.975320816">
<ele>98.150391</ele>
<time>2012-07-28T15:10:41Z</time>
<speed>3.020000</speed>
<extensions>
<speed>3.0</speed>
<temp>0.00</temp>
<bpm>0</bpm>
<rpm>0.00</rpm>
</extensions>
</trkpt>
<trkpt lat="63.850917816" lon="-21.975622177">
<ele>98.589844</ele>
<time>2012-07-28T15:10:46Z</time>
<speed>3.070000</speed>
<extensions>
<speed>3.1</speed>
<temp>0.00</temp>
<bpm>0</bpm>
<rpm>0.00</rpm>
</extensions>
</trkpt>
<trkpt lat="63.850894928" lon="-21.975944519">
<ele>98.589844</ele>
<time>2012-07-28T15:10:51Z</time>
<speed>3.370000</speed>
<extensions>
<speed>3.4</speed>
<temp>0.00</temp>
<bpm>0</bpm>
<rpm>0.00</rpm>
</extensions>
</trkpt>
<trkpt lat="63.850864410" lon="-21.976306915">
<ele>98.712891</ele>
<time>2012-07-28T15:10:56Z</time>
<speed>3.740000</speed>
<extensions>
<speed>3.7</speed>
<temp>0.00</temp>
<bpm>0</bpm>
<rpm>0.00</rpm>
</extensions>
</trkpt>
<trkpt lat="63.850837708" lon="-21.976696014">
<ele>99.416016</ele>
<time>2012-07-28T15:11:01Z</time>
<speed>3.900000</speed>
<extensions>
<speed>3.9</speed>
<temp>0.00</temp>
<bpm>0</bpm>
<rpm>0.00</rpm>
</extensions>
</trkpt>
<trkpt lat="63.850811005" lon="-21.977056503">
<ele>99.714844</ele>
<time>2012-07-28T15:11:06Z</time>
<speed>2.980000</speed>
<extensions>
<speed>3.0</speed>
<temp>0.00</temp>
<bpm>0</bpm>
<rpm>0.00</rpm>
</extensions>
</trkpt>
<trkpt lat="63.850791931" lon="-21.977285385">
<ele>99.935547</ele>
<time>2012-07-28T15:11:11Z</time>
<speed>2.550000</speed>
<extensions>
<speed>2.6</speed>
<temp>0.00</temp>
<bpm>0</bpm>
<rpm>0.00</rpm>
</extensions>
</trkpt>
<trkpt lat="63.850772858" lon="-21.977581024">
<ele>100.500000</ele>
<time>2012-07-28T15:11:16Z</time>
<speed>2.520000</speed>
<extensions>
<speed>2.5</speed>
<temp>0.00</temp>
<bpm>0</bpm>
<rpm>0.00</rpm>
</extensions>
</trkpt>
<trkpt lat="63.850757599" lon="-21.977817535">
<ele>100.542969</ele>
<time>2012-07-28T15:11:21Z</time>
<speed>2.720000</speed>
<extensions>
<speed>2.7</speed>
<temp>0.00</temp>
<bpm>0</bpm>
<rpm>0.00</rpm>
</extensions>
</trkpt>
<trkpt lat="63.850730896" lon="-21.978122711">
<ele>100.595703</ele>
<time>2012-07-28T15:11:26Z</time>
<speed>3.120000</speed>
<extensions>
<speed>3.1</speed>
<temp>0.00</temp>
<bpm>0</bpm>
<rpm>0.00</rpm>
</extensions>
</trkpt>
<trkpt lat="63.850704193" lon="-21.978441238">
<ele>101.207031</ele>
<time>2012-07-28T15:11:31Z</time>
<speed>3.120000</speed>
<extensions>
<speed>3.1</speed>
<temp>0.00</temp>
<bpm>0</bpm>
<rpm>0.00</rpm>
</extensions>
</trkpt>
<trkpt lat="63.850685120" lon="-21.978759766">
<ele>101.341797</ele>
<time>2012-07-28T15:11:36Z</time>
<speed>2.920000</speed>
<extensions>
<speed>2.9</speed>
<temp>0.00</temp>
<bpm>0</bpm>
<rpm>0.00</rpm>
</extensions>
</trkpt>
<trkpt lat="63.850662231" lon="-21.978961945">
<ele>101.398438</ele>
<time>2012-07-28T15:11:41Z</time>
<speed>1.890000</speed>
<extensions>
<speed>1.9</speed>
<temp>0.00</temp>
<bpm>0</bpm>
<rpm>0.00</rpm>
</extensions>
</trkpt>
<trkpt lat="63.850646973" lon="-21.979236603">
<ele>101.197266</ele>
<time>2012-07-28T15:11:46Z</time>
<speed>3.360000</speed>
<extensions>
<speed>3.4</speed>
<temp>0.00</temp>
<bpm>0</bpm>
<rpm>0.00</rpm>
</extensions>
</trkpt>
<trkpt lat="63.850631714" lon="-21.979618073">
<ele>102.322266</ele>
<time>2012-07-28T15:11:51Z</time>
<speed>3.870000</speed>
<extensions>
<speed>3.9</speed>
<temp>0.00</temp>
<bpm>0</bpm>
<rpm>0.00</rpm>
</extensions>
</trkpt>
<trkpt lat="63.850616455" lon="-21.979970932">
<ele>103.271484</ele>
<time>2012-07-28T15:11:56Z</time>
<speed>2.930000</speed>
<extensions>
<speed>2.9</speed>
<temp>0.00</temp>
<bpm>0</bpm>
<rpm>0.00</rpm>
</extensions>
</trkpt>
<trkpt lat="63.850597382" lon="-21.980241776">
<ele>103.378906</ele>
<time>2012-07-28T15:12:01Z</time>
<speed>3.110000</speed>
<extensions>
<speed>3.1</speed>
<temp>0.00</temp>
<bpm>0</bpm>
<rpm>0.00</rpm>
</extensions>
</trkpt>
<trkpt lat="63.850578308" lon="-21.980585098">
<ele>103.949219</ele>
<time>2012-07-28T15:12:06Z</time>
<speed>3.740000</speed>
<extensions>
<speed>3.7</speed>
<temp>0.00</temp>
<bpm>0</bpm>
<rpm>0.00</rpm>
</extensions>
</trkpt>
<trkpt lat="63.850555420" lon="-21.980976105">
<ele>105.193359</ele>
<time>2012-07-28T15:12:11Z</time>
<speed>3.300000</speed>
<extensions>
<speed>3.3</speed>
<temp>0.00</temp>
<bpm>0</bpm>
<rpm>0.00</rpm>
</extensions>
</trkpt>
<trkpt lat="63.850543976" lon="-21.981298447">
<ele>105.781250</ele>
<time>2012-07-28T15:12:16Z</time>
<speed>3.310000</speed>
<extensions>
<speed>3.3</speed>
<temp>0.00</temp>
<bpm>0</bpm>
<rpm>0.00</rpm>
</extensions>
</trkpt>
<trkpt lat="63.850524902" lon="-21.981636047">
<ele>106.283203</ele>
<time>2012-07-28T15:12:21Z</time>
<speed>3.480000</speed>
<extensions>
<speed>3.5</speed>
<temp>0.00</temp>
<bpm>0</bpm>
<rpm>0.00</rpm>
</extensions>
</trkpt>
<trkpt lat="63.850505829" lon="-21.981998444">
<ele>106.445313</ele>
<time>2012-07-28T15:12:26Z</time>
<speed>3.540000</speed>
<extensions>
<speed>3.5</speed>
<temp>0.00</temp>
<bpm>0</bpm>
<rpm>0.00</rpm>
</extensions>
</trkpt>
<trkpt lat="63.850494385" lon="-21.982292175">
<ele>106.832031</ele>
<time>2012-07-28T15:12:31Z</time>
<speed>2.860000</speed>
<extensions>
<speed>2.9</speed>
<temp>0.00</temp>
<bpm>0</bpm>
<rpm>0.00</rpm>
</extensions>
</trkpt>
<trkpt lat="63.850482941" lon="-21.982608795">
<ele>106.808594</ele>
<time>2012-07-28T15:12:36Z</time>
<speed>3.260000</speed>
<extensions>
<speed>3.3</speed>
<temp>0.00</temp>
<bpm>0</bpm>
<rpm>0.00</rpm>
</extensions>
</trkpt>
<trkpt lat="63.850463867" lon="-21.982950211">
<ele>106.996094</ele>
<time>2012-07-28T15:12:41Z</time>
<speed>3.490000</speed>
<extensions>
<speed>3.5</speed>
<temp>0.00</temp>
<bpm>0</bpm>
<rpm>0.00</rpm>
</extensions>
</trkpt>
<trkpt lat="63.850448608" lon="-21.983312607">
<ele>107.423828</ele>
<time>2012-07-28T15:12:46Z</time>
<speed>3.500000</speed>
<extensions>
<speed>3.5</speed>
<temp>0.00</temp>
<bpm>0</bpm>
<rpm>0.00</rpm>
</extensions>
</trkpt>
<trkpt lat="63.850440979" lon="-21.983684540">
<ele>107.964844</ele>
<time>2012-07-28T15:12:51Z</time>
<speed>3.800000</speed>
<extensions>
<speed>3.8</speed>
<temp>0.00</temp>
<bpm>0</bpm>
<rpm>0.00</rpm>
</extensions>
</trkpt>
<trkpt lat="63.850425720" lon="-21.984077454">
<ele>107.865234</ele>
<time>2012-07-28T15:12:56Z</time>
<speed>3.920000</speed>
<extensions>
<speed>3.9</speed>
<temp>0.00</temp>
<bpm>0</bpm>
<rpm>0.00</rpm>
</extensions>
</trkpt>
<trkpt lat="63.850410461" lon="-21.984479904">
<ele>107.560547</ele>
<time>2012-07-28T15:13:01Z</time>
<speed>3.930000</speed>
<extensions>
<speed>3.9</speed>
<temp>0.00</temp>
<bpm>0</bpm>
<rpm>0.00</rpm>
</extensions>
</trkpt>
<trkpt lat="63.850399017" lon="-21.984891891">
<ele>107.585938</ele>
<time>2012-07-28T15:13:06Z</time>
<speed>4.200000</speed>
<extensions>
<speed>4.2</speed>
<temp>0.00</temp>
<bpm>0</bpm>
<rpm>0.00</rpm>
</extensions>
</trkpt>
<trkpt lat="63.850379944" lon="-21.985288620">
<ele>107.488281</ele>
<time>2012-07-28T15:13:11Z</time>
<speed>4.100000</speed>
<extensions>
<speed>4.1</speed>
<temp>0.00</temp>
<bpm>0</bpm>
<rpm>0.00</rpm>
</extensions>
</trkpt>
<trkpt lat="63.850364685" lon="-21.985702515">
<ele>107.775391</ele>
<time>2012-07-28T15:13:16Z</time>
<speed>3.730000</speed>
<extensions>
<speed>3.7</speed>
<temp>0.00</temp>
<bpm>0</bpm>
<rpm>0.00</rpm>
</extensions>
</trkpt>
<trkpt lat="63.850353241" lon="-21.986030579">
<ele>107.912109</ele>
<time>2012-07-28T15:13:21Z</time>
<speed>2.580000</speed>
<extensions>
<speed>2.6</speed>
<temp>0.00</temp>
<bpm>0</bpm>
<rpm>0.00</rpm>
</extensions>
</trkpt>
<trkpt lat="63.850353241" lon="-21.986333847">
<ele>107.984375</ele>
<time>2012-07-28T15:13:26Z</time>
<speed>3.380000</speed>
<extensions>
<speed>3.4</speed>
<temp>0.00</temp>
<bpm>0</bpm>
<rpm>0.00</rpm>
</extensions>
</trkpt>
<trkpt lat="63.850349426" lon="-21.986713409">
<ele>108.587891</ele>
<time>2012-07-28T15:13:31Z</time>
<speed>3.720000</speed>
<extensions>
<speed>3.7</speed>
<temp>0.00</temp>
<bpm>0</bpm>
<rpm>0.00</rpm>
</extensions>
</trkpt>
<trkpt lat="63.850341797" lon="-21.987100601">
<ele>108.507813</ele>
<time>2012-07-28T15:13:36Z</time>
<speed>3.420000</speed>
<extensions>
<speed>3.4</speed>
<temp>0.00</temp>
<bpm>0</bpm>
<rpm>0.00</rpm>
</extensions>
</trkpt>
<trkpt lat="63.850334167" lon="-21.987398148">
<ele>108.865234</ele>
<time>2012-07-28T15:13:41Z</time>
<speed>2.950000</speed>
<extensions>
<speed>2.9</speed>
<temp>0.00</temp>
<bpm>0</bpm>
<rpm>0.00</rpm>
</extensions>
</trkpt>
<trkpt lat="63.850330353" lon="-21.987743378">
<ele>108.806641</ele>
<time>2012-07-28T15:13:46Z</time>
<speed>3.660000</speed>
<extensions>
<speed>3.7</speed>
<temp>0.00</temp>
<bpm>0</bpm>
<rpm>0.00</rpm>
</extensions>
</trkpt>
<trkpt lat="63.850322723" lon="-21.988069534">
<ele>108.734375</ele>
<time>2012-07-28T15:13:51Z</time>
<speed>2.730000</speed>
<extensions>
<speed>2.7</speed>
<temp>0.00</temp>
<bpm>0</bpm>
<rpm>0.00</rpm>
</extensions>
</trkpt>
<trkpt lat="63.850326538" lon="-21.988300323">
<ele>108.802734</ele>
<time>2012-07-28T15:13:56Z</time>
<speed>2.340000</speed>
<extensions>
<speed>2.3</speed>
<temp>0.00</temp>
<bpm>0</bpm>
<rpm>0.00</rpm>
</extensions>
</trkpt>
<trkpt lat="63.850318909" lon="-21.988563538">
<ele>108.617188</ele>
<time>2012-07-28T15:14:01Z</time>
<speed>2.820000</speed>
<extensions>
<speed>2.8</speed>
<temp>0.00</temp>
<bpm>0</bpm>
<rpm>0.00</rpm>
</extensions>
</trkpt>
<trkpt lat="63.850318909" lon="-21.988843918">
<ele>108.292969</ele>
<time>2012-07-28T15:14:06Z</time>
<speed>2.720000</speed>
<extensions>
<speed>2.7</speed>
<temp>0.00</temp>
<bpm>0</bpm>
<rpm>0.00</rpm>
</extensions>
</trkpt>
<trkpt lat="63.850315094" lon="-21.989120483">
<ele>108.203125</ele>
<time>2012-07-28T15:14:11Z</time>
<speed>2.850000</speed>
<extensions>
<speed>2.9</speed>
<temp>0.00</temp>
<bpm>0</bpm>
<rpm>0.00</rpm>
</extensions>
</trkpt>
<trkpt lat="63.850318909" lon="-21.989416122">
<ele>108.361328</ele>
<time>2012-07-28T15:14:16Z</time>
<speed>2.800000</speed>
<extensions>
<speed>2.8</speed>
<temp>0.00</temp>
<bpm>0</bpm>
<rpm>0.00</rpm>
</extensions>
</trkpt>
<trkpt lat="63.850315094" lon="-21.989700317">
<ele>108.156250</ele>
<time>2012-07-28T15:14:21Z</time>
<speed>2.840000</speed>
<extensions>
<speed>2.8</speed>
<temp>0.00</temp>
<bpm>0</bpm>
<rpm>0.00</rpm>
</extensions>
</trkpt>
<trkpt lat="63.850315094" lon="-21.989990234">
<ele>107.929688</ele>
<time>2012-07-28T15:14:26Z</time>
<speed>3.020000</speed>
<extensions>
<speed>3.0</speed>
<temp>0.00</temp>
<bpm>0</bpm>
<rpm>0.00</rpm>
</extensions>
</trkpt>
<trkpt lat="63.850318909" lon="-21.990314484">
<ele>107.757813</ele>
<time>2012-07-28T15:14:31Z</time>
<speed>3.420000</speed>
<extensions>
<speed>3.4</speed>
<temp>0.00</temp>
<bpm>0</bpm>
<rpm>0.00</rpm>
</extensions>
</trkpt>
<trkpt lat="63.850318909" lon="-21.990665436">
<ele>107.591797</ele>
<time>2012-07-28T15:14:36Z</time>
<speed>3.530000</speed>
<extensions>
<speed>3.5</speed>
<temp>0.00</temp>
<bpm>0</bpm>
<rpm>0.00</rpm>
</extensions>
</trkpt>
<trkpt lat="63.850322723" lon="-21.991037369">
<ele>107.474609</ele>
<time>2012-07-28T15:14:41Z</time>
<speed>3.690000</speed>
<extensions>
<speed>3.7</speed>
<temp>0.00</temp>
<bpm>0</bpm>
<rpm>0.00</rpm>
</extensions>
</trkpt>
<trkpt lat="63.850318909" lon="-21.991418839">
<ele>107.167969</ele>
<time>2012-07-28T15:14:46Z</time>
<speed>3.720000</speed>
<extensions>
<speed>3.7</speed>
<temp>0.00</temp>
<bpm>0</bpm>
<rpm>0.00</rpm>
</extensions>
</trkpt>
<trkpt lat="63.850326538" lon="-21.991773605">
<ele>106.828125</ele>
<time>2012-07-28T15:14:51Z</time>
<speed>2.820000</speed>
<extensions>
<speed>2.8</speed>
<temp>0.00</temp>
<bpm>0</bpm>
<rpm>0.00</rpm>
</extensions>
</trkpt>
<trkpt lat="63.850326538" lon="-21.991994858">
<ele>106.541016</ele>
<time>2012-07-28T15:14:56Z</time>
<speed>1.830000</speed>
<extensions>
<speed>1.8</speed>
<temp>0.00</temp>
<bpm>0</bpm>
<rpm>0.00</rpm>
</extensions>
</trkpt>
<trkpt lat="63.850330353" lon="-21.992212296">
<ele>106.562500</ele>
<time>2012-07-28T15:15:01Z</time>
<speed>2.910000</speed>
<extensions>
<speed>2.9</speed>
<temp>0.00</temp>
<bpm>0</bpm>
<rpm>0.00</rpm>
</extensions>
</trkpt>
<trkpt lat="63.850337982" lon="-21.992544174">
<ele>106.062500</ele>
<time>2012-07-28T15:15:06Z</time>
<speed>3.040000</speed>
<extensions>
<speed>3.0</speed>
<temp>0.00</temp>
<bpm>0</bpm>
<rpm>0.00</rpm>
</extensions>
</trkpt>
<trkpt lat="63.850334167" lon="-21.992811203">
<ele>105.257813</ele>
<time>2012-07-28T15:15:11Z</time>
<speed>2.400000</speed>
<extensions>
<speed>2.4</speed>
<temp>0.00</temp>
<bpm>0</bpm>
<rpm>0.00</rpm>
</extensions>
</trkpt>
<trkpt lat="63.850345612" lon="-21.993049622">
<ele>104.664063</ele>
<time>2012-07-28T15:15:16Z</time>
<speed>2.620000</speed>
<extensions>
<speed>2.6</speed>
<temp>0.00</temp>
<bpm>0</bpm>
<rpm>0.00</rpm>
</extensions>
</trkpt>
<trkpt lat="63.850345612" lon="-21.993413925">
<ele>104.781250</ele>
<time>2012-07-28T15:15:21Z</time>
<speed>3.930000</speed>
<extensions>
<speed>3.9</speed>
<temp>0.00</temp>
<bpm>0</bpm>
<rpm>0.00</rpm>
</extensions>
</trkpt>
<trkpt lat="63.850353241" lon="-21.993785858">
<ele>104.273438</ele>
<time>2012-07-28T15:15:26Z</time>
<speed>3.390000</speed>
<extensions>
<speed>3.4</speed>
<temp>0.00</temp>
<bpm>0</bpm>
<rpm>0.00</rpm>
</extensions>
</trkpt>
<trkpt lat="63.850360870" lon="-21.994102478">
<ele>104.361328</ele>
<time>2012-07-28T15:15:31Z</time>
<speed>2.910000</speed>
<extensions>
<speed>2.9</speed>
<temp>0.00</temp>
<bpm>0</bpm>
<rpm>0.00</rpm>
</extensions>
</trkpt>
<trkpt lat="63.850368500" lon="-21.994382858">
<ele>104.052734</ele>
<time>2012-07-28T15:15:36Z</time>
<speed>2.590000</speed>
<extensions>
<speed>2.6</speed>
<temp>0.00</temp>
<bpm>0</bpm>
<rpm>0.00</rpm>
</extensions>
</trkpt>
<trkpt lat="63.850376129" lon="-21.994707108">
<ele>103.632813</ele>
<time>2012-07-28T15:15:41Z</time>
<speed>3.760000</speed>
<extensions>
<speed>3.8</speed>
<temp>0.00</temp>
<bpm>0</bpm>
<rpm>0.00</rpm>
</extensions>
</trkpt>
<trkpt lat="63.850387573" lon="-21.995109558">
<ele>103.304688</ele>
<time>2012-07-28T15:15:46Z</time>
<speed>3.650000</speed>
<extensions>
<speed>3.7</speed>
<temp>0.00</temp>
<bpm>0</bpm>
<rpm>0.00</rpm>
</extensions>
</trkpt>
<trkpt lat="63.850399017" lon="-21.995441437">
<ele>102.693359</ele>
<time>2012-07-28T15:15:51Z</time>
<speed>3.390000</speed>
<extensions>
<speed>3.4</speed>
<temp>0.00</temp>
<bpm>0</bpm>
<rpm>0.00</rpm>
</extensions>
</trkpt>
<trkpt lat="63.850406647" lon="-21.995855331">
<ele>102.660156</ele>
<time>2012-07-28T15:15:56Z</time>
<speed>3.780000</speed>
<extensions>
<speed>3.8</speed>
<temp>0.00</temp>
<bpm>0</bpm>
<rpm>0.00</rpm>
</extensions>
</trkpt>
<trkpt lat="63.850425720" lon="-21.996200562">
<ele>102.449219</ele>
<time>2012-07-28T15:16:01Z</time>
<speed>3.690000</speed>
<extensions>
<speed>3.7</speed>
<temp>0.00</temp>
<bpm>0</bpm>
<rpm>0.00</rpm>
</extensions>
</trkpt>
<trkpt lat="63.850437164" lon="-21.996603012">
<ele>101.925781</ele>
<time>2012-07-28T15:16:06Z</time>
<speed>3.760000</speed>
<extensions>
<speed>3.8</speed>
<temp>0.00</temp>
<bpm>0</bpm>
<rpm>0.00</rpm>
</extensions>
</trkpt>
<trkpt lat="63.850452423" lon="-21.996974945">
<ele>101.158203</ele>
<time>2012-07-28T15:16:11Z</time>
<speed>4.040000</speed>
<extensions>
<speed>4.0</speed>
<temp>0.00</temp>
<bpm>0</bpm>
<rpm>0.00</rpm>
</extensions>
</trkpt>
<trkpt lat="63.850460052" lon="-21.997400284">
<ele>101.068359</ele>
<time>2012-07-28T15:16:16Z</time>
<speed>4.060000</speed>
<extensions>
<speed>4.1</speed>
<temp>0.00</temp>
<bpm>0</bpm>
<rpm>0.00</rpm>
</extensions>
</trkpt>
<trkpt lat="63.850475311" lon="-21.997770309">
<ele>100.490234</ele>
<time>2012-07-28T15:16:21Z</time>
<speed>3.700000</speed>
<extensions>
<speed>3.7</speed>
<temp>0.00</temp>
<bpm>0</bpm>
<rpm>0.00</rpm>
</extensions>
</trkpt>
<trkpt lat="63.850490570" lon="-21.998193741">
<ele>100.035156</ele>
<time>2012-07-28T15:16:26Z</time>
<speed>4.550000</speed>
<extensions>
<speed>4.5</speed>
<temp>0.00</temp>
<bpm>0</bpm>
<rpm>0.00</rpm>
</extensions>
</trkpt>
<trkpt lat="63.850505829" lon="-21.998611450">
<ele>99.798828</ele>
<time>2012-07-28T15:16:31Z</time>
<speed>4.010000</speed>
<extensions>
<speed>4.0</speed>
<temp>0.00</temp>
<bpm>0</bpm>
<rpm>0.00</rpm>
</extensions>
</trkpt>
<trkpt lat="63.850524902" lon="-21.999053955">
<ele>99.847656</ele>
<time>2012-07-28T15:16:36Z</time>
<speed>4.580000</speed>
<extensions>
<speed>4.6</speed>
<temp>0.00</temp>
<bpm>0</bpm>
<rpm>0.00</rpm>
</extensions>
</trkpt>
<trkpt lat="63.850543976" lon="-21.999485016">
<ele>99.728516</ele>
<time>2012-07-28T15:16:41Z</time>
<speed>3.590000</speed>
<extensions>
<speed>3.6</speed>
<temp>0.00</temp>
<bpm>0</bpm>
<rpm>0.00</rpm>
</extensions>
</trkpt>
<trkpt lat="63.850555420" lon="-21.999847412">
<ele>100.332031</ele>
<time>2012-07-28T15:16:46Z</time>
<speed>3.870000</speed>
<extensions>
<speed>3.9</speed>
<temp>0.00</temp>
<bpm>0</bpm>
<rpm>0.00</rpm>
</extensions>
</trkpt>
<trkpt lat="63.850566864" lon="-22.000276566">
<ele>101.201172</ele>
<time>2012-07-28T15:16:51Z</time>
<speed>4.510000</speed>
<extensions>
<speed>4.5</speed>
<temp>0.00</temp>
<bpm>0</bpm>
<rpm>0.00</rpm>
</extensions>
</trkpt>
<trkpt lat="63.850582123" lon="-22.000633240">
<ele>101.453125</ele>
<time>2012-07-28T15:16:56Z</time>
<speed>3.260000</speed>
<extensions>
<speed>3.3</speed>
<temp>0.00</temp>
<bpm>0</bpm>
<rpm>0.00</rpm>
</extensions>
</trkpt>
<trkpt lat="63.850593567" lon="-22.001033783">
<ele>100.943359</ele>
<time>2012-07-28T15:17:01Z</time>
<speed>4.570000</speed>
<extensions>
<speed>4.6</speed>
<temp>0.00</temp>
<bpm>0</bpm>
<rpm>0.00</rpm>
</extensions>
</trkpt>
<trkpt lat="63.850605011" lon="-22.001432419">
<ele>100.941406</ele>
<time>2012-07-28T15:17:06Z</time>
<speed>3.410000</speed>
<extensions>
<speed>3.4</speed>
<temp>0.00</temp>
<bpm>0</bpm>
<rpm>0.00</rpm>
</extensions>
</trkpt>
<trkpt lat="63.850608826" lon="-22.001819611">
<ele>100.291016</ele>
<time>2012-07-28T15:17:11Z</time>
<speed>4.280000</speed>
<extensions>
<speed>4.3</speed>
<temp>0.00</temp>
<bpm>0</bpm>
<rpm>0.00</rpm>
</extensions>
</trkpt>
<trkpt lat="63.850612640" lon="-22.002267838">
<ele>99.890625</ele>
<time>2012-07-28T15:17:16Z</time>
<speed>4.000000</speed>
<extensions>
<speed>4.0</speed>
<temp>0.00</temp>
<bpm>0</bpm>
<rpm>0.00</rpm>
</extensions>
</trkpt>
<trkpt lat="63.850616455" lon="-22.002628326">
<ele>99.158203</ele>
<time>2012-07-28T15:17:21Z</time>
<speed>3.240000</speed>
<extensions>
<speed>3.2</speed>
<temp>0.00</temp>
<bpm>0</bpm>
<rpm>0.00</rpm>
</extensions>
</trkpt>
<trkpt lat="63.850620270" lon="-22.003025055">
<ele>98.658203</ele>
<time>2012-07-28T15:17:26Z</time>
<speed>4.450000</speed>
<extensions>
<speed>4.5</speed>
<temp>0.00</temp>
<bpm>0</bpm>
<rpm>0.00</rpm>
</extensions>
</trkpt>
<trkpt lat="63.850616455" lon="-22.003440857">
<ele>98.210938</ele>
<time>2012-07-28T15:17:31Z</time>
<speed>3.650000</speed>
<extensions>
<speed>3.7</speed>
<temp>0.00</temp>
<bpm>0</bpm>
<rpm>0.00</rpm>
</extensions>
</trkpt>
<trkpt lat="63.850620270" lon="-22.003808975">
<ele>99.150391</ele>
<time>2012-07-28T15:17:36Z</time>
<speed>4.080000</speed>
<extensions>
<speed>4.1</speed>
<temp>0.00</temp>
<bpm>0</bpm>
<rpm>0.00</rpm>
</extensions>
</trkpt>
<trkpt lat="63.850616455" lon="-22.004266739">
<ele>99.085938</ele>
<time>2012-07-28T15:17:41Z</time>
<speed>4.600000</speed>
<extensions>
<speed>4.6</speed>
<temp>0.00</temp>
<bpm>0</bpm>
<rpm>0.00</rpm>
</extensions>
</trkpt>
<trkpt lat="63.850612640" lon="-22.004674911">
<ele>98.392578</ele>
<time>2012-07-28T15:17:46Z</time>
<speed>3.750000</speed>
<extensions>
<speed>3.8</speed>
<temp>0.00</temp>
<bpm>0</bpm>
<rpm>0.00</rpm>
</extensions>
</trkpt>
<trkpt lat="63.850612640" lon="-22.005029678">
<ele>98.669922</ele>
<time>2012-07-28T15:17:51Z</time>
<speed>4.040000</speed>
<extensions>
<speed>4.0</speed>
<temp>0.00</temp>
<bpm>0</bpm>
<rpm>0.00</rpm>
</extensions>
</trkpt>
<trkpt lat="63.850605011" lon="-22.005472183">
<ele>98.349609</ele>
<time>2012-07-28T15:17:56Z</time>
<speed>4.060000</speed>
<extensions>
<speed>4.1</speed>
<temp>0.00</temp>
<bpm>0</bpm>
<rpm>0.00</rpm>
</extensions>
</trkpt>
<trkpt lat="63.850605011" lon="-22.005834579">
<ele>98.941406</ele>
<time>2012-07-28T15:18:01Z</time>
<speed>3.800000</speed>
<extensions>
<speed>3.8</speed>
<temp>0.00</temp>
<bpm>0</bpm>
<rpm>0.00</rpm>
</extensions>
</trkpt>
<trkpt lat="63.850605011" lon="-22.006254196">
<ele>98.937500</ele>
<time>2012-07-28T15:18:06Z</time>
<speed>4.380000</speed>
<extensions>
<speed>4.4</speed>
<temp>0.00</temp>
<bpm>0</bpm>
<rpm>0.00</rpm>
</extensions>
</trkpt>
<trkpt lat="63.850597382" lon="-22.006719589">
<ele>98.427734</ele>
<time>2012-07-28T15:18:11Z</time>
<speed>4.780000</speed>
<extensions>
<speed>4.8</speed>
<temp>0.00</temp>
<bpm>0</bpm>
<rpm>0.00</rpm>
</extensions>
</trkpt>
<trkpt lat="63.850593567" lon="-22.007162094">
<ele>98.044922</ele>
<time>2012-07-28T15:18:16Z</time>
<speed>3.720000</speed>
<extensions>
<speed>3.7</speed>
<temp>0.00</temp>
<bpm>0</bpm>
<rpm>0.00</rpm>
</extensions>
</trkpt>
<trkpt lat="63.850593567" lon="-22.007490158">
<ele>98.171875</ele>
<time>2012-07-28T15:18:21Z</time>
<speed>2.800000</speed>
<extensions>
<speed>2.8</speed>
<temp>0.00</temp>
<bpm>0</bpm>
<rpm>0.00</rpm>
</extensions>
</trkpt>
<trkpt lat="63.850578308" lon="-22.007776260">
<ele>98.222656</ele>
<time>2012-07-28T15:18:26Z</time>
<speed>3.420000</speed>
<extensions>
<speed>3.4</speed>
<temp>0.00</temp>
<bpm>0</bpm>
<rpm>0.00</rpm>
</extensions>
</trkpt>
<trkpt lat="63.850566864" lon="-22.008163452">
<ele>99.482422</ele>
<time>2012-07-28T15:18:31Z</time>
<speed>4.050000</speed>
<extensions>
<speed>4.0</speed>
<temp>0.00</temp>
<bpm>0</bpm>
<rpm>0.00</rpm>
</extensions>
</trkpt>
<trkpt lat="63.850555420" lon="-22.008598328">
<ele>99.296875</ele>
<time>2012-07-28T15:18:36Z</time>
<speed>4.420000</speed>
<extensions>
<speed>4.4</speed>
<temp>0.00</temp>
<bpm>0</bpm>
<rpm>0.00</rpm>
</extensions>
</trkpt>
<trkpt lat="63.850547791" lon="-22.009021759">
<ele>98.794922</ele>
<time>2012-07-28T15:18:41Z</time>
<speed>3.680000</speed>
<extensions>
<speed>3.7</speed>
<temp>0.00</temp>
<bpm>0</bpm>
<rpm>0.00</rpm>
</extensions>
</trkpt>
<trkpt lat="63.850543976" lon="-22.009340286">
<ele>98.599609</ele>
<time>2012-07-28T15:18:46Z</time>
<speed>2.780000</speed>
<extensions>
<speed>2.8</speed>
<temp>0.00</temp>
<bpm>0</bpm>
<rpm>0.00</rpm>
</extensions>
</trkpt>
<trkpt lat="63.850543976" lon="-22.009597778">
<ele>98.207031</ele>
<time>2012-07-28T15:18:51Z</time>
<speed>2.390000</speed>
<extensions>
<speed>2.4</speed>
<temp>0.00</temp>
<bpm>0</bpm>
<rpm>0.00</rpm>
</extensions>
</trkpt>
<trkpt lat="63.850532532" lon="-22.009916306">
<ele>98.058594</ele>
<time>2012-07-28T15:18:56Z</time>
<speed>3.960000</speed>
<extensions>
<speed>4.0</speed>
<temp>0.00</temp>
<bpm>0</bpm>
<rpm>0.00</rpm>
</extensions>
</trkpt>
<trkpt lat="63.850521088" lon="-22.010354996">
<ele>97.927734</ele>
<time>2012-07-28T15:19:01Z</time>
<speed>4.350000</speed>
<extensions>
<speed>4.3</speed>
<temp>0.00</temp>
<bpm>0</bpm>
<rpm>0.00</rpm>
</extensions>
</trkpt>
<trkpt lat="63.850513458" lon="-22.010757446">
<ele>97.908203</ele>
<time>2012-07-28T15:19:06Z</time>
<speed>3.360000</speed>
<extensions>
<speed>3.4</speed>
<temp>0.00</temp>
<bpm>0</bpm>
<rpm>0.00</rpm>
</extensions>
</trkpt>
<trkpt lat="63.850505829" lon="-22.011154175">
<ele>97.248047</ele>
<time>2012-07-28T15:19:11Z</time>
<speed>4.460000</speed>
<extensions>
<speed>4.5</speed>
<temp>0.00</temp>
<bpm>0</bpm>
<rpm>0.00</rpm>
</extensions>
</trkpt>
<trkpt lat="63.850502014" lon="-22.011617661">
<ele>96.839844</ele>
<time>2012-07-28T15:19:16Z</time>
<speed>4.510000</speed>
<extensions>
<speed>4.5</speed>
<temp>0.00</temp>
<bpm>0</bpm>
<rpm>0.00</rpm>
</extensions>
</trkpt>
<trkpt lat="63.850494385" lon="-22.012088776">
<ele>96.228516</ele>
<time>2012-07-28T15:19:21Z</time>
<speed>4.350000</speed>
<extensions>
<speed>4.3</speed>
<temp>0.00</temp>
<bpm>0</bpm>
<rpm>0.00</rpm>
</extensions>
</trkpt>
<trkpt lat="63.850490570" lon="-22.012451172">
<ele>97.029297</ele>
<time>2012-07-28T15:19:26Z</time>
<speed>3.100000</speed>
<extensions>
<speed>3.1</speed>
<temp>0.00</temp>
<bpm>0</bpm>
<rpm>0.00</rpm>
</extensions>
</trkpt>
<trkpt lat="63.850494385" lon="-22.012819290">
<ele>96.695313</ele>
<time>2012-07-28T15:19:31Z</time>
<speed>4.200000</speed>
<extensions>
<speed>4.2</speed>
<temp>0.00</temp>
<bpm>0</bpm>
<rpm>0.00</rpm>
</extensions>
</trkpt>
<trkpt lat="63.850494385" lon="-22.013265610">
<ele>95.976563</ele>
<time>2012-07-28T15:19:36Z</time>
<speed>4.150000</speed>
<extensions>
<speed>4.1</speed>
<temp>0.00</temp>
<bpm>0</bpm>
<rpm>0.00</rpm>
</extensions>
</trkpt>
<trkpt lat="63.850494385" lon="-22.013626099">
<ele>96.099609</ele>
<time>2012-07-28T15:19:41Z</time>
<speed>2.910000</speed>
<extensions>
<speed>2.9</speed>
<temp>0.00</temp>
<bpm>0</bpm>
<rpm>0.00</rpm>
</extensions>
</trkpt>
<trkpt lat="63.850498199" lon="-22.013872147">
<ele>96.167969</ele>
<time>2012-07-28T15:19:46Z</time>
<speed>1.970000</speed>
<extensions>
<speed>2.0</speed>
<temp>0.00</temp>
<bpm>0</bpm>
<rpm>0.00</rpm>
</extensions>
</trkpt>
<trkpt lat="63.850498199" lon="-22.014110565">
<ele>96.167969</ele>
<time>2012-07-28T15:19:51Z</time>
<speed>2.670000</speed>
<extensions>
<speed>2.7</speed>
<temp>0.00</temp>
<bpm>0</bpm>
<rpm>0.00</rpm>
</extensions>
</trkpt>
<trkpt lat="63.850502014" lon="-22.014331818">
<ele>96.345703</ele>
<time>2012-07-28T15:19:56Z</time>
<speed>1.700000</speed>
<extensions>
<speed>1.7</speed>
<temp>0.00</temp>
<bpm>0</bpm>
<rpm>0.00</rpm>
</extensions>
</trkpt>
<trkpt lat="63.850498199" lon="-22.014533997">
<ele>96.609375</ele>
<time>2012-07-28T15:20:01Z</time>
<speed>2.430000</speed>
<extensions>
<speed>2.4</speed>
<temp>0.00</temp>
<bpm>0</bpm>
<rpm>0.00</rpm>
</extensions>
</trkpt>
<trkpt lat="63.850498199" lon="-22.014829636">
<ele>96.886719</ele>
<time>2012-07-28T15:20:06Z</time>
<speed>3.120000</speed>
<extensions>
<speed>3.1</speed>
<temp>0.00</temp>
<bpm>0</bpm>
<rpm>0.00</rpm>
</extensions>
</trkpt>
<trkpt lat="63.850513458" lon="-22.015081406">
<ele>97.054688</ele>
<time>2012-07-28T15:20:11Z</time>
<speed>2.120000</speed>
<extensions>
<speed>2.1</speed>
<temp>0.00</temp>
<bpm>0</bpm>
<rpm>0.00</rpm>
</extensions>
</trkpt>
<trkpt lat="63.850532532" lon="-22.015247345">
<ele>96.556641</ele>
<time>2012-07-28T15:20:16Z</time>
<speed>2.220000</speed>
<extensions>
<speed>2.2</speed>
<temp>0.00</temp>
<bpm>0</bpm>
<rpm>0.00</rpm>
</extensions>
</trkpt>
<trkpt lat="63.850585938" lon="-22.015329361">
<ele>95.890625</ele>
<time>2012-07-28T15:20:21Z</time>
<speed>0.970000</speed>
<extensions>
<speed>1.0</speed>
<temp>0.00</temp>
<bpm>0</bpm>
<rpm>0.00</rpm>
</extensions>
</trkpt>
<trkpt lat="63.850585938" lon="-22.015331268">
<ele>95.451172</ele>
<time>2012-07-28T15:20:26Z</time>
<extensions>
<speed>0.0</speed>
<temp>0.00</temp>
<bpm>0</bpm>
<rpm>0.00</rpm>
</extensions>
</trkpt>
<trkpt lat="63.850585938" lon="-22.015331268">
<ele>95.421875</ele>
<time>2012-07-28T15:20:31Z</time>
<speed>0.010000</speed>
<extensions>
<speed>0.0</speed>
<temp>0.00</temp>
<bpm>0</bpm>
<rpm>0.00</rpm>
</extensions>
</trkpt>
<trkpt lat="63.850585938" lon="-22.015331268">
<ele>95.468750</ele>
<time>2012-07-28T15:20:36Z</time>
<speed>0.100000</speed>
<extensions>
<speed>0.1</speed>
<temp>0.00</temp>
<bpm>0</bpm>
<rpm>0.00</rpm>
</extensions>
</trkpt>
<trkpt lat="63.850585938" lon="-22.015331268">
<ele>95.427734</ele>
<time>2012-07-28T15:20:41Z</time>
<speed>0.020000</speed>
<extensions>
<speed>0.0</speed>
<temp>0.00</temp>
<bpm>0</bpm>
<rpm>0.00</rpm>
</extensions>
</trkpt>
<trkpt lat="63.850585938" lon="-22.015331268">
<ele>95.441406</ele>
<time>2012-07-28T15:20:46Z</time>
<speed>0.020000</speed>
<extensions>
<speed>0.0</speed>
<temp>0.00</temp>
<bpm>0</bpm>
<rpm>0.00</rpm>
</extensions>
</trkpt>
<trkpt lat="63.850585938" lon="-22.015329361">
<ele>95.425781</ele>
<time>2012-07-28T15:20:51Z</time>
<speed>0.010000</speed>
<extensions>
<speed>0.0</speed>
<temp>0.00</temp>
<bpm>0</bpm>
<rpm>0.00</rpm>
</extensions>
</trkpt>
<trkpt lat="63.850585938" lon="-22.015329361">
<ele>95.462891</ele>
<time>2012-07-28T15:20:56Z</time>
<extensions>
<speed>0.0</speed>
<temp>0.00</temp>
<bpm>0</bpm>
<rpm>0.00</rpm>
</extensions>
</trkpt>
<trkpt lat="63.850585938" lon="-22.015329361">
<ele>95.466797</ele>
<time>2012-07-28T15:21:01Z</time>
<extensions>
<speed>0.0</speed>
<temp>0.00</temp>
<bpm>0</bpm>
<rpm>0.00</rpm>
</extensions>
</trkpt>
<trkpt lat="63.850585938" lon="-22.015331268">
<ele>95.478516</ele>
<time>2012-07-28T15:21:06Z</time>
<extensions>
<speed>0.0</speed>
<temp>0.00</temp>
<bpm>0</bpm>
<rpm>0.00</rpm>
</extensions>
</trkpt>
<trkpt lat="63.850585938" lon="-22.015331268">
<ele>95.482422</ele>
<time>2012-07-28T15:21:11Z</time>
<extensions>
<speed>0.0</speed>
<temp>0.00</temp>
<bpm>0</bpm>
<rpm>0.00</rpm>
</extensions>
</trkpt>
<trkpt lat="63.850585938" lon="-22.015329361">
<ele>95.484375</ele>
<time>2012-07-28T15:21:16Z</time>
<speed>0.050000</speed>
<extensions>
<speed>0.1</speed>
<temp>0.00</temp>
<bpm>0</bpm>
<rpm>0.00</rpm>
</extensions>
</trkpt>
<trkpt lat="63.850585938" lon="-22.015331268">
<ele>95.501953</ele>
<time>2012-07-28T15:21:21Z</time>
<extensions>
<speed>0.0</speed>
<temp>0.00</temp>
<bpm>0</bpm>
<rpm>0.00</rpm>
</extensions>
</trkpt>
<trkpt lat="63.850585938" lon="-22.015329361">
<ele>95.507813</ele>
<time>2012-07-28T15:21:26Z</time>
<extensions>
<speed>0.0</speed>
<temp>0.00</temp>
<bpm>0</bpm>
<rpm>0.00</rpm>
</extensions>
</trkpt>
<trkpt lat="63.850585938" lon="-22.015329361">
<ele>95.509766</ele>
<time>2012-07-28T15:21:31Z</time>
<speed>0.030000</speed>
<extensions>
<speed>0.0</speed>
<temp>0.00</temp>
<bpm>0</bpm>
<rpm>0.00</rpm>
</extensions>
</trkpt>
<trkpt lat="63.850597382" lon="-22.015333176">
<ele>95.373047</ele>
<time>2012-07-28T15:21:36Z</time>
<speed>0.510000</speed>
<extensions>
<speed>0.5</speed>
<temp>0.00</temp>
<bpm>0</bpm>
<rpm>0.00</rpm>
</extensions>
</trkpt>
<trkpt lat="63.850620270" lon="-22.015335083">
<ele>93.375000</ele>
<time>2012-07-28T15:21:41Z</time>
<speed>0.460000</speed>
<extensions>
<speed>0.5</speed>
<temp>0.00</temp>
<bpm>0</bpm>
<rpm>0.00</rpm>
</extensions>
</trkpt>
<trkpt lat="63.850643158" lon="-22.015338898">
<ele>93.451172</ele>
<time>2012-07-28T15:21:46Z</time>
<speed>0.040000</speed>
<extensions>
<speed>0.0</speed>
<temp>0.00</temp>
<bpm>0</bpm>
<rpm>0.00</rpm>
</extensions>
</trkpt>
<trkpt lat="63.850643158" lon="-22.015336990">
<ele>93.464844</ele>
<time>2012-07-28T15:21:51Z</time>
<extensions>
<speed>0.0</speed>
<temp>0.00</temp>
<bpm>0</bpm>
<rpm>0.00</rpm>
</extensions>
</trkpt>
<trkpt lat="63.850643158" lon="-22.015336990">
<ele>93.462891</ele>
<time>2012-07-28T15:21:56Z</time>
<extensions>
<speed>0.0</speed>
<temp>0.00</temp>
<bpm>0</bpm>
<rpm>0.00</rpm>
</extensions>
</trkpt>
<trkpt lat="63.850643158" lon="-22.015336990">
<ele>93.462891</ele>
<time>2012-07-28T15:22:01Z</time>
<extensions>
<speed>0.0</speed>
<temp>0.00</temp>
<bpm>0</bpm>
<rpm>0.00</rpm>
</extensions>
</trkpt>
<trkpt lat="63.850643158" lon="-22.015336990">
<ele>93.468750</ele>
<time>2012-07-28T15:22:06Z</time>
<extensions>
<speed>0.0</speed>
<temp>0.00</temp>
<bpm>0</bpm>
<rpm>0.00</rpm>
</extensions>
</trkpt>
<trkpt lat="63.850643158" lon="-22.015336990">
<ele>93.478516</ele>
<time>2012-07-28T15:22:11Z</time>
<extensions>
<speed>0.0</speed>
<temp>0.00</temp>
<bpm>0</bpm>
<rpm>0.00</rpm>
</extensions>
</trkpt>
<trkpt lat="63.850643158" lon="-22.015336990">
<ele>93.490234</ele>
<time>2012-07-28T15:22:16Z</time>
<extensions>
<speed>0.0</speed>
<temp>0.00</temp>
<bpm>0</bpm>
<rpm>0.00</rpm>
</extensions>
</trkpt>
<trkpt lat="63.850643158" lon="-22.015336990">
<ele>93.498047</ele>
<time>2012-07-28T15:22:21Z</time>
<extensions>
<speed>0.0</speed>
<temp>0.00</temp>
<bpm>0</bpm>
<rpm>0.00</rpm>
</extensions>
</trkpt>
<trkpt lat="63.850643158" lon="-22.015336990">
<ele>93.509766</ele>
<time>2012-07-28T15:22:26Z</time>
<speed>0.010000</speed>
<extensions>
<speed>0.0</speed>
<temp>0.00</temp>
<bpm>0</bpm>
<rpm>0.00</rpm>
</extensions>
</trkpt>
<trkpt lat="63.850643158" lon="-22.015336990">
<ele>93.515625</ele>
<time>2012-07-28T15:22:31Z</time>
<speed>0.010000</speed>
<extensions>
<speed>0.0</speed>
<temp>0.00</temp>
<bpm>0</bpm>
<rpm>0.00</rpm>
</extensions>
</trkpt>
<trkpt lat="63.850643158" lon="-22.015336990">
<ele>93.519531</ele>
<time>2012-07-28T15:22:36Z</time>
<speed>0.010000</speed>
<extensions>
<speed>0.0</speed>
<temp>0.00</temp>
<bpm>0</bpm>
<rpm>0.00</rpm>
</extensions>
</trkpt>
<trkpt lat="63.850643158" lon="-22.015336990">
<ele>93.521484</ele>
<time>2012-07-28T15:22:41Z</time>
<speed>0.030000</speed>
<extensions>
<speed>0.0</speed>
<temp>0.00</temp>
<bpm>0</bpm>
<rpm>0.00</rpm>
</extensions>
</trkpt>
<trkpt lat="63.850643158" lon="-22.015336990">
<ele>93.566406</ele>
<time>2012-07-28T15:22:46Z</time>
<speed>0.050000</speed>
<extensions>
<speed>0.1</speed>
<temp>0.00</temp>
<bpm>0</bpm>
<rpm>0.00</rpm>
</extensions>
</trkpt>
<trkpt lat="63.850643158" lon="-22.015336990">
<ele>93.570313</ele>
<time>2012-07-28T15:22:51Z</time>
<extensions>
<speed>0.0</speed>
<temp>0.00</temp>
<bpm>0</bpm>
<rpm>0.00</rpm>
</extensions>
</trkpt>
<trkpt lat="63.850643158" lon="-22.015336990">
<ele>93.580078</ele>
<time>2012-07-28T15:22:56Z</time>
<extensions>
<speed>0.0</speed>
<temp>0.00</temp>
<bpm>0</bpm>
<rpm>0.00</rpm>
</extensions>
</trkpt>
<trkpt lat="63.850643158" lon="-22.015336990">
<ele>93.585938</ele>
<time>2012-07-28T15:23:01Z</time>
<extensions>
<speed>0.0</speed>
<temp>0.00</temp>
<bpm>0</bpm>
<rpm>0.00</rpm>
</extensions>
</trkpt>
<trkpt lat="63.850643158" lon="-22.015336990">
<ele>93.589844</ele>
<time>2012-07-28T15:23:06Z</time>
<extensions>
<speed>0.0</speed>
<temp>0.00</temp>
<bpm>0</bpm>
<rpm>0.00</rpm>
</extensions>
</trkpt>
<trkpt lat="63.850643158" lon="-22.015336990">
<ele>93.593750</ele>
<time>2012-07-28T15:23:11Z</time>
<extensions>
<speed>0.0</speed>
<temp>0.00</temp>
<bpm>0</bpm>
<rpm>0.00</rpm>
</extensions>
</trkpt>
<trkpt lat="63.850643158" lon="-22.015336990">
<ele>93.599609</ele>
<time>2012-07-28T15:23:16Z</time>
<extensions>
<speed>0.0</speed>
<temp>0.00</temp>
<bpm>0</bpm>
<rpm>0.00</rpm>
</extensions>
</trkpt>
<trkpt lat="63.850643158" lon="-22.015336990">
<ele>93.609375</ele>
<time>2012-07-28T15:23:21Z</time>
<speed>0.120000</speed>
<extensions>
<speed>0.1</speed>
<temp>0.00</temp>
<bpm>0</bpm>
<rpm>0.00</rpm>
</extensions>
</trkpt>
<trkpt lat="63.850696564" lon="-22.015348434">
<ele>93.529297</ele>
<time>2012-07-28T15:23:26Z</time>
<speed>2.660000</speed>
<extensions>
<speed>2.7</speed>
<temp>0.00</temp>
<bpm>0</bpm>
<rpm>0.00</rpm>
</extensions>
</trkpt>
<trkpt lat="63.850818634" lon="-22.015323639">
<ele>93.906250</ele>
<time>2012-07-28T15:23:31Z</time>
<speed>2.820000</speed>
<extensions>
<speed>2.8</speed>
<temp>0.00</temp>
<bpm>0</bpm>
<rpm>0.00</rpm>
</extensions>
</trkpt>
<trkpt lat="63.850967407" lon="-22.015344620">
<ele>94.238281</ele>
<time>2012-07-28T15:23:36Z</time>
<speed>3.420000</speed>
<extensions>
<speed>3.4</speed>
<temp>0.00</temp>
<bpm>0</bpm>
<rpm>0.00</rpm>
</extensions>
</trkpt>
<trkpt lat="63.851127625" lon="-22.015346527">
<ele>94.892578</ele>
<time>2012-07-28T15:23:41Z</time>
<speed>3.450000</speed>
<extensions>
<speed>3.5</speed>
<temp>0.00</temp>
<bpm>0</bpm>
<rpm>0.00</rpm>
</extensions>
</trkpt>
<trkpt lat="63.851268768" lon="-22.015384674">
<ele>95.167969</ele>
<time>2012-07-28T15:23:46Z</time>
<speed>2.680000</speed>
<extensions>
<speed>2.7</speed>
<temp>0.00</temp>
<bpm>0</bpm>
<rpm>0.00</rpm>
</extensions>
</trkpt>
<trkpt lat="63.851375580" lon="-22.015457153">
<ele>95.332031</ele>
<time>2012-07-28T15:23:51Z</time>
<speed>2.900000</speed>
<extensions>
<speed>2.9</speed>
<temp>0.00</temp>
<bpm>0</bpm>
<rpm>0.00</rpm>
</extensions>
</trkpt>
<trkpt lat="63.851505280" lon="-22.015573502">
<ele>95.111328</ele>
<time>2012-07-28T15:23:56Z</time>
<speed>3.150000</speed>
<extensions>
<speed>3.2</speed>
<temp>0.00</temp>
<bpm>0</bpm>
<rpm>0.00</rpm>
</extensions>
</trkpt>
<trkpt lat="63.851634979" lon="-22.015701294">
<ele>94.812500</ele>
<time>2012-07-28T15:24:01Z</time>
<speed>2.800000</speed>
<extensions>
<speed>2.8</speed>
<temp>0.00</temp>
<bpm>0</bpm>
<rpm>0.00</rpm>
</extensions>
</trkpt>
<trkpt lat="63.851753235" lon="-22.015855789">
<ele>95.402344</ele>
<time>2012-07-28T15:24:06Z</time>
<speed>3.080000</speed>
<extensions>
<speed>3.1</speed>
<temp>0.00</temp>
<bpm>0</bpm>
<rpm>0.00</rpm>
</extensions>
</trkpt>
<trkpt lat="63.851867676" lon="-22.016067505">
<ele>95.835938</ele>
<time>2012-07-28T15:24:11Z</time>
<speed>2.640000</speed>
<extensions>
<speed>2.6</speed>
<temp>0.00</temp>
<bpm>0</bpm>
<rpm>0.00</rpm>
</extensions>
</trkpt>
<trkpt lat="63.851951599" lon="-22.016237259">
<ele>95.957031</ele>
<time>2012-07-28T15:24:16Z</time>
<speed>2.850000</speed>
<extensions>
<speed>2.9</speed>
<temp>0.00</temp>
<bpm>0</bpm>
<rpm>0.00</rpm>
</extensions>
</trkpt>
<trkpt lat="63.852039337" lon="-22.016414642">
<ele>96.306641</ele>
<time>2012-07-28T15:24:21Z</time>
<speed>2.460000</speed>
<extensions>
<speed>2.5</speed>
<temp>0.00</temp>
<bpm>0</bpm>
<rpm>0.00</rpm>
</extensions>
</trkpt>
<trkpt lat="63.852119446" lon="-22.016584396">
<ele>96.605469</ele>
<time>2012-07-28T15:24:26Z</time>
<speed>2.310000</speed>
<extensions>
<speed>2.3</speed>
<temp>0.00</temp>
<bpm>0</bpm>
<rpm>0.00</rpm>
</extensions>
</trkpt>
<trkpt lat="63.852191925" lon="-22.016744614">
<ele>95.929688</ele>
<time>2012-07-28T15:24:31Z</time>
<speed>2.060000</speed>
<extensions>
<speed>2.1</speed>
<temp>0.00</temp>
<bpm>0</bpm>
<rpm>0.00</rpm>
</extensions>
</trkpt>
<trkpt lat="63.852260590" lon="-22.016902924">
<ele>95.279297</ele>
<time>2012-07-28T15:24:36Z</time>
<speed>2.290000</speed>
<extensions>
<speed>2.3</speed>
<temp>0.00</temp>
<bpm>0</bpm>
<rpm>0.00</rpm>
</extensions>
</trkpt>
<trkpt lat="63.852329254" lon="-22.017068863">
<ele>95.093750</ele>
<time>2012-07-28T15:24:41Z</time>
<speed>2.260000</speed>
<extensions>
<speed>2.3</speed>
<temp>0.00</temp>
<bpm>0</bpm>
<rpm>0.00</rpm>
</extensions>
</trkpt>
<trkpt lat="63.852409363" lon="-22.017227173">
<ele>95.210938</ele>
<time>2012-07-28T15:24:46Z</time>
<speed>2.170000</speed>
<extensions>
<speed>2.2</speed>
<temp>0.00</temp>
<bpm>0</bpm>
<rpm>0.00</rpm>
</extensions>
</trkpt>
<trkpt lat="63.852474213" lon="-22.017335892">
<ele>95.257813</ele>
<time>2012-07-28T15:24:51Z</time>
<speed>1.420000</speed>
<extensions>
<speed>1.4</speed>
<temp>0.00</temp>
<bpm>0</bpm>
<rpm>0.00</rpm>
</extensions>
</trkpt>
<trkpt lat="63.852542877" lon="-22.017438889">
<ele>95.339844</ele>
<time>2012-07-28T15:24:56Z</time>
<speed>1.990000</speed>
<extensions>
<speed>2.0</speed>
<temp>0.00</temp>
<bpm>0</bpm>
<rpm>0.00</rpm>
</extensions>
</trkpt>
<trkpt lat="63.852607727" lon="-22.017551422">
<ele>95.736328</ele>
<time>2012-07-28T15:25:01Z</time>
<speed>1.990000</speed>
<extensions>
<speed>2.0</speed>
<temp>0.00</temp>
<bpm>0</bpm>
<rpm>0.00</rpm>
</extensions>
</trkpt>
<trkpt lat="63.852680206" lon="-22.017656326">
<ele>95.462891</ele>
<time>2012-07-28T15:25:06Z</time>
<speed>1.830000</speed>
<extensions>
<speed>1.8</speed>
<temp>0.00</temp>
<bpm>0</bpm>
<rpm>0.00</rpm>
</extensions>
</trkpt>
<trkpt lat="63.852748871" lon="-22.017732620">
<ele>95.353516</ele>
<time>2012-07-28T15:25:11Z</time>
<speed>1.730000</speed>
<extensions>
<speed>1.7</speed>
<temp>0.00</temp>
<bpm>0</bpm>
<rpm>0.00</rpm>
</extensions>
</trkpt>
<trkpt lat="63.852825165" lon="-22.017814636">
<ele>95.310547</ele>
<time>2012-07-28T15:25:16Z</time>
<speed>1.940000</speed>
<extensions>
<speed>1.9</speed>
<temp>0.00</temp>
<bpm>0</bpm>
<rpm>0.00</rpm>
</extensions>
</trkpt>
<trkpt lat="63.852901459" lon="-22.017908096">
<ele>95.548828</ele>
<time>2012-07-28T15:25:21Z</time>
<speed>2.060000</speed>
<extensions>
<speed>2.1</speed>
<temp>0.00</temp>
<bpm>0</bpm>
<rpm>0.00</rpm>
</extensions>
</trkpt>
<trkpt lat="63.852981567" lon="-22.017986298">
<ele>95.505859</ele>
<time>2012-07-28T15:25:26Z</time>
<speed>1.340000</speed>
<extensions>
<speed>1.3</speed>
<temp>0.00</temp>
<bpm>0</bpm>
<rpm>0.00</rpm>
</extensions>
</trkpt>
<trkpt lat="63.853023529" lon="-22.018062592">
<ele>95.623047</ele>
<time>2012-07-28T15:25:31Z</time>
<speed>1.430000</speed>
<extensions>
<speed>1.4</speed>
<temp>0.00</temp>
<bpm>0</bpm>
<rpm>0.00</rpm>
</extensions>
</trkpt>
<trkpt lat="63.853092194" lon="-22.018114090">
<ele>95.517578</ele>
<time>2012-07-28T15:25:36Z</time>
<speed>1.850000</speed>
<extensions>
<speed>1.8</speed>
<temp>0.00</temp>
<bpm>0</bpm>
<rpm>0.00</rpm>
</extensions>
</trkpt>
<trkpt lat="63.853164673" lon="-22.018194199">
<ele>95.964844</ele>
<time>2012-07-28T15:25:41Z</time>
<speed>1.730000</speed>
<extensions>
<speed>1.7</speed>
<temp>0.00</temp>
<bpm>0</bpm>
<rpm>0.00</rpm>
</extensions>
</trkpt>
<trkpt lat="63.853237152" lon="-22.018260956">
<ele>96.320313</ele>
<time>2012-07-28T15:25:46Z</time>
<speed>1.720000</speed>
<extensions>
<speed>1.7</speed>
<temp>0.00</temp>
<bpm>0</bpm>
<rpm>0.00</rpm>
</extensions>
</trkpt>
<trkpt lat="63.853309631" lon="-22.018323898">
<ele>96.574219</ele>
<time>2012-07-28T15:25:51Z</time>
<speed>2.050000</speed>
<extensions>
<speed>2.1</speed>
<temp>0.00</temp>
<bpm>0</bpm>
<rpm>0.00</rpm>
</extensions>
</trkpt>
<trkpt lat="63.853397369" lon="-22.018390656">
<ele>97.095703</ele>
<time>2012-07-28T15:25:56Z</time>
<speed>2.070000</speed>
<extensions>
<speed>2.1</speed>
<temp>0.00</temp>
<bpm>0</bpm>
<rpm>0.00</rpm>
</extensions>
</trkpt>
<trkpt lat="63.853488922" lon="-22.018463135">
<ele>97.746094</ele>
<time>2012-07-28T15:26:01Z</time>
<speed>2.170000</speed>
<extensions>
<speed>2.2</speed>
<temp>0.00</temp>
<bpm>0</bpm>
<rpm>0.00</rpm>
</extensions>
</trkpt>
<trkpt lat="63.853553772" lon="-22.018571854">
<ele>97.939453</ele>
<time>2012-07-28T15:26:06Z</time>
<speed>0.870000</speed>
<extensions>
<speed>0.9</speed>
<temp>0.00</temp>
<bpm>0</bpm>
<rpm>0.00</rpm>
</extensions>
</trkpt>
<trkpt lat="63.853569031" lon="-22.018747330">
<ele>97.322266</ele>
<time>2012-07-28T15:26:11Z</time>
<speed>2.480000</speed>
<extensions>
<speed>2.5</speed>
<temp>0.00</temp>
<bpm>0</bpm>
<rpm>0.00</rpm>
</extensions>
</trkpt>
<trkpt lat="63.853607178" lon="-22.018932343">
<ele>97.537109</ele>
<time>2012-07-28T15:26:16Z</time>
<speed>1.650000</speed>
<extensions>
<speed>1.7</speed>
<temp>0.00</temp>
<bpm>0</bpm>
<rpm>0.00</rpm>
</extensions>
</trkpt>
<trkpt lat="63.853649139" lon="-22.019104004">
<ele>98.484375</ele>
<time>2012-07-28T15:26:21Z</time>
<speed>1.900000</speed>
<extensions>
<speed>1.9</speed>
<temp>0.00</temp>
<bpm>0</bpm>
<rpm>0.00</rpm>
</extensions>
</trkpt>
<trkpt lat="63.853713989" lon="-22.019248962">
<ele>99.363281</ele>
<time>2012-07-28T15:26:26Z</time>
<speed>1.810000</speed>
<extensions>
<speed>1.8</speed>
<temp>0.00</temp>
<bpm>0</bpm>
<rpm>0.00</rpm>
</extensions>
</trkpt>
<trkpt lat="63.853755951" lon="-22.019304276">
<ele>99.306641</ele>
<time>2012-07-28T15:26:31Z</time>
<speed>0.040000</speed>
<extensions>
<speed>0.0</speed>
<temp>0.00</temp>
<bpm>0</bpm>
<rpm>0.00</rpm>
</extensions>
</trkpt>
<trkpt lat="63.853752136" lon="-22.019306183">
<ele>99.671875</ele>
<time>2012-07-28T15:26:36Z</time>
<speed>0.030000</speed>
<extensions>
<speed>0.0</speed>
<temp>0.00</temp>
<bpm>0</bpm>
<rpm>0.00</rpm>
</extensions>
</trkpt>
<trkpt lat="63.853752136" lon="-22.019306183">
<ele>99.708984</ele>
<time>2012-07-28T15:26:41Z</time>
<speed>0.010000</speed>
<extensions>
<speed>0.0</speed>
<temp>0.00</temp>
<bpm>0</bpm>
<rpm>0.00</rpm>
</extensions>
</trkpt>
<trkpt lat="63.853752136" lon="-22.019306183">
<ele>99.669922</ele>
<time>2012-07-28T15:26:46Z</time>
<speed>0.010000</speed>
<extensions>
<speed>0.0</speed>
<temp>0.00</temp>
<bpm>0</bpm>
<rpm>0.00</rpm>
</extensions>
</trkpt>
<trkpt lat="63.853752136" lon="-22.019306183">
<ele>99.652344</ele>
<time>2012-07-28T15:26:51Z</time>
<extensions>
<speed>0.0</speed>
<temp>0.00</temp>
<bpm>0</bpm>
<rpm>0.00</rpm>
</extensions>
</trkpt>
<trkpt lat="63.853752136" lon="-22.019304276">
<ele>99.683594</ele>
<time>2012-07-28T15:26:56Z</time>
<speed>0.040000</speed>
<extensions>
<speed>0.0</speed>
<temp>0.00</temp>
<bpm>0</bpm>
<rpm>0.00</rpm>
</extensions>
</trkpt>
<trkpt lat="63.853752136" lon="-22.019304276">
<ele>99.671875</ele>
<time>2012-07-28T15:27:01Z</time>
<speed>0.010000</speed>
<extensions>
<speed>0.0</speed>
<temp>0.00</temp>
<bpm>0</bpm>
<rpm>0.00</rpm>
</extensions>
</trkpt>
<trkpt lat="63.853752136" lon="-22.019292831">
<ele>100.542969</ele>
<time>2012-07-28T15:27:06Z</time>
<extensions>
<speed>0.0</speed>
<temp>0.00</temp>
<bpm>0</bpm>
<rpm>0.00</rpm>
</extensions>
</trkpt>
<trkpt lat="63.853752136" lon="-22.019292831">
<ele>100.556641</ele>
<time>2012-07-28T15:27:11Z</time>
<speed>0.010000</speed>
<extensions>
<speed>0.0</speed>
<temp>0.00</temp>
<bpm>0</bpm>
<rpm>0.00</rpm>
</extensions>
</trkpt>
<trkpt lat="63.853752136" lon="-22.019292831">
<ele>100.560547</ele>
<time>2012-07-28T15:27:16Z</time>
<extensions>
<speed>0.0</speed>
<temp>0.00</temp>
<bpm>0</bpm>
<rpm>0.00</rpm>
</extensions>
</trkpt>
<trkpt lat="63.853752136" lon="-22.019292831">
<ele>100.554688</ele>
<time>2012-07-28T15:27:21Z</time>
<speed>0.010000</speed>
<extensions>
<speed>0.0</speed>
<temp>0.00</temp>
<bpm>0</bpm>
<rpm>0.00</rpm>
</extensions>
</trkpt>
<trkpt lat="63.853752136" lon="-22.019292831">
<ele>100.542969</ele>
<time>2012-07-28T15:27:26Z</time>
<speed>0.010000</speed>
<extensions>
<speed>0.0</speed>
<temp>0.00</temp>
<bpm>0</bpm>
<rpm>0.00</rpm>
</extensions>
</trkpt>
<trkpt lat="63.853752136" lon="-22.019292831">
<ele>100.562500</ele>
<time>2012-07-28T15:27:31Z</time>
<speed>0.010000</speed>
<extensions>
<speed>0.0</speed>
<temp>0.00</temp>
<bpm>0</bpm>
<rpm>0.00</rpm>
</extensions>
</trkpt>
<trkpt lat="63.853752136" lon="-22.019292831">
<ele>100.583984</ele>
<time>2012-07-28T15:27:36Z</time>
<extensions>
<speed>0.0</speed>
<temp>0.00</temp>
<bpm>0</bpm>
<rpm>0.00</rpm>
</extensions>
</trkpt>
<trkpt lat="63.853752136" lon="-22.019292831">
<ele>100.582031</ele>
<time>2012-07-28T15:27:41Z</time>
<speed>0.010000</speed>
<extensions>
<speed>0.0</speed>
<temp>0.00</temp>
<bpm>0</bpm>
<rpm>0.00</rpm>
</extensions>
</trkpt>
<trkpt lat="63.853752136" lon="-22.019290924">
<ele>100.566406</ele>
<time>2012-07-28T15:27:46Z</time>
<extensions>
<speed>0.0</speed>
<temp>0.00</temp>
<bpm>0</bpm>
<rpm>0.00</rpm>
</extensions>
</trkpt>
<trkpt lat="63.853752136" lon="-22.019290924">
<ele>100.568359</ele>
<time>2012-07-28T15:27:51Z</time>
<extensions>
<speed>0.0</speed>
<temp>0.00</temp>
<bpm>0</bpm>
<rpm>0.00</rpm>
</extensions>
</trkpt>
<trkpt lat="63.853752136" lon="-22.019290924">
<ele>100.570313</ele>
<time>2012-07-28T15:27:56Z</time>
<speed>0.050000</speed>
<extensions>
<speed>0.1</speed>
<temp>0.00</temp>
<bpm>0</bpm>
<rpm>0.00</rpm>
</extensions>
</trkpt>
<trkpt lat="63.853752136" lon="-22.019290924">
<ele>100.556641</ele>
<time>2012-07-28T15:28:01Z</time>
<extensions>
<speed>0.0</speed>
<temp>0.00</temp>
<bpm>0</bpm>
<rpm>0.00</rpm>
</extensions>
</trkpt>
<trkpt lat="63.853752136" lon="-22.019289017">
<ele>100.535156</ele>
<time>2012-07-28T15:28:06Z</time>
<extensions>
<speed>0.0</speed>
<temp>0.00</temp>
<bpm>0</bpm>
<rpm>0.00</rpm>
</extensions>
</trkpt>
<trkpt lat="63.853752136" lon="-22.019289017">
<ele>100.529297</ele>
<time>2012-07-28T15:28:11Z</time>
<extensions>
<speed>0.0</speed>
<temp>0.00</temp>
<bpm>0</bpm>
<rpm>0.00</rpm>
</extensions>
</trkpt>
<trkpt lat="63.853752136" lon="-22.019289017">
<ele>100.533203</ele>
<time>2012-07-28T15:28:16Z</time>
<extensions>
<speed>0.0</speed>
<temp>0.00</temp>
<bpm>0</bpm>
<rpm>0.00</rpm>
</extensions>
</trkpt>
<trkpt lat="63.853752136" lon="-22.019289017">
<ele>100.539063</ele>
<time>2012-07-28T15:28:21Z</time>
<extensions>
<speed>0.0</speed>
<temp>0.00</temp>
<bpm>0</bpm>
<rpm>0.00</rpm>
</extensions>
</trkpt>
<trkpt lat="63.853752136" lon="-22.019289017">
<ele>100.548828</ele>
<time>2012-07-28T15:28:26Z</time>
<extensions>
<speed>0.0</speed>
<temp>0.00</temp>
<bpm>0</bpm>
<rpm>0.00</rpm>
</extensions>
</trkpt>
<trkpt lat="63.853752136" lon="-22.019289017">
<ele>100.556641</ele>
<time>2012-07-28T15:28:31Z</time>
<extensions>
<speed>0.0</speed>
<temp>0.00</temp>
<bpm>0</bpm>
<rpm>0.00</rpm>
</extensions>
</trkpt>
<trkpt lat="63.853752136" lon="-22.019289017">
<ele>100.554688</ele>
<time>2012-07-28T15:28:36Z</time>
<extensions>
<speed>0.0</speed>
<temp>0.00</temp>
<bpm>0</bpm>
<rpm>0.00</rpm>
</extensions>
</trkpt>
<trkpt lat="63.853752136" lon="-22.019289017">
<ele>100.548828</ele>
<time>2012-07-28T15:28:41Z</time>
<extensions>
<speed>0.0</speed>
<temp>0.00</temp>
<bpm>0</bpm>
<rpm>0.00</rpm>
</extensions>
</trkpt>
<trkpt lat="63.853752136" lon="-22.019289017">
<ele>100.542969</ele>
<time>2012-07-28T15:28:46Z</time>
<extensions>
<speed>0.0</speed>
<temp>0.00</temp>
<bpm>0</bpm>
<rpm>0.00</rpm>
</extensions>
</trkpt>
<trkpt lat="63.853752136" lon="-22.019287109">
<ele>100.544922</ele>
<time>2012-07-28T15:28:51Z</time>
<speed>0.010000</speed>
<extensions>
<speed>0.0</speed>
<temp>0.00</temp>
<bpm>0</bpm>
<rpm>0.00</rpm>
</extensions>
</trkpt>
<trkpt lat="63.853752136" lon="-22.019287109">
<ele>100.541016</ele>
<time>2012-07-28T15:28:56Z</time>
<extensions>
<speed>0.0</speed>
<temp>0.00</temp>
<bpm>0</bpm>
<rpm>0.00</rpm>
</extensions>
</trkpt>
<trkpt lat="63.853752136" lon="-22.019287109">
<ele>100.533203</ele>
<time>2012-07-28T15:29:01Z</time>
<extensions>
<speed>0.0</speed>
<temp>0.00</temp>
<bpm>0</bpm>
<rpm>0.00</rpm>
</extensions>
</trkpt>
<trkpt lat="63.853752136" lon="-22.019287109">
<ele>100.539063</ele>
<time>2012-07-28T15:29:06Z</time>
<extensions>
<speed>0.0</speed>
<temp>0.00</temp>
<bpm>0</bpm>
<rpm>0.00</rpm>
</extensions>
</trkpt>
<trkpt lat="63.853752136" lon="-22.019287109">
<ele>100.554688</ele>
<time>2012-07-28T15:29:11Z</time>
<extensions>
<speed>0.0</speed>
<temp>0.00</temp>
<bpm>0</bpm>
<rpm>0.00</rpm>
</extensions>
</trkpt>
<trkpt lat="63.853752136" lon="-22.019287109">
<ele>100.558594</ele>
<time>2012-07-28T15:29:16Z</time>
<extensions>
<speed>0.0</speed>
<temp>0.00</temp>
<bpm>0</bpm>
<rpm>0.00</rpm>
</extensions>
</trkpt>
<trkpt lat="63.853752136" lon="-22.019285202">
<ele>100.552734</ele>
<time>2012-07-28T15:29:21Z</time>
<speed>0.010000</speed>
<extensions>
<speed>0.0</speed>
<temp>0.00</temp>
<bpm>0</bpm>
<rpm>0.00</rpm>
</extensions>
</trkpt>
<trkpt lat="63.853752136" lon="-22.019285202">
<ele>100.548828</ele>
<time>2012-07-28T15:29:26Z</time>
<extensions>
<speed>0.0</speed>
<temp>0.00</temp>
<bpm>0</bpm>
<rpm>0.00</rpm>
</extensions>
</trkpt>
<trkpt lat="63.853752136" lon="-22.019285202">
<ele>100.544922</ele>
<time>2012-07-28T15:29:31Z</time>
<extensions>
<speed>0.0</speed>
<temp>0.00</temp>
<bpm>0</bpm>
<rpm>0.00</rpm>
</extensions>
</trkpt>
<trkpt lat="63.853752136" lon="-22.019285202">
<ele>100.542969</ele>
<time>2012-07-28T15:29:36Z</time>
<extensions>
<speed>0.0</speed>
<temp>0.00</temp>
<bpm>0</bpm>
<rpm>0.00</rpm>
</extensions>
</trkpt>
<trkpt lat="63.853752136" lon="-22.019285202">
<ele>100.539063</ele>
<time>2012-07-28T15:29:41Z</time>
<extensions>
<speed>0.0</speed>
<temp>0.00</temp>
<bpm>0</bpm>
<rpm>0.00</rpm>
</extensions>
</trkpt>
<trkpt lat="63.853752136" lon="-22.019285202">
<ele>100.544922</ele>
<time>2012-07-28T15:29:46Z</time>
<speed>0.010000</speed>
<extensions>
<speed>0.0</speed>
<temp>0.00</temp>
<bpm>0</bpm>
<rpm>0.00</rpm>
</extensions>
</trkpt>
<trkpt lat="63.853752136" lon="-22.019283295">
<ele>100.550781</ele>
<time>2012-07-28T15:29:51Z</time>
<extensions>
<speed>0.0</speed>
<temp>0.00</temp>
<bpm>0</bpm>
<rpm>0.00</rpm>
</extensions>
</trkpt>
<trkpt lat="63.853748322" lon="-22.019283295">
<ele>100.542969</ele>
<time>2012-07-28T15:29:56Z</time>
<extensions>
<speed>0.0</speed>
<temp>0.00</temp>
<bpm>0</bpm>
<rpm>0.00</rpm>
</extensions>
</trkpt>
<trkpt lat="63.853748322" lon="-22.019283295">
<ele>100.537109</ele>
<time>2012-07-28T15:30:01Z</time>
<speed>0.010000</speed>
<extensions>
<speed>0.0</speed>
<temp>0.00</temp>
<bpm>0</bpm>
<rpm>0.00</rpm>
</extensions>
</trkpt>
<trkpt lat="63.853748322" lon="-22.019283295">
<ele>100.535156</ele>
<time>2012-07-28T15:30:06Z</time>
<extensions>
<speed>0.0</speed>
<temp>0.00</temp>
<bpm>0</bpm>
<rpm>0.00</rpm>
</extensions>
</trkpt>
<trkpt lat="63.853748322" lon="-22.019283295">
<ele>100.527344</ele>
<time>2012-07-28T15:30:11Z</time>
<extensions>
<speed>0.0</speed>
<temp>0.00</temp>
<bpm>0</bpm>
<rpm>0.00</rpm>
</extensions>
</trkpt>
<trkpt lat="63.853748322" lon="-22.019283295">
<ele>100.507813</ele>
<time>2012-07-28T15:30:16Z</time>
<extensions>
<speed>0.0</speed>
<temp>0.00</temp>
<bpm>0</bpm>
<rpm>0.00</rpm>
</extensions>
</trkpt>
<trkpt lat="63.853748322" lon="-22.019281387">
<ele>100.490234</ele>
<time>2012-07-28T15:30:21Z</time>
<extensions>
<speed>0.0</speed>
<temp>0.00</temp>
<bpm>0</bpm>
<rpm>0.00</rpm>
</extensions>
</trkpt>
<trkpt lat="63.853748322" lon="-22.019281387">
<ele>100.482422</ele>
<time>2012-07-28T15:30:26Z</time>
<extensions>
<speed>0.0</speed>
<temp>0.00</temp>
<bpm>0</bpm>
<rpm>0.00</rpm>
</extensions>
</trkpt>
<trkpt lat="63.853748322" lon="-22.019281387">
<ele>100.482422</ele>
<time>2012-07-28T15:30:31Z</time>
<extensions>
<speed>0.0</speed>
<temp>0.00</temp>
<bpm>0</bpm>
<rpm>0.00</rpm>
</extensions>
</trkpt>
<trkpt lat="63.853748322" lon="-22.019281387">
<ele>100.480469</ele>
<time>2012-07-28T15:30:36Z</time>
<speed>0.010000</speed>
<extensions>
<speed>0.0</speed>
<temp>0.00</temp>
<bpm>0</bpm>
<rpm>0.00</rpm>
</extensions>
</trkpt>
<trkpt lat="63.853748322" lon="-22.019279480">
<ele>100.470703</ele>
<time>2012-07-28T15:30:41Z</time>
<speed>0.100000</speed>
<extensions>
<speed>0.1</speed>
<temp>0.00</temp>
<bpm>0</bpm>
<rpm>0.00</rpm>
</extensions>
</trkpt>
<trkpt lat="63.853748322" lon="-22.019279480">
<ele>100.474609</ele>
<time>2012-07-28T15:30:46Z</time>
<extensions>
<speed>0.0</speed>
<temp>0.00</temp>
<bpm>0</bpm>
<rpm>0.00</rpm>
</extensions>
</trkpt>
<trkpt lat="63.853748322" lon="-22.019279480">
<ele>100.470703</ele>
<time>2012-07-28T15:30:51Z</time>
<extensions>
<speed>0.0</speed>
<temp>0.00</temp>
<bpm>0</bpm>
<rpm>0.00</rpm>
</extensions>
</trkpt>
<trkpt lat="63.853748322" lon="-22.019277573">
<ele>100.455078</ele>
<time>2012-07-28T15:30:56Z</time>
<speed>0.010000</speed>
<extensions>
<speed>0.0</speed>
<temp>0.00</temp>
<bpm>0</bpm>
<rpm>0.00</rpm>
</extensions>
</trkpt>
<trkpt lat="63.853748322" lon="-22.019277573">
<ele>100.447266</ele>
<time>2012-07-28T15:31:01Z</time>
<extensions>
<speed>0.0</speed>
<temp>0.00</temp>
<bpm>0</bpm>
<rpm>0.00</rpm>
</extensions>
</trkpt>
<trkpt lat="63.853748322" lon="-22.019277573">
<ele>100.443359</ele>
<time>2012-07-28T15:31:06Z</time>
<extensions>
<speed>0.0</speed>
<temp>0.00</temp>
<bpm>0</bpm>
<rpm>0.00</rpm>
</extensions>
</trkpt>
<trkpt lat="63.853748322" lon="-22.019277573">
<ele>100.435547</ele>
<time>2012-07-28T15:31:11Z</time>
<speed>0.010000</speed>
<extensions>
<speed>0.0</speed>
<temp>0.00</temp>
<bpm>0</bpm>
<rpm>0.00</rpm>
</extensions>
</trkpt>
<trkpt lat="63.853748322" lon="-22.019275665">
<ele>100.429688</ele>
<time>2012-07-28T15:31:16Z</time>
<extensions>
<speed>0.0</speed>
<temp>0.00</temp>
<bpm>0</bpm>
<rpm>0.00</rpm>
</extensions>
</trkpt>
<trkpt lat="63.853748322" lon="-22.019275665">
<ele>100.431641</ele>
<time>2012-07-28T15:31:21Z</time>
<speed>0.020000</speed>
<extensions>
<speed>0.0</speed>
<temp>0.00</temp>
<bpm>0</bpm>
<rpm>0.00</rpm>
</extensions>
</trkpt>
<trkpt lat="63.853748322" lon="-22.019275665">
<ele>100.455078</ele>
<time>2012-07-28T15:31:26Z</time>
<speed>0.030000</speed>
<extensions>
<speed>0.0</speed>
<temp>0.00</temp>
<bpm>0</bpm>
<rpm>0.00</rpm>
</extensions>
</trkpt>
<trkpt lat="63.853759766" lon="-22.019289017">
<ele>100.607422</ele>
<time>2012-07-28T15:31:31Z</time>
<speed>0.960000</speed>
<extensions>
<speed>1.0</speed>
<temp>0.00</temp>
<bpm>0</bpm>
<rpm>0.00</rpm>
</extensions>
</trkpt>
<trkpt lat="63.853794098" lon="-22.019264221">
<ele>100.867188</ele>
<time>2012-07-28T15:31:36Z</time>
<speed>0.630000</speed>
<extensions>
<speed>0.6</speed>
<temp>0.00</temp>
<bpm>0</bpm>
<rpm>0.00</rpm>
</extensions>
</trkpt>
<trkpt lat="63.853797913" lon="-22.019269943">
<ele>102.031250</ele>
<time>2012-07-28T15:31:41Z</time>
<speed>0.100000</speed>
<extensions>
<speed>0.1</speed>
<temp>0.00</temp>
<bpm>0</bpm>
<rpm>0.00</rpm>
</extensions>
</trkpt>
<trkpt lat="63.853801727" lon="-22.019269943">
<ele>102.662109</ele>
<time>2012-07-28T15:31:46Z</time>
<speed>0.030000</speed>
<extensions>
<speed>0.0</speed>
<temp>0.00</temp>
<bpm>0</bpm>
<rpm>0.00</rpm>
</extensions>
</trkpt>
<trkpt lat="63.853797913" lon="-22.019271851">
<ele>102.906250</ele>
<time>2012-07-28T15:31:51Z</time>
<speed>0.110000</speed>
<extensions>
<speed>0.1</speed>
<temp>0.00</temp>
<bpm>0</bpm>
<rpm>0.00</rpm>
</extensions>
</trkpt>
<trkpt lat="63.853794098" lon="-22.019268036">
<ele>102.982422</ele>
<time>2012-07-28T15:31:56Z</time>
<speed>0.140000</speed>
<extensions>
<speed>0.1</speed>
<temp>0.00</temp>
<bpm>0</bpm>
<rpm>0.00</rpm>
</extensions>
</trkpt>
<trkpt lat="63.853790283" lon="-22.019256592">
<ele>102.990234</ele>
<time>2012-07-28T15:32:01Z</time>
<speed>0.150000</speed>
<extensions>
<speed>0.2</speed>
<temp>0.00</temp>
<bpm>0</bpm>
<rpm>0.00</rpm>
</extensions>
</trkpt>
<trkpt lat="63.853782654" lon="-22.019247055">
<ele>102.994141</ele>
<time>2012-07-28T15:32:06Z</time>
<speed>0.170000</speed>
<extensions>
<speed>0.2</speed>
<temp>0.00</temp>
<bpm>0</bpm>
<rpm>0.00</rpm>
</extensions>
</trkpt>
<trkpt lat="63.853775024" lon="-22.019239426">
<ele>103.001953</ele>
<time>2012-07-28T15:32:11Z</time>
<speed>0.150000</speed>
<extensions>
<speed>0.2</speed>
<temp>0.00</temp>
<bpm>0</bpm>
<rpm>0.00</rpm>
</extensions>
</trkpt>
<trkpt lat="63.853771210" lon="-22.019226074">
<ele>103.001953</ele>
<time>2012-07-28T15:32:16Z</time>
<speed>0.150000</speed>
<extensions>
<speed>0.2</speed>
<temp>0.00</temp>
<bpm>0</bpm>
<rpm>0.00</rpm>
</extensions>
</trkpt>
<trkpt lat="63.853767395" lon="-22.019220352">
<ele>103.003906</ele>
<time>2012-07-28T15:32:21Z</time>
<speed>0.100000</speed>
<extensions>
<speed>0.1</speed>
<temp>0.00</temp>
<bpm>0</bpm>
<rpm>0.00</rpm>
</extensions>
</trkpt>
<trkpt lat="63.853763580" lon="-22.019218445">
<ele>103.017578</ele>
<time>2012-07-28T15:32:26Z</time>
<speed>0.020000</speed>
<extensions>
<speed>0.0</speed>
<temp>0.00</temp>
<bpm>0</bpm>
<rpm>0.00</rpm>
</extensions>
</trkpt>
<trkpt lat="63.853759766" lon="-22.019220352">
<ele>103.035156</ele>
<time>2012-07-28T15:32:31Z</time>
<speed>0.150000</speed>
<extensions>
<speed>0.2</speed>
<temp>0.00</temp>
<bpm>0</bpm>
<rpm>0.00</rpm>
</extensions>
</trkpt>
<trkpt lat="63.853752136" lon="-22.019214630">
<ele>103.048828</ele>
<time>2012-07-28T15:32:36Z</time>
<speed>0.270000</speed>
<extensions>
<speed>0.3</speed>
<temp>0.00</temp>
<bpm>0</bpm>
<rpm>0.00</rpm>
</extensions>
</trkpt>
<trkpt lat="63.853744507" lon="-22.019205093">
<ele>103.068359</ele>
<time>2012-07-28T15:32:41Z</time>
<speed>0.180000</speed>
<extensions>
<speed>0.2</speed>
<temp>0.00</temp>
<bpm>0</bpm>
<rpm>0.00</rpm>
</extensions>
</trkpt>
<trkpt lat="63.853733063" lon="-22.019199371">
<ele>103.085938</ele>
<time>2012-07-28T15:32:46Z</time>
<speed>0.180000</speed>
<extensions>
<speed>0.2</speed>
<temp>0.00</temp>
<bpm>0</bpm>
<rpm>0.00</rpm>
</extensions>
</trkpt>
<trkpt lat="63.853729248" lon="-22.019189835">
<ele>103.093750</ele>
<time>2012-07-28T15:32:51Z</time>
<speed>0.210000</speed>
<extensions>
<speed>0.2</speed>
<temp>0.00</temp>
<bpm>0</bpm>
<rpm>0.00</rpm>
</extensions>
</trkpt>
<trkpt lat="63.853721619" lon="-22.019187927">
<ele>103.103516</ele>
<time>2012-07-28T15:32:56Z</time>
<speed>0.050000</speed>
<extensions>
<speed>0.1</speed>
<temp>0.00</temp>
<bpm>0</bpm>
<rpm>0.00</rpm>
</extensions>
</trkpt>
<trkpt lat="63.853725433" lon="-22.019189835">
<ele>103.115234</ele>
<time>2012-07-28T15:33:01Z</time>
<speed>0.170000</speed>
<extensions>
<speed>0.2</speed>
<temp>0.00</temp>
<bpm>0</bpm>
<rpm>0.00</rpm>
</extensions>
</trkpt>
<trkpt lat="63.853740692" lon="-22.019212723">
<ele>103.082031</ele>
<time>2012-07-28T15:33:06Z</time>
<speed>0.410000</speed>
<extensions>
<speed>0.4</speed>
<temp>0.00</temp>
<bpm>0</bpm>
<rpm>0.00</rpm>
</extensions>
</trkpt>
<trkpt lat="63.853759766" lon="-22.019252777">
<ele>102.730469</ele>
<time>2012-07-28T15:33:11Z</time>
<speed>0.280000</speed>
<extensions>
<speed>0.3</speed>
<temp>0.00</temp>
<bpm>0</bpm>
<rpm>0.00</rpm>
</extensions>
</trkpt>
<trkpt lat="63.853767395" lon="-22.019254684">
<ele>102.656250</ele>
<time>2012-07-28T15:33:16Z</time>
<speed>0.180000</speed>
<extensions>
<speed>0.2</speed>
<temp>0.00</temp>
<bpm>0</bpm>
<rpm>0.00</rpm>
</extensions>
</trkpt>
<trkpt lat="63.853775024" lon="-22.019262314">
<ele>102.580078</ele>
<time>2012-07-28T15:33:21Z</time>
<speed>0.220000</speed>
<extensions>
<speed>0.2</speed>
<temp>0.00</temp>
<bpm>0</bpm>
<rpm>0.00</rpm>
</extensions>
</trkpt>
<trkpt lat="63.853794098" lon="-22.019290924">
<ele>102.294922</ele>
<time>2012-07-28T15:33:26Z</time>
<speed>0.230000</speed>
<extensions>
<speed>0.2</speed>
<temp>0.00</temp>
<bpm>0</bpm>
<rpm>0.00</rpm>
</extensions>
</trkpt>
<trkpt lat="63.853801727" lon="-22.019336700">
<ele>102.041016</ele>
<time>2012-07-28T15:33:31Z</time>
<speed>0.230000</speed>
<extensions>
<speed>0.2</speed>
<temp>0.00</temp>
<bpm>0</bpm>
<rpm>0.00</rpm>
</extensions>
</trkpt>
<trkpt lat="63.853797913" lon="-22.019327164">
<ele>101.798828</ele>
<time>2012-07-28T15:33:36Z</time>
<speed>0.250000</speed>
<extensions>
<speed>0.2</speed>
<temp>0.00</temp>
<bpm>0</bpm>
<rpm>0.00</rpm>
</extensions>
</trkpt>
<trkpt lat="63.853801727" lon="-22.019340515">
<ele>101.787109</ele>
<time>2012-07-28T15:33:41Z</time>
<speed>0.140000</speed>
<extensions>
<speed>0.1</speed>
<temp>0.00</temp>
<bpm>0</bpm>
<rpm>0.00</rpm>
</extensions>
</trkpt>
<trkpt lat="63.853805542" lon="-22.019342422">
<ele>101.753906</ele>
<time>2012-07-28T15:33:46Z</time>
<speed>0.060000</speed>
<extensions>
<speed>0.1</speed>
<temp>0.00</temp>
<bpm>0</bpm>
<rpm>0.00</rpm>
</extensions>
</trkpt>
<trkpt lat="63.853809357" lon="-22.019340515">
<ele>101.710938</ele>
<time>2012-07-28T15:33:51Z</time>
<speed>0.220000</speed>
<extensions>
<speed>0.2</speed>
<temp>0.00</temp>
<bpm>0</bpm>
<rpm>0.00</rpm>
</extensions>
</trkpt>
<trkpt lat="63.853816986" lon="-22.019340515">
<ele>101.648438</ele>
<time>2012-07-28T15:33:56Z</time>
<speed>0.140000</speed>
<extensions>
<speed>0.1</speed>
<temp>0.00</temp>
<bpm>0</bpm>
<rpm>0.00</rpm>
</extensions>
</trkpt>
<trkpt lat="63.853820801" lon="-22.019342422">
<ele>101.548828</ele>
<time>2012-07-28T15:34:01Z</time>
<speed>0.160000</speed>
<extensions>
<speed>0.2</speed>
<temp>0.00</temp>
<bpm>0</bpm>
<rpm>0.00</rpm>
</extensions>
</trkpt>
<trkpt lat="63.853824615" lon="-22.019340515">
<ele>101.468750</ele>
<time>2012-07-28T15:34:06Z</time>
<speed>0.120000</speed>
<extensions>
<speed>0.1</speed>
<temp>0.00</temp>
<bpm>0</bpm>
<rpm>0.00</rpm>
</extensions>
</trkpt>
<trkpt lat="63.853820801" lon="-22.019329071">
<ele>101.400391</ele>
<time>2012-07-28T15:34:11Z</time>
<speed>0.180000</speed>
<extensions>
<speed>0.2</speed>
<temp>0.00</temp>
<bpm>0</bpm>
<rpm>0.00</rpm>
</extensions>
</trkpt>
<trkpt lat="63.853813171" lon="-22.019319534">
<ele>101.355469</ele>
<time>2012-07-28T15:34:16Z</time>
<speed>0.330000</speed>
<extensions>
<speed>0.3</speed>
<temp>0.00</temp>
<bpm>0</bpm>
<rpm>0.00</rpm>
</extensions>
</trkpt>
<trkpt lat="63.853763580" lon="-22.019289017">
<ele>102.207031</ele>
<time>2012-07-28T15:34:21Z</time>
<speed>0.150000</speed>
<extensions>
<speed>0.2</speed>
<temp>0.00</temp>
<bpm>0</bpm>
<rpm>0.00</rpm>
</extensions>
</trkpt>
<trkpt lat="63.853771210" lon="-22.019290924">
<ele>102.255859</ele>
<time>2012-07-28T15:34:26Z</time>
<speed>0.200000</speed>
<extensions>
<speed>0.2</speed>
<temp>0.00</temp>
<bpm>0</bpm>
<rpm>0.00</rpm>
</extensions>
</trkpt>
<trkpt lat="63.853790283" lon="-22.019306183">
<ele>102.396484</ele>
<time>2012-07-28T15:34:31Z</time>
<speed>0.310000</speed>
<extensions>
<speed>0.3</speed>
<temp>0.00</temp>
<bpm>0</bpm>
<rpm>0.00</rpm>
</extensions>
</trkpt>
<trkpt lat="63.853782654" lon="-22.019287109">
<ele>102.382813</ele>
<time>2012-07-28T15:34:36Z</time>
<speed>0.080000</speed>
<extensions>
<speed>0.1</speed>
<temp>0.00</temp>
<bpm>0</bpm>
<rpm>0.00</rpm>
</extensions>
</trkpt>
<trkpt lat="63.853782654" lon="-22.019290924">
<ele>102.353516</ele>
<time>2012-07-28T15:34:41Z</time>
<speed>0.130000</speed>
<extensions>
<speed>0.1</speed>
<temp>0.00</temp>
<bpm>0</bpm>
<rpm>0.00</rpm>
</extensions>
</trkpt>
<trkpt lat="63.853775024" lon="-22.019287109">
<ele>102.351563</ele>
<time>2012-07-28T15:34:46Z</time>
<speed>0.010000</speed>
<extensions>
<speed>0.0</speed>
<temp>0.00</temp>
<bpm>0</bpm>
<rpm>0.00</rpm>
</extensions>
</trkpt>
<trkpt lat="63.853775024" lon="-22.019285202">
<ele>102.367188</ele>
<time>2012-07-28T15:34:51Z</time>
<speed>0.070000</speed>
<extensions>
<speed>0.1</speed>
<temp>0.00</temp>
<bpm>0</bpm>
<rpm>0.00</rpm>
</extensions>
</trkpt>
<trkpt lat="63.853771210" lon="-22.019277573">
<ele>102.384766</ele>
<time>2012-07-28T15:34:56Z</time>
<speed>0.220000</speed>
<extensions>
<speed>0.2</speed>
<temp>0.00</temp>
<bpm>0</bpm>
<rpm>0.00</rpm>
</extensions>
</trkpt>
<trkpt lat="63.853763580" lon="-22.019269943">
<ele>102.416016</ele>
<time>2012-07-28T15:35:01Z</time>
<speed>0.060000</speed>
<extensions>
<speed>0.1</speed>
<temp>0.00</temp>
<bpm>0</bpm>
<rpm>0.00</rpm>
</extensions>
</trkpt>
<trkpt lat="63.853763580" lon="-22.019268036">
<ele>102.423828</ele>
<time>2012-07-28T15:35:06Z</time>
<speed>0.040000</speed>
<extensions>
<speed>0.0</speed>
<temp>0.00</temp>
<bpm>0</bpm>
<rpm>0.00</rpm>
</extensions>
</trkpt>
<trkpt lat="63.853763580" lon="-22.019264221">
<ele>102.429688</ele>
<time>2012-07-28T15:35:11Z</time>
<speed>0.030000</speed>
<extensions>
<speed>0.0</speed>
<temp>0.00</temp>
<bpm>0</bpm>
<rpm>0.00</rpm>
</extensions>
</trkpt>
<trkpt lat="63.853767395" lon="-22.019271851">
<ele>102.425781</ele>
<time>2012-07-28T15:35:16Z</time>
<speed>0.180000</speed>
<extensions>
<speed>0.2</speed>
<temp>0.00</temp>
<bpm>0</bpm>
<rpm>0.00</rpm>
</extensions>
</trkpt>
<trkpt lat="63.853775024" lon="-22.019277573">
<ele>102.412109</ele>
<time>2012-07-28T15:35:21Z</time>
<speed>0.050000</speed>
<extensions>
<speed>0.1</speed>
<temp>0.00</temp>
<bpm>0</bpm>
<rpm>0.00</rpm>
</extensions>
</trkpt>
<trkpt lat="63.853778839" lon="-22.019281387">
<ele>102.417969</ele>
<time>2012-07-28T15:35:26Z</time>
<speed>0.060000</speed>
<extensions>
<speed>0.1</speed>
<temp>0.00</temp>
<bpm>0</bpm>
<rpm>0.00</rpm>
</extensions>
</trkpt>
<trkpt lat="63.853778839" lon="-22.019283295">
<ele>102.408203</ele>
<time>2012-07-28T15:35:31Z</time>
<speed>0.030000</speed>
<extensions>
<speed>0.0</speed>
<temp>0.00</temp>
<bpm>0</bpm>
<rpm>0.00</rpm>
</extensions>
</trkpt>
<trkpt lat="63.853778839" lon="-22.019287109">
<ele>102.384766</ele>
<time>2012-07-28T15:35:36Z</time>
<speed>0.120000</speed>
<extensions>
<speed>0.1</speed>
<temp>0.00</temp>
<bpm>0</bpm>
<rpm>0.00</rpm>
</extensions>
</trkpt>
<trkpt lat="63.853775024" lon="-22.019289017">
<ele>102.382813</ele>
<time>2012-07-28T15:35:41Z</time>
<speed>0.060000</speed>
<extensions>
<speed>0.1</speed>
<temp>0.00</temp>
<bpm>0</bpm>
<rpm>0.00</rpm>
</extensions>
</trkpt>
<trkpt lat="63.853775024" lon="-22.019296646">
<ele>102.402344</ele>
<time>2012-07-28T15:35:46Z</time>
<speed>0.080000</speed>
<extensions>
<speed>0.1</speed>
<temp>0.00</temp>
<bpm>0</bpm>
<rpm>0.00</rpm>
</extensions>
</trkpt>
<trkpt lat="63.853771210" lon="-22.019298553">
<ele>102.414063</ele>
<time>2012-07-28T15:35:51Z</time>
<speed>0.190000</speed>
<extensions>
<speed>0.2</speed>
<temp>0.00</temp>
<bpm>0</bpm>
<rpm>0.00</rpm>
</extensions>
</trkpt>
<trkpt lat="63.853763580" lon="-22.019287109">
<ele>102.425781</ele>
<time>2012-07-28T15:35:56Z</time>
<speed>0.260000</speed>
<extensions>
<speed>0.3</speed>
<temp>0.00</temp>
<bpm>0</bpm>
<rpm>0.00</rpm>
</extensions>
</trkpt>
<trkpt lat="63.853755951" lon="-22.019279480">
<ele>102.421875</ele>
<time>2012-07-28T15:36:01Z</time>
<speed>0.090000</speed>
<extensions>
<speed>0.1</speed>
<temp>0.00</temp>
<bpm>0</bpm>
<rpm>0.00</rpm>
</extensions>
</trkpt>
<trkpt lat="63.853752136" lon="-22.019283295">
<ele>102.435547</ele>
<time>2012-07-28T15:36:06Z</time>
<speed>0.070000</speed>
<extensions>
<speed>0.1</speed>
<temp>0.00</temp>
<bpm>0</bpm>
<rpm>0.00</rpm>
</extensions>
</trkpt>
<trkpt lat="63.853748322" lon="-22.019277573">
<ele>102.437500</ele>
<time>2012-07-28T15:36:11Z</time>
<speed>0.080000</speed>
<extensions>
<speed>0.1</speed>
<temp>0.00</temp>
<bpm>0</bpm>
<rpm>0.00</rpm>
</extensions>
</trkpt>
<trkpt lat="63.853744507" lon="-22.019281387">
<ele>102.431641</ele>
<time>2012-07-28T15:36:16Z</time>
<speed>0.060000</speed>
<extensions>
<speed>0.1</speed>
<temp>0.00</temp>
<bpm>0</bpm>
<rpm>0.00</rpm>
</extensions>
</trkpt>
<trkpt lat="63.853740692" lon="-22.019273758">
<ele>102.435547</ele>
<time>2012-07-28T15:36:21Z</time>
<speed>0.120000</speed>
<extensions>
<speed>0.1</speed>
<temp>0.00</temp>
<bpm>0</bpm>
<rpm>0.00</rpm>
</extensions>
</trkpt>
<trkpt lat="63.853736877" lon="-22.019269943">
<ele>102.441406</ele>
<time>2012-07-28T15:36:26Z</time>
<speed>0.120000</speed>
<extensions>
<speed>0.1</speed>
<temp>0.00</temp>
<bpm>0</bpm>
<rpm>0.00</rpm>
</extensions>
</trkpt>
<trkpt lat="63.853733063" lon="-22.019266129">
<ele>102.431641</ele>
<time>2012-07-28T15:36:31Z</time>
<speed>0.060000</speed>
<extensions>
<speed>0.1</speed>
<temp>0.00</temp>
<bpm>0</bpm>
<rpm>0.00</rpm>
</extensions>
</trkpt>
<trkpt lat="63.853733063" lon="-22.019266129">
<ele>102.433594</ele>
<time>2012-07-28T15:36:36Z</time>
<speed>0.130000</speed>
<extensions>
<speed>0.1</speed>
<temp>0.00</temp>
<bpm>0</bpm>
<rpm>0.00</rpm>
</extensions>
</trkpt>
<trkpt lat="63.853729248" lon="-22.019260406">
<ele>102.417969</ele>
<time>2012-07-28T15:36:41Z</time>
<speed>0.090000</speed>
<extensions>
<speed>0.1</speed>
<temp>0.00</temp>
<bpm>0</bpm>
<rpm>0.00</rpm>
</extensions>
</trkpt>
<trkpt lat="63.853725433" lon="-22.019262314">
<ele>102.417969</ele>
<time>2012-07-28T15:36:46Z</time>
<speed>0.060000</speed>
<extensions>
<speed>0.1</speed>
<temp>0.00</temp>
<bpm>0</bpm>
<rpm>0.00</rpm>
</extensions>
</trkpt>
<trkpt lat="63.853721619" lon="-22.019264221">
<ele>102.433594</ele>
<time>2012-07-28T15:36:51Z</time>
<speed>0.090000</speed>
<extensions>
<speed>0.1</speed>
<temp>0.00</temp>
<bpm>0</bpm>
<rpm>0.00</rpm>
</extensions>
</trkpt>
<trkpt lat="63.853725433" lon="-22.019269943">
<ele>102.437500</ele>
<time>2012-07-28T15:36:56Z</time>
<speed>0.180000</speed>
<extensions>
<speed>0.2</speed>
<temp>0.00</temp>
<bpm>0</bpm>
<rpm>0.00</rpm>
</extensions>
</trkpt>
<trkpt lat="63.853725433" lon="-22.019277573">
<ele>102.437500</ele>
<time>2012-07-28T15:37:01Z</time>
<speed>0.130000</speed>
<extensions>
<speed>0.1</speed>
<temp>0.00</temp>
<bpm>0</bpm>
<rpm>0.00</rpm>
</extensions>
</trkpt>
<trkpt lat="63.853725433" lon="-22.019279480">
<ele>102.453125</ele>
<time>2012-07-28T15:37:06Z</time>
<speed>0.090000</speed>
<extensions>
<speed>0.1</speed>
<temp>0.00</temp>
<bpm>0</bpm>
<rpm>0.00</rpm>
</extensions>
</trkpt>
<trkpt lat="63.853725433" lon="-22.019273758">
<ele>102.460938</ele>
<time>2012-07-28T15:37:11Z</time>
<speed>0.050000</speed>
<extensions>
<speed>0.1</speed>
<temp>0.00</temp>
<bpm>0</bpm>
<rpm>0.00</rpm>
</extensions>
</trkpt>
<trkpt lat="63.853729248" lon="-22.019275665">
<ele>102.445313</ele>
<time>2012-07-28T15:37:16Z</time>
<speed>0.390000</speed>
<extensions>
<speed>0.4</speed>
<temp>0.00</temp>
<bpm>0</bpm>
<rpm>0.00</rpm>
</extensions>
</trkpt>
<trkpt lat="63.853752136" lon="-22.019273758">
<ele>102.164063</ele>
<time>2012-07-28T15:37:21Z</time>
<speed>0.320000</speed>
<extensions>
<speed>0.3</speed>
<temp>0.00</temp>
<bpm>0</bpm>
<rpm>0.00</rpm>
</extensions>
</trkpt>
<trkpt lat="63.853755951" lon="-22.019248962">
<ele>102.021484</ele>
<time>2012-07-28T15:37:26Z</time>
<speed>0.120000</speed>
<extensions>
<speed>0.1</speed>
<temp>0.00</temp>
<bpm>0</bpm>
<rpm>0.00</rpm>
</extensions>
</trkpt>
<trkpt lat="63.853759766" lon="-22.019252777">
<ele>101.964844</ele>
<time>2012-07-28T15:37:31Z</time>
<speed>0.230000</speed>
<extensions>
<speed>0.2</speed>
<temp>0.00</temp>
<bpm>0</bpm>
<rpm>0.00</rpm>
</extensions>
</trkpt>
<trkpt lat="63.853767395" lon="-22.019266129">
<ele>101.947266</ele>
<time>2012-07-28T15:37:36Z</time>
<speed>0.020000</speed>
<extensions>
<speed>0.0</speed>
<temp>0.00</temp>
<bpm>0</bpm>
<rpm>0.00</rpm>
</extensions>
</trkpt>
<trkpt lat="63.853767395" lon="-22.019269943">
<ele>101.933594</ele>
<time>2012-07-28T15:37:41Z</time>
<speed>0.080000</speed>
<extensions>
<speed>0.1</speed>
<temp>0.00</temp>
<bpm>0</bpm>
<rpm>0.00</rpm>
</extensions>
</trkpt>
<trkpt lat="63.853767395" lon="-22.019273758">
<ele>101.933594</ele>
<time>2012-07-28T15:37:46Z</time>
<speed>0.150000</speed>
<extensions>
<speed>0.2</speed>
<temp>0.00</temp>
<bpm>0</bpm>
<rpm>0.00</rpm>
</extensions>
</trkpt>
<trkpt lat="63.853771210" lon="-22.019275665">
<ele>101.935547</ele>
<time>2012-07-28T15:37:51Z</time>
<speed>0.070000</speed>
<extensions>
<speed>0.1</speed>
<temp>0.00</temp>
<bpm>0</bpm>
<rpm>0.00</rpm>
</extensions>
</trkpt>
<trkpt lat="63.853767395" lon="-22.019273758">
<ele>101.927734</ele>
<time>2012-07-28T15:37:56Z</time>
<speed>0.270000</speed>
<extensions>
<speed>0.3</speed>
<temp>0.00</temp>
<bpm>0</bpm>
<rpm>0.00</rpm>
</extensions>
</trkpt>
<trkpt lat="63.853759766" lon="-22.019262314">
<ele>101.927734</ele>
<time>2012-07-28T15:38:01Z</time>
<speed>0.020000</speed>
<extensions>
<speed>0.0</speed>
<temp>0.00</temp>
<bpm>0</bpm>
<rpm>0.00</rpm>
</extensions>
</trkpt>
<trkpt lat="63.853755951" lon="-22.019258499">
<ele>101.925781</ele>
<time>2012-07-28T15:38:06Z</time>
<speed>0.160000</speed>
<extensions>
<speed>0.2</speed>
<temp>0.00</temp>
<bpm>0</bpm>
<rpm>0.00</rpm>
</extensions>
</trkpt>
<trkpt lat="63.853752136" lon="-22.019252777">
<ele>101.923828</ele>
<time>2012-07-28T15:38:11Z</time>
<speed>0.050000</speed>
<extensions>
<speed>0.1</speed>
<temp>0.00</temp>
<bpm>0</bpm>
<rpm>0.00</rpm>
</extensions>
</trkpt>
<trkpt lat="63.853752136" lon="-22.019250870">
<ele>101.892578</ele>
<time>2012-07-28T15:38:16Z</time>
<speed>0.090000</speed>
<extensions>
<speed>0.1</speed>
<temp>0.00</temp>
<bpm>0</bpm>
<rpm>0.00</rpm>
</extensions>
</trkpt>
<trkpt lat="63.853752136" lon="-22.019245148">
<ele>101.878906</ele>
<time>2012-07-28T15:38:21Z</time>
<speed>0.030000</speed>
<extensions>
<speed>0.0</speed>
<temp>0.00</temp>
<bpm>0</bpm>
<rpm>0.00</rpm>
</extensions>
</trkpt>
<trkpt lat="63.853755951" lon="-22.019245148">
<ele>101.873047</ele>
<time>2012-07-28T15:38:26Z</time>
<speed>0.010000</speed>
<extensions>
<speed>0.0</speed>
<temp>0.00</temp>
<bpm>0</bpm>
<rpm>0.00</rpm>
</extensions>
</trkpt>
<trkpt lat="63.853755951" lon="-22.019245148">
<ele>101.882813</ele>
<time>2012-07-28T15:38:31Z</time>
<speed>0.040000</speed>
<extensions>
<speed>0.0</speed>
<temp>0.00</temp>
<bpm>0</bpm>
<rpm>0.00</rpm>
</extensions>
</trkpt>
<trkpt lat="63.853755951" lon="-22.019248962">
<ele>101.884766</ele>
<time>2012-07-28T15:38:36Z</time>
<speed>0.070000</speed>
<extensions>
<speed>0.1</speed>
<temp>0.00</temp>
<bpm>0</bpm>
<rpm>0.00</rpm>
</extensions>
</trkpt>
<trkpt lat="63.853752136" lon="-22.019252777">
<ele>101.900391</ele>
<time>2012-07-28T15:38:41Z</time>
<speed>0.120000</speed>
<extensions>
<speed>0.1</speed>
<temp>0.00</temp>
<bpm>0</bpm>
<rpm>0.00</rpm>
</extensions>
</trkpt>
<trkpt lat="63.853752136" lon="-22.019258499">
<ele>101.916016</ele>
<time>2012-07-28T15:38:46Z</time>
<speed>0.140000</speed>
<extensions>
<speed>0.1</speed>
<temp>0.00</temp>
<bpm>0</bpm>
<rpm>0.00</rpm>
</extensions>
</trkpt>
<trkpt lat="63.853744507" lon="-22.019248962">
<ele>101.931641</ele>
<time>2012-07-28T15:38:51Z</time>
<speed>0.200000</speed>
<extensions>
<speed>0.2</speed>
<temp>0.00</temp>
<bpm>0</bpm>
<rpm>0.00</rpm>
</extensions>
</trkpt>
<trkpt lat="63.853740692" lon="-22.019239426">
<ele>101.917969</ele>
<time>2012-07-28T15:38:56Z</time>
<speed>0.040000</speed>
<extensions>
<speed>0.0</speed>
<temp>0.00</temp>
<bpm>0</bpm>
<rpm>0.00</rpm>
</extensions>
</trkpt>
<trkpt lat="63.853744507" lon="-22.019235611">
<ele>101.904297</ele>
<time>2012-07-28T15:39:01Z</time>
<speed>0.080000</speed>
<extensions>
<speed>0.1</speed>
<temp>0.00</temp>
<bpm>0</bpm>
<rpm>0.00</rpm>
</extensions>
</trkpt>
<trkpt lat="63.853748322" lon="-22.019241333">
<ele>101.906250</ele>
<time>2012-07-28T15:39:06Z</time>
<speed>0.050000</speed>
<extensions>
<speed>0.1</speed>
<temp>0.00</temp>
<bpm>0</bpm>
<rpm>0.00</rpm>
</extensions>
</trkpt>
<trkpt lat="63.853748322" lon="-22.019233704">
<ele>101.894531</ele>
<time>2012-07-28T15:39:11Z</time>
<speed>0.110000</speed>
<extensions>
<speed>0.1</speed>
<temp>0.00</temp>
<bpm>0</bpm>
<rpm>0.00</rpm>
</extensions>
</trkpt>
<trkpt lat="63.853752136" lon="-22.019233704">
<ele>101.861328</ele>
<time>2012-07-28T15:39:16Z</time>
<speed>0.100000</speed>
<extensions>
<speed>0.1</speed>
<temp>0.00</temp>
<bpm>0</bpm>
<rpm>0.00</rpm>
</extensions>
</trkpt>
<trkpt lat="63.853755951" lon="-22.019233704">
<ele>101.812500</ele>
<time>2012-07-28T15:39:21Z</time>
<speed>0.140000</speed>
<extensions>
<speed>0.1</speed>
<temp>0.00</temp>
<bpm>0</bpm>
<rpm>0.00</rpm>
</extensions>
</trkpt>
<trkpt lat="63.853763580" lon="-22.019235611">
<ele>101.767578</ele>
<time>2012-07-28T15:39:26Z</time>
<speed>0.150000</speed>
<extensions>
<speed>0.2</speed>
<temp>0.00</temp>
<bpm>0</bpm>
<rpm>0.00</rpm>
</extensions>
</trkpt>
<trkpt lat="63.853771210" lon="-22.019245148">
<ele>101.714844</ele>
<time>2012-07-28T15:39:31Z</time>
<speed>0.080000</speed>
<extensions>
<speed>0.1</speed>
<temp>0.00</temp>
<bpm>0</bpm>
<rpm>0.00</rpm>
</extensions>
</trkpt>
<trkpt lat="63.853771210" lon="-22.019252777">
<ele>101.697266</ele>
<time>2012-07-28T15:39:36Z</time>
<speed>0.020000</speed>
<extensions>
<speed>0.0</speed>
<temp>0.00</temp>
<bpm>0</bpm>
<rpm>0.00</rpm>
</extensions>
</trkpt>
<trkpt lat="63.853771210" lon="-22.019252777">
<ele>101.660156</ele>
<time>2012-07-28T15:39:41Z</time>
<speed>0.090000</speed>
<extensions>
<speed>0.1</speed>
<temp>0.00</temp>
<bpm>0</bpm>
<rpm>0.00</rpm>
</extensions>
</trkpt>
<trkpt lat="63.853767395" lon="-22.019254684">
<ele>101.615234</ele>
<time>2012-07-28T15:39:46Z</time>
<speed>0.170000</speed>
<extensions>
<speed>0.2</speed>
<temp>0.00</temp>
<bpm>0</bpm>
<rpm>0.00</rpm>
</extensions>
</trkpt>
<trkpt lat="63.853763580" lon="-22.019248962">
<ele>101.566406</ele>
<time>2012-07-28T15:39:51Z</time>
<speed>0.010000</speed>
<extensions>
<speed>0.0</speed>
<temp>0.00</temp>
<bpm>0</bpm>
<rpm>0.00</rpm>
</extensions>
</trkpt>
<trkpt lat="63.853763580" lon="-22.019250870">
<ele>101.505859</ele>
<time>2012-07-28T15:39:56Z</time>
<speed>0.060000</speed>
<extensions>
<speed>0.1</speed>
<temp>0.00</temp>
<bpm>0</bpm>
<rpm>0.00</rpm>
</extensions>
</trkpt>
<trkpt lat="63.853759766" lon="-22.019250870">
<ele>101.464844</ele>
<time>2012-07-28T15:40:01Z</time>
<speed>0.070000</speed>
<extensions>
<speed>0.1</speed>
<temp>0.00</temp>
<bpm>0</bpm>
<rpm>0.00</rpm>
</extensions>
</trkpt>
<trkpt lat="63.853763580" lon="-22.019258499">
<ele>101.419922</ele>
<time>2012-07-28T15:40:06Z</time>
<speed>0.050000</speed>
<extensions>
<speed>0.1</speed>
<temp>0.00</temp>
<bpm>0</bpm>
<rpm>0.00</rpm>
</extensions>
</trkpt>
<trkpt lat="63.853763580" lon="-22.019256592">
<ele>101.382813</ele>
<time>2012-07-28T15:40:11Z</time>
<speed>0.040000</speed>
<extensions>
<speed>0.0</speed>
<temp>0.00</temp>
<bpm>0</bpm>
<rpm>0.00</rpm>
</extensions>
</trkpt>
<trkpt lat="63.853763580" lon="-22.019264221">
<ele>101.375000</ele>
<time>2012-07-28T15:40:16Z</time>
<speed>0.050000</speed>
<extensions>
<speed>0.1</speed>
<temp>0.00</temp>
<bpm>0</bpm>
<rpm>0.00</rpm>
</extensions>
</trkpt>
<trkpt lat="63.853767395" lon="-22.019268036">
<ele>101.347656</ele>
<time>2012-07-28T15:40:21Z</time>
<speed>0.050000</speed>
<extensions>
<speed>0.1</speed>
<temp>0.00</temp>
<bpm>0</bpm>
<rpm>0.00</rpm>
</extensions>
</trkpt>
<trkpt lat="63.853771210" lon="-22.019275665">
<ele>101.281250</ele>
<time>2012-07-28T15:40:26Z</time>
<speed>0.050000</speed>
<extensions>
<speed>0.1</speed>
<temp>0.00</temp>
<bpm>0</bpm>
<rpm>0.00</rpm>
</extensions>
</trkpt>
<trkpt lat="63.853771210" lon="-22.019281387">
<ele>101.255859</ele>
<time>2012-07-28T15:40:31Z</time>
<speed>0.070000</speed>
<extensions>
<speed>0.1</speed>
<temp>0.00</temp>
<bpm>0</bpm>
<rpm>0.00</rpm>
</extensions>
</trkpt>
<trkpt lat="63.853767395" lon="-22.019283295">
<ele>101.234375</ele>
<time>2012-07-28T15:40:36Z</time>
<speed>0.020000</speed>
<extensions>
<speed>0.0</speed>
<temp>0.00</temp>
<bpm>0</bpm>
<rpm>0.00</rpm>
</extensions>
</trkpt>
<trkpt lat="63.853771210" lon="-22.019287109">
<ele>101.222656</ele>
<time>2012-07-28T15:40:41Z</time>
<speed>0.130000</speed>
<extensions>
<speed>0.1</speed>
<temp>0.00</temp>
<bpm>0</bpm>
<rpm>0.00</rpm>
</extensions>
</trkpt>
<trkpt lat="63.853775024" lon="-22.019292831">
<ele>101.216797</ele>
<time>2012-07-28T15:40:46Z</time>
<speed>0.020000</speed>
<extensions>
<speed>0.0</speed>
<temp>0.00</temp>
<bpm>0</bpm>
<rpm>0.00</rpm>
</extensions>
</trkpt>
<trkpt lat="63.853775024" lon="-22.019292831">
<ele>101.205078</ele>
<time>2012-07-28T15:40:51Z</time>
<speed>0.080000</speed>
<extensions>
<speed>0.1</speed>
<temp>0.00</temp>
<bpm>0</bpm>
<rpm>0.00</rpm>
</extensions>
</trkpt>
<trkpt lat="63.853782654" lon="-22.019300461">
<ele>101.162109</ele>
<time>2012-07-28T15:40:56Z</time>
<speed>0.290000</speed>
<extensions>
<speed>0.3</speed>
<temp>0.00</temp>
<bpm>0</bpm>
<rpm>0.00</rpm>
</extensions>
</trkpt>
<trkpt lat="63.853782654" lon="-22.019306183">
<ele>101.132813</ele>
<time>2012-07-28T15:41:01Z</time>
<extensions>
<speed>0.0</speed>
<temp>0.00</temp>
<bpm>0</bpm>
<rpm>0.00</rpm>
</extensions>
</trkpt>
<trkpt lat="63.853778839" lon="-22.019302368">
<ele>101.093750</ele>
<time>2012-07-28T15:41:06Z</time>
<speed>0.170000</speed>
<extensions>
<speed>0.2</speed>
<temp>0.00</temp>
<bpm>0</bpm>
<rpm>0.00</rpm>
</extensions>
</trkpt>
<trkpt lat="63.853771210" lon="-22.019296646">
<ele>101.052734</ele>
<time>2012-07-28T15:41:11Z</time>
<speed>0.120000</speed>
<extensions>
<speed>0.1</speed>
<temp>0.00</temp>
<bpm>0</bpm>
<rpm>0.00</rpm>
</extensions>
</trkpt>
<trkpt lat="63.853771210" lon="-22.019294739">
<ele>101.019531</ele>
<time>2012-07-28T15:41:16Z</time>
<speed>0.030000</speed>
<extensions>
<speed>0.0</speed>
<temp>0.00</temp>
<bpm>0</bpm>
<rpm>0.00</rpm>
</extensions>
</trkpt>
<trkpt lat="63.853767395" lon="-22.019292831">
<ele>100.990234</ele>
<time>2012-07-28T15:41:21Z</time>
<speed>0.010000</speed>
<extensions>
<speed>0.0</speed>
<temp>0.00</temp>
<bpm>0</bpm>
<rpm>0.00</rpm>
</extensions>
</trkpt>
<trkpt lat="63.853767395" lon="-22.019292831">
<ele>100.978516</ele>
<time>2012-07-28T15:41:26Z</time>
<speed>0.080000</speed>
<extensions>
<speed>0.1</speed>
<temp>0.00</temp>
<bpm>0</bpm>
<rpm>0.00</rpm>
</extensions>
</trkpt>
<trkpt lat="63.853767395" lon="-22.019289017">
<ele>100.974609</ele>
<time>2012-07-28T15:41:31Z</time>
<speed>0.080000</speed>
<extensions>
<speed>0.1</speed>
<temp>0.00</temp>
<bpm>0</bpm>
<rpm>0.00</rpm>
</extensions>
</trkpt>
<trkpt lat="63.853771210" lon="-22.019285202">
<ele>100.906250</ele>
<time>2012-07-28T15:41:36Z</time>
<extensions>
<speed>0.0</speed>
<temp>0.00</temp>
<bpm>0</bpm>
<rpm>0.00</rpm>
</extensions>
</trkpt>
<trkpt lat="63.853771210" lon="-22.019285202">
<ele>100.941406</ele>
<time>2012-07-28T15:41:41Z</time>
<speed>0.150000</speed>
<extensions>
<speed>0.2</speed>
<temp>0.00</temp>
<bpm>0</bpm>
<rpm>0.00</rpm>
</extensions>
</trkpt>
<trkpt lat="63.853771210" lon="-22.019275665">
<ele>100.998047</ele>
<time>2012-07-28T15:41:46Z</time>
<speed>0.110000</speed>
<extensions>
<speed>0.1</speed>
<temp>0.00</temp>
<bpm>0</bpm>
<rpm>0.00</rpm>
</extensions>
</trkpt>
<trkpt lat="63.853775024" lon="-22.019275665">
<ele>101.050781</ele>
<time>2012-07-28T15:41:51Z</time>
<speed>0.100000</speed>
<extensions>
<speed>0.1</speed>
<temp>0.00</temp>
<bpm>0</bpm>
<rpm>0.00</rpm>
</extensions>
</trkpt>
<trkpt lat="63.853778839" lon="-22.019275665">
<ele>101.115234</ele>
<time>2012-07-28T15:41:56Z</time>
<speed>0.030000</speed>
<extensions>
<speed>0.0</speed>
<temp>0.00</temp>
<bpm>0</bpm>
<rpm>0.00</rpm>
</extensions>
</trkpt>
<trkpt lat="63.853782654" lon="-22.019277573">
<ele>101.181641</ele>
<time>2012-07-28T15:42:01Z</time>
<speed>0.120000</speed>
<extensions>
<speed>0.1</speed>
<temp>0.00</temp>
<bpm>0</bpm>
<rpm>0.00</rpm>
</extensions>
</trkpt>
<trkpt lat="63.853786469" lon="-22.019281387">
<ele>101.248047</ele>
<time>2012-07-28T15:42:06Z</time>
<speed>0.020000</speed>
<extensions>
<speed>0.0</speed>
<temp>0.00</temp>
<bpm>0</bpm>
<rpm>0.00</rpm>
</extensions>
</trkpt>
<trkpt lat="63.853786469" lon="-22.019283295">
<ele>101.316406</ele>
<time>2012-07-28T15:42:11Z</time>
<speed>0.040000</speed>
<extensions>
<speed>0.0</speed>
<temp>0.00</temp>
<bpm>0</bpm>
<rpm>0.00</rpm>
</extensions>
</trkpt>
<trkpt lat="63.853778839" lon="-22.019281387">
<ele>101.365234</ele>
<time>2012-07-28T15:42:16Z</time>
<speed>0.210000</speed>
<extensions>
<speed>0.2</speed>
<temp>0.00</temp>
<bpm>0</bpm>
<rpm>0.00</rpm>
</extensions>
</trkpt>
<trkpt lat="63.853775024" lon="-22.019275665">
<ele>101.408203</ele>
<time>2012-07-28T15:42:21Z</time>
<speed>0.030000</speed>
<extensions>
<speed>0.0</speed>
<temp>0.00</temp>
<bpm>0</bpm>
<rpm>0.00</rpm>
</extensions>
</trkpt>
<trkpt lat="63.853771210" lon="-22.019271851">
<ele>101.375000</ele>
<time>2012-07-28T15:42:26Z</time>
<speed>0.040000</speed>
<extensions>
<speed>0.0</speed>
<temp>0.00</temp>
<bpm>0</bpm>
<rpm>0.00</rpm>
</extensions>
</trkpt>
<trkpt lat="63.853771210" lon="-22.019266129">
<ele>101.359375</ele>
<time>2012-07-28T15:42:31Z</time>
<speed>0.070000</speed>
<extensions>
<speed>0.1</speed>
<temp>0.00</temp>
<bpm>0</bpm>
<rpm>0.00</rpm>
</extensions>
</trkpt>
<trkpt lat="63.853767395" lon="-22.019260406">
<ele>101.365234</ele>
<time>2012-07-28T15:42:36Z</time>
<speed>0.060000</speed>
<extensions>
<speed>0.1</speed>
<temp>0.00</temp>
<bpm>0</bpm>
<rpm>0.00</rpm>
</extensions>
</trkpt>
<trkpt lat="63.853767395" lon="-22.019262314">
<ele>101.390625</ele>
<time>2012-07-28T15:42:41Z</time>
<speed>0.040000</speed>
<extensions>
<speed>0.0</speed>
<temp>0.00</temp>
<bpm>0</bpm>
<rpm>0.00</rpm>
</extensions>
</trkpt>
<trkpt lat="63.853763580" lon="-22.019256592">
<ele>101.417969</ele>
<time>2012-07-28T15:42:46Z</time>
<speed>0.070000</speed>
<extensions>
<speed>0.1</speed>
<temp>0.00</temp>
<bpm>0</bpm>
<rpm>0.00</rpm>
</extensions>
</trkpt>
<trkpt lat="63.853767395" lon="-22.019252777">
<ele>101.416016</ele>
<time>2012-07-28T15:42:51Z</time>
<speed>0.070000</speed>
<extensions>
<speed>0.1</speed>
<temp>0.00</temp>
<bpm>0</bpm>
<rpm>0.00</rpm>
</extensions>
</trkpt>
<trkpt lat="63.853767395" lon="-22.019256592">
<ele>101.425781</ele>
<time>2012-07-28T15:42:56Z</time>
<speed>0.020000</speed>
<extensions>
<speed>0.0</speed>
<temp>0.00</temp>
<bpm>0</bpm>
<rpm>0.00</rpm>
</extensions>
</trkpt>
<trkpt lat="63.853763580" lon="-22.019254684">
<ele>101.431641</ele>
<time>2012-07-28T15:43:01Z</time>
<speed>0.030000</speed>
<extensions>
<speed>0.0</speed>
<temp>0.00</temp>
<bpm>0</bpm>
<rpm>0.00</rpm>
</extensions>
</trkpt>
<trkpt lat="63.853763580" lon="-22.019252777">
<ele>101.427734</ele>
<time>2012-07-28T15:43:06Z</time>
<speed>0.070000</speed>
<extensions>
<speed>0.1</speed>
<temp>0.00</temp>
<bpm>0</bpm>
<rpm>0.00</rpm>
</extensions>
</trkpt>
<trkpt lat="63.853763580" lon="-22.019252777">
<ele>101.412109</ele>
<time>2012-07-28T15:43:11Z</time>
<speed>0.070000</speed>
<extensions>
<speed>0.1</speed>
<temp>0.00</temp>
<bpm>0</bpm>
<rpm>0.00</rpm>
</extensions>
</trkpt>
<trkpt lat="63.853763580" lon="-22.019262314">
<ele>101.365234</ele>
<time>2012-07-28T15:43:16Z</time>
<speed>0.110000</speed>
<extensions>
<speed>0.1</speed>
<temp>0.00</temp>
<bpm>0</bpm>
<rpm>0.00</rpm>
</extensions>
</trkpt>
<trkpt lat="63.853763580" lon="-22.019258499">
<ele>101.291016</ele>
<time>2012-07-28T15:43:21Z</time>
<speed>0.150000</speed>
<extensions>
<speed>0.2</speed>
<temp>0.00</temp>
<bpm>0</bpm>
<rpm>0.00</rpm>
</extensions>
</trkpt>
<trkpt lat="63.853759766" lon="-22.019247055">
<ele>101.220703</ele>
<time>2012-07-28T15:43:26Z</time>
<speed>0.080000</speed>
<extensions>
<speed>0.1</speed>
<temp>0.00</temp>
<bpm>0</bpm>
<rpm>0.00</rpm>
</extensions>
</trkpt>
<trkpt lat="63.853763580" lon="-22.019247055">
<ele>101.185547</ele>
<time>2012-07-28T15:43:31Z</time>
<speed>0.040000</speed>
<extensions>
<speed>0.0</speed>
<temp>0.00</temp>
<bpm>0</bpm>
<rpm>0.00</rpm>
</extensions>
</trkpt>
<trkpt lat="63.853763580" lon="-22.019243240">
<ele>101.138672</ele>
<time>2012-07-28T15:43:36Z</time>
<speed>0.070000</speed>
<extensions>
<speed>0.1</speed>
<temp>0.00</temp>
<bpm>0</bpm>
<rpm>0.00</rpm>
</extensions>
</trkpt>
<trkpt lat="63.853759766" lon="-22.019237518">
<ele>101.111328</ele>
<time>2012-07-28T15:43:41Z</time>
<speed>0.080000</speed>
<extensions>
<speed>0.1</speed>
<temp>0.00</temp>
<bpm>0</bpm>
<rpm>0.00</rpm>
</extensions>
</trkpt>
<trkpt lat="63.853755951" lon="-22.019237518">
<ele>101.107422</ele>
<time>2012-07-28T15:43:46Z</time>
<speed>0.090000</speed>
<extensions>
<speed>0.1</speed>
<temp>0.00</temp>
<bpm>0</bpm>
<rpm>0.00</rpm>
</extensions>
</trkpt>
<trkpt lat="63.853752136" lon="-22.019229889">
<ele>101.083984</ele>
<time>2012-07-28T15:43:51Z</time>
<speed>0.120000</speed>
<extensions>
<speed>0.1</speed>
<temp>0.00</temp>
<bpm>0</bpm>
<rpm>0.00</rpm>
</extensions>
</trkpt>
<trkpt lat="63.853748322" lon="-22.019226074">
<ele>101.068359</ele>
<time>2012-07-28T15:43:56Z</time>
<speed>0.180000</speed>
<extensions>
<speed>0.2</speed>
<temp>0.00</temp>
<bpm>0</bpm>
<rpm>0.00</rpm>
</extensions>
</trkpt>
<trkpt lat="63.853744507" lon="-22.019222260">
<ele>101.042969</ele>
<time>2012-07-28T15:44:01Z</time>
<speed>0.070000</speed>
<extensions>
<speed>0.1</speed>
<temp>0.00</temp>
<bpm>0</bpm>
<rpm>0.00</rpm>
</extensions>
</trkpt>
<trkpt lat="63.853748322" lon="-22.019227982">
<ele>101.013672</ele>
<time>2012-07-28T15:44:06Z</time>
<speed>0.130000</speed>
<extensions>
<speed>0.1</speed>
<temp>0.00</temp>
<bpm>0</bpm>
<rpm>0.00</rpm>
</extensions>
</trkpt>
<trkpt lat="63.853748322" lon="-22.019235611">
<ele>101.035156</ele>
<time>2012-07-28T15:44:11Z</time>
<speed>0.110000</speed>
<extensions>
<speed>0.1</speed>
<temp>0.00</temp>
<bpm>0</bpm>
<rpm>0.00</rpm>
</extensions>
</trkpt>
<trkpt lat="63.853744507" lon="-22.019237518">
<ele>101.011719</ele>
<time>2012-07-28T15:44:16Z</time>
<speed>0.090000</speed>
<extensions>
<speed>0.1</speed>
<temp>0.00</temp>
<bpm>0</bpm>
<rpm>0.00</rpm>
</extensions>
</trkpt>
<trkpt lat="63.853744507" lon="-22.019245148">
<ele>100.994141</ele>
<time>2012-07-28T15:44:21Z</time>
<speed>0.060000</speed>
<extensions>
<speed>0.1</speed>
<temp>0.00</temp>
<bpm>0</bpm>
<rpm>0.00</rpm>
</extensions>
</trkpt>
<trkpt lat="63.853744507" lon="-22.019245148">
<ele>100.994141</ele>
<time>2012-07-28T15:44:26Z</time>
<speed>0.120000</speed>
<extensions>
<speed>0.1</speed>
<temp>0.00</temp>
<bpm>0</bpm>
<rpm>0.00</rpm>
</extensions>
</trkpt>
<trkpt lat="63.853740692" lon="-22.019243240">
<ele>100.980469</ele>
<time>2012-07-28T15:44:31Z</time>
<speed>0.090000</speed>
<extensions>
<speed>0.1</speed>
<temp>0.00</temp>
<bpm>0</bpm>
<rpm>0.00</rpm>
</extensions>
</trkpt>
<trkpt lat="63.853736877" lon="-22.019247055">
<ele>100.988281</ele>
<time>2012-07-28T15:44:36Z</time>
<speed>0.070000</speed>
<extensions>
<speed>0.1</speed>
<temp>0.00</temp>
<bpm>0</bpm>
<rpm>0.00</rpm>
</extensions>
</trkpt>
<trkpt lat="63.853740692" lon="-22.019250870">
<ele>101.000000</ele>
<time>2012-07-28T15:44:41Z</time>
<speed>0.010000</speed>
<extensions>
<speed>0.0</speed>
<temp>0.00</temp>
<bpm>0</bpm>
<rpm>0.00</rpm>
</extensions>
</trkpt>
<trkpt lat="63.853740692" lon="-22.019252777">
<ele>101.001953</ele>
<time>2012-07-28T15:44:46Z</time>
<speed>0.040000</speed>
<extensions>
<speed>0.0</speed>
<temp>0.00</temp>
<bpm>0</bpm>
<rpm>0.00</rpm>
</extensions>
</trkpt>
<trkpt lat="63.853736877" lon="-22.019254684">
<ele>101.005859</ele>
<time>2012-07-28T15:44:51Z</time>
<speed>0.150000</speed>
<extensions>
<speed>0.2</speed>
<temp>0.00</temp>
<bpm>0</bpm>
<rpm>0.00</rpm>
</extensions>
</trkpt>
<trkpt lat="63.853736877" lon="-22.019247055">
<ele>101.011719</ele>
<time>2012-07-28T15:44:56Z</time>
<speed>0.040000</speed>
<extensions>
<speed>0.0</speed>
<temp>0.00</temp>
<bpm>0</bpm>
<rpm>0.00</rpm>
</extensions>
</trkpt>
<trkpt lat="63.853736877" lon="-22.019239426">
<ele>101.031250</ele>
<time>2012-07-28T15:45:01Z</time>
<speed>0.120000</speed>
<extensions>
<speed>0.1</speed>
<temp>0.00</temp>
<bpm>0</bpm>
<rpm>0.00</rpm>
</extensions>
</trkpt>
<trkpt lat="63.853733063" lon="-22.019231796">
<ele>101.042969</ele>
<time>2012-07-28T15:45:06Z</time>
<speed>0.110000</speed>
<extensions>
<speed>0.1</speed>
<temp>0.00</temp>
<bpm>0</bpm>
<rpm>0.00</rpm>
</extensions>
</trkpt>
<trkpt lat="63.853725433" lon="-22.019222260">
<ele>101.007813</ele>
<time>2012-07-28T15:45:11Z</time>
<speed>0.120000</speed>
<extensions>
<speed>0.1</speed>
<temp>0.00</temp>
<bpm>0</bpm>
<rpm>0.00</rpm>
</extensions>
</trkpt>
<trkpt lat="63.853725433" lon="-22.019214630">
<ele>100.960938</ele>
<time>2012-07-28T15:45:16Z</time>
<speed>0.090000</speed>
<extensions>
<speed>0.1</speed>
<temp>0.00</temp>
<bpm>0</bpm>
<rpm>0.00</rpm>
</extensions>
</trkpt>
<trkpt lat="63.853729248" lon="-22.019218445">
<ele>100.892578</ele>
<time>2012-07-28T15:45:21Z</time>
<speed>0.050000</speed>
<extensions>
<speed>0.1</speed>
<temp>0.00</temp>
<bpm>0</bpm>
<rpm>0.00</rpm>
</extensions>
</trkpt>
<trkpt lat="63.853729248" lon="-22.019218445">
<ele>100.855469</ele>
<time>2012-07-28T15:45:26Z</time>
<speed>0.030000</speed>
<extensions>
<speed>0.0</speed>
<temp>0.00</temp>
<bpm>0</bpm>
<rpm>0.00</rpm>
</extensions>
</trkpt>
<trkpt lat="63.853725433" lon="-22.019218445">
<ele>100.832031</ele>
<time>2012-07-28T15:45:31Z</time>
<speed>0.090000</speed>
<extensions>
<speed>0.1</speed>
<temp>0.00</temp>
<bpm>0</bpm>
<rpm>0.00</rpm>
</extensions>
</trkpt>
<trkpt lat="63.853725433" lon="-22.019212723">
<ele>100.814453</ele>
<time>2012-07-28T15:45:36Z</time>
<speed>0.060000</speed>
<extensions>
<speed>0.1</speed>
<temp>0.00</temp>
<bpm>0</bpm>
<rpm>0.00</rpm>
</extensions>
</trkpt>
<trkpt lat="63.853721619" lon="-22.019207001">
<ele>100.822266</ele>
<time>2012-07-28T15:45:41Z</time>
<speed>0.040000</speed>
<extensions>
<speed>0.0</speed>
<temp>0.00</temp>
<bpm>0</bpm>
<rpm>0.00</rpm>
</extensions>
</trkpt>
<trkpt lat="63.853725433" lon="-22.019218445">
<ele>100.828125</ele>
<time>2012-07-28T15:45:46Z</time>
<speed>0.210000</speed>
<extensions>
<speed>0.2</speed>
<temp>0.00</temp>
<bpm>0</bpm>
<rpm>0.00</rpm>
</extensions>
</trkpt>
<trkpt lat="63.853725433" lon="-22.019222260">
<ele>100.820313</ele>
<time>2012-07-28T15:45:51Z</time>
<speed>0.050000</speed>
<extensions>
<speed>0.1</speed>
<temp>0.00</temp>
<bpm>0</bpm>
<rpm>0.00</rpm>
</extensions>
</trkpt>
<trkpt lat="63.853729248" lon="-22.019231796">
<ele>100.798828</ele>
<time>2012-07-28T15:45:56Z</time>
<speed>0.110000</speed>
<extensions>
<speed>0.1</speed>
<temp>0.00</temp>
<bpm>0</bpm>
<rpm>0.00</rpm>
</extensions>
</trkpt>
<trkpt lat="63.853729248" lon="-22.019229889">
<ele>100.830078</ele>
<time>2012-07-28T15:46:01Z</time>
<speed>0.020000</speed>
<extensions>
<speed>0.0</speed>
<temp>0.00</temp>
<bpm>0</bpm>
<rpm>0.00</rpm>
</extensions>
</trkpt>
<trkpt lat="63.853733063" lon="-22.019231796">
<ele>100.861328</ele>
<time>2012-07-28T15:46:06Z</time>
<speed>0.080000</speed>
<extensions>
<speed>0.1</speed>
<temp>0.00</temp>
<bpm>0</bpm>
<rpm>0.00</rpm>
</extensions>
</trkpt>
<trkpt lat="63.853733063" lon="-22.019237518">
<ele>100.880859</ele>
<time>2012-07-28T15:46:11Z</time>
<speed>0.150000</speed>
<extensions>
<speed>0.2</speed>
<temp>0.00</temp>
<bpm>0</bpm>
<rpm>0.00</rpm>
</extensions>
</trkpt>
<trkpt lat="63.853736877" lon="-22.019245148">
<ele>100.916016</ele>
<time>2012-07-28T15:46:16Z</time>
<speed>0.010000</speed>
<extensions>
<speed>0.0</speed>
<temp>0.00</temp>
<bpm>0</bpm>
<rpm>0.00</rpm>
</extensions>
</trkpt>
<trkpt lat="63.853736877" lon="-22.019248962">
<ele>100.964844</ele>
<time>2012-07-28T15:46:21Z</time>
<speed>0.150000</speed>
<extensions>
<speed>0.2</speed>
<temp>0.00</temp>
<bpm>0</bpm>
<rpm>0.00</rpm>
</extensions>
</trkpt>
<trkpt lat="63.853740692" lon="-22.019266129">
<ele>101.021484</ele>
<time>2012-07-28T15:46:26Z</time>
<speed>0.260000</speed>
<extensions>
<speed>0.3</speed>
<temp>0.00</temp>
<bpm>0</bpm>
<rpm>0.00</rpm>
</extensions>
</trkpt>
<trkpt lat="63.853740692" lon="-22.019269943">
<ele>101.052734</ele>
<time>2012-07-28T15:46:31Z</time>
<speed>0.230000</speed>
<extensions>
<speed>0.2</speed>
<temp>0.00</temp>
<bpm>0</bpm>
<rpm>0.00</rpm>
</extensions>
</trkpt>
<trkpt lat="63.853740692" lon="-22.019264221">
<ele>101.068359</ele>
<time>2012-07-28T15:46:36Z</time>
<speed>0.220000</speed>
<extensions>
<speed>0.2</speed>
<temp>0.00</temp>
<bpm>0</bpm>
<rpm>0.00</rpm>
</extensions>
</trkpt>
<trkpt lat="63.853748322" lon="-22.019275665">
<ele>101.050781</ele>
<time>2012-07-28T15:46:41Z</time>
<speed>0.080000</speed>
<extensions>
<speed>0.1</speed>
<temp>0.00</temp>
<bpm>0</bpm>
<rpm>0.00</rpm>
</extensions>
</trkpt>
<trkpt lat="63.853748322" lon="-22.019266129">
<ele>101.023438</ele>
<time>2012-07-28T15:46:46Z</time>
<speed>0.150000</speed>
<extensions>
<speed>0.2</speed>
<temp>0.00</temp>
<bpm>0</bpm>
<rpm>0.00</rpm>
</extensions>
</trkpt>
<trkpt lat="63.853740692" lon="-22.019252777">
<ele>101.005859</ele>
<time>2012-07-28T15:46:51Z</time>
<speed>0.110000</speed>
<extensions>
<speed>0.1</speed>
<temp>0.00</temp>
<bpm>0</bpm>
<rpm>0.00</rpm>
</extensions>
</trkpt>
<trkpt lat="63.853744507" lon="-22.019256592">
<ele>100.998047</ele>
<time>2012-07-28T15:46:56Z</time>
<speed>0.100000</speed>
<extensions>
<speed>0.1</speed>
<temp>0.00</temp>
<bpm>0</bpm>
<rpm>0.00</rpm>
</extensions>
</trkpt>
<trkpt lat="63.853744507" lon="-22.019250870">
<ele>100.998047</ele>
<time>2012-07-28T15:47:01Z</time>
<speed>0.080000</speed>
<extensions>
<speed>0.1</speed>
<temp>0.00</temp>
<bpm>0</bpm>
<rpm>0.00</rpm>
</extensions>
</trkpt>
<trkpt lat="63.853744507" lon="-22.019252777">
<ele>101.013672</ele>
<time>2012-07-28T15:47:06Z</time>
<speed>0.060000</speed>
<extensions>
<speed>0.1</speed>
<temp>0.00</temp>
<bpm>0</bpm>
<rpm>0.00</rpm>
</extensions>
</trkpt>
<trkpt lat="63.853744507" lon="-22.019247055">
<ele>101.005859</ele>
<time>2012-07-28T15:47:11Z</time>
<speed>0.110000</speed>
<extensions>
<speed>0.1</speed>
<temp>0.00</temp>
<bpm>0</bpm>
<rpm>0.00</rpm>
</extensions>
</trkpt>
<trkpt lat="63.853744507" lon="-22.019248962">
<ele>101.003906</ele>
<time>2012-07-28T15:47:16Z</time>
<speed>0.020000</speed>
<extensions>
<speed>0.0</speed>
<temp>0.00</temp>
<bpm>0</bpm>
<rpm>0.00</rpm>
</extensions>
</trkpt>
<trkpt lat="63.853740692" lon="-22.019241333">
<ele>101.025391</ele>
<time>2012-07-28T15:47:21Z</time>
<speed>0.020000</speed>
<extensions>
<speed>0.0</speed>
<temp>0.00</temp>
<bpm>0</bpm>
<rpm>0.00</rpm>
</extensions>
</trkpt>
<trkpt lat="63.853740692" lon="-22.019243240">
<ele>101.033203</ele>
<time>2012-07-28T15:47:26Z</time>
<speed>0.030000</speed>
<extensions>
<speed>0.0</speed>
<temp>0.00</temp>
<bpm>0</bpm>
<rpm>0.00</rpm>
</extensions>
</trkpt>
<trkpt lat="63.853744507" lon="-22.019248962">
<ele>101.060547</ele>
<time>2012-07-28T15:47:31Z</time>
<speed>0.230000</speed>
<extensions>
<speed>0.2</speed>
<temp>0.00</temp>
<bpm>0</bpm>
<rpm>0.00</rpm>
</extensions>
</trkpt>
<trkpt lat="63.853752136" lon="-22.019252777">
<ele>100.949219</ele>
<time>2012-07-28T15:47:36Z</time>
<speed>0.030000</speed>
<extensions>
<speed>0.0</speed>
<temp>0.00</temp>
<bpm>0</bpm>
<rpm>0.00</rpm>
</extensions>
</trkpt>
<trkpt lat="63.853752136" lon="-22.019248962">
<ele>100.937500</ele>
<time>2012-07-28T15:47:41Z</time>
<speed>0.110000</speed>
<extensions>
<speed>0.1</speed>
<temp>0.00</temp>
<bpm>0</bpm>
<rpm>0.00</rpm>
</extensions>
</trkpt>
<trkpt lat="63.853748322" lon="-22.019248962">
<ele>100.925781</ele>
<time>2012-07-28T15:47:46Z</time>
<speed>0.060000</speed>
<extensions>
<speed>0.1</speed>
<temp>0.00</temp>
<bpm>0</bpm>
<rpm>0.00</rpm>
</extensions>
</trkpt>
<trkpt lat="63.853744507" lon="-22.019243240">
<ele>100.921875</ele>
<time>2012-07-28T15:47:51Z</time>
<speed>0.200000</speed>
<extensions>
<speed>0.2</speed>
<temp>0.00</temp>
<bpm>0</bpm>
<rpm>0.00</rpm>
</extensions>
</trkpt>
<trkpt lat="63.853740692" lon="-22.019231796">
<ele>100.933594</ele>
<time>2012-07-28T15:47:56Z</time>
<speed>0.250000</speed>
<extensions>
<speed>0.2</speed>
<temp>0.00</temp>
<bpm>0</bpm>
<rpm>0.00</rpm>
</extensions>
</trkpt>
<trkpt lat="63.853748322" lon="-22.019235611">
<ele>100.916016</ele>
<time>2012-07-28T15:48:01Z</time>
<speed>0.100000</speed>
<extensions>
<speed>0.1</speed>
<temp>0.00</temp>
<bpm>0</bpm>
<rpm>0.00</rpm>
</extensions>
</trkpt>
<trkpt lat="63.853744507" lon="-22.019233704">
<ele>100.937500</ele>
<time>2012-07-28T15:48:06Z</time>
<speed>0.090000</speed>
<extensions>
<speed>0.1</speed>
<temp>0.00</temp>
<bpm>0</bpm>
<rpm>0.00</rpm>
</extensions>
</trkpt>
<trkpt lat="63.853740692" lon="-22.019224167">
<ele>100.929688</ele>
<time>2012-07-28T15:48:11Z</time>
<speed>0.120000</speed>
<extensions>
<speed>0.1</speed>
<temp>0.00</temp>
<bpm>0</bpm>
<rpm>0.00</rpm>
</extensions>
</trkpt>
<trkpt lat="63.853740692" lon="-22.019216537">
<ele>100.906250</ele>
<time>2012-07-28T15:48:16Z</time>
<speed>0.050000</speed>
<extensions>
<speed>0.1</speed>
<temp>0.00</temp>
<bpm>0</bpm>
<rpm>0.00</rpm>
</extensions>
</trkpt>
<trkpt lat="63.853740692" lon="-22.019212723">
<ele>100.902344</ele>
<time>2012-07-28T15:48:21Z</time>
<speed>0.110000</speed>
<extensions>
<speed>0.1</speed>
<temp>0.00</temp>
<bpm>0</bpm>
<rpm>0.00</rpm>
</extensions>
</trkpt>
<trkpt lat="63.853744507" lon="-22.019208908">
<ele>100.908203</ele>
<time>2012-07-28T15:48:26Z</time>
<speed>0.050000</speed>
<extensions>
<speed>0.1</speed>
<temp>0.00</temp>
<bpm>0</bpm>
<rpm>0.00</rpm>
</extensions>
</trkpt>
<trkpt lat="63.853748322" lon="-22.019212723">
<ele>100.917969</ele>
<time>2012-07-28T15:48:31Z</time>
<speed>0.060000</speed>
<extensions>
<speed>0.1</speed>
<temp>0.00</temp>
<bpm>0</bpm>
<rpm>0.00</rpm>
</extensions>
</trkpt>
<trkpt lat="63.853744507" lon="-22.019201279">
<ele>100.910156</ele>
<time>2012-07-28T15:48:36Z</time>
<speed>0.180000</speed>
<extensions>
<speed>0.2</speed>
<temp>0.00</temp>
<bpm>0</bpm>
<rpm>0.00</rpm>
</extensions>
</trkpt>
<trkpt lat="63.853740692" lon="-22.019201279">
<ele>100.902344</ele>
<time>2012-07-28T15:48:41Z</time>
<speed>0.040000</speed>
<extensions>
<speed>0.0</speed>
<temp>0.00</temp>
<bpm>0</bpm>
<rpm>0.00</rpm>
</extensions>
</trkpt>
<trkpt lat="63.853740692" lon="-22.019193649">
<ele>100.886719</ele>
<time>2012-07-28T15:48:46Z</time>
<speed>0.040000</speed>
<extensions>
<speed>0.0</speed>
<temp>0.00</temp>
<bpm>0</bpm>
<rpm>0.00</rpm>
</extensions>
</trkpt>
<trkpt lat="63.853740692" lon="-22.019193649">
<ele>100.892578</ele>
<time>2012-07-28T15:48:51Z</time>
<speed>0.040000</speed>
<extensions>
<speed>0.0</speed>
<temp>0.00</temp>
<bpm>0</bpm>
<rpm>0.00</rpm>
</extensions>
</trkpt>
<trkpt lat="63.853740692" lon="-22.019195557">
<ele>100.908203</ele>
<time>2012-07-28T15:48:56Z</time>
<speed>0.110000</speed>
<extensions>
<speed>0.1</speed>
<temp>0.00</temp>
<bpm>0</bpm>
<rpm>0.00</rpm>
</extensions>
</trkpt>
<trkpt lat="63.853744507" lon="-22.019197464">
<ele>100.949219</ele>
<time>2012-07-28T15:49:01Z</time>
<speed>0.030000</speed>
<extensions>
<speed>0.0</speed>
<temp>0.00</temp>
<bpm>0</bpm>
<rpm>0.00</rpm>
</extensions>
</trkpt>
<trkpt lat="63.853744507" lon="-22.019189835">
<ele>100.982422</ele>
<time>2012-07-28T15:49:06Z</time>
<speed>0.170000</speed>
<extensions>
<speed>0.2</speed>
<temp>0.00</temp>
<bpm>0</bpm>
<rpm>0.00</rpm>
</extensions>
</trkpt>
<trkpt lat="63.853740692" lon="-22.019178391">
<ele>101.000000</ele>
<time>2012-07-28T15:49:11Z</time>
<speed>0.120000</speed>
<extensions>
<speed>0.1</speed>
<temp>0.00</temp>
<bpm>0</bpm>
<rpm>0.00</rpm>
</extensions>
</trkpt>
<trkpt lat="63.853740692" lon="-22.019178391">
<ele>101.029297</ele>
<time>2012-07-28T15:49:16Z</time>
<speed>0.120000</speed>
<extensions>
<speed>0.1</speed>
<temp>0.00</temp>
<bpm>0</bpm>
<rpm>0.00</rpm>
</extensions>
</trkpt>
<trkpt lat="63.853744507" lon="-22.019187927">
<ele>101.072266</ele>
<time>2012-07-28T15:49:21Z</time>
<speed>0.150000</speed>
<extensions>
<speed>0.2</speed>
<temp>0.00</temp>
<bpm>0</bpm>
<rpm>0.00</rpm>
</extensions>
</trkpt>
<trkpt lat="63.853748322" lon="-22.019203186">
<ele>101.060547</ele>
<time>2012-07-28T15:49:26Z</time>
<speed>0.170000</speed>
<extensions>
<speed>0.2</speed>
<temp>0.00</temp>
<bpm>0</bpm>
<rpm>0.00</rpm>
</extensions>
</trkpt>
<trkpt lat="63.853755951" lon="-22.019216537">
<ele>101.064453</ele>
<time>2012-07-28T15:49:31Z</time>
<speed>0.140000</speed>
<extensions>
<speed>0.1</speed>
<temp>0.00</temp>
<bpm>0</bpm>
<rpm>0.00</rpm>
</extensions>
</trkpt>
<trkpt lat="63.853759766" lon="-22.019222260">
<ele>101.058594</ele>
<time>2012-07-28T15:49:36Z</time>
<speed>0.090000</speed>
<extensions>
<speed>0.1</speed>
<temp>0.00</temp>
<bpm>0</bpm>
<rpm>0.00</rpm>
</extensions>
</trkpt>
<trkpt lat="63.853759766" lon="-22.019229889">
<ele>101.052734</ele>
<time>2012-07-28T15:49:41Z</time>
<speed>0.070000</speed>
<extensions>
<speed>0.1</speed>
<temp>0.00</temp>
<bpm>0</bpm>
<rpm>0.00</rpm>
</extensions>
</trkpt>
<trkpt lat="63.853763580" lon="-22.019239426">
<ele>101.056641</ele>
<time>2012-07-28T15:49:46Z</time>
<speed>0.070000</speed>
<extensions>
<speed>0.1</speed>
<temp>0.00</temp>
<bpm>0</bpm>
<rpm>0.00</rpm>
</extensions>
</trkpt>
<trkpt lat="63.853763580" lon="-22.019241333">
<ele>101.066406</ele>
<time>2012-07-28T15:49:51Z</time>
<speed>0.020000</speed>
<extensions>
<speed>0.0</speed>
<temp>0.00</temp>
<bpm>0</bpm>
<rpm>0.00</rpm>
</extensions>
</trkpt>
<trkpt lat="63.853763580" lon="-22.019247055">
<ele>101.097656</ele>
<time>2012-07-28T15:49:56Z</time>
<speed>0.120000</speed>
<extensions>
<speed>0.1</speed>
<temp>0.00</temp>
<bpm>0</bpm>
<rpm>0.00</rpm>
</extensions>
</trkpt>
<trkpt lat="63.853767395" lon="-22.019254684">
<ele>101.097656</ele>
<time>2012-07-28T15:50:01Z</time>
<speed>0.220000</speed>
<extensions>
<speed>0.2</speed>
<temp>0.00</temp>
<bpm>0</bpm>
<rpm>0.00</rpm>
</extensions>
</trkpt>
<trkpt lat="63.853775024" lon="-22.019268036">
<ele>101.113281</ele>
<time>2012-07-28T15:50:06Z</time>
<speed>0.050000</speed>
<extensions>
<speed>0.1</speed>
<temp>0.00</temp>
<bpm>0</bpm>
<rpm>0.00</rpm>
</extensions>
</trkpt>
<trkpt lat="63.853771210" lon="-22.019273758">
<ele>101.171875</ele>
<time>2012-07-28T15:50:11Z</time>
<speed>0.080000</speed>
<extensions>
<speed>0.1</speed>
<temp>0.00</temp>
<bpm>0</bpm>
<rpm>0.00</rpm>
</extensions>
</trkpt>
<trkpt lat="63.853771210" lon="-22.019271851">
<ele>101.203125</ele>
<time>2012-07-28T15:50:16Z</time>
<speed>0.050000</speed>
<extensions>
<speed>0.1</speed>
<temp>0.00</temp>
<bpm>0</bpm>
<rpm>0.00</rpm>
</extensions>
</trkpt>
<trkpt lat="63.853767395" lon="-22.019266129">
<ele>101.238281</ele>
<time>2012-07-28T15:50:21Z</time>
<speed>0.050000</speed>
<extensions>
<speed>0.1</speed>
<temp>0.00</temp>
<bpm>0</bpm>
<rpm>0.00</rpm>
</extensions>
</trkpt>
<trkpt lat="63.853767395" lon="-22.019262314">
<ele>101.271484</ele>
<time>2012-07-28T15:50:26Z</time>
<speed>0.070000</speed>
<extensions>
<speed>0.1</speed>
<temp>0.00</temp>
<bpm>0</bpm>
<rpm>0.00</rpm>
</extensions>
</trkpt>
<trkpt lat="63.853767395" lon="-22.019266129">
<ele>101.302734</ele>
<time>2012-07-28T15:50:31Z</time>
<speed>0.160000</speed>
<extensions>
<speed>0.2</speed>
<temp>0.00</temp>
<bpm>0</bpm>
<rpm>0.00</rpm>
</extensions>
</trkpt>
<trkpt lat="63.853767395" lon="-22.019258499">
<ele>101.337891</ele>
<time>2012-07-28T15:50:36Z</time>
<speed>0.010000</speed>
<extensions>
<speed>0.0</speed>
<temp>0.00</temp>
<bpm>0</bpm>
<rpm>0.00</rpm>
</extensions>
</trkpt>
<trkpt lat="63.853763580" lon="-22.019250870">
<ele>101.357422</ele>
<time>2012-07-28T15:50:41Z</time>
<speed>0.210000</speed>
<extensions>
<speed>0.2</speed>
<temp>0.00</temp>
<bpm>0</bpm>
<rpm>0.00</rpm>
</extensions>
</trkpt>
<trkpt lat="63.853759766" lon="-22.019248962">
<ele>101.375000</ele>
<time>2012-07-28T15:50:46Z</time>
<speed>0.030000</speed>
<extensions>
<speed>0.0</speed>
<temp>0.00</temp>
<bpm>0</bpm>
<rpm>0.00</rpm>
</extensions>
</trkpt>
<trkpt lat="63.853763580" lon="-22.019260406">
<ele>101.408203</ele>
<time>2012-07-28T15:50:51Z</time>
<speed>0.150000</speed>
<extensions>
<speed>0.2</speed>
<temp>0.00</temp>
<bpm>0</bpm>
<rpm>0.00</rpm>
</extensions>
</trkpt>
<trkpt lat="63.853763580" lon="-22.019262314">
<ele>101.433594</ele>
<time>2012-07-28T15:50:56Z</time>
<speed>0.080000</speed>
<extensions>
<speed>0.1</speed>
<temp>0.00</temp>
<bpm>0</bpm>
<rpm>0.00</rpm>
</extensions>
</trkpt>
<trkpt lat="63.853763580" lon="-22.019262314">
<ele>101.480469</ele>
<time>2012-07-28T15:51:01Z</time>
<speed>0.060000</speed>
<extensions>
<speed>0.1</speed>
<temp>0.00</temp>
<bpm>0</bpm>
<rpm>0.00</rpm>
</extensions>
</trkpt>
<trkpt lat="63.853763580" lon="-22.019264221">
<ele>101.529297</ele>
<time>2012-07-28T15:51:06Z</time>
<speed>0.150000</speed>
<extensions>
<speed>0.2</speed>
<temp>0.00</temp>
<bpm>0</bpm>
<rpm>0.00</rpm>
</extensions>
</trkpt>
<trkpt lat="63.853759766" lon="-22.019266129">
<ele>101.583984</ele>
<time>2012-07-28T15:51:11Z</time>
<speed>0.060000</speed>
<extensions>
<speed>0.1</speed>
<temp>0.00</temp>
<bpm>0</bpm>
<rpm>0.00</rpm>
</extensions>
</trkpt>
<trkpt lat="63.853759766" lon="-22.019268036">
<ele>101.628906</ele>
<time>2012-07-28T15:51:16Z</time>
<speed>0.060000</speed>
<extensions>
<speed>0.1</speed>
<temp>0.00</temp>
<bpm>0</bpm>
<rpm>0.00</rpm>
</extensions>
</trkpt>
<trkpt lat="63.853763580" lon="-22.019269943">
<ele>101.683594</ele>
<time>2012-07-28T15:51:21Z</time>
<speed>0.110000</speed>
<extensions>
<speed>0.1</speed>
<temp>0.00</temp>
<bpm>0</bpm>
<rpm>0.00</rpm>
</extensions>
</trkpt>
<trkpt lat="63.853767395" lon="-22.019275665">
<ele>101.734375</ele>
<time>2012-07-28T15:51:26Z</time>
<speed>0.040000</speed>
<extensions>
<speed>0.0</speed>
<temp>0.00</temp>
<bpm>0</bpm>
<rpm>0.00</rpm>
</extensions>
</trkpt>
<trkpt lat="63.853767395" lon="-22.019281387">
<ele>101.734375</ele>
<time>2012-07-28T15:51:31Z</time>
<speed>0.150000</speed>
<extensions>
<speed>0.2</speed>
<temp>0.00</temp>
<bpm>0</bpm>
<rpm>0.00</rpm>
</extensions>
</trkpt>
<trkpt lat="63.853767395" lon="-22.019283295">
<ele>101.703125</ele>
<time>2012-07-28T15:51:36Z</time>
<speed>0.060000</speed>
<extensions>
<speed>0.1</speed>
<temp>0.00</temp>
<bpm>0</bpm>
<rpm>0.00</rpm>
</extensions>
</trkpt>
<trkpt lat="63.853771210" lon="-22.019283295">
<ele>101.667969</ele>
<time>2012-07-28T15:51:41Z</time>
<speed>0.170000</speed>
<extensions>
<speed>0.2</speed>
<temp>0.00</temp>
<bpm>0</bpm>
<rpm>0.00</rpm>
</extensions>
</trkpt>
<trkpt lat="63.853775024" lon="-22.019287109">
<ele>101.667969</ele>
<time>2012-07-28T15:51:46Z</time>
<speed>0.060000</speed>
<extensions>
<speed>0.1</speed>
<temp>0.00</temp>
<bpm>0</bpm>
<rpm>0.00</rpm>
</extensions>
</trkpt>
<trkpt lat="63.853775024" lon="-22.019283295">
<ele>101.681641</ele>
<time>2012-07-28T15:51:51Z</time>
<speed>0.120000</speed>
<extensions>
<speed>0.1</speed>
<temp>0.00</temp>
<bpm>0</bpm>
<rpm>0.00</rpm>
</extensions>
</trkpt>
<trkpt lat="63.853778839" lon="-22.019262314">
<ele>101.304688</ele>
<time>2012-07-28T15:51:56Z</time>
<speed>0.030000</speed>
<extensions>
<speed>0.0</speed>
<temp>0.00</temp>
<bpm>0</bpm>
<rpm>0.00</rpm>
</extensions>
</trkpt>
<trkpt lat="63.853778839" lon="-22.019252777">
<ele>101.302734</ele>
<time>2012-07-28T15:52:01Z</time>
<speed>0.070000</speed>
<extensions>
<speed>0.1</speed>
<temp>0.00</temp>
<bpm>0</bpm>
<rpm>0.00</rpm>
</extensions>
</trkpt>
<trkpt lat="63.853782654" lon="-22.019260406">
<ele>101.251953</ele>
<time>2012-07-28T15:52:06Z</time>
<speed>0.140000</speed>
<extensions>
<speed>0.1</speed>
<temp>0.00</temp>
<bpm>0</bpm>
<rpm>0.00</rpm>
</extensions>
</trkpt>
<trkpt lat="63.853790283" lon="-22.019269943">
<ele>101.240234</ele>
<time>2012-07-28T15:52:11Z</time>
<speed>0.120000</speed>
<extensions>
<speed>0.1</speed>
<temp>0.00</temp>
<bpm>0</bpm>
<rpm>0.00</rpm>
</extensions>
</trkpt>
<trkpt lat="63.853794098" lon="-22.019269943">
<ele>101.234375</ele>
<time>2012-07-28T15:52:16Z</time>
<speed>0.050000</speed>
<extensions>
<speed>0.1</speed>
<temp>0.00</temp>
<bpm>0</bpm>
<rpm>0.00</rpm>
</extensions>
</trkpt>
<trkpt lat="63.853794098" lon="-22.019269943">
<ele>101.230469</ele>
<time>2012-07-28T15:52:21Z</time>
<speed>0.170000</speed>
<extensions>
<speed>0.2</speed>
<temp>0.00</temp>
<bpm>0</bpm>
<rpm>0.00</rpm>
</extensions>
</trkpt>
<trkpt lat="63.853797913" lon="-22.019277573">
<ele>101.210938</ele>
<time>2012-07-28T15:52:26Z</time>
<speed>0.080000</speed>
<extensions>
<speed>0.1</speed>
<temp>0.00</temp>
<bpm>0</bpm>
<rpm>0.00</rpm>
</extensions>
</trkpt>
<trkpt lat="63.853801727" lon="-22.019285202">
<ele>101.228516</ele>
<time>2012-07-28T15:52:31Z</time>
<speed>0.130000</speed>
<extensions>
<speed>0.1</speed>
<temp>0.00</temp>
<bpm>0</bpm>
<rpm>0.00</rpm>
</extensions>
</trkpt>
<trkpt lat="63.853805542" lon="-22.019289017">
<ele>101.251953</ele>
<time>2012-07-28T15:52:36Z</time>
<speed>0.180000</speed>
<extensions>
<speed>0.2</speed>
<temp>0.00</temp>
<bpm>0</bpm>
<rpm>0.00</rpm>
</extensions>
</trkpt>
<trkpt lat="63.853805542" lon="-22.019287109">
<ele>101.277344</ele>
<time>2012-07-28T15:52:41Z</time>
<speed>0.080000</speed>
<extensions>
<speed>0.1</speed>
<temp>0.00</temp>
<bpm>0</bpm>
<rpm>0.00</rpm>
</extensions>
</trkpt>
<trkpt lat="63.853805542" lon="-22.019285202">
<ele>101.292969</ele>
<time>2012-07-28T15:52:46Z</time>
<speed>0.080000</speed>
<extensions>
<speed>0.1</speed>
<temp>0.00</temp>
<bpm>0</bpm>
<rpm>0.00</rpm>
</extensions>
</trkpt>
<trkpt lat="63.853805542" lon="-22.019285202">
<ele>101.273438</ele>
<time>2012-07-28T15:52:51Z</time>
<speed>0.060000</speed>
<extensions>
<speed>0.1</speed>
<temp>0.00</temp>
<bpm>0</bpm>
<rpm>0.00</rpm>
</extensions>
</trkpt>
<trkpt lat="63.853801727" lon="-22.019289017">
<ele>101.248047</ele>
<time>2012-07-28T15:52:56Z</time>
<speed>0.120000</speed>
<extensions>
<speed>0.1</speed>
<temp>0.00</temp>
<bpm>0</bpm>
<rpm>0.00</rpm>
</extensions>
</trkpt>
<trkpt lat="63.853797913" lon="-22.019289017">
<ele>101.224609</ele>
<time>2012-07-28T15:53:01Z</time>
<speed>0.060000</speed>
<extensions>
<speed>0.1</speed>
<temp>0.00</temp>
<bpm>0</bpm>
<rpm>0.00</rpm>
</extensions>
</trkpt>
<trkpt lat="63.853797913" lon="-22.019294739">
<ele>101.197266</ele>
<time>2012-07-28T15:53:06Z</time>
<speed>0.070000</speed>
<extensions>
<speed>0.1</speed>
<temp>0.00</temp>
<bpm>0</bpm>
<rpm>0.00</rpm>
</extensions>
</trkpt>
<trkpt lat="63.853797913" lon="-22.019296646">
<ele>101.169922</ele>
<time>2012-07-28T15:53:11Z</time>
<speed>0.020000</speed>
<extensions>
<speed>0.0</speed>
<temp>0.00</temp>
<bpm>0</bpm>
<rpm>0.00</rpm>
</extensions>
</trkpt>
<trkpt lat="63.853797913" lon="-22.019292831">
<ele>101.171875</ele>
<time>2012-07-28T15:53:16Z</time>
<speed>0.100000</speed>
<extensions>
<speed>0.1</speed>
<temp>0.00</temp>
<bpm>0</bpm>
<rpm>0.00</rpm>
</extensions>
</trkpt>
<trkpt lat="63.853801727" lon="-22.019300461">
<ele>101.185547</ele>
<time>2012-07-28T15:53:21Z</time>
<speed>0.070000</speed>
<extensions>
<speed>0.1</speed>
<temp>0.00</temp>
<bpm>0</bpm>
<rpm>0.00</rpm>
</extensions>
</trkpt>
<trkpt lat="63.853801727" lon="-22.019302368">
<ele>101.187500</ele>
<time>2012-07-28T15:53:26Z</time>
<speed>0.030000</speed>
<extensions>
<speed>0.0</speed>
<temp>0.00</temp>
<bpm>0</bpm>
<rpm>0.00</rpm>
</extensions>
</trkpt>
<trkpt lat="63.853801727" lon="-22.019302368">
<ele>101.205078</ele>
<time>2012-07-28T15:53:31Z</time>
<speed>0.030000</speed>
<extensions>
<speed>0.0</speed>
<temp>0.00</temp>
<bpm>0</bpm>
<rpm>0.00</rpm>
</extensions>
</trkpt>
<trkpt lat="63.853805542" lon="-22.019308090">
<ele>101.232422</ele>
<time>2012-07-28T15:53:36Z</time>
<speed>0.100000</speed>
<extensions>
<speed>0.1</speed>
<temp>0.00</temp>
<bpm>0</bpm>
<rpm>0.00</rpm>
</extensions>
</trkpt>
<trkpt lat="63.853805542" lon="-22.019313812">
<ele>101.246094</ele>
<time>2012-07-28T15:53:41Z</time>
<speed>0.100000</speed>
<extensions>
<speed>0.1</speed>
<temp>0.00</temp>
<bpm>0</bpm>
<rpm>0.00</rpm>
</extensions>
</trkpt>
<trkpt lat="63.853809357" lon="-22.019315720">
<ele>101.277344</ele>
<time>2012-07-28T15:53:46Z</time>
<speed>0.090000</speed>
<extensions>
<speed>0.1</speed>
<temp>0.00</temp>
<bpm>0</bpm>
<rpm>0.00</rpm>
</extensions>
</trkpt>
<trkpt lat="63.853813171" lon="-22.019315720">
<ele>101.271484</ele>
<time>2012-07-28T15:53:51Z</time>
<speed>0.110000</speed>
<extensions>
<speed>0.1</speed>
<temp>0.00</temp>
<bpm>0</bpm>
<rpm>0.00</rpm>
</extensions>
</trkpt>
<trkpt lat="63.853816986" lon="-22.019313812">
<ele>101.322266</ele>
<time>2012-07-28T15:53:56Z</time>
<speed>0.020000</speed>
<extensions>
<speed>0.0</speed>
<temp>0.00</temp>
<bpm>0</bpm>
<rpm>0.00</rpm>
</extensions>
</trkpt>
<trkpt lat="63.853813171" lon="-22.019309998">
<ele>101.349609</ele>
<time>2012-07-28T15:54:01Z</time>
<speed>0.080000</speed>
<extensions>
<speed>0.1</speed>
<temp>0.00</temp>
<bpm>0</bpm>
<rpm>0.00</rpm>
</extensions>
</trkpt>
<trkpt lat="63.853816986" lon="-22.019304276">
<ele>101.363281</ele>
<time>2012-07-28T15:54:06Z</time>
<speed>0.060000</speed>
<extensions>
<speed>0.1</speed>
<temp>0.00</temp>
<bpm>0</bpm>
<rpm>0.00</rpm>
</extensions>
</trkpt>
<trkpt lat="63.853813171" lon="-22.019304276">
<ele>101.357422</ele>
<time>2012-07-28T15:54:11Z</time>
<speed>0.050000</speed>
<extensions>
<speed>0.1</speed>
<temp>0.00</temp>
<bpm>0</bpm>
<rpm>0.00</rpm>
</extensions>
</trkpt>
<trkpt lat="63.853813171" lon="-22.019306183">
<ele>101.355469</ele>
<time>2012-07-28T15:54:16Z</time>
<speed>0.120000</speed>
<extensions>
<speed>0.1</speed>
<temp>0.00</temp>
<bpm>0</bpm>
<rpm>0.00</rpm>
</extensions>
</trkpt>
<trkpt lat="63.853816986" lon="-22.019311905">
<ele>101.353516</ele>
<time>2012-07-28T15:54:21Z</time>
<speed>0.050000</speed>
<extensions>
<speed>0.1</speed>
<temp>0.00</temp>
<bpm>0</bpm>
<rpm>0.00</rpm>
</extensions>
</trkpt>
<trkpt lat="63.853813171" lon="-22.019309998">
<ele>101.353516</ele>
<time>2012-07-28T15:54:26Z</time>
<speed>0.120000</speed>
<extensions>
<speed>0.1</speed>
<temp>0.00</temp>
<bpm>0</bpm>
<rpm>0.00</rpm>
</extensions>
</trkpt>
<trkpt lat="63.853809357" lon="-22.019302368">
<ele>101.361328</ele>
<time>2012-07-28T15:54:31Z</time>
<speed>0.050000</speed>
<extensions>
<speed>0.1</speed>
<temp>0.00</temp>
<bpm>0</bpm>
<rpm>0.00</rpm>
</extensions>
</trkpt>
<trkpt lat="63.853813171" lon="-22.019306183">
<ele>101.375000</ele>
<time>2012-07-28T15:54:36Z</time>
<speed>0.160000</speed>
<extensions>
<speed>0.2</speed>
<temp>0.00</temp>
<bpm>0</bpm>
<rpm>0.00</rpm>
</extensions>
</trkpt>
<trkpt lat="63.853816986" lon="-22.019306183">
<ele>101.353516</ele>
<time>2012-07-28T15:54:41Z</time>
<speed>0.100000</speed>
<extensions>
<speed>0.1</speed>
<temp>0.00</temp>
<bpm>0</bpm>
<rpm>0.00</rpm>
</extensions>
</trkpt>
<trkpt lat="63.853820801" lon="-22.019308090">
<ele>101.339844</ele>
<time>2012-07-28T15:54:46Z</time>
<speed>0.070000</speed>
<extensions>
<speed>0.1</speed>
<temp>0.00</temp>
<bpm>0</bpm>
<rpm>0.00</rpm>
</extensions>
</trkpt>
<trkpt lat="63.853828430" lon="-22.019315720">
<ele>101.320313</ele>
<time>2012-07-28T15:54:51Z</time>
<speed>0.110000</speed>
<extensions>
<speed>0.1</speed>
<temp>0.00</temp>
<bpm>0</bpm>
<rpm>0.00</rpm>
</extensions>
</trkpt>
<trkpt lat="63.853828430" lon="-22.019315720">
<ele>101.298828</ele>
<time>2012-07-28T15:54:56Z</time>
<speed>0.040000</speed>
<extensions>
<speed>0.0</speed>
<temp>0.00</temp>
<bpm>0</bpm>
<rpm>0.00</rpm>
</extensions>
</trkpt>
<trkpt lat="63.853824615" lon="-22.019309998">
<ele>101.296875</ele>
<time>2012-07-28T15:55:01Z</time>
<speed>0.150000</speed>
<extensions>
<speed>0.2</speed>
<temp>0.00</temp>
<bpm>0</bpm>
<rpm>0.00</rpm>
</extensions>
</trkpt>
<trkpt lat="63.853816986" lon="-22.019302368">
<ele>101.312500</ele>
<time>2012-07-28T15:55:06Z</time>
<speed>0.040000</speed>
<extensions>
<speed>0.0</speed>
<temp>0.00</temp>
<bpm>0</bpm>
<rpm>0.00</rpm>
</extensions>
</trkpt>
<trkpt lat="63.853816986" lon="-22.019296646">
<ele>101.330078</ele>
<time>2012-07-28T15:55:11Z</time>
<speed>0.220000</speed>
<extensions>
<speed>0.2</speed>
<temp>0.00</temp>
<bpm>0</bpm>
<rpm>0.00</rpm>
</extensions>
</trkpt>
<trkpt lat="63.853813171" lon="-22.019285202">
<ele>101.382813</ele>
<time>2012-07-28T15:55:16Z</time>
<speed>0.050000</speed>
<extensions>
<speed>0.1</speed>
<temp>0.00</temp>
<bpm>0</bpm>
<rpm>0.00</rpm>
</extensions>
</trkpt>
<trkpt lat="63.853813171" lon="-22.019285202">
<ele>101.445313</ele>
<time>2012-07-28T15:55:21Z</time>
<speed>0.030000</speed>
<extensions>
<speed>0.0</speed>
<temp>0.00</temp>
<bpm>0</bpm>
<rpm>0.00</rpm>
</extensions>
</trkpt>
<trkpt lat="63.853813171" lon="-22.019289017">
<ele>101.486328</ele>
<time>2012-07-28T15:55:26Z</time>
<speed>0.110000</speed>
<extensions>
<speed>0.1</speed>
<temp>0.00</temp>
<bpm>0</bpm>
<rpm>0.00</rpm>
</extensions>
</trkpt>
<trkpt lat="63.853816986" lon="-22.019294739">
<ele>101.542969</ele>
<time>2012-07-28T15:55:31Z</time>
<speed>0.070000</speed>
<extensions>
<speed>0.1</speed>
<temp>0.00</temp>
<bpm>0</bpm>
<rpm>0.00</rpm>
</extensions>
</trkpt>
<trkpt lat="63.853809357" lon="-22.019298553">
<ele>101.576172</ele>
<time>2012-07-28T15:55:36Z</time>
<speed>0.040000</speed>
<extensions>
<speed>0.0</speed>
<temp>0.00</temp>
<bpm>0</bpm>
<rpm>0.00</rpm>
</extensions>
</trkpt>
<trkpt lat="63.853809357" lon="-22.019304276">
<ele>101.560547</ele>
<time>2012-07-28T15:55:41Z</time>
<speed>0.100000</speed>
<extensions>
<speed>0.1</speed>
<temp>0.00</temp>
<bpm>0</bpm>
<rpm>0.00</rpm>
</extensions>
</trkpt>
<trkpt lat="63.853805542" lon="-22.019296646">
<ele>101.580078</ele>
<time>2012-07-28T15:55:46Z</time>
<speed>0.060000</speed>
<extensions>
<speed>0.1</speed>
<temp>0.00</temp>
<bpm>0</bpm>
<rpm>0.00</rpm>
</extensions>
</trkpt>
<trkpt lat="63.853801727" lon="-22.019292831">
<ele>101.613281</ele>
<time>2012-07-28T15:55:51Z</time>
<speed>0.100000</speed>
<extensions>
<speed>0.1</speed>
<temp>0.00</temp>
<bpm>0</bpm>
<rpm>0.00</rpm>
</extensions>
</trkpt>
<trkpt lat="63.853797913" lon="-22.019289017">
<ele>101.664063</ele>
<time>2012-07-28T15:55:56Z</time>
<speed>0.210000</speed>
<extensions>
<speed>0.2</speed>
<temp>0.00</temp>
<bpm>0</bpm>
<rpm>0.00</rpm>
</extensions>
</trkpt>
<trkpt lat="63.853794098" lon="-22.019277573">
<ele>101.710938</ele>
<time>2012-07-28T15:56:01Z</time>
<speed>0.030000</speed>
<extensions>
<speed>0.0</speed>
<temp>0.00</temp>
<bpm>0</bpm>
<rpm>0.00</rpm>
</extensions>
</trkpt>
<trkpt lat="63.853790283" lon="-22.019277573">
<ele>101.751953</ele>
<time>2012-07-28T15:56:06Z</time>
<speed>0.090000</speed>
<extensions>
<speed>0.1</speed>
<temp>0.00</temp>
<bpm>0</bpm>
<rpm>0.00</rpm>
</extensions>
</trkpt>
<trkpt lat="63.853794098" lon="-22.019289017">
<ele>101.773438</ele>
<time>2012-07-28T15:56:11Z</time>
<speed>0.180000</speed>
<extensions>
<speed>0.2</speed>
<temp>0.00</temp>
<bpm>0</bpm>
<rpm>0.00</rpm>
</extensions>
</trkpt>
<trkpt lat="63.853794098" lon="-22.019292831">
<ele>101.820313</ele>
<time>2012-07-28T15:56:16Z</time>
<speed>0.020000</speed>
<extensions>
<speed>0.0</speed>
<temp>0.00</temp>
<bpm>0</bpm>
<rpm>0.00</rpm>
</extensions>
</trkpt>
<trkpt lat="63.853797913" lon="-22.019298553">
<ele>101.849609</ele>
<time>2012-07-28T15:56:21Z</time>
<speed>0.200000</speed>
<extensions>
<speed>0.2</speed>
<temp>0.00</temp>
<bpm>0</bpm>
<rpm>0.00</rpm>
</extensions>
</trkpt>
<trkpt lat="63.853801727" lon="-22.019308090">
<ele>101.824219</ele>
<time>2012-07-28T15:56:26Z</time>
<speed>0.110000</speed>
<extensions>
<speed>0.1</speed>
<temp>0.00</temp>
<bpm>0</bpm>
<rpm>0.00</rpm>
</extensions>
</trkpt>
<trkpt lat="63.853805542" lon="-22.019308090">
<ele>101.787109</ele>
<time>2012-07-28T15:56:31Z</time>
<speed>0.080000</speed>
<extensions>
<speed>0.1</speed>
<temp>0.00</temp>
<bpm>0</bpm>
<rpm>0.00</rpm>
</extensions>
</trkpt>
<trkpt lat="63.853813171" lon="-22.019317627">
<ele>101.767578</ele>
<time>2012-07-28T15:56:36Z</time>
<speed>0.080000</speed>
<extensions>
<speed>0.1</speed>
<temp>0.00</temp>
<bpm>0</bpm>
<rpm>0.00</rpm>
</extensions>
</trkpt>
<trkpt lat="63.853816986" lon="-22.019319534">
<ele>101.791016</ele>
<time>2012-07-28T15:56:41Z</time>
<speed>0.150000</speed>
<extensions>
<speed>0.2</speed>
<temp>0.00</temp>
<bpm>0</bpm>
<rpm>0.00</rpm>
</extensions>
</trkpt>
<trkpt lat="63.853820801" lon="-22.019329071">
<ele>101.841797</ele>
<time>2012-07-28T15:56:46Z</time>
<speed>0.210000</speed>
<extensions>
<speed>0.2</speed>
<temp>0.00</temp>
<bpm>0</bpm>
<rpm>0.00</rpm>
</extensions>
</trkpt>
<trkpt lat="63.853824615" lon="-22.019336700">
<ele>101.863281</ele>
<time>2012-07-28T15:56:51Z</time>
<speed>0.050000</speed>
<extensions>
<speed>0.1</speed>
<temp>0.00</temp>
<bpm>0</bpm>
<rpm>0.00</rpm>
</extensions>
</trkpt>
<trkpt lat="63.853820801" lon="-22.019330978">
<ele>101.863281</ele>
<time>2012-07-28T15:56:56Z</time>
<speed>0.090000</speed>
<extensions>
<speed>0.1</speed>
<temp>0.00</temp>
<bpm>0</bpm>
<rpm>0.00</rpm>
</extensions>
</trkpt>
<trkpt lat="63.853816986" lon="-22.019315720">
<ele>101.886719</ele>
<time>2012-07-28T15:57:01Z</time>
<speed>0.180000</speed>
<extensions>
<speed>0.2</speed>
<temp>0.00</temp>
<bpm>0</bpm>
<rpm>0.00</rpm>
</extensions>
</trkpt>
<trkpt lat="63.853816986" lon="-22.019306183">
<ele>101.933594</ele>
<time>2012-07-28T15:57:06Z</time>
<speed>0.060000</speed>
<extensions>
<speed>0.1</speed>
<temp>0.00</temp>
<bpm>0</bpm>
<rpm>0.00</rpm>
</extensions>
</trkpt>
<trkpt lat="63.853813171" lon="-22.019304276">
<ele>101.968750</ele>
<time>2012-07-28T15:57:11Z</time>
<speed>0.060000</speed>
<extensions>
<speed>0.1</speed>
<temp>0.00</temp>
<bpm>0</bpm>
<rpm>0.00</rpm>
</extensions>
</trkpt>
<trkpt lat="63.853809357" lon="-22.019302368">
<ele>101.964844</ele>
<time>2012-07-28T15:57:16Z</time>
<speed>0.020000</speed>
<extensions>
<speed>0.0</speed>
<temp>0.00</temp>
<bpm>0</bpm>
<rpm>0.00</rpm>
</extensions>
</trkpt>
<trkpt lat="63.853809357" lon="-22.019298553">
<ele>101.955078</ele>
<time>2012-07-28T15:57:21Z</time>
<speed>0.110000</speed>
<extensions>
<speed>0.1</speed>
<temp>0.00</temp>
<bpm>0</bpm>
<rpm>0.00</rpm>
</extensions>
</trkpt>
<trkpt lat="63.853805542" lon="-22.019292831">
<ele>101.953125</ele>
<time>2012-07-28T15:57:26Z</time>
<speed>0.090000</speed>
<extensions>
<speed>0.1</speed>
<temp>0.00</temp>
<bpm>0</bpm>
<rpm>0.00</rpm>
</extensions>
</trkpt>
<trkpt lat="63.853801727" lon="-22.019281387">
<ele>101.972656</ele>
<time>2012-07-28T15:57:31Z</time>
<speed>0.170000</speed>
<extensions>
<speed>0.2</speed>
<temp>0.00</temp>
<bpm>0</bpm>
<rpm>0.00</rpm>
</extensions>
</trkpt>
<trkpt lat="63.853794098" lon="-22.019273758">
<ele>101.986328</ele>
<time>2012-07-28T15:57:36Z</time>
<speed>0.110000</speed>
<extensions>
<speed>0.1</speed>
<temp>0.00</temp>
<bpm>0</bpm>
<rpm>0.00</rpm>
</extensions>
</trkpt>
<trkpt lat="63.853794098" lon="-22.019269943">
<ele>102.013672</ele>
<time>2012-07-28T15:57:41Z</time>
<speed>0.100000</speed>
<extensions>
<speed>0.1</speed>
<temp>0.00</temp>
<bpm>0</bpm>
<rpm>0.00</rpm>
</extensions>
</trkpt>
<trkpt lat="63.853794098" lon="-22.019277573">
<ele>102.052734</ele>
<time>2012-07-28T15:57:46Z</time>
<speed>0.140000</speed>
<extensions>
<speed>0.1</speed>
<temp>0.00</temp>
<bpm>0</bpm>
<rpm>0.00</rpm>
</extensions>
</trkpt>
<trkpt lat="63.853794098" lon="-22.019281387">
<ele>102.078125</ele>
<time>2012-07-28T15:57:51Z</time>
<speed>0.090000</speed>
<extensions>
<speed>0.1</speed>
<temp>0.00</temp>
<bpm>0</bpm>
<rpm>0.00</rpm>
</extensions>
</trkpt>
<trkpt lat="63.853794098" lon="-22.019283295">
<ele>102.076172</ele>
<time>2012-07-28T15:57:56Z</time>
<speed>0.050000</speed>
<extensions>
<speed>0.1</speed>
<temp>0.00</temp>
<bpm>0</bpm>
<rpm>0.00</rpm>
</extensions>
</trkpt>
<trkpt lat="63.853790283" lon="-22.019279480">
<ele>102.066406</ele>
<time>2012-07-28T15:58:01Z</time>
<speed>0.100000</speed>
<extensions>
<speed>0.1</speed>
<temp>0.00</temp>
<bpm>0</bpm>
<rpm>0.00</rpm>
</extensions>
</trkpt>
<trkpt lat="63.853790283" lon="-22.019271851">
<ele>102.033203</ele>
<time>2012-07-28T15:58:06Z</time>
<speed>0.150000</speed>
<extensions>
<speed>0.2</speed>
<temp>0.00</temp>
<bpm>0</bpm>
<rpm>0.00</rpm>
</extensions>
</trkpt>
<trkpt lat="63.853790283" lon="-22.019264221">
<ele>102.025391</ele>
<time>2012-07-28T15:58:11Z</time>
<speed>0.040000</speed>
<extensions>
<speed>0.0</speed>
<temp>0.00</temp>
<bpm>0</bpm>
<rpm>0.00</rpm>
</extensions>
</trkpt>
<trkpt lat="63.853790283" lon="-22.019264221">
<ele>102.060547</ele>
<time>2012-07-28T15:58:16Z</time>
<speed>0.110000</speed>
<extensions>
<speed>0.1</speed>
<temp>0.00</temp>
<bpm>0</bpm>
<rpm>0.00</rpm>
</extensions>
</trkpt>
<trkpt lat="63.853790283" lon="-22.019256592">
<ele>102.115234</ele>
<time>2012-07-28T15:58:21Z</time>
<speed>0.190000</speed>
<extensions>
<speed>0.2</speed>
<temp>0.00</temp>
<bpm>0</bpm>
<rpm>0.00</rpm>
</extensions>
</trkpt>
<trkpt lat="63.853786469" lon="-22.019248962">
<ele>102.097656</ele>
<time>2012-07-28T15:58:26Z</time>
<speed>0.090000</speed>
<extensions>
<speed>0.1</speed>
<temp>0.00</temp>
<bpm>0</bpm>
<rpm>0.00</rpm>
</extensions>
</trkpt>
<trkpt lat="63.853786469" lon="-22.019241333">
<ele>102.089844</ele>
<time>2012-07-28T15:58:31Z</time>
<speed>0.040000</speed>
<extensions>
<speed>0.0</speed>
<temp>0.00</temp>
<bpm>0</bpm>
<rpm>0.00</rpm>
</extensions>
</trkpt>
<trkpt lat="63.853786469" lon="-22.019245148">
<ele>102.076172</ele>
<time>2012-07-28T15:58:36Z</time>
<speed>0.050000</speed>
<extensions>
<speed>0.1</speed>
<temp>0.00</temp>
<bpm>0</bpm>
<rpm>0.00</rpm>
</extensions>
</trkpt>
<trkpt lat="63.853782654" lon="-22.019243240">
<ele>102.064453</ele>
<time>2012-07-28T15:58:41Z</time>
<speed>0.020000</speed>
<extensions>
<speed>0.0</speed>
<temp>0.00</temp>
<bpm>0</bpm>
<rpm>0.00</rpm>
</extensions>
</trkpt>
<trkpt lat="63.853782654" lon="-22.019241333">
<ele>102.060547</ele>
<time>2012-07-28T15:58:46Z</time>
<speed>0.040000</speed>
<extensions>
<speed>0.0</speed>
<temp>0.00</temp>
<bpm>0</bpm>
<rpm>0.00</rpm>
</extensions>
</trkpt>
<trkpt lat="63.853782654" lon="-22.019245148">
<ele>102.046875</ele>
<time>2012-07-28T15:58:51Z</time>
<speed>0.050000</speed>
<extensions>
<speed>0.1</speed>
<temp>0.00</temp>
<bpm>0</bpm>
<rpm>0.00</rpm>
</extensions>
</trkpt>
<trkpt lat="63.853782654" lon="-22.019247055">
<ele>102.007813</ele>
<time>2012-07-28T15:58:56Z</time>
<speed>0.060000</speed>
<extensions>
<speed>0.1</speed>
<temp>0.00</temp>
<bpm>0</bpm>
<rpm>0.00</rpm>
</extensions>
</trkpt>
<trkpt lat="63.853782654" lon="-22.019248962">
<ele>101.986328</ele>
<time>2012-07-28T15:59:01Z</time>
<speed>0.050000</speed>
<extensions>
<speed>0.1</speed>
<temp>0.00</temp>
<bpm>0</bpm>
<rpm>0.00</rpm>
</extensions>
</trkpt>
<trkpt lat="63.853782654" lon="-22.019248962">
<ele>101.972656</ele>
<time>2012-07-28T15:59:06Z</time>
<speed>0.040000</speed>
<extensions>
<speed>0.0</speed>
<temp>0.00</temp>
<bpm>0</bpm>
<rpm>0.00</rpm>
</extensions>
</trkpt>
<trkpt lat="63.853782654" lon="-22.019250870">
<ele>101.955078</ele>
<time>2012-07-28T15:59:11Z</time>
<speed>0.040000</speed>
<extensions>
<speed>0.0</speed>
<temp>0.00</temp>
<bpm>0</bpm>
<rpm>0.00</rpm>
</extensions>
</trkpt>
<trkpt lat="63.853782654" lon="-22.019247055">
<ele>101.933594</ele>
<time>2012-07-28T15:59:16Z</time>
<speed>0.090000</speed>
<extensions>
<speed>0.1</speed>
<temp>0.00</temp>
<bpm>0</bpm>
<rpm>0.00</rpm>
</extensions>
</trkpt>
<trkpt lat="63.853778839" lon="-22.019241333">
<ele>101.929688</ele>
<time>2012-07-28T15:59:21Z</time>
<speed>0.100000</speed>
<extensions>
<speed>0.1</speed>
<temp>0.00</temp>
<bpm>0</bpm>
<rpm>0.00</rpm>
</extensions>
</trkpt>
<trkpt lat="63.853771210" lon="-22.019241333">
<ele>101.957031</ele>
<time>2012-07-28T15:59:26Z</time>
<speed>0.140000</speed>
<extensions>
<speed>0.1</speed>
<temp>0.00</temp>
<bpm>0</bpm>
<rpm>0.00</rpm>
</extensions>
</trkpt>
<trkpt lat="63.853771210" lon="-22.019235611">
<ele>101.990234</ele>
<time>2012-07-28T15:59:31Z</time>
<speed>0.060000</speed>
<extensions>
<speed>0.1</speed>
<temp>0.00</temp>
<bpm>0</bpm>
<rpm>0.00</rpm>
</extensions>
</trkpt>
<trkpt lat="63.853767395" lon="-22.019229889">
<ele>102.029297</ele>
<time>2012-07-28T15:59:36Z</time>
<speed>0.080000</speed>
<extensions>
<speed>0.1</speed>
<temp>0.00</temp>
<bpm>0</bpm>
<rpm>0.00</rpm>
</extensions>
</trkpt>
<trkpt lat="63.853767395" lon="-22.019226074">
<ele>102.035156</ele>
<time>2012-07-28T15:59:41Z</time>
<extensions>
<speed>0.0</speed>
<temp>0.00</temp>
<bpm>0</bpm>
<rpm>0.00</rpm>
</extensions>
</trkpt>
<trkpt lat="63.853767395" lon="-22.019233704">
<ele>102.023438</ele>
<time>2012-07-28T15:59:46Z</time>
<speed>0.150000</speed>
<extensions>
<speed>0.2</speed>
<temp>0.00</temp>
<bpm>0</bpm>
<rpm>0.00</rpm>
</extensions>
</trkpt>
<trkpt lat="63.853771210" lon="-22.019239426">
<ele>102.023438</ele>
<time>2012-07-28T15:59:51Z</time>
<speed>0.080000</speed>
<extensions>
<speed>0.1</speed>
<temp>0.00</temp>
<bpm>0</bpm>
<rpm>0.00</rpm>
</extensions>
</trkpt>
<trkpt lat="63.853767395" lon="-22.019243240">
<ele>102.031250</ele>
<time>2012-07-28T15:59:56Z</time>
<speed>0.080000</speed>
<extensions>
<speed>0.1</speed>
<temp>0.00</temp>
<bpm>0</bpm>
<rpm>0.00</rpm>
</extensions>
</trkpt>
<trkpt lat="63.853767395" lon="-22.019241333">
<ele>102.007813</ele>
<time>2012-07-28T16:00:01Z</time>
<speed>0.220000</speed>
<extensions>
<speed>0.2</speed>
<temp>0.00</temp>
<bpm>0</bpm>
<rpm>0.00</rpm>
</extensions>
</trkpt>
<trkpt lat="63.853763580" lon="-22.019239426">
<ele>102.027344</ele>
<time>2012-07-28T16:00:06Z</time>
<speed>0.030000</speed>
<extensions>
<speed>0.0</speed>
<temp>0.00</temp>
<bpm>0</bpm>
<rpm>0.00</rpm>
</extensions>
</trkpt>
<trkpt lat="63.853767395" lon="-22.019243240">
<ele>102.099609</ele>
<time>2012-07-28T16:00:11Z</time>
<speed>0.080000</speed>
<extensions>
<speed>0.1</speed>
<temp>0.00</temp>
<bpm>0</bpm>
<rpm>0.00</rpm>
</extensions>
</trkpt>
<trkpt lat="63.853767395" lon="-22.019233704">
<ele>102.162109</ele>
<time>2012-07-28T16:00:16Z</time>
<speed>0.170000</speed>
<extensions>
<speed>0.2</speed>
<temp>0.00</temp>
<bpm>0</bpm>
<rpm>0.00</rpm>
</extensions>
</trkpt>
<trkpt lat="63.853767395" lon="-22.019229889">
<ele>102.187500</ele>
<time>2012-07-28T16:00:21Z</time>
<speed>0.030000</speed>
<extensions>
<speed>0.0</speed>
<temp>0.00</temp>
<bpm>0</bpm>
<rpm>0.00</rpm>
</extensions>
</trkpt>
<trkpt lat="63.853767395" lon="-22.019235611">
<ele>102.150391</ele>
<time>2012-07-28T16:00:26Z</time>
<speed>0.070000</speed>
<extensions>
<speed>0.1</speed>
<temp>0.00</temp>
<bpm>0</bpm>
<rpm>0.00</rpm>
</extensions>
</trkpt>
<trkpt lat="63.853763580" lon="-22.019235611">
<ele>102.113281</ele>
<time>2012-07-28T16:00:31Z</time>
<speed>0.060000</speed>
<extensions>
<speed>0.1</speed>
<temp>0.00</temp>
<bpm>0</bpm>
<rpm>0.00</rpm>
</extensions>
</trkpt>
<trkpt lat="63.853763580" lon="-22.019239426">
<ele>102.091797</ele>
<time>2012-07-28T16:00:36Z</time>
<speed>0.030000</speed>
<extensions>
<speed>0.0</speed>
<temp>0.00</temp>
<bpm>0</bpm>
<rpm>0.00</rpm>
</extensions>
</trkpt>
<trkpt lat="63.853763580" lon="-22.019243240">
<ele>102.087891</ele>
<time>2012-07-28T16:00:41Z</time>
<speed>0.120000</speed>
<extensions>
<speed>0.1</speed>
<temp>0.00</temp>
<bpm>0</bpm>
<rpm>0.00</rpm>
</extensions>
</trkpt>
<trkpt lat="63.853771210" lon="-22.019250870">
<ele>102.068359</ele>
<time>2012-07-28T16:00:46Z</time>
<speed>0.140000</speed>
<extensions>
<speed>0.1</speed>
<temp>0.00</temp>
<bpm>0</bpm>
<rpm>0.00</rpm>
</extensions>
</trkpt>
<trkpt lat="63.853775024" lon="-22.019256592">
<ele>102.021484</ele>
<time>2012-07-28T16:00:51Z</time>
<speed>0.020000</speed>
<extensions>
<speed>0.0</speed>
<temp>0.00</temp>
<bpm>0</bpm>
<rpm>0.00</rpm>
</extensions>
</trkpt>
<trkpt lat="63.853775024" lon="-22.019262314">
<ele>102.003906</ele>
<time>2012-07-28T16:00:56Z</time>
<speed>0.130000</speed>
<extensions>
<speed>0.1</speed>
<temp>0.00</temp>
<bpm>0</bpm>
<rpm>0.00</rpm>
</extensions>
</trkpt>
<trkpt lat="63.853778839" lon="-22.019258499">
<ele>102.015625</ele>
<time>2012-07-28T16:01:01Z</time>
<speed>0.150000</speed>
<extensions>
<speed>0.2</speed>
<temp>0.00</temp>
<bpm>0</bpm>
<rpm>0.00</rpm>
</extensions>
</trkpt>
<trkpt lat="63.853778839" lon="-22.019252777">
<ele>102.015625</ele>
<time>2012-07-28T16:01:06Z</time>
<speed>0.210000</speed>
<extensions>
<speed>0.2</speed>
<temp>0.00</temp>
<bpm>0</bpm>
<rpm>0.00</rpm>
</extensions>
</trkpt>
<trkpt lat="63.853775024" lon="-22.019237518">
<ele>102.037109</ele>
<time>2012-07-28T16:01:11Z</time>
<speed>0.100000</speed>
<extensions>
<speed>0.1</speed>
<temp>0.00</temp>
<bpm>0</bpm>
<rpm>0.00</rpm>
</extensions>
</trkpt>
<trkpt lat="63.853775024" lon="-22.019224167">
<ele>102.044922</ele>
<time>2012-07-28T16:01:16Z</time>
<speed>0.090000</speed>
<extensions>
<speed>0.1</speed>
<temp>0.00</temp>
<bpm>0</bpm>
<rpm>0.00</rpm>
</extensions>
</trkpt>
<trkpt lat="63.853775024" lon="-22.019226074">
<ele>102.019531</ele>
<time>2012-07-28T16:01:21Z</time>
<speed>0.010000</speed>
<extensions>
<speed>0.0</speed>
<temp>0.00</temp>
<bpm>0</bpm>
<rpm>0.00</rpm>
</extensions>
</trkpt>
<trkpt lat="63.853775024" lon="-22.019222260">
<ele>102.009766</ele>
<time>2012-07-28T16:01:26Z</time>
<speed>0.100000</speed>
<extensions>
<speed>0.1</speed>
<temp>0.00</temp>
<bpm>0</bpm>
<rpm>0.00</rpm>
</extensions>
</trkpt>
<trkpt lat="63.853775024" lon="-22.019222260">
<ele>101.974609</ele>
<time>2012-07-28T16:01:31Z</time>
<speed>0.090000</speed>
<extensions>
<speed>0.1</speed>
<temp>0.00</temp>
<bpm>0</bpm>
<rpm>0.00</rpm>
</extensions>
</trkpt>
<trkpt lat="63.853775024" lon="-22.019229889">
<ele>101.933594</ele>
<time>2012-07-28T16:01:36Z</time>
<speed>0.060000</speed>
<extensions>
<speed>0.1</speed>
<temp>0.00</temp>
<bpm>0</bpm>
<rpm>0.00</rpm>
</extensions>
</trkpt>
<trkpt lat="63.853771210" lon="-22.019227982">
<ele>101.908203</ele>
<time>2012-07-28T16:01:41Z</time>
<speed>0.040000</speed>
<extensions>
<speed>0.0</speed>
<temp>0.00</temp>
<bpm>0</bpm>
<rpm>0.00</rpm>
</extensions>
</trkpt>
<trkpt lat="63.853767395" lon="-22.019226074">
<ele>101.900391</ele>
<time>2012-07-28T16:01:46Z</time>
<speed>0.080000</speed>
<extensions>
<speed>0.1</speed>
<temp>0.00</temp>
<bpm>0</bpm>
<rpm>0.00</rpm>
</extensions>
</trkpt>
<trkpt lat="63.853767395" lon="-22.019218445">
<ele>101.916016</ele>
<time>2012-07-28T16:01:51Z</time>
<speed>0.050000</speed>
<extensions>
<speed>0.1</speed>
<temp>0.00</temp>
<bpm>0</bpm>
<rpm>0.00</rpm>
</extensions>
</trkpt>
<trkpt lat="63.853763580" lon="-22.019220352">
<ele>101.923828</ele>
<time>2012-07-28T16:01:56Z</time>
<speed>0.070000</speed>
<extensions>
<speed>0.1</speed>
<temp>0.00</temp>
<bpm>0</bpm>
<rpm>0.00</rpm>
</extensions>
</trkpt>
<trkpt lat="63.853763580" lon="-22.019224167">
<ele>101.945313</ele>
<time>2012-07-28T16:02:01Z</time>
<speed>0.100000</speed>
<extensions>
<speed>0.1</speed>
<temp>0.00</temp>
<bpm>0</bpm>
<rpm>0.00</rpm>
</extensions>
</trkpt>
<trkpt lat="63.853759766" lon="-22.019220352">
<ele>101.966797</ele>
<time>2012-07-28T16:02:06Z</time>
<speed>0.090000</speed>
<extensions>
<speed>0.1</speed>
<temp>0.00</temp>
<bpm>0</bpm>
<rpm>0.00</rpm>
</extensions>
</trkpt>
<trkpt lat="63.853755951" lon="-22.019220352">
<ele>101.978516</ele>
<time>2012-07-28T16:02:11Z</time>
<speed>0.070000</speed>
<extensions>
<speed>0.1</speed>
<temp>0.00</temp>
<bpm>0</bpm>
<rpm>0.00</rpm>
</extensions>
</trkpt>
<trkpt lat="63.853755951" lon="-22.019222260">
<ele>101.998047</ele>
<time>2012-07-28T16:02:16Z</time>
<speed>0.100000</speed>
<extensions>
<speed>0.1</speed>
<temp>0.00</temp>
<bpm>0</bpm>
<rpm>0.00</rpm>
</extensions>
</trkpt>
<trkpt lat="63.853755951" lon="-22.019226074">
<ele>102.013672</ele>
<time>2012-07-28T16:02:21Z</time>
<extensions>
<speed>0.0</speed>
<temp>0.00</temp>
<bpm>0</bpm>
<rpm>0.00</rpm>
</extensions>
</trkpt>
<trkpt lat="63.853755951" lon="-22.019229889">
<ele>102.074219</ele>
<time>2012-07-28T16:02:26Z</time>
<speed>0.070000</speed>
<extensions>
<speed>0.1</speed>
<temp>0.00</temp>
<bpm>0</bpm>
<rpm>0.00</rpm>
</extensions>
</trkpt>
<trkpt lat="63.853752136" lon="-22.019229889">
<ele>102.105469</ele>
<time>2012-07-28T16:02:31Z</time>
<speed>0.130000</speed>
<extensions>
<speed>0.1</speed>
<temp>0.00</temp>
<bpm>0</bpm>
<rpm>0.00</rpm>
</extensions>
</trkpt>
<trkpt lat="63.853755951" lon="-22.019237518">
<ele>102.046875</ele>
<time>2012-07-28T16:02:36Z</time>
<speed>0.020000</speed>
<extensions>
<speed>0.0</speed>
<temp>0.00</temp>
<bpm>0</bpm>
<rpm>0.00</rpm>
</extensions>
</trkpt>
<trkpt lat="63.853759766" lon="-22.019245148">
<ele>102.042969</ele>
<time>2012-07-28T16:02:41Z</time>
<speed>0.080000</speed>
<extensions>
<speed>0.1</speed>
<temp>0.00</temp>
<bpm>0</bpm>
<rpm>0.00</rpm>
</extensions>
</trkpt>
<trkpt lat="63.853759766" lon="-22.019247055">
<ele>102.003906</ele>
<time>2012-07-28T16:02:46Z</time>
<speed>0.040000</speed>
<extensions>
<speed>0.0</speed>
<temp>0.00</temp>
<bpm>0</bpm>
<rpm>0.00</rpm>
</extensions>
</trkpt>
<trkpt lat="63.853759766" lon="-22.019252777">
<ele>101.998047</ele>
<time>2012-07-28T16:02:51Z</time>
<speed>0.060000</speed>
<extensions>
<speed>0.1</speed>
<temp>0.00</temp>
<bpm>0</bpm>
<rpm>0.00</rpm>
</extensions>
</trkpt>
<trkpt lat="63.853763580" lon="-22.019250870">
<ele>101.990234</ele>
<time>2012-07-28T16:02:56Z</time>
<speed>0.040000</speed>
<extensions>
<speed>0.0</speed>
<temp>0.00</temp>
<bpm>0</bpm>
<rpm>0.00</rpm>
</extensions>
</trkpt>
<trkpt lat="63.853763580" lon="-22.019252777">
<ele>101.884766</ele>
<time>2012-07-28T16:03:01Z</time>
<speed>0.020000</speed>
<extensions>
<speed>0.0</speed>
<temp>0.00</temp>
<bpm>0</bpm>
<rpm>0.00</rpm>
</extensions>
</trkpt>
<trkpt lat="63.853763580" lon="-22.019248962">
<ele>101.824219</ele>
<time>2012-07-28T16:03:06Z</time>
<speed>0.030000</speed>
<extensions>
<speed>0.0</speed>
<temp>0.00</temp>
<bpm>0</bpm>
<rpm>0.00</rpm>
</extensions>
</trkpt>
<trkpt lat="63.853759766" lon="-22.019247055">
<ele>101.792969</ele>
<time>2012-07-28T16:03:11Z</time>
<speed>0.070000</speed>
<extensions>
<speed>0.1</speed>
<temp>0.00</temp>
<bpm>0</bpm>
<rpm>0.00</rpm>
</extensions>
</trkpt>
<trkpt lat="63.853759766" lon="-22.019247055">
<ele>101.791016</ele>
<time>2012-07-28T16:03:16Z</time>
<speed>0.010000</speed>
<extensions>
<speed>0.0</speed>
<temp>0.00</temp>
<bpm>0</bpm>
<rpm>0.00</rpm>
</extensions>
</trkpt>
<trkpt lat="63.853759766" lon="-22.019243240">
<ele>101.763672</ele>
<time>2012-07-28T16:03:21Z</time>
<speed>0.040000</speed>
<extensions>
<speed>0.0</speed>
<temp>0.00</temp>
<bpm>0</bpm>
<rpm>0.00</rpm>
</extensions>
</trkpt>
<trkpt lat="63.853763580" lon="-22.019241333">
<ele>101.744141</ele>
<time>2012-07-28T16:03:26Z</time>
<speed>0.030000</speed>
<extensions>
<speed>0.0</speed>
<temp>0.00</temp>
<bpm>0</bpm>
<rpm>0.00</rpm>
</extensions>
</trkpt>
<trkpt lat="63.853763580" lon="-22.019247055">
<ele>101.707031</ele>
<time>2012-07-28T16:03:31Z</time>
<speed>0.050000</speed>
<extensions>
<speed>0.1</speed>
<temp>0.00</temp>
<bpm>0</bpm>
<rpm>0.00</rpm>
</extensions>
</trkpt>
<trkpt lat="63.853763580" lon="-22.019243240">
<ele>101.675781</ele>
<time>2012-07-28T16:03:36Z</time>
<speed>0.130000</speed>
<extensions>
<speed>0.1</speed>
<temp>0.00</temp>
<bpm>0</bpm>
<rpm>0.00</rpm>
</extensions>
</trkpt>
<trkpt lat="63.853767395" lon="-22.019256592">
<ele>101.675781</ele>
<time>2012-07-28T16:03:41Z</time>
<speed>0.120000</speed>
<extensions>
<speed>0.1</speed>
<temp>0.00</temp>
<bpm>0</bpm>
<rpm>0.00</rpm>
</extensions>
</trkpt>
<trkpt lat="63.853767395" lon="-22.019260406">
<ele>101.669922</ele>
<time>2012-07-28T16:03:46Z</time>
<speed>0.050000</speed>
<extensions>
<speed>0.1</speed>
<temp>0.00</temp>
<bpm>0</bpm>
<rpm>0.00</rpm>
</extensions>
</trkpt>
<trkpt lat="63.853771210" lon="-22.019262314">
<ele>101.628906</ele>
<time>2012-07-28T16:03:51Z</time>
<extensions>
<speed>0.0</speed>
<temp>0.00</temp>
<bpm>0</bpm>
<rpm>0.00</rpm>
</extensions>
</trkpt>
<trkpt lat="63.853771210" lon="-22.019262314">
<ele>101.578125</ele>
<time>2012-07-28T16:03:56Z</time>
<speed>0.060000</speed>
<extensions>
<speed>0.1</speed>
<temp>0.00</temp>
<bpm>0</bpm>
<rpm>0.00</rpm>
</extensions>
</trkpt>
<trkpt lat="63.853771210" lon="-22.019256592">
<ele>101.533203</ele>
<time>2012-07-28T16:04:01Z</time>
<speed>0.070000</speed>
<extensions>
<speed>0.1</speed>
<temp>0.00</temp>
<bpm>0</bpm>
<rpm>0.00</rpm>
</extensions>
</trkpt>
<trkpt lat="63.853771210" lon="-22.019250870">
<ele>101.517578</ele>
<time>2012-07-28T16:04:06Z</time>
<speed>0.020000</speed>
<extensions>
<speed>0.0</speed>
<temp>0.00</temp>
<bpm>0</bpm>
<rpm>0.00</rpm>
</extensions>
</trkpt>
<trkpt lat="63.853771210" lon="-22.019250870">
<ele>101.496094</ele>
<time>2012-07-28T16:04:11Z</time>
<speed>0.020000</speed>
<extensions>
<speed>0.0</speed>
<temp>0.00</temp>
<bpm>0</bpm>
<rpm>0.00</rpm>
</extensions>
</trkpt>
<trkpt lat="63.853771210" lon="-22.019254684">
<ele>101.486328</ele>
<time>2012-07-28T16:04:16Z</time>
<speed>0.100000</speed>
<extensions>
<speed>0.1</speed>
<temp>0.00</temp>
<bpm>0</bpm>
<rpm>0.00</rpm>
</extensions>
</trkpt>
<trkpt lat="63.853767395" lon="-22.019250870">
<ele>101.458984</ele>
<time>2012-07-28T16:04:21Z</time>
<speed>0.060000</speed>
<extensions>
<speed>0.1</speed>
<temp>0.00</temp>
<bpm>0</bpm>
<rpm>0.00</rpm>
</extensions>
</trkpt>
<trkpt lat="63.853763580" lon="-22.019241333">
<ele>101.464844</ele>
<time>2012-07-28T16:04:26Z</time>
<speed>0.190000</speed>
<extensions>
<speed>0.2</speed>
<temp>0.00</temp>
<bpm>0</bpm>
<rpm>0.00</rpm>
</extensions>
</trkpt>
<trkpt lat="63.853759766" lon="-22.019233704">
<ele>101.472656</ele>
<time>2012-07-28T16:04:31Z</time>
<speed>0.120000</speed>
<extensions>
<speed>0.1</speed>
<temp>0.00</temp>
<bpm>0</bpm>
<rpm>0.00</rpm>
</extensions>
</trkpt>
<trkpt lat="63.853759766" lon="-22.019227982">
<ele>101.480469</ele>
<time>2012-07-28T16:04:36Z</time>
<speed>0.040000</speed>
<extensions>
<speed>0.0</speed>
<temp>0.00</temp>
<bpm>0</bpm>
<rpm>0.00</rpm>
</extensions>
</trkpt>
<trkpt lat="63.853763580" lon="-22.019224167">
<ele>101.484375</ele>
<time>2012-07-28T16:04:41Z</time>
<speed>0.080000</speed>
<extensions>
<speed>0.1</speed>
<temp>0.00</temp>
<bpm>0</bpm>
<rpm>0.00</rpm>
</extensions>
</trkpt>
<trkpt lat="63.853763580" lon="-22.019220352">
<ele>101.490234</ele>
<time>2012-07-28T16:04:46Z</time>
<speed>0.050000</speed>
<extensions>
<speed>0.1</speed>
<temp>0.00</temp>
<bpm>0</bpm>
<rpm>0.00</rpm>
</extensions>
</trkpt>
<trkpt lat="63.853763580" lon="-22.019218445">
<ele>101.503906</ele>
<time>2012-07-28T16:04:51Z</time>
<speed>0.100000</speed>
<extensions>
<speed>0.1</speed>
<temp>0.00</temp>
<bpm>0</bpm>
<rpm>0.00</rpm>
</extensions>
</trkpt>
<trkpt lat="63.853763580" lon="-22.019226074">
<ele>101.466797</ele>
<time>2012-07-28T16:04:56Z</time>
<speed>0.010000</speed>
<extensions>
<speed>0.0</speed>
<temp>0.00</temp>
<bpm>0</bpm>
<rpm>0.00</rpm>
</extensions>
</trkpt>
<trkpt lat="63.853767395" lon="-22.019231796">
<ele>101.433594</ele>
<time>2012-07-28T16:05:01Z</time>
<speed>0.030000</speed>
<extensions>
<speed>0.0</speed>
<temp>0.00</temp>
<bpm>0</bpm>
<rpm>0.00</rpm>
</extensions>
</trkpt>
<trkpt lat="63.853767395" lon="-22.019233704">
<ele>101.404297</ele>
<time>2012-07-28T16:05:06Z</time>
<extensions>
<speed>0.0</speed>
<temp>0.00</temp>
<bpm>0</bpm>
<rpm>0.00</rpm>
</extensions>
</trkpt>
<trkpt lat="63.853767395" lon="-22.019233704">
<ele>101.384766</ele>
<time>2012-07-28T16:05:11Z</time>
<speed>0.010000</speed>
<extensions>
<speed>0.0</speed>
<temp>0.00</temp>
<bpm>0</bpm>
<rpm>0.00</rpm>
</extensions>
</trkpt>
<trkpt lat="63.853767395" lon="-22.019233704">
<ele>101.371094</ele>
<time>2012-07-28T16:05:16Z</time>
<extensions>
<speed>0.0</speed>
<temp>0.00</temp>
<bpm>0</bpm>
<rpm>0.00</rpm>
</extensions>
</trkpt>
<trkpt lat="63.853767395" lon="-22.019233704">
<ele>101.347656</ele>
<time>2012-07-28T16:05:21Z</time>
<extensions>
<speed>0.0</speed>
<temp>0.00</temp>
<bpm>0</bpm>
<rpm>0.00</rpm>
</extensions>
</trkpt>
<trkpt lat="63.853767395" lon="-22.019235611">
<ele>101.330078</ele>
<time>2012-07-28T16:05:26Z</time>
<extensions>
<speed>0.0</speed>
<temp>0.00</temp>
<bpm>0</bpm>
<rpm>0.00</rpm>
</extensions>
</trkpt>
<trkpt lat="63.853767395" lon="-22.019235611">
<ele>101.328125</ele>
<time>2012-07-28T16:05:31Z</time>
<extensions>
<speed>0.0</speed>
<temp>0.00</temp>
<bpm>0</bpm>
<rpm>0.00</rpm>
</extensions>
</trkpt>
<trkpt lat="63.853767395" lon="-22.019235611">
<ele>101.164063</ele>
<time>2012-07-28T16:05:36Z</time>
<extensions>
<speed>0.0</speed>
<temp>0.00</temp>
<bpm>0</bpm>
<rpm>0.00</rpm>
</extensions>
</trkpt>
<trkpt lat="63.853767395" lon="-22.019235611">
<ele>101.148438</ele>
<time>2012-07-28T16:05:41Z</time>
<extensions>
<speed>0.0</speed>
<temp>0.00</temp>
<bpm>0</bpm>
<rpm>0.00</rpm>
</extensions>
</trkpt>
<trkpt lat="63.853767395" lon="-22.019235611">
<ele>101.146484</ele>
<time>2012-07-28T16:05:46Z</time>
<speed>0.010000</speed>
<extensions>
<speed>0.0</speed>
<temp>0.00</temp>
<bpm>0</bpm>
<rpm>0.00</rpm>
</extensions>
</trkpt>
<trkpt lat="63.853767395" lon="-22.019237518">
<ele>101.146484</ele>
<time>2012-07-28T16:05:51Z</time>
<extensions>
<speed>0.0</speed>
<temp>0.00</temp>
<bpm>0</bpm>
<rpm>0.00</rpm>
</extensions>
</trkpt>
<trkpt lat="63.853767395" lon="-22.019237518">
<ele>101.144531</ele>
<time>2012-07-28T16:05:56Z</time>
<speed>0.010000</speed>
<extensions>
<speed>0.0</speed>
<temp>0.00</temp>
<bpm>0</bpm>
<rpm>0.00</rpm>
</extensions>
</trkpt>
<trkpt lat="63.853767395" lon="-22.019237518">
<ele>101.138672</ele>
<time>2012-07-28T16:06:01Z</time>
<speed>0.010000</speed>
<extensions>
<speed>0.0</speed>
<temp>0.00</temp>
<bpm>0</bpm>
<rpm>0.00</rpm>
</extensions>
</trkpt>
<trkpt lat="63.853767395" lon="-22.019237518">
<ele>101.117188</ele>
<time>2012-07-28T16:06:06Z</time>
<extensions>
<speed>0.0</speed>
<temp>0.00</temp>
<bpm>0</bpm>
<rpm>0.00</rpm>
</extensions>
</trkpt>
<trkpt lat="63.853767395" lon="-22.019237518">
<ele>101.101563</ele>
<time>2012-07-28T16:06:11Z</time>
<speed>0.010000</speed>
<extensions>
<speed>0.0</speed>
<temp>0.00</temp>
<bpm>0</bpm>
<rpm>0.00</rpm>
</extensions>
</trkpt>
<trkpt lat="63.853767395" lon="-22.019237518">
<ele>101.064453</ele>
<time>2012-07-28T16:06:16Z</time>
<extensions>
<speed>0.0</speed>
<temp>0.00</temp>
<bpm>0</bpm>
<rpm>0.00</rpm>
</extensions>
</trkpt>
<trkpt lat="63.853767395" lon="-22.019237518">
<ele>101.037109</ele>
<time>2012-07-28T16:06:21Z</time>
<extensions>
<speed>0.0</speed>
<temp>0.00</temp>
<bpm>0</bpm>
<rpm>0.00</rpm>
</extensions>
</trkpt>
<trkpt lat="63.853767395" lon="-22.019237518">
<ele>101.015625</ele>
<time>2012-07-28T16:06:26Z</time>
<extensions>
<speed>0.0</speed>
<temp>0.00</temp>
<bpm>0</bpm>
<rpm>0.00</rpm>
</extensions>
</trkpt>
<trkpt lat="63.853767395" lon="-22.019237518">
<ele>100.992188</ele>
<time>2012-07-28T16:06:31Z</time>
<speed>0.010000</speed>
<extensions>
<speed>0.0</speed>
<temp>0.00</temp>
<bpm>0</bpm>
<rpm>0.00</rpm>
</extensions>
</trkpt>
<trkpt lat="63.853767395" lon="-22.019237518">
<ele>100.964844</ele>
<time>2012-07-28T16:06:36Z</time>
<extensions>
<speed>0.0</speed>
<temp>0.00</temp>
<bpm>0</bpm>
<rpm>0.00</rpm>
</extensions>
</trkpt>
<trkpt lat="63.853767395" lon="-22.019237518">
<ele>100.937500</ele>
<time>2012-07-28T16:06:41Z</time>
<extensions>
<speed>0.0</speed>
<temp>0.00</temp>
<bpm>0</bpm>
<rpm>0.00</rpm>
</extensions>
</trkpt>
<trkpt lat="63.853767395" lon="-22.019239426">
<ele>100.912109</ele>
<time>2012-07-28T16:06:46Z</time>
<extensions>
<speed>0.0</speed>
<temp>0.00</temp>
<bpm>0</bpm>
<rpm>0.00</rpm>
</extensions>
</trkpt>
<trkpt lat="63.853767395" lon="-22.019239426">
<ele>100.873047</ele>
<time>2012-07-28T16:06:51Z</time>
<speed>0.010000</speed>
<extensions>
<speed>0.0</speed>
<temp>0.00</temp>
<bpm>0</bpm>
<rpm>0.00</rpm>
</extensions>
</trkpt>
<trkpt lat="63.853767395" lon="-22.019239426">
<ele>100.845703</ele>
<time>2012-07-28T16:06:56Z</time>
<speed>0.010000</speed>
<extensions>
<speed>0.0</speed>
<temp>0.00</temp>
<bpm>0</bpm>
<rpm>0.00</rpm>
</extensions>
</trkpt>
<trkpt lat="63.853767395" lon="-22.019239426">
<ele>100.833984</ele>
<time>2012-07-28T16:07:01Z</time>
<speed>0.010000</speed>
<extensions>
<speed>0.0</speed>
<temp>0.00</temp>
<bpm>0</bpm>
<rpm>0.00</rpm>
</extensions>
</trkpt>
<trkpt lat="63.853767395" lon="-22.019239426">
<ele>100.812500</ele>
<time>2012-07-28T16:07:06Z</time>
<extensions>
<speed>0.0</speed>
<temp>0.00</temp>
<bpm>0</bpm>
<rpm>0.00</rpm>
</extensions>
</trkpt>
<trkpt lat="63.853767395" lon="-22.019239426">
<ele>100.773438</ele>
<time>2012-07-28T16:07:11Z</time>
<speed>0.020000</speed>
<extensions>
<speed>0.0</speed>
<temp>0.00</temp>
<bpm>0</bpm>
<rpm>0.00</rpm>
</extensions>
</trkpt>
<trkpt lat="63.853771210" lon="-22.019239426">
<ele>100.732422</ele>
<time>2012-07-28T16:07:16Z</time>
<speed>0.010000</speed>
<extensions>
<speed>0.0</speed>
<temp>0.00</temp>
<bpm>0</bpm>
<rpm>0.00</rpm>
</extensions>
</trkpt>
<trkpt lat="63.853771210" lon="-22.019239426">
<ele>100.699219</ele>
<time>2012-07-28T16:07:21Z</time>
<speed>0.010000</speed>
<extensions>
<speed>0.0</speed>
<temp>0.00</temp>
<bpm>0</bpm>
<rpm>0.00</rpm>
</extensions>
</trkpt>
<trkpt lat="63.853771210" lon="-22.019239426">
<ele>100.664063</ele>
<time>2012-07-28T16:07:26Z</time>
<extensions>
<speed>0.0</speed>
<temp>0.00</temp>
<bpm>0</bpm>
<rpm>0.00</rpm>
</extensions>
</trkpt>
<trkpt lat="63.853771210" lon="-22.019239426">
<ele>100.628906</ele>
<time>2012-07-28T16:07:31Z</time>
<extensions>
<speed>0.0</speed>
<temp>0.00</temp>
<bpm>0</bpm>
<rpm>0.00</rpm>
</extensions>
</trkpt>
<trkpt lat="63.853771210" lon="-22.019239426">
<ele>100.605469</ele>
<time>2012-07-28T16:07:36Z</time>
<speed>0.010000</speed>
<extensions>
<speed>0.0</speed>
<temp>0.00</temp>
<bpm>0</bpm>
<rpm>0.00</rpm>
</extensions>
</trkpt>
<trkpt lat="63.853771210" lon="-22.019239426">
<ele>100.576172</ele>
<time>2012-07-28T16:07:41Z</time>
<speed>0.010000</speed>
<extensions>
<speed>0.0</speed>
<temp>0.00</temp>
<bpm>0</bpm>
<rpm>0.00</rpm>
</extensions>
</trkpt>
<trkpt lat="63.853771210" lon="-22.019239426">
<ele>100.541016</ele>
<time>2012-07-28T16:07:46Z</time>
<extensions>
<speed>0.0</speed>
<temp>0.00</temp>
<bpm>0</bpm>
<rpm>0.00</rpm>
</extensions>
</trkpt>
<trkpt lat="63.853771210" lon="-22.019239426">
<ele>100.511719</ele>
<time>2012-07-28T16:07:51Z</time>
<speed>0.010000</speed>
<extensions>
<speed>0.0</speed>
<temp>0.00</temp>
<bpm>0</bpm>
<rpm>0.00</rpm>
</extensions>
</trkpt>
<trkpt lat="63.853771210" lon="-22.019239426">
<ele>100.490234</ele>
<time>2012-07-28T16:07:56Z</time>
<extensions>
<speed>0.0</speed>
<temp>0.00</temp>
<bpm>0</bpm>
<rpm>0.00</rpm>
</extensions>
</trkpt>
<trkpt lat="63.853771210" lon="-22.019239426">
<ele>100.443359</ele>
<time>2012-07-28T16:08:01Z</time>
<extensions>
<speed>0.0</speed>
<temp>0.00</temp>
<bpm>0</bpm>
<rpm>0.00</rpm>
</extensions>
</trkpt>
<trkpt lat="63.853771210" lon="-22.019239426">
<ele>100.419922</ele>
<time>2012-07-28T16:08:06Z</time>
<extensions>
<speed>0.0</speed>
<temp>0.00</temp>
<bpm>0</bpm>
<rpm>0.00</rpm>
</extensions>
</trkpt>
<trkpt lat="63.853771210" lon="-22.019239426">
<ele>100.394531</ele>
<time>2012-07-28T16:08:11Z</time>
<extensions>
<speed>0.0</speed>
<temp>0.00</temp>
<bpm>0</bpm>
<rpm>0.00</rpm>
</extensions>
</trkpt>
<trkpt lat="63.853771210" lon="-22.019239426">
<ele>100.376953</ele>
<time>2012-07-28T16:08:16Z</time>
<extensions>
<speed>0.0</speed>
<temp>0.00</temp>
<bpm>0</bpm>
<rpm>0.00</rpm>
</extensions>
</trkpt>
<trkpt lat="63.853771210" lon="-22.019239426">
<ele>100.353516</ele>
<time>2012-07-28T16:08:21Z</time>
<speed>0.010000</speed>
<extensions>
<speed>0.0</speed>
<temp>0.00</temp>
<bpm>0</bpm>
<rpm>0.00</rpm>
</extensions>
</trkpt>
<trkpt lat="63.853771210" lon="-22.019239426">
<ele>100.322266</ele>
<time>2012-07-28T16:08:26Z</time>
<extensions>
<speed>0.0</speed>
<temp>0.00</temp>
<bpm>0</bpm>
<rpm>0.00</rpm>
</extensions>
</trkpt>
<trkpt lat="63.853771210" lon="-22.019239426">
<ele>100.294922</ele>
<time>2012-07-28T16:08:31Z</time>
<extensions>
<speed>0.0</speed>
<temp>0.00</temp>
<bpm>0</bpm>
<rpm>0.00</rpm>
</extensions>
</trkpt>
<trkpt lat="63.853771210" lon="-22.019239426">
<ele>100.265625</ele>
<time>2012-07-28T16:08:36Z</time>
<extensions>
<speed>0.0</speed>
<temp>0.00</temp>
<bpm>0</bpm>
<rpm>0.00</rpm>
</extensions>
</trkpt>
<trkpt lat="63.853771210" lon="-22.019239426">
<ele>100.236328</ele>
<time>2012-07-28T16:08:41Z</time>
<extensions>
<speed>0.0</speed>
<temp>0.00</temp>
<bpm>0</bpm>
<rpm>0.00</rpm>
</extensions>
</trkpt>
<trkpt lat="63.853771210" lon="-22.019239426">
<ele>100.216797</ele>
<time>2012-07-28T16:08:46Z</time>
<extensions>
<speed>0.0</speed>
<temp>0.00</temp>
<bpm>0</bpm>
<rpm>0.00</rpm>
</extensions>
</trkpt>
<trkpt lat="63.853771210" lon="-22.019239426">
<ele>100.191406</ele>
<time>2012-07-28T16:08:51Z</time>
<extensions>
<speed>0.0</speed>
<temp>0.00</temp>
<bpm>0</bpm>
<rpm>0.00</rpm>
</extensions>
</trkpt>
<trkpt lat="63.853771210" lon="-22.019239426">
<ele>100.171875</ele>
<time>2012-07-28T16:08:56Z</time>
<speed>0.010000</speed>
<extensions>
<speed>0.0</speed>
<temp>0.00</temp>
<bpm>0</bpm>
<rpm>0.00</rpm>
</extensions>
</trkpt>
<trkpt lat="63.853771210" lon="-22.019239426">
<ele>100.150391</ele>
<time>2012-07-28T16:09:01Z</time>
<speed>0.010000</speed>
<extensions>
<speed>0.0</speed>
<temp>0.00</temp>
<bpm>0</bpm>
<rpm>0.00</rpm>
</extensions>
</trkpt>
<trkpt lat="63.853771210" lon="-22.019239426">
<ele>100.115234</ele>
<time>2012-07-28T16:09:06Z</time>
<extensions>
<speed>0.0</speed>
<temp>0.00</temp>
<bpm>0</bpm>
<rpm>0.00</rpm>
</extensions>
</trkpt>
<trkpt lat="63.853771210" lon="-22.019239426">
<ele>100.072266</ele>
<time>2012-07-28T16:09:11Z</time>
<extensions>
<speed>0.0</speed>
<temp>0.00</temp>
<bpm>0</bpm>
<rpm>0.00</rpm>
</extensions>
</trkpt>
<trkpt lat="63.853771210" lon="-22.019239426">
<ele>100.044922</ele>
<time>2012-07-28T16:09:16Z</time>
<speed>0.010000</speed>
<extensions>
<speed>0.0</speed>
<temp>0.00</temp>
<bpm>0</bpm>
<rpm>0.00</rpm>
</extensions>
</trkpt>
<trkpt lat="63.853775024" lon="-22.019241333">
<ele>100.019531</ele>
<time>2012-07-28T16:09:21Z</time>
<extensions>
<speed>0.0</speed>
<temp>0.00</temp>
<bpm>0</bpm>
<rpm>0.00</rpm>
</extensions>
</trkpt>
<trkpt lat="63.853775024" lon="-22.019241333">
<ele>99.986328</ele>
<time>2012-07-28T16:09:26Z</time>
<speed>0.010000</speed>
<extensions>
<speed>0.0</speed>
<temp>0.00</temp>
<bpm>0</bpm>
<rpm>0.00</rpm>
</extensions>
</trkpt>
<trkpt lat="63.853775024" lon="-22.019241333">
<ele>99.953125</ele>
<time>2012-07-28T16:09:31Z</time>
<speed>0.010000</speed>
<extensions>
<speed>0.0</speed>
<temp>0.00</temp>
<bpm>0</bpm>
<rpm>0.00</rpm>
</extensions>
</trkpt>
<trkpt lat="63.853775024" lon="-22.019241333">
<ele>99.933594</ele>
<time>2012-07-28T16:09:36Z</time>
<extensions>
<speed>0.0</speed>
<temp>0.00</temp>
<bpm>0</bpm>
<rpm>0.00</rpm>
</extensions>
</trkpt>
<trkpt lat="63.853775024" lon="-22.019241333">
<ele>99.916016</ele>
<time>2012-07-28T16:09:41Z</time>
<extensions>
<speed>0.0</speed>
<temp>0.00</temp>
<bpm>0</bpm>
<rpm>0.00</rpm>
</extensions>
</trkpt>
<trkpt lat="63.853775024" lon="-22.019241333">
<ele>99.892578</ele>
<time>2012-07-28T16:09:46Z</time>
<speed>0.010000</speed>
<extensions>
<speed>0.0</speed>
<temp>0.00</temp>
<bpm>0</bpm>
<rpm>0.00</rpm>
</extensions>
</trkpt>
<trkpt lat="63.853775024" lon="-22.019241333">
<ele>99.859375</ele>
<time>2012-07-28T16:09:51Z</time>
<speed>0.010000</speed>
<extensions>
<speed>0.0</speed>
<temp>0.00</temp>
<bpm>0</bpm>
<rpm>0.00</rpm>
</extensions>
</trkpt>
<trkpt lat="63.853775024" lon="-22.019241333">
<ele>99.822266</ele>
<time>2012-07-28T16:09:56Z</time>
<extensions>
<speed>0.0</speed>
<temp>0.00</temp>
<bpm>0</bpm>
<rpm>0.00</rpm>
</extensions>
</trkpt>
<trkpt lat="63.853775024" lon="-22.019241333">
<ele>99.796875</ele>
<time>2012-07-28T16:10:01Z</time>
<speed>0.010000</speed>
<extensions>
<speed>0.0</speed>
<temp>0.00</temp>
<bpm>0</bpm>
<rpm>0.00</rpm>
</extensions>
</trkpt>
<trkpt lat="63.853775024" lon="-22.019241333">
<ele>99.767578</ele>
<time>2012-07-28T16:10:06Z</time>
<extensions>
<speed>0.0</speed>
<temp>0.00</temp>
<bpm>0</bpm>
<rpm>0.00</rpm>
</extensions>
</trkpt>
<trkpt lat="63.853775024" lon="-22.019241333">
<ele>99.736328</ele>
<time>2012-07-28T16:10:11Z</time>
<extensions>
<speed>0.0</speed>
<temp>0.00</temp>
<bpm>0</bpm>
<rpm>0.00</rpm>
</extensions>
</trkpt>
<trkpt lat="63.853775024" lon="-22.019241333">
<ele>99.707031</ele>
<time>2012-07-28T16:10:16Z</time>
<extensions>
<speed>0.0</speed>
<temp>0.00</temp>
<bpm>0</bpm>
<rpm>0.00</rpm>
</extensions>
</trkpt>
<trkpt lat="63.853775024" lon="-22.019241333">
<ele>99.687500</ele>
<time>2012-07-28T16:10:21Z</time>
<extensions>
<speed>0.0</speed>
<temp>0.00</temp>
<bpm>0</bpm>
<rpm>0.00</rpm>
</extensions>
</trkpt>
<trkpt lat="63.853775024" lon="-22.019241333">
<ele>99.662109</ele>
<time>2012-07-28T16:10:26Z</time>
<extensions>
<speed>0.0</speed>
<temp>0.00</temp>
<bpm>0</bpm>
<rpm>0.00</rpm>
</extensions>
</trkpt>
<trkpt lat="63.853775024" lon="-22.019241333">
<ele>99.636719</ele>
<time>2012-07-28T16:10:31Z</time>
<speed>0.010000</speed>
<extensions>
<speed>0.0</speed>
<temp>0.00</temp>
<bpm>0</bpm>
<rpm>0.00</rpm>
</extensions>
</trkpt>
<trkpt lat="63.853775024" lon="-22.019241333">
<ele>99.615234</ele>
<time>2012-07-28T16:10:36Z</time>
<extensions>
<speed>0.0</speed>
<temp>0.00</temp>
<bpm>0</bpm>
<rpm>0.00</rpm>
</extensions>
</trkpt>
<trkpt lat="63.853775024" lon="-22.019241333">
<ele>99.593750</ele>
<time>2012-07-28T16:10:41Z</time>
<extensions>
<speed>0.0</speed>
<temp>0.00</temp>
<bpm>0</bpm>
<rpm>0.00</rpm>
</extensions>
</trkpt>
<trkpt lat="63.853775024" lon="-22.019241333">
<ele>99.572266</ele>
<time>2012-07-28T16:10:46Z</time>
<extensions>
<speed>0.0</speed>
<temp>0.00</temp>
<bpm>0</bpm>
<rpm>0.00</rpm>
</extensions>
</trkpt>
<trkpt lat="63.853775024" lon="-22.019241333">
<ele>99.554688</ele>
<time>2012-07-28T16:10:51Z</time>
<speed>0.010000</speed>
<extensions>
<speed>0.0</speed>
<temp>0.00</temp>
<bpm>0</bpm>
<rpm>0.00</rpm>
</extensions>
</trkpt>
<trkpt lat="63.853775024" lon="-22.019241333">
<ele>99.541016</ele>
<time>2012-07-28T16:10:56Z</time>
<extensions>
<speed>0.0</speed>
<temp>0.00</temp>
<bpm>0</bpm>
<rpm>0.00</rpm>
</extensions>
</trkpt>
<trkpt lat="63.853775024" lon="-22.019241333">
<ele>99.523438</ele>
<time>2012-07-28T16:11:01Z</time>
<speed>0.010000</speed>
<extensions>
<speed>0.0</speed>
<temp>0.00</temp>
<bpm>0</bpm>
<rpm>0.00</rpm>
</extensions>
</trkpt>
<trkpt lat="63.853775024" lon="-22.019241333">
<ele>99.501953</ele>
<time>2012-07-28T16:11:06Z</time>
<extensions>
<speed>0.0</speed>
<temp>0.00</temp>
<bpm>0</bpm>
<rpm>0.00</rpm>
</extensions>
</trkpt>
<trkpt lat="63.853775024" lon="-22.019241333">
<ele>99.480469</ele>
<time>2012-07-28T16:11:11Z</time>
<extensions>
<speed>0.0</speed>
<temp>0.00</temp>
<bpm>0</bpm>
<rpm>0.00</rpm>
</extensions>
</trkpt>
<trkpt lat="63.853775024" lon="-22.019241333">
<ele>99.462891</ele>
<time>2012-07-28T16:11:16Z</time>
<extensions>
<speed>0.0</speed>
<temp>0.00</temp>
<bpm>0</bpm>
<rpm>0.00</rpm>
</extensions>
</trkpt>
<trkpt lat="63.853775024" lon="-22.019241333">
<ele>99.431641</ele>
<time>2012-07-28T16:11:21Z</time>
<speed>0.010000</speed>
<extensions>
<speed>0.0</speed>
<temp>0.00</temp>
<bpm>0</bpm>
<rpm>0.00</rpm>
</extensions>
</trkpt>
<trkpt lat="63.853775024" lon="-22.019241333">
<ele>99.410156</ele>
<time>2012-07-28T16:11:26Z</time>
<extensions>
<speed>0.0</speed>
<temp>0.00</temp>
<bpm>0</bpm>
<rpm>0.00</rpm>
</extensions>
</trkpt>
<trkpt lat="63.853775024" lon="-22.019241333">
<ele>99.406250</ele>
<time>2012-07-28T16:11:31Z</time>
<extensions>
<speed>0.0</speed>
<temp>0.00</temp>
<bpm>0</bpm>
<rpm>0.00</rpm>
</extensions>
</trkpt>
<trkpt lat="63.853778839" lon="-22.019241333">
<ele>99.375000</ele>
<time>2012-07-28T16:11:36Z</time>
<speed>0.010000</speed>
<extensions>
<speed>0.0</speed>
<temp>0.00</temp>
<bpm>0</bpm>
<rpm>0.00</rpm>
</extensions>
</trkpt>
<trkpt lat="63.853778839" lon="-22.019241333">
<ele>99.363281</ele>
<time>2012-07-28T16:11:41Z</time>
<extensions>
<speed>0.0</speed>
<temp>0.00</temp>
<bpm>0</bpm>
<rpm>0.00</rpm>
</extensions>
</trkpt>
<trkpt lat="63.853778839" lon="-22.019241333">
<ele>99.341797</ele>
<time>2012-07-28T16:11:46Z</time>
<extensions>
<speed>0.0</speed>
<temp>0.00</temp>
<bpm>0</bpm>
<rpm>0.00</rpm>
</extensions>
</trkpt>
<trkpt lat="63.853778839" lon="-22.019241333">
<ele>99.322266</ele>
<time>2012-07-28T16:11:51Z</time>
<extensions>
<speed>0.0</speed>
<temp>0.00</temp>
<bpm>0</bpm>
<rpm>0.00</rpm>
</extensions>
</trkpt>
<trkpt lat="63.853778839" lon="-22.019241333">
<ele>99.308594</ele>
<time>2012-07-28T16:11:56Z</time>
<extensions>
<speed>0.0</speed>
<temp>0.00</temp>
<bpm>0</bpm>
<rpm>0.00</rpm>
</extensions>
</trkpt>
<trkpt lat="63.853778839" lon="-22.019241333">
<ele>99.275391</ele>
<time>2012-07-28T16:12:01Z</time>
<extensions>
<speed>0.0</speed>
<temp>0.00</temp>
<bpm>0</bpm>
<rpm>0.00</rpm>
</extensions>
</trkpt>
<trkpt lat="63.853778839" lon="-22.019241333">
<ele>99.246094</ele>
<time>2012-07-28T16:12:06Z</time>
<extensions>
<speed>0.0</speed>
<temp>0.00</temp>
<bpm>0</bpm>
<rpm>0.00</rpm>
</extensions>
</trkpt>
<trkpt lat="63.853778839" lon="-22.019241333">
<ele>99.218750</ele>
<time>2012-07-28T16:12:11Z</time>
<extensions>
<speed>0.0</speed>
<temp>0.00</temp>
<bpm>0</bpm>
<rpm>0.00</rpm>
</extensions>
</trkpt>
<trkpt lat="63.853778839" lon="-22.019243240">
<ele>99.195313</ele>
<time>2012-07-28T16:12:16Z</time>
<extensions>
<speed>0.0</speed>
<temp>0.00</temp>
<bpm>0</bpm>
<rpm>0.00</rpm>
</extensions>
</trkpt>
<trkpt lat="63.853778839" lon="-22.019243240">
<ele>99.177734</ele>
<time>2012-07-28T16:12:21Z</time>
<speed>0.010000</speed>
<extensions>
<speed>0.0</speed>
<temp>0.00</temp>
<bpm>0</bpm>
<rpm>0.00</rpm>
</extensions>
</trkpt>
<trkpt lat="63.853778839" lon="-22.019243240">
<ele>99.148438</ele>
<time>2012-07-28T16:12:26Z</time>
<speed>0.010000</speed>
<extensions>
<speed>0.0</speed>
<temp>0.00</temp>
<bpm>0</bpm>
<rpm>0.00</rpm>
</extensions>
</trkpt>
<trkpt lat="63.853778839" lon="-22.019243240">
<ele>99.113281</ele>
<time>2012-07-28T16:12:31Z</time>
<extensions>
<speed>0.0</speed>
<temp>0.00</temp>
<bpm>0</bpm>
<rpm>0.00</rpm>
</extensions>
</trkpt>
<trkpt lat="63.853778839" lon="-22.019243240">
<ele>99.095703</ele>
<time>2012-07-28T16:12:36Z</time>
<extensions>
<speed>0.0</speed>
<temp>0.00</temp>
<bpm>0</bpm>
<rpm>0.00</rpm>
</extensions>
</trkpt>
<trkpt lat="63.853778839" lon="-22.019243240">
<ele>99.072266</ele>
<time>2012-07-28T16:12:41Z</time>
<extensions>
<speed>0.0</speed>
<temp>0.00</temp>
<bpm>0</bpm>
<rpm>0.00</rpm>
</extensions>
</trkpt>
<trkpt lat="63.853778839" lon="-22.019243240">
<ele>99.052734</ele>
<time>2012-07-28T16:12:46Z</time>
<extensions>
<speed>0.0</speed>
<temp>0.00</temp>
<bpm>0</bpm>
<rpm>0.00</rpm>
</extensions>
</trkpt>
<trkpt lat="63.853778839" lon="-22.019243240">
<ele>99.037109</ele>
<time>2012-07-28T16:12:51Z</time>
<speed>0.010000</speed>
<extensions>
<speed>0.0</speed>
<temp>0.00</temp>
<bpm>0</bpm>
<rpm>0.00</rpm>
</extensions>
</trkpt>
<trkpt lat="63.853778839" lon="-22.019243240">
<ele>99.015625</ele>
<time>2012-07-28T16:12:56Z</time>
<extensions>
<speed>0.0</speed>
<temp>0.00</temp>
<bpm>0</bpm>
<rpm>0.00</rpm>
</extensions>
</trkpt>
<trkpt lat="63.853778839" lon="-22.019243240">
<ele>98.994141</ele>
<time>2012-07-28T16:13:01Z</time>
<speed>0.010000</speed>
<extensions>
<speed>0.0</speed>
<temp>0.00</temp>
<bpm>0</bpm>
<rpm>0.00</rpm>
</extensions>
</trkpt>
<trkpt lat="63.853778839" lon="-22.019243240">
<ele>98.972656</ele>
<time>2012-07-28T16:13:06Z</time>
<speed>0.010000</speed>
<extensions>
<speed>0.0</speed>
<temp>0.00</temp>
<bpm>0</bpm>
<rpm>0.00</rpm>
</extensions>
</trkpt>
<trkpt lat="63.853778839" lon="-22.019243240">
<ele>98.953125</ele>
<time>2012-07-28T16:13:11Z</time>
<speed>0.010000</speed>
<extensions>
<speed>0.0</speed>
<temp>0.00</temp>
<bpm>0</bpm>
<rpm>0.00</rpm>
</extensions>
</trkpt>
<trkpt lat="63.853778839" lon="-22.019243240">
<ele>98.917969</ele>
<time>2012-07-28T16:13:16Z</time>
<speed>0.010000</speed>
<extensions>
<speed>0.0</speed>
<temp>0.00</temp>
<bpm>0</bpm>
<rpm>0.00</rpm>
</extensions>
</trkpt>
<trkpt lat="63.853778839" lon="-22.019243240">
<ele>98.892578</ele>
<time>2012-07-28T16:13:21Z</time>
<extensions>
<speed>0.0</speed>
<temp>0.00</temp>
<bpm>0</bpm>
<rpm>0.00</rpm>
</extensions>
</trkpt>
<trkpt lat="63.853778839" lon="-22.019243240">
<ele>98.876953</ele>
<time>2012-07-28T16:13:26Z</time>
<extensions>
<speed>0.0</speed>
<temp>0.00</temp>
<bpm>0</bpm>
<rpm>0.00</rpm>
</extensions>
</trkpt>
<trkpt lat="63.853778839" lon="-22.019243240">
<ele>98.859375</ele>
<time>2012-07-28T16:13:31Z</time>
<extensions>
<speed>0.0</speed>
<temp>0.00</temp>
<bpm>0</bpm>
<rpm>0.00</rpm>
</extensions>
</trkpt>
<trkpt lat="63.853778839" lon="-22.019243240">
<ele>98.851563</ele>
<time>2012-07-28T16:13:36Z</time>
<extensions>
<speed>0.0</speed>
<temp>0.00</temp>
<bpm>0</bpm>
<rpm>0.00</rpm>
</extensions>
</trkpt>
<trkpt lat="63.853778839" lon="-22.019243240">
<ele>98.833984</ele>
<time>2012-07-28T16:13:41Z</time>
<extensions>
<speed>0.0</speed>
<temp>0.00</temp>
<bpm>0</bpm>
<rpm>0.00</rpm>
</extensions>
</trkpt>
<trkpt lat="63.853778839" lon="-22.019243240">
<ele>98.824219</ele>
<time>2012-07-28T16:13:46Z</time>
<extensions>
<speed>0.0</speed>
<temp>0.00</temp>
<bpm>0</bpm>
<rpm>0.00</rpm>
</extensions>
</trkpt>
<trkpt lat="63.853778839" lon="-22.019243240">
<ele>98.798828</ele>
<time>2012-07-28T16:13:51Z</time>
<extensions>
<speed>0.0</speed>
<temp>0.00</temp>
<bpm>0</bpm>
<rpm>0.00</rpm>
</extensions>
</trkpt>
<trkpt lat="63.853778839" lon="-22.019243240">
<ele>98.773438</ele>
<time>2012-07-28T16:13:56Z</time>
<speed>0.010000</speed>
<extensions>
<speed>0.0</speed>
<temp>0.00</temp>
<bpm>0</bpm>
<rpm>0.00</rpm>
</extensions>
</trkpt>
<trkpt lat="63.853778839" lon="-22.019243240">
<ele>98.750000</ele>
<time>2012-07-28T16:14:01Z</time>
<extensions>
<speed>0.0</speed>
<temp>0.00</temp>
<bpm>0</bpm>
<rpm>0.00</rpm>
</extensions>
</trkpt>
<trkpt lat="63.853778839" lon="-22.019243240">
<ele>98.728516</ele>
<time>2012-07-28T16:14:06Z</time>
<extensions>
<speed>0.0</speed>
<temp>0.00</temp>
<bpm>0</bpm>
<rpm>0.00</rpm>
</extensions>
</trkpt>
<trkpt lat="63.853778839" lon="-22.019243240">
<ele>98.687500</ele>
<time>2012-07-28T16:14:11Z</time>
<extensions>
<speed>0.0</speed>
<temp>0.00</temp>
<bpm>0</bpm>
<rpm>0.00</rpm>
</extensions>
</trkpt>
<trkpt lat="63.853778839" lon="-22.019243240">
<ele>98.666016</ele>
<time>2012-07-28T16:14:16Z</time>
<speed>0.010000</speed>
<extensions>
<speed>0.0</speed>
<temp>0.00</temp>
<bpm>0</bpm>
<rpm>0.00</rpm>
</extensions>
</trkpt>
<trkpt lat="63.853778839" lon="-22.019243240">
<ele>98.632813</ele>
<time>2012-07-28T16:14:21Z</time>
<speed>0.010000</speed>
<extensions>
<speed>0.0</speed>
<temp>0.00</temp>
<bpm>0</bpm>
<rpm>0.00</rpm>
</extensions>
</trkpt>
<trkpt lat="63.853778839" lon="-22.019243240">
<ele>98.609375</ele>
<time>2012-07-28T16:14:26Z</time>
<extensions>
<speed>0.0</speed>
<temp>0.00</temp>
<bpm>0</bpm>
<rpm>0.00</rpm>
</extensions>
</trkpt>
<trkpt lat="63.853778839" lon="-22.019243240">
<ele>98.587891</ele>
<time>2012-07-28T16:14:31Z</time>
<extensions>
<speed>0.0</speed>
<temp>0.00</temp>
<bpm>0</bpm>
<rpm>0.00</rpm>
</extensions>
</trkpt>
<trkpt lat="63.853778839" lon="-22.019243240">
<ele>98.566406</ele>
<time>2012-07-28T16:14:36Z</time>
<extensions>
<speed>0.0</speed>
<temp>0.00</temp>
<bpm>0</bpm>
<rpm>0.00</rpm>
</extensions>
</trkpt>
<trkpt lat="63.853778839" lon="-22.019243240">
<ele>98.525391</ele>
<time>2012-07-28T16:14:41Z</time>
<speed>0.020000</speed>
<extensions>
<speed>0.0</speed>
<temp>0.00</temp>
<bpm>0</bpm>
<rpm>0.00</rpm>
</extensions>
</trkpt>
<trkpt lat="63.853778839" lon="-22.019243240">
<ele>98.509766</ele>
<time>2012-07-28T16:14:46Z</time>
<speed>0.010000</speed>
<extensions>
<speed>0.0</speed>
<temp>0.00</temp>
<bpm>0</bpm>
<rpm>0.00</rpm>
</extensions>
</trkpt>
<trkpt lat="63.853778839" lon="-22.019243240">
<ele>98.501953</ele>
<time>2012-07-28T16:14:51Z</time>
<extensions>
<speed>0.0</speed>
<temp>0.00</temp>
<bpm>0</bpm>
<rpm>0.00</rpm>
</extensions>
</trkpt>
<trkpt lat="63.853778839" lon="-22.019243240">
<ele>98.488281</ele>
<time>2012-07-28T16:14:56Z</time>
<extensions>
<speed>0.0</speed>
<temp>0.00</temp>
<bpm>0</bpm>
<rpm>0.00</rpm>
</extensions>
</trkpt>
<trkpt lat="63.853778839" lon="-22.019243240">
<ele>98.460938</ele>
<time>2012-07-28T16:15:01Z</time>
<speed>0.010000</speed>
<extensions>
<speed>0.0</speed>
<temp>0.00</temp>
<bpm>0</bpm>
<rpm>0.00</rpm>
</extensions>
</trkpt>
<trkpt lat="63.853778839" lon="-22.019243240">
<ele>98.435547</ele>
<time>2012-07-28T16:15:06Z</time>
<extensions>
<speed>0.0</speed>
<temp>0.00</temp>
<bpm>0</bpm>
<rpm>0.00</rpm>
</extensions>
</trkpt>
<trkpt lat="63.853778839" lon="-22.019243240">
<ele>98.394531</ele>
<time>2012-07-28T16:15:11Z</time>
<speed>0.010000</speed>
<extensions>
<speed>0.0</speed>
<temp>0.00</temp>
<bpm>0</bpm>
<rpm>0.00</rpm>
</extensions>
</trkpt>
<trkpt lat="63.853782654" lon="-22.019243240">
<ele>98.365234</ele>
<time>2012-07-28T16:15:16Z</time>
<extensions>
<speed>0.0</speed>
<temp>0.00</temp>
<bpm>0</bpm>
<rpm>0.00</rpm>
</extensions>
</trkpt>
<trkpt lat="63.853782654" lon="-22.019243240">
<ele>98.337891</ele>
<time>2012-07-28T16:15:21Z</time>
<extensions>
<speed>0.0</speed>
<temp>0.00</temp>
<bpm>0</bpm>
<rpm>0.00</rpm>
</extensions>
</trkpt>
<trkpt lat="63.853782654" lon="-22.019243240">
<ele>98.318359</ele>
<time>2012-07-28T16:15:26Z</time>
<speed>0.010000</speed>
<extensions>
<speed>0.0</speed>
<temp>0.00</temp>
<bpm>0</bpm>
<rpm>0.00</rpm>
</extensions>
</trkpt>
<trkpt lat="63.853782654" lon="-22.019243240">
<ele>98.296875</ele>
<time>2012-07-28T16:15:31Z</time>
<extensions>
<speed>0.0</speed>
<temp>0.00</temp>
<bpm>0</bpm>
<rpm>0.00</rpm>
</extensions>
</trkpt>
<trkpt lat="63.853782654" lon="-22.019243240">
<ele>98.275391</ele>
<time>2012-07-28T16:15:36Z</time>
<extensions>
<speed>0.0</speed>
<temp>0.00</temp>
<bpm>0</bpm>
<rpm>0.00</rpm>
</extensions>
</trkpt>
<trkpt lat="63.853782654" lon="-22.019243240">
<ele>98.244141</ele>
<time>2012-07-28T16:15:41Z</time>
<extensions>
<speed>0.0</speed>
<temp>0.00</temp>
<bpm>0</bpm>
<rpm>0.00</rpm>
</extensions>
</trkpt>
<trkpt lat="63.853782654" lon="-22.019243240">
<ele>98.216797</ele>
<time>2012-07-28T16:15:46Z</time>
<speed>0.010000</speed>
<extensions>
<speed>0.0</speed>
<temp>0.00</temp>
<bpm>0</bpm>
<rpm>0.00</rpm>
</extensions>
</trkpt>
<trkpt lat="63.853782654" lon="-22.019243240">
<ele>98.201172</ele>
<time>2012-07-28T16:15:51Z</time>
<extensions>
<speed>0.0</speed>
<temp>0.00</temp>
<bpm>0</bpm>
<rpm>0.00</rpm>
</extensions>
</trkpt>
<trkpt lat="63.853782654" lon="-22.019243240">
<ele>98.169922</ele>
<time>2012-07-28T16:15:56Z</time>
<extensions>
<speed>0.0</speed>
<temp>0.00</temp>
<bpm>0</bpm>
<rpm>0.00</rpm>
</extensions>
</trkpt>
<trkpt lat="63.853782654" lon="-22.019243240">
<ele>98.156250</ele>
<time>2012-07-28T16:16:01Z</time>
<speed>0.010000</speed>
<extensions>
<speed>0.0</speed>
<temp>0.00</temp>
<bpm>0</bpm>
<rpm>0.00</rpm>
</extensions>
</trkpt>
<trkpt lat="63.853782654" lon="-22.019243240">
<ele>98.138672</ele>
<time>2012-07-28T16:16:06Z</time>
<extensions>
<speed>0.0</speed>
<temp>0.00</temp>
<bpm>0</bpm>
<rpm>0.00</rpm>
</extensions>
</trkpt>
<trkpt lat="63.853782654" lon="-22.019243240">
<ele>98.130859</ele>
<time>2012-07-28T16:16:11Z</time>
<extensions>
<speed>0.0</speed>
<temp>0.00</temp>
<bpm>0</bpm>
<rpm>0.00</rpm>
</extensions>
</trkpt>
<trkpt lat="63.853782654" lon="-22.019243240">
<ele>98.113281</ele>
<time>2012-07-28T16:16:16Z</time>
<speed>0.010000</speed>
<extensions>
<speed>0.0</speed>
<temp>0.00</temp>
<bpm>0</bpm>
<rpm>0.00</rpm>
</extensions>
</trkpt>
<trkpt lat="63.853782654" lon="-22.019243240">
<ele>98.101563</ele>
<time>2012-07-28T16:16:21Z</time>
<extensions>
<speed>0.0</speed>
<temp>0.00</temp>
<bpm>0</bpm>
<rpm>0.00</rpm>
</extensions>
</trkpt>
<trkpt lat="63.853782654" lon="-22.019243240">
<ele>98.056641</ele>
<time>2012-07-28T16:16:26Z</time>
<speed>0.010000</speed>
<extensions>
<speed>0.0</speed>
<temp>0.00</temp>
<bpm>0</bpm>
<rpm>0.00</rpm>
</extensions>
</trkpt>
<trkpt lat="63.853782654" lon="-22.019243240">
<ele>98.039063</ele>
<time>2012-07-28T16:16:31Z</time>
<speed>0.020000</speed>
<extensions>
<speed>0.0</speed>
<temp>0.00</temp>
<bpm>0</bpm>
<rpm>0.00</rpm>
</extensions>
</trkpt>
<trkpt lat="63.853782654" lon="-22.019245148">
<ele>98.001953</ele>
<time>2012-07-28T16:16:36Z</time>
<speed>0.020000</speed>
<extensions>
<speed>0.0</speed>
<temp>0.00</temp>
<bpm>0</bpm>
<rpm>0.00</rpm>
</extensions>
</trkpt>
<trkpt lat="63.853782654" lon="-22.019245148">
<ele>97.970703</ele>
<time>2012-07-28T16:16:41Z</time>
<speed>0.010000</speed>
<extensions>
<speed>0.0</speed>
<temp>0.00</temp>
<bpm>0</bpm>
<rpm>0.00</rpm>
</extensions>
</trkpt>
<trkpt lat="63.853782654" lon="-22.019245148">
<ele>97.939453</ele>
<time>2012-07-28T16:16:46Z</time>
<extensions>
<speed>0.0</speed>
<temp>0.00</temp>
<bpm>0</bpm>
<rpm>0.00</rpm>
</extensions>
</trkpt>
<trkpt lat="63.853782654" lon="-22.019245148">
<ele>97.929688</ele>
<time>2012-07-28T16:16:51Z</time>
<extensions>
<speed>0.0</speed>
<temp>0.00</temp>
<bpm>0</bpm>
<rpm>0.00</rpm>
</extensions>
</trkpt>
<trkpt lat="63.853782654" lon="-22.019245148">
<ele>97.921875</ele>
<time>2012-07-28T16:16:56Z</time>
<speed>0.030000</speed>
<extensions>
<speed>0.0</speed>
<temp>0.00</temp>
<bpm>0</bpm>
<rpm>0.00</rpm>
</extensions>
</trkpt>
<trkpt lat="63.853782654" lon="-22.019245148">
<ele>97.912109</ele>
<time>2012-07-28T16:17:01Z</time>
<extensions>
<speed>0.0</speed>
<temp>0.00</temp>
<bpm>0</bpm>
<rpm>0.00</rpm>
</extensions>
</trkpt>
<trkpt lat="63.853782654" lon="-22.019243240">
<ele>97.902344</ele>
<time>2012-07-28T16:17:06Z</time>
<extensions>
<speed>0.0</speed>
<temp>0.00</temp>
<bpm>0</bpm>
<rpm>0.00</rpm>
</extensions>
</trkpt>
<trkpt lat="63.853782654" lon="-22.019243240">
<ele>97.875000</ele>
<time>2012-07-28T16:17:11Z</time>
<speed>0.010000</speed>
<extensions>
<speed>0.0</speed>
<temp>0.00</temp>
<bpm>0</bpm>
<rpm>0.00</rpm>
</extensions>
</trkpt>
<trkpt lat="63.853782654" lon="-22.019245148">
<ele>97.867188</ele>
<time>2012-07-28T16:17:16Z</time>
<speed>0.010000</speed>
<extensions>
<speed>0.0</speed>
<temp>0.00</temp>
<bpm>0</bpm>
<rpm>0.00</rpm>
</extensions>
</trkpt>
<trkpt lat="63.853782654" lon="-22.019243240">
<ele>97.851563</ele>
<time>2012-07-28T16:17:21Z</time>
<speed>0.010000</speed>
<extensions>
<speed>0.0</speed>
<temp>0.00</temp>
<bpm>0</bpm>
<rpm>0.00</rpm>
</extensions>
</trkpt>
<trkpt lat="63.853782654" lon="-22.019245148">
<ele>97.841797</ele>
<time>2012-07-28T16:17:26Z</time>
<extensions>
<speed>0.0</speed>
<temp>0.00</temp>
<bpm>0</bpm>
<rpm>0.00</rpm>
</extensions>
</trkpt>
<trkpt lat="63.853782654" lon="-22.019245148">
<ele>97.830078</ele>
<time>2012-07-28T16:17:31Z</time>
<speed>0.010000</speed>
<extensions>
<speed>0.0</speed>
<temp>0.00</temp>
<bpm>0</bpm>
<rpm>0.00</rpm>
</extensions>
</trkpt>
<trkpt lat="63.853782654" lon="-22.019245148">
<ele>97.822266</ele>
<time>2012-07-28T16:17:36Z</time>
<speed>0.010000</speed>
<extensions>
<speed>0.0</speed>
<temp>0.00</temp>
<bpm>0</bpm>
<rpm>0.00</rpm>
</extensions>
</trkpt>
<trkpt lat="63.853782654" lon="-22.019245148">
<ele>97.820313</ele>
<time>2012-07-28T16:17:41Z</time>
<speed>0.020000</speed>
<extensions>
<speed>0.0</speed>
<temp>0.00</temp>
<bpm>0</bpm>
<rpm>0.00</rpm>
</extensions>
</trkpt>
<trkpt lat="63.853782654" lon="-22.019245148">
<ele>97.808594</ele>
<time>2012-07-28T16:17:46Z</time>
<speed>0.010000</speed>
<extensions>
<speed>0.0</speed>
<temp>0.00</temp>
<bpm>0</bpm>
<rpm>0.00</rpm>
</extensions>
</trkpt>
<trkpt lat="63.853782654" lon="-22.019243240">
<ele>97.792969</ele>
<time>2012-07-28T16:17:51Z</time>
<extensions>
<speed>0.0</speed>
<temp>0.00</temp>
<bpm>0</bpm>
<rpm>0.00</rpm>
</extensions>
</trkpt>
<trkpt lat="63.853782654" lon="-22.019243240">
<ele>97.785156</ele>
<time>2012-07-28T16:17:56Z</time>
<extensions>
<speed>0.0</speed>
<temp>0.00</temp>
<bpm>0</bpm>
<rpm>0.00</rpm>
</extensions>
</trkpt>
<trkpt lat="63.853782654" lon="-22.019245148">
<ele>97.771484</ele>
<time>2012-07-28T16:18:01Z</time>
<extensions>
<speed>0.0</speed>
<temp>0.00</temp>
<bpm>0</bpm>
<rpm>0.00</rpm>
</extensions>
</trkpt>
<trkpt lat="63.853782654" lon="-22.019245148">
<ele>97.767578</ele>
<time>2012-07-28T16:18:06Z</time>
<extensions>
<speed>0.0</speed>
<temp>0.00</temp>
<bpm>0</bpm>
<rpm>0.00</rpm>
</extensions>
</trkpt>
<trkpt lat="63.853782654" lon="-22.019245148">
<ele>97.757813</ele>
<time>2012-07-28T16:18:11Z</time>
<speed>0.010000</speed>
<extensions>
<speed>0.0</speed>
<temp>0.00</temp>
<bpm>0</bpm>
<rpm>0.00</rpm>
</extensions>
</trkpt>
<trkpt lat="63.853782654" lon="-22.019245148">
<ele>97.714844</ele>
<time>2012-07-28T16:18:16Z</time>
<speed>0.010000</speed>
<extensions>
<speed>0.0</speed>
<temp>0.00</temp>
<bpm>0</bpm>
<rpm>0.00</rpm>
</extensions>
</trkpt>
<trkpt lat="63.853782654" lon="-22.019245148">
<ele>97.701172</ele>
<time>2012-07-28T16:18:21Z</time>
<extensions>
<speed>0.0</speed>
<temp>0.00</temp>
<bpm>0</bpm>
<rpm>0.00</rpm>
</extensions>
</trkpt>
<trkpt lat="63.853782654" lon="-22.019245148">
<ele>97.681641</ele>
<time>2012-07-28T16:18:26Z</time>
<extensions>
<speed>0.0</speed>
<temp>0.00</temp>
<bpm>0</bpm>
<rpm>0.00</rpm>
</extensions>
</trkpt>
<trkpt lat="63.853782654" lon="-22.019247055">
<ele>97.669922</ele>
<time>2012-07-28T16:18:31Z</time>
<speed>0.010000</speed>
<extensions>
<speed>0.0</speed>
<temp>0.00</temp>
<bpm>0</bpm>
<rpm>0.00</rpm>
</extensions>
</trkpt>
<trkpt lat="63.853782654" lon="-22.019247055">
<ele>97.650391</ele>
<time>2012-07-28T16:18:36Z</time>
<extensions>
<speed>0.0</speed>
<temp>0.00</temp>
<bpm>0</bpm>
<rpm>0.00</rpm>
</extensions>
</trkpt>
<trkpt lat="63.853782654" lon="-22.019247055">
<ele>97.640625</ele>
<time>2012-07-28T16:18:41Z</time>
<extensions>
<speed>0.0</speed>
<temp>0.00</temp>
<bpm>0</bpm>
<rpm>0.00</rpm>
</extensions>
</trkpt>
<trkpt lat="63.853782654" lon="-22.019247055">
<ele>97.636719</ele>
<time>2012-07-28T16:18:46Z</time>
<extensions>
<speed>0.0</speed>
<temp>0.00</temp>
<bpm>0</bpm>
<rpm>0.00</rpm>
</extensions>
</trkpt>
<trkpt lat="63.853782654" lon="-22.019247055">
<ele>97.640625</ele>
<time>2012-07-28T16:18:51Z</time>
<extensions>
<speed>0.0</speed>
<temp>0.00</temp>
<bpm>0</bpm>
<rpm>0.00</rpm>
</extensions>
</trkpt>
<trkpt lat="63.853782654" lon="-22.019247055">
<ele>97.630859</ele>
<time>2012-07-28T16:18:56Z</time>
<speed>0.010000</speed>
<extensions>
<speed>0.0</speed>
<temp>0.00</temp>
<bpm>0</bpm>
<rpm>0.00</rpm>
</extensions>
</trkpt>
<trkpt lat="63.853782654" lon="-22.019247055">
<ele>97.638672</ele>
<time>2012-07-28T16:19:01Z</time>
<speed>0.020000</speed>
<extensions>
<speed>0.0</speed>
<temp>0.00</temp>
<bpm>0</bpm>
<rpm>0.00</rpm>
</extensions>
</trkpt>
<trkpt lat="63.853782654" lon="-22.019247055">
<ele>97.628906</ele>
<time>2012-07-28T16:19:06Z</time>
<speed>0.040000</speed>
<extensions>
<speed>0.0</speed>
<temp>0.00</temp>
<bpm>0</bpm>
<rpm>0.00</rpm>
</extensions>
</trkpt>
<trkpt lat="63.853782654" lon="-22.019247055">
<ele>97.603516</ele>
<time>2012-07-28T16:19:11Z</time>
<extensions>
<speed>0.0</speed>
<temp>0.00</temp>
<bpm>0</bpm>
<rpm>0.00</rpm>
</extensions>
</trkpt>
<trkpt lat="63.853782654" lon="-22.019248962">
<ele>97.585938</ele>
<time>2012-07-28T16:19:16Z</time>
<extensions>
<speed>0.0</speed>
<temp>0.00</temp>
<bpm>0</bpm>
<rpm>0.00</rpm>
</extensions>
</trkpt>
<trkpt lat="63.853782654" lon="-22.019248962">
<ele>97.589844</ele>
<time>2012-07-28T16:19:21Z</time>
<extensions>
<speed>0.0</speed>
<temp>0.00</temp>
<bpm>0</bpm>
<rpm>0.00</rpm>
</extensions>
</trkpt>
<trkpt lat="63.853782654" lon="-22.019248962">
<ele>97.589844</ele>
<time>2012-07-28T16:19:26Z</time>
<extensions>
<speed>0.0</speed>
<temp>0.00</temp>
<bpm>0</bpm>
<rpm>0.00</rpm>
</extensions>
</trkpt>
<trkpt lat="63.853782654" lon="-22.019248962">
<ele>97.597656</ele>
<time>2012-07-28T16:19:31Z</time>
<speed>0.010000</speed>
<extensions>
<speed>0.0</speed>
<temp>0.00</temp>
<bpm>0</bpm>
<rpm>0.00</rpm>
</extensions>
</trkpt>
<trkpt lat="63.853782654" lon="-22.019248962">
<ele>97.591797</ele>
<time>2012-07-28T16:19:36Z</time>
<speed>0.010000</speed>
<extensions>
<speed>0.0</speed>
<temp>0.00</temp>
<bpm>0</bpm>
<rpm>0.00</rpm>
</extensions>
</trkpt>
<trkpt lat="63.853782654" lon="-22.019248962">
<ele>97.595703</ele>
<time>2012-07-28T16:19:41Z</time>
<speed>0.030000</speed>
<extensions>
<speed>0.0</speed>
<temp>0.00</temp>
<bpm>0</bpm>
<rpm>0.00</rpm>
</extensions>
</trkpt>
<trkpt lat="63.853782654" lon="-22.019250870">
<ele>97.583984</ele>
<time>2012-07-28T16:19:46Z</time>
<extensions>
<speed>0.0</speed>
<temp>0.00</temp>
<bpm>0</bpm>
<rpm>0.00</rpm>
</extensions>
</trkpt>
<trkpt lat="63.853782654" lon="-22.019250870">
<ele>97.585938</ele>
<time>2012-07-28T16:19:51Z</time>
<speed>0.010000</speed>
<extensions>
<speed>0.0</speed>
<temp>0.00</temp>
<bpm>0</bpm>
<rpm>0.00</rpm>
</extensions>
</trkpt>
<trkpt lat="63.853782654" lon="-22.019250870">
<ele>97.585938</ele>
<time>2012-07-28T16:19:56Z</time>
<speed>0.010000</speed>
<extensions>
<speed>0.0</speed>
<temp>0.00</temp>
<bpm>0</bpm>
<rpm>0.00</rpm>
</extensions>
</trkpt>
<trkpt lat="63.853782654" lon="-22.019250870">
<ele>97.572266</ele>
<time>2012-07-28T16:20:01Z</time>
<speed>0.010000</speed>
<extensions>
<speed>0.0</speed>
<temp>0.00</temp>
<bpm>0</bpm>
<rpm>0.00</rpm>
</extensions>
</trkpt>
<trkpt lat="63.853782654" lon="-22.019250870">
<ele>97.529297</ele>
<time>2012-07-28T16:20:06Z</time>
<speed>0.030000</speed>
<extensions>
<speed>0.0</speed>
<temp>0.00</temp>
<bpm>0</bpm>
<rpm>0.00</rpm>
</extensions>
</trkpt>
<trkpt lat="63.853782654" lon="-22.019250870">
<ele>97.496094</ele>
<time>2012-07-28T16:20:11Z</time>
<extensions>
<speed>0.0</speed>
<temp>0.00</temp>
<bpm>0</bpm>
<rpm>0.00</rpm>
</extensions>
</trkpt>
<trkpt lat="63.853782654" lon="-22.019250870">
<ele>97.472656</ele>
<time>2012-07-28T16:20:16Z</time>
<speed>0.010000</speed>
<extensions>
<speed>0.0</speed>
<temp>0.00</temp>
<bpm>0</bpm>
<rpm>0.00</rpm>
</extensions>
</trkpt>
<trkpt lat="63.853782654" lon="-22.019250870">
<ele>97.457031</ele>
<time>2012-07-28T16:20:21Z</time>
<speed>0.010000</speed>
<extensions>
<speed>0.0</speed>
<temp>0.00</temp>
<bpm>0</bpm>
<rpm>0.00</rpm>
</extensions>
</trkpt>
<trkpt lat="63.853782654" lon="-22.019256592">
<ele>97.269531</ele>
<time>2012-07-28T16:20:26Z</time>
<speed>0.250000</speed>
<extensions>
<speed>0.2</speed>
<temp>0.00</temp>
<bpm>0</bpm>
<rpm>0.00</rpm>
</extensions>
</trkpt>
<trkpt lat="63.853782654" lon="-22.019273758">
<ele>96.419922</ele>
<time>2012-07-28T16:20:31Z</time>
<speed>0.090000</speed>
<extensions>
<speed>0.1</speed>
<temp>0.00</temp>
<bpm>0</bpm>
<rpm>0.00</rpm>
</extensions>
</trkpt>
<trkpt lat="63.853786469" lon="-22.019271851">
<ele>96.044922</ele>
<time>2012-07-28T16:20:36Z</time>
<speed>0.130000</speed>
<extensions>
<speed>0.1</speed>
<temp>0.00</temp>
<bpm>0</bpm>
<rpm>0.00</rpm>
</extensions>
</trkpt>
<trkpt lat="63.853782654" lon="-22.019258499">
<ele>95.904297</ele>
<time>2012-07-28T16:20:41Z</time>
<speed>0.040000</speed>
<extensions>
<speed>0.0</speed>
<temp>0.00</temp>
<bpm>0</bpm>
<rpm>0.00</rpm>
</extensions>
</trkpt>
<trkpt lat="63.853782654" lon="-22.019256592">
<ele>95.843750</ele>
<time>2012-07-28T16:20:46Z</time>
<speed>0.060000</speed>
<extensions>
<speed>0.1</speed>
<temp>0.00</temp>
<bpm>0</bpm>
<rpm>0.00</rpm>
</extensions>
</trkpt>
<trkpt lat="63.853786469" lon="-22.019262314">
<ele>95.791016</ele>
<time>2012-07-28T16:20:51Z</time>
<speed>0.010000</speed>
<extensions>
<speed>0.0</speed>
<temp>0.00</temp>
<bpm>0</bpm>
<rpm>0.00</rpm>
</extensions>
</trkpt>
<trkpt lat="63.853786469" lon="-22.019262314">
<ele>95.781250</ele>
<time>2012-07-28T16:20:56Z</time>
<extensions>
<speed>0.0</speed>
<temp>0.00</temp>
<bpm>0</bpm>
<rpm>0.00</rpm>
</extensions>
</trkpt>
<trkpt lat="63.853786469" lon="-22.019262314">
<ele>95.771484</ele>
<time>2012-07-28T16:21:01Z</time>
<extensions>
<speed>0.0</speed>
<temp>0.00</temp>
<bpm>0</bpm>
<rpm>0.00</rpm>
</extensions>
</trkpt>
<trkpt lat="63.853786469" lon="-22.019262314">
<ele>95.771484</ele>
<time>2012-07-28T16:21:06Z</time>
<speed>0.020000</speed>
<extensions>
<speed>0.0</speed>
<temp>0.00</temp>
<bpm>0</bpm>
<rpm>0.00</rpm>
</extensions>
</trkpt>
<trkpt lat="63.853786469" lon="-22.019264221">
<ele>95.726563</ele>
<time>2012-07-28T16:21:11Z</time>
<speed>0.010000</speed>
<extensions>
<speed>0.0</speed>
<temp>0.00</temp>
<bpm>0</bpm>
<rpm>0.00</rpm>
</extensions>
</trkpt>
<trkpt lat="63.853786469" lon="-22.019264221">
<ele>95.707031</ele>
<time>2012-07-28T16:21:16Z</time>
<speed>0.010000</speed>
<extensions>
<speed>0.0</speed>
<temp>0.00</temp>
<bpm>0</bpm>
<rpm>0.00</rpm>
</extensions>
</trkpt>
<trkpt lat="63.853786469" lon="-22.019266129">
<ele>95.685547</ele>
<time>2012-07-28T16:21:21Z</time>
<speed>0.010000</speed>
<extensions>
<speed>0.0</speed>
<temp>0.00</temp>
<bpm>0</bpm>
<rpm>0.00</rpm>
</extensions>
</trkpt>
<trkpt lat="63.853786469" lon="-22.019266129">
<ele>95.656250</ele>
<time>2012-07-28T16:21:26Z</time>
<extensions>
<speed>0.0</speed>
<temp>0.00</temp>
<bpm>0</bpm>
<rpm>0.00</rpm>
</extensions>
</trkpt>
<trkpt lat="63.853786469" lon="-22.019266129">
<ele>95.634766</ele>
<time>2012-07-28T16:21:31Z</time>
<speed>0.050000</speed>
<extensions>
<speed>0.1</speed>
<temp>0.00</temp>
<bpm>0</bpm>
<rpm>0.00</rpm>
</extensions>
</trkpt>
<trkpt lat="63.853786469" lon="-22.019266129">
<ele>95.625000</ele>
<time>2012-07-28T16:21:36Z</time>
<speed>0.010000</speed>
<extensions>
<speed>0.0</speed>
<temp>0.00</temp>
<bpm>0</bpm>
<rpm>0.00</rpm>
</extensions>
</trkpt>
<trkpt lat="63.853786469" lon="-22.019266129">
<ele>95.617188</ele>
<time>2012-07-28T16:21:41Z</time>
<extensions>
<speed>0.0</speed>
<temp>0.00</temp>
<bpm>0</bpm>
<rpm>0.00</rpm>
</extensions>
</trkpt>
<trkpt lat="63.853786469" lon="-22.019266129">
<ele>95.615234</ele>
<time>2012-07-28T16:21:46Z</time>
<speed>0.010000</speed>
<extensions>
<speed>0.0</speed>
<temp>0.00</temp>
<bpm>0</bpm>
<rpm>0.00</rpm>
</extensions>
</trkpt>
<trkpt lat="63.853786469" lon="-22.019266129">
<ele>95.621094</ele>
<time>2012-07-28T16:21:51Z</time>
<extensions>
<speed>0.0</speed>
<temp>0.00</temp>
<bpm>0</bpm>
<rpm>0.00</rpm>
</extensions>
</trkpt>
<trkpt lat="63.853786469" lon="-22.019268036">
<ele>95.599609</ele>
<time>2012-07-28T16:21:56Z</time>
<extensions>
<speed>0.0</speed>
<temp>0.00</temp>
<bpm>0</bpm>
<rpm>0.00</rpm>
</extensions>
</trkpt>
<trkpt lat="63.853786469" lon="-22.019268036">
<ele>95.583984</ele>
<time>2012-07-28T16:22:01Z</time>
<speed>0.010000</speed>
<extensions>
<speed>0.0</speed>
<temp>0.00</temp>
<bpm>0</bpm>
<rpm>0.00</rpm>
</extensions>
</trkpt>
<trkpt lat="63.853786469" lon="-22.019268036">
<ele>95.570313</ele>
<time>2012-07-28T16:22:06Z</time>
<speed>0.010000</speed>
<extensions>
<speed>0.0</speed>
<temp>0.00</temp>
<bpm>0</bpm>
<rpm>0.00</rpm>
</extensions>
</trkpt>
<trkpt lat="63.853786469" lon="-22.019268036">
<ele>95.564453</ele>
<time>2012-07-28T16:22:11Z</time>
<extensions>
<speed>0.0</speed>
<temp>0.00</temp>
<bpm>0</bpm>
<rpm>0.00</rpm>
</extensions>
</trkpt>
<trkpt lat="63.853786469" lon="-22.019269943">
<ele>95.556641</ele>
<time>2012-07-28T16:22:16Z</time>
<extensions>
<speed>0.0</speed>
<temp>0.00</temp>
<bpm>0</bpm>
<rpm>0.00</rpm>
</extensions>
</trkpt>
<trkpt lat="63.853786469" lon="-22.019269943">
<ele>95.542969</ele>
<time>2012-07-28T16:22:21Z</time>
<speed>0.010000</speed>
<extensions>
<speed>0.0</speed>
<temp>0.00</temp>
<bpm>0</bpm>
<rpm>0.00</rpm>
</extensions>
</trkpt>
<trkpt lat="63.853786469" lon="-22.019269943">
<ele>95.513672</ele>
<time>2012-07-28T16:22:26Z</time>
<extensions>
<speed>0.0</speed>
<temp>0.00</temp>
<bpm>0</bpm>
<rpm>0.00</rpm>
</extensions>
</trkpt>
<trkpt lat="63.853786469" lon="-22.019269943">
<ele>95.490234</ele>
<time>2012-07-28T16:22:31Z</time>
<speed>0.020000</speed>
<extensions>
<speed>0.0</speed>
<temp>0.00</temp>
<bpm>0</bpm>
<rpm>0.00</rpm>
</extensions>
</trkpt>
<trkpt lat="63.853786469" lon="-22.019269943">
<ele>95.486328</ele>
<time>2012-07-28T16:22:36Z</time>
<extensions>
<speed>0.0</speed>
<temp>0.00</temp>
<bpm>0</bpm>
<rpm>0.00</rpm>
</extensions>
</trkpt>
<trkpt lat="63.853786469" lon="-22.019269943">
<ele>95.482422</ele>
<time>2012-07-28T16:22:41Z</time>
<extensions>
<speed>0.0</speed>
<temp>0.00</temp>
<bpm>0</bpm>
<rpm>0.00</rpm>
</extensions>
</trkpt>
<trkpt lat="63.853786469" lon="-22.019269943">
<ele>95.470703</ele>
<time>2012-07-28T16:22:46Z</time>
<speed>0.020000</speed>
<extensions>
<speed>0.0</speed>
<temp>0.00</temp>
<bpm>0</bpm>
<rpm>0.00</rpm>
</extensions>
</trkpt>
<trkpt lat="63.853786469" lon="-22.019269943">
<ele>95.466797</ele>
<time>2012-07-28T16:22:51Z</time>
<speed>0.010000</speed>
<extensions>
<speed>0.0</speed>
<temp>0.00</temp>
<bpm>0</bpm>
<rpm>0.00</rpm>
</extensions>
</trkpt>
<trkpt lat="63.853786469" lon="-22.019269943">
<ele>95.449219</ele>
<time>2012-07-28T16:22:56Z</time>
<extensions>
<speed>0.0</speed>
<temp>0.00</temp>
<bpm>0</bpm>
<rpm>0.00</rpm>
</extensions>
</trkpt>
<trkpt lat="63.853786469" lon="-22.019271851">
<ele>95.451172</ele>
<time>2012-07-28T16:23:01Z</time>
<speed>0.010000</speed>
<extensions>
<speed>0.0</speed>
<temp>0.00</temp>
<bpm>0</bpm>
<rpm>0.00</rpm>
</extensions>
</trkpt>
<trkpt lat="63.853786469" lon="-22.019271851">
<ele>95.447266</ele>
<time>2012-07-28T16:23:06Z</time>
<speed>0.010000</speed>
<extensions>
<speed>0.0</speed>
<temp>0.00</temp>
<bpm>0</bpm>
<rpm>0.00</rpm>
</extensions>
</trkpt>
<trkpt lat="63.853786469" lon="-22.019271851">
<ele>95.443359</ele>
<time>2012-07-28T16:23:11Z</time>
<extensions>
<speed>0.0</speed>
<temp>0.00</temp>
<bpm>0</bpm>
<rpm>0.00</rpm>
</extensions>
</trkpt>
<trkpt lat="63.853786469" lon="-22.019271851">
<ele>95.439453</ele>
<time>2012-07-28T16:23:16Z</time>
<speed>0.020000</speed>
<extensions>
<speed>0.0</speed>
<temp>0.00</temp>
<bpm>0</bpm>
<rpm>0.00</rpm>
</extensions>
</trkpt>
<trkpt lat="63.853786469" lon="-22.019273758">
<ele>95.431641</ele>
<time>2012-07-28T16:23:21Z</time>
<speed>0.010000</speed>
<extensions>
<speed>0.0</speed>
<temp>0.00</temp>
<bpm>0</bpm>
<rpm>0.00</rpm>
</extensions>
</trkpt>
<trkpt lat="63.853786469" lon="-22.019273758">
<ele>95.419922</ele>
<time>2012-07-28T16:23:26Z</time>
<speed>0.020000</speed>
<extensions>
<speed>0.0</speed>
<temp>0.00</temp>
<bpm>0</bpm>
<rpm>0.00</rpm>
</extensions>
</trkpt>
<trkpt lat="63.853786469" lon="-22.019273758">
<ele>95.408203</ele>
<time>2012-07-28T16:23:31Z</time>
<speed>0.020000</speed>
<extensions>
<speed>0.0</speed>
<temp>0.00</temp>
<bpm>0</bpm>
<rpm>0.00</rpm>
</extensions>
</trkpt>
<trkpt lat="63.853786469" lon="-22.019273758">
<ele>95.410156</ele>
<time>2012-07-28T16:23:36Z</time>
<speed>0.010000</speed>
<extensions>
<speed>0.0</speed>
<temp>0.00</temp>
<bpm>0</bpm>
<rpm>0.00</rpm>
</extensions>
</trkpt>
<trkpt lat="63.853786469" lon="-22.019275665">
<ele>95.400391</ele>
<time>2012-07-28T16:23:41Z</time>
<speed>0.010000</speed>
<extensions>
<speed>0.0</speed>
<temp>0.00</temp>
<bpm>0</bpm>
<rpm>0.00</rpm>
</extensions>
</trkpt>
<trkpt lat="63.853790283" lon="-22.019275665">
<ele>95.400391</ele>
<time>2012-07-28T16:23:46Z</time>
<speed>0.020000</speed>
<extensions>
<speed>0.0</speed>
<temp>0.00</temp>
<bpm>0</bpm>
<rpm>0.00</rpm>
</extensions>
</trkpt>
<trkpt lat="63.853790283" lon="-22.019275665">
<ele>95.386719</ele>
<time>2012-07-28T16:23:51Z</time>
<speed>0.020000</speed>
<extensions>
<speed>0.0</speed>
<temp>0.00</temp>
<bpm>0</bpm>
<rpm>0.00</rpm>
</extensions>
</trkpt>
<trkpt lat="63.853790283" lon="-22.019277573">
<ele>95.365234</ele>
<time>2012-07-28T16:23:56Z</time>
<speed>0.010000</speed>
<extensions>
<speed>0.0</speed>
<temp>0.00</temp>
<bpm>0</bpm>
<rpm>0.00</rpm>
</extensions>
</trkpt>
<trkpt lat="63.853790283" lon="-22.019277573">
<ele>95.353516</ele>
<time>2012-07-28T16:24:01Z</time>
<speed>0.030000</speed>
<extensions>
<speed>0.0</speed>
<temp>0.00</temp>
<bpm>0</bpm>
<rpm>0.00</rpm>
</extensions>
</trkpt>
<trkpt lat="63.853790283" lon="-22.019277573">
<ele>95.341797</ele>
<time>2012-07-28T16:24:06Z</time>
<extensions>
<speed>0.0</speed>
<temp>0.00</temp>
<bpm>0</bpm>
<rpm>0.00</rpm>
</extensions>
</trkpt>
<trkpt lat="63.853790283" lon="-22.019277573">
<ele>95.328125</ele>
<time>2012-07-28T16:24:11Z</time>
<speed>0.010000</speed>
<extensions>
<speed>0.0</speed>
<temp>0.00</temp>
<bpm>0</bpm>
<rpm>0.00</rpm>
</extensions>
</trkpt>
<trkpt lat="63.853790283" lon="-22.019277573">
<ele>95.324219</ele>
<time>2012-07-28T16:24:16Z</time>
<extensions>
<speed>0.0</speed>
<temp>0.00</temp>
<bpm>0</bpm>
<rpm>0.00</rpm>
</extensions>
</trkpt>
<trkpt lat="63.853790283" lon="-22.019277573">
<ele>95.314453</ele>
<time>2012-07-28T16:24:21Z</time>
<speed>0.010000</speed>
<extensions>
<speed>0.0</speed>
<temp>0.00</temp>
<bpm>0</bpm>
<rpm>0.00</rpm>
</extensions>
</trkpt>
<trkpt lat="63.853790283" lon="-22.019277573">
<ele>95.326172</ele>
<time>2012-07-28T16:24:26Z</time>
<speed>0.020000</speed>
<extensions>
<speed>0.0</speed>
<temp>0.00</temp>
<bpm>0</bpm>
<rpm>0.00</rpm>
</extensions>
</trkpt>
<trkpt lat="63.853790283" lon="-22.019277573">
<ele>95.316406</ele>
<time>2012-07-28T16:24:31Z</time>
<speed>0.010000</speed>
<extensions>
<speed>0.0</speed>
<temp>0.00</temp>
<bpm>0</bpm>
<rpm>0.00</rpm>
</extensions>
</trkpt>
<trkpt lat="63.853790283" lon="-22.019279480">
<ele>95.294922</ele>
<time>2012-07-28T16:24:36Z</time>
<speed>0.020000</speed>
<extensions>
<speed>0.0</speed>
<temp>0.00</temp>
<bpm>0</bpm>
<rpm>0.00</rpm>
</extensions>
</trkpt>
<trkpt lat="63.853790283" lon="-22.019279480">
<ele>95.283203</ele>
<time>2012-07-28T16:24:41Z</time>
<extensions>
<speed>0.0</speed>
<temp>0.00</temp>
<bpm>0</bpm>
<rpm>0.00</rpm>
</extensions>
</trkpt>
<trkpt lat="63.853790283" lon="-22.019279480">
<ele>95.287109</ele>
<time>2012-07-28T16:24:46Z</time>
<extensions>
<speed>0.0</speed>
<temp>0.00</temp>
<bpm>0</bpm>
<rpm>0.00</rpm>
</extensions>
</trkpt>
<trkpt lat="63.853797913" lon="-22.019269943">
<ele>95.400391</ele>
<time>2012-07-28T16:24:51Z</time>
<speed>0.640000</speed>
<extensions>
<speed>0.6</speed>
<temp>0.00</temp>
<bpm>0</bpm>
<rpm>0.00</rpm>
</extensions>
</trkpt>
<trkpt lat="63.853816986" lon="-22.019252777">
<ele>94.888672</ele>
<time>2012-07-28T16:24:56Z</time>
<speed>0.070000</speed>
<extensions>
<speed>0.1</speed>
<temp>0.00</temp>
<bpm>0</bpm>
<rpm>0.00</rpm>
</extensions>
</trkpt>
<trkpt lat="63.853820801" lon="-22.019258499">
<ele>94.664063</ele>
<time>2012-07-28T16:25:01Z</time>
<speed>0.020000</speed>
<extensions>
<speed>0.0</speed>
<temp>0.00</temp>
<bpm>0</bpm>
<rpm>0.00</rpm>
</extensions>
</trkpt>
<trkpt lat="63.853816986" lon="-22.019254684">
<ele>94.652344</ele>
<time>2012-07-28T16:25:06Z</time>
<speed>0.040000</speed>
<extensions>
<speed>0.0</speed>
<temp>0.00</temp>
<bpm>0</bpm>
<rpm>0.00</rpm>
</extensions>
</trkpt>
<trkpt lat="63.853816986" lon="-22.019254684">
<ele>94.654297</ele>
<time>2012-07-28T16:25:11Z</time>
<speed>0.010000</speed>
<extensions>
<speed>0.0</speed>
<temp>0.00</temp>
<bpm>0</bpm>
<rpm>0.00</rpm>
</extensions>
</trkpt>
<trkpt lat="63.853816986" lon="-22.019254684">
<ele>94.656250</ele>
<time>2012-07-28T16:25:16Z</time>
<speed>0.010000</speed>
<extensions>
<speed>0.0</speed>
<temp>0.00</temp>
<bpm>0</bpm>
<rpm>0.00</rpm>
</extensions>
</trkpt>
<trkpt lat="63.853816986" lon="-22.019254684">
<ele>94.642578</ele>
<time>2012-07-28T16:25:21Z</time>
<speed>0.010000</speed>
<extensions>
<speed>0.0</speed>
<temp>0.00</temp>
<bpm>0</bpm>
<rpm>0.00</rpm>
</extensions>
</trkpt>
<trkpt lat="63.853816986" lon="-22.019254684">
<ele>94.640625</ele>
<time>2012-07-28T16:25:26Z</time>
<speed>0.100000</speed>
<extensions>
<speed>0.1</speed>
<temp>0.00</temp>
<bpm>0</bpm>
<rpm>0.00</rpm>
</extensions>
</trkpt>
<trkpt lat="63.853824615" lon="-22.019170761">
<ele>94.398438</ele>
<time>2012-07-28T16:25:31Z</time>
<speed>1.990000</speed>
<extensions>
<speed>2.0</speed>
<temp>0.00</temp>
<bpm>0</bpm>
<rpm>0.00</rpm>
</extensions>
</trkpt>
<trkpt lat="63.853855133" lon="-22.018941879">
<ele>93.939453</ele>
<time>2012-07-28T16:25:36Z</time>
<speed>2.350000</speed>
<extensions>
<speed>2.4</speed>
<temp>0.00</temp>
<bpm>0</bpm>
<rpm>0.00</rpm>
</extensions>
</trkpt>
<trkpt lat="63.853862762" lon="-22.018819809">
<ele>92.896484</ele>
<time>2012-07-28T16:25:41Z</time>
<speed>0.370000</speed>
<extensions>
<speed>0.4</speed>
<temp>0.00</temp>
<bpm>0</bpm>
<rpm>0.00</rpm>
</extensions>
</trkpt>
<trkpt lat="63.853870392" lon="-22.018806458">
<ele>92.748047</ele>
<time>2012-07-28T16:25:46Z</time>
<speed>0.080000</speed>
<extensions>
<speed>0.1</speed>
<temp>0.00</temp>
<bpm>0</bpm>
<rpm>0.00</rpm>
</extensions>
</trkpt>
<trkpt lat="63.853866577" lon="-22.018804550">
<ele>92.730469</ele>
<time>2012-07-28T16:25:51Z</time>
<speed>0.020000</speed>
<extensions>
<speed>0.0</speed>
<temp>0.00</temp>
<bpm>0</bpm>
<rpm>0.00</rpm>
</extensions>
</trkpt>
<trkpt lat="63.853866577" lon="-22.018802643">
<ele>92.712891</ele>
<time>2012-07-28T16:25:56Z</time>
<speed>0.370000</speed>
<extensions>
<speed>0.4</speed>
<temp>0.00</temp>
<bpm>0</bpm>
<rpm>0.00</rpm>
</extensions>
</trkpt>
<trkpt lat="63.853874207" lon="-22.018774033">
<ele>92.392578</ele>
<time>2012-07-28T16:26:01Z</time>
<speed>0.400000</speed>
<extensions>
<speed>0.4</speed>
<temp>0.00</temp>
<bpm>0</bpm>
<rpm>0.00</rpm>
</extensions>
</trkpt>
<trkpt lat="63.853874207" lon="-22.018772125">
<ele>92.667969</ele>
<time>2012-07-28T16:26:06Z</time>
<speed>0.110000</speed>
<extensions>
<speed>0.1</speed>
<temp>0.00</temp>
<bpm>0</bpm>
<rpm>0.00</rpm>
</extensions>
</trkpt>
<trkpt lat="63.853874207" lon="-22.018764496">
<ele>92.468750</ele>
<time>2012-07-28T16:26:11Z</time>
<speed>0.030000</speed>
<extensions>
<speed>0.0</speed>
<temp>0.00</temp>
<bpm>0</bpm>
<rpm>0.00</rpm>
</extensions>
</trkpt>
<trkpt lat="63.853874207" lon="-22.018764496">
<ele>92.462891</ele>
<time>2012-07-28T16:26:16Z</time>
<speed>0.040000</speed>
<extensions>
<speed>0.0</speed>
<temp>0.00</temp>
<bpm>0</bpm>
<rpm>0.00</rpm>
</extensions>
</trkpt>
<trkpt lat="63.853874207" lon="-22.018768311">
<ele>92.572266</ele>
<time>2012-07-28T16:26:21Z</time>
<speed>0.020000</speed>
<extensions>
<speed>0.0</speed>
<temp>0.00</temp>
<bpm>0</bpm>
<rpm>0.00</rpm>
</extensions>
</trkpt>
<trkpt lat="63.853874207" lon="-22.018768311">
<ele>92.570313</ele>
<time>2012-07-28T16:26:26Z</time>
<extensions>
<speed>0.0</speed>
<temp>0.00</temp>
<bpm>0</bpm>
<rpm>0.00</rpm>
</extensions>
</trkpt>
<trkpt lat="63.853874207" lon="-22.018768311">
<ele>92.562500</ele>
<time>2012-07-28T16:26:31Z</time>
<speed>0.010000</speed>
<extensions>
<speed>0.0</speed>
<temp>0.00</temp>
<bpm>0</bpm>
<rpm>0.00</rpm>
</extensions>
</trkpt>
<trkpt lat="63.853874207" lon="-22.018768311">
<ele>92.558594</ele>
<time>2012-07-28T16:26:36Z</time>
<speed>0.010000</speed>
<extensions>
<speed>0.0</speed>
<temp>0.00</temp>
<bpm>0</bpm>
<rpm>0.00</rpm>
</extensions>
</trkpt>
<trkpt lat="63.853874207" lon="-22.018768311">
<ele>92.560547</ele>
<time>2012-07-28T16:26:41Z</time>
<extensions>
<speed>0.0</speed>
<temp>0.00</temp>
<bpm>0</bpm>
<rpm>0.00</rpm>
</extensions>
</trkpt>
<trkpt lat="63.853874207" lon="-22.018768311">
<ele>92.562500</ele>
<time>2012-07-28T16:26:46Z</time>
<extensions>
<speed>0.0</speed>
<temp>0.00</temp>
<bpm>0</bpm>
<rpm>0.00</rpm>
</extensions>
</trkpt>
<trkpt lat="63.853874207" lon="-22.018768311">
<ele>92.562500</ele>
<time>2012-07-28T16:26:51Z</time>
<speed>0.010000</speed>
<extensions>
<speed>0.0</speed>
<temp>0.00</temp>
<bpm>0</bpm>
<rpm>0.00</rpm>
</extensions>
</trkpt>
<trkpt lat="63.853874207" lon="-22.018768311">
<ele>92.541016</ele>
<time>2012-07-28T16:26:56Z</time>
<extensions>
<speed>0.0</speed>
<temp>0.00</temp>
<bpm>0</bpm>
<rpm>0.00</rpm>
</extensions>
</trkpt>
<trkpt lat="63.853874207" lon="-22.018768311">
<ele>92.527344</ele>
<time>2012-07-28T16:27:01Z</time>
<extensions>
<speed>0.0</speed>
<temp>0.00</temp>
<bpm>0</bpm>
<rpm>0.00</rpm>
</extensions>
</trkpt>
<trkpt lat="63.853874207" lon="-22.018768311">
<ele>92.521484</ele>
<time>2012-07-28T16:27:06Z</time>
<extensions>
<speed>0.0</speed>
<temp>0.00</temp>
<bpm>0</bpm>
<rpm>0.00</rpm>
</extensions>
</trkpt>
<trkpt lat="63.853874207" lon="-22.018768311">
<ele>92.521484</ele>
<time>2012-07-28T16:27:11Z</time>
<extensions>
<speed>0.0</speed>
<temp>0.00</temp>
<bpm>0</bpm>
<rpm>0.00</rpm>
</extensions>
</trkpt>
<trkpt lat="63.853874207" lon="-22.018768311">
<ele>92.517578</ele>
<time>2012-07-28T16:27:16Z</time>
<speed>0.010000</speed>
<extensions>
<speed>0.0</speed>
<temp>0.00</temp>
<bpm>0</bpm>
<rpm>0.00</rpm>
</extensions>
</trkpt>
<trkpt lat="63.853874207" lon="-22.018768311">
<ele>92.515625</ele>
<time>2012-07-28T16:27:21Z</time>
<speed>0.010000</speed>
<extensions>
<speed>0.0</speed>
<temp>0.00</temp>
<bpm>0</bpm>
<rpm>0.00</rpm>
</extensions>
</trkpt>
<trkpt lat="63.853874207" lon="-22.018768311">
<ele>92.511719</ele>
<time>2012-07-28T16:27:26Z</time>
<extensions>
<speed>0.0</speed>
<temp>0.00</temp>
<bpm>0</bpm>
<rpm>0.00</rpm>
</extensions>
</trkpt>
<trkpt lat="63.853874207" lon="-22.018768311">
<ele>92.513672</ele>
<time>2012-07-28T16:27:31Z</time>
<speed>0.010000</speed>
<extensions>
<speed>0.0</speed>
<temp>0.00</temp>
<bpm>0</bpm>
<rpm>0.00</rpm>
</extensions>
</trkpt>
<trkpt lat="63.853874207" lon="-22.018770218">
<ele>92.513672</ele>
<time>2012-07-28T16:27:36Z</time>
<speed>0.010000</speed>
<extensions>
<speed>0.0</speed>
<temp>0.00</temp>
<bpm>0</bpm>
<rpm>0.00</rpm>
</extensions>
</trkpt>
<trkpt lat="63.853874207" lon="-22.018768311">
<ele>92.529297</ele>
<time>2012-07-28T16:27:41Z</time>
<speed>0.610000</speed>
<extensions>
<speed>0.6</speed>
<temp>0.00</temp>
<bpm>0</bpm>
<rpm>0.00</rpm>
</extensions>
</trkpt>
<trkpt lat="63.853969574" lon="-22.018772125">
<ele>93.076172</ele>
<time>2012-07-28T16:27:46Z</time>
<speed>2.140000</speed>
<extensions>
<speed>2.1</speed>
<temp>0.00</temp>
<bpm>0</bpm>
<rpm>0.00</rpm>
</extensions>
</trkpt>
<trkpt lat="63.854080200" lon="-22.018793106">
<ele>93.347656</ele>
<time>2012-07-28T16:27:51Z</time>
<speed>2.690000</speed>
<extensions>
<speed>2.7</speed>
<temp>0.00</temp>
<bpm>0</bpm>
<rpm>0.00</rpm>
</extensions>
</trkpt>
<trkpt lat="63.854202271" lon="-22.018810272">
<ele>93.443359</ele>
<time>2012-07-28T16:27:56Z</time>
<speed>2.310000</speed>
<extensions>
<speed>2.3</speed>
<temp>0.00</temp>
<bpm>0</bpm>
<rpm>0.00</rpm>
</extensions>
</trkpt>
<trkpt lat="63.854316711" lon="-22.018812180">
<ele>93.218750</ele>
<time>2012-07-28T16:28:01Z</time>
<speed>2.430000</speed>
<extensions>
<speed>2.4</speed>
<temp>0.00</temp>
<bpm>0</bpm>
<rpm>0.00</rpm>
</extensions>
</trkpt>
<trkpt lat="63.854423523" lon="-22.018810272">
<ele>92.724609</ele>
<time>2012-07-28T16:28:06Z</time>
<speed>2.150000</speed>
<extensions>
<speed>2.1</speed>
<temp>0.00</temp>
<bpm>0</bpm>
<rpm>0.00</rpm>
</extensions>
</trkpt>
<trkpt lat="63.854522705" lon="-22.018795013">
<ele>91.552734</ele>
<time>2012-07-28T16:28:11Z</time>
<speed>2.270000</speed>
<extensions>
<speed>2.3</speed>
<temp>0.00</temp>
<bpm>0</bpm>
<rpm>0.00</rpm>
</extensions>
</trkpt>
<trkpt lat="63.854640961" lon="-22.018781662">
<ele>92.087891</ele>
<time>2012-07-28T16:28:16Z</time>
<speed>2.360000</speed>
<extensions>
<speed>2.4</speed>
<temp>0.00</temp>
<bpm>0</bpm>
<rpm>0.00</rpm>
</extensions>
</trkpt>
<trkpt lat="63.854763031" lon="-22.018754959">
<ele>92.517578</ele>
<time>2012-07-28T16:28:21Z</time>
<speed>2.770000</speed>
<extensions>
<speed>2.8</speed>
<temp>0.00</temp>
<bpm>0</bpm>
<rpm>0.00</rpm>
</extensions>
</trkpt>
<trkpt lat="63.854888916" lon="-22.018712997">
<ele>93.939453</ele>
<time>2012-07-28T16:28:26Z</time>
<speed>3.400000</speed>
<extensions>
<speed>3.4</speed>
<temp>0.00</temp>
<bpm>0</bpm>
<rpm>0.00</rpm>
</extensions>
</trkpt>
<trkpt lat="63.855014801" lon="-22.018663406">
<ele>94.582031</ele>
<time>2012-07-28T16:28:31Z</time>
<speed>2.560000</speed>
<extensions>
<speed>2.6</speed>
<temp>0.00</temp>
<bpm>0</bpm>
<rpm>0.00</rpm>
</extensions>
</trkpt>
<trkpt lat="63.855125427" lon="-22.018600464">
<ele>95.150391</ele>
<time>2012-07-28T16:28:36Z</time>
<speed>2.510000</speed>
<extensions>
<speed>2.5</speed>
<temp>0.00</temp>
<bpm>0</bpm>
<rpm>0.00</rpm>
</extensions>
</trkpt>
<trkpt lat="63.855251312" lon="-22.018524170">
<ele>95.195313</ele>
<time>2012-07-28T16:28:41Z</time>
<speed>3.010000</speed>
<extensions>
<speed>3.0</speed>
<temp>0.00</temp>
<bpm>0</bpm>
<rpm>0.00</rpm>
</extensions>
</trkpt>
<trkpt lat="63.855381012" lon="-22.018461227">
<ele>95.412109</ele>
<time>2012-07-28T16:28:46Z</time>
<speed>2.930000</speed>
<extensions>
<speed>2.9</speed>
<temp>0.00</temp>
<bpm>0</bpm>
<rpm>0.00</rpm>
</extensions>
</trkpt>
<trkpt lat="63.855518341" lon="-22.018360138">
<ele>95.851563</ele>
<time>2012-07-28T16:28:51Z</time>
<speed>2.940000</speed>
<extensions>
<speed>2.9</speed>
<temp>0.00</temp>
<bpm>0</bpm>
<rpm>0.00</rpm>
</extensions>
</trkpt>
<trkpt lat="63.855640411" lon="-22.018257141">
<ele>96.605469</ele>
<time>2012-07-28T16:28:56Z</time>
<speed>2.750000</speed>
<extensions>
<speed>2.7</speed>
<temp>0.00</temp>
<bpm>0</bpm>
<rpm>0.00</rpm>
</extensions>
</trkpt>
<trkpt lat="63.855739594" lon="-22.018171310">
<ele>95.664063</ele>
<time>2012-07-28T16:29:01Z</time>
<speed>2.330000</speed>
<extensions>
<speed>2.3</speed>
<temp>0.00</temp>
<bpm>0</bpm>
<rpm>0.00</rpm>
</extensions>
</trkpt>
<trkpt lat="63.855857849" lon="-22.018079758">
<ele>96.349609</ele>
<time>2012-07-28T16:29:06Z</time>
<speed>2.930000</speed>
<extensions>
<speed>2.9</speed>
<temp>0.00</temp>
<bpm>0</bpm>
<rpm>0.00</rpm>
</extensions>
</trkpt>
<trkpt lat="63.855979919" lon="-22.017976761">
<ele>95.371094</ele>
<time>2012-07-28T16:29:11Z</time>
<speed>2.750000</speed>
<extensions>
<speed>2.7</speed>
<temp>0.00</temp>
<bpm>0</bpm>
<rpm>0.00</rpm>
</extensions>
</trkpt>
<trkpt lat="63.856101990" lon="-22.017871857">
<ele>94.166016</ele>
<time>2012-07-28T16:29:16Z</time>
<speed>2.810000</speed>
<extensions>
<speed>2.8</speed>
<temp>0.00</temp>
<bpm>0</bpm>
<rpm>0.00</rpm>
</extensions>
</trkpt>
<trkpt lat="63.856216431" lon="-22.017787933">
<ele>93.601563</ele>
<time>2012-07-28T16:29:21Z</time>
<speed>2.800000</speed>
<extensions>
<speed>2.8</speed>
<temp>0.00</temp>
<bpm>0</bpm>
<rpm>0.00</rpm>
</extensions>
</trkpt>
<trkpt lat="63.856330872" lon="-22.017753601">
<ele>92.914063</ele>
<time>2012-07-28T16:29:26Z</time>
<speed>2.540000</speed>
<extensions>
<speed>2.5</speed>
<temp>0.00</temp>
<bpm>0</bpm>
<rpm>0.00</rpm>
</extensions>
</trkpt>
<trkpt lat="63.856433868" lon="-22.017713547">
<ele>92.300781</ele>
<time>2012-07-28T16:29:31Z</time>
<speed>2.360000</speed>
<extensions>
<speed>2.4</speed>
<temp>0.00</temp>
<bpm>0</bpm>
<rpm>0.00</rpm>
</extensions>
</trkpt>
<trkpt lat="63.856533051" lon="-22.017705917">
<ele>91.531250</ele>
<time>2012-07-28T16:29:36Z</time>
<speed>2.450000</speed>
<extensions>
<speed>2.4</speed>
<temp>0.00</temp>
<bpm>0</bpm>
<rpm>0.00</rpm>
</extensions>
</trkpt>
<trkpt lat="63.856636047" lon="-22.017652512">
<ele>90.257813</ele>
<time>2012-07-28T16:29:41Z</time>
<speed>2.540000</speed>
<extensions>
<speed>2.5</speed>
<temp>0.00</temp>
<bpm>0</bpm>
<rpm>0.00</rpm>
</extensions>
</trkpt>
<trkpt lat="63.856758118" lon="-22.017652512">
<ele>90.248047</ele>
<time>2012-07-28T16:29:46Z</time>
<speed>2.550000</speed>
<extensions>
<speed>2.6</speed>
<temp>0.00</temp>
<bpm>0</bpm>
<rpm>0.00</rpm>
</extensions>
</trkpt>
<trkpt lat="63.856857300" lon="-22.017673492">
<ele>90.369141</ele>
<time>2012-07-28T16:29:51Z</time>
<speed>2.490000</speed>
<extensions>
<speed>2.5</speed>
<temp>0.00</temp>
<bpm>0</bpm>
<rpm>0.00</rpm>
</extensions>
</trkpt>
<trkpt lat="63.856983185" lon="-22.017658234">
<ele>89.035156</ele>
<time>2012-07-28T16:29:56Z</time>
<speed>2.800000</speed>
<extensions>
<speed>2.8</speed>
<temp>0.00</temp>
<bpm>0</bpm>
<rpm>0.00</rpm>
</extensions>
</trkpt>
<trkpt lat="63.857089996" lon="-22.017662048">
<ele>87.648438</ele>
<time>2012-07-28T16:30:01Z</time>
<speed>2.510000</speed>
<extensions>
<speed>2.5</speed>
<temp>0.00</temp>
<bpm>0</bpm>
<rpm>0.00</rpm>
</extensions>
</trkpt>
<trkpt lat="63.857189178" lon="-22.017662048">
<ele>87.839844</ele>
<time>2012-07-28T16:30:06Z</time>
<speed>2.300000</speed>
<extensions>
<speed>2.3</speed>
<temp>0.00</temp>
<bpm>0</bpm>
<rpm>0.00</rpm>
</extensions>
</trkpt>
<trkpt lat="63.857288361" lon="-22.017694473">
<ele>88.353516</ele>
<time>2012-07-28T16:30:11Z</time>
<speed>2.060000</speed>
<extensions>
<speed>2.1</speed>
<temp>0.00</temp>
<bpm>0</bpm>
<rpm>0.00</rpm>
</extensions>
</trkpt>
<trkpt lat="63.857391357" lon="-22.017738342">
<ele>88.130859</ele>
<time>2012-07-28T16:30:16Z</time>
<speed>2.420000</speed>
<extensions>
<speed>2.4</speed>
<temp>0.00</temp>
<bpm>0</bpm>
<rpm>0.00</rpm>
</extensions>
</trkpt>
<trkpt lat="63.857486725" lon="-22.017763138">
<ele>86.966797</ele>
<time>2012-07-28T16:30:21Z</time>
<speed>2.090000</speed>
<extensions>
<speed>2.1</speed>
<temp>0.00</temp>
<bpm>0</bpm>
<rpm>0.00</rpm>
</extensions>
</trkpt>
<trkpt lat="63.857574463" lon="-22.017793655">
<ele>86.570313</ele>
<time>2012-07-28T16:30:26Z</time>
<speed>2.240000</speed>
<extensions>
<speed>2.2</speed>
<temp>0.00</temp>
<bpm>0</bpm>
<rpm>0.00</rpm>
</extensions>
</trkpt>
<trkpt lat="63.857666016" lon="-22.017854691">
<ele>89.242188</ele>
<time>2012-07-28T16:30:31Z</time>
<speed>2.030000</speed>
<extensions>
<speed>2.0</speed>
<temp>0.00</temp>
<bpm>0</bpm>
<rpm>0.00</rpm>
</extensions>
</trkpt>
<trkpt lat="63.857749939" lon="-22.017910004">
<ele>91.000000</ele>
<time>2012-07-28T16:30:36Z</time>
<speed>1.680000</speed>
<extensions>
<speed>1.7</speed>
<temp>0.00</temp>
<bpm>0</bpm>
<rpm>0.00</rpm>
</extensions>
</trkpt>
<trkpt lat="63.857826233" lon="-22.017932892">
<ele>90.902344</ele>
<time>2012-07-28T16:30:41Z</time>
<speed>1.970000</speed>
<extensions>
<speed>2.0</speed>
<temp>0.00</temp>
<bpm>0</bpm>
<rpm>0.00</rpm>
</extensions>
</trkpt>
<trkpt lat="63.857910156" lon="-22.018003464">
<ele>90.398438</ele>
<time>2012-07-28T16:30:46Z</time>
<speed>1.690000</speed>
<extensions>
<speed>1.7</speed>
<temp>0.00</temp>
<bpm>0</bpm>
<rpm>0.00</rpm>
</extensions>
</trkpt>
<trkpt lat="63.857982635" lon="-22.018087387">
<ele>91.437500</ele>
<time>2012-07-28T16:30:51Z</time>
<speed>1.980000</speed>
<extensions>
<speed>2.0</speed>
<temp>0.00</temp>
<bpm>0</bpm>
<rpm>0.00</rpm>
</extensions>
</trkpt>
<trkpt lat="63.858062744" lon="-22.018146515">
<ele>92.996094</ele>
<time>2012-07-28T16:30:56Z</time>
<speed>1.810000</speed>
<extensions>
<speed>1.8</speed>
<temp>0.00</temp>
<bpm>0</bpm>
<rpm>0.00</rpm>
</extensions>
</trkpt>
<trkpt lat="63.858131409" lon="-22.018232346">
<ele>96.453125</ele>
<time>2012-07-28T16:31:01Z</time>
<speed>2.240000</speed>
<extensions>
<speed>2.2</speed>
<temp>0.00</temp>
<bpm>0</bpm>
<rpm>0.00</rpm>
</extensions>
</trkpt>
<trkpt lat="63.858203888" lon="-22.018306732">
<ele>97.150391</ele>
<time>2012-07-28T16:31:06Z</time>
<speed>1.810000</speed>
<extensions>
<speed>1.8</speed>
<temp>0.00</temp>
<bpm>0</bpm>
<rpm>0.00</rpm>
</extensions>
</trkpt>
<trkpt lat="63.858283997" lon="-22.018381119">
<ele>97.189453</ele>
<time>2012-07-28T16:31:11Z</time>
<speed>1.840000</speed>
<extensions>
<speed>1.8</speed>
<temp>0.00</temp>
<bpm>0</bpm>
<rpm>0.00</rpm>
</extensions>
</trkpt>
<trkpt lat="63.858341217" lon="-22.018466949">
<ele>96.990234</ele>
<time>2012-07-28T16:31:16Z</time>
<speed>1.120000</speed>
<extensions>
<speed>1.1</speed>
<temp>0.00</temp>
<bpm>0</bpm>
<rpm>0.00</rpm>
</extensions>
</trkpt>
<trkpt lat="63.858406067" lon="-22.018524170">
<ele>96.324219</ele>
<time>2012-07-28T16:31:21Z</time>
<speed>2.030000</speed>
<extensions>
<speed>2.0</speed>
<temp>0.00</temp>
<bpm>0</bpm>
<rpm>0.00</rpm>
</extensions>
</trkpt>
<trkpt lat="63.858489990" lon="-22.018600464">
<ele>93.851563</ele>
<time>2012-07-28T16:31:26Z</time>
<speed>1.760000</speed>
<extensions>
<speed>1.8</speed>
<temp>0.00</temp>
<bpm>0</bpm>
<rpm>0.00</rpm>
</extensions>
</trkpt>
<trkpt lat="63.858554840" lon="-22.018674850">
<ele>93.140625</ele>
<time>2012-07-28T16:31:31Z</time>
<speed>1.580000</speed>
<extensions>
<speed>1.6</speed>
<temp>0.00</temp>
<bpm>0</bpm>
<rpm>0.00</rpm>
</extensions>
</trkpt>
<trkpt lat="63.858615875" lon="-22.018764496">
<ele>93.433594</ele>
<time>2012-07-28T16:31:36Z</time>
<speed>1.900000</speed>
<extensions>
<speed>1.9</speed>
<temp>0.00</temp>
<bpm>0</bpm>
<rpm>0.00</rpm>
</extensions>
</trkpt>
<trkpt lat="63.858688354" lon="-22.018875122">
<ele>93.341797</ele>
<time>2012-07-28T16:31:41Z</time>
<speed>1.940000</speed>
<extensions>
<speed>1.9</speed>
<temp>0.00</temp>
<bpm>0</bpm>
<rpm>0.00</rpm>
</extensions>
</trkpt>
<trkpt lat="63.858753204" lon="-22.018960953">
<ele>93.730469</ele>
<time>2012-07-28T16:31:46Z</time>
<speed>1.770000</speed>
<extensions>
<speed>1.8</speed>
<temp>0.00</temp>
<bpm>0</bpm>
<rpm>0.00</rpm>
</extensions>
</trkpt>
<trkpt lat="63.858825684" lon="-22.019117355">
<ele>93.658203</ele>
<time>2012-07-28T16:31:51Z</time>
<speed>1.990000</speed>
<extensions>
<speed>2.0</speed>
<temp>0.00</temp>
<bpm>0</bpm>
<rpm>0.00</rpm>
</extensions>
</trkpt>
<trkpt lat="63.858879089" lon="-22.019231796">
<ele>93.802734</ele>
<time>2012-07-28T16:31:56Z</time>
<speed>1.900000</speed>
<extensions>
<speed>1.9</speed>
<temp>0.00</temp>
<bpm>0</bpm>
<rpm>0.00</rpm>
</extensions>
</trkpt>
<trkpt lat="63.858951569" lon="-22.019350052">
<ele>94.708984</ele>
<time>2012-07-28T16:32:01Z</time>
<speed>1.860000</speed>
<extensions>
<speed>1.9</speed>
<temp>0.00</temp>
<bpm>0</bpm>
<rpm>0.00</rpm>
</extensions>
</trkpt>
<trkpt lat="63.859012604" lon="-22.019468307">
<ele>94.994141</ele>
<time>2012-07-28T16:32:06Z</time>
<speed>1.800000</speed>
<extensions>
<speed>1.8</speed>
<temp>0.00</temp>
<bpm>0</bpm>
<rpm>0.00</rpm>
</extensions>
</trkpt>
<trkpt lat="63.859069824" lon="-22.019588470">
<ele>94.892578</ele>
<time>2012-07-28T16:32:11Z</time>
<speed>1.910000</speed>
<extensions>
<speed>1.9</speed>
<temp>0.00</temp>
<bpm>0</bpm>
<rpm>0.00</rpm>
</extensions>
</trkpt>
<trkpt lat="63.859130859" lon="-22.019737244">
<ele>94.615234</ele>
<time>2012-07-28T16:32:16Z</time>
<speed>2.140000</speed>
<extensions>
<speed>2.1</speed>
<temp>0.00</temp>
<bpm>0</bpm>
<rpm>0.00</rpm>
</extensions>
</trkpt>
<trkpt lat="63.859191895" lon="-22.019876480">
<ele>94.464844</ele>
<time>2012-07-28T16:32:21Z</time>
<speed>2.060000</speed>
<extensions>
<speed>2.1</speed>
<temp>0.00</temp>
<bpm>0</bpm>
<rpm>0.00</rpm>
</extensions>
</trkpt>
<trkpt lat="63.859264374" lon="-22.020057678">
<ele>94.507813</ele>
<time>2012-07-28T16:32:26Z</time>
<speed>2.230000</speed>
<extensions>
<speed>2.2</speed>
<temp>0.00</temp>
<bpm>0</bpm>
<rpm>0.00</rpm>
</extensions>
</trkpt>
<trkpt lat="63.859336853" lon="-22.020265579">
<ele>94.660156</ele>
<time>2012-07-28T16:32:31Z</time>
<speed>2.640000</speed>
<extensions>
<speed>2.6</speed>
<temp>0.00</temp>
<bpm>0</bpm>
<rpm>0.00</rpm>
</extensions>
</trkpt>
<trkpt lat="63.859401703" lon="-22.020483017">
<ele>95.248047</ele>
<time>2012-07-28T16:32:36Z</time>
<speed>2.830000</speed>
<extensions>
<speed>2.8</speed>
<temp>0.00</temp>
<bpm>0</bpm>
<rpm>0.00</rpm>
</extensions>
</trkpt>
<trkpt lat="63.859485626" lon="-22.020769119">
<ele>96.203125</ele>
<time>2012-07-28T16:32:41Z</time>
<speed>3.250000</speed>
<extensions>
<speed>3.2</speed>
<temp>0.00</temp>
<bpm>0</bpm>
<rpm>0.00</rpm>
</extensions>
</trkpt>
<trkpt lat="63.859561920" lon="-22.021017075">
<ele>95.917969</ele>
<time>2012-07-28T16:32:46Z</time>
<speed>2.990000</speed>
<extensions>
<speed>3.0</speed>
<temp>0.00</temp>
<bpm>0</bpm>
<rpm>0.00</rpm>
</extensions>
</trkpt>
<trkpt lat="63.859634399" lon="-22.021263123">
<ele>97.080078</ele>
<time>2012-07-28T16:32:51Z</time>
<speed>2.910000</speed>
<extensions>
<speed>2.9</speed>
<temp>0.00</temp>
<bpm>0</bpm>
<rpm>0.00</rpm>
</extensions>
</trkpt>
<trkpt lat="63.859722137" lon="-22.021457672">
<ele>97.501953</ele>
<time>2012-07-28T16:32:56Z</time>
<speed>2.190000</speed>
<extensions>
<speed>2.2</speed>
<temp>0.00</temp>
<bpm>0</bpm>
<rpm>0.00</rpm>
</extensions>
</trkpt>
<trkpt lat="63.859783173" lon="-22.021638870">
<ele>98.615234</ele>
<time>2012-07-28T16:33:01Z</time>
<speed>2.170000</speed>
<extensions>
<speed>2.2</speed>
<temp>0.00</temp>
<bpm>0</bpm>
<rpm>0.00</rpm>
</extensions>
</trkpt>
<trkpt lat="63.859851837" lon="-22.021841049">
<ele>99.074219</ele>
<time>2012-07-28T16:33:06Z</time>
<speed>2.590000</speed>
<extensions>
<speed>2.6</speed>
<temp>0.00</temp>
<bpm>0</bpm>
<rpm>0.00</rpm>
</extensions>
</trkpt>
<trkpt lat="63.859924316" lon="-22.022041321">
<ele>99.660156</ele>
<time>2012-07-28T16:33:11Z</time>
<speed>2.600000</speed>
<extensions>
<speed>2.6</speed>
<temp>0.00</temp>
<bpm>0</bpm>
<rpm>0.00</rpm>
</extensions>
</trkpt>
<trkpt lat="63.859985352" lon="-22.022233963">
<ele>99.765625</ele>
<time>2012-07-28T16:33:16Z</time>
<speed>2.310000</speed>
<extensions>
<speed>2.3</speed>
<temp>0.00</temp>
<bpm>0</bpm>
<rpm>0.00</rpm>
</extensions>
</trkpt>
<trkpt lat="63.860061646" lon="-22.022424698">
<ele>99.722656</ele>
<time>2012-07-28T16:33:21Z</time>
<speed>2.400000</speed>
<extensions>
<speed>2.4</speed>
<temp>0.00</temp>
<bpm>0</bpm>
<rpm>0.00</rpm>
</extensions>
</trkpt>
<trkpt lat="63.860130310" lon="-22.022642136">
<ele>100.402344</ele>
<time>2012-07-28T16:33:26Z</time>
<speed>2.650000</speed>
<extensions>
<speed>2.6</speed>
<temp>0.00</temp>
<bpm>0</bpm>
<rpm>0.00</rpm>
</extensions>
</trkpt>
<trkpt lat="63.860191345" lon="-22.022842407">
<ele>100.501953</ele>
<time>2012-07-28T16:33:31Z</time>
<speed>2.640000</speed>
<extensions>
<speed>2.6</speed>
<temp>0.00</temp>
<bpm>0</bpm>
<rpm>0.00</rpm>
</extensions>
</trkpt>
<trkpt lat="63.860260010" lon="-22.023048401">
<ele>100.396484</ele>
<time>2012-07-28T16:33:36Z</time>
<speed>2.720000</speed>
<extensions>
<speed>2.7</speed>
<temp>0.00</temp>
<bpm>0</bpm>
<rpm>0.00</rpm>
</extensions>
</trkpt>
<trkpt lat="63.860340118" lon="-22.023275375">
<ele>101.218750</ele>
<time>2012-07-28T16:33:41Z</time>
<speed>2.670000</speed>
<extensions>
<speed>2.7</speed>
<temp>0.00</temp>
<bpm>0</bpm>
<rpm>0.00</rpm>
</extensions>
</trkpt>
<trkpt lat="63.860412598" lon="-22.023527145">
<ele>103.929688</ele>
<time>2012-07-28T16:33:46Z</time>
<speed>2.650000</speed>
<extensions>
<speed>2.6</speed>
<temp>0.00</temp>
<bpm>0</bpm>
<rpm>0.00</rpm>
</extensions>
</trkpt>
<trkpt lat="63.860473633" lon="-22.023729324">
<ele>104.644531</ele>
<time>2012-07-28T16:33:51Z</time>
<speed>1.770000</speed>
<extensions>
<speed>1.8</speed>
<temp>0.00</temp>
<bpm>0</bpm>
<rpm>0.00</rpm>
</extensions>
</trkpt>
<trkpt lat="63.860511780" lon="-22.023860931">
<ele>104.648438</ele>
<time>2012-07-28T16:33:56Z</time>
<speed>1.940000</speed>
<extensions>
<speed>1.9</speed>
<temp>0.00</temp>
<bpm>0</bpm>
<rpm>0.00</rpm>
</extensions>
</trkpt>
<trkpt lat="63.860565186" lon="-22.024000168">
<ele>104.228516</ele>
<time>2012-07-28T16:34:01Z</time>
<speed>1.980000</speed>
<extensions>
<speed>2.0</speed>
<temp>0.00</temp>
<bpm>0</bpm>
<rpm>0.00</rpm>
</extensions>
</trkpt>
<trkpt lat="63.860626221" lon="-22.024158478">
<ele>103.853516</ele>
<time>2012-07-28T16:34:06Z</time>
<speed>2.130000</speed>
<extensions>
<speed>2.1</speed>
<temp>0.00</temp>
<bpm>0</bpm>
<rpm>0.00</rpm>
</extensions>
</trkpt>
<trkpt lat="63.860691071" lon="-22.024343491">
<ele>103.492188</ele>
<time>2012-07-28T16:34:11Z</time>
<speed>2.600000</speed>
<extensions>
<speed>2.6</speed>
<temp>0.00</temp>
<bpm>0</bpm>
<rpm>0.00</rpm>
</extensions>
</trkpt>
<trkpt lat="63.860763550" lon="-22.024574280">
<ele>103.076172</ele>
<time>2012-07-28T16:34:16Z</time>
<speed>2.880000</speed>
<extensions>
<speed>2.9</speed>
<temp>0.00</temp>
<bpm>0</bpm>
<rpm>0.00</rpm>
</extensions>
</trkpt>
<trkpt lat="63.860851288" lon="-22.024803162">
<ele>102.406250</ele>
<time>2012-07-28T16:34:21Z</time>
<speed>3.030000</speed>
<extensions>
<speed>3.0</speed>
<temp>0.00</temp>
<bpm>0</bpm>
<rpm>0.00</rpm>
</extensions>
</trkpt>
<trkpt lat="63.860919952" lon="-22.025035858">
<ele>101.308594</ele>
<time>2012-07-28T16:34:26Z</time>
<speed>2.780000</speed>
<extensions>
<speed>2.8</speed>
<temp>0.00</temp>
<bpm>0</bpm>
<rpm>0.00</rpm>
</extensions>
</trkpt>
<trkpt lat="63.860996246" lon="-22.025299072">
<ele>101.740234</ele>
<time>2012-07-28T16:34:31Z</time>
<speed>3.140000</speed>
<extensions>
<speed>3.1</speed>
<temp>0.00</temp>
<bpm>0</bpm>
<rpm>0.00</rpm>
</extensions>
</trkpt>
<trkpt lat="63.861076355" lon="-22.025566101">
<ele>101.845703</ele>
<time>2012-07-28T16:34:36Z</time>
<speed>3.260000</speed>
<extensions>
<speed>3.3</speed>
<temp>0.00</temp>
<bpm>0</bpm>
<rpm>0.00</rpm>
</extensions>
</trkpt>
<trkpt lat="63.861148834" lon="-22.025800705">
<ele>101.601563</ele>
<time>2012-07-28T16:34:41Z</time>
<speed>2.720000</speed>
<extensions>
<speed>2.7</speed>
<temp>0.00</temp>
<bpm>0</bpm>
<rpm>0.00</rpm>
</extensions>
</trkpt>
<trkpt lat="63.861228943" lon="-22.026031494">
<ele>102.126953</ele>
<time>2012-07-28T16:34:46Z</time>
<speed>2.540000</speed>
<extensions>
<speed>2.5</speed>
<temp>0.00</temp>
<bpm>0</bpm>
<rpm>0.00</rpm>
</extensions>
</trkpt>
<trkpt lat="63.861293793" lon="-22.026252747">
<ele>103.429688</ele>
<time>2012-07-28T16:34:51Z</time>
<speed>2.700000</speed>
<extensions>
<speed>2.7</speed>
<temp>0.00</temp>
<bpm>0</bpm>
<rpm>0.00</rpm>
</extensions>
</trkpt>
<trkpt lat="63.861373901" lon="-22.026500702">
<ele>103.646484</ele>
<time>2012-07-28T16:34:56Z</time>
<speed>3.170000</speed>
<extensions>
<speed>3.2</speed>
<temp>0.00</temp>
<bpm>0</bpm>
<rpm>0.00</rpm>
</extensions>
</trkpt>
<trkpt lat="63.861457825" lon="-22.026762009">
<ele>103.685547</ele>
<time>2012-07-28T16:35:01Z</time>
<speed>3.290000</speed>
<extensions>
<speed>3.3</speed>
<temp>0.00</temp>
<bpm>0</bpm>
<rpm>0.00</rpm>
</extensions>
</trkpt>
<trkpt lat="63.861549377" lon="-22.027011871">
<ele>103.691406</ele>
<time>2012-07-28T16:35:06Z</time>
<speed>3.030000</speed>
<extensions>
<speed>3.0</speed>
<temp>0.00</temp>
<bpm>0</bpm>
<rpm>0.00</rpm>
</extensions>
</trkpt>
<trkpt lat="63.861637115" lon="-22.027292252">
<ele>105.355469</ele>
<time>2012-07-28T16:35:11Z</time>
<speed>3.650000</speed>
<extensions>
<speed>3.7</speed>
<temp>0.00</temp>
<bpm>0</bpm>
<rpm>0.00</rpm>
</extensions>
</trkpt>
<trkpt lat="63.861717224" lon="-22.027566910">
<ele>105.916016</ele>
<time>2012-07-28T16:35:16Z</time>
<speed>3.190000</speed>
<extensions>
<speed>3.2</speed>
<temp>0.00</temp>
<bpm>0</bpm>
<rpm>0.00</rpm>
</extensions>
</trkpt>
<trkpt lat="63.861801147" lon="-22.027788162">
<ele>105.154297</ele>
<time>2012-07-28T16:35:21Z</time>
<speed>2.860000</speed>
<extensions>
<speed>2.9</speed>
<temp>0.00</temp>
<bpm>0</bpm>
<rpm>0.00</rpm>
</extensions>
</trkpt>
<trkpt lat="63.861885071" lon="-22.028028488">
<ele>105.121094</ele>
<time>2012-07-28T16:35:26Z</time>
<speed>3.020000</speed>
<extensions>
<speed>3.0</speed>
<temp>0.00</temp>
<bpm>0</bpm>
<rpm>0.00</rpm>
</extensions>
</trkpt>
<trkpt lat="63.861965179" lon="-22.028270721">
<ele>105.210938</ele>
<time>2012-07-28T16:35:31Z</time>
<speed>2.940000</speed>
<extensions>
<speed>2.9</speed>
<temp>0.00</temp>
<bpm>0</bpm>
<rpm>0.00</rpm>
</extensions>
</trkpt>
<trkpt lat="63.862049103" lon="-22.028532028">
<ele>104.890625</ele>
<time>2012-07-28T16:35:36Z</time>
<speed>3.140000</speed>
<extensions>
<speed>3.1</speed>
<temp>0.00</temp>
<bpm>0</bpm>
<rpm>0.00</rpm>
</extensions>
</trkpt>
<trkpt lat="63.862129211" lon="-22.028797150">
<ele>105.308594</ele>
<time>2012-07-28T16:35:41Z</time>
<speed>3.360000</speed>
<extensions>
<speed>3.4</speed>
<temp>0.00</temp>
<bpm>0</bpm>
<rpm>0.00</rpm>
</extensions>
</trkpt>
<trkpt lat="63.862209320" lon="-22.029073715">
<ele>105.732422</ele>
<time>2012-07-28T16:35:46Z</time>
<speed>3.200000</speed>
<extensions>
<speed>3.2</speed>
<temp>0.00</temp>
<bpm>0</bpm>
<rpm>0.00</rpm>
</extensions>
</trkpt>
<trkpt lat="63.862293243" lon="-22.029352188">
<ele>105.312500</ele>
<time>2012-07-28T16:35:51Z</time>
<speed>3.370000</speed>
<extensions>
<speed>3.4</speed>
<temp>0.00</temp>
<bpm>0</bpm>
<rpm>0.00</rpm>
</extensions>
</trkpt>
<trkpt lat="63.862388611" lon="-22.029609680">
<ele>104.898438</ele>
<time>2012-07-28T16:35:56Z</time>
<speed>3.350000</speed>
<extensions>
<speed>3.4</speed>
<temp>0.00</temp>
<bpm>0</bpm>
<rpm>0.00</rpm>
</extensions>
</trkpt>
<trkpt lat="63.862472534" lon="-22.029874802">
<ele>104.316406</ele>
<time>2012-07-28T16:36:01Z</time>
<speed>3.060000</speed>
<extensions>
<speed>3.1</speed>
<temp>0.00</temp>
<bpm>0</bpm>
<rpm>0.00</rpm>
</extensions>
</trkpt>
<trkpt lat="63.862564087" lon="-22.030130386">
<ele>103.634766</ele>
<time>2012-07-28T16:36:06Z</time>
<speed>3.430000</speed>
<extensions>
<speed>3.4</speed>
<temp>0.00</temp>
<bpm>0</bpm>
<rpm>0.00</rpm>
</extensions>
</trkpt>
<trkpt lat="63.862659454" lon="-22.030385971">
<ele>102.736328</ele>
<time>2012-07-28T16:36:11Z</time>
<speed>3.040000</speed>
<extensions>
<speed>3.0</speed>
<temp>0.00</temp>
<bpm>0</bpm>
<rpm>0.00</rpm>
</extensions>
</trkpt>
<trkpt lat="63.862739563" lon="-22.030611038">
<ele>101.445313</ele>
<time>2012-07-28T16:36:16Z</time>
<speed>2.970000</speed>
<extensions>
<speed>3.0</speed>
<temp>0.00</temp>
<bpm>0</bpm>
<rpm>0.00</rpm>
</extensions>
</trkpt>
<trkpt lat="63.862819672" lon="-22.030858994">
<ele>102.050781</ele>
<time>2012-07-28T16:36:21Z</time>
<speed>2.760000</speed>
<extensions>
<speed>2.8</speed>
<temp>0.00</temp>
<bpm>0</bpm>
<rpm>0.00</rpm>
</extensions>
</trkpt>
<trkpt lat="63.862899780" lon="-22.031110764">
<ele>102.267578</ele>
<time>2012-07-28T16:36:26Z</time>
<speed>3.210000</speed>
<extensions>
<speed>3.2</speed>
<temp>0.00</temp>
<bpm>0</bpm>
<rpm>0.00</rpm>
</extensions>
</trkpt>
<trkpt lat="63.862998962" lon="-22.031358719">
<ele>100.878906</ele>
<time>2012-07-28T16:36:31Z</time>
<speed>3.480000</speed>
<extensions>
<speed>3.5</speed>
<temp>0.00</temp>
<bpm>0</bpm>
<rpm>0.00</rpm>
</extensions>
</trkpt>
<trkpt lat="63.863086700" lon="-22.031642914">
<ele>99.509766</ele>
<time>2012-07-28T16:36:36Z</time>
<speed>3.210000</speed>
<extensions>
<speed>3.2</speed>
<temp>0.00</temp>
<bpm>0</bpm>
<rpm>0.00</rpm>
</extensions>
</trkpt>
<trkpt lat="63.863178253" lon="-22.031892776">
<ele>99.287109</ele>
<time>2012-07-28T16:36:41Z</time>
<speed>3.070000</speed>
<extensions>
<speed>3.1</speed>
<temp>0.00</temp>
<bpm>0</bpm>
<rpm>0.00</rpm>
</extensions>
</trkpt>
<trkpt lat="63.863265991" lon="-22.032146454">
<ele>99.414063</ele>
<time>2012-07-28T16:36:46Z</time>
<speed>2.930000</speed>
<extensions>
<speed>2.9</speed>
<temp>0.00</temp>
<bpm>0</bpm>
<rpm>0.00</rpm>
</extensions>
</trkpt>
<trkpt lat="63.863346100" lon="-22.032417297">
<ele>99.591797</ele>
<time>2012-07-28T16:36:51Z</time>
<speed>3.280000</speed>
<extensions>
<speed>3.3</speed>
<temp>0.00</temp>
<bpm>0</bpm>
<rpm>0.00</rpm>
</extensions>
</trkpt>
<trkpt lat="63.863433838" lon="-22.032678604">
<ele>99.359375</ele>
<time>2012-07-28T16:36:56Z</time>
<speed>2.880000</speed>
<extensions>
<speed>2.9</speed>
<temp>0.00</temp>
<bpm>0</bpm>
<rpm>0.00</rpm>
</extensions>
</trkpt>
<trkpt lat="63.863494873" lon="-22.032926559">
<ele>99.564453</ele>
<time>2012-07-28T16:37:01Z</time>
<speed>2.760000</speed>
<extensions>
<speed>2.8</speed>
<temp>0.00</temp>
<bpm>0</bpm>
<rpm>0.00</rpm>
</extensions>
</trkpt>
<trkpt lat="63.863574982" lon="-22.033157349">
<ele>99.187500</ele>
<time>2012-07-28T16:37:06Z</time>
<speed>2.940000</speed>
<extensions>
<speed>2.9</speed>
<temp>0.00</temp>
<bpm>0</bpm>
<rpm>0.00</rpm>
</extensions>
</trkpt>
<trkpt lat="63.863651276" lon="-22.033351898">
<ele>97.609375</ele>
<time>2012-07-28T16:37:11Z</time>
<speed>2.740000</speed>
<extensions>
<speed>2.7</speed>
<temp>0.00</temp>
<bpm>0</bpm>
<rpm>0.00</rpm>
</extensions>
</trkpt>
<trkpt lat="63.863727570" lon="-22.033576965">
<ele>98.150391</ele>
<time>2012-07-28T16:37:16Z</time>
<speed>2.560000</speed>
<extensions>
<speed>2.6</speed>
<temp>0.00</temp>
<bpm>0</bpm>
<rpm>0.00</rpm>
</extensions>
</trkpt>
<trkpt lat="63.863780975" lon="-22.033821106">
<ele>99.123047</ele>
<time>2012-07-28T16:37:21Z</time>
<speed>2.420000</speed>
<extensions>
<speed>2.4</speed>
<temp>0.00</temp>
<bpm>0</bpm>
<rpm>0.00</rpm>
</extensions>
</trkpt>
<trkpt lat="63.863849640" lon="-22.034057617">
<ele>99.480469</ele>
<time>2012-07-28T16:37:26Z</time>
<speed>2.890000</speed>
<extensions>
<speed>2.9</speed>
<temp>0.00</temp>
<bpm>0</bpm>
<rpm>0.00</rpm>
</extensions>
</trkpt>
<trkpt lat="63.863910675" lon="-22.034294128">
<ele>100.406250</ele>
<time>2012-07-28T16:37:31Z</time>
<speed>2.670000</speed>
<extensions>
<speed>2.7</speed>
<temp>0.00</temp>
<bpm>0</bpm>
<rpm>0.00</rpm>
</extensions>
</trkpt>
<trkpt lat="63.863990784" lon="-22.034532547">
<ele>100.667969</ele>
<time>2012-07-28T16:37:36Z</time>
<speed>2.780000</speed>
<extensions>
<speed>2.8</speed>
<temp>0.00</temp>
<bpm>0</bpm>
<rpm>0.00</rpm>
</extensions>
</trkpt>
<trkpt lat="63.864074707" lon="-22.034763336">
<ele>100.654297</ele>
<time>2012-07-28T16:37:41Z</time>
<speed>2.970000</speed>
<extensions>
<speed>3.0</speed>
<temp>0.00</temp>
<bpm>0</bpm>
<rpm>0.00</rpm>
</extensions>
</trkpt>
<trkpt lat="63.864154816" lon="-22.034980774">
<ele>99.037109</ele>
<time>2012-07-28T16:37:46Z</time>
<speed>2.930000</speed>
<extensions>
<speed>2.9</speed>
<temp>0.00</temp>
<bpm>0</bpm>
<rpm>0.00</rpm>
</extensions>
</trkpt>
<trkpt lat="63.864227295" lon="-22.035202026">
<ele>98.023438</ele>
<time>2012-07-28T16:37:51Z</time>
<speed>2.790000</speed>
<extensions>
<speed>2.8</speed>
<temp>0.00</temp>
<bpm>0</bpm>
<rpm>0.00</rpm>
</extensions>
</trkpt>
<trkpt lat="63.864307404" lon="-22.035438538">
<ele>97.738281</ele>
<time>2012-07-28T16:37:56Z</time>
<speed>2.970000</speed>
<extensions>
<speed>3.0</speed>
<temp>0.00</temp>
<bpm>0</bpm>
<rpm>0.00</rpm>
</extensions>
</trkpt>
<trkpt lat="63.864383698" lon="-22.035675049">
<ele>99.250000</ele>
<time>2012-07-28T16:38:01Z</time>
<speed>2.780000</speed>
<extensions>
<speed>2.8</speed>
<temp>0.00</temp>
<bpm>0</bpm>
<rpm>0.00</rpm>
</extensions>
</trkpt>
<trkpt lat="63.864459991" lon="-22.035898209">
<ele>99.990234</ele>
<time>2012-07-28T16:38:06Z</time>
<speed>2.710000</speed>
<extensions>
<speed>2.7</speed>
<temp>0.00</temp>
<bpm>0</bpm>
<rpm>0.00</rpm>
</extensions>
</trkpt>
<trkpt lat="63.864532471" lon="-22.036115646">
<ele>99.419922</ele>
<time>2012-07-28T16:38:11Z</time>
<speed>2.950000</speed>
<extensions>
<speed>2.9</speed>
<temp>0.00</temp>
<bpm>0</bpm>
<rpm>0.00</rpm>
</extensions>
</trkpt>
<trkpt lat="63.864620209" lon="-22.036355972">
<ele>99.724609</ele>
<time>2012-07-28T16:38:16Z</time>
<speed>2.900000</speed>
<extensions>
<speed>2.9</speed>
<temp>0.00</temp>
<bpm>0</bpm>
<rpm>0.00</rpm>
</extensions>
</trkpt>
<trkpt lat="63.864700317" lon="-22.036600113">
<ele>100.021484</ele>
<time>2012-07-28T16:38:21Z</time>
<speed>2.700000</speed>
<extensions>
<speed>2.7</speed>
<temp>0.00</temp>
<bpm>0</bpm>
<rpm>0.00</rpm>
</extensions>
</trkpt>
<trkpt lat="63.864772797" lon="-22.036836624">
<ele>100.146484</ele>
<time>2012-07-28T16:38:26Z</time>
<speed>2.750000</speed>
<extensions>
<speed>2.7</speed>
<temp>0.00</temp>
<bpm>0</bpm>
<rpm>0.00</rpm>
</extensions>
</trkpt>
<trkpt lat="63.864860535" lon="-22.037061691">
<ele>99.755859</ele>
<time>2012-07-28T16:38:31Z</time>
<speed>2.930000</speed>
<extensions>
<speed>2.9</speed>
<temp>0.00</temp>
<bpm>0</bpm>
<rpm>0.00</rpm>
</extensions>
</trkpt>
<trkpt lat="63.864936829" lon="-22.037343979">
<ele>101.804688</ele>
<time>2012-07-28T16:38:36Z</time>
<speed>3.080000</speed>
<extensions>
<speed>3.1</speed>
<temp>0.00</temp>
<bpm>0</bpm>
<rpm>0.00</rpm>
</extensions>
</trkpt>
<trkpt lat="63.865028381" lon="-22.037572861">
<ele>101.833984</ele>
<time>2012-07-28T16:38:41Z</time>
<speed>3.000000</speed>
<extensions>
<speed>3.0</speed>
<temp>0.00</temp>
<bpm>0</bpm>
<rpm>0.00</rpm>
</extensions>
</trkpt>
<trkpt lat="63.865108490" lon="-22.037817001">
<ele>102.054688</ele>
<time>2012-07-28T16:38:46Z</time>
<speed>2.840000</speed>
<extensions>
<speed>2.8</speed>
<temp>0.00</temp>
<bpm>0</bpm>
<rpm>0.00</rpm>
</extensions>
</trkpt>
<trkpt lat="63.865184784" lon="-22.038055420">
<ele>103.369141</ele>
<time>2012-07-28T16:38:51Z</time>
<speed>3.020000</speed>
<extensions>
<speed>3.0</speed>
<temp>0.00</temp>
<bpm>0</bpm>
<rpm>0.00</rpm>
</extensions>
</trkpt>
<trkpt lat="63.865268707" lon="-22.038263321">
<ele>103.333984</ele>
<time>2012-07-28T16:38:56Z</time>
<speed>2.690000</speed>
<extensions>
<speed>2.7</speed>
<temp>0.00</temp>
<bpm>0</bpm>
<rpm>0.00</rpm>
</extensions>
</trkpt>
<trkpt lat="63.865341187" lon="-22.038488388">
<ele>106.472656</ele>
<time>2012-07-28T16:39:01Z</time>
<speed>2.600000</speed>
<extensions>
<speed>2.6</speed>
<temp>0.00</temp>
<bpm>0</bpm>
<rpm>0.00</rpm>
</extensions>
</trkpt>
<trkpt lat="63.865402222" lon="-22.038707733">
<ele>106.886719</ele>
<time>2012-07-28T16:39:06Z</time>
<speed>2.890000</speed>
<extensions>
<speed>2.9</speed>
<temp>0.00</temp>
<bpm>0</bpm>
<rpm>0.00</rpm>
</extensions>
</trkpt>
<trkpt lat="63.865482330" lon="-22.038919449">
<ele>106.710938</ele>
<time>2012-07-28T16:39:11Z</time>
<speed>2.680000</speed>
<extensions>
<speed>2.7</speed>
<temp>0.00</temp>
<bpm>0</bpm>
<rpm>0.00</rpm>
</extensions>
</trkpt>
<trkpt lat="63.865558624" lon="-22.039169312">
<ele>106.871094</ele>
<time>2012-07-28T16:39:16Z</time>
<speed>3.020000</speed>
<extensions>
<speed>3.0</speed>
<temp>0.00</temp>
<bpm>0</bpm>
<rpm>0.00</rpm>
</extensions>
</trkpt>
<trkpt lat="63.865646362" lon="-22.039430618">
<ele>106.884766</ele>
<time>2012-07-28T16:39:21Z</time>
<speed>3.260000</speed>
<extensions>
<speed>3.3</speed>
<temp>0.00</temp>
<bpm>0</bpm>
<rpm>0.00</rpm>
</extensions>
</trkpt>
<trkpt lat="63.865722656" lon="-22.039661407">
<ele>106.548828</ele>
<time>2012-07-28T16:39:26Z</time>
<speed>2.970000</speed>
<extensions>
<speed>3.0</speed>
<temp>0.00</temp>
<bpm>0</bpm>
<rpm>0.00</rpm>
</extensions>
</trkpt>
<trkpt lat="63.865810394" lon="-22.039916992">
<ele>106.648438</ele>
<time>2012-07-28T16:39:31Z</time>
<speed>3.040000</speed>
<extensions>
<speed>3.0</speed>
<temp>0.00</temp>
<bpm>0</bpm>
<rpm>0.00</rpm>
</extensions>
</trkpt>
<trkpt lat="63.865894318" lon="-22.040170670">
<ele>106.876953</ele>
<time>2012-07-28T16:39:36Z</time>
<speed>3.050000</speed>
<extensions>
<speed>3.0</speed>
<temp>0.00</temp>
<bpm>0</bpm>
<rpm>0.00</rpm>
</extensions>
</trkpt>
<trkpt lat="63.865974426" lon="-22.040416718">
<ele>107.470703</ele>
<time>2012-07-28T16:39:41Z</time>
<speed>2.910000</speed>
<extensions>
<speed>2.9</speed>
<temp>0.00</temp>
<bpm>0</bpm>
<rpm>0.00</rpm>
</extensions>
</trkpt>
<trkpt lat="63.866050720" lon="-22.040670395">
<ele>107.763672</ele>
<time>2012-07-28T16:39:46Z</time>
<speed>2.730000</speed>
<extensions>
<speed>2.7</speed>
<temp>0.00</temp>
<bpm>0</bpm>
<rpm>0.00</rpm>
</extensions>
</trkpt>
<trkpt lat="63.866119385" lon="-22.040912628">
<ele>107.902344</ele>
<time>2012-07-28T16:39:51Z</time>
<speed>2.990000</speed>
<extensions>
<speed>3.0</speed>
<temp>0.00</temp>
<bpm>0</bpm>
<rpm>0.00</rpm>
</extensions>
</trkpt>
<trkpt lat="63.866188049" lon="-22.041139603">
<ele>107.685547</ele>
<time>2012-07-28T16:39:56Z</time>
<speed>3.000000</speed>
<extensions>
<speed>3.0</speed>
<temp>0.00</temp>
<bpm>0</bpm>
<rpm>0.00</rpm>
</extensions>
</trkpt>
<trkpt lat="63.866275787" lon="-22.041399002">
<ele>107.613281</ele>
<time>2012-07-28T16:40:01Z</time>
<speed>3.280000</speed>
<extensions>
<speed>3.3</speed>
<temp>0.00</temp>
<bpm>0</bpm>
<rpm>0.00</rpm>
</extensions>
</trkpt>
<trkpt lat="63.866374969" lon="-22.041673660">
<ele>107.695313</ele>
<time>2012-07-28T16:40:06Z</time>
<speed>3.500000</speed>
<extensions>
<speed>3.5</speed>
<temp>0.00</temp>
<bpm>0</bpm>
<rpm>0.00</rpm>
</extensions>
</trkpt>
<trkpt lat="63.866466522" lon="-22.041950226">
<ele>107.814453</ele>
<time>2012-07-28T16:40:11Z</time>
<speed>3.260000</speed>
<extensions>
<speed>3.3</speed>
<temp>0.00</temp>
<bpm>0</bpm>
<rpm>0.00</rpm>
</extensions>
</trkpt>
<trkpt lat="63.866554260" lon="-22.042211533">
<ele>107.904297</ele>
<time>2012-07-28T16:40:16Z</time>
<speed>3.260000</speed>
<extensions>
<speed>3.3</speed>
<temp>0.00</temp>
<bpm>0</bpm>
<rpm>0.00</rpm>
</extensions>
</trkpt>
<trkpt lat="63.866641998" lon="-22.042478561">
<ele>108.074219</ele>
<time>2012-07-28T16:40:21Z</time>
<speed>3.190000</speed>
<extensions>
<speed>3.2</speed>
<temp>0.00</temp>
<bpm>0</bpm>
<rpm>0.00</rpm>
</extensions>
</trkpt>
<trkpt lat="63.866729736" lon="-22.042732239">
<ele>108.128906</ele>
<time>2012-07-28T16:40:26Z</time>
<speed>3.220000</speed>
<extensions>
<speed>3.2</speed>
<temp>0.00</temp>
<bpm>0</bpm>
<rpm>0.00</rpm>
</extensions>
</trkpt>
<trkpt lat="63.866821289" lon="-22.043001175">
<ele>108.494141</ele>
<time>2012-07-28T16:40:31Z</time>
<speed>3.330000</speed>
<extensions>
<speed>3.3</speed>
<temp>0.00</temp>
<bpm>0</bpm>
<rpm>0.00</rpm>
</extensions>
</trkpt>
<trkpt lat="63.866909027" lon="-22.043262482">
<ele>108.730469</ele>
<time>2012-07-28T16:40:36Z</time>
<speed>3.050000</speed>
<extensions>
<speed>3.0</speed>
<temp>0.00</temp>
<bpm>0</bpm>
<rpm>0.00</rpm>
</extensions>
</trkpt>
<trkpt lat="63.866992950" lon="-22.043504715">
<ele>109.224609</ele>
<time>2012-07-28T16:40:41Z</time>
<speed>2.880000</speed>
<extensions>
<speed>2.9</speed>
<temp>0.00</temp>
<bpm>0</bpm>
<rpm>0.00</rpm>
</extensions>
</trkpt>
<trkpt lat="63.867073059" lon="-22.043727875">
<ele>110.029297</ele>
<time>2012-07-28T16:40:46Z</time>
<speed>2.790000</speed>
<extensions>
<speed>2.8</speed>
<temp>0.00</temp>
<bpm>0</bpm>
<rpm>0.00</rpm>
</extensions>
</trkpt>
<trkpt lat="63.867137909" lon="-22.043945313">
<ele>109.630859</ele>
<time>2012-07-28T16:40:51Z</time>
<speed>2.620000</speed>
<extensions>
<speed>2.6</speed>
<temp>0.00</temp>
<bpm>0</bpm>
<rpm>0.00</rpm>
</extensions>
</trkpt>
<trkpt lat="63.867210388" lon="-22.044153214">
<ele>110.164063</ele>
<time>2012-07-28T16:40:56Z</time>
<speed>2.730000</speed>
<extensions>
<speed>2.7</speed>
<temp>0.00</temp>
<bpm>0</bpm>
<rpm>0.00</rpm>
</extensions>
</trkpt>
<trkpt lat="63.867279053" lon="-22.044374466">
<ele>110.869141</ele>
<time>2012-07-28T16:41:01Z</time>
<speed>2.410000</speed>
<extensions>
<speed>2.4</speed>
<temp>0.00</temp>
<bpm>0</bpm>
<rpm>0.00</rpm>
</extensions>
</trkpt>
<trkpt lat="63.867321014" lon="-22.044540405">
<ele>111.199219</ele>
<time>2012-07-28T16:41:06Z</time>
<speed>1.690000</speed>
<extensions>
<speed>1.7</speed>
<temp>0.00</temp>
<bpm>0</bpm>
<rpm>0.00</rpm>
</extensions>
</trkpt>
<trkpt lat="63.867393494" lon="-22.044708252">
<ele>111.710938</ele>
<time>2012-07-28T16:41:11Z</time>
<speed>2.070000</speed>
<extensions>
<speed>2.1</speed>
<temp>0.00</temp>
<bpm>0</bpm>
<rpm>0.00</rpm>
</extensions>
</trkpt>
<trkpt lat="63.867454529" lon="-22.044874191">
<ele>111.917969</ele>
<time>2012-07-28T16:41:16Z</time>
<speed>2.240000</speed>
<extensions>
<speed>2.2</speed>
<temp>0.00</temp>
<bpm>0</bpm>
<rpm>0.00</rpm>
</extensions>
</trkpt>
<trkpt lat="63.867515564" lon="-22.045045853">
<ele>112.880859</ele>
<time>2012-07-28T16:41:21Z</time>
<speed>1.970000</speed>
<extensions>
<speed>2.0</speed>
<temp>0.00</temp>
<bpm>0</bpm>
<rpm>0.00</rpm>
</extensions>
</trkpt>
<trkpt lat="63.867572784" lon="-22.045219421">
<ele>112.830078</ele>
<time>2012-07-28T16:41:26Z</time>
<speed>1.460000</speed>
<extensions>
<speed>1.5</speed>
<temp>0.00</temp>
<bpm>0</bpm>
<rpm>0.00</rpm>
</extensions>
</trkpt>
<trkpt lat="63.867626190" lon="-22.045406342">
<ele>113.035156</ele>
<time>2012-07-28T16:41:31Z</time>
<speed>2.220000</speed>
<extensions>
<speed>2.2</speed>
<temp>0.00</temp>
<bpm>0</bpm>
<rpm>0.00</rpm>
</extensions>
</trkpt>
<trkpt lat="63.867691040" lon="-22.045581818">
<ele>113.740234</ele>
<time>2012-07-28T16:41:36Z</time>
<speed>2.200000</speed>
<extensions>
<speed>2.2</speed>
<temp>0.00</temp>
<bpm>0</bpm>
<rpm>0.00</rpm>
</extensions>
</trkpt>
<trkpt lat="63.867759705" lon="-22.045751572">
<ele>114.017578</ele>
<time>2012-07-28T16:41:41Z</time>
<speed>2.040000</speed>
<extensions>
<speed>2.0</speed>
<temp>0.00</temp>
<bpm>0</bpm>
<rpm>0.00</rpm>
</extensions>
</trkpt>
<trkpt lat="63.867809296" lon="-22.045906067">
<ele>114.679688</ele>
<time>2012-07-28T16:41:46Z</time>
<speed>1.710000</speed>
<extensions>
<speed>1.7</speed>
<temp>0.00</temp>
<bpm>0</bpm>
<rpm>0.00</rpm>
</extensions>
</trkpt>
<trkpt lat="63.867866516" lon="-22.046045303">
<ele>115.404297</ele>
<time>2012-07-28T16:41:51Z</time>
<speed>1.950000</speed>
<extensions>
<speed>1.9</speed>
<temp>0.00</temp>
<bpm>0</bpm>
<rpm>0.00</rpm>
</extensions>
</trkpt>
<trkpt lat="63.867916107" lon="-22.046213150">
<ele>115.642578</ele>
<time>2012-07-28T16:41:56Z</time>
<speed>1.800000</speed>
<extensions>
<speed>1.8</speed>
<temp>0.00</temp>
<bpm>0</bpm>
<rpm>0.00</rpm>
</extensions>
</trkpt>
<trkpt lat="63.867980957" lon="-22.046360016">
<ele>116.312500</ele>
<time>2012-07-28T16:42:01Z</time>
<speed>2.030000</speed>
<extensions>
<speed>2.0</speed>
<temp>0.00</temp>
<bpm>0</bpm>
<rpm>0.00</rpm>
</extensions>
</trkpt>
<trkpt lat="63.868038177" lon="-22.046487808">
<ele>117.015625</ele>
<time>2012-07-28T16:42:06Z</time>
<speed>1.860000</speed>
<extensions>
<speed>1.9</speed>
<temp>0.00</temp>
<bpm>0</bpm>
<rpm>0.00</rpm>
</extensions>
</trkpt>
<trkpt lat="63.868103027" lon="-22.046642303">
<ele>117.046875</ele>
<time>2012-07-28T16:42:11Z</time>
<speed>1.920000</speed>
<extensions>
<speed>1.9</speed>
<temp>0.00</temp>
<bpm>0</bpm>
<rpm>0.00</rpm>
</extensions>
</trkpt>
<trkpt lat="63.868160248" lon="-22.046758652">
<ele>117.443359</ele>
<time>2012-07-28T16:42:16Z</time>
<speed>1.270000</speed>
<extensions>
<speed>1.3</speed>
<temp>0.00</temp>
<bpm>0</bpm>
<rpm>0.00</rpm>
</extensions>
</trkpt>
<trkpt lat="63.868221283" lon="-22.046916962">
<ele>118.146484</ele>
<time>2012-07-28T16:42:21Z</time>
<speed>2.180000</speed>
<extensions>
<speed>2.2</speed>
<temp>0.00</temp>
<bpm>0</bpm>
<rpm>0.00</rpm>
</extensions>
</trkpt>
<trkpt lat="63.868278503" lon="-22.047037125">
<ele>118.601563</ele>
<time>2012-07-28T16:42:26Z</time>
<speed>1.650000</speed>
<extensions>
<speed>1.7</speed>
<temp>0.00</temp>
<bpm>0</bpm>
<rpm>0.00</rpm>
</extensions>
</trkpt>
<trkpt lat="63.868324280" lon="-22.047130585">
<ele>118.951172</ele>
<time>2012-07-28T16:42:31Z</time>
<speed>1.900000</speed>
<extensions>
<speed>1.9</speed>
<temp>0.00</temp>
<bpm>0</bpm>
<rpm>0.00</rpm>
</extensions>
</trkpt>
<trkpt lat="63.868392944" lon="-22.047248840">
<ele>119.214844</ele>
<time>2012-07-28T16:42:36Z</time>
<speed>1.860000</speed>
<extensions>
<speed>1.9</speed>
<temp>0.00</temp>
<bpm>0</bpm>
<rpm>0.00</rpm>
</extensions>
</trkpt>
<trkpt lat="63.868461609" lon="-22.047369003">
<ele>119.535156</ele>
<time>2012-07-28T16:42:41Z</time>
<speed>2.050000</speed>
<extensions>
<speed>2.1</speed>
<temp>0.00</temp>
<bpm>0</bpm>
<rpm>0.00</rpm>
</extensions>
</trkpt>
<trkpt lat="63.868534088" lon="-22.047513962">
<ele>119.898438</ele>
<time>2012-07-28T16:42:46Z</time>
<speed>2.260000</speed>
<extensions>
<speed>2.3</speed>
<temp>0.00</temp>
<bpm>0</bpm>
<rpm>0.00</rpm>
</extensions>
</trkpt>
<trkpt lat="63.868610382" lon="-22.047634125">
<ele>120.152344</ele>
<time>2012-07-28T16:42:51Z</time>
<speed>2.120000</speed>
<extensions>
<speed>2.1</speed>
<temp>0.00</temp>
<bpm>0</bpm>
<rpm>0.00</rpm>
</extensions>
</trkpt>
<trkpt lat="63.868690491" lon="-22.047748566">
<ele>120.738281</ele>
<time>2012-07-28T16:42:56Z</time>
<speed>1.950000</speed>
<extensions>
<speed>1.9</speed>
<temp>0.00</temp>
<bpm>0</bpm>
<rpm>0.00</rpm>
</extensions>
</trkpt>
<trkpt lat="63.868762970" lon="-22.047861099">
<ele>120.984375</ele>
<time>2012-07-28T16:43:01Z</time>
<speed>2.140000</speed>
<extensions>
<speed>2.1</speed>
<temp>0.00</temp>
<bpm>0</bpm>
<rpm>0.00</rpm>
</extensions>
</trkpt>
<trkpt lat="63.868835449" lon="-22.047983170">
<ele>121.828125</ele>
<time>2012-07-28T16:43:06Z</time>
<speed>2.150000</speed>
<extensions>
<speed>2.1</speed>
<temp>0.00</temp>
<bpm>0</bpm>
<rpm>0.00</rpm>
</extensions>
</trkpt>
<trkpt lat="63.868919373" lon="-22.048110962">
<ele>122.457031</ele>
<time>2012-07-28T16:43:11Z</time>
<speed>2.300000</speed>
<extensions>
<speed>2.3</speed>
<temp>0.00</temp>
<bpm>0</bpm>
<rpm>0.00</rpm>
</extensions>
</trkpt>
<trkpt lat="63.869014740" lon="-22.048233032">
<ele>123.105469</ele>
<time>2012-07-28T16:43:16Z</time>
<speed>2.270000</speed>
<extensions>
<speed>2.3</speed>
<temp>0.00</temp>
<bpm>0</bpm>
<rpm>0.00</rpm>
</extensions>
</trkpt>
<trkpt lat="63.869098663" lon="-22.048341751">
<ele>123.423828</ele>
<time>2012-07-28T16:43:21Z</time>
<speed>2.160000</speed>
<extensions>
<speed>2.2</speed>
<temp>0.00</temp>
<bpm>0</bpm>
<rpm>0.00</rpm>
</extensions>
</trkpt>
<trkpt lat="63.869182587" lon="-22.048425674">
<ele>123.587891</ele>
<time>2012-07-28T16:43:26Z</time>
<speed>2.160000</speed>
<extensions>
<speed>2.2</speed>
<temp>0.00</temp>
<bpm>0</bpm>
<rpm>0.00</rpm>
</extensions>
</trkpt>
<trkpt lat="63.869270325" lon="-22.048521042">
<ele>123.759766</ele>
<time>2012-07-28T16:43:31Z</time>
<speed>2.190000</speed>
<extensions>
<speed>2.2</speed>
<temp>0.00</temp>
<bpm>0</bpm>
<rpm>0.00</rpm>
</extensions>
</trkpt>
<trkpt lat="63.869358063" lon="-22.048614502">
<ele>124.308594</ele>
<time>2012-07-28T16:43:36Z</time>
<speed>2.130000</speed>
<extensions>
<speed>2.1</speed>
<temp>0.00</temp>
<bpm>0</bpm>
<rpm>0.00</rpm>
</extensions>
</trkpt>
<trkpt lat="63.869449615" lon="-22.048704147">
<ele>124.353516</ele>
<time>2012-07-28T16:43:41Z</time>
<speed>2.010000</speed>
<extensions>
<speed>2.0</speed>
<temp>0.00</temp>
<bpm>0</bpm>
<rpm>0.00</rpm>
</extensions>
</trkpt>
<trkpt lat="63.869510651" lon="-22.048789978">
<ele>125.320313</ele>
<time>2012-07-28T16:43:46Z</time>
<speed>1.910000</speed>
<extensions>
<speed>1.9</speed>
<temp>0.00</temp>
<bpm>0</bpm>
<rpm>0.00</rpm>
</extensions>
</trkpt>
<trkpt lat="63.869606018" lon="-22.048854828">
<ele>126.041016</ele>
<time>2012-07-28T16:43:51Z</time>
<speed>2.350000</speed>
<extensions>
<speed>2.4</speed>
<temp>0.00</temp>
<bpm>0</bpm>
<rpm>0.00</rpm>
</extensions>
</trkpt>
<trkpt lat="63.869705200" lon="-22.048950195">
<ele>125.623047</ele>
<time>2012-07-28T16:43:56Z</time>
<speed>2.430000</speed>
<extensions>
<speed>2.4</speed>
<temp>0.00</temp>
<bpm>0</bpm>
<rpm>0.00</rpm>
</extensions>
</trkpt>
<trkpt lat="63.869819641" lon="-22.049053192">
<ele>124.953125</ele>
<time>2012-07-28T16:44:01Z</time>
<speed>2.500000</speed>
<extensions>
<speed>2.5</speed>
<temp>0.00</temp>
<bpm>0</bpm>
<rpm>0.00</rpm>
</extensions>
</trkpt>
<trkpt lat="63.869926453" lon="-22.049131393">
<ele>125.707031</ele>
<time>2012-07-28T16:44:06Z</time>
<speed>2.520000</speed>
<extensions>
<speed>2.5</speed>
<temp>0.00</temp>
<bpm>0</bpm>
<rpm>0.00</rpm>
</extensions>
</trkpt>
<trkpt lat="63.870033264" lon="-22.049219131">
<ele>126.037109</ele>
<time>2012-07-28T16:44:11Z</time>
<speed>2.620000</speed>
<extensions>
<speed>2.6</speed>
<temp>0.00</temp>
<bpm>0</bpm>
<rpm>0.00</rpm>
</extensions>
</trkpt>
<trkpt lat="63.870147705" lon="-22.049299240">
<ele>127.302734</ele>
<time>2012-07-28T16:44:16Z</time>
<speed>2.870000</speed>
<extensions>
<speed>2.9</speed>
<temp>0.00</temp>
<bpm>0</bpm>
<rpm>0.00</rpm>
</extensions>
</trkpt>
<trkpt lat="63.870273590" lon="-22.049375534">
<ele>127.757813</ele>
<time>2012-07-28T16:44:21Z</time>
<speed>2.710000</speed>
<extensions>
<speed>2.7</speed>
<temp>0.00</temp>
<bpm>0</bpm>
<rpm>0.00</rpm>
</extensions>
</trkpt>
<trkpt lat="63.870403290" lon="-22.049440384">
<ele>127.169922</ele>
<time>2012-07-28T16:44:26Z</time>
<speed>3.000000</speed>
<extensions>
<speed>3.0</speed>
<temp>0.00</temp>
<bpm>0</bpm>
<rpm>0.00</rpm>
</extensions>
</trkpt>
<trkpt lat="63.870536804" lon="-22.049543381">
<ele>127.816406</ele>
<time>2012-07-28T16:44:31Z</time>
<speed>3.250000</speed>
<extensions>
<speed>3.2</speed>
<temp>0.00</temp>
<bpm>0</bpm>
<rpm>0.00</rpm>
</extensions>
</trkpt>
<trkpt lat="63.870685577" lon="-22.049631119">
<ele>128.367188</ele>
<time>2012-07-28T16:44:36Z</time>
<speed>3.590000</speed>
<extensions>
<speed>3.6</speed>
<temp>0.00</temp>
<bpm>0</bpm>
<rpm>0.00</rpm>
</extensions>
</trkpt>
<trkpt lat="63.870838165" lon="-22.049713135">
<ele>127.935547</ele>
<time>2012-07-28T16:44:41Z</time>
<speed>3.330000</speed>
<extensions>
<speed>3.3</speed>
<temp>0.00</temp>
<bpm>0</bpm>
<rpm>0.00</rpm>
</extensions>
</trkpt>
<trkpt lat="63.870983124" lon="-22.049818039">
<ele>127.250000</ele>
<time>2012-07-28T16:44:46Z</time>
<speed>3.430000</speed>
<extensions>
<speed>3.4</speed>
<temp>0.00</temp>
<bpm>0</bpm>
<rpm>0.00</rpm>
</extensions>
</trkpt>
<trkpt lat="63.871139526" lon="-22.049919128">
<ele>129.355469</ele>
<time>2012-07-28T16:44:51Z</time>
<speed>3.570000</speed>
<extensions>
<speed>3.6</speed>
<temp>0.00</temp>
<bpm>0</bpm>
<rpm>0.00</rpm>
</extensions>
</trkpt>
<trkpt lat="63.871288300" lon="-22.050031662">
<ele>129.855469</ele>
<time>2012-07-28T16:44:56Z</time>
<speed>3.350000</speed>
<extensions>
<speed>3.4</speed>
<temp>0.00</temp>
<bpm>0</bpm>
<rpm>0.00</rpm>
</extensions>
</trkpt>
<trkpt lat="63.871421814" lon="-22.050119400">
<ele>130.070313</ele>
<time>2012-07-28T16:45:01Z</time>
<speed>2.980000</speed>
<extensions>
<speed>3.0</speed>
<temp>0.00</temp>
<bpm>0</bpm>
<rpm>0.00</rpm>
</extensions>
</trkpt>
<trkpt lat="63.871551514" lon="-22.050212860">
<ele>128.894531</ele>
<time>2012-07-28T16:45:06Z</time>
<speed>3.240000</speed>
<extensions>
<speed>3.2</speed>
<temp>0.00</temp>
<bpm>0</bpm>
<rpm>0.00</rpm>
</extensions>
</trkpt>
<trkpt lat="63.871685028" lon="-22.050306320">
<ele>128.578125</ele>
<time>2012-07-28T16:45:11Z</time>
<speed>3.050000</speed>
<extensions>
<speed>3.0</speed>
<temp>0.00</temp>
<bpm>0</bpm>
<rpm>0.00</rpm>
</extensions>
</trkpt>
<trkpt lat="63.871810913" lon="-22.050405502">
<ele>129.382813</ele>
<time>2012-07-28T16:45:16Z</time>
<speed>3.280000</speed>
<extensions>
<speed>3.3</speed>
<temp>0.00</temp>
<bpm>0</bpm>
<rpm>0.00</rpm>
</extensions>
</trkpt>
<trkpt lat="63.871948242" lon="-22.050512314">
<ele>128.554688</ele>
<time>2012-07-28T16:45:21Z</time>
<speed>3.230000</speed>
<extensions>
<speed>3.2</speed>
<temp>0.00</temp>
<bpm>0</bpm>
<rpm>0.00</rpm>
</extensions>
</trkpt>
<trkpt lat="63.872085571" lon="-22.050617218">
<ele>128.394531</ele>
<time>2012-07-28T16:45:26Z</time>
<speed>3.000000</speed>
<extensions>
<speed>3.0</speed>
<temp>0.00</temp>
<bpm>0</bpm>
<rpm>0.00</rpm>
</extensions>
</trkpt>
<trkpt lat="63.872211456" lon="-22.050710678">
<ele>127.865234</ele>
<time>2012-07-28T16:45:31Z</time>
<speed>3.060000</speed>
<extensions>
<speed>3.1</speed>
<temp>0.00</temp>
<bpm>0</bpm>
<rpm>0.00</rpm>
</extensions>
</trkpt>
<trkpt lat="63.872341156" lon="-22.050800323">
<ele>127.912109</ele>
<time>2012-07-28T16:45:36Z</time>
<speed>2.990000</speed>
<extensions>
<speed>3.0</speed>
<temp>0.00</temp>
<bpm>0</bpm>
<rpm>0.00</rpm>
</extensions>
</trkpt>
<trkpt lat="63.872459412" lon="-22.050907135">
<ele>129.179688</ele>
<time>2012-07-28T16:45:41Z</time>
<speed>2.630000</speed>
<extensions>
<speed>2.6</speed>
<temp>0.00</temp>
<bpm>0</bpm>
<rpm>0.00</rpm>
</extensions>
</trkpt>
<trkpt lat="63.872573853" lon="-22.050973892">
<ele>128.742188</ele>
<time>2012-07-28T16:45:46Z</time>
<speed>2.730000</speed>
<extensions>
<speed>2.7</speed>
<temp>0.00</temp>
<bpm>0</bpm>
<rpm>0.00</rpm>
</extensions>
</trkpt>
<trkpt lat="63.872684479" lon="-22.051092148">
<ele>128.742188</ele>
<time>2012-07-28T16:45:51Z</time>
<speed>2.640000</speed>
<extensions>
<speed>2.6</speed>
<temp>0.00</temp>
<bpm>0</bpm>
<rpm>0.00</rpm>
</extensions>
</trkpt>
<trkpt lat="63.872802734" lon="-22.051158905">
<ele>128.687500</ele>
<time>2012-07-28T16:45:56Z</time>
<speed>2.720000</speed>
<extensions>
<speed>2.7</speed>
<temp>0.00</temp>
<bpm>0</bpm>
<rpm>0.00</rpm>
</extensions>
</trkpt>
<trkpt lat="63.872920990" lon="-22.051250458">
<ele>127.087891</ele>
<time>2012-07-28T16:46:01Z</time>
<speed>2.440000</speed>
<extensions>
<speed>2.4</speed>
<temp>0.00</temp>
<bpm>0</bpm>
<rpm>0.00</rpm>
</extensions>
</trkpt>
<trkpt lat="63.873031616" lon="-22.051326752">
<ele>129.781250</ele>
<time>2012-07-28T16:46:06Z</time>
<speed>2.590000</speed>
<extensions>
<speed>2.6</speed>
<temp>0.00</temp>
<bpm>0</bpm>
<rpm>0.00</rpm>
</extensions>
</trkpt>
<trkpt lat="63.873138428" lon="-22.051404953">
<ele>128.332031</ele>
<time>2012-07-28T16:46:11Z</time>
<speed>2.470000</speed>
<extensions>
<speed>2.5</speed>
<temp>0.00</temp>
<bpm>0</bpm>
<rpm>0.00</rpm>
</extensions>
</trkpt>
<trkpt lat="63.873260498" lon="-22.051498413">
<ele>127.248047</ele>
<time>2012-07-28T16:46:16Z</time>
<speed>3.000000</speed>
<extensions>
<speed>3.0</speed>
<temp>0.00</temp>
<bpm>0</bpm>
<rpm>0.00</rpm>
</extensions>
</trkpt>
<trkpt lat="63.873382568" lon="-22.051618576">
<ele>128.601563</ele>
<time>2012-07-28T16:46:21Z</time>
<speed>2.750000</speed>
<extensions>
<speed>2.7</speed>
<temp>0.00</temp>
<bpm>0</bpm>
<rpm>0.00</rpm>
</extensions>
</trkpt>
<trkpt lat="63.873489380" lon="-22.051721573">
<ele>127.876953</ele>
<time>2012-07-28T16:46:26Z</time>
<speed>2.420000</speed>
<extensions>
<speed>2.4</speed>
<temp>0.00</temp>
<bpm>0</bpm>
<rpm>0.00</rpm>
</extensions>
</trkpt>
<trkpt lat="63.873596191" lon="-22.051799774">
<ele>128.113281</ele>
<time>2012-07-28T16:46:31Z</time>
<speed>2.570000</speed>
<extensions>
<speed>2.6</speed>
<temp>0.00</temp>
<bpm>0</bpm>
<rpm>0.00</rpm>
</extensions>
</trkpt>
<trkpt lat="63.873703003" lon="-22.051889420">
<ele>128.617188</ele>
<time>2012-07-28T16:46:36Z</time>
<speed>2.540000</speed>
<extensions>
<speed>2.5</speed>
<temp>0.00</temp>
<bpm>0</bpm>
<rpm>0.00</rpm>
</extensions>
</trkpt>
<trkpt lat="63.873798370" lon="-22.051969528">
<ele>129.359375</ele>
<time>2012-07-28T16:46:41Z</time>
<speed>1.920000</speed>
<extensions>
<speed>1.9</speed>
<temp>0.00</temp>
<bpm>0</bpm>
<rpm>0.00</rpm>
</extensions>
</trkpt>
<trkpt lat="63.873882294" lon="-22.052057266">
<ele>130.484375</ele>
<time>2012-07-28T16:46:46Z</time>
<speed>1.970000</speed>
<extensions>
<speed>2.0</speed>
<temp>0.00</temp>
<bpm>0</bpm>
<rpm>0.00</rpm>
</extensions>
</trkpt>
<trkpt lat="63.873973846" lon="-22.052120209">
<ele>131.164063</ele>
<time>2012-07-28T16:46:51Z</time>
<speed>2.800000</speed>
<extensions>
<speed>2.8</speed>
<temp>0.00</temp>
<bpm>0</bpm>
<rpm>0.00</rpm>
</extensions>
</trkpt>
<trkpt lat="63.874099731" lon="-22.052242279">
<ele>132.781250</ele>
<time>2012-07-28T16:46:56Z</time>
<speed>3.030000</speed>
<extensions>
<speed>3.0</speed>
<temp>0.00</temp>
<bpm>0</bpm>
<rpm>0.00</rpm>
</extensions>
</trkpt>
<trkpt lat="63.874198914" lon="-22.052326202">
<ele>134.117188</ele>
<time>2012-07-28T16:47:01Z</time>
<speed>2.600000</speed>
<extensions>
<speed>2.6</speed>
<temp>0.00</temp>
<bpm>0</bpm>
<rpm>0.00</rpm>
</extensions>
</trkpt>
<trkpt lat="63.874298096" lon="-22.052370071">
<ele>133.406250</ele>
<time>2012-07-28T16:47:06Z</time>
<speed>1.820000</speed>
<extensions>
<speed>1.8</speed>
<temp>0.00</temp>
<bpm>0</bpm>
<rpm>0.00</rpm>
</extensions>
</trkpt>
<trkpt lat="63.874385834" lon="-22.052442551">
<ele>133.230469</ele>
<time>2012-07-28T16:47:11Z</time>
<speed>2.290000</speed>
<extensions>
<speed>2.3</speed>
<temp>0.00</temp>
<bpm>0</bpm>
<rpm>0.00</rpm>
</extensions>
</trkpt>
<trkpt lat="63.874485016" lon="-22.052486420">
<ele>132.652344</ele>
<time>2012-07-28T16:47:16Z</time>
<speed>2.300000</speed>
<extensions>
<speed>2.3</speed>
<temp>0.00</temp>
<bpm>0</bpm>
<rpm>0.00</rpm>
</extensions>
</trkpt>
<trkpt lat="63.874580383" lon="-22.052551270">
<ele>131.937500</ele>
<time>2012-07-28T16:47:21Z</time>
<speed>2.450000</speed>
<extensions>
<speed>2.4</speed>
<temp>0.00</temp>
<bpm>0</bpm>
<rpm>0.00</rpm>
</extensions>
</trkpt>
<trkpt lat="63.874679565" lon="-22.052625656">
<ele>130.929688</ele>
<time>2012-07-28T16:47:26Z</time>
<speed>2.120000</speed>
<extensions>
<speed>2.1</speed>
<temp>0.00</temp>
<bpm>0</bpm>
<rpm>0.00</rpm>
</extensions>
</trkpt>
<trkpt lat="63.874790192" lon="-22.052703857">
<ele>132.226563</ele>
<time>2012-07-28T16:47:31Z</time>
<speed>2.260000</speed>
<extensions>
<speed>2.3</speed>
<temp>0.00</temp>
<bpm>0</bpm>
<rpm>0.00</rpm>
</extensions>
</trkpt>
<trkpt lat="63.874893188" lon="-22.052791595">
<ele>134.234375</ele>
<time>2012-07-28T16:47:36Z</time>
<speed>2.100000</speed>
<extensions>
<speed>2.1</speed>
<temp>0.00</temp>
<bpm>0</bpm>
<rpm>0.00</rpm>
</extensions>
</trkpt>
<trkpt lat="63.874984741" lon="-22.052896500">
<ele>135.753906</ele>
<time>2012-07-28T16:47:41Z</time>
<speed>2.380000</speed>
<extensions>
<speed>2.4</speed>
<temp>0.00</temp>
<bpm>0</bpm>
<rpm>0.00</rpm>
</extensions>
</trkpt>
<trkpt lat="63.875080109" lon="-22.052967072">
<ele>135.019531</ele>
<time>2012-07-28T16:47:46Z</time>
<speed>2.360000</speed>
<extensions>
<speed>2.4</speed>
<temp>0.00</temp>
<bpm>0</bpm>
<rpm>0.00</rpm>
</extensions>
</trkpt>
<trkpt lat="63.875167847" lon="-22.053031921">
<ele>136.113281</ele>
<time>2012-07-28T16:47:51Z</time>
<speed>2.500000</speed>
<extensions>
<speed>2.5</speed>
<temp>0.00</temp>
<bpm>0</bpm>
<rpm>0.00</rpm>
</extensions>
</trkpt>
<trkpt lat="63.875278473" lon="-22.053138733">
<ele>136.714844</ele>
<time>2012-07-28T16:47:56Z</time>
<speed>2.280000</speed>
<extensions>
<speed>2.3</speed>
<temp>0.00</temp>
<bpm>0</bpm>
<rpm>0.00</rpm>
</extensions>
</trkpt>
<trkpt lat="63.875377655" lon="-22.053215027">
<ele>135.007813</ele>
<time>2012-07-28T16:48:01Z</time>
<speed>2.440000</speed>
<extensions>
<speed>2.4</speed>
<temp>0.00</temp>
<bpm>0</bpm>
<rpm>0.00</rpm>
</extensions>
</trkpt>
<trkpt lat="63.875476837" lon="-22.053300858">
<ele>134.187500</ele>
<time>2012-07-28T16:48:06Z</time>
<speed>2.350000</speed>
<extensions>
<speed>2.4</speed>
<temp>0.00</temp>
<bpm>0</bpm>
<rpm>0.00</rpm>
</extensions>
</trkpt>
<trkpt lat="63.875583649" lon="-22.053365707">
<ele>134.898438</ele>
<time>2012-07-28T16:48:11Z</time>
<speed>2.160000</speed>
<extensions>
<speed>2.2</speed>
<temp>0.00</temp>
<bpm>0</bpm>
<rpm>0.00</rpm>
</extensions>
</trkpt>
<trkpt lat="63.875667572" lon="-22.053434372">
<ele>133.148438</ele>
<time>2012-07-28T16:48:16Z</time>
<speed>1.960000</speed>
<extensions>
<speed>2.0</speed>
<temp>0.00</temp>
<bpm>0</bpm>
<rpm>0.00</rpm>
</extensions>
</trkpt>
<trkpt lat="63.875759125" lon="-22.053497314">
<ele>134.054688</ele>
<time>2012-07-28T16:48:21Z</time>
<speed>2.230000</speed>
<extensions>
<speed>2.2</speed>
<temp>0.00</temp>
<bpm>0</bpm>
<rpm>0.00</rpm>
</extensions>
</trkpt>
<trkpt lat="63.875854492" lon="-22.053550720">
<ele>134.125000</ele>
<time>2012-07-28T16:48:26Z</time>
<speed>2.660000</speed>
<extensions>
<speed>2.7</speed>
<temp>0.00</temp>
<bpm>0</bpm>
<rpm>0.00</rpm>
</extensions>
</trkpt>
<trkpt lat="63.875961304" lon="-22.053634644">
<ele>133.738281</ele>
<time>2012-07-28T16:48:31Z</time>
<speed>2.050000</speed>
<extensions>
<speed>2.1</speed>
<temp>0.00</temp>
<bpm>0</bpm>
<rpm>0.00</rpm>
</extensions>
</trkpt>
<trkpt lat="63.876064301" lon="-22.053705215">
<ele>134.683594</ele>
<time>2012-07-28T16:48:36Z</time>
<speed>2.570000</speed>
<extensions>
<speed>2.6</speed>
<temp>0.00</temp>
<bpm>0</bpm>
<rpm>0.00</rpm>
</extensions>
</trkpt>
<trkpt lat="63.876163483" lon="-22.053806305">
<ele>135.312500</ele>
<time>2012-07-28T16:48:41Z</time>
<speed>2.230000</speed>
<extensions>
<speed>2.2</speed>
<temp>0.00</temp>
<bpm>0</bpm>
<rpm>0.00</rpm>
</extensions>
</trkpt>
<trkpt lat="63.876262665" lon="-22.053884506">
<ele>135.273438</ele>
<time>2012-07-28T16:48:46Z</time>
<speed>2.130000</speed>
<extensions>
<speed>2.1</speed>
<temp>0.00</temp>
<bpm>0</bpm>
<rpm>0.00</rpm>
</extensions>
</trkpt>
<trkpt lat="63.876354218" lon="-22.053949356">
<ele>136.031250</ele>
<time>2012-07-28T16:48:51Z</time>
<speed>2.170000</speed>
<extensions>
<speed>2.2</speed>
<temp>0.00</temp>
<bpm>0</bpm>
<rpm>0.00</rpm>
</extensions>
</trkpt>
<trkpt lat="63.876445770" lon="-22.054019928">
<ele>136.265625</ele>
<time>2012-07-28T16:48:56Z</time>
<speed>1.810000</speed>
<extensions>
<speed>1.8</speed>
<temp>0.00</temp>
<bpm>0</bpm>
<rpm>0.00</rpm>
</extensions>
</trkpt>
<trkpt lat="63.876525879" lon="-22.054073334">
<ele>135.953125</ele>
<time>2012-07-28T16:49:01Z</time>
<speed>1.870000</speed>
<extensions>
<speed>1.9</speed>
<temp>0.00</temp>
<bpm>0</bpm>
<rpm>0.00</rpm>
</extensions>
</trkpt>
<trkpt lat="63.876590729" lon="-22.054124832">
<ele>135.878906</ele>
<time>2012-07-28T16:49:06Z</time>
<speed>1.450000</speed>
<extensions>
<speed>1.4</speed>
<temp>0.00</temp>
<bpm>0</bpm>
<rpm>0.00</rpm>
</extensions>
</trkpt>
<trkpt lat="63.876659393" lon="-22.054185867">
<ele>136.214844</ele>
<time>2012-07-28T16:49:11Z</time>
<speed>1.670000</speed>
<extensions>
<speed>1.7</speed>
<temp>0.00</temp>
<bpm>0</bpm>
<rpm>0.00</rpm>
</extensions>
</trkpt>
<trkpt lat="63.876712799" lon="-22.054210663">
<ele>137.066406</ele>
<time>2012-07-28T16:49:16Z</time>
<speed>0.570000</speed>
<extensions>
<speed>0.6</speed>
<temp>0.00</temp>
<bpm>0</bpm>
<rpm>0.00</rpm>
</extensions>
</trkpt>
<trkpt lat="63.876766205" lon="-22.054281235">
<ele>136.003906</ele>
<time>2012-07-28T16:49:21Z</time>
<speed>1.630000</speed>
<extensions>
<speed>1.6</speed>
<temp>0.00</temp>
<bpm>0</bpm>
<rpm>0.00</rpm>
</extensions>
</trkpt>
<trkpt lat="63.876834869" lon="-22.054353714">
<ele>136.164063</ele>
<time>2012-07-28T16:49:26Z</time>
<speed>1.740000</speed>
<extensions>
<speed>1.7</speed>
<temp>0.00</temp>
<bpm>0</bpm>
<rpm>0.00</rpm>
</extensions>
</trkpt>
<trkpt lat="63.876903534" lon="-22.054410934">
<ele>136.585938</ele>
<time>2012-07-28T16:49:31Z</time>
<speed>1.650000</speed>
<extensions>
<speed>1.7</speed>
<temp>0.00</temp>
<bpm>0</bpm>
<rpm>0.00</rpm>
</extensions>
</trkpt>
<trkpt lat="63.876972198" lon="-22.054426193">
<ele>137.824219</ele>
<time>2012-07-28T16:49:36Z</time>
<speed>1.440000</speed>
<extensions>
<speed>1.4</speed>
<temp>0.00</temp>
<bpm>0</bpm>
<rpm>0.00</rpm>
</extensions>
</trkpt>
<trkpt lat="63.877037048" lon="-22.054458618">
<ele>138.609375</ele>
<time>2012-07-28T16:49:41Z</time>
<speed>1.420000</speed>
<extensions>
<speed>1.4</speed>
<temp>0.00</temp>
<bpm>0</bpm>
<rpm>0.00</rpm>
</extensions>
</trkpt>
<trkpt lat="63.877101898" lon="-22.054515839">
<ele>140.238281</ele>
<time>2012-07-28T16:49:46Z</time>
<speed>1.570000</speed>
<extensions>
<speed>1.6</speed>
<temp>0.00</temp>
<bpm>0</bpm>
<rpm>0.00</rpm>
</extensions>
</trkpt>
<trkpt lat="63.877170563" lon="-22.054571152">
<ele>141.046875</ele>
<time>2012-07-28T16:49:51Z</time>
<speed>1.450000</speed>
<extensions>
<speed>1.4</speed>
<temp>0.00</temp>
<bpm>0</bpm>
<rpm>0.00</rpm>
</extensions>
</trkpt>
<trkpt lat="63.877231598" lon="-22.054618835">
<ele>141.511719</ele>
<time>2012-07-28T16:49:56Z</time>
<speed>1.450000</speed>
<extensions>
<speed>1.4</speed>
<temp>0.00</temp>
<bpm>0</bpm>
<rpm>0.00</rpm>
</extensions>
</trkpt>
<trkpt lat="63.877300262" lon="-22.054676056">
<ele>141.875000</ele>
<time>2012-07-28T16:50:01Z</time>
<speed>1.420000</speed>
<extensions>
<speed>1.4</speed>
<temp>0.00</temp>
<bpm>0</bpm>
<rpm>0.00</rpm>
</extensions>
</trkpt>
<trkpt lat="63.877353668" lon="-22.054754257">
<ele>141.968750</ele>
<time>2012-07-28T16:50:06Z</time>
<speed>2.020000</speed>
<extensions>
<speed>2.0</speed>
<temp>0.00</temp>
<bpm>0</bpm>
<rpm>0.00</rpm>
</extensions>
</trkpt>
<trkpt lat="63.877429962" lon="-22.054809570">
<ele>142.683594</ele>
<time>2012-07-28T16:50:11Z</time>
<speed>1.500000</speed>
<extensions>
<speed>1.5</speed>
<temp>0.00</temp>
<bpm>0</bpm>
<rpm>0.00</rpm>
</extensions>
</trkpt>
<trkpt lat="63.877502441" lon="-22.054838181">
<ele>143.757813</ele>
<time>2012-07-28T16:50:16Z</time>
<speed>1.570000</speed>
<extensions>
<speed>1.6</speed>
<temp>0.00</temp>
<bpm>0</bpm>
<rpm>0.00</rpm>
</extensions>
</trkpt>
<trkpt lat="63.877578735" lon="-22.054895401">
<ele>145.046875</ele>
<time>2012-07-28T16:50:21Z</time>
<speed>1.430000</speed>
<extensions>
<speed>1.4</speed>
<temp>0.00</temp>
<bpm>0</bpm>
<rpm>0.00</rpm>
</extensions>
</trkpt>
<trkpt lat="63.877647400" lon="-22.054925919">
<ele>145.230469</ele>
<time>2012-07-28T16:50:26Z</time>
<speed>1.730000</speed>
<extensions>
<speed>1.7</speed>
<temp>0.00</temp>
<bpm>0</bpm>
<rpm>0.00</rpm>
</extensions>
</trkpt>
<trkpt lat="63.877712250" lon="-22.054988861">
<ele>145.886719</ele>
<time>2012-07-28T16:50:31Z</time>
<speed>1.590000</speed>
<extensions>
<speed>1.6</speed>
<temp>0.00</temp>
<bpm>0</bpm>
<rpm>0.00</rpm>
</extensions>
</trkpt>
<trkpt lat="63.877784729" lon="-22.055040359">
<ele>146.414063</ele>
<time>2012-07-28T16:50:36Z</time>
<speed>1.890000</speed>
<extensions>
<speed>1.9</speed>
<temp>0.00</temp>
<bpm>0</bpm>
<rpm>0.00</rpm>
</extensions>
</trkpt>
<trkpt lat="63.877849579" lon="-22.055099487">
<ele>147.433594</ele>
<time>2012-07-28T16:50:41Z</time>
<speed>1.650000</speed>
<extensions>
<speed>1.7</speed>
<temp>0.00</temp>
<bpm>0</bpm>
<rpm>0.00</rpm>
</extensions>
</trkpt>
<trkpt lat="63.877929688" lon="-22.055147171">
<ele>148.054688</ele>
<time>2012-07-28T16:50:46Z</time>
<speed>1.720000</speed>
<extensions>
<speed>1.7</speed>
<temp>0.00</temp>
<bpm>0</bpm>
<rpm>0.00</rpm>
</extensions>
</trkpt>
<trkpt lat="63.878005981" lon="-22.055191040">
<ele>147.738281</ele>
<time>2012-07-28T16:50:51Z</time>
<speed>1.680000</speed>
<extensions>
<speed>1.7</speed>
<temp>0.00</temp>
<bpm>0</bpm>
<rpm>0.00</rpm>
</extensions>
</trkpt>
<trkpt lat="63.878074646" lon="-22.055265427">
<ele>147.812500</ele>
<time>2012-07-28T16:50:56Z</time>
<speed>1.750000</speed>
<extensions>
<speed>1.8</speed>
<temp>0.00</temp>
<bpm>0</bpm>
<rpm>0.00</rpm>
</extensions>
</trkpt>
<trkpt lat="63.878154755" lon="-22.055339813">
<ele>147.355469</ele>
<time>2012-07-28T16:51:01Z</time>
<speed>1.680000</speed>
<extensions>
<speed>1.7</speed>
<temp>0.00</temp>
<bpm>0</bpm>
<rpm>0.00</rpm>
</extensions>
</trkpt>
<trkpt lat="63.878231049" lon="-22.055398941">
<ele>146.511719</ele>
<time>2012-07-28T16:51:06Z</time>
<speed>1.660000</speed>
<extensions>
<speed>1.7</speed>
<temp>0.00</temp>
<bpm>0</bpm>
<rpm>0.00</rpm>
</extensions>
</trkpt>
<trkpt lat="63.878299713" lon="-22.055431366">
<ele>147.000000</ele>
<time>2012-07-28T16:51:11Z</time>
<speed>1.690000</speed>
<extensions>
<speed>1.7</speed>
<temp>0.00</temp>
<bpm>0</bpm>
<rpm>0.00</rpm>
</extensions>
</trkpt>
<trkpt lat="63.878387451" lon="-22.055473328">
<ele>147.480469</ele>
<time>2012-07-28T16:51:16Z</time>
<speed>2.240000</speed>
<extensions>
<speed>2.2</speed>
<temp>0.00</temp>
<bpm>0</bpm>
<rpm>0.00</rpm>
</extensions>
</trkpt>
<trkpt lat="63.878463745" lon="-22.055553436">
<ele>146.277344</ele>
<time>2012-07-28T16:51:21Z</time>
<speed>1.820000</speed>
<extensions>
<speed>1.8</speed>
<temp>0.00</temp>
<bpm>0</bpm>
<rpm>0.00</rpm>
</extensions>
</trkpt>
<trkpt lat="63.878551483" lon="-22.055650711">
<ele>146.425781</ele>
<time>2012-07-28T16:51:26Z</time>
<speed>1.970000</speed>
<extensions>
<speed>2.0</speed>
<temp>0.00</temp>
<bpm>0</bpm>
<rpm>0.00</rpm>
</extensions>
</trkpt>
<trkpt lat="63.878631592" lon="-22.055728912">
<ele>146.832031</ele>
<time>2012-07-28T16:51:31Z</time>
<speed>1.670000</speed>
<extensions>
<speed>1.7</speed>
<temp>0.00</temp>
<bpm>0</bpm>
<rpm>0.00</rpm>
</extensions>
</trkpt>
<trkpt lat="63.878711700" lon="-22.055803299">
<ele>146.308594</ele>
<time>2012-07-28T16:51:36Z</time>
<speed>1.700000</speed>
<extensions>
<speed>1.7</speed>
<temp>0.00</temp>
<bpm>0</bpm>
<rpm>0.00</rpm>
</extensions>
</trkpt>
<trkpt lat="63.878787994" lon="-22.055891037">
<ele>146.070313</ele>
<time>2012-07-28T16:51:41Z</time>
<speed>1.690000</speed>
<extensions>
<speed>1.7</speed>
<temp>0.00</temp>
<bpm>0</bpm>
<rpm>0.00</rpm>
</extensions>
</trkpt>
<trkpt lat="63.878883362" lon="-22.055953979">
<ele>145.281250</ele>
<time>2012-07-28T16:51:46Z</time>
<speed>2.520000</speed>
<extensions>
<speed>2.5</speed>
<temp>0.00</temp>
<bpm>0</bpm>
<rpm>0.00</rpm>
</extensions>
</trkpt>
<trkpt lat="63.878974915" lon="-22.056030273">
<ele>145.000000</ele>
<time>2012-07-28T16:51:51Z</time>
<speed>1.720000</speed>
<extensions>
<speed>1.7</speed>
<temp>0.00</temp>
<bpm>0</bpm>
<rpm>0.00</rpm>
</extensions>
</trkpt>
<trkpt lat="63.879070282" lon="-22.056093216">
<ele>145.894531</ele>
<time>2012-07-28T16:51:56Z</time>
<speed>2.070000</speed>
<extensions>
<speed>2.1</speed>
<temp>0.00</temp>
<bpm>0</bpm>
<rpm>0.00</rpm>
</extensions>
</trkpt>
<trkpt lat="63.879154205" lon="-22.056163788">
<ele>145.000000</ele>
<time>2012-07-28T16:52:01Z</time>
<speed>2.180000</speed>
<extensions>
<speed>2.2</speed>
<temp>0.00</temp>
<bpm>0</bpm>
<rpm>0.00</rpm>
</extensions>
</trkpt>
<trkpt lat="63.879261017" lon="-22.056240082">
<ele>145.937500</ele>
<time>2012-07-28T16:52:06Z</time>
<speed>2.530000</speed>
<extensions>
<speed>2.5</speed>
<temp>0.00</temp>
<bpm>0</bpm>
<rpm>0.00</rpm>
</extensions>
</trkpt>
<trkpt lat="63.879348755" lon="-22.056301117">
<ele>148.089844</ele>
<time>2012-07-28T16:52:11Z</time>
<speed>2.270000</speed>
<extensions>
<speed>2.3</speed>
<temp>0.00</temp>
<bpm>0</bpm>
<rpm>0.00</rpm>
</extensions>
</trkpt>
<trkpt lat="63.879444122" lon="-22.056377411">
<ele>147.976563</ele>
<time>2012-07-28T16:52:16Z</time>
<speed>2.050000</speed>
<extensions>
<speed>2.1</speed>
<temp>0.00</temp>
<bpm>0</bpm>
<rpm>0.00</rpm>
</extensions>
</trkpt>
<trkpt lat="63.879535675" lon="-22.056451797">
<ele>147.378906</ele>
<time>2012-07-28T16:52:21Z</time>
<speed>2.290000</speed>
<extensions>
<speed>2.3</speed>
<temp>0.00</temp>
<bpm>0</bpm>
<rpm>0.00</rpm>
</extensions>
</trkpt>
<trkpt lat="63.879623413" lon="-22.056535721">
<ele>145.500000</ele>
<time>2012-07-28T16:52:26Z</time>
<speed>2.440000</speed>
<extensions>
<speed>2.4</speed>
<temp>0.00</temp>
<bpm>0</bpm>
<rpm>0.00</rpm>
</extensions>
</trkpt>
<trkpt lat="63.879714966" lon="-22.056621552">
<ele>145.753906</ele>
<time>2012-07-28T16:52:31Z</time>
<speed>2.260000</speed>
<extensions>
<speed>2.3</speed>
<temp>0.00</temp>
<bpm>0</bpm>
<rpm>0.00</rpm>
</extensions>
</trkpt>
<trkpt lat="63.879810333" lon="-22.056663513">
<ele>146.765625</ele>
<time>2012-07-28T16:52:36Z</time>
<speed>2.040000</speed>
<extensions>
<speed>2.0</speed>
<temp>0.00</temp>
<bpm>0</bpm>
<rpm>0.00</rpm>
</extensions>
</trkpt>
<trkpt lat="63.879909515" lon="-22.056732178">
<ele>147.343750</ele>
<time>2012-07-28T16:52:41Z</time>
<speed>2.710000</speed>
<extensions>
<speed>2.7</speed>
<temp>0.00</temp>
<bpm>0</bpm>
<rpm>0.00</rpm>
</extensions>
</trkpt>
<trkpt lat="63.880031586" lon="-22.056804657">
<ele>148.593750</ele>
<time>2012-07-28T16:52:46Z</time>
<speed>3.060000</speed>
<extensions>
<speed>3.1</speed>
<temp>0.00</temp>
<bpm>0</bpm>
<rpm>0.00</rpm>
</extensions>
</trkpt>
<trkpt lat="63.880134583" lon="-22.056913376">
<ele>146.402344</ele>
<time>2012-07-28T16:52:51Z</time>
<speed>2.680000</speed>
<extensions>
<speed>2.7</speed>
<temp>0.00</temp>
<bpm>0</bpm>
<rpm>0.00</rpm>
</extensions>
</trkpt>
<trkpt lat="63.880245209" lon="-22.057012558">
<ele>145.976563</ele>
<time>2012-07-28T16:52:56Z</time>
<speed>2.570000</speed>
<extensions>
<speed>2.6</speed>
<temp>0.00</temp>
<bpm>0</bpm>
<rpm>0.00</rpm>
</extensions>
</trkpt>
<trkpt lat="63.880359650" lon="-22.057085037">
<ele>145.761719</ele>
<time>2012-07-28T16:53:01Z</time>
<speed>2.300000</speed>
<extensions>
<speed>2.3</speed>
<temp>0.00</temp>
<bpm>0</bpm>
<rpm>0.00</rpm>
</extensions>
</trkpt>
<trkpt lat="63.880470276" lon="-22.057134628">
<ele>147.234375</ele>
<time>2012-07-28T16:53:06Z</time>
<speed>2.370000</speed>
<extensions>
<speed>2.4</speed>
<temp>0.00</temp>
<bpm>0</bpm>
<rpm>0.00</rpm>
</extensions>
</trkpt>
<trkpt lat="63.880580902" lon="-22.057186127">
<ele>146.562500</ele>
<time>2012-07-28T16:53:11Z</time>
<speed>2.270000</speed>
<extensions>
<speed>2.3</speed>
<temp>0.00</temp>
<bpm>0</bpm>
<rpm>0.00</rpm>
</extensions>
</trkpt>
<trkpt lat="63.880676270" lon="-22.057256699">
<ele>147.144531</ele>
<time>2012-07-28T16:53:16Z</time>
<speed>2.480000</speed>
<extensions>
<speed>2.5</speed>
<temp>0.00</temp>
<bpm>0</bpm>
<rpm>0.00</rpm>
</extensions>
</trkpt>
<trkpt lat="63.880802155" lon="-22.057298660">
<ele>148.492188</ele>
<time>2012-07-28T16:53:21Z</time>
<speed>2.660000</speed>
<extensions>
<speed>2.7</speed>
<temp>0.00</temp>
<bpm>0</bpm>
<rpm>0.00</rpm>
</extensions>
</trkpt>
<trkpt lat="63.880916595" lon="-22.057359695">
<ele>149.066406</ele>
<time>2012-07-28T16:53:26Z</time>
<speed>2.670000</speed>
<extensions>
<speed>2.7</speed>
<temp>0.00</temp>
<bpm>0</bpm>
<rpm>0.00</rpm>
</extensions>
</trkpt>
<trkpt lat="63.881023407" lon="-22.057409286">
<ele>149.152344</ele>
<time>2012-07-28T16:53:31Z</time>
<speed>2.280000</speed>
<extensions>
<speed>2.3</speed>
<temp>0.00</temp>
<bpm>0</bpm>
<rpm>0.00</rpm>
</extensions>
</trkpt>
<trkpt lat="63.881122589" lon="-22.057472229">
<ele>150.218750</ele>
<time>2012-07-28T16:53:36Z</time>
<speed>2.220000</speed>
<extensions>
<speed>2.2</speed>
<temp>0.00</temp>
<bpm>0</bpm>
<rpm>0.00</rpm>
</extensions>
</trkpt>
<trkpt lat="63.881214142" lon="-22.057495117">
<ele>151.242188</ele>
<time>2012-07-28T16:53:41Z</time>
<speed>2.090000</speed>
<extensions>
<speed>2.1</speed>
<temp>0.00</temp>
<bpm>0</bpm>
<rpm>0.00</rpm>
</extensions>
</trkpt>
<trkpt lat="63.881317139" lon="-22.057525635">
<ele>151.699219</ele>
<time>2012-07-28T16:53:46Z</time>
<speed>2.480000</speed>
<extensions>
<speed>2.5</speed>
<temp>0.00</temp>
<bpm>0</bpm>
<rpm>0.00</rpm>
</extensions>
</trkpt>
<trkpt lat="63.881416321" lon="-22.057577133">
<ele>151.542969</ele>
<time>2012-07-28T16:53:51Z</time>
<speed>2.020000</speed>
<extensions>
<speed>2.0</speed>
<temp>0.00</temp>
<bpm>0</bpm>
<rpm>0.00</rpm>
</extensions>
</trkpt>
<trkpt lat="63.881511688" lon="-22.057615280">
<ele>151.417969</ele>
<time>2012-07-28T16:53:56Z</time>
<speed>2.040000</speed>
<extensions>
<speed>2.0</speed>
<temp>0.00</temp>
<bpm>0</bpm>
<rpm>0.00</rpm>
</extensions>
</trkpt>
<trkpt lat="63.881603241" lon="-22.057659149">
<ele>152.859375</ele>
<time>2012-07-28T16:54:01Z</time>
<speed>1.860000</speed>
<extensions>
<speed>1.9</speed>
<temp>0.00</temp>
<bpm>0</bpm>
<rpm>0.00</rpm>
</extensions>
</trkpt>
<trkpt lat="63.881690979" lon="-22.057703018">
<ele>153.878906</ele>
<time>2012-07-28T16:54:06Z</time>
<speed>2.120000</speed>
<extensions>
<speed>2.1</speed>
<temp>0.00</temp>
<bpm>0</bpm>
<rpm>0.00</rpm>
</extensions>
</trkpt>
<trkpt lat="63.881782532" lon="-22.057733536">
<ele>154.496094</ele>
<time>2012-07-28T16:54:11Z</time>
<speed>2.100000</speed>
<extensions>
<speed>2.1</speed>
<temp>0.00</temp>
<bpm>0</bpm>
<rpm>0.00</rpm>
</extensions>
</trkpt>
<trkpt lat="63.881874084" lon="-22.057764053">
<ele>154.625000</ele>
<time>2012-07-28T16:54:16Z</time>
<speed>2.040000</speed>
<extensions>
<speed>2.0</speed>
<temp>0.00</temp>
<bpm>0</bpm>
<rpm>0.00</rpm>
</extensions>
</trkpt>
<trkpt lat="63.881969452" lon="-22.057809830">
<ele>153.878906</ele>
<time>2012-07-28T16:54:21Z</time>
<speed>2.080000</speed>
<extensions>
<speed>2.1</speed>
<temp>0.00</temp>
<bpm>0</bpm>
<rpm>0.00</rpm>
</extensions>
</trkpt>
<trkpt lat="63.882057190" lon="-22.057849884">
<ele>154.468750</ele>
<time>2012-07-28T16:54:26Z</time>
<speed>2.230000</speed>
<extensions>
<speed>2.2</speed>
<temp>0.00</temp>
<bpm>0</bpm>
<rpm>0.00</rpm>
</extensions>
</trkpt>
<trkpt lat="63.882156372" lon="-22.057889938">
<ele>155.859375</ele>
<time>2012-07-28T16:54:31Z</time>
<speed>2.330000</speed>
<extensions>
<speed>2.3</speed>
<temp>0.00</temp>
<bpm>0</bpm>
<rpm>0.00</rpm>
</extensions>
</trkpt>
<trkpt lat="63.882247925" lon="-22.057924271">
<ele>156.265625</ele>
<time>2012-07-28T16:54:36Z</time>
<speed>2.050000</speed>
<extensions>
<speed>2.1</speed>
<temp>0.00</temp>
<bpm>0</bpm>
<rpm>0.00</rpm>
</extensions>
</trkpt>
<trkpt lat="63.882328033" lon="-22.057966232">
<ele>156.175781</ele>
<time>2012-07-28T16:54:41Z</time>
<speed>2.290000</speed>
<extensions>
<speed>2.3</speed>
<temp>0.00</temp>
<bpm>0</bpm>
<rpm>0.00</rpm>
</extensions>
</trkpt>
<trkpt lat="63.882434845" lon="-22.058004379">
<ele>156.917969</ele>
<time>2012-07-28T16:54:46Z</time>
<speed>2.470000</speed>
<extensions>
<speed>2.5</speed>
<temp>0.00</temp>
<bpm>0</bpm>
<rpm>0.00</rpm>
</extensions>
</trkpt>
<trkpt lat="63.882537842" lon="-22.058046341">
<ele>156.960938</ele>
<time>2012-07-28T16:54:51Z</time>
<speed>2.240000</speed>
<extensions>
<speed>2.2</speed>
<temp>0.00</temp>
<bpm>0</bpm>
<rpm>0.00</rpm>
</extensions>
</trkpt>
<trkpt lat="63.882640839" lon="-22.058086395">
<ele>157.332031</ele>
<time>2012-07-28T16:54:56Z</time>
<speed>2.270000</speed>
<extensions>
<speed>2.3</speed>
<temp>0.00</temp>
<bpm>0</bpm>
<rpm>0.00</rpm>
</extensions>
</trkpt>
<trkpt lat="63.882736206" lon="-22.058139801">
<ele>158.007813</ele>
<time>2012-07-28T16:55:01Z</time>
<speed>2.170000</speed>
<extensions>
<speed>2.2</speed>
<temp>0.00</temp>
<bpm>0</bpm>
<rpm>0.00</rpm>
</extensions>
</trkpt>
<trkpt lat="63.882831573" lon="-22.058189392">
<ele>158.476563</ele>
<time>2012-07-28T16:55:06Z</time>
<speed>2.500000</speed>
<extensions>
<speed>2.5</speed>
<temp>0.00</temp>
<bpm>0</bpm>
<rpm>0.00</rpm>
</extensions>
</trkpt>
<trkpt lat="63.882934570" lon="-22.058204651">
<ele>158.898438</ele>
<time>2012-07-28T16:55:11Z</time>
<speed>2.120000</speed>
<extensions>
<speed>2.1</speed>
<temp>0.00</temp>
<bpm>0</bpm>
<rpm>0.00</rpm>
</extensions>
</trkpt>
<trkpt lat="63.883033752" lon="-22.058238983">
<ele>158.914063</ele>
<time>2012-07-28T16:55:16Z</time>
<speed>1.980000</speed>
<extensions>
<speed>2.0</speed>
<temp>0.00</temp>
<bpm>0</bpm>
<rpm>0.00</rpm>
</extensions>
</trkpt>
<trkpt lat="63.883129120" lon="-22.058273315">
<ele>158.679688</ele>
<time>2012-07-28T16:55:21Z</time>
<speed>2.160000</speed>
<extensions>
<speed>2.2</speed>
<temp>0.00</temp>
<bpm>0</bpm>
<rpm>0.00</rpm>
</extensions>
</trkpt>
<trkpt lat="63.883232117" lon="-22.058320999">
<ele>158.820313</ele>
<time>2012-07-28T16:55:26Z</time>
<speed>2.360000</speed>
<extensions>
<speed>2.4</speed>
<temp>0.00</temp>
<bpm>0</bpm>
<rpm>0.00</rpm>
</extensions>
</trkpt>
<trkpt lat="63.883338928" lon="-22.058376312">
<ele>159.152344</ele>
<time>2012-07-28T16:55:31Z</time>
<speed>2.530000</speed>
<extensions>
<speed>2.5</speed>
<temp>0.00</temp>
<bpm>0</bpm>
<rpm>0.00</rpm>
</extensions>
</trkpt>
<trkpt lat="63.883449554" lon="-22.058422089">
<ele>159.257813</ele>
<time>2012-07-28T16:55:36Z</time>
<speed>2.550000</speed>
<extensions>
<speed>2.6</speed>
<temp>0.00</temp>
<bpm>0</bpm>
<rpm>0.00</rpm>
</extensions>
</trkpt>
<trkpt lat="63.883552551" lon="-22.058456421">
<ele>159.519531</ele>
<time>2012-07-28T16:55:41Z</time>
<speed>2.510000</speed>
<extensions>
<speed>2.5</speed>
<temp>0.00</temp>
<bpm>0</bpm>
<rpm>0.00</rpm>
</extensions>
</trkpt>
<trkpt lat="63.883674622" lon="-22.058523178">
<ele>159.652344</ele>
<time>2012-07-28T16:55:46Z</time>
<speed>2.350000</speed>
<extensions>
<speed>2.4</speed>
<temp>0.00</temp>
<bpm>0</bpm>
<rpm>0.00</rpm>
</extensions>
</trkpt>
<trkpt lat="63.883769989" lon="-22.058574677">
<ele>159.269531</ele>
<time>2012-07-28T16:55:51Z</time>
<speed>2.540000</speed>
<extensions>
<speed>2.5</speed>
<temp>0.00</temp>
<bpm>0</bpm>
<rpm>0.00</rpm>
</extensions>
</trkpt>
<trkpt lat="63.883880615" lon="-22.058616638">
<ele>159.867188</ele>
<time>2012-07-28T16:55:56Z</time>
<speed>2.040000</speed>
<extensions>
<speed>2.0</speed>
<temp>0.00</temp>
<bpm>0</bpm>
<rpm>0.00</rpm>
</extensions>
</trkpt>
<trkpt lat="63.883983612" lon="-22.058641434">
<ele>160.058594</ele>
<time>2012-07-28T16:56:01Z</time>
<speed>2.630000</speed>
<extensions>
<speed>2.6</speed>
<temp>0.00</temp>
<bpm>0</bpm>
<rpm>0.00</rpm>
</extensions>
</trkpt>
<trkpt lat="63.884090424" lon="-22.058687210">
<ele>159.679688</ele>
<time>2012-07-28T16:56:06Z</time>
<speed>2.320000</speed>
<extensions>
<speed>2.3</speed>
<temp>0.00</temp>
<bpm>0</bpm>
<rpm>0.00</rpm>
</extensions>
</trkpt>
<trkpt lat="63.884189606" lon="-22.058734894">
<ele>159.007813</ele>
<time>2012-07-28T16:56:11Z</time>
<speed>2.380000</speed>
<extensions>
<speed>2.4</speed>
<temp>0.00</temp>
<bpm>0</bpm>
<rpm>0.00</rpm>
</extensions>
</trkpt>
<trkpt lat="63.884292603" lon="-22.058803558">
<ele>159.687500</ele>
<time>2012-07-28T16:56:16Z</time>
<speed>2.450000</speed>
<extensions>
<speed>2.4</speed>
<temp>0.00</temp>
<bpm>0</bpm>
<rpm>0.00</rpm>
</extensions>
</trkpt>
<trkpt lat="63.884395599" lon="-22.058855057">
<ele>159.734375</ele>
<time>2012-07-28T16:56:21Z</time>
<speed>2.690000</speed>
<extensions>
<speed>2.7</speed>
<temp>0.00</temp>
<bpm>0</bpm>
<rpm>0.00</rpm>
</extensions>
</trkpt>
<trkpt lat="63.884490967" lon="-22.058881760">
<ele>159.230469</ele>
<time>2012-07-28T16:56:26Z</time>
<speed>2.300000</speed>
<extensions>
<speed>2.3</speed>
<temp>0.00</temp>
<bpm>0</bpm>
<rpm>0.00</rpm>
</extensions>
</trkpt>
<trkpt lat="63.884601593" lon="-22.058921814">
<ele>159.273438</ele>
<time>2012-07-28T16:56:31Z</time>
<speed>2.440000</speed>
<extensions>
<speed>2.4</speed>
<temp>0.00</temp>
<bpm>0</bpm>
<rpm>0.00</rpm>
</extensions>
</trkpt>
<trkpt lat="63.884704590" lon="-22.058963776">
<ele>159.125000</ele>
<time>2012-07-28T16:56:36Z</time>
<speed>2.270000</speed>
<extensions>
<speed>2.3</speed>
<temp>0.00</temp>
<bpm>0</bpm>
<rpm>0.00</rpm>
</extensions>
</trkpt>
<trkpt lat="63.884819031" lon="-22.058992386">
<ele>159.835938</ele>
<time>2012-07-28T16:56:41Z</time>
<speed>2.440000</speed>
<extensions>
<speed>2.4</speed>
<temp>0.00</temp>
<bpm>0</bpm>
<rpm>0.00</rpm>
</extensions>
</trkpt>
<trkpt lat="63.884929657" lon="-22.059009552">
<ele>160.289063</ele>
<time>2012-07-28T16:56:46Z</time>
<speed>2.600000</speed>
<extensions>
<speed>2.6</speed>
<temp>0.00</temp>
<bpm>0</bpm>
<rpm>0.00</rpm>
</extensions>
</trkpt>
<trkpt lat="63.885036469" lon="-22.059030533">
<ele>159.832031</ele>
<time>2012-07-28T16:56:51Z</time>
<speed>2.620000</speed>
<extensions>
<speed>2.6</speed>
<temp>0.00</temp>
<bpm>0</bpm>
<rpm>0.00</rpm>
</extensions>
</trkpt>
<trkpt lat="63.885158539" lon="-22.059053421">
<ele>160.277344</ele>
<time>2012-07-28T16:56:56Z</time>
<speed>2.910000</speed>
<extensions>
<speed>2.9</speed>
<temp>0.00</temp>
<bpm>0</bpm>
<rpm>0.00</rpm>
</extensions>
</trkpt>
<trkpt lat="63.885276794" lon="-22.059061050">
<ele>160.644531</ele>
<time>2012-07-28T16:57:01Z</time>
<speed>2.510000</speed>
<extensions>
<speed>2.5</speed>
<temp>0.00</temp>
<bpm>0</bpm>
<rpm>0.00</rpm>
</extensions>
</trkpt>
<trkpt lat="63.885387421" lon="-22.059070587">
<ele>160.875000</ele>
<time>2012-07-28T16:57:06Z</time>
<speed>2.390000</speed>
<extensions>
<speed>2.4</speed>
<temp>0.00</temp>
<bpm>0</bpm>
<rpm>0.00</rpm>
</extensions>
</trkpt>
<trkpt lat="63.885494232" lon="-22.059085846">
<ele>161.015625</ele>
<time>2012-07-28T16:57:11Z</time>
<speed>2.410000</speed>
<extensions>
<speed>2.4</speed>
<temp>0.00</temp>
<bpm>0</bpm>
<rpm>0.00</rpm>
</extensions>
</trkpt>
<trkpt lat="63.885612488" lon="-22.059108734">
<ele>161.390625</ele>
<time>2012-07-28T16:57:16Z</time>
<speed>2.760000</speed>
<extensions>
<speed>2.8</speed>
<temp>0.00</temp>
<bpm>0</bpm>
<rpm>0.00</rpm>
</extensions>
</trkpt>
<trkpt lat="63.885738373" lon="-22.059104919">
<ele>161.882813</ele>
<time>2012-07-28T16:57:21Z</time>
<speed>2.740000</speed>
<extensions>
<speed>2.7</speed>
<temp>0.00</temp>
<bpm>0</bpm>
<rpm>0.00</rpm>
</extensions>
</trkpt>
<trkpt lat="63.885848999" lon="-22.059104919">
<ele>161.964844</ele>
<time>2012-07-28T16:57:26Z</time>
<speed>2.470000</speed>
<extensions>
<speed>2.5</speed>
<temp>0.00</temp>
<bpm>0</bpm>
<rpm>0.00</rpm>
</extensions>
</trkpt>
<trkpt lat="63.885959625" lon="-22.059108734">
<ele>162.851563</ele>
<time>2012-07-28T16:57:31Z</time>
<speed>2.330000</speed>
<extensions>
<speed>2.3</speed>
<temp>0.00</temp>
<bpm>0</bpm>
<rpm>0.00</rpm>
</extensions>
</trkpt>
<trkpt lat="63.886054993" lon="-22.059089661">
<ele>162.843750</ele>
<time>2012-07-28T16:57:36Z</time>
<speed>2.390000</speed>
<extensions>
<speed>2.4</speed>
<temp>0.00</temp>
<bpm>0</bpm>
<rpm>0.00</rpm>
</extensions>
</trkpt>
<trkpt lat="63.886157990" lon="-22.059082031">
<ele>163.046875</ele>
<time>2012-07-28T16:57:41Z</time>
<speed>2.320000</speed>
<extensions>
<speed>2.3</speed>
<temp>0.00</temp>
<bpm>0</bpm>
<rpm>0.00</rpm>
</extensions>
</trkpt>
<trkpt lat="63.886264801" lon="-22.059057236">
<ele>163.390625</ele>
<time>2012-07-28T16:57:46Z</time>
<speed>2.270000</speed>
<extensions>
<speed>2.3</speed>
<temp>0.00</temp>
<bpm>0</bpm>
<rpm>0.00</rpm>
</extensions>
</trkpt>
<trkpt lat="63.886375427" lon="-22.059043884">
<ele>164.070313</ele>
<time>2012-07-28T16:57:51Z</time>
<speed>2.660000</speed>
<extensions>
<speed>2.7</speed>
<temp>0.00</temp>
<bpm>0</bpm>
<rpm>0.00</rpm>
</extensions>
</trkpt>
<trkpt lat="63.886482239" lon="-22.059013367">
<ele>163.691406</ele>
<time>2012-07-28T16:57:56Z</time>
<speed>2.460000</speed>
<extensions>
<speed>2.5</speed>
<temp>0.00</temp>
<bpm>0</bpm>
<rpm>0.00</rpm>
</extensions>
</trkpt>
<trkpt lat="63.886581421" lon="-22.058998108">
<ele>162.835938</ele>
<time>2012-07-28T16:58:01Z</time>
<speed>2.580000</speed>
<extensions>
<speed>2.6</speed>
<temp>0.00</temp>
<bpm>0</bpm>
<rpm>0.00</rpm>
</extensions>
</trkpt>
<trkpt lat="63.886688232" lon="-22.058982849">
<ele>162.882813</ele>
<time>2012-07-28T16:58:06Z</time>
<speed>2.380000</speed>
<extensions>
<speed>2.4</speed>
<temp>0.00</temp>
<bpm>0</bpm>
<rpm>0.00</rpm>
</extensions>
</trkpt>
<trkpt lat="63.886795044" lon="-22.058942795">
<ele>163.425781</ele>
<time>2012-07-28T16:58:11Z</time>
<speed>2.370000</speed>
<extensions>
<speed>2.4</speed>
<temp>0.00</temp>
<bpm>0</bpm>
<rpm>0.00</rpm>
</extensions>
</trkpt>
<trkpt lat="63.886898041" lon="-22.058879852">
<ele>163.925781</ele>
<time>2012-07-28T16:58:16Z</time>
<speed>2.330000</speed>
<extensions>
<speed>2.3</speed>
<temp>0.00</temp>
<bpm>0</bpm>
<rpm>0.00</rpm>
</extensions>
</trkpt>
<trkpt lat="63.887008667" lon="-22.058832169">
<ele>164.269531</ele>
<time>2012-07-28T16:58:21Z</time>
<speed>2.650000</speed>
<extensions>
<speed>2.6</speed>
<temp>0.00</temp>
<bpm>0</bpm>
<rpm>0.00</rpm>
</extensions>
</trkpt>
<trkpt lat="63.887123108" lon="-22.058782578">
<ele>165.128906</ele>
<time>2012-07-28T16:58:26Z</time>
<speed>2.660000</speed>
<extensions>
<speed>2.7</speed>
<temp>0.00</temp>
<bpm>0</bpm>
<rpm>0.00</rpm>
</extensions>
</trkpt>
<trkpt lat="63.887241364" lon="-22.058736801">
<ele>165.882813</ele>
<time>2012-07-28T16:58:31Z</time>
<speed>2.670000</speed>
<extensions>
<speed>2.7</speed>
<temp>0.00</temp>
<bpm>0</bpm>
<rpm>0.00</rpm>
</extensions>
</trkpt>
<trkpt lat="63.887348175" lon="-22.058671951">
<ele>166.300781</ele>
<time>2012-07-28T16:58:36Z</time>
<speed>2.800000</speed>
<extensions>
<speed>2.8</speed>
<temp>0.00</temp>
<bpm>0</bpm>
<rpm>0.00</rpm>
</extensions>
</trkpt>
<trkpt lat="63.887474060" lon="-22.058586121">
<ele>165.417969</ele>
<time>2012-07-28T16:58:41Z</time>
<speed>3.220000</speed>
<extensions>
<speed>3.2</speed>
<temp>0.00</temp>
<bpm>0</bpm>
<rpm>0.00</rpm>
</extensions>
</trkpt>
<trkpt lat="63.887611389" lon="-22.058519363">
<ele>165.894531</ele>
<time>2012-07-28T16:58:46Z</time>
<speed>3.130000</speed>
<extensions>
<speed>3.1</speed>
<temp>0.00</temp>
<bpm>0</bpm>
<rpm>0.00</rpm>
</extensions>
</trkpt>
<trkpt lat="63.887748718" lon="-22.058431625">
<ele>166.523438</ele>
<time>2012-07-28T16:58:51Z</time>
<speed>3.300000</speed>
<extensions>
<speed>3.3</speed>
<temp>0.00</temp>
<bpm>0</bpm>
<rpm>0.00</rpm>
</extensions>
</trkpt>
<trkpt lat="63.887889862" lon="-22.058355331">
<ele>170.058594</ele>
<time>2012-07-28T16:58:56Z</time>
<speed>3.430000</speed>
<extensions>
<speed>3.4</speed>
<temp>0.00</temp>
<bpm>0</bpm>
<rpm>0.00</rpm>
</extensions>
</trkpt>
<trkpt lat="63.888038635" lon="-22.058246613">
<ele>169.277344</ele>
<time>2012-07-28T16:59:01Z</time>
<speed>3.480000</speed>
<extensions>
<speed>3.5</speed>
<temp>0.00</temp>
<bpm>0</bpm>
<rpm>0.00</rpm>
</extensions>
</trkpt>
<trkpt lat="63.888206482" lon="-22.058115005">
<ele>169.476563</ele>
<time>2012-07-28T16:59:06Z</time>
<speed>4.300000</speed>
<extensions>
<speed>4.3</speed>
<temp>0.00</temp>
<bpm>0</bpm>
<rpm>0.00</rpm>
</extensions>
</trkpt>
<trkpt lat="63.888385773" lon="-22.057937622">
<ele>168.574219</ele>
<time>2012-07-28T16:59:11Z</time>
<speed>4.210000</speed>
<extensions>
<speed>4.2</speed>
<temp>0.00</temp>
<bpm>0</bpm>
<rpm>0.00</rpm>
</extensions>
</trkpt>
<trkpt lat="63.888549805" lon="-22.057809830">
<ele>167.210938</ele>
<time>2012-07-28T16:59:16Z</time>
<speed>4.050000</speed>
<extensions>
<speed>4.0</speed>
<temp>0.00</temp>
<bpm>0</bpm>
<rpm>0.00</rpm>
</extensions>
</trkpt>
<trkpt lat="63.888725281" lon="-22.057632446">
<ele>166.312500</ele>
<time>2012-07-28T16:59:21Z</time>
<speed>4.560000</speed>
<extensions>
<speed>4.6</speed>
<temp>0.00</temp>
<bpm>0</bpm>
<rpm>0.00</rpm>
</extensions>
</trkpt>
<trkpt lat="63.888927460" lon="-22.057422638">
<ele>164.582031</ele>
<time>2012-07-28T16:59:26Z</time>
<speed>5.170000</speed>
<extensions>
<speed>5.2</speed>
<temp>0.00</temp>
<bpm>0</bpm>
<rpm>0.00</rpm>
</extensions>
</trkpt>
<trkpt lat="63.889152527" lon="-22.057201385">
<ele>164.175781</ele>
<time>2012-07-28T16:59:31Z</time>
<speed>5.330000</speed>
<extensions>
<speed>5.3</speed>
<temp>0.00</temp>
<bpm>0</bpm>
<rpm>0.00</rpm>
</extensions>
</trkpt>
<trkpt lat="63.889366150" lon="-22.057004929">
<ele>164.511719</ele>
<time>2012-07-28T16:59:36Z</time>
<speed>4.950000</speed>
<extensions>
<speed>4.9</speed>
<temp>0.00</temp>
<bpm>0</bpm>
<rpm>0.00</rpm>
</extensions>
</trkpt>
<trkpt lat="63.889549255" lon="-22.056795120">
<ele>162.765625</ele>
<time>2012-07-28T16:59:41Z</time>
<speed>4.310000</speed>
<extensions>
<speed>4.3</speed>
<temp>0.00</temp>
<bpm>0</bpm>
<rpm>0.00</rpm>
</extensions>
</trkpt>
<trkpt lat="63.889739990" lon="-22.056581497">
<ele>159.894531</ele>
<time>2012-07-28T16:59:46Z</time>
<speed>4.660000</speed>
<extensions>
<speed>4.7</speed>
<temp>0.00</temp>
<bpm>0</bpm>
<rpm>0.00</rpm>
</extensions>
</trkpt>
<trkpt lat="63.889904022" lon="-22.056381226">
<ele>156.136719</ele>
<time>2012-07-28T16:59:51Z</time>
<speed>4.190000</speed>
<extensions>
<speed>4.2</speed>
<temp>0.00</temp>
<bpm>0</bpm>
<rpm>0.00</rpm>
</extensions>
</trkpt>
<trkpt lat="63.890098572" lon="-22.056200027">
<ele>157.269531</ele>
<time>2012-07-28T16:59:56Z</time>
<speed>4.520000</speed>
<extensions>
<speed>4.5</speed>
<temp>0.00</temp>
<bpm>0</bpm>
<rpm>0.00</rpm>
</extensions>
</trkpt>
<trkpt lat="63.890289307" lon="-22.056011200">
<ele>157.449219</ele>
<time>2012-07-28T17:00:01Z</time>
<speed>4.710000</speed>
<extensions>
<speed>4.7</speed>
<temp>0.00</temp>
<bpm>0</bpm>
<rpm>0.00</rpm>
</extensions>
</trkpt>
<trkpt lat="63.890480042" lon="-22.055841446">
<ele>157.609375</ele>
<time>2012-07-28T17:00:06Z</time>
<speed>4.380000</speed>
<extensions>
<speed>4.4</speed>
<temp>0.00</temp>
<bpm>0</bpm>
<rpm>0.00</rpm>
</extensions>
</trkpt>
<trkpt lat="63.890651703" lon="-22.055673599">
<ele>158.167969</ele>
<time>2012-07-28T17:00:11Z</time>
<speed>4.180000</speed>
<extensions>
<speed>4.2</speed>
<temp>0.00</temp>
<bpm>0</bpm>
<rpm>0.00</rpm>
</extensions>
</trkpt>
<trkpt lat="63.890830994" lon="-22.055519104">
<ele>159.199219</ele>
<time>2012-07-28T17:00:16Z</time>
<speed>4.840000</speed>
<extensions>
<speed>4.8</speed>
<temp>0.00</temp>
<bpm>0</bpm>
<rpm>0.00</rpm>
</extensions>
</trkpt>
<trkpt lat="63.891048431" lon="-22.055282593">
<ele>159.664063</ele>
<time>2012-07-28T17:00:21Z</time>
<speed>5.040000</speed>
<extensions>
<speed>5.0</speed>
<temp>0.00</temp>
<bpm>0</bpm>
<rpm>0.00</rpm>
</extensions>
</trkpt>
<trkpt lat="63.891204834" lon="-22.055095673">
<ele>158.105469</ele>
<time>2012-07-28T17:00:26Z</time>
<speed>3.260000</speed>
<extensions>
<speed>3.3</speed>
<temp>0.00</temp>
<bpm>0</bpm>
<rpm>0.00</rpm>
</extensions>
</trkpt>
<trkpt lat="63.891330719" lon="-22.054967880">
<ele>157.550781</ele>
<time>2012-07-28T17:00:31Z</time>
<speed>3.130000</speed>
<extensions>
<speed>3.1</speed>
<temp>0.00</temp>
<bpm>0</bpm>
<rpm>0.00</rpm>
</extensions>
</trkpt>
<trkpt lat="63.891445160" lon="-22.054819107">
<ele>155.535156</ele>
<time>2012-07-28T17:00:36Z</time>
<speed>2.830000</speed>
<extensions>
<speed>2.8</speed>
<temp>0.00</temp>
<bpm>0</bpm>
<rpm>0.00</rpm>
</extensions>
</trkpt>
<trkpt lat="63.891567230" lon="-22.054702759">
<ele>151.226563</ele>
<time>2012-07-28T17:00:41Z</time>
<speed>3.550000</speed>
<extensions>
<speed>3.5</speed>
<temp>0.00</temp>
<bpm>0</bpm>
<rpm>0.00</rpm>
</extensions>
</trkpt>
<trkpt lat="63.891727448" lon="-22.054567337">
<ele>151.925781</ele>
<time>2012-07-28T17:00:46Z</time>
<speed>4.100000</speed>
<extensions>
<speed>4.1</speed>
<temp>0.00</temp>
<bpm>0</bpm>
<rpm>0.00</rpm>
</extensions>
</trkpt>
<trkpt lat="63.891880035" lon="-22.054416656">
<ele>151.332031</ele>
<time>2012-07-28T17:00:51Z</time>
<speed>3.130000</speed>
<extensions>
<speed>3.1</speed>
<temp>0.00</temp>
<bpm>0</bpm>
<rpm>0.00</rpm>
</extensions>
</trkpt>
<trkpt lat="63.892028809" lon="-22.054292679">
<ele>153.261719</ele>
<time>2012-07-28T17:00:56Z</time>
<speed>3.410000</speed>
<extensions>
<speed>3.4</speed>
<temp>0.00</temp>
<bpm>0</bpm>
<rpm>0.00</rpm>
</extensions>
</trkpt>
<trkpt lat="63.892162323" lon="-22.054155350">
<ele>154.761719</ele>
<time>2012-07-28T17:01:01Z</time>
<speed>3.460000</speed>
<extensions>
<speed>3.5</speed>
<temp>0.00</temp>
<bpm>0</bpm>
<rpm>0.00</rpm>
</extensions>
</trkpt>
<trkpt lat="63.892311096" lon="-22.054019928">
<ele>155.449219</ele>
<time>2012-07-28T17:01:06Z</time>
<speed>3.250000</speed>
<extensions>
<speed>3.2</speed>
<temp>0.00</temp>
<bpm>0</bpm>
<rpm>0.00</rpm>
</extensions>
</trkpt>
<trkpt lat="63.892459869" lon="-22.053873062">
<ele>155.832031</ele>
<time>2012-07-28T17:01:11Z</time>
<speed>3.390000</speed>
<extensions>
<speed>3.4</speed>
<temp>0.00</temp>
<bpm>0</bpm>
<rpm>0.00</rpm>
</extensions>
</trkpt>
<trkpt lat="63.892601013" lon="-22.053733826">
<ele>156.226563</ele>
<time>2012-07-28T17:01:16Z</time>
<speed>3.250000</speed>
<extensions>
<speed>3.2</speed>
<temp>0.00</temp>
<bpm>0</bpm>
<rpm>0.00</rpm>
</extensions>
</trkpt>
<trkpt lat="63.892745972" lon="-22.053607941">
<ele>155.707031</ele>
<time>2012-07-28T17:01:21Z</time>
<speed>3.630000</speed>
<extensions>
<speed>3.6</speed>
<temp>0.00</temp>
<bpm>0</bpm>
<rpm>0.00</rpm>
</extensions>
</trkpt>
<trkpt lat="63.892894745" lon="-22.053491592">
<ele>155.796875</ele>
<time>2012-07-28T17:01:26Z</time>
<speed>3.750000</speed>
<extensions>
<speed>3.8</speed>
<temp>0.00</temp>
<bpm>0</bpm>
<rpm>0.00</rpm>
</extensions>
</trkpt>
<trkpt lat="63.893043518" lon="-22.053361893">
<ele>157.414063</ele>
<time>2012-07-28T17:01:31Z</time>
<speed>3.580000</speed>
<extensions>
<speed>3.6</speed>
<temp>0.00</temp>
<bpm>0</bpm>
<rpm>0.00</rpm>
</extensions>
</trkpt>
<trkpt lat="63.893199921" lon="-22.053243637">
<ele>156.734375</ele>
<time>2012-07-28T17:01:36Z</time>
<speed>3.320000</speed>
<extensions>
<speed>3.3</speed>
<temp>0.00</temp>
<bpm>0</bpm>
<rpm>0.00</rpm>
</extensions>
</trkpt>
<trkpt lat="63.893318176" lon="-22.053136826">
<ele>156.417969</ele>
<time>2012-07-28T17:01:41Z</time>
<speed>3.220000</speed>
<extensions>
<speed>3.2</speed>
<temp>0.00</temp>
<bpm>0</bpm>
<rpm>0.00</rpm>
</extensions>
</trkpt>
<trkpt lat="63.893470764" lon="-22.053001404">
<ele>159.812500</ele>
<time>2012-07-28T17:01:46Z</time>
<speed>3.070000</speed>
<extensions>
<speed>3.1</speed>
<temp>0.00</temp>
<bpm>0</bpm>
<rpm>0.00</rpm>
</extensions>
</trkpt>
<trkpt lat="63.893604279" lon="-22.052875519">
<ele>160.031250</ele>
<time>2012-07-28T17:01:51Z</time>
<speed>3.700000</speed>
<extensions>
<speed>3.7</speed>
<temp>0.00</temp>
<bpm>0</bpm>
<rpm>0.00</rpm>
</extensions>
</trkpt>
<trkpt lat="63.893753052" lon="-22.052730560">
<ele>160.222656</ele>
<time>2012-07-28T17:01:56Z</time>
<speed>3.110000</speed>
<extensions>
<speed>3.1</speed>
<temp>0.00</temp>
<bpm>0</bpm>
<rpm>0.00</rpm>
</extensions>
</trkpt>
<trkpt lat="63.893890381" lon="-22.052556992">
<ele>160.847656</ele>
<time>2012-07-28T17:02:01Z</time>
<speed>3.820000</speed>
<extensions>
<speed>3.8</speed>
<temp>0.00</temp>
<bpm>0</bpm>
<rpm>0.00</rpm>
</extensions>
</trkpt>
<trkpt lat="63.894012451" lon="-22.052396774">
<ele>160.082031</ele>
<time>2012-07-28T17:02:06Z</time>
<speed>2.760000</speed>
<extensions>
<speed>2.8</speed>
<temp>0.00</temp>
<bpm>0</bpm>
<rpm>0.00</rpm>
</extensions>
</trkpt>
<trkpt lat="63.894111633" lon="-22.052221298">
<ele>159.796875</ele>
<time>2012-07-28T17:02:11Z</time>
<speed>2.340000</speed>
<extensions>
<speed>2.3</speed>
<temp>0.00</temp>
<bpm>0</bpm>
<rpm>0.00</rpm>
</extensions>
</trkpt>
<trkpt lat="63.894161224" lon="-22.052120209">
<ele>157.269531</ele>
<time>2012-07-28T17:02:16Z</time>
<speed>1.500000</speed>
<extensions>
<speed>1.5</speed>
<temp>0.00</temp>
<bpm>0</bpm>
<rpm>0.00</rpm>
</extensions>
</trkpt>
<trkpt lat="63.894195557" lon="-22.052011490">
<ele>158.105469</ele>
<time>2012-07-28T17:02:21Z</time>
<speed>1.340000</speed>
<extensions>
<speed>1.3</speed>
<temp>0.00</temp>
<bpm>0</bpm>
<rpm>0.00</rpm>
</extensions>
</trkpt>
<trkpt lat="63.894180298" lon="-22.051982880">
<ele>159.179688</ele>
<time>2012-07-28T17:02:26Z</time>
<speed>0.740000</speed>
<extensions>
<speed>0.7</speed>
<temp>0.00</temp>
<bpm>0</bpm>
<rpm>0.00</rpm>
</extensions>
</trkpt>
<trkpt lat="63.894176483" lon="-22.051967621">
<ele>159.695313</ele>
<time>2012-07-28T17:02:31Z</time>
<speed>0.070000</speed>
<extensions>
<speed>0.1</speed>
<temp>0.00</temp>
<bpm>0</bpm>
<rpm>0.00</rpm>
</extensions>
</trkpt>
<trkpt lat="63.894180298" lon="-22.051969528">
<ele>159.996094</ele>
<time>2012-07-28T17:02:36Z</time>
<speed>0.030000</speed>
<extensions>
<speed>0.0</speed>
<temp>0.00</temp>
<bpm>0</bpm>
<rpm>0.00</rpm>
</extensions>
</trkpt>
<trkpt lat="63.894180298" lon="-22.051969528">
<ele>160.152344</ele>
<time>2012-07-28T17:02:41Z</time>
<extensions>
<speed>0.0</speed>
<temp>0.00</temp>
<bpm>0</bpm>
<rpm>0.00</rpm>
</extensions>
</trkpt>
<trkpt lat="63.894184113" lon="-22.051969528">
<ele>160.292969</ele>
<time>2012-07-28T17:02:46Z</time>
<speed>0.010000</speed>
<extensions>
<speed>0.0</speed>
<temp>0.00</temp>
<bpm>0</bpm>
<rpm>0.00</rpm>
</extensions>
</trkpt>
<trkpt lat="63.894180298" lon="-22.051969528">
<ele>160.425781</ele>
<time>2012-07-28T17:02:51Z</time>
<speed>0.070000</speed>
<extensions>
<speed>0.1</speed>
<temp>0.00</temp>
<bpm>0</bpm>
<rpm>0.00</rpm>
</extensions>
</trkpt>
<trkpt lat="63.894180298" lon="-22.051969528">
<ele>160.406250</ele>
<time>2012-07-28T17:02:56Z</time>
<extensions>
<speed>0.0</speed>
<temp>0.00</temp>
<bpm>0</bpm>
<rpm>0.00</rpm>
</extensions>
</trkpt>
<trkpt lat="63.894180298" lon="-22.051971436">
<ele>160.445313</ele>
<time>2012-07-28T17:03:01Z</time>
<speed>0.010000</speed>
<extensions>
<speed>0.0</speed>
<temp>0.00</temp>
<bpm>0</bpm>
<rpm>0.00</rpm>
</extensions>
</trkpt>
<trkpt lat="63.894180298" lon="-22.051971436">
<ele>160.488281</ele>
<time>2012-07-28T17:03:06Z</time>
<extensions>
<speed>0.0</speed>
<temp>0.00</temp>
<bpm>0</bpm>
<rpm>0.00</rpm>
</extensions>
</trkpt>
<trkpt lat="63.894180298" lon="-22.051971436">
<ele>160.488281</ele>
<time>2012-07-28T17:03:11Z</time>
<speed>0.040000</speed>
<extensions>
<speed>0.0</speed>
<temp>0.00</temp>
<bpm>0</bpm>
<rpm>0.00</rpm>
</extensions>
</trkpt>
<trkpt lat="63.894184113" lon="-22.051952362">
<ele>160.390625</ele>
<time>2012-07-28T17:03:16Z</time>
<speed>0.050000</speed>
<extensions>
<speed>0.1</speed>
<temp>0.00</temp>
<bpm>0</bpm>
<rpm>0.00</rpm>
</extensions>
</trkpt>
<trkpt lat="63.894184113" lon="-22.051954269">
<ele>160.382813</ele>
<time>2012-07-28T17:03:21Z</time>
<speed>0.010000</speed>
<extensions>
<speed>0.0</speed>
<temp>0.00</temp>
<bpm>0</bpm>
<rpm>0.00</rpm>
</extensions>
</trkpt>
<trkpt lat="63.894184113" lon="-22.051956177">
<ele>160.371094</ele>
<time>2012-07-28T17:03:26Z</time>
<speed>0.100000</speed>
<extensions>
<speed>0.1</speed>
<temp>0.00</temp>
<bpm>0</bpm>
<rpm>0.00</rpm>
</extensions>
</trkpt>
<trkpt lat="63.894184113" lon="-22.051956177">
<ele>160.359375</ele>
<time>2012-07-28T17:03:31Z</time>
<extensions>
<speed>0.0</speed>
<temp>0.00</temp>
<bpm>0</bpm>
<rpm>0.00</rpm>
</extensions>
</trkpt>
<trkpt lat="63.894184113" lon="-22.051958084">
<ele>160.363281</ele>
<time>2012-07-28T17:03:36Z</time>
<speed>0.020000</speed>
<extensions>
<speed>0.0</speed>
<temp>0.00</temp>
<bpm>0</bpm>
<rpm>0.00</rpm>
</extensions>
</trkpt>
<trkpt lat="63.894184113" lon="-22.051967621">
<ele>160.355469</ele>
<time>2012-07-28T17:03:41Z</time>
<speed>0.130000</speed>
<extensions>
<speed>0.1</speed>
<temp>0.00</temp>
<bpm>0</bpm>
<rpm>0.00</rpm>
</extensions>
</trkpt>
<trkpt lat="63.894180298" lon="-22.051969528">
<ele>160.339844</ele>
<time>2012-07-28T17:03:46Z</time>
<extensions>
<speed>0.0</speed>
<temp>0.00</temp>
<bpm>0</bpm>
<rpm>0.00</rpm>
</extensions>
</trkpt>
<trkpt lat="63.894180298" lon="-22.051969528">
<ele>160.359375</ele>
<time>2012-07-28T17:03:51Z</time>
<extensions>
<speed>0.0</speed>
<temp>0.00</temp>
<bpm>0</bpm>
<rpm>0.00</rpm>
</extensions>
</trkpt>
<trkpt lat="63.894184113" lon="-22.051969528">
<ele>160.371094</ele>
<time>2012-07-28T17:03:56Z</time>
<extensions>
<speed>0.0</speed>
<temp>0.00</temp>
<bpm>0</bpm>
<rpm>0.00</rpm>
</extensions>
</trkpt>
<trkpt lat="63.894184113" lon="-22.051969528">
<ele>160.363281</ele>
<time>2012-07-28T17:04:01Z</time>
<extensions>
<speed>0.0</speed>
<temp>0.00</temp>
<bpm>0</bpm>
<rpm>0.00</rpm>
</extensions>
</trkpt>
<trkpt lat="63.894184113" lon="-22.051967621">
<ele>160.359375</ele>
<time>2012-07-28T17:04:06Z</time>
<extensions>
<speed>0.0</speed>
<temp>0.00</temp>
<bpm>0</bpm>
<rpm>0.00</rpm>
</extensions>
</trkpt>
<trkpt lat="63.894184113" lon="-22.051967621">
<ele>160.355469</ele>
<time>2012-07-28T17:04:11Z</time>
<extensions>
<speed>0.0</speed>
<temp>0.00</temp>
<bpm>0</bpm>
<rpm>0.00</rpm>
</extensions>
</trkpt>
<trkpt lat="63.894184113" lon="-22.051967621">
<ele>160.359375</ele>
<time>2012-07-28T17:04:16Z</time>
<extensions>
<speed>0.0</speed>
<temp>0.00</temp>
<bpm>0</bpm>
<rpm>0.00</rpm>
</extensions>
</trkpt>
<trkpt lat="63.894184113" lon="-22.051967621">
<ele>160.355469</ele>
<time>2012-07-28T17:04:21Z</time>
<extensions>
<speed>0.0</speed>
<temp>0.00</temp>
<bpm>0</bpm>
<rpm>0.00</rpm>
</extensions>
</trkpt>
<trkpt lat="63.894184113" lon="-22.051967621">
<ele>160.343750</ele>
<time>2012-07-28T17:04:26Z</time>
<extensions>
<speed>0.0</speed>
<temp>0.00</temp>
<bpm>0</bpm>
<rpm>0.00</rpm>
</extensions>
</trkpt>
<trkpt lat="63.894184113" lon="-22.051967621">
<ele>160.359375</ele>
<time>2012-07-28T17:04:31Z</time>
<speed>0.010000</speed>
<extensions>
<speed>0.0</speed>
<temp>0.00</temp>
<bpm>0</bpm>
<rpm>0.00</rpm>
</extensions>
</trkpt>
<trkpt lat="63.894184113" lon="-22.051967621">
<ele>160.351563</ele>
<time>2012-07-28T17:04:36Z</time>
<extensions>
<speed>0.0</speed>
<temp>0.00</temp>
<bpm>0</bpm>
<rpm>0.00</rpm>
</extensions>
</trkpt>
<trkpt lat="63.894184113" lon="-22.051967621">
<ele>160.339844</ele>
<time>2012-07-28T17:04:41Z</time>
<speed>0.010000</speed>
<extensions>
<speed>0.0</speed>
<temp>0.00</temp>
<bpm>0</bpm>
<rpm>0.00</rpm>
</extensions>
</trkpt>
<trkpt lat="63.894184113" lon="-22.051967621">
<ele>160.339844</ele>
<time>2012-07-28T17:04:46Z</time>
<extensions>
<speed>0.0</speed>
<temp>0.00</temp>
<bpm>0</bpm>
<rpm>0.00</rpm>
</extensions>
</trkpt>
<trkpt lat="63.894184113" lon="-22.051967621">
<ele>160.343750</ele>
<time>2012-07-28T17:04:51Z</time>
<extensions>
<speed>0.0</speed>
<temp>0.00</temp>
<bpm>0</bpm>
<rpm>0.00</rpm>
</extensions>
</trkpt>
<trkpt lat="63.894184113" lon="-22.051967621">
<ele>160.359375</ele>
<time>2012-07-28T17:04:56Z</time>
<extensions>
<speed>0.0</speed>
<temp>0.00</temp>
<bpm>0</bpm>
<rpm>0.00</rpm>
</extensions>
</trkpt>
<trkpt lat="63.894184113" lon="-22.051965714">
<ele>160.359375</ele>
<time>2012-07-28T17:05:01Z</time>
<extensions>
<speed>0.0</speed>
<temp>0.00</temp>
<bpm>0</bpm>
<rpm>0.00</rpm>
</extensions>
</trkpt>
<trkpt lat="63.894184113" lon="-22.051965714">
<ele>160.359375</ele>
<time>2012-07-28T17:05:06Z</time>
<speed>0.010000</speed>
<extensions>
<speed>0.0</speed>
<temp>0.00</temp>
<bpm>0</bpm>
<rpm>0.00</rpm>
</extensions>
</trkpt>
<trkpt lat="63.894184113" lon="-22.051965714">
<ele>160.363281</ele>
<time>2012-07-28T17:05:11Z</time>
<extensions>
<speed>0.0</speed>
<temp>0.00</temp>
<bpm>0</bpm>
<rpm>0.00</rpm>
</extensions>
</trkpt>
<trkpt lat="63.894184113" lon="-22.051965714">
<ele>160.367188</ele>
<time>2012-07-28T17:05:16Z</time>
<extensions>
<speed>0.0</speed>
<temp>0.00</temp>
<bpm>0</bpm>
<rpm>0.00</rpm>
</extensions>
</trkpt>
<trkpt lat="63.894184113" lon="-22.051965714">
<ele>160.375000</ele>
<time>2012-07-28T17:05:21Z</time>
<extensions>
<speed>0.0</speed>
<temp>0.00</temp>
<bpm>0</bpm>
<rpm>0.00</rpm>
</extensions>
</trkpt>
<trkpt lat="63.894184113" lon="-22.051965714">
<ele>160.378906</ele>
<time>2012-07-28T17:05:26Z</time>
<extensions>
<speed>0.0</speed>
<temp>0.00</temp>
<bpm>0</bpm>
<rpm>0.00</rpm>
</extensions>
</trkpt>
<trkpt lat="63.894184113" lon="-22.051965714">
<ele>160.382813</ele>
<time>2012-07-28T17:05:31Z</time>
<extensions>
<speed>0.0</speed>
<temp>0.00</temp>
<bpm>0</bpm>
<rpm>0.00</rpm>
</extensions>
</trkpt>
<trkpt lat="63.894184113" lon="-22.051965714">
<ele>160.375000</ele>
<time>2012-07-28T17:05:36Z</time>
<extensions>
<speed>0.0</speed>
<temp>0.00</temp>
<bpm>0</bpm>
<rpm>0.00</rpm>
</extensions>
</trkpt>
<trkpt lat="63.894184113" lon="-22.051965714">
<ele>160.378906</ele>
<time>2012-07-28T17:05:41Z</time>
<extensions>
<speed>0.0</speed>
<temp>0.00</temp>
<bpm>0</bpm>
<rpm>0.00</rpm>
</extensions>
</trkpt>
<trkpt lat="63.894184113" lon="-22.051965714">
<ele>160.382813</ele>
<time>2012-07-28T17:05:46Z</time>
<speed>0.010000</speed>
<extensions>
<speed>0.0</speed>
<temp>0.00</temp>
<bpm>0</bpm>
<rpm>0.00</rpm>
</extensions>
</trkpt>
<trkpt lat="63.894184113" lon="-22.051965714">
<ele>160.378906</ele>
<time>2012-07-28T17:05:51Z</time>
<extensions>
<speed>0.0</speed>
<temp>0.00</temp>
<bpm>0</bpm>
<rpm>0.00</rpm>
</extensions>
</trkpt>
<trkpt lat="63.894184113" lon="-22.051965714">
<ele>160.371094</ele>
<time>2012-07-28T17:05:56Z</time>
<extensions>
<speed>0.0</speed>
<temp>0.00</temp>
<bpm>0</bpm>
<rpm>0.00</rpm>
</extensions>
</trkpt>
<trkpt lat="63.894184113" lon="-22.051965714">
<ele>160.363281</ele>
<time>2012-07-28T17:06:01Z</time>
<extensions>
<speed>0.0</speed>
<temp>0.00</temp>
<bpm>0</bpm>
<rpm>0.00</rpm>
</extensions>
</trkpt>
<trkpt lat="63.894184113" lon="-22.051965714">
<ele>160.351563</ele>
<time>2012-07-28T17:06:06Z</time>
<extensions>
<speed>0.0</speed>
<temp>0.00</temp>
<bpm>0</bpm>
<rpm>0.00</rpm>
</extensions>
</trkpt>
<trkpt lat="63.894184113" lon="-22.051965714">
<ele>160.332031</ele>
<time>2012-07-28T17:06:11Z</time>
<extensions>
<speed>0.0</speed>
<temp>0.00</temp>
<bpm>0</bpm>
<rpm>0.00</rpm>
</extensions>
</trkpt>
<trkpt lat="63.894184113" lon="-22.051965714">
<ele>160.320313</ele>
<time>2012-07-28T17:06:16Z</time>
<speed>0.010000</speed>
<extensions>
<speed>0.0</speed>
<temp>0.00</temp>
<bpm>0</bpm>
<rpm>0.00</rpm>
</extensions>
</trkpt>
<trkpt lat="63.894184113" lon="-22.051965714">
<ele>160.300781</ele>
<time>2012-07-28T17:06:21Z</time>
<extensions>
<speed>0.0</speed>
<temp>0.00</temp>
<bpm>0</bpm>
<rpm>0.00</rpm>
</extensions>
</trkpt>
<trkpt lat="63.894184113" lon="-22.051965714">
<ele>160.277344</ele>
<time>2012-07-28T17:06:26Z</time>
<extensions>
<speed>0.0</speed>
<temp>0.00</temp>
<bpm>0</bpm>
<rpm>0.00</rpm>
</extensions>
</trkpt>
<trkpt lat="63.894184113" lon="-22.051965714">
<ele>160.265625</ele>
<time>2012-07-28T17:06:31Z</time>
<extensions>
<speed>0.0</speed>
<temp>0.00</temp>
<bpm>0</bpm>
<rpm>0.00</rpm>
</extensions>
</trkpt>
<trkpt lat="63.894184113" lon="-22.051965714">
<ele>160.238281</ele>
<time>2012-07-28T17:06:36Z</time>
<extensions>
<speed>0.0</speed>
<temp>0.00</temp>
<bpm>0</bpm>
<rpm>0.00</rpm>
</extensions>
</trkpt>
<trkpt lat="63.894184113" lon="-22.051965714">
<ele>160.210938</ele>
<time>2012-07-28T17:06:41Z</time>
<extensions>
<speed>0.0</speed>
<temp>0.00</temp>
<bpm>0</bpm>
<rpm>0.00</rpm>
</extensions>
</trkpt>
<trkpt lat="63.894184113" lon="-22.051965714">
<ele>160.203125</ele>
<time>2012-07-28T17:06:46Z</time>
<speed>0.010000</speed>
<extensions>
<speed>0.0</speed>
<temp>0.00</temp>
<bpm>0</bpm>
<rpm>0.00</rpm>
</extensions>
</trkpt>
<trkpt lat="63.894184113" lon="-22.051965714">
<ele>160.187500</ele>
<time>2012-07-28T17:06:51Z</time>
<extensions>
<speed>0.0</speed>
<temp>0.00</temp>
<bpm>0</bpm>
<rpm>0.00</rpm>
</extensions>
</trkpt>
<trkpt lat="63.894184113" lon="-22.051965714">
<ele>160.175781</ele>
<time>2012-07-28T17:06:56Z</time>
<extensions>
<speed>0.0</speed>
<temp>0.00</temp>
<bpm>0</bpm>
<rpm>0.00</rpm>
</extensions>
</trkpt>
<trkpt lat="63.894184113" lon="-22.051965714">
<ele>160.148438</ele>
<time>2012-07-28T17:07:01Z</time>
<extensions>
<speed>0.0</speed>
<temp>0.00</temp>
<bpm>0</bpm>
<rpm>0.00</rpm>
</extensions>
</trkpt>
<trkpt lat="63.894184113" lon="-22.051965714">
<ele>160.136719</ele>
<time>2012-07-28T17:07:06Z</time>
<extensions>
<speed>0.0</speed>
<temp>0.00</temp>
<bpm>0</bpm>
<rpm>0.00</rpm>
</extensions>
</trkpt>
<trkpt lat="63.894184113" lon="-22.051965714">
<ele>160.125000</ele>
<time>2012-07-28T17:07:11Z</time>
<extensions>
<speed>0.0</speed>
<temp>0.00</temp>
<bpm>0</bpm>
<rpm>0.00</rpm>
</extensions>
</trkpt>
<trkpt lat="63.894184113" lon="-22.051965714">
<ele>160.089844</ele>
<time>2012-07-28T17:07:16Z</time>
<extensions>
<speed>0.0</speed>
<temp>0.00</temp>
<bpm>0</bpm>
<rpm>0.00</rpm>
</extensions>
</trkpt>
<trkpt lat="63.894184113" lon="-22.051965714">
<ele>160.097656</ele>
<time>2012-07-28T17:07:21Z</time>
<extensions>
<speed>0.0</speed>
<temp>0.00</temp>
<bpm>0</bpm>
<rpm>0.00</rpm>
</extensions>
</trkpt>
<trkpt lat="63.894184113" lon="-22.051965714">
<ele>160.105469</ele>
<time>2012-07-28T17:07:26Z</time>
<extensions>
<speed>0.0</speed>
<temp>0.00</temp>
<bpm>0</bpm>
<rpm>0.00</rpm>
</extensions>
</trkpt>
<trkpt lat="63.894184113" lon="-22.051965714">
<ele>160.113281</ele>
<time>2012-07-28T17:07:31Z</time>
<speed>0.020000</speed>
<extensions>
<speed>0.0</speed>
<temp>0.00</temp>
<bpm>0</bpm>
<rpm>0.00</rpm>
</extensions>
</trkpt>
<trkpt lat="63.894184113" lon="-22.051965714">
<ele>160.132813</ele>
<time>2012-07-28T17:07:36Z</time>
<extensions>
<speed>0.0</speed>
<temp>0.00</temp>
<bpm>0</bpm>
<rpm>0.00</rpm>
</extensions>
</trkpt>
<trkpt lat="63.894187927" lon="-22.051977158">
<ele>160.007813</ele>
<time>2012-07-28T17:07:41Z</time>
<speed>0.380000</speed>
<extensions>
<speed>0.4</speed>
<temp>0.00</temp>
<bpm>0</bpm>
<rpm>0.00</rpm>
</extensions>
</trkpt>
<trkpt lat="63.894203186" lon="-22.052024841">
<ele>160.101563</ele>
<time>2012-07-28T17:07:46Z</time>
<speed>0.450000</speed>
<extensions>
<speed>0.5</speed>
<temp>0.00</temp>
<bpm>0</bpm>
<rpm>0.00</rpm>
</extensions>
</trkpt>
<trkpt lat="63.894233704" lon="-22.052022934">
<ele>160.128906</ele>
<time>2012-07-28T17:07:51Z</time>
<speed>2.050000</speed>
<extensions>
<speed>2.1</speed>
<temp>0.00</temp>
<bpm>0</bpm>
<rpm>0.00</rpm>
</extensions>
</trkpt>
<trkpt lat="63.894374847" lon="-22.051813126">
<ele>160.707031</ele>
<time>2012-07-28T17:07:56Z</time>
<speed>3.920000</speed>
<extensions>
<speed>3.9</speed>
<temp>0.00</temp>
<bpm>0</bpm>
<rpm>0.00</rpm>
</extensions>
</trkpt>
<trkpt lat="63.894527435" lon="-22.051565170">
<ele>161.570313</ele>
<time>2012-07-28T17:08:01Z</time>
<speed>4.100000</speed>
<extensions>
<speed>4.1</speed>
<temp>0.00</temp>
<bpm>0</bpm>
<rpm>0.00</rpm>
</extensions>
</trkpt>
<trkpt lat="63.894676208" lon="-22.051292419">
<ele>162.281250</ele>
<time>2012-07-28T17:08:06Z</time>
<speed>3.750000</speed>
<extensions>
<speed>3.8</speed>
<temp>0.00</temp>
<bpm>0</bpm>
<rpm>0.00</rpm>
</extensions>
</trkpt>
<trkpt lat="63.894817352" lon="-22.051052094">
<ele>162.417969</ele>
<time>2012-07-28T17:08:11Z</time>
<speed>4.110000</speed>
<extensions>
<speed>4.1</speed>
<temp>0.00</temp>
<bpm>0</bpm>
<rpm>0.00</rpm>
</extensions>
</trkpt>
<trkpt lat="63.894973755" lon="-22.050804138">
<ele>162.457031</ele>
<time>2012-07-28T17:08:16Z</time>
<speed>4.200000</speed>
<extensions>
<speed>4.2</speed>
<temp>0.00</temp>
<bpm>0</bpm>
<rpm>0.00</rpm>
</extensions>
</trkpt>
<trkpt lat="63.895133972" lon="-22.051027298">
<ele>162.683594</ele>
<time>2012-07-28T17:08:21Z</time>
<speed>4.530000</speed>
<extensions>
<speed>4.5</speed>
<temp>0.00</temp>
<bpm>0</bpm>
<rpm>0.00</rpm>
</extensions>
</trkpt>
<trkpt lat="63.895233154" lon="-22.051322937">
<ele>163.042969</ele>
<time>2012-07-28T17:08:26Z</time>
<speed>3.290000</speed>
<extensions>
<speed>3.3</speed>
<temp>0.00</temp>
<bpm>0</bpm>
<rpm>0.00</rpm>
</extensions>
</trkpt>
<trkpt lat="63.895347595" lon="-22.051597595">
<ele>163.898438</ele>
<time>2012-07-28T17:08:31Z</time>
<speed>4.100000</speed>
<extensions>
<speed>4.1</speed>
<temp>0.00</temp>
<bpm>0</bpm>
<rpm>0.00</rpm>
</extensions>
</trkpt>
<trkpt lat="63.895484924" lon="-22.051845551">
<ele>165.179688</ele>
<time>2012-07-28T17:08:36Z</time>
<speed>4.150000</speed>
<extensions>
<speed>4.1</speed>
<temp>0.00</temp>
<bpm>0</bpm>
<rpm>0.00</rpm>
</extensions>
</trkpt>
<trkpt lat="63.895618439" lon="-22.051958084">
<ele>165.359375</ele>
<time>2012-07-28T17:08:41Z</time>
<speed>3.080000</speed>
<extensions>
<speed>3.1</speed>
<temp>0.00</temp>
<bpm>0</bpm>
<rpm>0.00</rpm>
</extensions>
</trkpt>
<trkpt lat="63.895763397" lon="-22.052101135">
<ele>165.726563</ele>
<time>2012-07-28T17:08:46Z</time>
<speed>3.530000</speed>
<extensions>
<speed>3.5</speed>
<temp>0.00</temp>
<bpm>0</bpm>
<rpm>0.00</rpm>
</extensions>
</trkpt>
<trkpt lat="63.895824432" lon="-22.052202225">
<ele>166.171875</ele>
<time>2012-07-28T17:08:51Z</time>
<speed>1.940000</speed>
<extensions>
<speed>1.9</speed>
<temp>0.00</temp>
<bpm>0</bpm>
<rpm>0.00</rpm>
</extensions>
</trkpt>
<trkpt lat="63.895866394" lon="-22.052270889">
<ele>166.546875</ele>
<time>2012-07-28T17:08:56Z</time>
<speed>0.080000</speed>
<extensions>
<speed>0.1</speed>
<temp>0.00</temp>
<bpm>0</bpm>
<rpm>0.00</rpm>
</extensions>
</trkpt>
<trkpt lat="63.895866394" lon="-22.052270889">
<ele>166.699219</ele>
<time>2012-07-28T17:09:01Z</time>
<speed>0.280000</speed>
<extensions>
<speed>0.3</speed>
<temp>0.00</temp>
<bpm>0</bpm>
<rpm>0.00</rpm>
</extensions>
</trkpt>
<trkpt lat="63.895885468" lon="-22.052286148">
<ele>166.785156</ele>
<time>2012-07-28T17:09:06Z</time>
<speed>0.350000</speed>
<extensions>
<speed>0.3</speed>
<temp>0.00</temp>
<bpm>0</bpm>
<rpm>0.00</rpm>
</extensions>
</trkpt>
<trkpt lat="63.895893097" lon="-22.052288055">
<ele>166.933594</ele>
<time>2012-07-28T17:09:11Z</time>
<speed>0.100000</speed>
<extensions>
<speed>0.1</speed>
<temp>0.00</temp>
<bpm>0</bpm>
<rpm>0.00</rpm>
</extensions>
</trkpt>
<trkpt lat="63.895893097" lon="-22.052295685">
<ele>167.023438</ele>
<time>2012-07-28T17:09:16Z</time>
<extensions>
<speed>0.0</speed>
<temp>0.00</temp>
<bpm>0</bpm>
<rpm>0.00</rpm>
</extensions>
</trkpt>
<trkpt lat="63.895893097" lon="-22.052297592">
<ele>167.011719</ele>
<time>2012-07-28T17:09:21Z</time>
<extensions>
<speed>0.0</speed>
<temp>0.00</temp>
<bpm>0</bpm>
<rpm>0.00</rpm>
</extensions>
</trkpt>
<trkpt lat="63.895893097" lon="-22.052297592">
<ele>167.031250</ele>
<time>2012-07-28T17:09:26Z</time>
<speed>0.020000</speed>
<extensions>
<speed>0.0</speed>
<temp>0.00</temp>
<bpm>0</bpm>
<rpm>0.00</rpm>
</extensions>
</trkpt>
<trkpt lat="63.895893097" lon="-22.052297592">
<ele>167.023438</ele>
<time>2012-07-28T17:09:31Z</time>
<extensions>
<speed>0.0</speed>
<temp>0.00</temp>
<bpm>0</bpm>
<rpm>0.00</rpm>
</extensions>
</trkpt>
<trkpt lat="63.895893097" lon="-22.052297592">
<ele>166.992188</ele>
<time>2012-07-28T17:09:36Z</time>
<extensions>
<speed>0.0</speed>
<temp>0.00</temp>
<bpm>0</bpm>
<rpm>0.00</rpm>
</extensions>
</trkpt>
<trkpt lat="63.895893097" lon="-22.052297592">
<ele>166.972656</ele>
<time>2012-07-28T17:09:41Z</time>
<extensions>
<speed>0.0</speed>
<temp>0.00</temp>
<bpm>0</bpm>
<rpm>0.00</rpm>
</extensions>
</trkpt>
<trkpt lat="63.895893097" lon="-22.052297592">
<ele>166.972656</ele>
<time>2012-07-28T17:09:46Z</time>
<extensions>
<speed>0.0</speed>
<temp>0.00</temp>
<bpm>0</bpm>
<rpm>0.00</rpm>
</extensions>
</trkpt>
<trkpt lat="63.895893097" lon="-22.052297592">
<ele>166.980469</ele>
<time>2012-07-28T17:09:51Z</time>
<speed>0.010000</speed>
<extensions>
<speed>0.0</speed>
<temp>0.00</temp>
<bpm>0</bpm>
<rpm>0.00</rpm>
</extensions>
</trkpt>
<trkpt lat="63.895893097" lon="-22.052297592">
<ele>166.988281</ele>
<time>2012-07-28T17:09:56Z</time>
<extensions>
<speed>0.0</speed>
<temp>0.00</temp>
<bpm>0</bpm>
<rpm>0.00</rpm>
</extensions>
</trkpt>
<trkpt lat="63.895893097" lon="-22.052297592">
<ele>166.992188</ele>
<time>2012-07-28T17:10:01Z</time>
<extensions>
<speed>0.0</speed>
<temp>0.00</temp>
<bpm>0</bpm>
<rpm>0.00</rpm>
</extensions>
</trkpt>
<trkpt lat="63.895896912" lon="-22.052297592">
<ele>166.980469</ele>
<time>2012-07-28T17:10:06Z</time>
<speed>0.010000</speed>
<extensions>
<speed>0.0</speed>
<temp>0.00</temp>
<bpm>0</bpm>
<rpm>0.00</rpm>
</extensions>
</trkpt>
<trkpt lat="63.895896912" lon="-22.052297592">
<ele>166.972656</ele>
<time>2012-07-28T17:10:11Z</time>
<extensions>
<speed>0.0</speed>
<temp>0.00</temp>
<bpm>0</bpm>
<rpm>0.00</rpm>
</extensions>
</trkpt>
<trkpt lat="63.895896912" lon="-22.052297592">
<ele>166.957031</ele>
<time>2012-07-28T17:10:16Z</time>
<extensions>
<speed>0.0</speed>
<temp>0.00</temp>
<bpm>0</bpm>
<rpm>0.00</rpm>
</extensions>
</trkpt>
<trkpt lat="63.895896912" lon="-22.052297592">
<ele>166.953125</ele>
<time>2012-07-28T17:10:21Z</time>
<extensions>
<speed>0.0</speed>
<temp>0.00</temp>
<bpm>0</bpm>
<rpm>0.00</rpm>
</extensions>
</trkpt>
<trkpt lat="63.895896912" lon="-22.052297592">
<ele>166.957031</ele>
<time>2012-07-28T17:10:26Z</time>
<extensions>
<speed>0.0</speed>
<temp>0.00</temp>
<bpm>0</bpm>
<rpm>0.00</rpm>
</extensions>
</trkpt>
<trkpt lat="63.895896912" lon="-22.052299500">
<ele>166.957031</ele>
<time>2012-07-28T17:10:31Z</time>
<extensions>
<speed>0.0</speed>
<temp>0.00</temp>
<bpm>0</bpm>
<rpm>0.00</rpm>
</extensions>
</trkpt>
<trkpt lat="63.895896912" lon="-22.052299500">
<ele>166.964844</ele>
<time>2012-07-28T17:10:36Z</time>
<extensions>
<speed>0.0</speed>
<temp>0.00</temp>
<bpm>0</bpm>
<rpm>0.00</rpm>
</extensions>
</trkpt>
<trkpt lat="63.895896912" lon="-22.052297592">
<ele>166.980469</ele>
<time>2012-07-28T17:10:41Z</time>
<extensions>
<speed>0.0</speed>
<temp>0.00</temp>
<bpm>0</bpm>
<rpm>0.00</rpm>
</extensions>
</trkpt>
<trkpt lat="63.895896912" lon="-22.052297592">
<ele>167.007813</ele>
<time>2012-07-28T17:10:46Z</time>
<speed>0.010000</speed>
<extensions>
<speed>0.0</speed>
<temp>0.00</temp>
<bpm>0</bpm>
<rpm>0.00</rpm>
</extensions>
</trkpt>
<trkpt lat="63.895896912" lon="-22.052297592">
<ele>167.039063</ele>
<time>2012-07-28T17:10:51Z</time>
<extensions>
<speed>0.0</speed>
<temp>0.00</temp>
<bpm>0</bpm>
<rpm>0.00</rpm>
</extensions>
</trkpt>
<trkpt lat="63.895896912" lon="-22.052297592">
<ele>167.046875</ele>
<time>2012-07-28T17:10:56Z</time>
<speed>0.010000</speed>
<extensions>
<speed>0.0</speed>
<temp>0.00</temp>
<bpm>0</bpm>
<rpm>0.00</rpm>
</extensions>
</trkpt>
<trkpt lat="63.895896912" lon="-22.052299500">
<ele>167.066406</ele>
<time>2012-07-28T17:11:01Z</time>
<extensions>
<speed>0.0</speed>
<temp>0.00</temp>
<bpm>0</bpm>
<rpm>0.00</rpm>
</extensions>
</trkpt>
<trkpt lat="63.895896912" lon="-22.052299500">
<ele>167.066406</ele>
<time>2012-07-28T17:11:06Z</time>
<extensions>
<speed>0.0</speed>
<temp>0.00</temp>
<bpm>0</bpm>
<rpm>0.00</rpm>
</extensions>
</trkpt>
<trkpt lat="63.895896912" lon="-22.052299500">
<ele>167.074219</ele>
<time>2012-07-28T17:11:11Z</time>
<extensions>
<speed>0.0</speed>
<temp>0.00</temp>
<bpm>0</bpm>
<rpm>0.00</rpm>
</extensions>
</trkpt>
<trkpt lat="63.895896912" lon="-22.052299500">
<ele>167.082031</ele>
<time>2012-07-28T17:11:16Z</time>
<speed>0.010000</speed>
<extensions>
<speed>0.0</speed>
<temp>0.00</temp>
<bpm>0</bpm>
<rpm>0.00</rpm>
</extensions>
</trkpt>
<trkpt lat="63.895896912" lon="-22.052299500">
<ele>167.097656</ele>
<time>2012-07-28T17:11:21Z</time>
<extensions>
<speed>0.0</speed>
<temp>0.00</temp>
<bpm>0</bpm>
<rpm>0.00</rpm>
</extensions>
</trkpt>
<trkpt lat="63.895896912" lon="-22.052299500">
<ele>167.097656</ele>
<time>2012-07-28T17:11:26Z</time>
<speed>0.010000</speed>
<extensions>
<speed>0.0</speed>
<temp>0.00</temp>
<bpm>0</bpm>
<rpm>0.00</rpm>
</extensions>
</trkpt>
<trkpt lat="63.895896912" lon="-22.052301407">
<ele>167.105469</ele>
<time>2012-07-28T17:11:31Z</time>
<speed>0.010000</speed>
<extensions>
<speed>0.0</speed>
<temp>0.00</temp>
<bpm>0</bpm>
<rpm>0.00</rpm>
</extensions>
</trkpt>
<trkpt lat="63.895896912" lon="-22.052301407">
<ele>167.113281</ele>
<time>2012-07-28T17:11:36Z</time>
<extensions>
<speed>0.0</speed>
<temp>0.00</temp>
<bpm>0</bpm>
<rpm>0.00</rpm>
</extensions>
</trkpt>
<trkpt lat="63.895896912" lon="-22.052301407">
<ele>167.105469</ele>
<time>2012-07-28T17:11:41Z</time>
<speed>0.010000</speed>
<extensions>
<speed>0.0</speed>
<temp>0.00</temp>
<bpm>0</bpm>
<rpm>0.00</rpm>
</extensions>
</trkpt>
<trkpt lat="63.895896912" lon="-22.052301407">
<ele>167.097656</ele>
<time>2012-07-28T17:11:46Z</time>
<extensions>
<speed>0.0</speed>
<temp>0.00</temp>
<bpm>0</bpm>
<rpm>0.00</rpm>
</extensions>
</trkpt>
<trkpt lat="63.895896912" lon="-22.052301407">
<ele>167.089844</ele>
<time>2012-07-28T17:11:51Z</time>
<extensions>
<speed>0.0</speed>
<temp>0.00</temp>
<bpm>0</bpm>
<rpm>0.00</rpm>
</extensions>
</trkpt>
<trkpt lat="63.895896912" lon="-22.052301407">
<ele>167.058594</ele>
<time>2012-07-28T17:11:56Z</time>
<extensions>
<speed>0.0</speed>
<temp>0.00</temp>
<bpm>0</bpm>
<rpm>0.00</rpm>
</extensions>
</trkpt>
<trkpt lat="63.895896912" lon="-22.052301407">
<ele>167.062500</ele>
<time>2012-07-28T17:12:01Z</time>
<speed>0.010000</speed>
<extensions>
<speed>0.0</speed>
<temp>0.00</temp>
<bpm>0</bpm>
<rpm>0.00</rpm>
</extensions>
</trkpt>
<trkpt lat="63.895896912" lon="-22.052301407">
<ele>167.054688</ele>
<time>2012-07-28T17:12:06Z</time>
<speed>0.010000</speed>
<extensions>
<speed>0.0</speed>
<temp>0.00</temp>
<bpm>0</bpm>
<rpm>0.00</rpm>
</extensions>
</trkpt>
<trkpt lat="63.895896912" lon="-22.052299500">
<ele>167.058594</ele>
<time>2012-07-28T17:12:11Z</time>
<speed>0.010000</speed>
<extensions>
<speed>0.0</speed>
<temp>0.00</temp>
<bpm>0</bpm>
<rpm>0.00</rpm>
</extensions>
</trkpt>
<trkpt lat="63.895896912" lon="-22.052299500">
<ele>167.054688</ele>
<time>2012-07-28T17:12:16Z</time>
<speed>0.010000</speed>
<extensions>
<speed>0.0</speed>
<temp>0.00</temp>
<bpm>0</bpm>
<rpm>0.00</rpm>
</extensions>
</trkpt>
<trkpt lat="63.895896912" lon="-22.052299500">
<ele>167.042969</ele>
<time>2012-07-28T17:12:21Z</time>
<extensions>
<speed>0.0</speed>
<temp>0.00</temp>
<bpm>0</bpm>
<rpm>0.00</rpm>
</extensions>
</trkpt>
<trkpt lat="63.895896912" lon="-22.052299500">
<ele>167.011719</ele>
<time>2012-07-28T17:12:26Z</time>
<speed>0.010000</speed>
<extensions>
<speed>0.0</speed>
<temp>0.00</temp>
<bpm>0</bpm>
<rpm>0.00</rpm>
</extensions>
</trkpt>
<trkpt lat="63.895896912" lon="-22.052299500">
<ele>167.023438</ele>
<time>2012-07-28T17:12:31Z</time>
<speed>0.010000</speed>
<extensions>
<speed>0.0</speed>
<temp>0.00</temp>
<bpm>0</bpm>
<rpm>0.00</rpm>
</extensions>
</trkpt>
<trkpt lat="63.895896912" lon="-22.052299500">
<ele>167.011719</ele>
<time>2012-07-28T17:12:36Z</time>
<extensions>
<speed>0.0</speed>
<temp>0.00</temp>
<bpm>0</bpm>
<rpm>0.00</rpm>
</extensions>
</trkpt>
<trkpt lat="63.895896912" lon="-22.052299500">
<ele>167.019531</ele>
<time>2012-07-28T17:12:41Z</time>
<speed>0.010000</speed>
<extensions>
<speed>0.0</speed>
<temp>0.00</temp>
<bpm>0</bpm>
<rpm>0.00</rpm>
</extensions>
</trkpt>
<trkpt lat="63.895900726" lon="-22.052299500">
<ele>167.031250</ele>
<time>2012-07-28T17:12:46Z</time>
<speed>0.010000</speed>
<extensions>
<speed>0.0</speed>
<temp>0.00</temp>
<bpm>0</bpm>
<rpm>0.00</rpm>
</extensions>
</trkpt>
<trkpt lat="63.895900726" lon="-22.052299500">
<ele>167.035156</ele>
<time>2012-07-28T17:12:51Z</time>
<speed>0.010000</speed>
<extensions>
<speed>0.0</speed>
<temp>0.00</temp>
<bpm>0</bpm>
<rpm>0.00</rpm>
</extensions>
</trkpt>
<trkpt lat="63.895900726" lon="-22.052299500">
<ele>167.050781</ele>
<time>2012-07-28T17:12:56Z</time>
<speed>0.020000</speed>
<extensions>
<speed>0.0</speed>
<temp>0.00</temp>
<bpm>0</bpm>
<rpm>0.00</rpm>
</extensions>
</trkpt>
<trkpt lat="63.895900726" lon="-22.052299500">
<ele>167.074219</ele>
<time>2012-07-28T17:13:01Z</time>
<extensions>
<speed>0.0</speed>
<temp>0.00</temp>
<bpm>0</bpm>
<rpm>0.00</rpm>
</extensions>
</trkpt>
<trkpt lat="63.895900726" lon="-22.052299500">
<ele>167.078125</ele>
<time>2012-07-28T17:13:06Z</time>
<extensions>
<speed>0.0</speed>
<temp>0.00</temp>
<bpm>0</bpm>
<rpm>0.00</rpm>
</extensions>
</trkpt>
<trkpt lat="63.895900726" lon="-22.052299500">
<ele>167.101563</ele>
<time>2012-07-28T17:13:11Z</time>
<extensions>
<speed>0.0</speed>
<temp>0.00</temp>
<bpm>0</bpm>
<rpm>0.00</rpm>
</extensions>
</trkpt>
<trkpt lat="63.895900726" lon="-22.052299500">
<ele>167.101563</ele>
<time>2012-07-28T17:13:16Z</time>
<speed>0.010000</speed>
<extensions>
<speed>0.0</speed>
<temp>0.00</temp>
<bpm>0</bpm>
<rpm>0.00</rpm>
</extensions>
</trkpt>
<trkpt lat="63.895900726" lon="-22.052299500">
<ele>167.109375</ele>
<time>2012-07-28T17:13:21Z</time>
<speed>0.010000</speed>
<extensions>
<speed>0.0</speed>
<temp>0.00</temp>
<bpm>0</bpm>
<rpm>0.00</rpm>
</extensions>
</trkpt>
<trkpt lat="63.895900726" lon="-22.052299500">
<ele>167.117188</ele>
<time>2012-07-28T17:13:26Z</time>
<extensions>
<speed>0.0</speed>
<temp>0.00</temp>
<bpm>0</bpm>
<rpm>0.00</rpm>
</extensions>
</trkpt>
<trkpt lat="63.895900726" lon="-22.052299500">
<ele>167.140625</ele>
<time>2012-07-28T17:13:31Z</time>
<speed>0.010000</speed>
<extensions>
<speed>0.0</speed>
<temp>0.00</temp>
<bpm>0</bpm>
<rpm>0.00</rpm>
</extensions>
</trkpt>
<trkpt lat="63.895900726" lon="-22.052299500">
<ele>167.167969</ele>
<time>2012-07-28T17:13:36Z</time>
<extensions>
<speed>0.0</speed>
<temp>0.00</temp>
<bpm>0</bpm>
<rpm>0.00</rpm>
</extensions>
</trkpt>
<trkpt lat="63.895900726" lon="-22.052299500">
<ele>167.171875</ele>
<time>2012-07-28T17:13:41Z</time>
<speed>0.020000</speed>
<extensions>
<speed>0.0</speed>
<temp>0.00</temp>
<bpm>0</bpm>
<rpm>0.00</rpm>
</extensions>
</trkpt>
<trkpt lat="63.895900726" lon="-22.052297592">
<ele>167.207031</ele>
<time>2012-07-28T17:13:46Z</time>
<extensions>
<speed>0.0</speed>
<temp>0.00</temp>
<bpm>0</bpm>
<rpm>0.00</rpm>
</extensions>
</trkpt>
<trkpt lat="63.895900726" lon="-22.052297592">
<ele>167.210938</ele>
<time>2012-07-28T17:13:51Z</time>
<extensions>
<speed>0.0</speed>
<temp>0.00</temp>
<bpm>0</bpm>
<rpm>0.00</rpm>
</extensions>
</trkpt>
<trkpt lat="63.895900726" lon="-22.052297592">
<ele>167.214844</ele>
<time>2012-07-28T17:13:56Z</time>
<extensions>
<speed>0.0</speed>
<temp>0.00</temp>
<bpm>0</bpm>
<rpm>0.00</rpm>
</extensions>
</trkpt>
<trkpt lat="63.895900726" lon="-22.052297592">
<ele>167.218750</ele>
<time>2012-07-28T17:14:01Z</time>
<speed>0.010000</speed>
<extensions>
<speed>0.0</speed>
<temp>0.00</temp>
<bpm>0</bpm>
<rpm>0.00</rpm>
</extensions>
</trkpt>
<trkpt lat="63.895900726" lon="-22.052297592">
<ele>167.195313</ele>
<time>2012-07-28T17:14:06Z</time>
<extensions>
<speed>0.0</speed>
<temp>0.00</temp>
<bpm>0</bpm>
<rpm>0.00</rpm>
</extensions>
</trkpt>
<trkpt lat="63.895900726" lon="-22.052297592">
<ele>167.195313</ele>
<time>2012-07-28T17:14:11Z</time>
<speed>0.010000</speed>
<extensions>
<speed>0.0</speed>
<temp>0.00</temp>
<bpm>0</bpm>
<rpm>0.00</rpm>
</extensions>
</trkpt>
<trkpt lat="63.895900726" lon="-22.052297592">
<ele>167.203125</ele>
<time>2012-07-28T17:14:16Z</time>
<speed>0.010000</speed>
<extensions>
<speed>0.0</speed>
<temp>0.00</temp>
<bpm>0</bpm>
<rpm>0.00</rpm>
</extensions>
</trkpt>
<trkpt lat="63.895900726" lon="-22.052297592">
<ele>167.218750</ele>
<time>2012-07-28T17:14:21Z</time>
<speed>0.010000</speed>
<extensions>
<speed>0.0</speed>
<temp>0.00</temp>
<bpm>0</bpm>
<rpm>0.00</rpm>
</extensions>
</trkpt>
<trkpt lat="63.895900726" lon="-22.052297592">
<ele>167.230469</ele>
<time>2012-07-28T17:14:26Z</time>
<speed>0.020000</speed>
<extensions>
<speed>0.0</speed>
<temp>0.00</temp>
<bpm>0</bpm>
<rpm>0.00</rpm>
</extensions>
</trkpt>
<trkpt lat="63.895904541" lon="-22.052299500">
<ele>167.242188</ele>
<time>2012-07-28T17:14:31Z</time>
<extensions>
<speed>0.0</speed>
<temp>0.00</temp>
<bpm>0</bpm>
<rpm>0.00</rpm>
</extensions>
</trkpt>
<trkpt lat="63.895904541" lon="-22.052297592">
<ele>167.246094</ele>
<time>2012-07-28T17:14:36Z</time>
<extensions>
<speed>0.0</speed>
<temp>0.00</temp>
<bpm>0</bpm>
<rpm>0.00</rpm>
</extensions>
</trkpt>
<trkpt lat="63.895904541" lon="-22.052297592">
<ele>167.261719</ele>
<time>2012-07-28T17:14:41Z</time>
<speed>0.010000</speed>
<extensions>
<speed>0.0</speed>
<temp>0.00</temp>
<bpm>0</bpm>
<rpm>0.00</rpm>
</extensions>
</trkpt>
<trkpt lat="63.895904541" lon="-22.052297592">
<ele>167.250000</ele>
<time>2012-07-28T17:14:46Z</time>
<extensions>
<speed>0.0</speed>
<temp>0.00</temp>
<bpm>0</bpm>
<rpm>0.00</rpm>
</extensions>
</trkpt>
<trkpt lat="63.895904541" lon="-22.052297592">
<ele>167.277344</ele>
<time>2012-07-28T17:14:51Z</time>
<speed>0.010000</speed>
<extensions>
<speed>0.0</speed>
<temp>0.00</temp>
<bpm>0</bpm>
<rpm>0.00</rpm>
</extensions>
</trkpt>
<trkpt lat="63.895904541" lon="-22.052299500">
<ele>167.296875</ele>
<time>2012-07-28T17:14:56Z</time>
<speed>0.010000</speed>
<extensions>
<speed>0.0</speed>
<temp>0.00</temp>
<bpm>0</bpm>
<rpm>0.00</rpm>
</extensions>
</trkpt>
<trkpt lat="63.895904541" lon="-22.052299500">
<ele>167.316406</ele>
<time>2012-07-28T17:15:01Z</time>
<speed>0.010000</speed>
<extensions>
<speed>0.0</speed>
<temp>0.00</temp>
<bpm>0</bpm>
<rpm>0.00</rpm>
</extensions>
</trkpt>
<trkpt lat="63.895904541" lon="-22.052299500">
<ele>167.324219</ele>
<time>2012-07-28T17:15:06Z</time>
<speed>0.010000</speed>
<extensions>
<speed>0.0</speed>
<temp>0.00</temp>
<bpm>0</bpm>
<rpm>0.00</rpm>
</extensions>
</trkpt>
<trkpt lat="63.895904541" lon="-22.052297592">
<ele>167.339844</ele>
<time>2012-07-28T17:15:11Z</time>
<extensions>
<speed>0.0</speed>
<temp>0.00</temp>
<bpm>0</bpm>
<rpm>0.00</rpm>
</extensions>
</trkpt>
<trkpt lat="63.895904541" lon="-22.052297592">
<ele>167.367188</ele>
<time>2012-07-28T17:15:16Z</time>
<speed>0.010000</speed>
<extensions>
<speed>0.0</speed>
<temp>0.00</temp>
<bpm>0</bpm>
<rpm>0.00</rpm>
</extensions>
</trkpt>
<trkpt lat="63.895904541" lon="-22.052299500">
<ele>167.386719</ele>
<time>2012-07-28T17:15:21Z</time>
<speed>0.010000</speed>
<extensions>
<speed>0.0</speed>
<temp>0.00</temp>
<bpm>0</bpm>
<rpm>0.00</rpm>
</extensions>
</trkpt>
<trkpt lat="63.895904541" lon="-22.052299500">
<ele>167.425781</ele>
<time>2012-07-28T17:15:26Z</time>
<extensions>
<speed>0.0</speed>
<temp>0.00</temp>
<bpm>0</bpm>
<rpm>0.00</rpm>
</extensions>
</trkpt>
<trkpt lat="63.895904541" lon="-22.052299500">
<ele>167.433594</ele>
<time>2012-07-28T17:15:31Z</time>
<speed>0.010000</speed>
<extensions>
<speed>0.0</speed>
<temp>0.00</temp>
<bpm>0</bpm>
<rpm>0.00</rpm>
</extensions>
</trkpt>
<trkpt lat="63.895904541" lon="-22.052299500">
<ele>167.425781</ele>
<time>2012-07-28T17:15:36Z</time>
<speed>0.010000</speed>
<extensions>
<speed>0.0</speed>
<temp>0.00</temp>
<bpm>0</bpm>
<rpm>0.00</rpm>
</extensions>
</trkpt>
<trkpt lat="63.895904541" lon="-22.052299500">
<ele>167.421875</ele>
<time>2012-07-28T17:15:41Z</time>
<speed>0.010000</speed>
<extensions>
<speed>0.0</speed>
<temp>0.00</temp>
<bpm>0</bpm>
<rpm>0.00</rpm>
</extensions>
</trkpt>
<trkpt lat="63.895904541" lon="-22.052299500">
<ele>167.429688</ele>
<time>2012-07-28T17:15:46Z</time>
<speed>0.010000</speed>
<extensions>
<speed>0.0</speed>
<temp>0.00</temp>
<bpm>0</bpm>
<rpm>0.00</rpm>
</extensions>
</trkpt>
<trkpt lat="63.895904541" lon="-22.052299500">
<ele>167.437500</ele>
<time>2012-07-28T17:15:51Z</time>
<speed>0.010000</speed>
<extensions>
<speed>0.0</speed>
<temp>0.00</temp>
<bpm>0</bpm>
<rpm>0.00</rpm>
</extensions>
</trkpt>
<trkpt lat="63.895908356" lon="-22.052297592">
<ele>167.445313</ele>
<time>2012-07-28T17:15:56Z</time>
<extensions>
<speed>0.0</speed>
<temp>0.00</temp>
<bpm>0</bpm>
<rpm>0.00</rpm>
</extensions>
</trkpt>
<trkpt lat="63.895908356" lon="-22.052297592">
<ele>167.445313</ele>
<time>2012-07-28T17:16:01Z</time>
<extensions>
<speed>0.0</speed>
<temp>0.00</temp>
<bpm>0</bpm>
<rpm>0.00</rpm>
</extensions>
</trkpt>
<trkpt lat="63.895908356" lon="-22.052297592">
<ele>167.453125</ele>
<time>2012-07-28T17:16:06Z</time>
<extensions>
<speed>0.0</speed>
<temp>0.00</temp>
<bpm>0</bpm>
<rpm>0.00</rpm>
</extensions>
</trkpt>
<trkpt lat="63.895908356" lon="-22.052297592">
<ele>167.453125</ele>
<time>2012-07-28T17:16:11Z</time>
<speed>0.010000</speed>
<extensions>
<speed>0.0</speed>
<temp>0.00</temp>
<bpm>0</bpm>
<rpm>0.00</rpm>
</extensions>
</trkpt>
<trkpt lat="63.895908356" lon="-22.052297592">
<ele>167.460938</ele>
<time>2012-07-28T17:16:16Z</time>
<speed>0.020000</speed>
<extensions>
<speed>0.0</speed>
<temp>0.00</temp>
<bpm>0</bpm>
<rpm>0.00</rpm>
</extensions>
</trkpt>
<trkpt lat="63.895908356" lon="-22.052297592">
<ele>167.500000</ele>
<time>2012-07-28T17:16:21Z</time>
<extensions>
<speed>0.0</speed>
<temp>0.00</temp>
<bpm>0</bpm>
<rpm>0.00</rpm>
</extensions>
</trkpt>
<trkpt lat="63.895908356" lon="-22.052297592">
<ele>167.535156</ele>
<time>2012-07-28T17:16:26Z</time>
<speed>0.020000</speed>
<extensions>
<speed>0.0</speed>
<temp>0.00</temp>
<bpm>0</bpm>
<rpm>0.00</rpm>
</extensions>
</trkpt>
<trkpt lat="63.895908356" lon="-22.052297592">
<ele>167.550781</ele>
<time>2012-07-28T17:16:31Z</time>
<extensions>
<speed>0.0</speed>
<temp>0.00</temp>
<bpm>0</bpm>
<rpm>0.00</rpm>
</extensions>
</trkpt>
<trkpt lat="63.895908356" lon="-22.052297592">
<ele>167.585938</ele>
<time>2012-07-28T17:16:36Z</time>
<speed>0.010000</speed>
<extensions>
<speed>0.0</speed>
<temp>0.00</temp>
<bpm>0</bpm>
<rpm>0.00</rpm>
</extensions>
</trkpt>
<trkpt lat="63.895908356" lon="-22.052297592">
<ele>167.582031</ele>
<time>2012-07-28T17:16:41Z</time>
<speed>0.010000</speed>
<extensions>
<speed>0.0</speed>
<temp>0.00</temp>
<bpm>0</bpm>
<rpm>0.00</rpm>
</extensions>
</trkpt>
<trkpt lat="63.895908356" lon="-22.052295685">
<ele>167.582031</ele>
<time>2012-07-28T17:16:46Z</time>
<speed>0.030000</speed>
<extensions>
<speed>0.0</speed>
<temp>0.00</temp>
<bpm>0</bpm>
<rpm>0.00</rpm>
</extensions>
</trkpt>
<trkpt lat="63.895908356" lon="-22.052295685">
<ele>167.574219</ele>
<time>2012-07-28T17:16:51Z</time>
<speed>0.010000</speed>
<extensions>
<speed>0.0</speed>
<temp>0.00</temp>
<bpm>0</bpm>
<rpm>0.00</rpm>
</extensions>
</trkpt>
<trkpt lat="63.895908356" lon="-22.052295685">
<ele>167.570313</ele>
<time>2012-07-28T17:16:56Z</time>
<extensions>
<speed>0.0</speed>
<temp>0.00</temp>
<bpm>0</bpm>
<rpm>0.00</rpm>
</extensions>
</trkpt>
<trkpt lat="63.895908356" lon="-22.052295685">
<ele>167.605469</ele>
<time>2012-07-28T17:17:01Z</time>
<speed>0.010000</speed>
<extensions>
<speed>0.0</speed>
<temp>0.00</temp>
<bpm>0</bpm>
<rpm>0.00</rpm>
</extensions>
</trkpt>
<trkpt lat="63.895908356" lon="-22.052293777">
<ele>167.605469</ele>
<time>2012-07-28T17:17:06Z</time>
<extensions>
<speed>0.0</speed>
<temp>0.00</temp>
<bpm>0</bpm>
<rpm>0.00</rpm>
</extensions>
</trkpt>
<trkpt lat="63.895908356" lon="-22.052293777">
<ele>167.648438</ele>
<time>2012-07-28T17:17:11Z</time>
<speed>0.010000</speed>
<extensions>
<speed>0.0</speed>
<temp>0.00</temp>
<bpm>0</bpm>
<rpm>0.00</rpm>
</extensions>
</trkpt>
<trkpt lat="63.895908356" lon="-22.052293777">
<ele>167.691406</ele>
<time>2012-07-28T17:17:16Z</time>
<speed>0.010000</speed>
<extensions>
<speed>0.0</speed>
<temp>0.00</temp>
<bpm>0</bpm>
<rpm>0.00</rpm>
</extensions>
</trkpt>
<trkpt lat="63.895912170" lon="-22.052295685">
<ele>167.710938</ele>
<time>2012-07-28T17:17:21Z</time>
<extensions>
<speed>0.0</speed>
<temp>0.00</temp>
<bpm>0</bpm>
<rpm>0.00</rpm>
</extensions>
</trkpt>
<trkpt lat="63.895912170" lon="-22.052295685">
<ele>167.726563</ele>
<time>2012-07-28T17:17:26Z</time>
<extensions>
<speed>0.0</speed>
<temp>0.00</temp>
<bpm>0</bpm>
<rpm>0.00</rpm>
</extensions>
</trkpt>
<trkpt lat="63.895912170" lon="-22.052295685">
<ele>167.742188</ele>
<time>2012-07-28T17:17:31Z</time>
<speed>0.020000</speed>
<extensions>
<speed>0.0</speed>
<temp>0.00</temp>
<bpm>0</bpm>
<rpm>0.00</rpm>
</extensions>
</trkpt>
<trkpt lat="63.895912170" lon="-22.052293777">
<ele>167.734375</ele>
<time>2012-07-28T17:17:36Z</time>
<extensions>
<speed>0.0</speed>
<temp>0.00</temp>
<bpm>0</bpm>
<rpm>0.00</rpm>
</extensions>
</trkpt>
<trkpt lat="63.895912170" lon="-22.052293777">
<ele>167.722656</ele>
<time>2012-07-28T17:17:41Z</time>
<speed>0.010000</speed>
<extensions>
<speed>0.0</speed>
<temp>0.00</temp>
<bpm>0</bpm>
<rpm>0.00</rpm>
</extensions>
</trkpt>
<trkpt lat="63.895912170" lon="-22.052293777">
<ele>167.726563</ele>
<time>2012-07-28T17:17:46Z</time>
<speed>0.010000</speed>
<extensions>
<speed>0.0</speed>
<temp>0.00</temp>
<bpm>0</bpm>
<rpm>0.00</rpm>
</extensions>
</trkpt>
<trkpt lat="63.895912170" lon="-22.052293777">
<ele>167.718750</ele>
<time>2012-07-28T17:17:51Z</time>
<speed>0.010000</speed>
<extensions>
<speed>0.0</speed>
<temp>0.00</temp>
<bpm>0</bpm>
<rpm>0.00</rpm>
</extensions>
</trkpt>
<trkpt lat="63.895912170" lon="-22.052293777">
<ele>167.722656</ele>
<time>2012-07-28T17:17:56Z</time>
<extensions>
<speed>0.0</speed>
<temp>0.00</temp>
<bpm>0</bpm>
<rpm>0.00</rpm>
</extensions>
</trkpt>
<trkpt lat="63.895912170" lon="-22.052293777">
<ele>167.738281</ele>
<time>2012-07-28T17:18:01Z</time>
<speed>0.010000</speed>
<extensions>
<speed>0.0</speed>
<temp>0.00</temp>
<bpm>0</bpm>
<rpm>0.00</rpm>
</extensions>
</trkpt>
<trkpt lat="63.895912170" lon="-22.052293777">
<ele>167.730469</ele>
<time>2012-07-28T17:18:06Z</time>
<speed>0.010000</speed>
<extensions>
<speed>0.0</speed>
<temp>0.00</temp>
<bpm>0</bpm>
<rpm>0.00</rpm>
</extensions>
</trkpt>
<trkpt lat="63.895912170" lon="-22.052293777">
<ele>167.746094</ele>
<time>2012-07-28T17:18:11Z</time>
<speed>0.010000</speed>
<extensions>
<speed>0.0</speed>
<temp>0.00</temp>
<bpm>0</bpm>
<rpm>0.00</rpm>
</extensions>
</trkpt>
<trkpt lat="63.895915985" lon="-22.052293777">
<ele>167.742188</ele>
<time>2012-07-28T17:18:16Z</time>
<extensions>
<speed>0.0</speed>
<temp>0.00</temp>
<bpm>0</bpm>
<rpm>0.00</rpm>
</extensions>
</trkpt>
<trkpt lat="63.895915985" lon="-22.052293777">
<ele>167.726563</ele>
<time>2012-07-28T17:18:21Z</time>
<extensions>
<speed>0.0</speed>
<temp>0.00</temp>
<bpm>0</bpm>
<rpm>0.00</rpm>
</extensions>
</trkpt>
<trkpt lat="63.895915985" lon="-22.052293777">
<ele>167.726563</ele>
<time>2012-07-28T17:18:26Z</time>
<extensions>
<speed>0.0</speed>
<temp>0.00</temp>
<bpm>0</bpm>
<rpm>0.00</rpm>
</extensions>
</trkpt>
<trkpt lat="63.895915985" lon="-22.052293777">
<ele>167.726563</ele>
<time>2012-07-28T17:18:31Z</time>
<extensions>
<speed>0.0</speed>
<temp>0.00</temp>
<bpm>0</bpm>
<rpm>0.00</rpm>
</extensions>
</trkpt>
<trkpt lat="63.895915985" lon="-22.052293777">
<ele>167.757813</ele>
<time>2012-07-28T17:18:36Z</time>
<speed>0.010000</speed>
<extensions>
<speed>0.0</speed>
<temp>0.00</temp>
<bpm>0</bpm>
<rpm>0.00</rpm>
</extensions>
</trkpt>
<trkpt lat="63.895915985" lon="-22.052293777">
<ele>167.785156</ele>
<time>2012-07-28T17:18:41Z</time>
<speed>0.010000</speed>
<extensions>
<speed>0.0</speed>
<temp>0.00</temp>
<bpm>0</bpm>
<rpm>0.00</rpm>
</extensions>
</trkpt>
<trkpt lat="63.895915985" lon="-22.052293777">
<ele>167.808594</ele>
<time>2012-07-28T17:18:46Z</time>
<speed>0.010000</speed>
<extensions>
<speed>0.0</speed>
<temp>0.00</temp>
<bpm>0</bpm>
<rpm>0.00</rpm>
</extensions>
</trkpt>
<trkpt lat="63.895915985" lon="-22.052293777">
<ele>167.902344</ele>
<time>2012-07-28T17:18:51Z</time>
<extensions>
<speed>0.0</speed>
<temp>0.00</temp>
<bpm>0</bpm>
<rpm>0.00</rpm>
</extensions>
</trkpt>
<trkpt lat="63.895915985" lon="-22.052293777">
<ele>167.914063</ele>
<time>2012-07-28T17:18:56Z</time>
<speed>0.010000</speed>
<extensions>
<speed>0.0</speed>
<temp>0.00</temp>
<bpm>0</bpm>
<rpm>0.00</rpm>
</extensions>
</trkpt>
<trkpt lat="63.895915985" lon="-22.052291870">
<ele>167.964844</ele>
<time>2012-07-28T17:19:01Z</time>
<extensions>
<speed>0.0</speed>
<temp>0.00</temp>
<bpm>0</bpm>
<rpm>0.00</rpm>
</extensions>
</trkpt>
<trkpt lat="63.895915985" lon="-22.052291870">
<ele>168.000000</ele>
<time>2012-07-28T17:19:06Z</time>
<speed>0.010000</speed>
<extensions>
<speed>0.0</speed>
<temp>0.00</temp>
<bpm>0</bpm>
<rpm>0.00</rpm>
</extensions>
</trkpt>
<trkpt lat="63.895915985" lon="-22.052291870">
<ele>168.019531</ele>
<time>2012-07-28T17:19:11Z</time>
<extensions>
<speed>0.0</speed>
<temp>0.00</temp>
<bpm>0</bpm>
<rpm>0.00</rpm>
</extensions>
</trkpt>
<trkpt lat="63.895915985" lon="-22.052291870">
<ele>168.097656</ele>
<time>2012-07-28T17:19:16Z</time>
<speed>0.010000</speed>
<extensions>
<speed>0.0</speed>
<temp>0.00</temp>
<bpm>0</bpm>
<rpm>0.00</rpm>
</extensions>
</trkpt>
<trkpt lat="63.895915985" lon="-22.052291870">
<ele>168.109375</ele>
<time>2012-07-28T17:19:21Z</time>
<speed>0.010000</speed>
<extensions>
<speed>0.0</speed>
<temp>0.00</temp>
<bpm>0</bpm>
<rpm>0.00</rpm>
</extensions>
</trkpt>
<trkpt lat="63.895919800" lon="-22.052291870">
<ele>168.160156</ele>
<time>2012-07-28T17:19:26Z</time>
<extensions>
<speed>0.0</speed>
<temp>0.00</temp>
<bpm>0</bpm>
<rpm>0.00</rpm>
</extensions>
</trkpt>
<trkpt lat="63.895919800" lon="-22.052291870">
<ele>168.218750</ele>
<time>2012-07-28T17:19:31Z</time>
<speed>0.010000</speed>
<extensions>
<speed>0.0</speed>
<temp>0.00</temp>
<bpm>0</bpm>
<rpm>0.00</rpm>
</extensions>
</trkpt>
<trkpt lat="63.895919800" lon="-22.052291870">
<ele>168.253906</ele>
<time>2012-07-28T17:19:36Z</time>
<speed>0.010000</speed>
<extensions>
<speed>0.0</speed>
<temp>0.00</temp>
<bpm>0</bpm>
<rpm>0.00</rpm>
</extensions>
</trkpt>
<trkpt lat="63.895919800" lon="-22.052291870">
<ele>168.308594</ele>
<time>2012-07-28T17:19:41Z</time>
<speed>0.010000</speed>
<extensions>
<speed>0.0</speed>
<temp>0.00</temp>
<bpm>0</bpm>
<rpm>0.00</rpm>
</extensions>
</trkpt>
<trkpt lat="63.895919800" lon="-22.052291870">
<ele>168.328125</ele>
<time>2012-07-28T17:19:46Z</time>
<extensions>
<speed>0.0</speed>
<temp>0.00</temp>
<bpm>0</bpm>
<rpm>0.00</rpm>
</extensions>
</trkpt>
<trkpt lat="63.895919800" lon="-22.052291870">
<ele>168.371094</ele>
<time>2012-07-28T17:19:51Z</time>
<speed>0.010000</speed>
<extensions>
<speed>0.0</speed>
<temp>0.00</temp>
<bpm>0</bpm>
<rpm>0.00</rpm>
</extensions>
</trkpt>
<trkpt lat="63.895919800" lon="-22.052289963">
<ele>168.378906</ele>
<time>2012-07-28T17:19:56Z</time>
<speed>0.010000</speed>
<extensions>
<speed>0.0</speed>
<temp>0.00</temp>
<bpm>0</bpm>
<rpm>0.00</rpm>
</extensions>
</trkpt>
<trkpt lat="63.895919800" lon="-22.052289963">
<ele>168.421875</ele>
<time>2012-07-28T17:20:01Z</time>
<extensions>
<speed>0.0</speed>
<temp>0.00</temp>
<bpm>0</bpm>
<rpm>0.00</rpm>
</extensions>
</trkpt>
<trkpt lat="63.895919800" lon="-22.052289963">
<ele>168.429688</ele>
<time>2012-07-28T17:20:06Z</time>
<speed>0.010000</speed>
<extensions>
<speed>0.0</speed>
<temp>0.00</temp>
<bpm>0</bpm>
<rpm>0.00</rpm>
</extensions>
</trkpt>
<trkpt lat="63.895919800" lon="-22.052289963">
<ele>168.429688</ele>
<time>2012-07-28T17:20:11Z</time>
<speed>0.010000</speed>
<extensions>
<speed>0.0</speed>
<temp>0.00</temp>
<bpm>0</bpm>
<rpm>0.00</rpm>
</extensions>
</trkpt>
<trkpt lat="63.895919800" lon="-22.052289963">
<ele>168.441406</ele>
<time>2012-07-28T17:20:16Z</time>
<speed>0.010000</speed>
<extensions>
<speed>0.0</speed>
<temp>0.00</temp>
<bpm>0</bpm>
<rpm>0.00</rpm>
</extensions>
</trkpt>
<trkpt lat="63.895919800" lon="-22.052289963">
<ele>168.445313</ele>
<time>2012-07-28T17:20:21Z</time>
<speed>0.010000</speed>
<extensions>
<speed>0.0</speed>
<temp>0.00</temp>
<bpm>0</bpm>
<rpm>0.00</rpm>
</extensions>
</trkpt>
<trkpt lat="63.895919800" lon="-22.052289963">
<ele>168.449219</ele>
<time>2012-07-28T17:20:26Z</time>
<extensions>
<speed>0.0</speed>
<temp>0.00</temp>
<bpm>0</bpm>
<rpm>0.00</rpm>
</extensions>
</trkpt>
<trkpt lat="63.895919800" lon="-22.052289963">
<ele>168.453125</ele>
<time>2012-07-28T17:20:31Z</time>
<speed>0.010000</speed>
<extensions>
<speed>0.0</speed>
<temp>0.00</temp>
<bpm>0</bpm>
<rpm>0.00</rpm>
</extensions>
</trkpt>
<trkpt lat="63.895919800" lon="-22.052288055">
<ele>168.453125</ele>
<time>2012-07-28T17:20:36Z</time>
<speed>0.010000</speed>
<extensions>
<speed>0.0</speed>
<temp>0.00</temp>
<bpm>0</bpm>
<rpm>0.00</rpm>
</extensions>
</trkpt>
<trkpt lat="63.895919800" lon="-22.052286148">
<ele>168.460938</ele>
<time>2012-07-28T17:20:41Z</time>
<extensions>
<speed>0.0</speed>
<temp>0.00</temp>
<bpm>0</bpm>
<rpm>0.00</rpm>
</extensions>
</trkpt>
<trkpt lat="63.895919800" lon="-22.052286148">
<ele>168.460938</ele>
<time>2012-07-28T17:20:46Z</time>
<extensions>
<speed>0.0</speed>
<temp>0.00</temp>
<bpm>0</bpm>
<rpm>0.00</rpm>
</extensions>
</trkpt>
<trkpt lat="63.895919800" lon="-22.052286148">
<ele>168.476563</ele>
<time>2012-07-28T17:20:51Z</time>
<extensions>
<speed>0.0</speed>
<temp>0.00</temp>
<bpm>0</bpm>
<rpm>0.00</rpm>
</extensions>
</trkpt>
<trkpt lat="63.895923615" lon="-22.052286148">
<ele>168.507813</ele>
<time>2012-07-28T17:20:56Z</time>
<speed>0.010000</speed>
<extensions>
<speed>0.0</speed>
<temp>0.00</temp>
<bpm>0</bpm>
<rpm>0.00</rpm>
</extensions>
</trkpt>
<trkpt lat="63.895923615" lon="-22.052284241">
<ele>168.640625</ele>
<time>2012-07-28T17:21:01Z</time>
<extensions>
<speed>0.0</speed>
<temp>0.00</temp>
<bpm>0</bpm>
<rpm>0.00</rpm>
</extensions>
</trkpt>
<trkpt lat="63.895923615" lon="-22.052284241">
<ele>168.714844</ele>
<time>2012-07-28T17:21:06Z</time>
<speed>0.010000</speed>
<extensions>
<speed>0.0</speed>
<temp>0.00</temp>
<bpm>0</bpm>
<rpm>0.00</rpm>
</extensions>
</trkpt>
<trkpt lat="63.895923615" lon="-22.052284241">
<ele>168.812500</ele>
<time>2012-07-28T17:21:11Z</time>
<speed>0.010000</speed>
<extensions>
<speed>0.0</speed>
<temp>0.00</temp>
<bpm>0</bpm>
<rpm>0.00</rpm>
</extensions>
</trkpt>
<trkpt lat="63.895923615" lon="-22.052284241">
<ele>168.898438</ele>
<time>2012-07-28T17:21:16Z</time>
<extensions>
<speed>0.0</speed>
<temp>0.00</temp>
<bpm>0</bpm>
<rpm>0.00</rpm>
</extensions>
</trkpt>
<trkpt lat="63.895923615" lon="-22.052284241">
<ele>168.949219</ele>
<time>2012-07-28T17:21:21Z</time>
<extensions>
<speed>0.0</speed>
<temp>0.00</temp>
<bpm>0</bpm>
<rpm>0.00</rpm>
</extensions>
</trkpt>
<trkpt lat="63.895923615" lon="-22.052286148">
<ele>168.996094</ele>
<time>2012-07-28T17:21:26Z</time>
<speed>0.010000</speed>
<extensions>
<speed>0.0</speed>
<temp>0.00</temp>
<bpm>0</bpm>
<rpm>0.00</rpm>
</extensions>
</trkpt>
<trkpt lat="63.895923615" lon="-22.052286148">
<ele>169.210938</ele>
<time>2012-07-28T17:21:31Z</time>
<extensions>
<speed>0.0</speed>
<temp>0.00</temp>
<bpm>0</bpm>
<rpm>0.00</rpm>
</extensions>
</trkpt>
<trkpt lat="63.895923615" lon="-22.052286148">
<ele>169.265625</ele>
<time>2012-07-28T17:21:36Z</time>
<speed>0.010000</speed>
<extensions>
<speed>0.0</speed>
<temp>0.00</temp>
<bpm>0</bpm>
<rpm>0.00</rpm>
</extensions>
</trkpt>
<trkpt lat="63.895927429" lon="-22.052288055">
<ele>169.480469</ele>
<time>2012-07-28T17:21:41Z</time>
<speed>0.020000</speed>
<extensions>
<speed>0.0</speed>
<temp>0.00</temp>
<bpm>0</bpm>
<rpm>0.00</rpm>
</extensions>
</trkpt>
<trkpt lat="63.895927429" lon="-22.052288055">
<ele>169.589844</ele>
<time>2012-07-28T17:21:46Z</time>
<speed>0.010000</speed>
<extensions>
<speed>0.0</speed>
<temp>0.00</temp>
<bpm>0</bpm>
<rpm>0.00</rpm>
</extensions>
</trkpt>
<trkpt lat="63.895927429" lon="-22.052288055">
<ele>169.601563</ele>
<time>2012-07-28T17:21:51Z</time>
<extensions>
<speed>0.0</speed>
<temp>0.00</temp>
<bpm>0</bpm>
<rpm>0.00</rpm>
</extensions>
</trkpt>
<trkpt lat="63.895927429" lon="-22.052288055">
<ele>169.660156</ele>
<time>2012-07-28T17:21:56Z</time>
<extensions>
<speed>0.0</speed>
<temp>0.00</temp>
<bpm>0</bpm>
<rpm>0.00</rpm>
</extensions>
</trkpt>
<trkpt lat="63.895927429" lon="-22.052289963">
<ele>169.687500</ele>
<time>2012-07-28T17:22:01Z</time>
<extensions>
<speed>0.0</speed>
<temp>0.00</temp>
<bpm>0</bpm>
<rpm>0.00</rpm>
</extensions>
</trkpt>
<trkpt lat="63.895927429" lon="-22.052289963">
<ele>169.742188</ele>
<time>2012-07-28T17:22:06Z</time>
<speed>0.010000</speed>
<extensions>
<speed>0.0</speed>
<temp>0.00</temp>
<bpm>0</bpm>
<rpm>0.00</rpm>
</extensions>
</trkpt>
<trkpt lat="63.895927429" lon="-22.052289963">
<ele>169.796875</ele>
<time>2012-07-28T17:22:11Z</time>
<extensions>
<speed>0.0</speed>
<temp>0.00</temp>
<bpm>0</bpm>
<rpm>0.00</rpm>
</extensions>
</trkpt>
<trkpt lat="63.895927429" lon="-22.052288055">
<ele>169.847656</ele>
<time>2012-07-28T17:22:16Z</time>
<speed>0.010000</speed>
<extensions>
<speed>0.0</speed>
<temp>0.00</temp>
<bpm>0</bpm>
<rpm>0.00</rpm>
</extensions>
</trkpt>
<trkpt lat="63.895927429" lon="-22.052288055">
<ele>169.910156</ele>
<time>2012-07-28T17:22:21Z</time>
<speed>0.020000</speed>
<extensions>
<speed>0.0</speed>
<temp>0.00</temp>
<bpm>0</bpm>
<rpm>0.00</rpm>
</extensions>
</trkpt>
<trkpt lat="63.895931244" lon="-22.052288055">
<ele>170.035156</ele>
<time>2012-07-28T17:22:26Z</time>
<speed>0.030000</speed>
<extensions>
<speed>0.0</speed>
<temp>0.00</temp>
<bpm>0</bpm>
<rpm>0.00</rpm>
</extensions>
</trkpt>
<trkpt lat="63.895931244" lon="-22.052288055">
<ele>170.140625</ele>
<time>2012-07-28T17:22:31Z</time>
<speed>0.010000</speed>
<extensions>
<speed>0.0</speed>
<temp>0.00</temp>
<bpm>0</bpm>
<rpm>0.00</rpm>
</extensions>
</trkpt>
<trkpt lat="63.895931244" lon="-22.052286148">
<ele>170.285156</ele>
<time>2012-07-28T17:22:36Z</time>
<speed>0.020000</speed>
<extensions>
<speed>0.0</speed>
<temp>0.00</temp>
<bpm>0</bpm>
<rpm>0.00</rpm>
</extensions>
</trkpt>
<trkpt lat="63.895931244" lon="-22.052286148">
<ele>170.414063</ele>
<time>2012-07-28T17:22:41Z</time>
<speed>0.010000</speed>
<extensions>
<speed>0.0</speed>
<temp>0.00</temp>
<bpm>0</bpm>
<rpm>0.00</rpm>
</extensions>
</trkpt>
<trkpt lat="63.895935059" lon="-22.052286148">
<ele>170.585938</ele>
<time>2012-07-28T17:22:46Z</time>
<speed>0.010000</speed>
<extensions>
<speed>0.0</speed>
<temp>0.00</temp>
<bpm>0</bpm>
<rpm>0.00</rpm>
</extensions>
</trkpt>
<trkpt lat="63.895935059" lon="-22.052286148">
<ele>170.789063</ele>
<time>2012-07-28T17:22:51Z</time>
<speed>0.010000</speed>
<extensions>
<speed>0.0</speed>
<temp>0.00</temp>
<bpm>0</bpm>
<rpm>0.00</rpm>
</extensions>
</trkpt>
<trkpt lat="63.895935059" lon="-22.052286148">
<ele>170.917969</ele>
<time>2012-07-28T17:22:56Z</time>
<speed>0.050000</speed>
<extensions>
<speed>0.1</speed>
<temp>0.00</temp>
<bpm>0</bpm>
<rpm>0.00</rpm>
</extensions>
</trkpt>
<trkpt lat="63.895935059" lon="-22.052282333">
<ele>171.039063</ele>
<time>2012-07-28T17:23:01Z</time>
<extensions>
<speed>0.0</speed>
<temp>0.00</temp>
<bpm>0</bpm>
<rpm>0.00</rpm>
</extensions>
</trkpt>
<trkpt lat="63.895935059" lon="-22.052282333">
<ele>171.132813</ele>
<time>2012-07-28T17:23:06Z</time>
<extensions>
<speed>0.0</speed>
<temp>0.00</temp>
<bpm>0</bpm>
<rpm>0.00</rpm>
</extensions>
</trkpt>
<trkpt lat="63.895935059" lon="-22.052282333">
<ele>171.171875</ele>
<time>2012-07-28T17:23:11Z</time>
<extensions>
<speed>0.0</speed>
<temp>0.00</temp>
<bpm>0</bpm>
<rpm>0.00</rpm>
</extensions>
</trkpt>
<trkpt lat="63.895938873" lon="-22.052282333">
<ele>171.410156</ele>
<time>2012-07-28T17:23:16Z</time>
<speed>0.030000</speed>
<extensions>
<speed>0.0</speed>
<temp>0.00</temp>
<bpm>0</bpm>
<rpm>0.00</rpm>
</extensions>
</trkpt>
<trkpt lat="63.895938873" lon="-22.052280426">
<ele>171.695313</ele>
<time>2012-07-28T17:23:21Z</time>
<speed>0.020000</speed>
<extensions>
<speed>0.0</speed>
<temp>0.00</temp>
<bpm>0</bpm>
<rpm>0.00</rpm>
</extensions>
</trkpt>
<trkpt lat="63.895938873" lon="-22.052278519">
<ele>171.984375</ele>
<time>2012-07-28T17:23:26Z</time>
<speed>0.030000</speed>
<extensions>
<speed>0.0</speed>
<temp>0.00</temp>
<bpm>0</bpm>
<rpm>0.00</rpm>
</extensions>
</trkpt>
<trkpt lat="63.895942688" lon="-22.052276611">
<ele>172.320313</ele>
<time>2012-07-28T17:23:31Z</time>
<speed>0.050000</speed>
<extensions>
<speed>0.1</speed>
<temp>0.00</temp>
<bpm>0</bpm>
<rpm>0.00</rpm>
</extensions>
</trkpt>
<trkpt lat="63.895942688" lon="-22.052276611">
<ele>172.394531</ele>
<time>2012-07-28T17:23:36Z</time>
<speed>0.030000</speed>
<extensions>
<speed>0.0</speed>
<temp>0.00</temp>
<bpm>0</bpm>
<rpm>0.00</rpm>
</extensions>
</trkpt>
<trkpt lat="63.895942688" lon="-22.052276611">
<ele>172.546875</ele>
<time>2012-07-28T17:23:41Z</time>
<speed>0.010000</speed>
<extensions>
<speed>0.0</speed>
<temp>0.00</temp>
<bpm>0</bpm>
<rpm>0.00</rpm>
</extensions>
</trkpt>
<trkpt lat="63.895942688" lon="-22.052274704">
<ele>172.816406</ele>
<time>2012-07-28T17:23:46Z</time>
<speed>0.030000</speed>
<extensions>
<speed>0.0</speed>
<temp>0.00</temp>
<bpm>0</bpm>
<rpm>0.00</rpm>
</extensions>
</trkpt>
<trkpt lat="63.895946503" lon="-22.052272797">
<ele>173.121094</ele>
<time>2012-07-28T17:23:51Z</time>
<speed>0.050000</speed>
<extensions>
<speed>0.1</speed>
<temp>0.00</temp>
<bpm>0</bpm>
<rpm>0.00</rpm>
</extensions>
</trkpt>
<trkpt lat="63.895950317" lon="-22.052268982">
<ele>173.425781</ele>
<time>2012-07-28T17:23:56Z</time>
<speed>0.040000</speed>
<extensions>
<speed>0.0</speed>
<temp>0.00</temp>
<bpm>0</bpm>
<rpm>0.00</rpm>
</extensions>
</trkpt>
<trkpt lat="63.895950317" lon="-22.052267075">
<ele>173.726563</ele>
<time>2012-07-28T17:24:01Z</time>
<speed>0.040000</speed>
<extensions>
<speed>0.0</speed>
<temp>0.00</temp>
<bpm>0</bpm>
<rpm>0.00</rpm>
</extensions>
</trkpt>
<trkpt lat="63.895950317" lon="-22.052265167">
<ele>173.996094</ele>
<time>2012-07-28T17:24:06Z</time>
<speed>0.030000</speed>
<extensions>
<speed>0.0</speed>
<temp>0.00</temp>
<bpm>0</bpm>
<rpm>0.00</rpm>
</extensions>
</trkpt>
<trkpt lat="63.895954132" lon="-22.052265167">
<ele>174.273438</ele>
<time>2012-07-28T17:24:11Z</time>
<speed>0.030000</speed>
<extensions>
<speed>0.0</speed>
<temp>0.00</temp>
<bpm>0</bpm>
<rpm>0.00</rpm>
</extensions>
</trkpt>
<trkpt lat="63.895954132" lon="-22.052263260">
<ele>174.597656</ele>
<time>2012-07-28T17:24:16Z</time>
<speed>0.040000</speed>
<extensions>
<speed>0.0</speed>
<temp>0.00</temp>
<bpm>0</bpm>
<rpm>0.00</rpm>
</extensions>
</trkpt>
<trkpt lat="63.895957947" lon="-22.052261353">
<ele>175.082031</ele>
<time>2012-07-28T17:24:21Z</time>
<speed>0.040000</speed>
<extensions>
<speed>0.0</speed>
<temp>0.00</temp>
<bpm>0</bpm>
<rpm>0.00</rpm>
</extensions>
</trkpt>
<trkpt lat="63.895961761" lon="-22.052259445">
<ele>175.589844</ele>
<time>2012-07-28T17:24:26Z</time>
<speed>0.060000</speed>
<extensions>
<speed>0.1</speed>
<temp>0.00</temp>
<bpm>0</bpm>
<rpm>0.00</rpm>
</extensions>
</trkpt>
<trkpt lat="63.895965576" lon="-22.052257538">
<ele>176.292969</ele>
<time>2012-07-28T17:24:31Z</time>
<speed>0.080000</speed>
<extensions>
<speed>0.1</speed>
<temp>0.00</temp>
<bpm>0</bpm>
<rpm>0.00</rpm>
</extensions>
</trkpt>
<trkpt lat="63.895965576" lon="-22.052257538">
<ele>177.046875</ele>
<time>2012-07-28T17:24:36Z</time>
<speed>0.060000</speed>
<extensions>
<speed>0.1</speed>
<temp>0.00</temp>
<bpm>0</bpm>
<rpm>0.00</rpm>
</extensions>
</trkpt>
<trkpt lat="63.895969391" lon="-22.052263260">
<ele>177.714844</ele>
<time>2012-07-28T17:24:41Z</time>
<speed>0.050000</speed>
<extensions>
<speed>0.1</speed>
<temp>0.00</temp>
<bpm>0</bpm>
<rpm>0.00</rpm>
</extensions>
</trkpt>
<trkpt lat="63.895969391" lon="-22.052265167">
<ele>178.285156</ele>
<time>2012-07-28T17:24:46Z</time>
<speed>0.010000</speed>
<extensions>
<speed>0.0</speed>
<temp>0.00</temp>
<bpm>0</bpm>
<rpm>0.00</rpm>
</extensions>
</trkpt>
<trkpt lat="63.895969391" lon="-22.052267075">
<ele>178.636719</ele>
<time>2012-07-28T17:24:51Z</time>
<speed>0.020000</speed>
<extensions>
<speed>0.0</speed>
<temp>0.00</temp>
<bpm>0</bpm>
<rpm>0.00</rpm>
</extensions>
</trkpt>
<trkpt lat="63.895973206" lon="-22.052267075">
<ele>178.792969</ele>
<time>2012-07-28T17:24:56Z</time>
<extensions>
<speed>0.0</speed>
<temp>0.00</temp>
<bpm>0</bpm>
<rpm>0.00</rpm>
</extensions>
</trkpt>
<trkpt lat="63.895973206" lon="-22.052267075">
<ele>178.800781</ele>
<time>2012-07-28T17:25:01Z</time>
<extensions>
<speed>0.0</speed>
<temp>0.00</temp>
<bpm>0</bpm>
<rpm>0.00</rpm>
</extensions>
</trkpt>
<trkpt lat="63.895973206" lon="-22.052268982">
<ele>178.812500</ele>
<time>2012-07-28T17:25:06Z</time>
<extensions>
<speed>0.0</speed>
<temp>0.00</temp>
<bpm>0</bpm>
<rpm>0.00</rpm>
</extensions>
</trkpt>
<trkpt lat="63.895973206" lon="-22.052268982">
<ele>178.808594</ele>
<time>2012-07-28T17:25:11Z</time>
<extensions>
<speed>0.0</speed>
<temp>0.00</temp>
<bpm>0</bpm>
<rpm>0.00</rpm>
</extensions>
</trkpt>
<trkpt lat="63.895973206" lon="-22.052270889">
<ele>178.863281</ele>
<time>2012-07-28T17:25:16Z</time>
<extensions>
<speed>0.0</speed>
<temp>0.00</temp>
<bpm>0</bpm>
<rpm>0.00</rpm>
</extensions>
</trkpt>
<trkpt lat="63.895973206" lon="-22.052270889">
<ele>178.914063</ele>
<time>2012-07-28T17:25:21Z</time>
<extensions>
<speed>0.0</speed>
<temp>0.00</temp>
<bpm>0</bpm>
<rpm>0.00</rpm>
</extensions>
</trkpt>
<trkpt lat="63.895973206" lon="-22.052270889">
<ele>178.933594</ele>
<time>2012-07-28T17:25:26Z</time>
<extensions>
<speed>0.0</speed>
<temp>0.00</temp>
<bpm>0</bpm>
<rpm>0.00</rpm>
</extensions>
</trkpt>
<trkpt lat="63.895973206" lon="-22.052270889">
<ele>178.937500</ele>
<time>2012-07-28T17:25:31Z</time>
<extensions>
<speed>0.0</speed>
<temp>0.00</temp>
<bpm>0</bpm>
<rpm>0.00</rpm>
</extensions>
</trkpt>
<trkpt lat="63.895973206" lon="-22.052270889">
<ele>178.929688</ele>
<time>2012-07-28T17:25:36Z</time>
<extensions>
<speed>0.0</speed>
<temp>0.00</temp>
<bpm>0</bpm>
<rpm>0.00</rpm>
</extensions>
</trkpt>
<trkpt lat="63.895973206" lon="-22.052270889">
<ele>178.953125</ele>
<time>2012-07-28T17:25:41Z</time>
<speed>0.010000</speed>
<extensions>
<speed>0.0</speed>
<temp>0.00</temp>
<bpm>0</bpm>
<rpm>0.00</rpm>
</extensions>
</trkpt>
<trkpt lat="63.895973206" lon="-22.052270889">
<ele>178.984375</ele>
<time>2012-07-28T17:25:46Z</time>
<speed>0.010000</speed>
<extensions>
<speed>0.0</speed>
<temp>0.00</temp>
<bpm>0</bpm>
<rpm>0.00</rpm>
</extensions>
</trkpt>
<trkpt lat="63.895973206" lon="-22.052270889">
<ele>179.000000</ele>
<time>2012-07-28T17:25:51Z</time>
<extensions>
<speed>0.0</speed>
<temp>0.00</temp>
<bpm>0</bpm>
<rpm>0.00</rpm>
</extensions>
</trkpt>
<trkpt lat="63.895973206" lon="-22.052272797">
<ele>179.031250</ele>
<time>2012-07-28T17:25:56Z</time>
<extensions>
<speed>0.0</speed>
<temp>0.00</temp>
<bpm>0</bpm>
<rpm>0.00</rpm>
</extensions>
</trkpt>
<trkpt lat="63.895973206" lon="-22.052272797">
<ele>179.074219</ele>
<time>2012-07-28T17:26:01Z</time>
<speed>0.020000</speed>
<extensions>
<speed>0.0</speed>
<temp>0.00</temp>
<bpm>0</bpm>
<rpm>0.00</rpm>
</extensions>
</trkpt>
<trkpt lat="63.895973206" lon="-22.052272797">
<ele>179.089844</ele>
<time>2012-07-28T17:26:06Z</time>
<extensions>
<speed>0.0</speed>
<temp>0.00</temp>
<bpm>0</bpm>
<rpm>0.00</rpm>
</extensions>
</trkpt>
<trkpt lat="63.895973206" lon="-22.052272797">
<ele>179.113281</ele>
<time>2012-07-28T17:26:11Z</time>
<speed>0.020000</speed>
<extensions>
<speed>0.0</speed>
<temp>0.00</temp>
<bpm>0</bpm>
<rpm>0.00</rpm>
</extensions>
</trkpt>
<trkpt lat="63.895973206" lon="-22.052272797">
<ele>179.160156</ele>
<time>2012-07-28T17:26:16Z</time>
<speed>0.010000</speed>
<extensions>
<speed>0.0</speed>
<temp>0.00</temp>
<bpm>0</bpm>
<rpm>0.00</rpm>
</extensions>
</trkpt>
<trkpt lat="63.895973206" lon="-22.052274704">
<ele>179.195313</ele>
<time>2012-07-28T17:26:21Z</time>
<extensions>
<speed>0.0</speed>
<temp>0.00</temp>
<bpm>0</bpm>
<rpm>0.00</rpm>
</extensions>
</trkpt>
<trkpt lat="63.895973206" lon="-22.052274704">
<ele>179.214844</ele>
<time>2012-07-28T17:26:26Z</time>
<extensions>
<speed>0.0</speed>
<temp>0.00</temp>
<bpm>0</bpm>
<rpm>0.00</rpm>
</extensions>
</trkpt>
<trkpt lat="63.895973206" lon="-22.052274704">
<ele>179.222656</ele>
<time>2012-07-28T17:26:31Z</time>
<speed>0.010000</speed>
<extensions>
<speed>0.0</speed>
<temp>0.00</temp>
<bpm>0</bpm>
<rpm>0.00</rpm>
</extensions>
</trkpt>
<trkpt lat="63.895973206" lon="-22.052276611">
<ele>179.242188</ele>
<time>2012-07-28T17:26:36Z</time>
<extensions>
<speed>0.0</speed>
<temp>0.00</temp>
<bpm>0</bpm>
<rpm>0.00</rpm>
</extensions>
</trkpt>
<trkpt lat="63.895973206" lon="-22.052276611">
<ele>179.285156</ele>
<time>2012-07-28T17:26:41Z</time>
<extensions>
<speed>0.0</speed>
<temp>0.00</temp>
<bpm>0</bpm>
<rpm>0.00</rpm>
</extensions>
</trkpt>
<trkpt lat="63.895973206" lon="-22.052276611">
<ele>179.300781</ele>
<time>2012-07-28T17:26:46Z</time>
<extensions>
<speed>0.0</speed>
<temp>0.00</temp>
<bpm>0</bpm>
<rpm>0.00</rpm>
</extensions>
</trkpt>
<trkpt lat="63.895973206" lon="-22.052276611">
<ele>179.300781</ele>
<time>2012-07-28T17:26:51Z</time>
<extensions>
<speed>0.0</speed>
<temp>0.00</temp>
<bpm>0</bpm>
<rpm>0.00</rpm>
</extensions>
</trkpt>
<trkpt lat="63.895973206" lon="-22.052276611">
<ele>179.285156</ele>
<time>2012-07-28T17:26:56Z</time>
<speed>0.020000</speed>
<extensions>
<speed>0.0</speed>
<temp>0.00</temp>
<bpm>0</bpm>
<rpm>0.00</rpm>
</extensions>
</trkpt>
<trkpt lat="63.895973206" lon="-22.052276611">
<ele>179.308594</ele>
<time>2012-07-28T17:27:01Z</time>
<extensions>
<speed>0.0</speed>
<temp>0.00</temp>
<bpm>0</bpm>
<rpm>0.00</rpm>
</extensions>
</trkpt>
<trkpt lat="63.895973206" lon="-22.052276611">
<ele>179.316406</ele>
<time>2012-07-28T17:27:06Z</time>
<speed>0.010000</speed>
<extensions>
<speed>0.0</speed>
<temp>0.00</temp>
<bpm>0</bpm>
<rpm>0.00</rpm>
</extensions>
</trkpt>
<trkpt lat="63.895973206" lon="-22.052276611">
<ele>179.308594</ele>
<time>2012-07-28T17:27:11Z</time>
<speed>0.010000</speed>
<extensions>
<speed>0.0</speed>
<temp>0.00</temp>
<bpm>0</bpm>
<rpm>0.00</rpm>
</extensions>
</trkpt>
<trkpt lat="63.895973206" lon="-22.052276611">
<ele>179.285156</ele>
<time>2012-07-28T17:27:16Z</time>
<extensions>
<speed>0.0</speed>
<temp>0.00</temp>
<bpm>0</bpm>
<rpm>0.00</rpm>
</extensions>
</trkpt>
<trkpt lat="63.895973206" lon="-22.052276611">
<ele>179.296875</ele>
<time>2012-07-28T17:27:21Z</time>
<extensions>
<speed>0.0</speed>
<temp>0.00</temp>
<bpm>0</bpm>
<rpm>0.00</rpm>
</extensions>
</trkpt>
<trkpt lat="63.895973206" lon="-22.052276611">
<ele>179.296875</ele>
<time>2012-07-28T17:27:26Z</time>
<extensions>
<speed>0.0</speed>
<temp>0.00</temp>
<bpm>0</bpm>
<rpm>0.00</rpm>
</extensions>
</trkpt>
<trkpt lat="63.895973206" lon="-22.052278519">
<ele>179.316406</ele>
<time>2012-07-28T17:27:31Z</time>
<extensions>
<speed>0.0</speed>
<temp>0.00</temp>
<bpm>0</bpm>
<rpm>0.00</rpm>
</extensions>
</trkpt>
<trkpt lat="63.895973206" lon="-22.052278519">
<ele>179.343750</ele>
<time>2012-07-28T17:27:36Z</time>
<extensions>
<speed>0.0</speed>
<temp>0.00</temp>
<bpm>0</bpm>
<rpm>0.00</rpm>
</extensions>
</trkpt>
<trkpt lat="63.895973206" lon="-22.052280426">
<ele>179.343750</ele>
<time>2012-07-28T17:27:41Z</time>
<speed>0.010000</speed>
<extensions>
<speed>0.0</speed>
<temp>0.00</temp>
<bpm>0</bpm>
<rpm>0.00</rpm>
</extensions>
</trkpt>
<trkpt lat="63.895973206" lon="-22.052280426">
<ele>179.351563</ele>
<time>2012-07-28T17:27:46Z</time>
<extensions>
<speed>0.0</speed>
<temp>0.00</temp>
<bpm>0</bpm>
<rpm>0.00</rpm>
</extensions>
</trkpt>
<trkpt lat="63.895973206" lon="-22.052280426">
<ele>179.355469</ele>
<time>2012-07-28T17:27:51Z</time>
<extensions>
<speed>0.0</speed>
<temp>0.00</temp>
<bpm>0</bpm>
<rpm>0.00</rpm>
</extensions>
</trkpt>
<trkpt lat="63.895973206" lon="-22.052282333">
<ele>179.359375</ele>
<time>2012-07-28T17:27:56Z</time>
<speed>0.010000</speed>
<extensions>
<speed>0.0</speed>
<temp>0.00</temp>
<bpm>0</bpm>
<rpm>0.00</rpm>
</extensions>
</trkpt>
<trkpt lat="63.895973206" lon="-22.052282333">
<ele>179.359375</ele>
<time>2012-07-28T17:28:01Z</time>
<extensions>
<speed>0.0</speed>
<temp>0.00</temp>
<bpm>0</bpm>
<rpm>0.00</rpm>
</extensions>
</trkpt>
<trkpt lat="63.895973206" lon="-22.052282333">
<ele>179.347656</ele>
<time>2012-07-28T17:28:06Z</time>
<extensions>
<speed>0.0</speed>
<temp>0.00</temp>
<bpm>0</bpm>
<rpm>0.00</rpm>
</extensions>
</trkpt>
<trkpt lat="63.895973206" lon="-22.052282333">
<ele>179.371094</ele>
<time>2012-07-28T17:28:11Z</time>
<speed>0.020000</speed>
<extensions>
<speed>0.0</speed>
<temp>0.00</temp>
<bpm>0</bpm>
<rpm>0.00</rpm>
</extensions>
</trkpt>
<trkpt lat="63.895973206" lon="-22.052282333">
<ele>179.375000</ele>
<time>2012-07-28T17:28:16Z</time>
<speed>0.010000</speed>
<extensions>
<speed>0.0</speed>
<temp>0.00</temp>
<bpm>0</bpm>
<rpm>0.00</rpm>
</extensions>
</trkpt>
<trkpt lat="63.895973206" lon="-22.052282333">
<ele>179.386719</ele>
<time>2012-07-28T17:28:21Z</time>
<speed>0.020000</speed>
<extensions>
<speed>0.0</speed>
<temp>0.00</temp>
<bpm>0</bpm>
<rpm>0.00</rpm>
</extensions>
</trkpt>
<trkpt lat="63.895973206" lon="-22.052282333">
<ele>179.386719</ele>
<time>2012-07-28T17:28:26Z</time>
<speed>0.010000</speed>
<extensions>
<speed>0.0</speed>
<temp>0.00</temp>
<bpm>0</bpm>
<rpm>0.00</rpm>
</extensions>
</trkpt>
<trkpt lat="63.895973206" lon="-22.052282333">
<ele>179.410156</ele>
<time>2012-07-28T17:28:31Z</time>
<extensions>
<speed>0.0</speed>
<temp>0.00</temp>
<bpm>0</bpm>
<rpm>0.00</rpm>
</extensions>
</trkpt>
<trkpt lat="63.895973206" lon="-22.052282333">
<ele>179.417969</ele>
<time>2012-07-28T17:28:36Z</time>
<extensions>
<speed>0.0</speed>
<temp>0.00</temp>
<bpm>0</bpm>
<rpm>0.00</rpm>
</extensions>
</trkpt>
<trkpt lat="63.895973206" lon="-22.052282333">
<ele>179.437500</ele>
<time>2012-07-28T17:28:41Z</time>
<extensions>
<speed>0.0</speed>
<temp>0.00</temp>
<bpm>0</bpm>
<rpm>0.00</rpm>
</extensions>
</trkpt>
<trkpt lat="63.895969391" lon="-22.052282333">
<ele>179.464844</ele>
<time>2012-07-28T17:28:46Z</time>
<extensions>
<speed>0.0</speed>
<temp>0.00</temp>
<bpm>0</bpm>
<rpm>0.00</rpm>
</extensions>
</trkpt>
<trkpt lat="63.895969391" lon="-22.052284241">
<ele>179.472656</ele>
<time>2012-07-28T17:28:51Z</time>
<extensions>
<speed>0.0</speed>
<temp>0.00</temp>
<bpm>0</bpm>
<rpm>0.00</rpm>
</extensions>
</trkpt>
<trkpt lat="63.895969391" lon="-22.052284241">
<ele>179.515625</ele>
<time>2012-07-28T17:28:56Z</time>
<extensions>
<speed>0.0</speed>
<temp>0.00</temp>
<bpm>0</bpm>
<rpm>0.00</rpm>
</extensions>
</trkpt>
<trkpt lat="63.895973206" lon="-22.052284241">
<ele>179.566406</ele>
<time>2012-07-28T17:29:01Z</time>
<extensions>
<speed>0.0</speed>
<temp>0.00</temp>
<bpm>0</bpm>
<rpm>0.00</rpm>
</extensions>
</trkpt>
<trkpt lat="63.895973206" lon="-22.052284241">
<ele>179.609375</ele>
<time>2012-07-28T17:29:06Z</time>
<extensions>
<speed>0.0</speed>
<temp>0.00</temp>
<bpm>0</bpm>
<rpm>0.00</rpm>
</extensions>
</trkpt>
<trkpt lat="63.895973206" lon="-22.052284241">
<ele>179.617188</ele>
<time>2012-07-28T17:29:11Z</time>
<extensions>
<speed>0.0</speed>
<temp>0.00</temp>
<bpm>0</bpm>
<rpm>0.00</rpm>
</extensions>
</trkpt>
<trkpt lat="63.895973206" lon="-22.052284241">
<ele>179.644531</ele>
<time>2012-07-28T17:29:16Z</time>
<extensions>
<speed>0.0</speed>
<temp>0.00</temp>
<bpm>0</bpm>
<rpm>0.00</rpm>
</extensions>
</trkpt>
<trkpt lat="63.895973206" lon="-22.052286148">
<ele>179.648438</ele>
<time>2012-07-28T17:29:21Z</time>
<extensions>
<speed>0.0</speed>
<temp>0.00</temp>
<bpm>0</bpm>
<rpm>0.00</rpm>
</extensions>
</trkpt>
<trkpt lat="63.895973206" lon="-22.052286148">
<ele>179.660156</ele>
<time>2012-07-28T17:29:26Z</time>
<extensions>
<speed>0.0</speed>
<temp>0.00</temp>
<bpm>0</bpm>
<rpm>0.00</rpm>
</extensions>
</trkpt>
<trkpt lat="63.895969391" lon="-22.052286148">
<ele>179.660156</ele>
<time>2012-07-28T17:29:31Z</time>
<speed>0.010000</speed>
<extensions>
<speed>0.0</speed>
<temp>0.00</temp>
<bpm>0</bpm>
<rpm>0.00</rpm>
</extensions>
</trkpt>
<trkpt lat="63.895969391" lon="-22.052286148">
<ele>179.660156</ele>
<time>2012-07-28T17:29:36Z</time>
<speed>0.010000</speed>
<extensions>
<speed>0.0</speed>
<temp>0.00</temp>
<bpm>0</bpm>
<rpm>0.00</rpm>
</extensions>
</trkpt>
<trkpt lat="63.895969391" lon="-22.052286148">
<ele>179.640625</ele>
<time>2012-07-28T17:29:41Z</time>
<speed>0.010000</speed>
<extensions>
<speed>0.0</speed>
<temp>0.00</temp>
<bpm>0</bpm>
<rpm>0.00</rpm>
</extensions>
</trkpt>
<trkpt lat="63.895969391" lon="-22.052286148">
<ele>179.644531</ele>
<time>2012-07-28T17:29:46Z</time>
<speed>0.010000</speed>
<extensions>
<speed>0.0</speed>
<temp>0.00</temp>
<bpm>0</bpm>
<rpm>0.00</rpm>
</extensions>
</trkpt>
<trkpt lat="63.895969391" lon="-22.052286148">
<ele>179.644531</ele>
<time>2012-07-28T17:29:51Z</time>
<extensions>
<speed>0.0</speed>
<temp>0.00</temp>
<bpm>0</bpm>
<rpm>0.00</rpm>
</extensions>
</trkpt>
<trkpt lat="63.895969391" lon="-22.052284241">
<ele>179.644531</ele>
<time>2012-07-28T17:29:56Z</time>
<extensions>
<speed>0.0</speed>
<temp>0.00</temp>
<bpm>0</bpm>
<rpm>0.00</rpm>
</extensions>
</trkpt>
<trkpt lat="63.895969391" lon="-22.052286148">
<ele>179.648438</ele>
<time>2012-07-28T17:30:01Z</time>
<extensions>
<speed>0.0</speed>
<temp>0.00</temp>
<bpm>0</bpm>
<rpm>0.00</rpm>
</extensions>
</trkpt>
<trkpt lat="63.895969391" lon="-22.052286148">
<ele>179.648438</ele>
<time>2012-07-28T17:30:06Z</time>
<extensions>
<speed>0.0</speed>
<temp>0.00</temp>
<bpm>0</bpm>
<rpm>0.00</rpm>
</extensions>
</trkpt>
<trkpt lat="63.895969391" lon="-22.052286148">
<ele>179.667969</ele>
<time>2012-07-28T17:30:11Z</time>
<speed>0.010000</speed>
<extensions>
<speed>0.0</speed>
<temp>0.00</temp>
<bpm>0</bpm>
<rpm>0.00</rpm>
</extensions>
</trkpt>
<trkpt lat="63.895969391" lon="-22.052286148">
<ele>179.667969</ele>
<time>2012-07-28T17:30:16Z</time>
<speed>0.010000</speed>
<extensions>
<speed>0.0</speed>
<temp>0.00</temp>
<bpm>0</bpm>
<rpm>0.00</rpm>
</extensions>
</trkpt>
<trkpt lat="63.895969391" lon="-22.052286148">
<ele>179.652344</ele>
<time>2012-07-28T17:30:21Z</time>
<extensions>
<speed>0.0</speed>
<temp>0.00</temp>
<bpm>0</bpm>
<rpm>0.00</rpm>
</extensions>
</trkpt>
<trkpt lat="63.895969391" lon="-22.052286148">
<ele>179.664063</ele>
<time>2012-07-28T17:30:26Z</time>
<extensions>
<speed>0.0</speed>
<temp>0.00</temp>
<bpm>0</bpm>
<rpm>0.00</rpm>
</extensions>
</trkpt>
<trkpt lat="63.895969391" lon="-22.052288055">
<ele>179.687500</ele>
<time>2012-07-28T17:30:31Z</time>
<speed>0.010000</speed>
<extensions>
<speed>0.0</speed>
<temp>0.00</temp>
<bpm>0</bpm>
<rpm>0.00</rpm>
</extensions>
</trkpt>
<trkpt lat="63.895969391" lon="-22.052288055">
<ele>179.714844</ele>
<time>2012-07-28T17:30:36Z</time>
<speed>0.010000</speed>
<extensions>
<speed>0.0</speed>
<temp>0.00</temp>
<bpm>0</bpm>
<rpm>0.00</rpm>
</extensions>
</trkpt>
<trkpt lat="63.895969391" lon="-22.052288055">
<ele>179.707031</ele>
<time>2012-07-28T17:30:41Z</time>
<speed>0.010000</speed>
<extensions>
<speed>0.0</speed>
<temp>0.00</temp>
<bpm>0</bpm>
<rpm>0.00</rpm>
</extensions>
</trkpt>
<trkpt lat="63.895969391" lon="-22.052286148">
<ele>179.695313</ele>
<time>2012-07-28T17:30:46Z</time>
<extensions>
<speed>0.0</speed>
<temp>0.00</temp>
<bpm>0</bpm>
<rpm>0.00</rpm>
</extensions>
</trkpt>
<trkpt lat="63.895969391" lon="-22.052286148">
<ele>179.703125</ele>
<time>2012-07-28T17:30:51Z</time>
<speed>0.010000</speed>
<extensions>
<speed>0.0</speed>
<temp>0.00</temp>
<bpm>0</bpm>
<rpm>0.00</rpm>
</extensions>
</trkpt>
<trkpt lat="63.895969391" lon="-22.052286148">
<ele>179.675781</ele>
<time>2012-07-28T17:30:56Z</time>
<speed>0.010000</speed>
<extensions>
<speed>0.0</speed>
<temp>0.00</temp>
<bpm>0</bpm>
<rpm>0.00</rpm>
</extensions>
</trkpt>
<trkpt lat="63.895969391" lon="-22.052286148">
<ele>179.671875</ele>
<time>2012-07-28T17:31:01Z</time>
<extensions>
<speed>0.0</speed>
<temp>0.00</temp>
<bpm>0</bpm>
<rpm>0.00</rpm>
</extensions>
</trkpt>
<trkpt lat="63.895969391" lon="-22.052286148">
<ele>179.660156</ele>
<time>2012-07-28T17:31:06Z</time>
<speed>0.020000</speed>
<extensions>
<speed>0.0</speed>
<temp>0.00</temp>
<bpm>0</bpm>
<rpm>0.00</rpm>
</extensions>
</trkpt>
<trkpt lat="63.895969391" lon="-22.052286148">
<ele>179.652344</ele>
<time>2012-07-28T17:31:11Z</time>
<extensions>
<speed>0.0</speed>
<temp>0.00</temp>
<bpm>0</bpm>
<rpm>0.00</rpm>
</extensions>
</trkpt>
<trkpt lat="63.895969391" lon="-22.052286148">
<ele>179.617188</ele>
<time>2012-07-28T17:31:16Z</time>
<extensions>
<speed>0.0</speed>
<temp>0.00</temp>
<bpm>0</bpm>
<rpm>0.00</rpm>
</extensions>
</trkpt>
<trkpt lat="63.895969391" lon="-22.052286148">
<ele>179.609375</ele>
<time>2012-07-28T17:31:21Z</time>
<speed>0.010000</speed>
<extensions>
<speed>0.0</speed>
<temp>0.00</temp>
<bpm>0</bpm>
<rpm>0.00</rpm>
</extensions>
</trkpt>
<trkpt lat="63.895969391" lon="-22.052286148">
<ele>179.605469</ele>
<time>2012-07-28T17:31:26Z</time>
<extensions>
<speed>0.0</speed>
<temp>0.00</temp>
<bpm>0</bpm>
<rpm>0.00</rpm>
</extensions>
</trkpt>
<trkpt lat="63.895969391" lon="-22.052286148">
<ele>179.589844</ele>
<time>2012-07-28T17:31:31Z</time>
<extensions>
<speed>0.0</speed>
<temp>0.00</temp>
<bpm>0</bpm>
<rpm>0.00</rpm>
</extensions>
</trkpt>
<trkpt lat="63.895969391" lon="-22.052286148">
<ele>179.562500</ele>
<time>2012-07-28T17:31:36Z</time>
<extensions>
<speed>0.0</speed>
<temp>0.00</temp>
<bpm>0</bpm>
<rpm>0.00</rpm>
</extensions>
</trkpt>
<trkpt lat="63.895969391" lon="-22.052286148">
<ele>179.554688</ele>
<time>2012-07-28T17:31:41Z</time>
<speed>0.010000</speed>
<extensions>
<speed>0.0</speed>
<temp>0.00</temp>
<bpm>0</bpm>
<rpm>0.00</rpm>
</extensions>
</trkpt>
<trkpt lat="63.895969391" lon="-22.052286148">
<ele>179.554688</ele>
<time>2012-07-28T17:31:46Z</time>
<speed>0.010000</speed>
<extensions>
<speed>0.0</speed>
<temp>0.00</temp>
<bpm>0</bpm>
<rpm>0.00</rpm>
</extensions>
</trkpt>
<trkpt lat="63.895969391" lon="-22.052286148">
<ele>179.546875</ele>
<time>2012-07-28T17:31:51Z</time>
<extensions>
<speed>0.0</speed>
<temp>0.00</temp>
<bpm>0</bpm>
<rpm>0.00</rpm>
</extensions>
</trkpt>
<trkpt lat="63.895969391" lon="-22.052286148">
<ele>179.550781</ele>
<time>2012-07-28T17:31:56Z</time>
<speed>0.020000</speed>
<extensions>
<speed>0.0</speed>
<temp>0.00</temp>
<bpm>0</bpm>
<rpm>0.00</rpm>
</extensions>
</trkpt>
<trkpt lat="63.895969391" lon="-22.052286148">
<ele>179.550781</ele>
<time>2012-07-28T17:32:01Z</time>
<speed>0.010000</speed>
<extensions>
<speed>0.0</speed>
<temp>0.00</temp>
<bpm>0</bpm>
<rpm>0.00</rpm>
</extensions>
</trkpt>
<trkpt lat="63.895969391" lon="-22.052286148">
<ele>179.554688</ele>
<time>2012-07-28T17:32:06Z</time>
<speed>0.010000</speed>
<extensions>
<speed>0.0</speed>
<temp>0.00</temp>
<bpm>0</bpm>
<rpm>0.00</rpm>
</extensions>
</trkpt>
<trkpt lat="63.895969391" lon="-22.052286148">
<ele>179.550781</ele>
<time>2012-07-28T17:32:11Z</time>
<speed>0.010000</speed>
<extensions>
<speed>0.0</speed>
<temp>0.00</temp>
<bpm>0</bpm>
<rpm>0.00</rpm>
</extensions>
</trkpt>
<trkpt lat="63.895969391" lon="-22.052288055">
<ele>179.550781</ele>
<time>2012-07-28T17:32:16Z</time>
<extensions>
<speed>0.0</speed>
<temp>0.00</temp>
<bpm>0</bpm>
<rpm>0.00</rpm>
</extensions>
</trkpt>
<trkpt lat="63.895969391" lon="-22.052288055">
<ele>179.550781</ele>
<time>2012-07-28T17:32:21Z</time>
<extensions>
<speed>0.0</speed>
<temp>0.00</temp>
<bpm>0</bpm>
<rpm>0.00</rpm>
</extensions>
</trkpt>
<trkpt lat="63.895969391" lon="-22.052288055">
<ele>179.546875</ele>
<time>2012-07-28T17:32:26Z</time>
<speed>0.010000</speed>
<extensions>
<speed>0.0</speed>
<temp>0.00</temp>
<bpm>0</bpm>
<rpm>0.00</rpm>
</extensions>
</trkpt>
<trkpt lat="63.895969391" lon="-22.052288055">
<ele>179.539063</ele>
<time>2012-07-28T17:32:31Z</time>
<speed>0.010000</speed>
<extensions>
<speed>0.0</speed>
<temp>0.00</temp>
<bpm>0</bpm>
<rpm>0.00</rpm>
</extensions>
</trkpt>
<trkpt lat="63.895969391" lon="-22.052286148">
<ele>179.507813</ele>
<time>2012-07-28T17:32:36Z</time>
<speed>0.010000</speed>
<extensions>
<speed>0.0</speed>
<temp>0.00</temp>
<bpm>0</bpm>
<rpm>0.00</rpm>
</extensions>
</trkpt>
<trkpt lat="63.895969391" lon="-22.052286148">
<ele>179.496094</ele>
<time>2012-07-28T17:32:41Z</time>
<extensions>
<speed>0.0</speed>
<temp>0.00</temp>
<bpm>0</bpm>
<rpm>0.00</rpm>
</extensions>
</trkpt>
<trkpt lat="63.895969391" lon="-22.052286148">
<ele>179.460938</ele>
<time>2012-07-28T17:32:46Z</time>
<speed>0.020000</speed>
<extensions>
<speed>0.0</speed>
<temp>0.00</temp>
<bpm>0</bpm>
<rpm>0.00</rpm>
</extensions>
</trkpt>
<trkpt lat="63.895969391" lon="-22.052284241">
<ele>179.453125</ele>
<time>2012-07-28T17:32:51Z</time>
<extensions>
<speed>0.0</speed>
<temp>0.00</temp>
<bpm>0</bpm>
<rpm>0.00</rpm>
</extensions>
</trkpt>
<trkpt lat="63.895969391" lon="-22.052284241">
<ele>179.449219</ele>
<time>2012-07-28T17:32:56Z</time>
<speed>0.010000</speed>
<extensions>
<speed>0.0</speed>
<temp>0.00</temp>
<bpm>0</bpm>
<rpm>0.00</rpm>
</extensions>
</trkpt>
<trkpt lat="63.895969391" lon="-22.052284241">
<ele>179.445313</ele>
<time>2012-07-28T17:33:01Z</time>
<speed>0.010000</speed>
<extensions>
<speed>0.0</speed>
<temp>0.00</temp>
<bpm>0</bpm>
<rpm>0.00</rpm>
</extensions>
</trkpt>
<trkpt lat="63.895969391" lon="-22.052286148">
<ele>179.457031</ele>
<time>2012-07-28T17:33:06Z</time>
<speed>0.020000</speed>
<extensions>
<speed>0.0</speed>
<temp>0.00</temp>
<bpm>0</bpm>
<rpm>0.00</rpm>
</extensions>
</trkpt>
<trkpt lat="63.895969391" lon="-22.052286148">
<ele>179.476563</ele>
<time>2012-07-28T17:33:11Z</time>
<extensions>
<speed>0.0</speed>
<temp>0.00</temp>
<bpm>0</bpm>
<rpm>0.00</rpm>
</extensions>
</trkpt>
<trkpt lat="63.895969391" lon="-22.052286148">
<ele>179.480469</ele>
<time>2012-07-28T17:33:16Z</time>
<extensions>
<speed>0.0</speed>
<temp>0.00</temp>
<bpm>0</bpm>
<rpm>0.00</rpm>
</extensions>
</trkpt>
<trkpt lat="63.895969391" lon="-22.052286148">
<ele>179.496094</ele>
<time>2012-07-28T17:33:21Z</time>
<extensions>
<speed>0.0</speed>
<temp>0.00</temp>
<bpm>0</bpm>
<rpm>0.00</rpm>
</extensions>
</trkpt>
<trkpt lat="63.895969391" lon="-22.052286148">
<ele>179.492188</ele>
<time>2012-07-28T17:33:26Z</time>
<speed>0.020000</speed>
<extensions>
<speed>0.0</speed>
<temp>0.00</temp>
<bpm>0</bpm>
<rpm>0.00</rpm>
</extensions>
</trkpt>
<trkpt lat="63.895969391" lon="-22.052288055">
<ele>179.500000</ele>
<time>2012-07-28T17:33:31Z</time>
<speed>0.040000</speed>
<extensions>
<speed>0.0</speed>
<temp>0.00</temp>
<bpm>0</bpm>
<rpm>0.00</rpm>
</extensions>
</trkpt>
<trkpt lat="63.895969391" lon="-22.052288055">
<ele>179.511719</ele>
<time>2012-07-28T17:33:36Z</time>
<speed>0.010000</speed>
<extensions>
<speed>0.0</speed>
<temp>0.00</temp>
<bpm>0</bpm>
<rpm>0.00</rpm>
</extensions>
</trkpt>
<trkpt lat="63.895969391" lon="-22.052289963">
<ele>179.511719</ele>
<time>2012-07-28T17:33:41Z</time>
<extensions>
<speed>0.0</speed>
<temp>0.00</temp>
<bpm>0</bpm>
<rpm>0.00</rpm>
</extensions>
</trkpt>
<trkpt lat="63.895969391" lon="-22.052289963">
<ele>179.511719</ele>
<time>2012-07-28T17:33:46Z</time>
<extensions>
<speed>0.0</speed>
<temp>0.00</temp>
<bpm>0</bpm>
<rpm>0.00</rpm>
</extensions>
</trkpt>
<trkpt lat="63.895969391" lon="-22.052289963">
<ele>179.515625</ele>
<time>2012-07-28T17:33:51Z</time>
<extensions>
<speed>0.0</speed>
<temp>0.00</temp>
<bpm>0</bpm>
<rpm>0.00</rpm>
</extensions>
</trkpt>
<trkpt lat="63.895969391" lon="-22.052289963">
<ele>179.480469</ele>
<time>2012-07-28T17:33:56Z</time>
<speed>0.010000</speed>
<extensions>
<speed>0.0</speed>
<temp>0.00</temp>
<bpm>0</bpm>
<rpm>0.00</rpm>
</extensions>
</trkpt>
<trkpt lat="63.895969391" lon="-22.052289963">
<ele>179.460938</ele>
<time>2012-07-28T17:34:01Z</time>
<speed>0.020000</speed>
<extensions>
<speed>0.0</speed>
<temp>0.00</temp>
<bpm>0</bpm>
<rpm>0.00</rpm>
</extensions>
</trkpt>
<trkpt lat="63.895969391" lon="-22.052289963">
<ele>179.457031</ele>
<time>2012-07-28T17:34:06Z</time>
<extensions>
<speed>0.0</speed>
<temp>0.00</temp>
<bpm>0</bpm>
<rpm>0.00</rpm>
</extensions>
</trkpt>
<trkpt lat="63.895969391" lon="-22.052288055">
<ele>179.441406</ele>
<time>2012-07-28T17:34:11Z</time>
<extensions>
<speed>0.0</speed>
<temp>0.00</temp>
<bpm>0</bpm>
<rpm>0.00</rpm>
</extensions>
</trkpt>
<trkpt lat="63.895969391" lon="-22.052288055">
<ele>179.410156</ele>
<time>2012-07-28T17:34:16Z</time>
<speed>0.010000</speed>
<extensions>
<speed>0.0</speed>
<temp>0.00</temp>
<bpm>0</bpm>
<rpm>0.00</rpm>
</extensions>
</trkpt>
<trkpt lat="63.895969391" lon="-22.052289963">
<ele>179.382813</ele>
<time>2012-07-28T17:34:21Z</time>
<speed>0.010000</speed>
<extensions>
<speed>0.0</speed>
<temp>0.00</temp>
<bpm>0</bpm>
<rpm>0.00</rpm>
</extensions>
</trkpt>
<trkpt lat="63.895969391" lon="-22.052289963">
<ele>179.367188</ele>
<time>2012-07-28T17:34:26Z</time>
<extensions>
<speed>0.0</speed>
<temp>0.00</temp>
<bpm>0</bpm>
<rpm>0.00</rpm>
</extensions>
</trkpt>
<trkpt lat="63.895969391" lon="-22.052289963">
<ele>179.335938</ele>
<time>2012-07-28T17:34:31Z</time>
<speed>0.010000</speed>
<extensions>
<speed>0.0</speed>
<temp>0.00</temp>
<bpm>0</bpm>
<rpm>0.00</rpm>
</extensions>
</trkpt>
<trkpt lat="63.895969391" lon="-22.052289963">
<ele>179.304688</ele>
<time>2012-07-28T17:34:36Z</time>
<speed>0.010000</speed>
<extensions>
<speed>0.0</speed>
<temp>0.00</temp>
<bpm>0</bpm>
<rpm>0.00</rpm>
</extensions>
</trkpt>
<trkpt lat="63.895969391" lon="-22.052289963">
<ele>179.289063</ele>
<time>2012-07-28T17:34:41Z</time>
<extensions>
<speed>0.0</speed>
<temp>0.00</temp>
<bpm>0</bpm>
<rpm>0.00</rpm>
</extensions>
</trkpt>
<trkpt lat="63.895969391" lon="-22.052289963">
<ele>179.277344</ele>
<time>2012-07-28T17:34:46Z</time>
<extensions>
<speed>0.0</speed>
<temp>0.00</temp>
<bpm>0</bpm>
<rpm>0.00</rpm>
</extensions>
</trkpt>
<trkpt lat="63.895969391" lon="-22.052289963">
<ele>179.281250</ele>
<time>2012-07-28T17:34:51Z</time>
<extensions>
<speed>0.0</speed>
<temp>0.00</temp>
<bpm>0</bpm>
<rpm>0.00</rpm>
</extensions>
</trkpt>
<trkpt lat="63.895969391" lon="-22.052289963">
<ele>179.285156</ele>
<time>2012-07-28T17:34:56Z</time>
<extensions>
<speed>0.0</speed>
<temp>0.00</temp>
<bpm>0</bpm>
<rpm>0.00</rpm>
</extensions>
</trkpt>
<trkpt lat="63.895969391" lon="-22.052289963">
<ele>179.257813</ele>
<time>2012-07-28T17:35:01Z</time>
<speed>0.020000</speed>
<extensions>
<speed>0.0</speed>
<temp>0.00</temp>
<bpm>0</bpm>
<rpm>0.00</rpm>
</extensions>
</trkpt>
<trkpt lat="63.895969391" lon="-22.052289963">
<ele>179.210938</ele>
<time>2012-07-28T17:35:06Z</time>
<speed>0.020000</speed>
<extensions>
<speed>0.0</speed>
<temp>0.00</temp>
<bpm>0</bpm>
<rpm>0.00</rpm>
</extensions>
</trkpt>
<trkpt lat="63.895969391" lon="-22.052289963">
<ele>179.167969</ele>
<time>2012-07-28T17:35:11Z</time>
<speed>0.020000</speed>
<extensions>
<speed>0.0</speed>
<temp>0.00</temp>
<bpm>0</bpm>
<rpm>0.00</rpm>
</extensions>
</trkpt>
<trkpt lat="63.895969391" lon="-22.052289963">
<ele>179.117188</ele>
<time>2012-07-28T17:35:16Z</time>
<speed>0.020000</speed>
<extensions>
<speed>0.0</speed>
<temp>0.00</temp>
<bpm>0</bpm>
<rpm>0.00</rpm>
</extensions>
</trkpt>
<trkpt lat="63.895969391" lon="-22.052288055">
<ele>179.097656</ele>
<time>2012-07-28T17:35:21Z</time>
<speed>0.010000</speed>
<extensions>
<speed>0.0</speed>
<temp>0.00</temp>
<bpm>0</bpm>
<rpm>0.00</rpm>
</extensions>
</trkpt>
<trkpt lat="63.895969391" lon="-22.052288055">
<ele>179.054688</ele>
<time>2012-07-28T17:35:26Z</time>
<speed>0.010000</speed>
<extensions>
<speed>0.0</speed>
<temp>0.00</temp>
<bpm>0</bpm>
<rpm>0.00</rpm>
</extensions>
</trkpt>
<trkpt lat="63.895969391" lon="-22.052288055">
<ele>179.019531</ele>
<time>2012-07-28T17:35:31Z</time>
<speed>0.020000</speed>
<extensions>
<speed>0.0</speed>
<temp>0.00</temp>
<bpm>0</bpm>
<rpm>0.00</rpm>
</extensions>
</trkpt>
<trkpt lat="63.895965576" lon="-22.052288055">
<ele>178.992188</ele>
<time>2012-07-28T17:35:36Z</time>
<speed>0.010000</speed>
<extensions>
<speed>0.0</speed>
<temp>0.00</temp>
<bpm>0</bpm>
<rpm>0.00</rpm>
</extensions>
</trkpt>
<trkpt lat="63.895965576" lon="-22.052288055">
<ele>178.984375</ele>
<time>2012-07-28T17:35:41Z</time>
<speed>0.020000</speed>
<extensions>
<speed>0.0</speed>
<temp>0.00</temp>
<bpm>0</bpm>
<rpm>0.00</rpm>
</extensions>
</trkpt>
<trkpt lat="63.895965576" lon="-22.052288055">
<ele>178.976563</ele>
<time>2012-07-28T17:35:46Z</time>
<speed>0.020000</speed>
<extensions>
<speed>0.0</speed>
<temp>0.00</temp>
<bpm>0</bpm>
<rpm>0.00</rpm>
</extensions>
</trkpt>
<trkpt lat="63.895965576" lon="-22.052288055">
<ele>178.976563</ele>
<time>2012-07-28T17:35:51Z</time>
<speed>0.010000</speed>
<extensions>
<speed>0.0</speed>
<temp>0.00</temp>
<bpm>0</bpm>
<rpm>0.00</rpm>
</extensions>
</trkpt>
<trkpt lat="63.895965576" lon="-22.052288055">
<ele>178.992188</ele>
<time>2012-07-28T17:35:56Z</time>
<speed>0.010000</speed>
<extensions>
<speed>0.0</speed>
<temp>0.00</temp>
<bpm>0</bpm>
<rpm>0.00</rpm>
</extensions>
</trkpt>
<trkpt lat="63.895965576" lon="-22.052288055">
<ele>178.988281</ele>
<time>2012-07-28T17:36:01Z</time>
<speed>0.030000</speed>
<extensions>
<speed>0.0</speed>
<temp>0.00</temp>
<bpm>0</bpm>
<rpm>0.00</rpm>
</extensions>
</trkpt>
<trkpt lat="63.895965576" lon="-22.052289963">
<ele>179.000000</ele>
<time>2012-07-28T17:36:06Z</time>
<extensions>
<speed>0.0</speed>
<temp>0.00</temp>
<bpm>0</bpm>
<rpm>0.00</rpm>
</extensions>
</trkpt>
<trkpt lat="63.895965576" lon="-22.052289963">
<ele>179.015625</ele>
<time>2012-07-28T17:36:11Z</time>
<extensions>
<speed>0.0</speed>
<temp>0.00</temp>
<bpm>0</bpm>
<rpm>0.00</rpm>
</extensions>
</trkpt>
<trkpt lat="63.895965576" lon="-22.052289963">
<ele>179.035156</ele>
<time>2012-07-28T17:36:16Z</time>
<speed>0.020000</speed>
<extensions>
<speed>0.0</speed>
<temp>0.00</temp>
<bpm>0</bpm>
<rpm>0.00</rpm>
</extensions>
</trkpt>
<trkpt lat="63.895965576" lon="-22.052289963">
<ele>179.027344</ele>
<time>2012-07-28T17:36:21Z</time>
<speed>0.010000</speed>
<extensions>
<speed>0.0</speed>
<temp>0.00</temp>
<bpm>0</bpm>
<rpm>0.00</rpm>
</extensions>
</trkpt>
<trkpt lat="63.895965576" lon="-22.052289963">
<ele>178.992188</ele>
<time>2012-07-28T17:36:26Z</time>
<speed>0.010000</speed>
<extensions>
<speed>0.0</speed>
<temp>0.00</temp>
<bpm>0</bpm>
<rpm>0.00</rpm>
</extensions>
</trkpt>
<trkpt lat="63.895965576" lon="-22.052289963">
<ele>178.968750</ele>
<time>2012-07-28T17:36:31Z</time>
<speed>0.010000</speed>
<extensions>
<speed>0.0</speed>
<temp>0.00</temp>
<bpm>0</bpm>
<rpm>0.00</rpm>
</extensions>
</trkpt>
<trkpt lat="63.895965576" lon="-22.052289963">
<ele>178.917969</ele>
<time>2012-07-28T17:36:36Z</time>
<speed>0.020000</speed>
<extensions>
<speed>0.0</speed>
<temp>0.00</temp>
<bpm>0</bpm>
<rpm>0.00</rpm>
</extensions>
</trkpt>
<trkpt lat="63.895965576" lon="-22.052288055">
<ele>178.886719</ele>
<time>2012-07-28T17:36:41Z</time>
<speed>0.010000</speed>
<extensions>
<speed>0.0</speed>
<temp>0.00</temp>
<bpm>0</bpm>
<rpm>0.00</rpm>
</extensions>
</trkpt>
<trkpt lat="63.895965576" lon="-22.052288055">
<ele>178.859375</ele>
<time>2012-07-28T17:36:46Z</time>
<speed>0.030000</speed>
<extensions>
<speed>0.0</speed>
<temp>0.00</temp>
<bpm>0</bpm>
<rpm>0.00</rpm>
</extensions>
</trkpt>
<trkpt lat="63.895961761" lon="-22.052288055">
<ele>178.820313</ele>
<time>2012-07-28T17:36:51Z</time>
<speed>0.040000</speed>
<extensions>
<speed>0.0</speed>
<temp>0.00</temp>
<bpm>0</bpm>
<rpm>0.00</rpm>
</extensions>
</trkpt>
<trkpt lat="63.895961761" lon="-22.052288055">
<ele>178.808594</ele>
<time>2012-07-28T17:36:56Z</time>
<extensions>
<speed>0.0</speed>
<temp>0.00</temp>
<bpm>0</bpm>
<rpm>0.00</rpm>
</extensions>
</trkpt>
<trkpt lat="63.895961761" lon="-22.052288055">
<ele>178.804688</ele>
<time>2012-07-28T17:37:01Z</time>
<extensions>
<speed>0.0</speed>
<temp>0.00</temp>
<bpm>0</bpm>
<rpm>0.00</rpm>
</extensions>
</trkpt>
<trkpt lat="63.895961761" lon="-22.052288055">
<ele>178.781250</ele>
<time>2012-07-28T17:37:06Z</time>
<extensions>
<speed>0.0</speed>
<temp>0.00</temp>
<bpm>0</bpm>
<rpm>0.00</rpm>
</extensions>
</trkpt>
<trkpt lat="63.895961761" lon="-22.052288055">
<ele>178.769531</ele>
<time>2012-07-28T17:37:11Z</time>
<speed>0.010000</speed>
<extensions>
<speed>0.0</speed>
<temp>0.00</temp>
<bpm>0</bpm>
<rpm>0.00</rpm>
</extensions>
</trkpt>
<trkpt lat="63.895961761" lon="-22.052288055">
<ele>178.757813</ele>
<time>2012-07-28T17:37:16Z</time>
<speed>0.010000</speed>
<extensions>
<speed>0.0</speed>
<temp>0.00</temp>
<bpm>0</bpm>
<rpm>0.00</rpm>
</extensions>
</trkpt>
<trkpt lat="63.895961761" lon="-22.052288055">
<ele>178.730469</ele>
<time>2012-07-28T17:37:21Z</time>
<extensions>
<speed>0.0</speed>
<temp>0.00</temp>
<bpm>0</bpm>
<rpm>0.00</rpm>
</extensions>
</trkpt>
<trkpt lat="63.895961761" lon="-22.052288055">
<ele>178.699219</ele>
<time>2012-07-28T17:37:26Z</time>
<extensions>
<speed>0.0</speed>
<temp>0.00</temp>
<bpm>0</bpm>
<rpm>0.00</rpm>
</extensions>
</trkpt>
<trkpt lat="63.895961761" lon="-22.052288055">
<ele>178.695313</ele>
<time>2012-07-28T17:37:31Z</time>
<extensions>
<speed>0.0</speed>
<temp>0.00</temp>
<bpm>0</bpm>
<rpm>0.00</rpm>
</extensions>
</trkpt>
<trkpt lat="63.895961761" lon="-22.052288055">
<ele>178.710938</ele>
<time>2012-07-28T17:37:36Z</time>
<speed>0.010000</speed>
<extensions>
<speed>0.0</speed>
<temp>0.00</temp>
<bpm>0</bpm>
<rpm>0.00</rpm>
</extensions>
</trkpt>
<trkpt lat="63.895961761" lon="-22.052288055">
<ele>178.714844</ele>
<time>2012-07-28T17:37:41Z</time>
<speed>0.020000</speed>
<extensions>
<speed>0.0</speed>
<temp>0.00</temp>
<bpm>0</bpm>
<rpm>0.00</rpm>
</extensions>
</trkpt>
<trkpt lat="63.895961761" lon="-22.052288055">
<ele>178.726563</ele>
<time>2012-07-28T17:37:46Z</time>
<speed>0.010000</speed>
<extensions>
<speed>0.0</speed>
<temp>0.00</temp>
<bpm>0</bpm>
<rpm>0.00</rpm>
</extensions>
</trkpt>
<trkpt lat="63.895961761" lon="-22.052291870">
<ele>179.039063</ele>
<time>2012-07-28T17:37:51Z</time>
<extensions>
<speed>0.0</speed>
<temp>0.00</temp>
<bpm>0</bpm>
<rpm>0.00</rpm>
</extensions>
</trkpt>
<trkpt lat="63.895961761" lon="-22.052299500">
<ele>179.757813</ele>
<time>2012-07-28T17:37:56Z</time>
<speed>0.010000</speed>
<extensions>
<speed>0.0</speed>
<temp>0.00</temp>
<bpm>0</bpm>
<rpm>0.00</rpm>
</extensions>
</trkpt>
<trkpt lat="63.895957947" lon="-22.052295685">
<ele>180.304688</ele>
<time>2012-07-28T17:38:01Z</time>
<extensions>
<speed>0.0</speed>
<temp>0.00</temp>
<bpm>0</bpm>
<rpm>0.00</rpm>
</extensions>
</trkpt>
<trkpt lat="63.895942688" lon="-22.052316666">
<ele>179.792969</ele>
<time>2012-07-28T17:38:06Z</time>
<extensions>
<speed>0.0</speed>
<temp>0.00</temp>
<bpm>0</bpm>
<rpm>0.00</rpm>
</extensions>
</trkpt>
<trkpt lat="63.895919800" lon="-22.052320480">
<ele>179.542969</ele>
<time>2012-07-28T17:38:11Z</time>
<speed>0.030000</speed>
<extensions>
<speed>0.0</speed>
<temp>0.00</temp>
<bpm>0</bpm>
<rpm>0.00</rpm>
</extensions>
</trkpt>
<trkpt lat="63.895904541" lon="-22.052299500">
<ele>178.699219</ele>
<time>2012-07-28T17:38:16Z</time>
<speed>0.010000</speed>
<extensions>
<speed>0.0</speed>
<temp>0.00</temp>
<bpm>0</bpm>
<rpm>0.00</rpm>
</extensions>
</trkpt>
<trkpt lat="63.895904541" lon="-22.052303314">
<ele>178.796875</ele>
<time>2012-07-28T17:38:21Z</time>
<extensions>
<speed>0.0</speed>
<temp>0.00</temp>
<bpm>0</bpm>
<rpm>0.00</rpm>
</extensions>
</trkpt>
<trkpt lat="63.895900726" lon="-22.052314758">
<ele>178.535156</ele>
<time>2012-07-28T17:38:26Z</time>
<speed>0.010000</speed>
<extensions>
<speed>0.0</speed>
<temp>0.00</temp>
<bpm>0</bpm>
<rpm>0.00</rpm>
</extensions>
</trkpt>
<trkpt lat="63.895896912" lon="-22.052333832">
<ele>177.968750</ele>
<time>2012-07-28T17:38:31Z</time>
<speed>0.010000</speed>
<extensions>
<speed>0.0</speed>
<temp>0.00</temp>
<bpm>0</bpm>
<rpm>0.00</rpm>
</extensions>
</trkpt>
<trkpt lat="63.895896912" lon="-22.052331924">
<ele>177.050781</ele>
<time>2012-07-28T17:38:36Z</time>
<speed>0.020000</speed>
<extensions>
<speed>0.0</speed>
<temp>0.00</temp>
<bpm>0</bpm>
<rpm>0.00</rpm>
</extensions>
</trkpt>
<trkpt lat="63.895896912" lon="-22.052331924">
<ele>177.019531</ele>
<time>2012-07-28T17:38:41Z</time>
<speed>0.020000</speed>
<extensions>
<speed>0.0</speed>
<temp>0.00</temp>
<bpm>0</bpm>
<rpm>0.00</rpm>
</extensions>
</trkpt>
<trkpt lat="63.895896912" lon="-22.052331924">
<ele>176.992188</ele>
<time>2012-07-28T17:38:46Z</time>
<extensions>
<speed>0.0</speed>
<temp>0.00</temp>
<bpm>0</bpm>
<rpm>0.00</rpm>
</extensions>
</trkpt>
<trkpt lat="63.895896912" lon="-22.052331924">
<ele>176.984375</ele>
<time>2012-07-28T17:38:51Z</time>
<extensions>
<speed>0.0</speed>
<temp>0.00</temp>
<bpm>0</bpm>
<rpm>0.00</rpm>
</extensions>
</trkpt>
<trkpt lat="63.895896912" lon="-22.052331924">
<ele>176.976563</ele>
<time>2012-07-28T17:38:56Z</time>
<speed>0.010000</speed>
<extensions>
<speed>0.0</speed>
<temp>0.00</temp>
<bpm>0</bpm>
<rpm>0.00</rpm>
</extensions>
</trkpt>
<trkpt lat="63.895896912" lon="-22.052331924">
<ele>176.957031</ele>
<time>2012-07-28T17:39:01Z</time>
<speed>0.010000</speed>
<extensions>
<speed>0.0</speed>
<temp>0.00</temp>
<bpm>0</bpm>
<rpm>0.00</rpm>
</extensions>
</trkpt>
<trkpt lat="63.895896912" lon="-22.052331924">
<ele>176.933594</ele>
<time>2012-07-28T17:39:06Z</time>
<speed>0.010000</speed>
<extensions>
<speed>0.0</speed>
<temp>0.00</temp>
<bpm>0</bpm>
<rpm>0.00</rpm>
</extensions>
</trkpt>
<trkpt lat="63.895896912" lon="-22.052331924">
<ele>176.906250</ele>
<time>2012-07-28T17:39:11Z</time>
<extensions>
<speed>0.0</speed>
<temp>0.00</temp>
<bpm>0</bpm>
<rpm>0.00</rpm>
</extensions>
</trkpt>
<trkpt lat="63.895896912" lon="-22.052331924">
<ele>176.890625</ele>
<time>2012-07-28T17:39:16Z</time>
<extensions>
<speed>0.0</speed>
<temp>0.00</temp>
<bpm>0</bpm>
<rpm>0.00</rpm>
</extensions>
</trkpt>
<trkpt lat="63.895896912" lon="-22.052331924">
<ele>176.875000</ele>
<time>2012-07-28T17:39:21Z</time>
<extensions>
<speed>0.0</speed>
<temp>0.00</temp>
<bpm>0</bpm>
<rpm>0.00</rpm>
</extensions>
</trkpt>
<trkpt lat="63.895896912" lon="-22.052331924">
<ele>176.871094</ele>
<time>2012-07-28T17:39:26Z</time>
<extensions>
<speed>0.0</speed>
<temp>0.00</temp>
<bpm>0</bpm>
<rpm>0.00</rpm>
</extensions>
</trkpt>
<trkpt lat="63.895896912" lon="-22.052331924">
<ele>176.867188</ele>
<time>2012-07-28T17:39:31Z</time>
<speed>0.010000</speed>
<extensions>
<speed>0.0</speed>
<temp>0.00</temp>
<bpm>0</bpm>
<rpm>0.00</rpm>
</extensions>
</trkpt>
<trkpt lat="63.895896912" lon="-22.052331924">
<ele>176.875000</ele>
<time>2012-07-28T17:39:36Z</time>
<speed>0.020000</speed>
<extensions>
<speed>0.0</speed>
<temp>0.00</temp>
<bpm>0</bpm>
<rpm>0.00</rpm>
</extensions>
</trkpt>
<trkpt lat="63.895896912" lon="-22.052331924">
<ele>176.871094</ele>
<time>2012-07-28T17:39:41Z</time>
<extensions>
<speed>0.0</speed>
<temp>0.00</temp>
<bpm>0</bpm>
<rpm>0.00</rpm>
</extensions>
</trkpt>
<trkpt lat="63.895896912" lon="-22.052331924">
<ele>176.882813</ele>
<time>2012-07-28T17:39:46Z</time>
<extensions>
<speed>0.0</speed>
<temp>0.00</temp>
<bpm>0</bpm>
<rpm>0.00</rpm>
</extensions>
</trkpt>
<trkpt lat="63.895896912" lon="-22.052331924">
<ele>176.878906</ele>
<time>2012-07-28T17:39:51Z</time>
<speed>0.010000</speed>
<extensions>
<speed>0.0</speed>
<temp>0.00</temp>
<bpm>0</bpm>
<rpm>0.00</rpm>
</extensions>
</trkpt>
<trkpt lat="63.895896912" lon="-22.052331924">
<ele>176.871094</ele>
<time>2012-07-28T17:39:56Z</time>
<speed>0.010000</speed>
<extensions>
<speed>0.0</speed>
<temp>0.00</temp>
<bpm>0</bpm>
<rpm>0.00</rpm>
</extensions>
</trkpt>
<trkpt lat="63.895896912" lon="-22.052333832">
<ele>176.878906</ele>
<time>2012-07-28T17:40:01Z</time>
<extensions>
<speed>0.0</speed>
<temp>0.00</temp>
<bpm>0</bpm>
<rpm>0.00</rpm>
</extensions>
</trkpt>
<trkpt lat="63.895896912" lon="-22.052333832">
<ele>176.871094</ele>
<time>2012-07-28T17:40:06Z</time>
<extensions>
<speed>0.0</speed>
<temp>0.00</temp>
<bpm>0</bpm>
<rpm>0.00</rpm>
</extensions>
</trkpt>
<trkpt lat="63.895896912" lon="-22.052333832">
<ele>176.863281</ele>
<time>2012-07-28T17:40:11Z</time>
<speed>0.020000</speed>
<extensions>
<speed>0.0</speed>
<temp>0.00</temp>
<bpm>0</bpm>
<rpm>0.00</rpm>
</extensions>
</trkpt>
<trkpt lat="63.895896912" lon="-22.052333832">
<ele>176.843750</ele>
<time>2012-07-28T17:40:16Z</time>
<speed>0.010000</speed>
<extensions>
<speed>0.0</speed>
<temp>0.00</temp>
<bpm>0</bpm>
<rpm>0.00</rpm>
</extensions>
</trkpt>
<trkpt lat="63.895896912" lon="-22.052333832">
<ele>176.832031</ele>
<time>2012-07-28T17:40:21Z</time>
<extensions>
<speed>0.0</speed>
<temp>0.00</temp>
<bpm>0</bpm>
<rpm>0.00</rpm>
</extensions>
</trkpt>
<trkpt lat="63.895896912" lon="-22.052331924">
<ele>176.832031</ele>
<time>2012-07-28T17:40:26Z</time>
<speed>0.010000</speed>
<extensions>
<speed>0.0</speed>
<temp>0.00</temp>
<bpm>0</bpm>
<rpm>0.00</rpm>
</extensions>
</trkpt>
<trkpt lat="63.895896912" lon="-22.052331924">
<ele>176.824219</ele>
<time>2012-07-28T17:40:31Z</time>
<speed>0.010000</speed>
<extensions>
<speed>0.0</speed>
<temp>0.00</temp>
<bpm>0</bpm>
<rpm>0.00</rpm>
</extensions>
</trkpt>
<trkpt lat="63.895896912" lon="-22.052331924">
<ele>176.816406</ele>
<time>2012-07-28T17:40:36Z</time>
<speed>0.020000</speed>
<extensions>
<speed>0.0</speed>
<temp>0.00</temp>
<bpm>0</bpm>
<rpm>0.00</rpm>
</extensions>
</trkpt>
<trkpt lat="63.895896912" lon="-22.052331924">
<ele>176.808594</ele>
<time>2012-07-28T17:40:41Z</time>
<extensions>
<speed>0.0</speed>
<temp>0.00</temp>
<bpm>0</bpm>
<rpm>0.00</rpm>
</extensions>
</trkpt>
<trkpt lat="63.895896912" lon="-22.052331924">
<ele>176.804688</ele>
<time>2012-07-28T17:40:46Z</time>
<extensions>
<speed>0.0</speed>
<temp>0.00</temp>
<bpm>0</bpm>
<rpm>0.00</rpm>
</extensions>
</trkpt>
<trkpt lat="63.895896912" lon="-22.052331924">
<ele>176.792969</ele>
<time>2012-07-28T17:40:51Z</time>
<extensions>
<speed>0.0</speed>
<temp>0.00</temp>
<bpm>0</bpm>
<rpm>0.00</rpm>
</extensions>
</trkpt>
<trkpt lat="63.895900726" lon="-22.052316666">
<ele>176.484375</ele>
<time>2012-07-28T17:40:56Z</time>
<extensions>
<speed>0.0</speed>
<temp>0.00</temp>
<bpm>0</bpm>
<rpm>0.00</rpm>
</extensions>
</trkpt>
<trkpt lat="63.895900726" lon="-22.052305222">
<ele>175.726563</ele>
<time>2012-07-28T17:41:01Z</time>
<speed>0.010000</speed>
<extensions>
<speed>0.0</speed>
<temp>0.00</temp>
<bpm>0</bpm>
<rpm>0.00</rpm>
</extensions>
</trkpt>
<trkpt lat="63.895896912" lon="-22.052299500">
<ele>175.050781</ele>
<time>2012-07-28T17:41:06Z</time>
<speed>0.010000</speed>
<extensions>
<speed>0.0</speed>
<temp>0.00</temp>
<bpm>0</bpm>
<rpm>0.00</rpm>
</extensions>
</trkpt>
<trkpt lat="63.895904541" lon="-22.052309036">
<ele>174.519531</ele>
<time>2012-07-28T17:41:11Z</time>
<speed>0.010000</speed>
<extensions>
<speed>0.0</speed>
<temp>0.00</temp>
<bpm>0</bpm>
<rpm>0.00</rpm>
</extensions>
</trkpt>
<trkpt lat="63.895912170" lon="-22.052303314">
<ele>175.351563</ele>
<time>2012-07-28T17:41:16Z</time>
<speed>0.020000</speed>
<extensions>
<speed>0.0</speed>
<temp>0.00</temp>
<bpm>0</bpm>
<rpm>0.00</rpm>
</extensions>
</trkpt>
<trkpt lat="63.895904541" lon="-22.052320480">
<ele>175.812500</ele>
<time>2012-07-28T17:41:21Z</time>
<extensions>
<speed>0.0</speed>
<temp>0.00</temp>
<bpm>0</bpm>
<rpm>0.00</rpm>
</extensions>
</trkpt>
<trkpt lat="63.895900726" lon="-22.052324295">
<ele>175.921875</ele>
<time>2012-07-28T17:41:26Z</time>
<extensions>
<speed>0.0</speed>
<temp>0.00</temp>
<bpm>0</bpm>
<rpm>0.00</rpm>
</extensions>
</trkpt>
<trkpt lat="63.895889282" lon="-22.052307129">
<ele>175.984375</ele>
<time>2012-07-28T17:41:31Z</time>
<speed>0.010000</speed>
<extensions>
<speed>0.0</speed>
<temp>0.00</temp>
<bpm>0</bpm>
<rpm>0.00</rpm>
</extensions>
</trkpt>
<trkpt lat="63.895877838" lon="-22.052320480">
<ele>176.835938</ele>
<time>2012-07-28T17:41:36Z</time>
<speed>0.030000</speed>
<extensions>
<speed>0.0</speed>
<temp>0.00</temp>
<bpm>0</bpm>
<rpm>0.00</rpm>
</extensions>
</trkpt>
<trkpt lat="63.895877838" lon="-22.052322388">
<ele>176.847656</ele>
<time>2012-07-28T17:41:41Z</time>
<speed>0.020000</speed>
<extensions>
<speed>0.0</speed>
<temp>0.00</temp>
<bpm>0</bpm>
<rpm>0.00</rpm>
</extensions>
</trkpt>
<trkpt lat="63.895877838" lon="-22.052320480">
<ele>176.832031</ele>
<time>2012-07-28T17:41:46Z</time>
<speed>0.010000</speed>
<extensions>
<speed>0.0</speed>
<temp>0.00</temp>
<bpm>0</bpm>
<rpm>0.00</rpm>
</extensions>
</trkpt>
<trkpt lat="63.895877838" lon="-22.052320480">
<ele>176.816406</ele>
<time>2012-07-28T17:41:51Z</time>
<extensions>
<speed>0.0</speed>
<temp>0.00</temp>
<bpm>0</bpm>
<rpm>0.00</rpm>
</extensions>
</trkpt>
<trkpt lat="63.895877838" lon="-22.052320480">
<ele>176.785156</ele>
<time>2012-07-28T17:41:56Z</time>
<speed>0.030000</speed>
<extensions>
<speed>0.0</speed>
<temp>0.00</temp>
<bpm>0</bpm>
<rpm>0.00</rpm>
</extensions>
</trkpt>
<trkpt lat="63.895877838" lon="-22.052318573">
<ele>176.742188</ele>
<time>2012-07-28T17:42:01Z</time>
<speed>0.020000</speed>
<extensions>
<speed>0.0</speed>
<temp>0.00</temp>
<bpm>0</bpm>
<rpm>0.00</rpm>
</extensions>
</trkpt>
<trkpt lat="63.895877838" lon="-22.052318573">
<ele>176.703125</ele>
<time>2012-07-28T17:42:06Z</time>
<extensions>
<speed>0.0</speed>
<temp>0.00</temp>
<bpm>0</bpm>
<rpm>0.00</rpm>
</extensions>
</trkpt>
<trkpt lat="63.895885468" lon="-22.052293777">
<ele>175.000000</ele>
<time>2012-07-28T17:42:11Z</time>
<extensions>
<speed>0.0</speed>
<temp>0.00</temp>
<bpm>0</bpm>
<rpm>0.00</rpm>
</extensions>
</trkpt>
<trkpt lat="63.895889282" lon="-22.052301407">
<ele>174.183594</ele>
<time>2012-07-28T17:42:16Z</time>
<speed>0.020000</speed>
<extensions>
<speed>0.0</speed>
<temp>0.00</temp>
<bpm>0</bpm>
<rpm>0.00</rpm>
</extensions>
</trkpt>
<trkpt lat="63.895893097" lon="-22.052297592">
<ele>173.406250</ele>
<time>2012-07-28T17:42:21Z</time>
<speed>0.030000</speed>
<extensions>
<speed>0.0</speed>
<temp>0.00</temp>
<bpm>0</bpm>
<rpm>0.00</rpm>
</extensions>
</trkpt>
<trkpt lat="63.895896912" lon="-22.052255630">
<ele>173.214844</ele>
<time>2012-07-28T17:42:26Z</time>
<speed>0.010000</speed>
<extensions>
<speed>0.0</speed>
<temp>0.00</temp>
<bpm>0</bpm>
<rpm>0.00</rpm>
</extensions>
</trkpt>
<trkpt lat="63.895900726" lon="-22.052244186">
<ele>172.738281</ele>
<time>2012-07-28T17:42:31Z</time>
<extensions>
<speed>0.0</speed>
<temp>0.00</temp>
<bpm>0</bpm>
<rpm>0.00</rpm>
</extensions>
</trkpt>
<trkpt lat="63.895896912" lon="-22.052249908">
<ele>172.105469</ele>
<time>2012-07-28T17:42:36Z</time>
<extensions>
<speed>0.0</speed>
<temp>0.00</temp>
<bpm>0</bpm>
<rpm>0.00</rpm>
</extensions>
</trkpt>
<trkpt lat="63.895904541" lon="-22.052217484">
<ele>169.304688</ele>
<time>2012-07-28T17:42:41Z</time>
<speed>0.040000</speed>
<extensions>
<speed>0.0</speed>
<temp>0.00</temp>
<bpm>0</bpm>
<rpm>0.00</rpm>
</extensions>
</trkpt>
<trkpt lat="63.895885468" lon="-22.052223206">
<ele>168.882813</ele>
<time>2012-07-28T17:42:46Z</time>
<speed>1.930000</speed>
<extensions>
<speed>1.9</speed>
<temp>0.00</temp>
<bpm>0</bpm>
<rpm>0.00</rpm>
</extensions>
</trkpt>
<trkpt lat="63.895778656" lon="-22.052064896">
<ele>168.050781</ele>
<time>2012-07-28T17:42:51Z</time>
<speed>3.500000</speed>
<extensions>
<speed>3.5</speed>
<temp>0.00</temp>
<bpm>0</bpm>
<rpm>0.00</rpm>
</extensions>
</trkpt>
<trkpt lat="63.895606995" lon="-22.051900864">
<ele>164.933594</ele>
<time>2012-07-28T17:42:56Z</time>
<speed>4.810000</speed>
<extensions>
<speed>4.8</speed>
<temp>0.00</temp>
<bpm>0</bpm>
<rpm>0.00</rpm>
</extensions>
</trkpt>
<trkpt lat="63.895381927" lon="-22.051643372">
<ele>162.660156</ele>
<time>2012-07-28T17:43:01Z</time>
<speed>6.380000</speed>
<extensions>
<speed>6.4</speed>
<temp>0.00</temp>
<bpm>0</bpm>
<rpm>0.00</rpm>
</extensions>
</trkpt>
<trkpt lat="63.895141602" lon="-22.051177979">
<ele>161.371094</ele>
<time>2012-07-28T17:43:06Z</time>
<speed>6.580000</speed>
<extensions>
<speed>6.6</speed>
<temp>0.00</temp>
<bpm>0</bpm>
<rpm>0.00</rpm>
</extensions>
</trkpt>
<trkpt lat="63.895000458" lon="-22.050876617">
<ele>160.078125</ele>
<time>2012-07-28T17:43:11Z</time>
<speed>3.490000</speed>
<extensions>
<speed>3.5</speed>
<temp>0.00</temp>
<bpm>0</bpm>
<rpm>0.00</rpm>
</extensions>
</trkpt>
<trkpt lat="63.894996643" lon="-22.050567627">
<ele>158.351563</ele>
<time>2012-07-28T17:43:16Z</time>
<speed>4.190000</speed>
<extensions>
<speed>4.2</speed>
<temp>0.00</temp>
<bpm>0</bpm>
<rpm>0.00</rpm>
</extensions>
</trkpt>
<trkpt lat="63.895145416" lon="-22.050186157">
<ele>157.570313</ele>
<time>2012-07-28T17:43:21Z</time>
<speed>5.470000</speed>
<extensions>
<speed>5.5</speed>
<temp>0.00</temp>
<bpm>0</bpm>
<rpm>0.00</rpm>
</extensions>
</trkpt>
<trkpt lat="63.895309448" lon="-22.049814224">
<ele>157.558594</ele>
<time>2012-07-28T17:43:26Z</time>
<speed>5.460000</speed>
<extensions>
<speed>5.5</speed>
<temp>0.00</temp>
<bpm>0</bpm>
<rpm>0.00</rpm>
</extensions>
</trkpt>
<trkpt lat="63.895484924" lon="-22.049392700">
<ele>158.671875</ele>
<time>2012-07-28T17:43:31Z</time>
<speed>5.490000</speed>
<extensions>
<speed>5.5</speed>
<temp>0.00</temp>
<bpm>0</bpm>
<rpm>0.00</rpm>
</extensions>
</trkpt>
<trkpt lat="63.895656586" lon="-22.048997879">
<ele>156.605469</ele>
<time>2012-07-28T17:43:36Z</time>
<speed>5.620000</speed>
<extensions>
<speed>5.6</speed>
<temp>0.00</temp>
<bpm>0</bpm>
<rpm>0.00</rpm>
</extensions>
</trkpt>
<trkpt lat="63.895828247" lon="-22.048583984">
<ele>156.226563</ele>
<time>2012-07-28T17:43:41Z</time>
<speed>5.200000</speed>
<extensions>
<speed>5.2</speed>
<temp>0.00</temp>
<bpm>0</bpm>
<rpm>0.00</rpm>
</extensions>
</trkpt>
<trkpt lat="63.895999908" lon="-22.048196793">
<ele>156.687500</ele>
<time>2012-07-28T17:43:46Z</time>
<speed>5.540000</speed>
<extensions>
<speed>5.5</speed>
<temp>0.00</temp>
<bpm>0</bpm>
<rpm>0.00</rpm>
</extensions>
</trkpt>
<trkpt lat="63.896183014" lon="-22.047836304">
<ele>158.238281</ele>
<time>2012-07-28T17:43:51Z</time>
<speed>5.050000</speed>
<extensions>
<speed>5.1</speed>
<temp>0.00</temp>
<bpm>0</bpm>
<rpm>0.00</rpm>
</extensions>
</trkpt>
<trkpt lat="63.896350861" lon="-22.047485352">
<ele>158.492188</ele>
<time>2012-07-28T17:43:56Z</time>
<speed>5.430000</speed>
<extensions>
<speed>5.4</speed>
<temp>0.00</temp>
<bpm>0</bpm>
<rpm>0.00</rpm>
</extensions>
</trkpt>
<trkpt lat="63.896537781" lon="-22.047136307">
<ele>157.714844</ele>
<time>2012-07-28T17:44:01Z</time>
<speed>5.550000</speed>
<extensions>
<speed>5.5</speed>
<temp>0.00</temp>
<bpm>0</bpm>
<rpm>0.00</rpm>
</extensions>
</trkpt>
<trkpt lat="63.896728516" lon="-22.046775818">
<ele>157.507813</ele>
<time>2012-07-28T17:44:06Z</time>
<speed>5.630000</speed>
<extensions>
<speed>5.6</speed>
<temp>0.00</temp>
<bpm>0</bpm>
<rpm>0.00</rpm>
</extensions>
</trkpt>
<trkpt lat="63.896930695" lon="-22.046396255">
<ele>157.234375</ele>
<time>2012-07-28T17:44:11Z</time>
<speed>5.920000</speed>
<extensions>
<speed>5.9</speed>
<temp>0.00</temp>
<bpm>0</bpm>
<rpm>0.00</rpm>
</extensions>
</trkpt>
<trkpt lat="63.897132874" lon="-22.046009064">
<ele>156.132813</ele>
<time>2012-07-28T17:44:16Z</time>
<speed>5.790000</speed>
<extensions>
<speed>5.8</speed>
<temp>0.00</temp>
<bpm>0</bpm>
<rpm>0.00</rpm>
</extensions>
</trkpt>
<trkpt lat="63.897319794" lon="-22.045648575">
<ele>155.492188</ele>
<time>2012-07-28T17:44:21Z</time>
<speed>4.950000</speed>
<extensions>
<speed>4.9</speed>
<temp>0.00</temp>
<bpm>0</bpm>
<rpm>0.00</rpm>
</extensions>
</trkpt>
<trkpt lat="63.897483826" lon="-22.045381546">
<ele>154.941406</ele>
<time>2012-07-28T17:44:26Z</time>
<speed>4.040000</speed>
<extensions>
<speed>4.0</speed>
<temp>0.00</temp>
<bpm>0</bpm>
<rpm>0.00</rpm>
</extensions>
</trkpt>
<trkpt lat="63.897663116" lon="-22.045146942">
<ele>155.214844</ele>
<time>2012-07-28T17:44:31Z</time>
<speed>4.750000</speed>
<extensions>
<speed>4.8</speed>
<temp>0.00</temp>
<bpm>0</bpm>
<rpm>0.00</rpm>
</extensions>
</trkpt>
<trkpt lat="63.897834778" lon="-22.044849396">
<ele>154.941406</ele>
<time>2012-07-28T17:44:36Z</time>
<speed>4.780000</speed>
<extensions>
<speed>4.8</speed>
<temp>0.00</temp>
<bpm>0</bpm>
<rpm>0.00</rpm>
</extensions>
</trkpt>
<trkpt lat="63.897994995" lon="-22.044580460">
<ele>154.890625</ele>
<time>2012-07-28T17:44:41Z</time>
<speed>4.210000</speed>
<extensions>
<speed>4.2</speed>
<temp>0.00</temp>
<bpm>0</bpm>
<rpm>0.00</rpm>
</extensions>
</trkpt>
<trkpt lat="63.898143768" lon="-22.044357300">
<ele>154.285156</ele>
<time>2012-07-28T17:44:46Z</time>
<speed>3.970000</speed>
<extensions>
<speed>4.0</speed>
<temp>0.00</temp>
<bpm>0</bpm>
<rpm>0.00</rpm>
</extensions>
</trkpt>
<trkpt lat="63.898292542" lon="-22.044166565">
<ele>154.964844</ele>
<time>2012-07-28T17:44:51Z</time>
<speed>3.380000</speed>
<extensions>
<speed>3.4</speed>
<temp>0.00</temp>
<bpm>0</bpm>
<rpm>0.00</rpm>
</extensions>
</trkpt>
<trkpt lat="63.898437500" lon="-22.044008255">
<ele>156.851563</ele>
<time>2012-07-28T17:44:56Z</time>
<speed>3.700000</speed>
<extensions>
<speed>3.7</speed>
<temp>0.00</temp>
<bpm>0</bpm>
<rpm>0.00</rpm>
</extensions>
</trkpt>
<trkpt lat="63.898582458" lon="-22.043865204">
<ele>156.578125</ele>
<time>2012-07-28T17:45:01Z</time>
<speed>3.550000</speed>
<extensions>
<speed>3.5</speed>
<temp>0.00</temp>
<bpm>0</bpm>
<rpm>0.00</rpm>
</extensions>
</trkpt>
<trkpt lat="63.898746490" lon="-22.043704987">
<ele>158.500000</ele>
<time>2012-07-28T17:45:06Z</time>
<speed>4.060000</speed>
<extensions>
<speed>4.1</speed>
<temp>0.00</temp>
<bpm>0</bpm>
<rpm>0.00</rpm>
</extensions>
</trkpt>
<trkpt lat="63.898906708" lon="-22.043558121">
<ele>157.445313</ele>
<time>2012-07-28T17:45:11Z</time>
<speed>4.040000</speed>
<extensions>
<speed>4.0</speed>
<temp>0.00</temp>
<bpm>0</bpm>
<rpm>0.00</rpm>
</extensions>
</trkpt>
<trkpt lat="63.899085999" lon="-22.043395996">
<ele>157.214844</ele>
<time>2012-07-28T17:45:16Z</time>
<speed>4.350000</speed>
<extensions>
<speed>4.3</speed>
<temp>0.00</temp>
<bpm>0</bpm>
<rpm>0.00</rpm>
</extensions>
</trkpt>
<trkpt lat="63.899280548" lon="-22.043228149">
<ele>157.410156</ele>
<time>2012-07-28T17:45:21Z</time>
<speed>4.480000</speed>
<extensions>
<speed>4.5</speed>
<temp>0.00</temp>
<bpm>0</bpm>
<rpm>0.00</rpm>
</extensions>
</trkpt>
<trkpt lat="63.899463654" lon="-22.043111801">
<ele>157.261719</ele>
<time>2012-07-28T17:45:26Z</time>
<speed>4.050000</speed>
<extensions>
<speed>4.0</speed>
<temp>0.00</temp>
<bpm>0</bpm>
<rpm>0.00</rpm>
</extensions>
</trkpt>
<trkpt lat="63.899639130" lon="-22.043025970">
<ele>157.062500</ele>
<time>2012-07-28T17:45:31Z</time>
<speed>4.080000</speed>
<extensions>
<speed>4.1</speed>
<temp>0.00</temp>
<bpm>0</bpm>
<rpm>0.00</rpm>
</extensions>
</trkpt>
<trkpt lat="63.899803162" lon="-22.042882919">
<ele>154.371094</ele>
<time>2012-07-28T17:45:36Z</time>
<speed>3.910000</speed>
<extensions>
<speed>3.9</speed>
<temp>0.00</temp>
<bpm>0</bpm>
<rpm>0.00</rpm>
</extensions>
</trkpt>
<trkpt lat="63.899963379" lon="-22.042781830">
<ele>152.988281</ele>
<time>2012-07-28T17:45:41Z</time>
<speed>3.790000</speed>
<extensions>
<speed>3.8</speed>
<temp>0.00</temp>
<bpm>0</bpm>
<rpm>0.00</rpm>
</extensions>
</trkpt>
<trkpt lat="63.900127411" lon="-22.042665482">
<ele>151.394531</ele>
<time>2012-07-28T17:45:46Z</time>
<speed>3.950000</speed>
<extensions>
<speed>4.0</speed>
<temp>0.00</temp>
<bpm>0</bpm>
<rpm>0.00</rpm>
</extensions>
</trkpt>
<trkpt lat="63.900302887" lon="-22.042524338">
<ele>151.351563</ele>
<time>2012-07-28T17:45:51Z</time>
<speed>4.310000</speed>
<extensions>
<speed>4.3</speed>
<temp>0.00</temp>
<bpm>0</bpm>
<rpm>0.00</rpm>
</extensions>
</trkpt>
<trkpt lat="63.900470734" lon="-22.042400360">
<ele>150.628906</ele>
<time>2012-07-28T17:45:56Z</time>
<speed>3.930000</speed>
<extensions>
<speed>3.9</speed>
<temp>0.00</temp>
<bpm>0</bpm>
<rpm>0.00</rpm>
</extensions>
</trkpt>
<trkpt lat="63.900604248" lon="-22.042230606">
<ele>151.085938</ele>
<time>2012-07-28T17:46:01Z</time>
<speed>3.330000</speed>
<extensions>
<speed>3.3</speed>
<temp>0.00</temp>
<bpm>0</bpm>
<rpm>0.00</rpm>
</extensions>
</trkpt>
<trkpt lat="63.900764465" lon="-22.042093277">
<ele>152.937500</ele>
<time>2012-07-28T17:46:06Z</time>
<speed>3.780000</speed>
<extensions>
<speed>3.8</speed>
<temp>0.00</temp>
<bpm>0</bpm>
<rpm>0.00</rpm>
</extensions>
</trkpt>
<trkpt lat="63.900901794" lon="-22.041997910">
<ele>151.222656</ele>
<time>2012-07-28T17:46:11Z</time>
<speed>3.490000</speed>
<extensions>
<speed>3.5</speed>
<temp>0.00</temp>
<bpm>0</bpm>
<rpm>0.00</rpm>
</extensions>
</trkpt>
<trkpt lat="63.901058197" lon="-22.041891098">
<ele>150.937500</ele>
<time>2012-07-28T17:46:16Z</time>
<speed>3.670000</speed>
<extensions>
<speed>3.7</speed>
<temp>0.00</temp>
<bpm>0</bpm>
<rpm>0.00</rpm>
</extensions>
</trkpt>
<trkpt lat="63.901206970" lon="-22.041780472">
<ele>149.980469</ele>
<time>2012-07-28T17:46:21Z</time>
<speed>3.540000</speed>
<extensions>
<speed>3.5</speed>
<temp>0.00</temp>
<bpm>0</bpm>
<rpm>0.00</rpm>
</extensions>
</trkpt>
<trkpt lat="63.901355743" lon="-22.041656494">
<ele>148.410156</ele>
<time>2012-07-28T17:46:26Z</time>
<speed>3.790000</speed>
<extensions>
<speed>3.8</speed>
<temp>0.00</temp>
<bpm>0</bpm>
<rpm>0.00</rpm>
</extensions>
</trkpt>
<trkpt lat="63.901496887" lon="-22.041543961">
<ele>147.488281</ele>
<time>2012-07-28T17:46:31Z</time>
<speed>2.840000</speed>
<extensions>
<speed>2.8</speed>
<temp>0.00</temp>
<bpm>0</bpm>
<rpm>0.00</rpm>
</extensions>
</trkpt>
<trkpt lat="63.901634216" lon="-22.041444778">
<ele>148.128906</ele>
<time>2012-07-28T17:46:36Z</time>
<speed>3.460000</speed>
<extensions>
<speed>3.5</speed>
<temp>0.00</temp>
<bpm>0</bpm>
<rpm>0.00</rpm>
</extensions>
</trkpt>
<trkpt lat="63.901775360" lon="-22.041324615">
<ele>146.976563</ele>
<time>2012-07-28T17:46:41Z</time>
<speed>3.610000</speed>
<extensions>
<speed>3.6</speed>
<temp>0.00</temp>
<bpm>0</bpm>
<rpm>0.00</rpm>
</extensions>
</trkpt>
<trkpt lat="63.901905060" lon="-22.041233063">
<ele>146.312500</ele>
<time>2012-07-28T17:46:46Z</time>
<speed>2.630000</speed>
<extensions>
<speed>2.6</speed>
<temp>0.00</temp>
<bpm>0</bpm>
<rpm>0.00</rpm>
</extensions>
</trkpt>
<trkpt lat="63.902008057" lon="-22.041166306">
<ele>147.839844</ele>
<time>2012-07-28T17:46:51Z</time>
<speed>2.520000</speed>
<extensions>
<speed>2.5</speed>
<temp>0.00</temp>
<bpm>0</bpm>
<rpm>0.00</rpm>
</extensions>
</trkpt>
<trkpt lat="63.902130127" lon="-22.041080475">
<ele>149.324219</ele>
<time>2012-07-28T17:46:56Z</time>
<speed>3.130000</speed>
<extensions>
<speed>3.1</speed>
<temp>0.00</temp>
<bpm>0</bpm>
<rpm>0.00</rpm>
</extensions>
</trkpt>
<trkpt lat="63.902271271" lon="-22.040990829">
<ele>147.519531</ele>
<time>2012-07-28T17:47:01Z</time>
<speed>3.390000</speed>
<extensions>
<speed>3.4</speed>
<temp>0.00</temp>
<bpm>0</bpm>
<rpm>0.00</rpm>
</extensions>
</trkpt>
<trkpt lat="63.902408600" lon="-22.040895462">
<ele>146.160156</ele>
<time>2012-07-28T17:47:06Z</time>
<speed>3.560000</speed>
<extensions>
<speed>3.6</speed>
<temp>0.00</temp>
<bpm>0</bpm>
<rpm>0.00</rpm>
</extensions>
</trkpt>
<trkpt lat="63.902565002" lon="-22.040750504">
<ele>147.679688</ele>
<time>2012-07-28T17:47:11Z</time>
<speed>3.890000</speed>
<extensions>
<speed>3.9</speed>
<temp>0.00</temp>
<bpm>0</bpm>
<rpm>0.00</rpm>
</extensions>
</trkpt>
<trkpt lat="63.902729034" lon="-22.040626526">
<ele>148.378906</ele>
<time>2012-07-28T17:47:16Z</time>
<speed>4.080000</speed>
<extensions>
<speed>4.1</speed>
<temp>0.00</temp>
<bpm>0</bpm>
<rpm>0.00</rpm>
</extensions>
</trkpt>
<trkpt lat="63.902900696" lon="-22.040494919">
<ele>148.000000</ele>
<time>2012-07-28T17:47:21Z</time>
<speed>4.220000</speed>
<extensions>
<speed>4.2</speed>
<temp>0.00</temp>
<bpm>0</bpm>
<rpm>0.00</rpm>
</extensions>
</trkpt>
<trkpt lat="63.903079987" lon="-22.040367126">
<ele>146.117188</ele>
<time>2012-07-28T17:47:26Z</time>
<speed>4.230000</speed>
<extensions>
<speed>4.2</speed>
<temp>0.00</temp>
<bpm>0</bpm>
<rpm>0.00</rpm>
</extensions>
</trkpt>
<trkpt lat="63.903263092" lon="-22.040227890">
<ele>146.246094</ele>
<time>2012-07-28T17:47:31Z</time>
<speed>4.180000</speed>
<extensions>
<speed>4.2</speed>
<temp>0.00</temp>
<bpm>0</bpm>
<rpm>0.00</rpm>
</extensions>
</trkpt>
<trkpt lat="63.903442383" lon="-22.040082932">
<ele>146.355469</ele>
<time>2012-07-28T17:47:36Z</time>
<speed>4.260000</speed>
<extensions>
<speed>4.3</speed>
<temp>0.00</temp>
<bpm>0</bpm>
<rpm>0.00</rpm>
</extensions>
</trkpt>
<trkpt lat="63.903606415" lon="-22.039937973">
<ele>145.421875</ele>
<time>2012-07-28T17:47:41Z</time>
<speed>4.060000</speed>
<extensions>
<speed>4.1</speed>
<temp>0.00</temp>
<bpm>0</bpm>
<rpm>0.00</rpm>
</extensions>
</trkpt>
<trkpt lat="63.903762817" lon="-22.039819717">
<ele>145.136719</ele>
<time>2012-07-28T17:47:46Z</time>
<speed>3.130000</speed>
<extensions>
<speed>3.1</speed>
<temp>0.00</temp>
<bpm>0</bpm>
<rpm>0.00</rpm>
</extensions>
</trkpt>
<trkpt lat="63.903900146" lon="-22.039699554">
<ele>146.050781</ele>
<time>2012-07-28T17:47:51Z</time>
<speed>3.320000</speed>
<extensions>
<speed>3.3</speed>
<temp>0.00</temp>
<bpm>0</bpm>
<rpm>0.00</rpm>
</extensions>
</trkpt>
<trkpt lat="63.904045105" lon="-22.039594650">
<ele>148.722656</ele>
<time>2012-07-28T17:47:56Z</time>
<speed>3.390000</speed>
<extensions>
<speed>3.4</speed>
<temp>0.00</temp>
<bpm>0</bpm>
<rpm>0.00</rpm>
</extensions>
</trkpt>
<trkpt lat="63.904182434" lon="-22.039501190">
<ele>149.976563</ele>
<time>2012-07-28T17:48:01Z</time>
<speed>3.570000</speed>
<extensions>
<speed>3.6</speed>
<temp>0.00</temp>
<bpm>0</bpm>
<rpm>0.00</rpm>
</extensions>
</trkpt>
<trkpt lat="63.904342651" lon="-22.039382935">
<ele>150.664063</ele>
<time>2012-07-28T17:48:06Z</time>
<speed>3.830000</speed>
<extensions>
<speed>3.8</speed>
<temp>0.00</temp>
<bpm>0</bpm>
<rpm>0.00</rpm>
</extensions>
</trkpt>
<trkpt lat="63.904495239" lon="-22.039257050">
<ele>148.925781</ele>
<time>2012-07-28T17:48:11Z</time>
<speed>3.320000</speed>
<extensions>
<speed>3.3</speed>
<temp>0.00</temp>
<bpm>0</bpm>
<rpm>0.00</rpm>
</extensions>
</trkpt>
<trkpt lat="63.904640198" lon="-22.039163589">
<ele>149.816406</ele>
<time>2012-07-28T17:48:16Z</time>
<speed>3.320000</speed>
<extensions>
<speed>3.3</speed>
<temp>0.00</temp>
<bpm>0</bpm>
<rpm>0.00</rpm>
</extensions>
</trkpt>
<trkpt lat="63.904769897" lon="-22.039051056">
<ele>148.574219</ele>
<time>2012-07-28T17:48:21Z</time>
<speed>3.170000</speed>
<extensions>
<speed>3.2</speed>
<temp>0.00</temp>
<bpm>0</bpm>
<rpm>0.00</rpm>
</extensions>
</trkpt>
<trkpt lat="63.904884338" lon="-22.038944244">
<ele>148.117188</ele>
<time>2012-07-28T17:48:26Z</time>
<speed>2.700000</speed>
<extensions>
<speed>2.7</speed>
<temp>0.00</temp>
<bpm>0</bpm>
<rpm>0.00</rpm>
</extensions>
</trkpt>
<trkpt lat="63.905033112" lon="-22.038829803">
<ele>150.230469</ele>
<time>2012-07-28T17:48:31Z</time>
<speed>3.810000</speed>
<extensions>
<speed>3.8</speed>
<temp>0.00</temp>
<bpm>0</bpm>
<rpm>0.00</rpm>
</extensions>
</trkpt>
<trkpt lat="63.905204773" lon="-22.038703918">
<ele>150.179688</ele>
<time>2012-07-28T17:48:36Z</time>
<speed>3.770000</speed>
<extensions>
<speed>3.8</speed>
<temp>0.00</temp>
<bpm>0</bpm>
<rpm>0.00</rpm>
</extensions>
</trkpt>
<trkpt lat="63.905357361" lon="-22.038583755">
<ele>148.437500</ele>
<time>2012-07-28T17:48:41Z</time>
<speed>3.930000</speed>
<extensions>
<speed>3.9</speed>
<temp>0.00</temp>
<bpm>0</bpm>
<rpm>0.00</rpm>
</extensions>
</trkpt>
<trkpt lat="63.905540466" lon="-22.038440704">
<ele>148.695313</ele>
<time>2012-07-28T17:48:46Z</time>
<speed>4.580000</speed>
<extensions>
<speed>4.6</speed>
<temp>0.00</temp>
<bpm>0</bpm>
<rpm>0.00</rpm>
</extensions>
</trkpt>
<trkpt lat="63.905712128" lon="-22.038301468">
<ele>147.218750</ele>
<time>2012-07-28T17:48:51Z</time>
<speed>4.170000</speed>
<extensions>
<speed>4.2</speed>
<temp>0.00</temp>
<bpm>0</bpm>
<rpm>0.00</rpm>
</extensions>
</trkpt>
<trkpt lat="63.905891418" lon="-22.038173676">
<ele>145.546875</ele>
<time>2012-07-28T17:48:56Z</time>
<speed>4.050000</speed>
<extensions>
<speed>4.0</speed>
<temp>0.00</temp>
<bpm>0</bpm>
<rpm>0.00</rpm>
</extensions>
</trkpt>
<trkpt lat="63.906051636" lon="-22.038043976">
<ele>145.304688</ele>
<time>2012-07-28T17:49:01Z</time>
<speed>3.450000</speed>
<extensions>
<speed>3.5</speed>
<temp>0.00</temp>
<bpm>0</bpm>
<rpm>0.00</rpm>
</extensions>
</trkpt>
<trkpt lat="63.906188965" lon="-22.037931442">
<ele>147.933594</ele>
<time>2012-07-28T17:49:06Z</time>
<speed>2.750000</speed>
<extensions>
<speed>2.7</speed>
<temp>0.00</temp>
<bpm>0</bpm>
<rpm>0.00</rpm>
</extensions>
</trkpt>
<trkpt lat="63.906291962" lon="-22.037858963">
<ele>147.171875</ele>
<time>2012-07-28T17:49:11Z</time>
<speed>2.620000</speed>
<extensions>
<speed>2.6</speed>
<temp>0.00</temp>
<bpm>0</bpm>
<rpm>0.00</rpm>
</extensions>
</trkpt>
<trkpt lat="63.906398773" lon="-22.037776947">
<ele>145.144531</ele>
<time>2012-07-28T17:49:16Z</time>
<speed>2.300000</speed>
<extensions>
<speed>2.3</speed>
<temp>0.00</temp>
<bpm>0</bpm>
<rpm>0.00</rpm>
</extensions>
</trkpt>
<trkpt lat="63.906509399" lon="-22.037700653">
<ele>145.460938</ele>
<time>2012-07-28T17:49:21Z</time>
<speed>3.090000</speed>
<extensions>
<speed>3.1</speed>
<temp>0.00</temp>
<bpm>0</bpm>
<rpm>0.00</rpm>
</extensions>
</trkpt>
<trkpt lat="63.906639099" lon="-22.037599564">
<ele>145.593750</ele>
<time>2012-07-28T17:49:26Z</time>
<speed>2.840000</speed>
<extensions>
<speed>2.8</speed>
<temp>0.00</temp>
<bpm>0</bpm>
<rpm>0.00</rpm>
</extensions>
</trkpt>
<trkpt lat="63.906768799" lon="-22.037504196">
<ele>145.566406</ele>
<time>2012-07-28T17:49:31Z</time>
<speed>3.360000</speed>
<extensions>
<speed>3.4</speed>
<temp>0.00</temp>
<bpm>0</bpm>
<rpm>0.00</rpm>
</extensions>
</trkpt>
<trkpt lat="63.906917572" lon="-22.037412643">
<ele>145.281250</ele>
<time>2012-07-28T17:49:36Z</time>
<speed>3.530000</speed>
<extensions>
<speed>3.5</speed>
<temp>0.00</temp>
<bpm>0</bpm>
<rpm>0.00</rpm>
</extensions>
</trkpt>
<trkpt lat="63.907058716" lon="-22.037311554">
<ele>144.460938</ele>
<time>2012-07-28T17:49:41Z</time>
<speed>2.850000</speed>
<extensions>
<speed>2.9</speed>
<temp>0.00</temp>
<bpm>0</bpm>
<rpm>0.00</rpm>
</extensions>
</trkpt>
<trkpt lat="63.907199860" lon="-22.037191391">
<ele>144.515625</ele>
<time>2012-07-28T17:49:46Z</time>
<speed>3.730000</speed>
<extensions>
<speed>3.7</speed>
<temp>0.00</temp>
<bpm>0</bpm>
<rpm>0.00</rpm>
</extensions>
</trkpt>
<trkpt lat="63.907348633" lon="-22.037082672">
<ele>144.437500</ele>
<time>2012-07-28T17:49:51Z</time>
<speed>3.260000</speed>
<extensions>
<speed>3.3</speed>
<temp>0.00</temp>
<bpm>0</bpm>
<rpm>0.00</rpm>
</extensions>
</trkpt>
<trkpt lat="63.907505035" lon="-22.036970139">
<ele>144.472656</ele>
<time>2012-07-28T17:49:56Z</time>
<speed>3.750000</speed>
<extensions>
<speed>3.8</speed>
<temp>0.00</temp>
<bpm>0</bpm>
<rpm>0.00</rpm>
</extensions>
</trkpt>
<trkpt lat="63.907661438" lon="-22.036848068">
<ele>145.128906</ele>
<time>2012-07-28T17:50:01Z</time>
<speed>3.770000</speed>
<extensions>
<speed>3.8</speed>
<temp>0.00</temp>
<bpm>0</bpm>
<rpm>0.00</rpm>
</extensions>
</trkpt>
<trkpt lat="63.907817841" lon="-22.036737442">
<ele>144.871094</ele>
<time>2012-07-28T17:50:06Z</time>
<speed>3.550000</speed>
<extensions>
<speed>3.5</speed>
<temp>0.00</temp>
<bpm>0</bpm>
<rpm>0.00</rpm>
</extensions>
</trkpt>
<trkpt lat="63.907966614" lon="-22.036630630">
<ele>144.167969</ele>
<time>2012-07-28T17:50:11Z</time>
<speed>3.550000</speed>
<extensions>
<speed>3.5</speed>
<temp>0.00</temp>
<bpm>0</bpm>
<rpm>0.00</rpm>
</extensions>
</trkpt>
<trkpt lat="63.908111572" lon="-22.036506653">
<ele>143.964844</ele>
<time>2012-07-28T17:50:16Z</time>
<speed>3.370000</speed>
<extensions>
<speed>3.4</speed>
<temp>0.00</temp>
<bpm>0</bpm>
<rpm>0.00</rpm>
</extensions>
</trkpt>
<trkpt lat="63.908252716" lon="-22.036403656">
<ele>144.437500</ele>
<time>2012-07-28T17:50:21Z</time>
<speed>3.400000</speed>
<extensions>
<speed>3.4</speed>
<temp>0.00</temp>
<bpm>0</bpm>
<rpm>0.00</rpm>
</extensions>
</trkpt>
<trkpt lat="63.908393860" lon="-22.036291122">
<ele>144.468750</ele>
<time>2012-07-28T17:50:26Z</time>
<speed>3.440000</speed>
<extensions>
<speed>3.4</speed>
<temp>0.00</temp>
<bpm>0</bpm>
<rpm>0.00</rpm>
</extensions>
</trkpt>
<trkpt lat="63.908546448" lon="-22.036155701">
<ele>144.878906</ele>
<time>2012-07-28T17:50:31Z</time>
<speed>3.580000</speed>
<extensions>
<speed>3.6</speed>
<temp>0.00</temp>
<bpm>0</bpm>
<rpm>0.00</rpm>
</extensions>
</trkpt>
<trkpt lat="63.908695221" lon="-22.036027908">
<ele>145.484375</ele>
<time>2012-07-28T17:50:36Z</time>
<speed>3.510000</speed>
<extensions>
<speed>3.5</speed>
<temp>0.00</temp>
<bpm>0</bpm>
<rpm>0.00</rpm>
</extensions>
</trkpt>
<trkpt lat="63.908847809" lon="-22.035923004">
<ele>146.097656</ele>
<time>2012-07-28T17:50:41Z</time>
<speed>3.630000</speed>
<extensions>
<speed>3.6</speed>
<temp>0.00</temp>
<bpm>0</bpm>
<rpm>0.00</rpm>
</extensions>
</trkpt>
<trkpt lat="63.908966064" lon="-22.035861969">
<ele>145.667969</ele>
<time>2012-07-28T17:50:46Z</time>
<speed>2.280000</speed>
<extensions>
<speed>2.3</speed>
<temp>0.00</temp>
<bpm>0</bpm>
<rpm>0.00</rpm>
</extensions>
</trkpt>
<trkpt lat="63.909080505" lon="-22.035762787">
<ele>145.167969</ele>
<time>2012-07-28T17:50:51Z</time>
<speed>3.030000</speed>
<extensions>
<speed>3.0</speed>
<temp>0.00</temp>
<bpm>0</bpm>
<rpm>0.00</rpm>
</extensions>
</trkpt>
<trkpt lat="63.909214020" lon="-22.035671234">
<ele>145.343750</ele>
<time>2012-07-28T17:50:56Z</time>
<speed>3.240000</speed>
<extensions>
<speed>3.2</speed>
<temp>0.00</temp>
<bpm>0</bpm>
<rpm>0.00</rpm>
</extensions>
</trkpt>
<trkpt lat="63.909343719" lon="-22.035558701">
<ele>147.031250</ele>
<time>2012-07-28T17:51:01Z</time>
<speed>3.010000</speed>
<extensions>
<speed>3.0</speed>
<temp>0.00</temp>
<bpm>0</bpm>
<rpm>0.00</rpm>
</extensions>
</trkpt>
<trkpt lat="63.909458160" lon="-22.035459518">
<ele>148.925781</ele>
<time>2012-07-28T17:51:06Z</time>
<speed>2.620000</speed>
<extensions>
<speed>2.6</speed>
<temp>0.00</temp>
<bpm>0</bpm>
<rpm>0.00</rpm>
</extensions>
</trkpt>
<trkpt lat="63.909572601" lon="-22.035398483">
<ele>150.308594</ele>
<time>2012-07-28T17:51:11Z</time>
<speed>2.720000</speed>
<extensions>
<speed>2.7</speed>
<temp>0.00</temp>
<bpm>0</bpm>
<rpm>0.00</rpm>
</extensions>
</trkpt>
<trkpt lat="63.909694672" lon="-22.035312653">
<ele>150.761719</ele>
<time>2012-07-28T17:51:16Z</time>
<speed>2.730000</speed>
<extensions>
<speed>2.7</speed>
<temp>0.00</temp>
<bpm>0</bpm>
<rpm>0.00</rpm>
</extensions>
</trkpt>
<trkpt lat="63.909797668" lon="-22.035169601">
<ele>149.515625</ele>
<time>2012-07-28T17:51:21Z</time>
<speed>3.010000</speed>
<extensions>
<speed>3.0</speed>
<temp>0.00</temp>
<bpm>0</bpm>
<rpm>0.00</rpm>
</extensions>
</trkpt>
<trkpt lat="63.909915924" lon="-22.035083771">
<ele>148.328125</ele>
<time>2012-07-28T17:51:26Z</time>
<speed>2.940000</speed>
<extensions>
<speed>2.9</speed>
<temp>0.00</temp>
<bpm>0</bpm>
<rpm>0.00</rpm>
</extensions>
</trkpt>
<trkpt lat="63.910030365" lon="-22.034982681">
<ele>149.214844</ele>
<time>2012-07-28T17:51:31Z</time>
<speed>2.920000</speed>
<extensions>
<speed>2.9</speed>
<temp>0.00</temp>
<bpm>0</bpm>
<rpm>0.00</rpm>
</extensions>
</trkpt>
<trkpt lat="63.910148621" lon="-22.034854889">
<ele>148.765625</ele>
<time>2012-07-28T17:51:36Z</time>
<speed>3.190000</speed>
<extensions>
<speed>3.2</speed>
<temp>0.00</temp>
<bpm>0</bpm>
<rpm>0.00</rpm>
</extensions>
</trkpt>
<trkpt lat="63.910282135" lon="-22.034698486">
<ele>149.296875</ele>
<time>2012-07-28T17:51:41Z</time>
<speed>3.330000</speed>
<extensions>
<speed>3.3</speed>
<temp>0.00</temp>
<bpm>0</bpm>
<rpm>0.00</rpm>
</extensions>
</trkpt>
<trkpt lat="63.910415649" lon="-22.034549713">
<ele>148.378906</ele>
<time>2012-07-28T17:51:46Z</time>
<speed>3.170000</speed>
<extensions>
<speed>3.2</speed>
<temp>0.00</temp>
<bpm>0</bpm>
<rpm>0.00</rpm>
</extensions>
</trkpt>
<trkpt lat="63.910549164" lon="-22.034387589">
<ele>148.652344</ele>
<time>2012-07-28T17:51:51Z</time>
<speed>3.250000</speed>
<extensions>
<speed>3.2</speed>
<temp>0.00</temp>
<bpm>0</bpm>
<rpm>0.00</rpm>
</extensions>
</trkpt>
<trkpt lat="63.910671234" lon="-22.034210205">
<ele>148.695313</ele>
<time>2012-07-28T17:51:56Z</time>
<speed>2.800000</speed>
<extensions>
<speed>2.8</speed>
<temp>0.00</temp>
<bpm>0</bpm>
<rpm>0.00</rpm>
</extensions>
</trkpt>
<trkpt lat="63.910758972" lon="-22.034074783">
<ele>149.140625</ele>
<time>2012-07-28T17:52:01Z</time>
<speed>2.360000</speed>
<extensions>
<speed>2.4</speed>
<temp>0.00</temp>
<bpm>0</bpm>
<rpm>0.00</rpm>
</extensions>
</trkpt>
<trkpt lat="63.910858154" lon="-22.033967972">
<ele>148.777344</ele>
<time>2012-07-28T17:52:06Z</time>
<speed>2.750000</speed>
<extensions>
<speed>2.7</speed>
<temp>0.00</temp>
<bpm>0</bpm>
<rpm>0.00</rpm>
</extensions>
</trkpt>
<trkpt lat="63.910957336" lon="-22.033815384">
<ele>148.011719</ele>
<time>2012-07-28T17:52:11Z</time>
<speed>3.020000</speed>
<extensions>
<speed>3.0</speed>
<temp>0.00</temp>
<bpm>0</bpm>
<rpm>0.00</rpm>
</extensions>
</trkpt>
<trkpt lat="63.911071777" lon="-22.033626556">
<ele>147.882813</ele>
<time>2012-07-28T17:52:16Z</time>
<speed>3.340000</speed>
<extensions>
<speed>3.3</speed>
<temp>0.00</temp>
<bpm>0</bpm>
<rpm>0.00</rpm>
</extensions>
</trkpt>
<trkpt lat="63.911193848" lon="-22.033416748">
<ele>148.062500</ele>
<time>2012-07-28T17:52:21Z</time>
<speed>3.590000</speed>
<extensions>
<speed>3.6</speed>
<temp>0.00</temp>
<bpm>0</bpm>
<rpm>0.00</rpm>
</extensions>
</trkpt>
<trkpt lat="63.911308289" lon="-22.033220291">
<ele>148.652344</ele>
<time>2012-07-28T17:52:26Z</time>
<speed>2.440000</speed>
<extensions>
<speed>2.4</speed>
<temp>0.00</temp>
<bpm>0</bpm>
<rpm>0.00</rpm>
</extensions>
</trkpt>
<trkpt lat="63.911411285" lon="-22.033010483">
<ele>148.593750</ele>
<time>2012-07-28T17:52:31Z</time>
<speed>3.460000</speed>
<extensions>
<speed>3.5</speed>
<temp>0.00</temp>
<bpm>0</bpm>
<rpm>0.00</rpm>
</extensions>
</trkpt>
<trkpt lat="63.911525726" lon="-22.032785416">
<ele>149.710938</ele>
<time>2012-07-28T17:52:36Z</time>
<speed>3.050000</speed>
<extensions>
<speed>3.0</speed>
<temp>0.00</temp>
<bpm>0</bpm>
<rpm>0.00</rpm>
</extensions>
</trkpt>
<trkpt lat="63.911632538" lon="-22.032617569">
<ele>150.328125</ele>
<time>2012-07-28T17:52:41Z</time>
<speed>3.480000</speed>
<extensions>
<speed>3.5</speed>
<temp>0.00</temp>
<bpm>0</bpm>
<rpm>0.00</rpm>
</extensions>
</trkpt>
<trkpt lat="63.911739349" lon="-22.032424927">
<ele>149.039063</ele>
<time>2012-07-28T17:52:46Z</time>
<speed>3.510000</speed>
<extensions>
<speed>3.5</speed>
<temp>0.00</temp>
<bpm>0</bpm>
<rpm>0.00</rpm>
</extensions>
</trkpt>
<trkpt lat="63.911861420" lon="-22.032178879">
<ele>148.515625</ele>
<time>2012-07-28T17:52:51Z</time>
<speed>3.530000</speed>
<extensions>
<speed>3.5</speed>
<temp>0.00</temp>
<bpm>0</bpm>
<rpm>0.00</rpm>
</extensions>
</trkpt>
<trkpt lat="63.911964417" lon="-22.031986237">
<ele>148.558594</ele>
<time>2012-07-28T17:52:56Z</time>
<speed>2.610000</speed>
<extensions>
<speed>2.6</speed>
<temp>0.00</temp>
<bpm>0</bpm>
<rpm>0.00</rpm>
</extensions>
</trkpt>
<trkpt lat="63.912048340" lon="-22.031816483">
<ele>149.292969</ele>
<time>2012-07-28T17:53:01Z</time>
<speed>2.990000</speed>
<extensions>
<speed>3.0</speed>
<temp>0.00</temp>
<bpm>0</bpm>
<rpm>0.00</rpm>
</extensions>
</trkpt>
<trkpt lat="63.912143707" lon="-22.031621933">
<ele>149.554688</ele>
<time>2012-07-28T17:53:06Z</time>
<speed>2.380000</speed>
<extensions>
<speed>2.4</speed>
<temp>0.00</temp>
<bpm>0</bpm>
<rpm>0.00</rpm>
</extensions>
</trkpt>
<trkpt lat="63.912193298" lon="-22.031515121">
<ele>148.757813</ele>
<time>2012-07-28T17:53:11Z</time>
<speed>1.630000</speed>
<extensions>
<speed>1.6</speed>
<temp>0.00</temp>
<bpm>0</bpm>
<rpm>0.00</rpm>
</extensions>
</trkpt>
<trkpt lat="63.912254333" lon="-22.031415939">
<ele>147.996094</ele>
<time>2012-07-28T17:53:16Z</time>
<speed>2.580000</speed>
<extensions>
<speed>2.6</speed>
<temp>0.00</temp>
<bpm>0</bpm>
<rpm>0.00</rpm>
</extensions>
</trkpt>
<trkpt lat="63.912342072" lon="-22.031198502">
<ele>147.808594</ele>
<time>2012-07-28T17:53:21Z</time>
<speed>3.150000</speed>
<extensions>
<speed>3.2</speed>
<temp>0.00</temp>
<bpm>0</bpm>
<rpm>0.00</rpm>
</extensions>
</trkpt>
<trkpt lat="63.912456512" lon="-22.031005859">
<ele>149.695313</ele>
<time>2012-07-28T17:53:26Z</time>
<speed>2.720000</speed>
<extensions>
<speed>2.7</speed>
<temp>0.00</temp>
<bpm>0</bpm>
<rpm>0.00</rpm>
</extensions>
</trkpt>
<trkpt lat="63.912536621" lon="-22.030881882">
<ele>150.070313</ele>
<time>2012-07-28T17:53:31Z</time>
<speed>2.130000</speed>
<extensions>
<speed>2.1</speed>
<temp>0.00</temp>
<bpm>0</bpm>
<rpm>0.00</rpm>
</extensions>
</trkpt>
<trkpt lat="63.912631989" lon="-22.030773163">
<ele>150.070313</ele>
<time>2012-07-28T17:53:36Z</time>
<speed>2.380000</speed>
<extensions>
<speed>2.4</speed>
<temp>0.00</temp>
<bpm>0</bpm>
<rpm>0.00</rpm>
</extensions>
</trkpt>
<trkpt lat="63.912715912" lon="-22.030651093">
<ele>149.687500</ele>
<time>2012-07-28T17:53:41Z</time>
<speed>2.080000</speed>
<extensions>
<speed>2.1</speed>
<temp>0.00</temp>
<bpm>0</bpm>
<rpm>0.00</rpm>
</extensions>
</trkpt>
<trkpt lat="63.912784576" lon="-22.030548096">
<ele>149.578125</ele>
<time>2012-07-28T17:53:46Z</time>
<speed>2.220000</speed>
<extensions>
<speed>2.2</speed>
<temp>0.00</temp>
<bpm>0</bpm>
<rpm>0.00</rpm>
</extensions>
</trkpt>
<trkpt lat="63.912860870" lon="-22.030416489">
<ele>148.847656</ele>
<time>2012-07-28T17:53:51Z</time>
<speed>1.940000</speed>
<extensions>
<speed>1.9</speed>
<temp>0.00</temp>
<bpm>0</bpm>
<rpm>0.00</rpm>
</extensions>
</trkpt>
<trkpt lat="63.912929535" lon="-22.030307770">
<ele>148.941406</ele>
<time>2012-07-28T17:53:56Z</time>
<speed>1.470000</speed>
<extensions>
<speed>1.5</speed>
<temp>0.00</temp>
<bpm>0</bpm>
<rpm>0.00</rpm>
</extensions>
</trkpt>
<trkpt lat="63.912956238" lon="-22.030250549">
<ele>148.964844</ele>
<time>2012-07-28T17:54:01Z</time>
<speed>0.570000</speed>
<extensions>
<speed>0.6</speed>
<temp>0.00</temp>
<bpm>0</bpm>
<rpm>0.00</rpm>
</extensions>
</trkpt>
<trkpt lat="63.912975311" lon="-22.030214310">
<ele>148.777344</ele>
<time>2012-07-28T17:54:06Z</time>
<speed>1.560000</speed>
<extensions>
<speed>1.6</speed>
<temp>0.00</temp>
<bpm>0</bpm>
<rpm>0.00</rpm>
</extensions>
</trkpt>
<trkpt lat="63.913078308" lon="-22.029998779">
<ele>147.789063</ele>
<time>2012-07-28T17:54:11Z</time>
<speed>3.820000</speed>
<extensions>
<speed>3.8</speed>
<temp>0.00</temp>
<bpm>0</bpm>
<rpm>0.00</rpm>
</extensions>
</trkpt>
<trkpt lat="63.913230896" lon="-22.029710770">
<ele>145.238281</ele>
<time>2012-07-28T17:54:16Z</time>
<speed>4.980000</speed>
<extensions>
<speed>5.0</speed>
<temp>0.00</temp>
<bpm>0</bpm>
<rpm>0.00</rpm>
</extensions>
</trkpt>
<trkpt lat="63.913394928" lon="-22.029346466">
<ele>143.406250</ele>
<time>2012-07-28T17:54:21Z</time>
<speed>4.870000</speed>
<extensions>
<speed>4.9</speed>
<temp>0.00</temp>
<bpm>0</bpm>
<rpm>0.00</rpm>
</extensions>
</trkpt>
<trkpt lat="63.913562775" lon="-22.028997421">
<ele>142.425781</ele>
<time>2012-07-28T17:54:26Z</time>
<speed>4.380000</speed>
<extensions>
<speed>4.4</speed>
<temp>0.00</temp>
<bpm>0</bpm>
<rpm>0.00</rpm>
</extensions>
</trkpt>
<trkpt lat="63.913684845" lon="-22.028736115">
<ele>140.820313</ele>
<time>2012-07-28T17:54:31Z</time>
<speed>4.030000</speed>
<extensions>
<speed>4.0</speed>
<temp>0.00</temp>
<bpm>0</bpm>
<rpm>0.00</rpm>
</extensions>
</trkpt>
<trkpt lat="63.913810730" lon="-22.028430939">
<ele>139.449219</ele>
<time>2012-07-28T17:54:36Z</time>
<speed>3.440000</speed>
<extensions>
<speed>3.4</speed>
<temp>0.00</temp>
<bpm>0</bpm>
<rpm>0.00</rpm>
</extensions>
</trkpt>
<trkpt lat="63.913906097" lon="-22.028207779">
<ele>138.312500</ele>
<time>2012-07-28T17:54:41Z</time>
<speed>3.600000</speed>
<extensions>
<speed>3.6</speed>
<temp>0.00</temp>
<bpm>0</bpm>
<rpm>0.00</rpm>
</extensions>
</trkpt>
<trkpt lat="63.914020538" lon="-22.027936935">
<ele>140.074219</ele>
<time>2012-07-28T17:54:46Z</time>
<speed>3.700000</speed>
<extensions>
<speed>3.7</speed>
<temp>0.00</temp>
<bpm>0</bpm>
<rpm>0.00</rpm>
</extensions>
</trkpt>
<trkpt lat="63.914131165" lon="-22.027677536">
<ele>139.855469</ele>
<time>2012-07-28T17:54:51Z</time>
<speed>3.630000</speed>
<extensions>
<speed>3.6</speed>
<temp>0.00</temp>
<bpm>0</bpm>
<rpm>0.00</rpm>
</extensions>
</trkpt>
<trkpt lat="63.914249420" lon="-22.027433395">
<ele>139.093750</ele>
<time>2012-07-28T17:54:56Z</time>
<speed>3.640000</speed>
<extensions>
<speed>3.6</speed>
<temp>0.00</temp>
<bpm>0</bpm>
<rpm>0.00</rpm>
</extensions>
</trkpt>
<trkpt lat="63.914360046" lon="-22.027164459">
<ele>138.808594</ele>
<time>2012-07-28T17:55:01Z</time>
<speed>3.660000</speed>
<extensions>
<speed>3.7</speed>
<temp>0.00</temp>
<bpm>0</bpm>
<rpm>0.00</rpm>
</extensions>
</trkpt>
<trkpt lat="63.914485931" lon="-22.026887894">
<ele>137.742188</ele>
<time>2012-07-28T17:55:06Z</time>
<speed>3.810000</speed>
<extensions>
<speed>3.8</speed>
<temp>0.00</temp>
<bpm>0</bpm>
<rpm>0.00</rpm>
</extensions>
</trkpt>
<trkpt lat="63.914608002" lon="-22.026601791">
<ele>137.601563</ele>
<time>2012-07-28T17:55:11Z</time>
<speed>4.200000</speed>
<extensions>
<speed>4.2</speed>
<temp>0.00</temp>
<bpm>0</bpm>
<rpm>0.00</rpm>
</extensions>
</trkpt>
<trkpt lat="63.914710999" lon="-22.026332855">
<ele>135.203125</ele>
<time>2012-07-28T17:55:16Z</time>
<speed>3.120000</speed>
<extensions>
<speed>3.1</speed>
<temp>0.00</temp>
<bpm>0</bpm>
<rpm>0.00</rpm>
</extensions>
</trkpt>
<trkpt lat="63.914821625" lon="-22.026071548">
<ele>136.289063</ele>
<time>2012-07-28T17:55:21Z</time>
<speed>3.560000</speed>
<extensions>
<speed>3.6</speed>
<temp>0.00</temp>
<bpm>0</bpm>
<rpm>0.00</rpm>
</extensions>
</trkpt>
<trkpt lat="63.914943695" lon="-22.025812149">
<ele>137.894531</ele>
<time>2012-07-28T17:55:26Z</time>
<speed>3.770000</speed>
<extensions>
<speed>3.8</speed>
<temp>0.00</temp>
<bpm>0</bpm>
<rpm>0.00</rpm>
</extensions>
</trkpt>
<trkpt lat="63.915046692" lon="-22.025539398">
<ele>139.222656</ele>
<time>2012-07-28T17:55:31Z</time>
<speed>3.580000</speed>
<extensions>
<speed>3.6</speed>
<temp>0.00</temp>
<bpm>0</bpm>
<rpm>0.00</rpm>
</extensions>
</trkpt>
<trkpt lat="63.915168762" lon="-22.025278091">
<ele>141.613281</ele>
<time>2012-07-28T17:55:36Z</time>
<speed>3.500000</speed>
<extensions>
<speed>3.5</speed>
<temp>0.00</temp>
<bpm>0</bpm>
<rpm>0.00</rpm>
</extensions>
</trkpt>
<trkpt lat="63.915290833" lon="-22.024993896">
<ele>144.644531</ele>
<time>2012-07-28T17:55:41Z</time>
<speed>3.690000</speed>
<extensions>
<speed>3.7</speed>
<temp>0.00</temp>
<bpm>0</bpm>
<rpm>0.00</rpm>
</extensions>
</trkpt>
<trkpt lat="63.915409088" lon="-22.024709702">
<ele>140.906250</ele>
<time>2012-07-28T17:55:46Z</time>
<speed>3.430000</speed>
<extensions>
<speed>3.4</speed>
<temp>0.00</temp>
<bpm>0</bpm>
<rpm>0.00</rpm>
</extensions>
</trkpt>
<trkpt lat="63.915500641" lon="-22.024492264">
<ele>139.558594</ele>
<time>2012-07-28T17:55:51Z</time>
<speed>2.640000</speed>
<extensions>
<speed>2.6</speed>
<temp>0.00</temp>
<bpm>0</bpm>
<rpm>0.00</rpm>
</extensions>
</trkpt>
<trkpt lat="63.915576935" lon="-22.024297714">
<ele>140.058594</ele>
<time>2012-07-28T17:55:56Z</time>
<speed>3.260000</speed>
<extensions>
<speed>3.3</speed>
<temp>0.00</temp>
<bpm>0</bpm>
<rpm>0.00</rpm>
</extensions>
</trkpt>
<trkpt lat="63.915676117" lon="-22.024061203">
<ele>140.554688</ele>
<time>2012-07-28T17:56:01Z</time>
<speed>2.630000</speed>
<extensions>
<speed>2.6</speed>
<temp>0.00</temp>
<bpm>0</bpm>
<rpm>0.00</rpm>
</extensions>
</trkpt>
<trkpt lat="63.915748596" lon="-22.023883820">
<ele>142.246094</ele>
<time>2012-07-28T17:56:06Z</time>
<speed>2.130000</speed>
<extensions>
<speed>2.1</speed>
<temp>0.00</temp>
<bpm>0</bpm>
<rpm>0.00</rpm>
</extensions>
</trkpt>
<trkpt lat="63.915824890" lon="-22.023717880">
<ele>142.429688</ele>
<time>2012-07-28T17:56:11Z</time>
<speed>3.350000</speed>
<extensions>
<speed>3.4</speed>
<temp>0.00</temp>
<bpm>0</bpm>
<rpm>0.00</rpm>
</extensions>
</trkpt>
<trkpt lat="63.915904999" lon="-22.023492813">
<ele>142.082031</ele>
<time>2012-07-28T17:56:16Z</time>
<speed>2.910000</speed>
<extensions>
<speed>2.9</speed>
<temp>0.00</temp>
<bpm>0</bpm>
<rpm>0.00</rpm>
</extensions>
</trkpt>
<trkpt lat="63.915992737" lon="-22.023288727">
<ele>142.378906</ele>
<time>2012-07-28T17:56:21Z</time>
<speed>3.390000</speed>
<extensions>
<speed>3.4</speed>
<temp>0.00</temp>
<bpm>0</bpm>
<rpm>0.00</rpm>
</extensions>
</trkpt>
<trkpt lat="63.916084290" lon="-22.023075104">
<ele>142.937500</ele>
<time>2012-07-28T17:56:26Z</time>
<speed>3.550000</speed>
<extensions>
<speed>3.5</speed>
<temp>0.00</temp>
<bpm>0</bpm>
<rpm>0.00</rpm>
</extensions>
</trkpt>
<trkpt lat="63.916194916" lon="-22.022830963">
<ele>143.339844</ele>
<time>2012-07-28T17:56:31Z</time>
<speed>3.400000</speed>
<extensions>
<speed>3.4</speed>
<temp>0.00</temp>
<bpm>0</bpm>
<rpm>0.00</rpm>
</extensions>
</trkpt>
<trkpt lat="63.916297913" lon="-22.022583008">
<ele>141.007813</ele>
<time>2012-07-28T17:56:36Z</time>
<speed>3.570000</speed>
<extensions>
<speed>3.6</speed>
<temp>0.00</temp>
<bpm>0</bpm>
<rpm>0.00</rpm>
</extensions>
</trkpt>
<trkpt lat="63.916404724" lon="-22.022335052">
<ele>138.531250</ele>
<time>2012-07-28T17:56:41Z</time>
<speed>3.570000</speed>
<extensions>
<speed>3.6</speed>
<temp>0.00</temp>
<bpm>0</bpm>
<rpm>0.00</rpm>
</extensions>
</trkpt>
<trkpt lat="63.916511536" lon="-22.022100449">
<ele>137.332031</ele>
<time>2012-07-28T17:56:46Z</time>
<speed>3.600000</speed>
<extensions>
<speed>3.6</speed>
<temp>0.00</temp>
<bpm>0</bpm>
<rpm>0.00</rpm>
</extensions>
</trkpt>
<trkpt lat="63.916606903" lon="-22.021879196">
<ele>136.773438</ele>
<time>2012-07-28T17:56:51Z</time>
<speed>1.870000</speed>
<extensions>
<speed>1.9</speed>
<temp>0.00</temp>
<bpm>0</bpm>
<rpm>0.00</rpm>
</extensions>
</trkpt>
<trkpt lat="63.916660309" lon="-22.021757126">
<ele>136.503906</ele>
<time>2012-07-28T17:56:56Z</time>
<speed>2.540000</speed>
<extensions>
<speed>2.5</speed>
<temp>0.00</temp>
<bpm>0</bpm>
<rpm>0.00</rpm>
</extensions>
</trkpt>
<trkpt lat="63.916748047" lon="-22.021547318">
<ele>137.851563</ele>
<time>2012-07-28T17:57:01Z</time>
<speed>3.450000</speed>
<extensions>
<speed>3.5</speed>
<temp>0.00</temp>
<bpm>0</bpm>
<rpm>0.00</rpm>
</extensions>
</trkpt>
<trkpt lat="63.916862488" lon="-22.021289825">
<ele>138.210938</ele>
<time>2012-07-28T17:57:06Z</time>
<speed>3.670000</speed>
<extensions>
<speed>3.7</speed>
<temp>0.00</temp>
<bpm>0</bpm>
<rpm>0.00</rpm>
</extensions>
</trkpt>
<trkpt lat="63.916976929" lon="-22.021038055">
<ele>138.480469</ele>
<time>2012-07-28T17:57:11Z</time>
<speed>3.680000</speed>
<extensions>
<speed>3.7</speed>
<temp>0.00</temp>
<bpm>0</bpm>
<rpm>0.00</rpm>
</extensions>
</trkpt>
<trkpt lat="63.917083740" lon="-22.020761490">
<ele>138.367188</ele>
<time>2012-07-28T17:57:16Z</time>
<speed>3.710000</speed>
<extensions>
<speed>3.7</speed>
<temp>0.00</temp>
<bpm>0</bpm>
<rpm>0.00</rpm>
</extensions>
</trkpt>
<trkpt lat="63.917194366" lon="-22.020494461">
<ele>137.531250</ele>
<time>2012-07-28T17:57:21Z</time>
<speed>3.480000</speed>
<extensions>
<speed>3.5</speed>
<temp>0.00</temp>
<bpm>0</bpm>
<rpm>0.00</rpm>
</extensions>
</trkpt>
<trkpt lat="63.917297363" lon="-22.020271301">
<ele>134.605469</ele>
<time>2012-07-28T17:57:26Z</time>
<speed>3.210000</speed>
<extensions>
<speed>3.2</speed>
<temp>0.00</temp>
<bpm>0</bpm>
<rpm>0.00</rpm>
</extensions>
</trkpt>
<trkpt lat="63.917407990" lon="-22.020006180">
<ele>136.707031</ele>
<time>2012-07-28T17:57:31Z</time>
<speed>3.760000</speed>
<extensions>
<speed>3.8</speed>
<temp>0.00</temp>
<bpm>0</bpm>
<rpm>0.00</rpm>
</extensions>
</trkpt>
<trkpt lat="63.917507172" lon="-22.019779205">
<ele>137.652344</ele>
<time>2012-07-28T17:57:36Z</time>
<speed>2.490000</speed>
<extensions>
<speed>2.5</speed>
<temp>0.00</temp>
<bpm>0</bpm>
<rpm>0.00</rpm>
</extensions>
</trkpt>
<trkpt lat="63.917572021" lon="-22.019613266">
<ele>139.859375</ele>
<time>2012-07-28T17:57:41Z</time>
<speed>2.100000</speed>
<extensions>
<speed>2.1</speed>
<temp>0.00</temp>
<bpm>0</bpm>
<rpm>0.00</rpm>
</extensions>
</trkpt>
<trkpt lat="63.917659760" lon="-22.019416809">
<ele>139.351563</ele>
<time>2012-07-28T17:57:46Z</time>
<speed>3.060000</speed>
<extensions>
<speed>3.1</speed>
<temp>0.00</temp>
<bpm>0</bpm>
<rpm>0.00</rpm>
</extensions>
</trkpt>
<trkpt lat="63.917758942" lon="-22.019172668">
<ele>140.652344</ele>
<time>2012-07-28T17:57:51Z</time>
<speed>3.310000</speed>
<extensions>
<speed>3.3</speed>
<temp>0.00</temp>
<bpm>0</bpm>
<rpm>0.00</rpm>
</extensions>
</trkpt>
<trkpt lat="63.917850494" lon="-22.018945694">
<ele>141.050781</ele>
<time>2012-07-28T17:57:56Z</time>
<speed>3.100000</speed>
<extensions>
<speed>3.1</speed>
<temp>0.00</temp>
<bpm>0</bpm>
<rpm>0.00</rpm>
</extensions>
</trkpt>
<trkpt lat="63.917934418" lon="-22.018732071">
<ele>141.585938</ele>
<time>2012-07-28T17:58:01Z</time>
<speed>2.780000</speed>
<extensions>
<speed>2.8</speed>
<temp>0.00</temp>
<bpm>0</bpm>
<rpm>0.00</rpm>
</extensions>
</trkpt>
<trkpt lat="63.918003082" lon="-22.018581390">
<ele>143.359375</ele>
<time>2012-07-28T17:58:06Z</time>
<speed>2.110000</speed>
<extensions>
<speed>2.1</speed>
<temp>0.00</temp>
<bpm>0</bpm>
<rpm>0.00</rpm>
</extensions>
</trkpt>
<trkpt lat="63.918060303" lon="-22.018417358">
<ele>146.480469</ele>
<time>2012-07-28T17:58:11Z</time>
<speed>2.040000</speed>
<extensions>
<speed>2.0</speed>
<temp>0.00</temp>
<bpm>0</bpm>
<rpm>0.00</rpm>
</extensions>
</trkpt>
<trkpt lat="63.918121338" lon="-22.018281937">
<ele>148.093750</ele>
<time>2012-07-28T17:58:16Z</time>
<speed>1.780000</speed>
<extensions>
<speed>1.8</speed>
<temp>0.00</temp>
<bpm>0</bpm>
<rpm>0.00</rpm>
</extensions>
</trkpt>
<trkpt lat="63.918170929" lon="-22.018152237">
<ele>148.738281</ele>
<time>2012-07-28T17:58:21Z</time>
<speed>2.110000</speed>
<extensions>
<speed>2.1</speed>
<temp>0.00</temp>
<bpm>0</bpm>
<rpm>0.00</rpm>
</extensions>
</trkpt>
<trkpt lat="63.918243408" lon="-22.018022537">
<ele>149.941406</ele>
<time>2012-07-28T17:58:26Z</time>
<speed>2.130000</speed>
<extensions>
<speed>2.1</speed>
<temp>0.00</temp>
<bpm>0</bpm>
<rpm>0.00</rpm>
</extensions>
</trkpt>
<trkpt lat="63.918300629" lon="-22.017896652">
<ele>149.789063</ele>
<time>2012-07-28T17:58:31Z</time>
<speed>1.770000</speed>
<extensions>
<speed>1.8</speed>
<temp>0.00</temp>
<bpm>0</bpm>
<rpm>0.00</rpm>
</extensions>
</trkpt>
<trkpt lat="63.918365479" lon="-22.017766953">
<ele>150.957031</ele>
<time>2012-07-28T17:58:36Z</time>
<speed>1.920000</speed>
<extensions>
<speed>1.9</speed>
<temp>0.00</temp>
<bpm>0</bpm>
<rpm>0.00</rpm>
</extensions>
</trkpt>
<trkpt lat="63.918411255" lon="-22.017633438">
<ele>150.707031</ele>
<time>2012-07-28T17:58:41Z</time>
<speed>1.840000</speed>
<extensions>
<speed>1.8</speed>
<temp>0.00</temp>
<bpm>0</bpm>
<rpm>0.00</rpm>
</extensions>
</trkpt>
<trkpt lat="63.918457031" lon="-22.017513275">
<ele>150.187500</ele>
<time>2012-07-28T17:58:46Z</time>
<speed>1.850000</speed>
<extensions>
<speed>1.8</speed>
<temp>0.00</temp>
<bpm>0</bpm>
<rpm>0.00</rpm>
</extensions>
</trkpt>
<trkpt lat="63.918498993" lon="-22.017400742">
<ele>150.500000</ele>
<time>2012-07-28T17:58:51Z</time>
<speed>2.080000</speed>
<extensions>
<speed>2.1</speed>
<temp>0.00</temp>
<bpm>0</bpm>
<rpm>0.00</rpm>
</extensions>
</trkpt>
<trkpt lat="63.918548584" lon="-22.017263412">
<ele>150.535156</ele>
<time>2012-07-28T17:58:56Z</time>
<speed>1.870000</speed>
<extensions>
<speed>1.9</speed>
<temp>0.00</temp>
<bpm>0</bpm>
<rpm>0.00</rpm>
</extensions>
</trkpt>
<trkpt lat="63.918609619" lon="-22.017103195">
<ele>152.578125</ele>
<time>2012-07-28T17:59:01Z</time>
<speed>1.670000</speed>
<extensions>
<speed>1.7</speed>
<temp>0.00</temp>
<bpm>0</bpm>
<rpm>0.00</rpm>
</extensions>
</trkpt>
<trkpt lat="63.918659210" lon="-22.016973495">
<ele>153.460938</ele>
<time>2012-07-28T17:59:06Z</time>
<speed>1.880000</speed>
<extensions>
<speed>1.9</speed>
<temp>0.00</temp>
<bpm>0</bpm>
<rpm>0.00</rpm>
</extensions>
</trkpt>
<trkpt lat="63.918724060" lon="-22.016839981">
<ele>153.445313</ele>
<time>2012-07-28T17:59:11Z</time>
<speed>1.940000</speed>
<extensions>
<speed>1.9</speed>
<temp>0.00</temp>
<bpm>0</bpm>
<rpm>0.00</rpm>
</extensions>
</trkpt>
<trkpt lat="63.918769836" lon="-22.016714096">
<ele>154.402344</ele>
<time>2012-07-28T17:59:16Z</time>
<speed>1.740000</speed>
<extensions>
<speed>1.7</speed>
<temp>0.00</temp>
<bpm>0</bpm>
<rpm>0.00</rpm>
</extensions>
</trkpt>
<trkpt lat="63.918838501" lon="-22.016572952">
<ele>155.609375</ele>
<time>2012-07-28T17:59:21Z</time>
<speed>2.100000</speed>
<extensions>
<speed>2.1</speed>
<temp>0.00</temp>
<bpm>0</bpm>
<rpm>0.00</rpm>
</extensions>
</trkpt>
<trkpt lat="63.918895721" lon="-22.016414642">
<ele>157.160156</ele>
<time>2012-07-28T17:59:26Z</time>
<speed>1.980000</speed>
<extensions>
<speed>2.0</speed>
<temp>0.00</temp>
<bpm>0</bpm>
<rpm>0.00</rpm>
</extensions>
</trkpt>
<trkpt lat="63.918964386" lon="-22.016275406">
<ele>157.035156</ele>
<time>2012-07-28T17:59:31Z</time>
<speed>2.130000</speed>
<extensions>
<speed>2.1</speed>
<temp>0.00</temp>
<bpm>0</bpm>
<rpm>0.00</rpm>
</extensions>
</trkpt>
<trkpt lat="63.919025421" lon="-22.016141891">
<ele>158.269531</ele>
<time>2012-07-28T17:59:36Z</time>
<speed>1.230000</speed>
<extensions>
<speed>1.2</speed>
<temp>0.00</temp>
<bpm>0</bpm>
<rpm>0.00</rpm>
</extensions>
</trkpt>
<trkpt lat="63.919075012" lon="-22.016036987">
<ele>159.347656</ele>
<time>2012-07-28T17:59:41Z</time>
<speed>1.560000</speed>
<extensions>
<speed>1.6</speed>
<temp>0.00</temp>
<bpm>0</bpm>
<rpm>0.00</rpm>
</extensions>
</trkpt>
<trkpt lat="63.919124603" lon="-22.015924454">
<ele>160.125000</ele>
<time>2012-07-28T17:59:46Z</time>
<speed>1.580000</speed>
<extensions>
<speed>1.6</speed>
<temp>0.00</temp>
<bpm>0</bpm>
<rpm>0.00</rpm>
</extensions>
</trkpt>
<trkpt lat="63.919174194" lon="-22.015811920">
<ele>160.808594</ele>
<time>2012-07-28T17:59:51Z</time>
<speed>1.670000</speed>
<extensions>
<speed>1.7</speed>
<temp>0.00</temp>
<bpm>0</bpm>
<rpm>0.00</rpm>
</extensions>
</trkpt>
<trkpt lat="63.919235229" lon="-22.015686035">
<ele>161.667969</ele>
<time>2012-07-28T17:59:56Z</time>
<speed>1.980000</speed>
<extensions>
<speed>2.0</speed>
<temp>0.00</temp>
<bpm>0</bpm>
<rpm>0.00</rpm>
</extensions>
</trkpt>
<trkpt lat="63.919277191" lon="-22.015548706">
<ele>162.312500</ele>
<time>2012-07-28T18:00:01Z</time>
<speed>1.740000</speed>
<extensions>
<speed>1.7</speed>
<temp>0.00</temp>
<bpm>0</bpm>
<rpm>0.00</rpm>
</extensions>
</trkpt>
<trkpt lat="63.919334412" lon="-22.015415192">
<ele>162.988281</ele>
<time>2012-07-28T18:00:06Z</time>
<speed>1.880000</speed>
<extensions>
<speed>1.9</speed>
<temp>0.00</temp>
<bpm>0</bpm>
<rpm>0.00</rpm>
</extensions>
</trkpt>
<trkpt lat="63.919410706" lon="-22.015264511">
<ele>162.984375</ele>
<time>2012-07-28T18:00:11Z</time>
<speed>2.200000</speed>
<extensions>
<speed>2.2</speed>
<temp>0.00</temp>
<bpm>0</bpm>
<rpm>0.00</rpm>
</extensions>
</trkpt>
<trkpt lat="63.919502258" lon="-22.015060425">
<ele>161.773438</ele>
<time>2012-07-28T18:00:16Z</time>
<speed>3.290000</speed>
<extensions>
<speed>3.3</speed>
<temp>0.00</temp>
<bpm>0</bpm>
<rpm>0.00</rpm>
</extensions>
</trkpt>
<trkpt lat="63.919605255" lon="-22.014825821">
<ele>159.621094</ele>
<time>2012-07-28T18:00:21Z</time>
<speed>3.160000</speed>
<extensions>
<speed>3.2</speed>
<temp>0.00</temp>
<bpm>0</bpm>
<rpm>0.00</rpm>
</extensions>
</trkpt>
<trkpt lat="63.919708252" lon="-22.014612198">
<ele>156.343750</ele>
<time>2012-07-28T18:00:26Z</time>
<speed>2.820000</speed>
<extensions>
<speed>2.8</speed>
<temp>0.00</temp>
<bpm>0</bpm>
<rpm>0.00</rpm>
</extensions>
</trkpt>
<trkpt lat="63.919795990" lon="-22.014392853">
<ele>155.324219</ele>
<time>2012-07-28T18:00:31Z</time>
<speed>2.900000</speed>
<extensions>
<speed>2.9</speed>
<temp>0.00</temp>
<bpm>0</bpm>
<rpm>0.00</rpm>
</extensions>
</trkpt>
<trkpt lat="63.919879913" lon="-22.014183044">
<ele>155.652344</ele>
<time>2012-07-28T18:00:36Z</time>
<speed>2.540000</speed>
<extensions>
<speed>2.5</speed>
<temp>0.00</temp>
<bpm>0</bpm>
<rpm>0.00</rpm>
</extensions>
</trkpt>
<trkpt lat="63.919944763" lon="-22.014019012">
<ele>155.003906</ele>
<time>2012-07-28T18:00:41Z</time>
<speed>2.230000</speed>
<extensions>
<speed>2.2</speed>
<temp>0.00</temp>
<bpm>0</bpm>
<rpm>0.00</rpm>
</extensions>
</trkpt>
<trkpt lat="63.920009613" lon="-22.013845444">
<ele>152.878906</ele>
<time>2012-07-28T18:00:46Z</time>
<speed>2.670000</speed>
<extensions>
<speed>2.7</speed>
<temp>0.00</temp>
<bpm>0</bpm>
<rpm>0.00</rpm>
</extensions>
</trkpt>
<trkpt lat="63.920085907" lon="-22.013656616">
<ele>151.769531</ele>
<time>2012-07-28T18:00:51Z</time>
<speed>3.110000</speed>
<extensions>
<speed>3.1</speed>
<temp>0.00</temp>
<bpm>0</bpm>
<rpm>0.00</rpm>
</extensions>
</trkpt>
<trkpt lat="63.920181274" lon="-22.013395309">
<ele>149.136719</ele>
<time>2012-07-28T18:00:56Z</time>
<speed>3.670000</speed>
<extensions>
<speed>3.7</speed>
<temp>0.00</temp>
<bpm>0</bpm>
<rpm>0.00</rpm>
</extensions>
</trkpt>
<trkpt lat="63.920303345" lon="-22.013095856">
<ele>147.835938</ele>
<time>2012-07-28T18:01:01Z</time>
<speed>3.750000</speed>
<extensions>
<speed>3.8</speed>
<temp>0.00</temp>
<bpm>0</bpm>
<rpm>0.00</rpm>
</extensions>
</trkpt>
<trkpt lat="63.920383453" lon="-22.012866974">
<ele>148.308594</ele>
<time>2012-07-28T18:01:06Z</time>
<speed>0.540000</speed>
<extensions>
<speed>0.5</speed>
<temp>0.00</temp>
<bpm>0</bpm>
<rpm>0.00</rpm>
</extensions>
</trkpt>
<trkpt lat="63.920383453" lon="-22.012872696">
<ele>148.113281</ele>
<time>2012-07-28T18:01:11Z</time>
<speed>0.060000</speed>
<extensions>
<speed>0.1</speed>
<temp>0.00</temp>
<bpm>0</bpm>
<rpm>0.00</rpm>
</extensions>
</trkpt>
<trkpt lat="63.920383453" lon="-22.012872696">
<ele>148.171875</ele>
<time>2012-07-28T18:01:16Z</time>
<extensions>
<speed>0.0</speed>
<temp>0.00</temp>
<bpm>0</bpm>
<rpm>0.00</rpm>
</extensions>
</trkpt>
<trkpt lat="63.920383453" lon="-22.012872696">
<ele>148.195313</ele>
<time>2012-07-28T18:01:21Z</time>
<speed>0.010000</speed>
<extensions>
<speed>0.0</speed>
<temp>0.00</temp>
<bpm>0</bpm>
<rpm>0.00</rpm>
</extensions>
</trkpt>
<trkpt lat="63.920383453" lon="-22.012870789">
<ele>148.253906</ele>
<time>2012-07-28T18:01:26Z</time>
<speed>0.030000</speed>
<extensions>
<speed>0.0</speed>
<temp>0.00</temp>
<bpm>0</bpm>
<rpm>0.00</rpm>
</extensions>
</trkpt>
<trkpt lat="63.920383453" lon="-22.012872696">
<ele>148.277344</ele>
<time>2012-07-28T18:01:31Z</time>
<extensions>
<speed>0.0</speed>
<temp>0.00</temp>
<bpm>0</bpm>
<rpm>0.00</rpm>
</extensions>
</trkpt>
<trkpt lat="63.920383453" lon="-22.012872696">
<ele>148.285156</ele>
<time>2012-07-28T18:01:36Z</time>
<extensions>
<speed>0.0</speed>
<temp>0.00</temp>
<bpm>0</bpm>
<rpm>0.00</rpm>
</extensions>
</trkpt>
<trkpt lat="63.920383453" lon="-22.012872696">
<ele>148.332031</ele>
<time>2012-07-28T18:01:41Z</time>
<speed>0.010000</speed>
<extensions>
<speed>0.0</speed>
<temp>0.00</temp>
<bpm>0</bpm>
<rpm>0.00</rpm>
</extensions>
</trkpt>
<trkpt lat="63.920383453" lon="-22.012874603">
<ele>148.359375</ele>
<time>2012-07-28T18:01:46Z</time>
<extensions>
<speed>0.0</speed>
<temp>0.00</temp>
<bpm>0</bpm>
<rpm>0.00</rpm>
</extensions>
</trkpt>
<trkpt lat="63.920383453" lon="-22.012874603">
<ele>148.355469</ele>
<time>2012-07-28T18:01:51Z</time>
<speed>0.010000</speed>
<extensions>
<speed>0.0</speed>
<temp>0.00</temp>
<bpm>0</bpm>
<rpm>0.00</rpm>
</extensions>
</trkpt>
<trkpt lat="63.920383453" lon="-22.012874603">
<ele>148.351563</ele>
<time>2012-07-28T18:01:56Z</time>
<extensions>
<speed>0.0</speed>
<temp>0.00</temp>
<bpm>0</bpm>
<rpm>0.00</rpm>
</extensions>
</trkpt>
<trkpt lat="63.920383453" lon="-22.012874603">
<ele>148.347656</ele>
<time>2012-07-28T18:02:01Z</time>
<extensions>
<speed>0.0</speed>
<temp>0.00</temp>
<bpm>0</bpm>
<rpm>0.00</rpm>
</extensions>
</trkpt>
<trkpt lat="63.920383453" lon="-22.012874603">
<ele>148.351563</ele>
<time>2012-07-28T18:02:06Z</time>
<speed>0.010000</speed>
<extensions>
<speed>0.0</speed>
<temp>0.00</temp>
<bpm>0</bpm>
<rpm>0.00</rpm>
</extensions>
</trkpt>
<trkpt lat="63.920383453" lon="-22.012876511">
<ele>148.339844</ele>
<time>2012-07-28T18:02:11Z</time>
<speed>0.010000</speed>
<extensions>
<speed>0.0</speed>
<temp>0.00</temp>
<bpm>0</bpm>
<rpm>0.00</rpm>
</extensions>
</trkpt>
<trkpt lat="63.920383453" lon="-22.012876511">
<ele>148.320313</ele>
<time>2012-07-28T18:02:16Z</time>
<speed>0.080000</speed>
<extensions>
<speed>0.1</speed>
<temp>0.00</temp>
<bpm>0</bpm>
<rpm>0.00</rpm>
</extensions>
</trkpt>
<trkpt lat="63.920402527" lon="-22.012851715">
<ele>148.195313</ele>
<time>2012-07-28T18:02:21Z</time>
<speed>2.020000</speed>
<extensions>
<speed>2.0</speed>
<temp>0.00</temp>
<bpm>0</bpm>
<rpm>0.00</rpm>
</extensions>
</trkpt>
<trkpt lat="63.920505524" lon="-22.012617111">
<ele>147.843750</ele>
<time>2012-07-28T18:02:26Z</time>
<speed>4.250000</speed>
<extensions>
<speed>4.3</speed>
<temp>0.00</temp>
<bpm>0</bpm>
<rpm>0.00</rpm>
</extensions>
</trkpt>
<trkpt lat="63.920661926" lon="-22.012289047">
<ele>145.468750</ele>
<time>2012-07-28T18:02:31Z</time>
<speed>4.960000</speed>
<extensions>
<speed>5.0</speed>
<temp>0.00</temp>
<bpm>0</bpm>
<rpm>0.00</rpm>
</extensions>
</trkpt>
<trkpt lat="63.920845032" lon="-22.011938095">
<ele>144.121094</ele>
<time>2012-07-28T18:02:36Z</time>
<speed>5.760000</speed>
<extensions>
<speed>5.8</speed>
<temp>0.00</temp>
<bpm>0</bpm>
<rpm>0.00</rpm>
</extensions>
</trkpt>
<trkpt lat="63.921024323" lon="-22.011533737">
<ele>142.472656</ele>
<time>2012-07-28T18:02:41Z</time>
<speed>4.770000</speed>
<extensions>
<speed>4.8</speed>
<temp>0.00</temp>
<bpm>0</bpm>
<rpm>0.00</rpm>
</extensions>
</trkpt>
<trkpt lat="63.921154022" lon="-22.011259079">
<ele>143.062500</ele>
<time>2012-07-28T18:02:46Z</time>
<speed>3.200000</speed>
<extensions>
<speed>3.2</speed>
<temp>0.00</temp>
<bpm>0</bpm>
<rpm>0.00</rpm>
</extensions>
</trkpt>
<trkpt lat="63.921245575" lon="-22.011041641">
<ele>142.667969</ele>
<time>2012-07-28T18:02:51Z</time>
<speed>3.050000</speed>
<extensions>
<speed>3.0</speed>
<temp>0.00</temp>
<bpm>0</bpm>
<rpm>0.00</rpm>
</extensions>
</trkpt>
<trkpt lat="63.921352386" lon="-22.010826111">
<ele>143.976563</ele>
<time>2012-07-28T18:02:56Z</time>
<speed>3.520000</speed>
<extensions>
<speed>3.5</speed>
<temp>0.00</temp>
<bpm>0</bpm>
<rpm>0.00</rpm>
</extensions>
</trkpt>
<trkpt lat="63.921463013" lon="-22.010587692">
<ele>143.765625</ele>
<time>2012-07-28T18:03:01Z</time>
<speed>2.960000</speed>
<extensions>
<speed>3.0</speed>
<temp>0.00</temp>
<bpm>0</bpm>
<rpm>0.00</rpm>
</extensions>
</trkpt>
<trkpt lat="63.921566010" lon="-22.010374069">
<ele>144.179688</ele>
<time>2012-07-28T18:03:06Z</time>
<speed>3.270000</speed>
<extensions>
<speed>3.3</speed>
<temp>0.00</temp>
<bpm>0</bpm>
<rpm>0.00</rpm>
</extensions>
</trkpt>
<trkpt lat="63.921672821" lon="-22.010143280">
<ele>144.132813</ele>
<time>2012-07-28T18:03:11Z</time>
<speed>3.090000</speed>
<extensions>
<speed>3.1</speed>
<temp>0.00</temp>
<bpm>0</bpm>
<rpm>0.00</rpm>
</extensions>
</trkpt>
<trkpt lat="63.921787262" lon="-22.009916306">
<ele>142.558594</ele>
<time>2012-07-28T18:03:16Z</time>
<speed>3.120000</speed>
<extensions>
<speed>3.1</speed>
<temp>0.00</temp>
<bpm>0</bpm>
<rpm>0.00</rpm>
</extensions>
</trkpt>
<trkpt lat="63.921890259" lon="-22.009704590">
<ele>142.269531</ele>
<time>2012-07-28T18:03:21Z</time>
<speed>3.370000</speed>
<extensions>
<speed>3.4</speed>
<temp>0.00</temp>
<bpm>0</bpm>
<rpm>0.00</rpm>
</extensions>
</trkpt>
<trkpt lat="63.922000885" lon="-22.009489059">
<ele>141.605469</ele>
<time>2012-07-28T18:03:26Z</time>
<speed>3.450000</speed>
<extensions>
<speed>3.5</speed>
<temp>0.00</temp>
<bpm>0</bpm>
<rpm>0.00</rpm>
</extensions>
</trkpt>
<trkpt lat="63.922119141" lon="-22.009267807">
<ele>139.843750</ele>
<time>2012-07-28T18:03:31Z</time>
<speed>3.480000</speed>
<extensions>
<speed>3.5</speed>
<temp>0.00</temp>
<bpm>0</bpm>
<rpm>0.00</rpm>
</extensions>
</trkpt>
<trkpt lat="63.922241211" lon="-22.009037018">
<ele>140.558594</ele>
<time>2012-07-28T18:03:36Z</time>
<speed>2.950000</speed>
<extensions>
<speed>2.9</speed>
<temp>0.00</temp>
<bpm>0</bpm>
<rpm>0.00</rpm>
</extensions>
</trkpt>
<trkpt lat="63.922336578" lon="-22.008842468">
<ele>142.453125</ele>
<time>2012-07-28T18:03:41Z</time>
<speed>3.030000</speed>
<extensions>
<speed>3.0</speed>
<temp>0.00</temp>
<bpm>0</bpm>
<rpm>0.00</rpm>
</extensions>
</trkpt>
<trkpt lat="63.922431946" lon="-22.008672714">
<ele>141.296875</ele>
<time>2012-07-28T18:03:46Z</time>
<speed>2.520000</speed>
<extensions>
<speed>2.5</speed>
<temp>0.00</temp>
<bpm>0</bpm>
<rpm>0.00</rpm>
</extensions>
</trkpt>
<trkpt lat="63.922519684" lon="-22.008504868">
<ele>140.011719</ele>
<time>2012-07-28T18:03:51Z</time>
<speed>2.630000</speed>
<extensions>
<speed>2.6</speed>
<temp>0.00</temp>
<bpm>0</bpm>
<rpm>0.00</rpm>
</extensions>
</trkpt>
<trkpt lat="63.922622681" lon="-22.008316040">
<ele>139.457031</ele>
<time>2012-07-28T18:03:56Z</time>
<speed>3.320000</speed>
<extensions>
<speed>3.3</speed>
<temp>0.00</temp>
<bpm>0</bpm>
<rpm>0.00</rpm>
</extensions>
</trkpt>
<trkpt lat="63.922725677" lon="-22.008102417">
<ele>139.246094</ele>
<time>2012-07-28T18:04:01Z</time>
<speed>2.900000</speed>
<extensions>
<speed>2.9</speed>
<temp>0.00</temp>
<bpm>0</bpm>
<rpm>0.00</rpm>
</extensions>
</trkpt>
<trkpt lat="63.922832489" lon="-22.007909775">
<ele>139.062500</ele>
<time>2012-07-28T18:04:06Z</time>
<speed>3.120000</speed>
<extensions>
<speed>3.1</speed>
<temp>0.00</temp>
<bpm>0</bpm>
<rpm>0.00</rpm>
</extensions>
</trkpt>
<trkpt lat="63.922946930" lon="-22.007709503">
<ele>139.796875</ele>
<time>2012-07-28T18:04:11Z</time>
<speed>3.060000</speed>
<extensions>
<speed>3.1</speed>
<temp>0.00</temp>
<bpm>0</bpm>
<rpm>0.00</rpm>
</extensions>
</trkpt>
<trkpt lat="63.923042297" lon="-22.007511139">
<ele>138.117188</ele>
<time>2012-07-28T18:04:16Z</time>
<speed>2.660000</speed>
<extensions>
<speed>2.7</speed>
<temp>0.00</temp>
<bpm>0</bpm>
<rpm>0.00</rpm>
</extensions>
</trkpt>
<trkpt lat="63.923133850" lon="-22.007335663">
<ele>139.152344</ele>
<time>2012-07-28T18:04:21Z</time>
<speed>3.330000</speed>
<extensions>
<speed>3.3</speed>
<temp>0.00</temp>
<bpm>0</bpm>
<rpm>0.00</rpm>
</extensions>
</trkpt>
<trkpt lat="63.923221588" lon="-22.007183075">
<ele>139.914063</ele>
<time>2012-07-28T18:04:26Z</time>
<speed>1.810000</speed>
<extensions>
<speed>1.8</speed>
<temp>0.00</temp>
<bpm>0</bpm>
<rpm>0.00</rpm>
</extensions>
</trkpt>
<trkpt lat="63.923278809" lon="-22.007093430">
<ele>140.835938</ele>
<time>2012-07-28T18:04:31Z</time>
<speed>1.740000</speed>
<extensions>
<speed>1.7</speed>
<temp>0.00</temp>
<bpm>0</bpm>
<rpm>0.00</rpm>
</extensions>
</trkpt>
<trkpt lat="63.923347473" lon="-22.006998062">
<ele>139.406250</ele>
<time>2012-07-28T18:04:36Z</time>
<speed>1.850000</speed>
<extensions>
<speed>1.8</speed>
<temp>0.00</temp>
<bpm>0</bpm>
<rpm>0.00</rpm>
</extensions>
</trkpt>
<trkpt lat="63.923419952" lon="-22.006889343">
<ele>140.785156</ele>
<time>2012-07-28T18:04:41Z</time>
<speed>1.990000</speed>
<extensions>
<speed>2.0</speed>
<temp>0.00</temp>
<bpm>0</bpm>
<rpm>0.00</rpm>
</extensions>
</trkpt>
<trkpt lat="63.923484802" lon="-22.006772995">
<ele>142.351563</ele>
<time>2012-07-28T18:04:46Z</time>
<speed>1.630000</speed>
<extensions>
<speed>1.6</speed>
<temp>0.00</temp>
<bpm>0</bpm>
<rpm>0.00</rpm>
</extensions>
</trkpt>
<trkpt lat="63.923549652" lon="-22.006677628">
<ele>144.453125</ele>
<time>2012-07-28T18:04:51Z</time>
<speed>1.850000</speed>
<extensions>
<speed>1.8</speed>
<temp>0.00</temp>
<bpm>0</bpm>
<rpm>0.00</rpm>
</extensions>
</trkpt>
<trkpt lat="63.923618317" lon="-22.006561279">
<ele>146.890625</ele>
<time>2012-07-28T18:04:56Z</time>
<speed>1.840000</speed>
<extensions>
<speed>1.8</speed>
<temp>0.00</temp>
<bpm>0</bpm>
<rpm>0.00</rpm>
</extensions>
</trkpt>
<trkpt lat="63.923679352" lon="-22.006458282">
<ele>147.914063</ele>
<time>2012-07-28T18:05:01Z</time>
<speed>1.200000</speed>
<extensions>
<speed>1.2</speed>
<temp>0.00</temp>
<bpm>0</bpm>
<rpm>0.00</rpm>
</extensions>
</trkpt>
<trkpt lat="63.923732758" lon="-22.006364822">
<ele>148.648438</ele>
<time>2012-07-28T18:05:06Z</time>
<speed>1.960000</speed>
<extensions>
<speed>2.0</speed>
<temp>0.00</temp>
<bpm>0</bpm>
<rpm>0.00</rpm>
</extensions>
</trkpt>
<trkpt lat="63.923789978" lon="-22.006204605">
<ele>150.125000</ele>
<time>2012-07-28T18:05:11Z</time>
<speed>2.350000</speed>
<extensions>
<speed>2.4</speed>
<temp>0.00</temp>
<bpm>0</bpm>
<rpm>0.00</rpm>
</extensions>
</trkpt>
<trkpt lat="63.923843384" lon="-22.006059647">
<ele>150.847656</ele>
<time>2012-07-28T18:05:16Z</time>
<speed>1.480000</speed>
<extensions>
<speed>1.5</speed>
<temp>0.00</temp>
<bpm>0</bpm>
<rpm>0.00</rpm>
</extensions>
</trkpt>
<trkpt lat="63.923885345" lon="-22.005947113">
<ele>151.613281</ele>
<time>2012-07-28T18:05:21Z</time>
<speed>1.670000</speed>
<extensions>
<speed>1.7</speed>
<temp>0.00</temp>
<bpm>0</bpm>
<rpm>0.00</rpm>
</extensions>
</trkpt>
<trkpt lat="63.923938751" lon="-22.005849838">
<ele>151.453125</ele>
<time>2012-07-28T18:05:26Z</time>
<speed>1.650000</speed>
<extensions>
<speed>1.7</speed>
<temp>0.00</temp>
<bpm>0</bpm>
<rpm>0.00</rpm>
</extensions>
</trkpt>
<trkpt lat="63.924015045" lon="-22.005741119">
<ele>152.175781</ele>
<time>2012-07-28T18:05:31Z</time>
<speed>1.990000</speed>
<extensions>
<speed>2.0</speed>
<temp>0.00</temp>
<bpm>0</bpm>
<rpm>0.00</rpm>
</extensions>
</trkpt>
<trkpt lat="63.924079895" lon="-22.005657196">
<ele>153.722656</ele>
<time>2012-07-28T18:05:36Z</time>
<speed>0.320000</speed>
<extensions>
<speed>0.3</speed>
<temp>0.00</temp>
<bpm>0</bpm>
<rpm>0.00</rpm>
</extensions>
</trkpt>
<trkpt lat="63.924076080" lon="-22.005681992">
<ele>152.976563</ele>
<time>2012-07-28T18:05:41Z</time>
<speed>0.040000</speed>
<extensions>
<speed>0.0</speed>
<temp>0.00</temp>
<bpm>0</bpm>
<rpm>0.00</rpm>
</extensions>
</trkpt>
<trkpt lat="63.924076080" lon="-22.005681992">
<ele>153.187500</ele>
<time>2012-07-28T18:05:46Z</time>
<speed>0.030000</speed>
<extensions>
<speed>0.0</speed>
<temp>0.00</temp>
<bpm>0</bpm>
<rpm>0.00</rpm>
</extensions>
</trkpt>
<trkpt lat="63.924076080" lon="-22.005681992">
<ele>153.261719</ele>
<time>2012-07-28T18:05:51Z</time>
<speed>0.060000</speed>
<extensions>
<speed>0.1</speed>
<temp>0.00</temp>
<bpm>0</bpm>
<rpm>0.00</rpm>
</extensions>
</trkpt>
<trkpt lat="63.924076080" lon="-22.005680084">
<ele>153.273438</ele>
<time>2012-07-28T18:05:56Z</time>
<extensions>
<speed>0.0</speed>
<temp>0.00</temp>
<bpm>0</bpm>
<rpm>0.00</rpm>
</extensions>
</trkpt>
<trkpt lat="63.924076080" lon="-22.005680084">
<ele>153.285156</ele>
<time>2012-07-28T18:06:01Z</time>
<extensions>
<speed>0.0</speed>
<temp>0.00</temp>
<bpm>0</bpm>
<rpm>0.00</rpm>
</extensions>
</trkpt>
<trkpt lat="63.924076080" lon="-22.005678177">
<ele>153.316406</ele>
<time>2012-07-28T18:06:06Z</time>
<speed>0.020000</speed>
<extensions>
<speed>0.0</speed>
<temp>0.00</temp>
<bpm>0</bpm>
<rpm>0.00</rpm>
</extensions>
</trkpt>
<trkpt lat="63.924076080" lon="-22.005678177">
<ele>153.347656</ele>
<time>2012-07-28T18:06:11Z</time>
<extensions>
<speed>0.0</speed>
<temp>0.00</temp>
<bpm>0</bpm>
<rpm>0.00</rpm>
</extensions>
</trkpt>
<trkpt lat="63.924076080" lon="-22.005676270">
<ele>153.320313</ele>
<time>2012-07-28T18:06:16Z</time>
<speed>0.010000</speed>
<extensions>
<speed>0.0</speed>
<temp>0.00</temp>
<bpm>0</bpm>
<rpm>0.00</rpm>
</extensions>
</trkpt>
<trkpt lat="63.924098969" lon="-22.005659103">
<ele>152.929688</ele>
<time>2012-07-28T18:06:21Z</time>
<speed>1.300000</speed>
<extensions>
<speed>1.3</speed>
<temp>0.00</temp>
<bpm>0</bpm>
<rpm>0.00</rpm>
</extensions>
</trkpt>
<trkpt lat="63.924182892" lon="-22.005495071">
<ele>152.660156</ele>
<time>2012-07-28T18:06:26Z</time>
<speed>3.250000</speed>
<extensions>
<speed>3.2</speed>
<temp>0.00</temp>
<bpm>0</bpm>
<rpm>0.00</rpm>
</extensions>
</trkpt>
<trkpt lat="63.924289703" lon="-22.005287170">
<ele>153.582031</ele>
<time>2012-07-28T18:06:31Z</time>
<speed>2.760000</speed>
<extensions>
<speed>2.8</speed>
<temp>0.00</temp>
<bpm>0</bpm>
<rpm>0.00</rpm>
</extensions>
</trkpt>
<trkpt lat="63.924396515" lon="-22.005115509">
<ele>152.957031</ele>
<time>2012-07-28T18:06:36Z</time>
<speed>3.140000</speed>
<extensions>
<speed>3.1</speed>
<temp>0.00</temp>
<bpm>0</bpm>
<rpm>0.00</rpm>
</extensions>
</trkpt>
<trkpt lat="63.924495697" lon="-22.004896164">
<ele>153.500000</ele>
<time>2012-07-28T18:06:41Z</time>
<speed>3.080000</speed>
<extensions>
<speed>3.1</speed>
<temp>0.00</temp>
<bpm>0</bpm>
<rpm>0.00</rpm>
</extensions>
</trkpt>
<trkpt lat="63.924583435" lon="-22.004718781">
<ele>152.289063</ele>
<time>2012-07-28T18:06:46Z</time>
<speed>2.390000</speed>
<extensions>
<speed>2.4</speed>
<temp>0.00</temp>
<bpm>0</bpm>
<rpm>0.00</rpm>
</extensions>
</trkpt>
<trkpt lat="63.924655914" lon="-22.004550934">
<ele>152.773438</ele>
<time>2012-07-28T18:06:51Z</time>
<speed>1.970000</speed>
<extensions>
<speed>2.0</speed>
<temp>0.00</temp>
<bpm>0</bpm>
<rpm>0.00</rpm>
</extensions>
</trkpt>
<trkpt lat="63.924724579" lon="-22.004402161">
<ele>151.761719</ele>
<time>2012-07-28T18:06:56Z</time>
<speed>2.310000</speed>
<extensions>
<speed>2.3</speed>
<temp>0.00</temp>
<bpm>0</bpm>
<rpm>0.00</rpm>
</extensions>
</trkpt>
<trkpt lat="63.924800873" lon="-22.004238129">
<ele>153.769531</ele>
<time>2012-07-28T18:07:01Z</time>
<speed>2.140000</speed>
<extensions>
<speed>2.1</speed>
<temp>0.00</temp>
<bpm>0</bpm>
<rpm>0.00</rpm>
</extensions>
</trkpt>
<trkpt lat="63.924865723" lon="-22.004083633">
<ele>156.343750</ele>
<time>2012-07-28T18:07:06Z</time>
<speed>2.090000</speed>
<extensions>
<speed>2.1</speed>
<temp>0.00</temp>
<bpm>0</bpm>
<rpm>0.00</rpm>
</extensions>
</trkpt>
<trkpt lat="63.924942017" lon="-22.003925323">
<ele>157.988281</ele>
<time>2012-07-28T18:07:11Z</time>
<speed>2.130000</speed>
<extensions>
<speed>2.1</speed>
<temp>0.00</temp>
<bpm>0</bpm>
<rpm>0.00</rpm>
</extensions>
</trkpt>
<trkpt lat="63.925014496" lon="-22.003797531">
<ele>159.261719</ele>
<time>2012-07-28T18:07:16Z</time>
<speed>1.670000</speed>
<extensions>
<speed>1.7</speed>
<temp>0.00</temp>
<bpm>0</bpm>
<rpm>0.00</rpm>
</extensions>
</trkpt>
<trkpt lat="63.925083160" lon="-22.003664017">
<ele>159.363281</ele>
<time>2012-07-28T18:07:21Z</time>
<speed>2.400000</speed>
<extensions>
<speed>2.4</speed>
<temp>0.00</temp>
<bpm>0</bpm>
<rpm>0.00</rpm>
</extensions>
</trkpt>
<trkpt lat="63.925167084" lon="-22.003519058">
<ele>157.292969</ele>
<time>2012-07-28T18:07:26Z</time>
<speed>2.880000</speed>
<extensions>
<speed>2.9</speed>
<temp>0.00</temp>
<bpm>0</bpm>
<rpm>0.00</rpm>
</extensions>
</trkpt>
<trkpt lat="63.925292969" lon="-22.003297806">
<ele>154.738281</ele>
<time>2012-07-28T18:07:31Z</time>
<speed>3.270000</speed>
<extensions>
<speed>3.3</speed>
<temp>0.00</temp>
<bpm>0</bpm>
<rpm>0.00</rpm>
</extensions>
</trkpt>
<trkpt lat="63.925392151" lon="-22.003118515">
<ele>153.410156</ele>
<time>2012-07-28T18:07:36Z</time>
<speed>3.080000</speed>
<extensions>
<speed>3.1</speed>
<temp>0.00</temp>
<bpm>0</bpm>
<rpm>0.00</rpm>
</extensions>
</trkpt>
<trkpt lat="63.925483704" lon="-22.002943039">
<ele>152.468750</ele>
<time>2012-07-28T18:07:41Z</time>
<speed>2.110000</speed>
<extensions>
<speed>2.1</speed>
<temp>0.00</temp>
<bpm>0</bpm>
<rpm>0.00</rpm>
</extensions>
</trkpt>
<trkpt lat="63.925559998" lon="-22.002765656">
<ele>152.546875</ele>
<time>2012-07-28T18:07:46Z</time>
<speed>2.620000</speed>
<extensions>
<speed>2.6</speed>
<temp>0.00</temp>
<bpm>0</bpm>
<rpm>0.00</rpm>
</extensions>
</trkpt>
<trkpt lat="63.925640106" lon="-22.002538681">
<ele>152.187500</ele>
<time>2012-07-28T18:07:51Z</time>
<speed>2.760000</speed>
<extensions>
<speed>2.8</speed>
<temp>0.00</temp>
<bpm>0</bpm>
<rpm>0.00</rpm>
</extensions>
</trkpt>
<trkpt lat="63.925712585" lon="-22.002302170">
<ele>152.578125</ele>
<time>2012-07-28T18:07:56Z</time>
<speed>2.750000</speed>
<extensions>
<speed>2.7</speed>
<temp>0.00</temp>
<bpm>0</bpm>
<rpm>0.00</rpm>
</extensions>
</trkpt>
<trkpt lat="63.925773621" lon="-22.002120972">
<ele>153.714844</ele>
<time>2012-07-28T18:08:01Z</time>
<speed>2.240000</speed>
<extensions>
<speed>2.2</speed>
<temp>0.00</temp>
<bpm>0</bpm>
<rpm>0.00</rpm>
</extensions>
</trkpt>
<trkpt lat="63.925830841" lon="-22.001934052">
<ele>155.285156</ele>
<time>2012-07-28T18:08:06Z</time>
<speed>2.490000</speed>
<extensions>
<speed>2.5</speed>
<temp>0.00</temp>
<bpm>0</bpm>
<rpm>0.00</rpm>
</extensions>
</trkpt>
<trkpt lat="63.925891876" lon="-22.001749039">
<ele>156.023438</ele>
<time>2012-07-28T18:08:11Z</time>
<speed>2.310000</speed>
<extensions>
<speed>2.3</speed>
<temp>0.00</temp>
<bpm>0</bpm>
<rpm>0.00</rpm>
</extensions>
</trkpt>
<trkpt lat="63.925933838" lon="-22.001522064">
<ele>155.699219</ele>
<time>2012-07-28T18:08:16Z</time>
<speed>2.030000</speed>
<extensions>
<speed>2.0</speed>
<temp>0.00</temp>
<bpm>0</bpm>
<rpm>0.00</rpm>
</extensions>
</trkpt>
<trkpt lat="63.925960541" lon="-22.001373291">
<ele>155.679688</ele>
<time>2012-07-28T18:08:21Z</time>
<speed>1.060000</speed>
<extensions>
<speed>1.1</speed>
<temp>0.00</temp>
<bpm>0</bpm>
<rpm>0.00</rpm>
</extensions>
</trkpt>
<trkpt lat="63.925979614" lon="-22.001226425">
<ele>154.914063</ele>
<time>2012-07-28T18:08:26Z</time>
<speed>1.530000</speed>
<extensions>
<speed>1.5</speed>
<temp>0.00</temp>
<bpm>0</bpm>
<rpm>0.00</rpm>
</extensions>
</trkpt>
<trkpt lat="63.926017761" lon="-22.001075745">
<ele>155.671875</ele>
<time>2012-07-28T18:08:31Z</time>
<speed>1.640000</speed>
<extensions>
<speed>1.6</speed>
<temp>0.00</temp>
<bpm>0</bpm>
<rpm>0.00</rpm>
</extensions>
</trkpt>
<trkpt lat="63.926033020" lon="-22.000904083">
<ele>156.093750</ele>
<time>2012-07-28T18:08:36Z</time>
<speed>1.660000</speed>
<extensions>
<speed>1.7</speed>
<temp>0.00</temp>
<bpm>0</bpm>
<rpm>0.00</rpm>
</extensions>
</trkpt>
<trkpt lat="63.926040649" lon="-22.000738144">
<ele>156.183594</ele>
<time>2012-07-28T18:08:41Z</time>
<speed>1.770000</speed>
<extensions>
<speed>1.8</speed>
<temp>0.00</temp>
<bpm>0</bpm>
<rpm>0.00</rpm>
</extensions>
</trkpt>
<trkpt lat="63.926055908" lon="-22.000556946">
<ele>157.218750</ele>
<time>2012-07-28T18:08:46Z</time>
<speed>1.780000</speed>
<extensions>
<speed>1.8</speed>
<temp>0.00</temp>
<bpm>0</bpm>
<rpm>0.00</rpm>
</extensions>
</trkpt>
<trkpt lat="63.926067352" lon="-22.000358582">
<ele>158.273438</ele>
<time>2012-07-28T18:08:51Z</time>
<speed>1.670000</speed>
<extensions>
<speed>1.7</speed>
<temp>0.00</temp>
<bpm>0</bpm>
<rpm>0.00</rpm>
</extensions>
</trkpt>
<trkpt lat="63.926048279" lon="-22.000192642">
<ele>159.027344</ele>
<time>2012-07-28T18:08:56Z</time>
<speed>1.670000</speed>
<extensions>
<speed>1.7</speed>
<temp>0.00</temp>
<bpm>0</bpm>
<rpm>0.00</rpm>
</extensions>
</trkpt>
<trkpt lat="63.926040649" lon="-22.000011444">
<ele>160.097656</ele>
<time>2012-07-28T18:09:01Z</time>
<speed>1.740000</speed>
<extensions>
<speed>1.7</speed>
<temp>0.00</temp>
<bpm>0</bpm>
<rpm>0.00</rpm>
</extensions>
</trkpt>
<trkpt lat="63.926040649" lon="-21.999816895">
<ele>162.886719</ele>
<time>2012-07-28T18:09:06Z</time>
<speed>1.870000</speed>
<extensions>
<speed>1.9</speed>
<temp>0.00</temp>
<bpm>0</bpm>
<rpm>0.00</rpm>
</extensions>
</trkpt>
<trkpt lat="63.926044464" lon="-21.999645233">
<ele>164.582031</ele>
<time>2012-07-28T18:09:11Z</time>
<speed>1.730000</speed>
<extensions>
<speed>1.7</speed>
<temp>0.00</temp>
<bpm>0</bpm>
<rpm>0.00</rpm>
</extensions>
</trkpt>
<trkpt lat="63.926048279" lon="-21.999494553">
<ele>166.351563</ele>
<time>2012-07-28T18:09:16Z</time>
<speed>1.620000</speed>
<extensions>
<speed>1.6</speed>
<temp>0.00</temp>
<bpm>0</bpm>
<rpm>0.00</rpm>
</extensions>
</trkpt>
<trkpt lat="63.926048279" lon="-21.999322891">
<ele>167.691406</ele>
<time>2012-07-28T18:09:21Z</time>
<speed>1.800000</speed>
<extensions>
<speed>1.8</speed>
<temp>0.00</temp>
<bpm>0</bpm>
<rpm>0.00</rpm>
</extensions>
</trkpt>
<trkpt lat="63.926040649" lon="-21.999134064">
<ele>167.832031</ele>
<time>2012-07-28T18:09:26Z</time>
<speed>1.700000</speed>
<extensions>
<speed>1.7</speed>
<temp>0.00</temp>
<bpm>0</bpm>
<rpm>0.00</rpm>
</extensions>
</trkpt>
<trkpt lat="63.926029205" lon="-21.998910904">
<ele>168.632813</ele>
<time>2012-07-28T18:09:31Z</time>
<speed>2.570000</speed>
<extensions>
<speed>2.6</speed>
<temp>0.00</temp>
<bpm>0</bpm>
<rpm>0.00</rpm>
</extensions>
</trkpt>
<trkpt lat="63.926013947" lon="-21.998659134">
<ele>167.562500</ele>
<time>2012-07-28T18:09:36Z</time>
<speed>1.820000</speed>
<extensions>
<speed>1.8</speed>
<temp>0.00</temp>
<bpm>0</bpm>
<rpm>0.00</rpm>
</extensions>
</trkpt>
<trkpt lat="63.925994873" lon="-21.998455048">
<ele>166.144531</ele>
<time>2012-07-28T18:09:41Z</time>
<speed>1.890000</speed>
<extensions>
<speed>1.9</speed>
<temp>0.00</temp>
<bpm>0</bpm>
<rpm>0.00</rpm>
</extensions>
</trkpt>
<trkpt lat="63.925994873" lon="-21.998247147">
<ele>168.234375</ele>
<time>2012-07-28T18:09:46Z</time>
<speed>2.340000</speed>
<extensions>
<speed>2.3</speed>
<temp>0.00</temp>
<bpm>0</bpm>
<rpm>0.00</rpm>
</extensions>
</trkpt>
<trkpt lat="63.926006317" lon="-21.998035431">
<ele>168.941406</ele>
<time>2012-07-28T18:09:51Z</time>
<speed>2.270000</speed>
<extensions>
<speed>2.3</speed>
<temp>0.00</temp>
<bpm>0</bpm>
<rpm>0.00</rpm>
</extensions>
</trkpt>
<trkpt lat="63.926006317" lon="-21.997816086">
<ele>169.164063</ele>
<time>2012-07-28T18:09:56Z</time>
<speed>1.510000</speed>
<extensions>
<speed>1.5</speed>
<temp>0.00</temp>
<bpm>0</bpm>
<rpm>0.00</rpm>
</extensions>
</trkpt>
<trkpt lat="63.926013947" lon="-21.997653961">
<ele>169.011719</ele>
<time>2012-07-28T18:10:01Z</time>
<speed>1.910000</speed>
<extensions>
<speed>1.9</speed>
<temp>0.00</temp>
<bpm>0</bpm>
<rpm>0.00</rpm>
</extensions>
</trkpt>
<trkpt lat="63.926033020" lon="-21.997524261">
<ele>169.078125</ele>
<time>2012-07-28T18:10:06Z</time>
<speed>0.080000</speed>
<extensions>
<speed>0.1</speed>
<temp>0.00</temp>
<bpm>0</bpm>
<rpm>0.00</rpm>
</extensions>
</trkpt>
<trkpt lat="63.926033020" lon="-21.997526169">
<ele>169.312500</ele>
<time>2012-07-28T18:10:11Z</time>
<speed>0.050000</speed>
<extensions>
<speed>0.1</speed>
<temp>0.00</temp>
<bpm>0</bpm>
<rpm>0.00</rpm>
</extensions>
</trkpt>
<trkpt lat="63.926033020" lon="-21.997524261">
<ele>169.503906</ele>
<time>2012-07-28T18:10:16Z</time>
<speed>0.010000</speed>
<extensions>
<speed>0.0</speed>
<temp>0.00</temp>
<bpm>0</bpm>
<rpm>0.00</rpm>
</extensions>
</trkpt>
<trkpt lat="63.926033020" lon="-21.997524261">
<ele>169.582031</ele>
<time>2012-07-28T18:10:21Z</time>
<speed>0.020000</speed>
<extensions>
<speed>0.0</speed>
<temp>0.00</temp>
<bpm>0</bpm>
<rpm>0.00</rpm>
</extensions>
</trkpt>
<trkpt lat="63.926033020" lon="-21.997524261">
<ele>169.667969</ele>
<time>2012-07-28T18:10:26Z</time>
<extensions>
<speed>0.0</speed>
<temp>0.00</temp>
<bpm>0</bpm>
<rpm>0.00</rpm>
</extensions>
</trkpt>
<trkpt lat="63.926033020" lon="-21.997524261">
<ele>169.648438</ele>
<time>2012-07-28T18:10:31Z</time>
<speed>0.020000</speed>
<extensions>
<speed>0.0</speed>
<temp>0.00</temp>
<bpm>0</bpm>
<rpm>0.00</rpm>
</extensions>
</trkpt>
<trkpt lat="63.926033020" lon="-21.997516632">
<ele>169.675781</ele>
<time>2012-07-28T18:10:36Z</time>
<speed>0.430000</speed>
<extensions>
<speed>0.4</speed>
<temp>0.00</temp>
<bpm>0</bpm>
<rpm>0.00</rpm>
</extensions>
</trkpt>
<trkpt lat="63.926033020" lon="-21.997480392">
<ele>169.667969</ele>
<time>2012-07-28T18:10:41Z</time>
<speed>0.050000</speed>
<extensions>
<speed>0.1</speed>
<temp>0.00</temp>
<bpm>0</bpm>
<rpm>0.00</rpm>
</extensions>
</trkpt>
<trkpt lat="63.926033020" lon="-21.997480392">
<ele>169.796875</ele>
<time>2012-07-28T18:10:46Z</time>
<speed>0.020000</speed>
<extensions>
<speed>0.0</speed>
<temp>0.00</temp>
<bpm>0</bpm>
<rpm>0.00</rpm>
</extensions>
</trkpt>
<trkpt lat="63.926033020" lon="-21.997478485">
<ele>169.894531</ele>
<time>2012-07-28T18:10:51Z</time>
<speed>0.070000</speed>
<extensions>
<speed>0.1</speed>
<temp>0.00</temp>
<bpm>0</bpm>
<rpm>0.00</rpm>
</extensions>
</trkpt>
<trkpt lat="63.926036835" lon="-21.997478485">
<ele>169.968750</ele>
<time>2012-07-28T18:10:56Z</time>
<speed>0.010000</speed>
<extensions>
<speed>0.0</speed>
<temp>0.00</temp>
<bpm>0</bpm>
<rpm>0.00</rpm>
</extensions>
</trkpt>
<trkpt lat="63.926036835" lon="-21.997478485">
<ele>169.964844</ele>
<time>2012-07-28T18:11:01Z</time>
<extensions>
<speed>0.0</speed>
<temp>0.00</temp>
<bpm>0</bpm>
<rpm>0.00</rpm>
</extensions>
</trkpt>
<trkpt lat="63.926036835" lon="-21.997478485">
<ele>169.968750</ele>
<time>2012-07-28T18:11:06Z</time>
<extensions>
<speed>0.0</speed>
<temp>0.00</temp>
<bpm>0</bpm>
<rpm>0.00</rpm>
</extensions>
</trkpt>
<trkpt lat="63.926036835" lon="-21.997478485">
<ele>169.972656</ele>
<time>2012-07-28T18:11:11Z</time>
<speed>0.050000</speed>
<extensions>
<speed>0.1</speed>
<temp>0.00</temp>
<bpm>0</bpm>
<rpm>0.00</rpm>
</extensions>
</trkpt>
<trkpt lat="63.926036835" lon="-21.997478485">
<ele>169.984375</ele>
<time>2012-07-28T18:11:16Z</time>
<speed>0.010000</speed>
<extensions>
<speed>0.0</speed>
<temp>0.00</temp>
<bpm>0</bpm>
<rpm>0.00</rpm>
</extensions>
</trkpt>
<trkpt lat="63.926036835" lon="-21.997476578">
<ele>170.003906</ele>
<time>2012-07-28T18:11:21Z</time>
<speed>2.170000</speed>
<extensions>
<speed>2.2</speed>
<temp>0.00</temp>
<bpm>0</bpm>
<rpm>0.00</rpm>
</extensions>
</trkpt>
<trkpt lat="63.926197052" lon="-21.997207642">
<ele>166.917969</ele>
<time>2012-07-28T18:11:26Z</time>
<speed>4.960000</speed>
<extensions>
<speed>5.0</speed>
<temp>0.00</temp>
<bpm>0</bpm>
<rpm>0.00</rpm>
</extensions>
</trkpt>
<trkpt lat="63.926414490" lon="-21.996858597">
<ele>162.390625</ele>
<time>2012-07-28T18:11:31Z</time>
<speed>6.990000</speed>
<extensions>
<speed>7.0</speed>
<temp>0.00</temp>
<bpm>0</bpm>
<rpm>0.00</rpm>
</extensions>
</trkpt>
<trkpt lat="63.926731110" lon="-21.996486664">
<ele>158.781250</ele>
<time>2012-07-28T18:11:36Z</time>
<speed>7.710000</speed>
<extensions>
<speed>7.7</speed>
<temp>0.00</temp>
<bpm>0</bpm>
<rpm>0.00</rpm>
</extensions>
</trkpt>
<trkpt lat="63.927021027" lon="-21.996335983">
<ele>157.871094</ele>
<time>2012-07-28T18:11:41Z</time>
<speed>5.470000</speed>
<extensions>
<speed>5.5</speed>
<temp>0.00</temp>
<bpm>0</bpm>
<rpm>0.00</rpm>
</extensions>
</trkpt>
<trkpt lat="63.927204132" lon="-21.996311188">
<ele>157.933594</ele>
<time>2012-07-28T18:11:46Z</time>
<speed>2.820000</speed>
<extensions>
<speed>2.8</speed>
<temp>0.00</temp>
<bpm>0</bpm>
<rpm>0.00</rpm>
</extensions>
</trkpt>
<trkpt lat="63.927295685" lon="-21.996324539">
<ele>158.593750</ele>
<time>2012-07-28T18:11:51Z</time>
<speed>1.970000</speed>
<extensions>
<speed>2.0</speed>
<temp>0.00</temp>
<bpm>0</bpm>
<rpm>0.00</rpm>
</extensions>
</trkpt>
<trkpt lat="63.927383423" lon="-21.996374130">
<ele>158.261719</ele>
<time>2012-07-28T18:11:56Z</time>
<speed>2.240000</speed>
<extensions>
<speed>2.2</speed>
<temp>0.00</temp>
<bpm>0</bpm>
<rpm>0.00</rpm>
</extensions>
</trkpt>
<trkpt lat="63.927478790" lon="-21.996395111">
<ele>159.128906</ele>
<time>2012-07-28T18:12:01Z</time>
<speed>2.120000</speed>
<extensions>
<speed>2.1</speed>
<temp>0.00</temp>
<bpm>0</bpm>
<rpm>0.00</rpm>
</extensions>
</trkpt>
<trkpt lat="63.927574158" lon="-21.996402740">
<ele>159.515625</ele>
<time>2012-07-28T18:12:06Z</time>
<speed>2.280000</speed>
<extensions>
<speed>2.3</speed>
<temp>0.00</temp>
<bpm>0</bpm>
<rpm>0.00</rpm>
</extensions>
</trkpt>
<trkpt lat="63.927661896" lon="-21.996438980">
<ele>158.941406</ele>
<time>2012-07-28T18:12:11Z</time>
<speed>1.970000</speed>
<extensions>
<speed>2.0</speed>
<temp>0.00</temp>
<bpm>0</bpm>
<rpm>0.00</rpm>
</extensions>
</trkpt>
<trkpt lat="63.927749634" lon="-21.996437073">
<ele>159.574219</ele>
<time>2012-07-28T18:12:16Z</time>
<speed>2.050000</speed>
<extensions>
<speed>2.1</speed>
<temp>0.00</temp>
<bpm>0</bpm>
<rpm>0.00</rpm>
</extensions>
</trkpt>
<trkpt lat="63.927841187" lon="-21.996446609">
<ele>159.929688</ele>
<time>2012-07-28T18:12:21Z</time>
<speed>2.140000</speed>
<extensions>
<speed>2.1</speed>
<temp>0.00</temp>
<bpm>0</bpm>
<rpm>0.00</rpm>
</extensions>
</trkpt>
<trkpt lat="63.927928925" lon="-21.996461868">
<ele>159.394531</ele>
<time>2012-07-28T18:12:26Z</time>
<speed>2.040000</speed>
<extensions>
<speed>2.0</speed>
<temp>0.00</temp>
<bpm>0</bpm>
<rpm>0.00</rpm>
</extensions>
</trkpt>
<trkpt lat="63.928012848" lon="-21.996488571">
<ele>158.683594</ele>
<time>2012-07-28T18:12:31Z</time>
<speed>2.000000</speed>
<extensions>
<speed>2.0</speed>
<temp>0.00</temp>
<bpm>0</bpm>
<rpm>0.00</rpm>
</extensions>
</trkpt>
<trkpt lat="63.928092957" lon="-21.996503830">
<ele>159.703125</ele>
<time>2012-07-28T18:12:36Z</time>
<speed>2.100000</speed>
<extensions>
<speed>2.1</speed>
<temp>0.00</temp>
<bpm>0</bpm>
<rpm>0.00</rpm>
</extensions>
</trkpt>
<trkpt lat="63.928165436" lon="-21.996543884">
<ele>160.085938</ele>
<time>2012-07-28T18:12:41Z</time>
<speed>1.750000</speed>
<extensions>
<speed>1.8</speed>
<temp>0.00</temp>
<bpm>0</bpm>
<rpm>0.00</rpm>
</extensions>
</trkpt>
<trkpt lat="63.928245544" lon="-21.996599197">
<ele>161.492188</ele>
<time>2012-07-28T18:12:46Z</time>
<speed>2.220000</speed>
<extensions>
<speed>2.2</speed>
<temp>0.00</temp>
<bpm>0</bpm>
<rpm>0.00</rpm>
</extensions>
</trkpt>
<trkpt lat="63.928333282" lon="-21.996669769">
<ele>161.253906</ele>
<time>2012-07-28T18:12:51Z</time>
<speed>2.330000</speed>
<extensions>
<speed>2.3</speed>
<temp>0.00</temp>
<bpm>0</bpm>
<rpm>0.00</rpm>
</extensions>
</trkpt>
<trkpt lat="63.928428650" lon="-21.996755600">
<ele>161.210938</ele>
<time>2012-07-28T18:12:56Z</time>
<speed>2.300000</speed>
<extensions>
<speed>2.3</speed>
<temp>0.00</temp>
<bpm>0</bpm>
<rpm>0.00</rpm>
</extensions>
</trkpt>
<trkpt lat="63.928550720" lon="-21.996833801">
<ele>161.597656</ele>
<time>2012-07-28T18:13:01Z</time>
<speed>2.750000</speed>
<extensions>
<speed>2.7</speed>
<temp>0.00</temp>
<bpm>0</bpm>
<rpm>0.00</rpm>
</extensions>
</trkpt>
<trkpt lat="63.928680420" lon="-21.996877670">
<ele>161.601563</ele>
<time>2012-07-28T18:13:06Z</time>
<speed>2.880000</speed>
<extensions>
<speed>2.9</speed>
<temp>0.00</temp>
<bpm>0</bpm>
<rpm>0.00</rpm>
</extensions>
</trkpt>
<trkpt lat="63.928806305" lon="-21.996892929">
<ele>161.429688</ele>
<time>2012-07-28T18:13:11Z</time>
<speed>2.700000</speed>
<extensions>
<speed>2.7</speed>
<temp>0.00</temp>
<bpm>0</bpm>
<rpm>0.00</rpm>
</extensions>
</trkpt>
<trkpt lat="63.928905487" lon="-21.996835709">
<ele>160.500000</ele>
<time>2012-07-28T18:13:16Z</time>
<speed>1.710000</speed>
<extensions>
<speed>1.7</speed>
<temp>0.00</temp>
<bpm>0</bpm>
<rpm>0.00</rpm>
</extensions>
</trkpt>
<trkpt lat="63.928974152" lon="-21.996782303">
<ele>160.390625</ele>
<time>2012-07-28T18:13:21Z</time>
<speed>1.690000</speed>
<extensions>
<speed>1.7</speed>
<temp>0.00</temp>
<bpm>0</bpm>
<rpm>0.00</rpm>
</extensions>
</trkpt>
<trkpt lat="63.929031372" lon="-21.996675491">
<ele>160.316406</ele>
<time>2012-07-28T18:13:26Z</time>
<speed>1.650000</speed>
<extensions>
<speed>1.7</speed>
<temp>0.00</temp>
<bpm>0</bpm>
<rpm>0.00</rpm>
</extensions>
</trkpt>
<trkpt lat="63.929080963" lon="-21.996553421">
<ele>160.558594</ele>
<time>2012-07-28T18:13:31Z</time>
<speed>1.510000</speed>
<extensions>
<speed>1.5</speed>
<temp>0.00</temp>
<bpm>0</bpm>
<rpm>0.00</rpm>
</extensions>
</trkpt>
<trkpt lat="63.929130554" lon="-21.996448517">
<ele>161.101563</ele>
<time>2012-07-28T18:13:36Z</time>
<speed>1.600000</speed>
<extensions>
<speed>1.6</speed>
<temp>0.00</temp>
<bpm>0</bpm>
<rpm>0.00</rpm>
</extensions>
</trkpt>
<trkpt lat="63.929183960" lon="-21.996320724">
<ele>162.406250</ele>
<time>2012-07-28T18:13:41Z</time>
<speed>1.550000</speed>
<extensions>
<speed>1.5</speed>
<temp>0.00</temp>
<bpm>0</bpm>
<rpm>0.00</rpm>
</extensions>
</trkpt>
<trkpt lat="63.929237366" lon="-21.996225357">
<ele>162.933594</ele>
<time>2012-07-28T18:13:46Z</time>
<speed>1.590000</speed>
<extensions>
<speed>1.6</speed>
<temp>0.00</temp>
<bpm>0</bpm>
<rpm>0.00</rpm>
</extensions>
</trkpt>
<trkpt lat="63.929294586" lon="-21.996118546">
<ele>163.429688</ele>
<time>2012-07-28T18:13:51Z</time>
<speed>1.760000</speed>
<extensions>
<speed>1.8</speed>
<temp>0.00</temp>
<bpm>0</bpm>
<rpm>0.00</rpm>
</extensions>
</trkpt>
<trkpt lat="63.929355621" lon="-21.995969772">
<ele>166.867188</ele>
<time>2012-07-28T18:13:56Z</time>
<speed>1.790000</speed>
<extensions>
<speed>1.8</speed>
<temp>0.00</temp>
<bpm>0</bpm>
<rpm>0.00</rpm>
</extensions>
</trkpt>
<trkpt lat="63.929412842" lon="-21.995826721">
<ele>169.203125</ele>
<time>2012-07-28T18:14:01Z</time>
<speed>2.110000</speed>
<extensions>
<speed>2.1</speed>
<temp>0.00</temp>
<bpm>0</bpm>
<rpm>0.00</rpm>
</extensions>
</trkpt>
<trkpt lat="63.929481506" lon="-21.995681763">
<ele>170.964844</ele>
<time>2012-07-28T18:14:06Z</time>
<speed>1.630000</speed>
<extensions>
<speed>1.6</speed>
<temp>0.00</temp>
<bpm>0</bpm>
<rpm>0.00</rpm>
</extensions>
</trkpt>
<trkpt lat="63.929557800" lon="-21.995563507">
<ele>169.898438</ele>
<time>2012-07-28T18:14:11Z</time>
<speed>1.880000</speed>
<extensions>
<speed>1.9</speed>
<temp>0.00</temp>
<bpm>0</bpm>
<rpm>0.00</rpm>
</extensions>
</trkpt>
<trkpt lat="63.929641724" lon="-21.995410919">
<ele>172.710938</ele>
<time>2012-07-28T18:14:16Z</time>
<speed>2.540000</speed>
<extensions>
<speed>2.5</speed>
<temp>0.00</temp>
<bpm>0</bpm>
<rpm>0.00</rpm>
</extensions>
</trkpt>
<trkpt lat="63.929718018" lon="-21.995258331">
<ele>173.007813</ele>
<time>2012-07-28T18:14:21Z</time>
<speed>1.870000</speed>
<extensions>
<speed>1.9</speed>
<temp>0.00</temp>
<bpm>0</bpm>
<rpm>0.00</rpm>
</extensions>
</trkpt>
<trkpt lat="63.929782867" lon="-21.995105743">
<ele>172.843750</ele>
<time>2012-07-28T18:14:26Z</time>
<speed>2.260000</speed>
<extensions>
<speed>2.3</speed>
<temp>0.00</temp>
<bpm>0</bpm>
<rpm>0.00</rpm>
</extensions>
</trkpt>
<trkpt lat="63.929855347" lon="-21.994930267">
<ele>173.078125</ele>
<time>2012-07-28T18:14:31Z</time>
<speed>2.300000</speed>
<extensions>
<speed>2.3</speed>
<temp>0.00</temp>
<bpm>0</bpm>
<rpm>0.00</rpm>
</extensions>
</trkpt>
<trkpt lat="63.929927826" lon="-21.994800568">
<ele>173.562500</ele>
<time>2012-07-28T18:14:36Z</time>
<speed>2.060000</speed>
<extensions>
<speed>2.1</speed>
<temp>0.00</temp>
<bpm>0</bpm>
<rpm>0.00</rpm>
</extensions>
</trkpt>
<trkpt lat="63.929977417" lon="-21.994646072">
<ele>173.562500</ele>
<time>2012-07-28T18:14:41Z</time>
<speed>1.570000</speed>
<extensions>
<speed>1.6</speed>
<temp>0.00</temp>
<bpm>0</bpm>
<rpm>0.00</rpm>
</extensions>
</trkpt>
<trkpt lat="63.929988861" lon="-21.994625092">
<ele>173.585938</ele>
<time>2012-07-28T18:14:46Z</time>
<extensions>
<speed>0.0</speed>
<temp>0.00</temp>
<bpm>0</bpm>
<rpm>0.00</rpm>
</extensions>
</trkpt>
<trkpt lat="63.929988861" lon="-21.994626999">
<ele>173.597656</ele>
<time>2012-07-28T18:14:51Z</time>
<speed>0.010000</speed>
<extensions>
<speed>0.0</speed>
<temp>0.00</temp>
<bpm>0</bpm>
<rpm>0.00</rpm>
</extensions>
</trkpt>
<trkpt lat="63.929988861" lon="-21.994626999">
<ele>173.652344</ele>
<time>2012-07-28T18:14:56Z</time>
<extensions>
<speed>0.0</speed>
<temp>0.00</temp>
<bpm>0</bpm>
<rpm>0.00</rpm>
</extensions>
</trkpt>
<trkpt lat="63.929988861" lon="-21.994626999">
<ele>173.710938</ele>
<time>2012-07-28T18:15:01Z</time>
<speed>0.020000</speed>
<extensions>
<speed>0.0</speed>
<temp>0.00</temp>
<bpm>0</bpm>
<rpm>0.00</rpm>
</extensions>
</trkpt>
<trkpt lat="63.929988861" lon="-21.994626999">
<ele>173.742188</ele>
<time>2012-07-28T18:15:06Z</time>
<speed>0.020000</speed>
<extensions>
<speed>0.0</speed>
<temp>0.00</temp>
<bpm>0</bpm>
<rpm>0.00</rpm>
</extensions>
</trkpt>
<trkpt lat="63.929988861" lon="-21.994626999">
<ele>173.738281</ele>
<time>2012-07-28T18:15:11Z</time>
<speed>0.010000</speed>
<extensions>
<speed>0.0</speed>
<temp>0.00</temp>
<bpm>0</bpm>
<rpm>0.00</rpm>
</extensions>
</trkpt>
<trkpt lat="63.929988861" lon="-21.994626999">
<ele>173.742188</ele>
<time>2012-07-28T18:15:16Z</time>
<speed>0.010000</speed>
<extensions>
<speed>0.0</speed>
<temp>0.00</temp>
<bpm>0</bpm>
<rpm>0.00</rpm>
</extensions>
</trkpt>
<trkpt lat="63.929988861" lon="-21.994626999">
<ele>173.753906</ele>
<time>2012-07-28T18:15:21Z</time>
<speed>0.060000</speed>
<extensions>
<speed>0.1</speed>
<temp>0.00</temp>
<bpm>0</bpm>
<rpm>0.00</rpm>
</extensions>
</trkpt>
<trkpt lat="63.929988861" lon="-21.994626999">
<ele>173.765625</ele>
<time>2012-07-28T18:15:26Z</time>
<speed>0.020000</speed>
<extensions>
<speed>0.0</speed>
<temp>0.00</temp>
<bpm>0</bpm>
<rpm>0.00</rpm>
</extensions>
</trkpt>
<trkpt lat="63.929996490" lon="-21.994621277">
<ele>173.824219</ele>
<time>2012-07-28T18:15:31Z</time>
<speed>0.040000</speed>
<extensions>
<speed>0.0</speed>
<temp>0.00</temp>
<bpm>0</bpm>
<rpm>0.00</rpm>
</extensions>
</trkpt>
<trkpt lat="63.929996490" lon="-21.994621277">
<ele>173.800781</ele>
<time>2012-07-28T18:15:36Z</time>
<speed>0.920000</speed>
<extensions>
<speed>0.9</speed>
<temp>0.00</temp>
<bpm>0</bpm>
<rpm>0.00</rpm>
</extensions>
</trkpt>
<trkpt lat="63.930076599" lon="-21.994665146">
<ele>173.433594</ele>
<time>2012-07-28T18:15:41Z</time>
<speed>2.390000</speed>
<extensions>
<speed>2.4</speed>
<temp>0.00</temp>
<bpm>0</bpm>
<rpm>0.00</rpm>
</extensions>
</trkpt>
<trkpt lat="63.930213928" lon="-21.994705200">
<ele>172.796875</ele>
<time>2012-07-28T18:15:46Z</time>
<speed>3.430000</speed>
<extensions>
<speed>3.4</speed>
<temp>0.00</temp>
<bpm>0</bpm>
<rpm>0.00</rpm>
</extensions>
</trkpt>
<trkpt lat="63.930374146" lon="-21.994825363">
<ele>172.164063</ele>
<time>2012-07-28T18:15:51Z</time>
<speed>4.000000</speed>
<extensions>
<speed>4.0</speed>
<temp>0.00</temp>
<bpm>0</bpm>
<rpm>0.00</rpm>
</extensions>
</trkpt>
<trkpt lat="63.930541992" lon="-21.994991302">
<ele>171.562500</ele>
<time>2012-07-28T18:15:56Z</time>
<speed>4.160000</speed>
<extensions>
<speed>4.2</speed>
<temp>0.00</temp>
<bpm>0</bpm>
<rpm>0.00</rpm>
</extensions>
</trkpt>
<trkpt lat="63.930713654" lon="-21.995157242">
<ele>170.871094</ele>
<time>2012-07-28T18:16:01Z</time>
<speed>3.940000</speed>
<extensions>
<speed>3.9</speed>
<temp>0.00</temp>
<bpm>0</bpm>
<rpm>0.00</rpm>
</extensions>
</trkpt>
<trkpt lat="63.930870056" lon="-21.995344162">
<ele>170.539063</ele>
<time>2012-07-28T18:16:06Z</time>
<speed>3.940000</speed>
<extensions>
<speed>3.9</speed>
<temp>0.00</temp>
<bpm>0</bpm>
<rpm>0.00</rpm>
</extensions>
</trkpt>
<trkpt lat="63.931037903" lon="-21.995506287">
<ele>169.316406</ele>
<time>2012-07-28T18:16:11Z</time>
<speed>4.160000</speed>
<extensions>
<speed>4.2</speed>
<temp>0.00</temp>
<bpm>0</bpm>
<rpm>0.00</rpm>
</extensions>
</trkpt>
<trkpt lat="63.931221008" lon="-21.995647430">
<ele>167.898438</ele>
<time>2012-07-28T18:16:16Z</time>
<speed>4.570000</speed>
<extensions>
<speed>4.6</speed>
<temp>0.00</temp>
<bpm>0</bpm>
<rpm>0.00</rpm>
</extensions>
</trkpt>
<trkpt lat="63.931434631" lon="-21.995704651">
<ele>165.207031</ele>
<time>2012-07-28T18:16:21Z</time>
<speed>4.800000</speed>
<extensions>
<speed>4.8</speed>
<temp>0.00</temp>
<bpm>0</bpm>
<rpm>0.00</rpm>
</extensions>
</trkpt>
<trkpt lat="63.931655884" lon="-21.995603561">
<ele>163.703125</ele>
<time>2012-07-28T18:16:26Z</time>
<speed>4.980000</speed>
<extensions>
<speed>5.0</speed>
<temp>0.00</temp>
<bpm>0</bpm>
<rpm>0.00</rpm>
</extensions>
</trkpt>
<trkpt lat="63.931884766" lon="-21.995365143">
<ele>161.878906</ele>
<time>2012-07-28T18:16:31Z</time>
<speed>6.380000</speed>
<extensions>
<speed>6.4</speed>
<temp>0.00</temp>
<bpm>0</bpm>
<rpm>0.00</rpm>
</extensions>
</trkpt>
<trkpt lat="63.932106018" lon="-21.994953156">
<ele>159.566406</ele>
<time>2012-07-28T18:16:36Z</time>
<speed>5.980000</speed>
<extensions>
<speed>6.0</speed>
<temp>0.00</temp>
<bpm>0</bpm>
<rpm>0.00</rpm>
</extensions>
</trkpt>
<trkpt lat="63.932285309" lon="-21.994541168">
<ele>156.351563</ele>
<time>2012-07-28T18:16:41Z</time>
<speed>5.920000</speed>
<extensions>
<speed>5.9</speed>
<temp>0.00</temp>
<bpm>0</bpm>
<rpm>0.00</rpm>
</extensions>
</trkpt>
<trkpt lat="63.932552338" lon="-21.994358063">
<ele>154.234375</ele>
<time>2012-07-28T18:16:46Z</time>
<speed>6.500000</speed>
<extensions>
<speed>6.5</speed>
<temp>0.00</temp>
<bpm>0</bpm>
<rpm>0.00</rpm>
</extensions>
</trkpt>
<trkpt lat="63.932846069" lon="-21.994573593">
<ele>152.027344</ele>
<time>2012-07-28T18:16:51Z</time>
<speed>7.160000</speed>
<extensions>
<speed>7.2</speed>
<temp>0.00</temp>
<bpm>0</bpm>
<rpm>0.00</rpm>
</extensions>
</trkpt>
<trkpt lat="63.933147430" lon="-21.994796753">
<ele>148.781250</ele>
<time>2012-07-28T18:16:56Z</time>
<speed>7.770000</speed>
<extensions>
<speed>7.8</speed>
<temp>0.00</temp>
<bpm>0</bpm>
<rpm>0.00</rpm>
</extensions>
</trkpt>
<trkpt lat="63.933429718" lon="-21.994646072">
<ele>146.085938</ele>
<time>2012-07-28T18:17:01Z</time>
<speed>4.780000</speed>
<extensions>
<speed>4.8</speed>
<temp>0.00</temp>
<bpm>0</bpm>
<rpm>0.00</rpm>
</extensions>
</trkpt>
<trkpt lat="63.933578491" lon="-21.994409561">
<ele>146.246094</ele>
<time>2012-07-28T18:17:06Z</time>
<speed>2.920000</speed>
<extensions>
<speed>2.9</speed>
<temp>0.00</temp>
<bpm>0</bpm>
<rpm>0.00</rpm>
</extensions>
</trkpt>
<trkpt lat="63.933666229" lon="-21.994215012">
<ele>147.886719</ele>
<time>2012-07-28T18:17:11Z</time>
<speed>2.500000</speed>
<extensions>
<speed>2.5</speed>
<temp>0.00</temp>
<bpm>0</bpm>
<rpm>0.00</rpm>
</extensions>
</trkpt>
<trkpt lat="63.933734894" lon="-21.994003296">
<ele>148.386719</ele>
<time>2012-07-28T18:17:16Z</time>
<speed>2.570000</speed>
<extensions>
<speed>2.6</speed>
<temp>0.00</temp>
<bpm>0</bpm>
<rpm>0.00</rpm>
</extensions>
</trkpt>
<trkpt lat="63.933807373" lon="-21.993814468">
<ele>148.347656</ele>
<time>2012-07-28T18:17:21Z</time>
<speed>2.480000</speed>
<extensions>
<speed>2.5</speed>
<temp>0.00</temp>
<bpm>0</bpm>
<rpm>0.00</rpm>
</extensions>
</trkpt>
<trkpt lat="63.933883667" lon="-21.993625641">
<ele>149.382813</ele>
<time>2012-07-28T18:17:26Z</time>
<speed>2.680000</speed>
<extensions>
<speed>2.7</speed>
<temp>0.00</temp>
<bpm>0</bpm>
<rpm>0.00</rpm>
</extensions>
</trkpt>
<trkpt lat="63.933967590" lon="-21.993421555">
<ele>148.617188</ele>
<time>2012-07-28T18:17:31Z</time>
<speed>2.620000</speed>
<extensions>
<speed>2.6</speed>
<temp>0.00</temp>
<bpm>0</bpm>
<rpm>0.00</rpm>
</extensions>
</trkpt>
<trkpt lat="63.934062958" lon="-21.993211746">
<ele>149.273438</ele>
<time>2012-07-28T18:17:36Z</time>
<speed>2.920000</speed>
<extensions>
<speed>2.9</speed>
<temp>0.00</temp>
<bpm>0</bpm>
<rpm>0.00</rpm>
</extensions>
</trkpt>
<trkpt lat="63.934162140" lon="-21.993013382">
<ele>149.539063</ele>
<time>2012-07-28T18:17:41Z</time>
<speed>2.790000</speed>
<extensions>
<speed>2.8</speed>
<temp>0.00</temp>
<bpm>0</bpm>
<rpm>0.00</rpm>
</extensions>
</trkpt>
<trkpt lat="63.934253693" lon="-21.992855072">
<ele>149.433594</ele>
<time>2012-07-28T18:17:46Z</time>
<speed>2.550000</speed>
<extensions>
<speed>2.6</speed>
<temp>0.00</temp>
<bpm>0</bpm>
<rpm>0.00</rpm>
</extensions>
</trkpt>
<trkpt lat="63.934349060" lon="-21.992692947">
<ele>149.210938</ele>
<time>2012-07-28T18:17:51Z</time>
<speed>2.720000</speed>
<extensions>
<speed>2.7</speed>
<temp>0.00</temp>
<bpm>0</bpm>
<rpm>0.00</rpm>
</extensions>
</trkpt>
<trkpt lat="63.934459686" lon="-21.992536545">
<ele>148.722656</ele>
<time>2012-07-28T18:17:56Z</time>
<speed>2.860000</speed>
<extensions>
<speed>2.9</speed>
<temp>0.00</temp>
<bpm>0</bpm>
<rpm>0.00</rpm>
</extensions>
</trkpt>
<trkpt lat="63.934566498" lon="-21.992393494">
<ele>149.082031</ele>
<time>2012-07-28T18:18:01Z</time>
<speed>2.730000</speed>
<extensions>
<speed>2.7</speed>
<temp>0.00</temp>
<bpm>0</bpm>
<rpm>0.00</rpm>
</extensions>
</trkpt>
<trkpt lat="63.934665680" lon="-21.992242813">
<ele>149.429688</ele>
<time>2012-07-28T18:18:06Z</time>
<speed>2.320000</speed>
<extensions>
<speed>2.3</speed>
<temp>0.00</temp>
<bpm>0</bpm>
<rpm>0.00</rpm>
</extensions>
</trkpt>
<trkpt lat="63.934764862" lon="-21.992134094">
<ele>150.789063</ele>
<time>2012-07-28T18:18:11Z</time>
<speed>2.510000</speed>
<extensions>
<speed>2.5</speed>
<temp>0.00</temp>
<bpm>0</bpm>
<rpm>0.00</rpm>
</extensions>
</trkpt>
<trkpt lat="63.934860229" lon="-21.991991043">
<ele>151.097656</ele>
<time>2012-07-28T18:18:16Z</time>
<speed>2.090000</speed>
<extensions>
<speed>2.1</speed>
<temp>0.00</temp>
<bpm>0</bpm>
<rpm>0.00</rpm>
</extensions>
</trkpt>
<trkpt lat="63.934967041" lon="-21.991853714">
<ele>151.609375</ele>
<time>2012-07-28T18:18:21Z</time>
<speed>2.710000</speed>
<extensions>
<speed>2.7</speed>
<temp>0.00</temp>
<bpm>0</bpm>
<rpm>0.00</rpm>
</extensions>
</trkpt>
<trkpt lat="63.935066223" lon="-21.991727829">
<ele>152.664063</ele>
<time>2012-07-28T18:18:26Z</time>
<speed>2.630000</speed>
<extensions>
<speed>2.6</speed>
<temp>0.00</temp>
<bpm>0</bpm>
<rpm>0.00</rpm>
</extensions>
</trkpt>
<trkpt lat="63.935176849" lon="-21.991565704">
<ele>152.628906</ele>
<time>2012-07-28T18:18:31Z</time>
<speed>3.400000</speed>
<extensions>
<speed>3.4</speed>
<temp>0.00</temp>
<bpm>0</bpm>
<rpm>0.00</rpm>
</extensions>
</trkpt>
<trkpt lat="63.935291290" lon="-21.991384506">
<ele>151.726563</ele>
<time>2012-07-28T18:18:36Z</time>
<speed>3.210000</speed>
<extensions>
<speed>3.2</speed>
<temp>0.00</temp>
<bpm>0</bpm>
<rpm>0.00</rpm>
</extensions>
</trkpt>
<trkpt lat="63.935405731" lon="-21.991199493">
<ele>152.769531</ele>
<time>2012-07-28T18:18:41Z</time>
<speed>2.590000</speed>
<extensions>
<speed>2.6</speed>
<temp>0.00</temp>
<bpm>0</bpm>
<rpm>0.00</rpm>
</extensions>
</trkpt>
<trkpt lat="63.935482025" lon="-21.991073608">
<ele>149.824219</ele>
<time>2012-07-28T18:18:46Z</time>
<speed>2.090000</speed>
<extensions>
<speed>2.1</speed>
<temp>0.00</temp>
<bpm>0</bpm>
<rpm>0.00</rpm>
</extensions>
</trkpt>
<trkpt lat="63.935569763" lon="-21.990957260">
<ele>149.550781</ele>
<time>2012-07-28T18:18:51Z</time>
<speed>2.360000</speed>
<extensions>
<speed>2.4</speed>
<temp>0.00</temp>
<bpm>0</bpm>
<rpm>0.00</rpm>
</extensions>
</trkpt>
<trkpt lat="63.935672760" lon="-21.990825653">
<ele>151.335938</ele>
<time>2012-07-28T18:18:56Z</time>
<speed>3.260000</speed>
<extensions>
<speed>3.3</speed>
<temp>0.00</temp>
<bpm>0</bpm>
<rpm>0.00</rpm>
</extensions>
</trkpt>
<trkpt lat="63.935783386" lon="-21.990695953">
<ele>153.828125</ele>
<time>2012-07-28T18:19:01Z</time>
<speed>2.760000</speed>
<extensions>
<speed>2.8</speed>
<temp>0.00</temp>
<bpm>0</bpm>
<rpm>0.00</rpm>
</extensions>
</trkpt>
<trkpt lat="63.935894012" lon="-21.990589142">
<ele>153.960938</ele>
<time>2012-07-28T18:19:06Z</time>
<speed>2.710000</speed>
<extensions>
<speed>2.7</speed>
<temp>0.00</temp>
<bpm>0</bpm>
<rpm>0.00</rpm>
</extensions>
</trkpt>
<trkpt lat="63.935977936" lon="-21.990512848">
<ele>154.726563</ele>
<time>2012-07-28T18:19:11Z</time>
<speed>0.990000</speed>
<extensions>
<speed>1.0</speed>
<temp>0.00</temp>
<bpm>0</bpm>
<rpm>0.00</rpm>
</extensions>
</trkpt>
<trkpt lat="63.936035156" lon="-21.990465164">
<ele>155.238281</ele>
<time>2012-07-28T18:19:16Z</time>
<speed>1.840000</speed>
<extensions>
<speed>1.8</speed>
<temp>0.00</temp>
<bpm>0</bpm>
<rpm>0.00</rpm>
</extensions>
</trkpt>
<trkpt lat="63.936138153" lon="-21.990385056">
<ele>153.453125</ele>
<time>2012-07-28T18:19:21Z</time>
<speed>2.590000</speed>
<extensions>
<speed>2.6</speed>
<temp>0.00</temp>
<bpm>0</bpm>
<rpm>0.00</rpm>
</extensions>
</trkpt>
<trkpt lat="63.936252594" lon="-21.990285873">
<ele>152.316406</ele>
<time>2012-07-28T18:19:26Z</time>
<speed>2.770000</speed>
<extensions>
<speed>2.8</speed>
<temp>0.00</temp>
<bpm>0</bpm>
<rpm>0.00</rpm>
</extensions>
</trkpt>
<trkpt lat="63.936355591" lon="-21.990186691">
<ele>151.527344</ele>
<time>2012-07-28T18:19:31Z</time>
<speed>2.550000</speed>
<extensions>
<speed>2.6</speed>
<temp>0.00</temp>
<bpm>0</bpm>
<rpm>0.00</rpm>
</extensions>
</trkpt>
<trkpt lat="63.936462402" lon="-21.990112305">
<ele>151.300781</ele>
<time>2012-07-28T18:19:36Z</time>
<speed>2.340000</speed>
<extensions>
<speed>2.3</speed>
<temp>0.00</temp>
<bpm>0</bpm>
<rpm>0.00</rpm>
</extensions>
</trkpt>
<trkpt lat="63.936565399" lon="-21.990003586">
<ele>151.496094</ele>
<time>2012-07-28T18:19:41Z</time>
<speed>2.250000</speed>
<extensions>
<speed>2.3</speed>
<temp>0.00</temp>
<bpm>0</bpm>
<rpm>0.00</rpm>
</extensions>
</trkpt>
<trkpt lat="63.936653137" lon="-21.989894867">
<ele>151.062500</ele>
<time>2012-07-28T18:19:46Z</time>
<speed>2.360000</speed>
<extensions>
<speed>2.4</speed>
<temp>0.00</temp>
<bpm>0</bpm>
<rpm>0.00</rpm>
</extensions>
</trkpt>
<trkpt lat="63.936725616" lon="-21.989830017">
<ele>151.687500</ele>
<time>2012-07-28T18:19:51Z</time>
<speed>1.750000</speed>
<extensions>
<speed>1.8</speed>
<temp>0.00</temp>
<bpm>0</bpm>
<rpm>0.00</rpm>
</extensions>
</trkpt>
<trkpt lat="63.936801910" lon="-21.989753723">
<ele>153.871094</ele>
<time>2012-07-28T18:19:56Z</time>
<speed>1.700000</speed>
<extensions>
<speed>1.7</speed>
<temp>0.00</temp>
<bpm>0</bpm>
<rpm>0.00</rpm>
</extensions>
</trkpt>
<trkpt lat="63.936870575" lon="-21.989681244">
<ele>154.000000</ele>
<time>2012-07-28T18:20:01Z</time>
<speed>1.800000</speed>
<extensions>
<speed>1.8</speed>
<temp>0.00</temp>
<bpm>0</bpm>
<rpm>0.00</rpm>
</extensions>
</trkpt>
<trkpt lat="63.936935425" lon="-21.989622116">
<ele>156.351563</ele>
<time>2012-07-28T18:20:06Z</time>
<speed>1.660000</speed>
<extensions>
<speed>1.7</speed>
<temp>0.00</temp>
<bpm>0</bpm>
<rpm>0.00</rpm>
</extensions>
</trkpt>
<trkpt lat="63.937007904" lon="-21.989549637">
<ele>156.925781</ele>
<time>2012-07-28T18:20:11Z</time>
<speed>1.770000</speed>
<extensions>
<speed>1.8</speed>
<temp>0.00</temp>
<bpm>0</bpm>
<rpm>0.00</rpm>
</extensions>
</trkpt>
<trkpt lat="63.937076569" lon="-21.989469528">
<ele>157.593750</ele>
<time>2012-07-28T18:20:16Z</time>
<speed>1.490000</speed>
<extensions>
<speed>1.5</speed>
<temp>0.00</temp>
<bpm>0</bpm>
<rpm>0.00</rpm>
</extensions>
</trkpt>
<trkpt lat="63.937149048" lon="-21.989398956">
<ele>158.531250</ele>
<time>2012-07-28T18:20:21Z</time>
<speed>1.800000</speed>
<extensions>
<speed>1.8</speed>
<temp>0.00</temp>
<bpm>0</bpm>
<rpm>0.00</rpm>
</extensions>
</trkpt>
<trkpt lat="63.937225342" lon="-21.989337921">
<ele>159.097656</ele>
<time>2012-07-28T18:20:26Z</time>
<speed>1.930000</speed>
<extensions>
<speed>1.9</speed>
<temp>0.00</temp>
<bpm>0</bpm>
<rpm>0.00</rpm>
</extensions>
</trkpt>
<trkpt lat="63.937313080" lon="-21.989248276">
<ele>159.484375</ele>
<time>2012-07-28T18:20:31Z</time>
<speed>2.110000</speed>
<extensions>
<speed>2.1</speed>
<temp>0.00</temp>
<bpm>0</bpm>
<rpm>0.00</rpm>
</extensions>
</trkpt>
<trkpt lat="63.937404633" lon="-21.989154816">
<ele>159.914063</ele>
<time>2012-07-28T18:20:36Z</time>
<speed>2.120000</speed>
<extensions>
<speed>2.1</speed>
<temp>0.00</temp>
<bpm>0</bpm>
<rpm>0.00</rpm>
</extensions>
</trkpt>
<trkpt lat="63.937492371" lon="-21.989048004">
<ele>160.179688</ele>
<time>2012-07-28T18:20:41Z</time>
<speed>2.050000</speed>
<extensions>
<speed>2.1</speed>
<temp>0.00</temp>
<bpm>0</bpm>
<rpm>0.00</rpm>
</extensions>
</trkpt>
<trkpt lat="63.937568665" lon="-21.988943100">
<ele>161.058594</ele>
<time>2012-07-28T18:20:46Z</time>
<speed>2.330000</speed>
<extensions>
<speed>2.3</speed>
<temp>0.00</temp>
<bpm>0</bpm>
<rpm>0.00</rpm>
</extensions>
</trkpt>
<trkpt lat="63.937641144" lon="-21.988834381">
<ele>161.726563</ele>
<time>2012-07-28T18:20:51Z</time>
<speed>1.930000</speed>
<extensions>
<speed>1.9</speed>
<temp>0.00</temp>
<bpm>0</bpm>
<rpm>0.00</rpm>
</extensions>
</trkpt>
<trkpt lat="63.937709808" lon="-21.988750458">
<ele>162.894531</ele>
<time>2012-07-28T18:20:56Z</time>
<speed>0.350000</speed>
<extensions>
<speed>0.3</speed>
<temp>0.00</temp>
<bpm>0</bpm>
<rpm>0.00</rpm>
</extensions>
</trkpt>
<trkpt lat="63.937709808" lon="-21.988737106">
<ele>163.988281</ele>
<time>2012-07-28T18:21:01Z</time>
<speed>0.120000</speed>
<extensions>
<speed>0.1</speed>
<temp>0.00</temp>
<bpm>0</bpm>
<rpm>0.00</rpm>
</extensions>
</trkpt>
<trkpt lat="63.937717438" lon="-21.988735199">
<ele>164.132813</ele>
<time>2012-07-28T18:21:06Z</time>
<speed>0.080000</speed>
<extensions>
<speed>0.1</speed>
<temp>0.00</temp>
<bpm>0</bpm>
<rpm>0.00</rpm>
</extensions>
</trkpt>
<trkpt lat="63.937709808" lon="-21.988733292">
<ele>164.179688</ele>
<time>2012-07-28T18:21:11Z</time>
<speed>0.050000</speed>
<extensions>
<speed>0.1</speed>
<temp>0.00</temp>
<bpm>0</bpm>
<rpm>0.00</rpm>
</extensions>
</trkpt>
<trkpt lat="63.937728882" lon="-21.988723755">
<ele>164.226563</ele>
<time>2012-07-28T18:21:16Z</time>
<speed>0.890000</speed>
<extensions>
<speed>0.9</speed>
<temp>0.00</temp>
<bpm>0</bpm>
<rpm>0.00</rpm>
</extensions>
</trkpt>
<trkpt lat="63.937755585" lon="-21.988706589">
<ele>164.496094</ele>
<time>2012-07-28T18:21:21Z</time>
<speed>0.680000</speed>
<extensions>
<speed>0.7</speed>
<temp>0.00</temp>
<bpm>0</bpm>
<rpm>0.00</rpm>
</extensions>
</trkpt>
<trkpt lat="63.937793732" lon="-21.988664627">
<ele>164.632813</ele>
<time>2012-07-28T18:21:26Z</time>
<speed>0.870000</speed>
<extensions>
<speed>0.9</speed>
<temp>0.00</temp>
<bpm>0</bpm>
<rpm>0.00</rpm>
</extensions>
</trkpt>
<trkpt lat="63.937831879" lon="-21.988630295">
<ele>165.425781</ele>
<time>2012-07-28T18:21:31Z</time>
<speed>0.680000</speed>
<extensions>
<speed>0.7</speed>
<temp>0.00</temp>
<bpm>0</bpm>
<rpm>0.00</rpm>
</extensions>
</trkpt>
<trkpt lat="63.937858582" lon="-21.988590240">
<ele>165.781250</ele>
<time>2012-07-28T18:21:36Z</time>
<speed>0.350000</speed>
<extensions>
<speed>0.3</speed>
<temp>0.00</temp>
<bpm>0</bpm>
<rpm>0.00</rpm>
</extensions>
</trkpt>
<trkpt lat="63.937885284" lon="-21.988536835">
<ele>166.617188</ele>
<time>2012-07-28T18:21:41Z</time>
<speed>1.050000</speed>
<extensions>
<speed>1.0</speed>
<temp>0.00</temp>
<bpm>0</bpm>
<rpm>0.00</rpm>
</extensions>
</trkpt>
<trkpt lat="63.937919617" lon="-21.988466263">
<ele>168.328125</ele>
<time>2012-07-28T18:21:46Z</time>
<speed>0.910000</speed>
<extensions>
<speed>0.9</speed>
<temp>0.00</temp>
<bpm>0</bpm>
<rpm>0.00</rpm>
</extensions>
</trkpt>
<trkpt lat="63.937953949" lon="-21.988416672">
<ele>169.773438</ele>
<time>2012-07-28T18:21:51Z</time>
<speed>0.860000</speed>
<extensions>
<speed>0.9</speed>
<temp>0.00</temp>
<bpm>0</bpm>
<rpm>0.00</rpm>
</extensions>
</trkpt>
<trkpt lat="63.937988281" lon="-21.988361359">
<ele>170.703125</ele>
<time>2012-07-28T18:21:56Z</time>
<speed>0.820000</speed>
<extensions>
<speed>0.8</speed>
<temp>0.00</temp>
<bpm>0</bpm>
<rpm>0.00</rpm>
</extensions>
</trkpt>
<trkpt lat="63.938018799" lon="-21.988290787">
<ele>171.804688</ele>
<time>2012-07-28T18:22:01Z</time>
<speed>0.880000</speed>
<extensions>
<speed>0.9</speed>
<temp>0.00</temp>
<bpm>0</bpm>
<rpm>0.00</rpm>
</extensions>
</trkpt>
<trkpt lat="63.938060760" lon="-21.988210678">
<ele>172.468750</ele>
<time>2012-07-28T18:22:06Z</time>
<speed>1.080000</speed>
<extensions>
<speed>1.1</speed>
<temp>0.00</temp>
<bpm>0</bpm>
<rpm>0.00</rpm>
</extensions>
</trkpt>
<trkpt lat="63.938087463" lon="-21.988143921">
<ele>172.910156</ele>
<time>2012-07-28T18:22:11Z</time>
<speed>0.530000</speed>
<extensions>
<speed>0.5</speed>
<temp>0.00</temp>
<bpm>0</bpm>
<rpm>0.00</rpm>
</extensions>
</trkpt>
<trkpt lat="63.938117981" lon="-21.988105774">
<ele>173.257813</ele>
<time>2012-07-28T18:22:16Z</time>
<speed>0.710000</speed>
<extensions>
<speed>0.7</speed>
<temp>0.00</temp>
<bpm>0</bpm>
<rpm>0.00</rpm>
</extensions>
</trkpt>
<trkpt lat="63.938156128" lon="-21.988031387">
<ele>173.855469</ele>
<time>2012-07-28T18:22:21Z</time>
<speed>1.140000</speed>
<extensions>
<speed>1.1</speed>
<temp>0.00</temp>
<bpm>0</bpm>
<rpm>0.00</rpm>
</extensions>
</trkpt>
<trkpt lat="63.938198090" lon="-21.987966537">
<ele>174.347656</ele>
<time>2012-07-28T18:22:26Z</time>
<speed>0.740000</speed>
<extensions>
<speed>0.7</speed>
<temp>0.00</temp>
<bpm>0</bpm>
<rpm>0.00</rpm>
</extensions>
</trkpt>
<trkpt lat="63.938236237" lon="-21.987884521">
<ele>175.027344</ele>
<time>2012-07-28T18:22:31Z</time>
<speed>0.880000</speed>
<extensions>
<speed>0.9</speed>
<temp>0.00</temp>
<bpm>0</bpm>
<rpm>0.00</rpm>
</extensions>
</trkpt>
<trkpt lat="63.938262939" lon="-21.987815857">
<ele>175.703125</ele>
<time>2012-07-28T18:22:36Z</time>
<speed>1.200000</speed>
<extensions>
<speed>1.2</speed>
<temp>0.00</temp>
<bpm>0</bpm>
<rpm>0.00</rpm>
</extensions>
</trkpt>
<trkpt lat="63.938297272" lon="-21.987756729">
<ele>176.488281</ele>
<time>2012-07-28T18:22:41Z</time>
<speed>0.910000</speed>
<extensions>
<speed>0.9</speed>
<temp>0.00</temp>
<bpm>0</bpm>
<rpm>0.00</rpm>
</extensions>
</trkpt>
<trkpt lat="63.938335419" lon="-21.987667084">
<ele>177.421875</ele>
<time>2012-07-28T18:22:46Z</time>
<speed>1.060000</speed>
<extensions>
<speed>1.1</speed>
<temp>0.00</temp>
<bpm>0</bpm>
<rpm>0.00</rpm>
</extensions>
</trkpt>
<trkpt lat="63.938350677" lon="-21.987571716">
<ele>178.160156</ele>
<time>2012-07-28T18:22:51Z</time>
<speed>1.060000</speed>
<extensions>
<speed>1.1</speed>
<temp>0.00</temp>
<bpm>0</bpm>
<rpm>0.00</rpm>
</extensions>
</trkpt>
<trkpt lat="63.938388824" lon="-21.987491608">
<ele>178.363281</ele>
<time>2012-07-28T18:22:56Z</time>
<speed>1.060000</speed>
<extensions>
<speed>1.1</speed>
<temp>0.00</temp>
<bpm>0</bpm>
<rpm>0.00</rpm>
</extensions>
</trkpt>
<trkpt lat="63.938407898" lon="-21.987380981">
<ele>179.019531</ele>
<time>2012-07-28T18:23:01Z</time>
<speed>1.110000</speed>
<extensions>
<speed>1.1</speed>
<temp>0.00</temp>
<bpm>0</bpm>
<rpm>0.00</rpm>
</extensions>
</trkpt>
<trkpt lat="63.938426971" lon="-21.987283707">
<ele>179.542969</ele>
<time>2012-07-28T18:23:06Z</time>
<speed>0.970000</speed>
<extensions>
<speed>1.0</speed>
<temp>0.00</temp>
<bpm>0</bpm>
<rpm>0.00</rpm>
</extensions>
</trkpt>
<trkpt lat="63.938442230" lon="-21.987194061">
<ele>180.175781</ele>
<time>2012-07-28T18:23:11Z</time>
<speed>1.070000</speed>
<extensions>
<speed>1.1</speed>
<temp>0.00</temp>
<bpm>0</bpm>
<rpm>0.00</rpm>
</extensions>
</trkpt>
<trkpt lat="63.938457489" lon="-21.987091064">
<ele>180.648438</ele>
<time>2012-07-28T18:23:16Z</time>
<speed>0.950000</speed>
<extensions>
<speed>1.0</speed>
<temp>0.00</temp>
<bpm>0</bpm>
<rpm>0.00</rpm>
</extensions>
</trkpt>
<trkpt lat="63.938480377" lon="-21.987010956">
<ele>180.492188</ele>
<time>2012-07-28T18:23:21Z</time>
<speed>0.920000</speed>
<extensions>
<speed>0.9</speed>
<temp>0.00</temp>
<bpm>0</bpm>
<rpm>0.00</rpm>
</extensions>
</trkpt>
<trkpt lat="63.938495636" lon="-21.986921310">
<ele>181.832031</ele>
<time>2012-07-28T18:23:26Z</time>
<speed>0.950000</speed>
<extensions>
<speed>1.0</speed>
<temp>0.00</temp>
<bpm>0</bpm>
<rpm>0.00</rpm>
</extensions>
</trkpt>
<trkpt lat="63.938491821" lon="-21.986801147">
<ele>181.867188</ele>
<time>2012-07-28T18:23:31Z</time>
<speed>1.090000</speed>
<extensions>
<speed>1.1</speed>
<temp>0.00</temp>
<bpm>0</bpm>
<rpm>0.00</rpm>
</extensions>
</trkpt>
<trkpt lat="63.938491821" lon="-21.986705780">
<ele>181.175781</ele>
<time>2012-07-28T18:23:36Z</time>
<speed>0.300000</speed>
<extensions>
<speed>0.3</speed>
<temp>0.00</temp>
<bpm>0</bpm>
<rpm>0.00</rpm>
</extensions>
</trkpt>
<trkpt lat="63.938499451" lon="-21.986686707">
<ele>179.781250</ele>
<time>2012-07-28T18:23:41Z</time>
<extensions>
<speed>0.0</speed>
<temp>0.00</temp>
<bpm>0</bpm>
<rpm>0.00</rpm>
</extensions>
</trkpt>
<trkpt lat="63.938499451" lon="-21.986688614">
<ele>180.023438</ele>
<time>2012-07-28T18:23:46Z</time>
<extensions>
<speed>0.0</speed>
<temp>0.00</temp>
<bpm>0</bpm>
<rpm>0.00</rpm>
</extensions>
</trkpt>
<trkpt lat="63.938499451" lon="-21.986692429">
<ele>179.761719</ele>
<time>2012-07-28T18:23:51Z</time>
<speed>0.010000</speed>
<extensions>
<speed>0.0</speed>
<temp>0.00</temp>
<bpm>0</bpm>
<rpm>0.00</rpm>
</extensions>
</trkpt>
<trkpt lat="63.938499451" lon="-21.986692429">
<ele>179.792969</ele>
<time>2012-07-28T18:23:56Z</time>
<speed>0.020000</speed>
<extensions>
<speed>0.0</speed>
<temp>0.00</temp>
<bpm>0</bpm>
<rpm>0.00</rpm>
</extensions>
</trkpt>
<trkpt lat="63.938499451" lon="-21.986692429">
<ele>179.796875</ele>
<time>2012-07-28T18:24:01Z</time>
<extensions>
<speed>0.0</speed>
<temp>0.00</temp>
<bpm>0</bpm>
<rpm>0.00</rpm>
</extensions>
</trkpt>
<trkpt lat="63.938503265" lon="-21.986675262">
<ele>179.863281</ele>
<time>2012-07-28T18:24:06Z</time>
<speed>0.600000</speed>
<extensions>
<speed>0.6</speed>
<temp>0.00</temp>
<bpm>0</bpm>
<rpm>0.00</rpm>
</extensions>
</trkpt>
<trkpt lat="63.938510895" lon="-21.986566544">
<ele>179.730469</ele>
<time>2012-07-28T18:24:11Z</time>
<speed>1.060000</speed>
<extensions>
<speed>1.1</speed>
<temp>0.00</temp>
<bpm>0</bpm>
<rpm>0.00</rpm>
</extensions>
</trkpt>
<trkpt lat="63.938514709" lon="-21.986444473">
<ele>179.582031</ele>
<time>2012-07-28T18:24:16Z</time>
<speed>1.110000</speed>
<extensions>
<speed>1.1</speed>
<temp>0.00</temp>
<bpm>0</bpm>
<rpm>0.00</rpm>
</extensions>
</trkpt>
<trkpt lat="63.938529968" lon="-21.986328125">
<ele>179.191406</ele>
<time>2012-07-28T18:24:21Z</time>
<speed>1.110000</speed>
<extensions>
<speed>1.1</speed>
<temp>0.00</temp>
<bpm>0</bpm>
<rpm>0.00</rpm>
</extensions>
</trkpt>
<trkpt lat="63.938541412" lon="-21.986221313">
<ele>179.687500</ele>
<time>2012-07-28T18:24:26Z</time>
<speed>1.040000</speed>
<extensions>
<speed>1.0</speed>
<temp>0.00</temp>
<bpm>0</bpm>
<rpm>0.00</rpm>
</extensions>
</trkpt>
<trkpt lat="63.938552856" lon="-21.986148834">
<ele>179.589844</ele>
<time>2012-07-28T18:24:31Z</time>
<speed>0.540000</speed>
<extensions>
<speed>0.5</speed>
<temp>0.00</temp>
<bpm>0</bpm>
<rpm>0.00</rpm>
</extensions>
</trkpt>
<trkpt lat="63.938564301" lon="-21.986148834">
<ele>179.785156</ele>
<time>2012-07-28T18:24:36Z</time>
<speed>0.170000</speed>
<extensions>
<speed>0.2</speed>
<temp>0.00</temp>
<bpm>0</bpm>
<rpm>0.00</rpm>
</extensions>
</trkpt>
<trkpt lat="63.938571930" lon="-21.986156464">
<ele>179.792969</ele>
<time>2012-07-28T18:24:41Z</time>
<speed>0.050000</speed>
<extensions>
<speed>0.1</speed>
<temp>0.00</temp>
<bpm>0</bpm>
<rpm>0.00</rpm>
</extensions>
</trkpt>
<trkpt lat="63.938575745" lon="-21.986158371">
<ele>179.902344</ele>
<time>2012-07-28T18:24:46Z</time>
<speed>0.070000</speed>
<extensions>
<speed>0.1</speed>
<temp>0.00</temp>
<bpm>0</bpm>
<rpm>0.00</rpm>
</extensions>
</trkpt>
<trkpt lat="63.938579559" lon="-21.986158371">
<ele>180.019531</ele>
<time>2012-07-28T18:24:51Z</time>
<speed>0.040000</speed>
<extensions>
<speed>0.0</speed>
<temp>0.00</temp>
<bpm>0</bpm>
<rpm>0.00</rpm>
</extensions>
</trkpt>
<trkpt lat="63.938583374" lon="-21.986164093">
<ele>180.109375</ele>
<time>2012-07-28T18:24:56Z</time>
<speed>0.190000</speed>
<extensions>
<speed>0.2</speed>
<temp>0.00</temp>
<bpm>0</bpm>
<rpm>0.00</rpm>
</extensions>
</trkpt>
<trkpt lat="63.938591003" lon="-21.986169815">
<ele>180.132813</ele>
<time>2012-07-28T18:25:01Z</time>
<speed>0.160000</speed>
<extensions>
<speed>0.2</speed>
<temp>0.00</temp>
<bpm>0</bpm>
<rpm>0.00</rpm>
</extensions>
</trkpt>
<trkpt lat="63.938598633" lon="-21.986173630">
<ele>180.152344</ele>
<time>2012-07-28T18:25:06Z</time>
<speed>0.150000</speed>
<extensions>
<speed>0.2</speed>
<temp>0.00</temp>
<bpm>0</bpm>
<rpm>0.00</rpm>
</extensions>
</trkpt>
<trkpt lat="63.938606262" lon="-21.986177444">
<ele>180.140625</ele>
<time>2012-07-28T18:25:11Z</time>
<speed>0.140000</speed>
<extensions>
<speed>0.1</speed>
<temp>0.00</temp>
<bpm>0</bpm>
<rpm>0.00</rpm>
</extensions>
</trkpt>
<trkpt lat="63.938591003" lon="-21.986148834">
<ele>179.906250</ele>
<time>2012-07-28T18:25:16Z</time>
<speed>0.670000</speed>
<extensions>
<speed>0.7</speed>
<temp>0.00</temp>
<bpm>0</bpm>
<rpm>0.00</rpm>
</extensions>
</trkpt>
<trkpt lat="63.938617706" lon="-21.986011505">
<ele>179.972656</ele>
<time>2012-07-28T18:25:21Z</time>
<speed>2.280000</speed>
<extensions>
<speed>2.3</speed>
<temp>0.00</temp>
<bpm>0</bpm>
<rpm>0.00</rpm>
</extensions>
</trkpt>
<trkpt lat="63.938678741" lon="-21.985704422">
<ele>178.226563</ele>
<time>2012-07-28T18:25:26Z</time>
<speed>3.570000</speed>
<extensions>
<speed>3.6</speed>
<temp>0.00</temp>
<bpm>0</bpm>
<rpm>0.00</rpm>
</extensions>
</trkpt>
<trkpt lat="63.938812256" lon="-21.985435486">
<ele>175.335938</ele>
<time>2012-07-28T18:25:31Z</time>
<speed>4.490000</speed>
<extensions>
<speed>4.5</speed>
<temp>0.00</temp>
<bpm>0</bpm>
<rpm>0.00</rpm>
</extensions>
</trkpt>
<trkpt lat="63.939022064" lon="-21.985221863">
<ele>172.335938</ele>
<time>2012-07-28T18:25:36Z</time>
<speed>5.760000</speed>
<extensions>
<speed>5.8</speed>
<temp>0.00</temp>
<bpm>0</bpm>
<rpm>0.00</rpm>
</extensions>
</trkpt>
<trkpt lat="63.939292908" lon="-21.985015869">
<ele>168.050781</ele>
<time>2012-07-28T18:25:41Z</time>
<speed>6.940000</speed>
<extensions>
<speed>6.9</speed>
<temp>0.00</temp>
<bpm>0</bpm>
<rpm>0.00</rpm>
</extensions>
</trkpt>
<trkpt lat="63.939590454" lon="-21.984790802">
<ele>163.214844</ele>
<time>2012-07-28T18:25:46Z</time>
<speed>6.680000</speed>
<extensions>
<speed>6.7</speed>
<temp>0.00</temp>
<bpm>0</bpm>
<rpm>0.00</rpm>
</extensions>
</trkpt>
<trkpt lat="63.939849854" lon="-21.984540939">
<ele>159.488281</ele>
<time>2012-07-28T18:25:51Z</time>
<speed>6.590000</speed>
<extensions>
<speed>6.6</speed>
<temp>0.00</temp>
<bpm>0</bpm>
<rpm>0.00</rpm>
</extensions>
</trkpt>
<trkpt lat="63.940174103" lon="-21.984144211">
<ele>155.148438</ele>
<time>2012-07-28T18:25:56Z</time>
<speed>9.170000</speed>
<extensions>
<speed>9.2</speed>
<temp>0.00</temp>
<bpm>0</bpm>
<rpm>0.00</rpm>
</extensions>
</trkpt>
<trkpt lat="63.940551758" lon="-21.983652115">
<ele>152.511719</ele>
<time>2012-07-28T18:26:01Z</time>
<speed>9.690000</speed>
<extensions>
<speed>9.7</speed>
<temp>0.00</temp>
<bpm>0</bpm>
<rpm>0.00</rpm>
</extensions>
</trkpt>
<trkpt lat="63.940940857" lon="-21.983144760">
<ele>149.750000</ele>
<time>2012-07-28T18:26:06Z</time>
<speed>10.150000</speed>
<extensions>
<speed>10.2</speed>
<temp>0.00</temp>
<bpm>0</bpm>
<rpm>0.00</rpm>
</extensions>
</trkpt>
<trkpt lat="63.941352844" lon="-21.982608795">
<ele>147.367188</ele>
<time>2012-07-28T18:26:11Z</time>
<speed>9.910000</speed>
<extensions>
<speed>9.9</speed>
<temp>0.00</temp>
<bpm>0</bpm>
<rpm>0.00</rpm>
</extensions>
</trkpt>
<trkpt lat="63.941703796" lon="-21.982015610">
<ele>146.910156</ele>
<time>2012-07-28T18:26:16Z</time>
<speed>8.530000</speed>
<extensions>
<speed>8.5</speed>
<temp>0.00</temp>
<bpm>0</bpm>
<rpm>0.00</rpm>
</extensions>
</trkpt>
<trkpt lat="63.941925049" lon="-21.981443405">
<ele>147.472656</ele>
<time>2012-07-28T18:26:21Z</time>
<speed>6.170000</speed>
<extensions>
<speed>6.2</speed>
<temp>0.00</temp>
<bpm>0</bpm>
<rpm>0.00</rpm>
</extensions>
</trkpt>
<trkpt lat="63.942073822" lon="-21.980955124">
<ele>147.273438</ele>
<time>2012-07-28T18:26:26Z</time>
<speed>5.310000</speed>
<extensions>
<speed>5.3</speed>
<temp>0.00</temp>
<bpm>0</bpm>
<rpm>0.00</rpm>
</extensions>
</trkpt>
<trkpt lat="63.942195892" lon="-21.980617523">
<ele>145.675781</ele>
<time>2012-07-28T18:26:31Z</time>
<speed>3.490000</speed>
<extensions>
<speed>3.5</speed>
<temp>0.00</temp>
<bpm>0</bpm>
<rpm>0.00</rpm>
</extensions>
</trkpt>
<trkpt lat="63.942337036" lon="-21.980413437">
<ele>147.167969</ele>
<time>2012-07-28T18:26:36Z</time>
<speed>4.060000</speed>
<extensions>
<speed>4.1</speed>
<temp>0.00</temp>
<bpm>0</bpm>
<rpm>0.00</rpm>
</extensions>
</trkpt>
<trkpt lat="63.942512512" lon="-21.980255127">
<ele>146.789063</ele>
<time>2012-07-28T18:26:41Z</time>
<speed>4.270000</speed>
<extensions>
<speed>4.3</speed>
<temp>0.00</temp>
<bpm>0</bpm>
<rpm>0.00</rpm>
</extensions>
</trkpt>
<trkpt lat="63.942695618" lon="-21.980089188">
<ele>146.496094</ele>
<time>2012-07-28T18:26:46Z</time>
<speed>4.570000</speed>
<extensions>
<speed>4.6</speed>
<temp>0.00</temp>
<bpm>0</bpm>
<rpm>0.00</rpm>
</extensions>
</trkpt>
<trkpt lat="63.942859650" lon="-21.979913712">
<ele>145.332031</ele>
<time>2012-07-28T18:26:51Z</time>
<speed>3.480000</speed>
<extensions>
<speed>3.5</speed>
<temp>0.00</temp>
<bpm>0</bpm>
<rpm>0.00</rpm>
</extensions>
</trkpt>
<trkpt lat="63.942993164" lon="-21.979747772">
<ele>146.101563</ele>
<time>2012-07-28T18:26:56Z</time>
<speed>4.050000</speed>
<extensions>
<speed>4.0</speed>
<temp>0.00</temp>
<bpm>0</bpm>
<rpm>0.00</rpm>
</extensions>
</trkpt>
<trkpt lat="63.943119049" lon="-21.979526520">
<ele>146.164063</ele>
<time>2012-07-28T18:27:01Z</time>
<speed>3.080000</speed>
<extensions>
<speed>3.1</speed>
<temp>0.00</temp>
<bpm>0</bpm>
<rpm>0.00</rpm>
</extensions>
</trkpt>
<trkpt lat="63.943233490" lon="-21.979280472">
<ele>146.453125</ele>
<time>2012-07-28T18:27:06Z</time>
<speed>3.120000</speed>
<extensions>
<speed>3.1</speed>
<temp>0.00</temp>
<bpm>0</bpm>
<rpm>0.00</rpm>
</extensions>
</trkpt>
<trkpt lat="63.943347931" lon="-21.979026794">
<ele>146.621094</ele>
<time>2012-07-28T18:27:11Z</time>
<speed>3.820000</speed>
<extensions>
<speed>3.8</speed>
<temp>0.00</temp>
<bpm>0</bpm>
<rpm>0.00</rpm>
</extensions>
</trkpt>
<trkpt lat="63.943485260" lon="-21.978746414">
<ele>146.789063</ele>
<time>2012-07-28T18:27:16Z</time>
<speed>4.240000</speed>
<extensions>
<speed>4.2</speed>
<temp>0.00</temp>
<bpm>0</bpm>
<rpm>0.00</rpm>
</extensions>
</trkpt>
<trkpt lat="63.943626404" lon="-21.978427887">
<ele>146.675781</ele>
<time>2012-07-28T18:27:21Z</time>
<speed>4.390000</speed>
<extensions>
<speed>4.4</speed>
<temp>0.00</temp>
<bpm>0</bpm>
<rpm>0.00</rpm>
</extensions>
</trkpt>
<trkpt lat="63.943775177" lon="-21.978069305">
<ele>146.386719</ele>
<time>2012-07-28T18:27:26Z</time>
<speed>4.140000</speed>
<extensions>
<speed>4.1</speed>
<temp>0.00</temp>
<bpm>0</bpm>
<rpm>0.00</rpm>
</extensions>
</trkpt>
<trkpt lat="63.943885803" lon="-21.977745056">
<ele>145.464844</ele>
<time>2012-07-28T18:27:31Z</time>
<speed>3.950000</speed>
<extensions>
<speed>4.0</speed>
<temp>0.00</temp>
<bpm>0</bpm>
<rpm>0.00</rpm>
</extensions>
</trkpt>
<trkpt lat="63.943981171" lon="-21.977413177">
<ele>145.179688</ele>
<time>2012-07-28T18:27:36Z</time>
<speed>4.220000</speed>
<extensions>
<speed>4.2</speed>
<temp>0.00</temp>
<bpm>0</bpm>
<rpm>0.00</rpm>
</extensions>
</trkpt>
<trkpt lat="63.944087982" lon="-21.977037430">
<ele>144.480469</ele>
<time>2012-07-28T18:27:41Z</time>
<speed>4.080000</speed>
<extensions>
<speed>4.1</speed>
<temp>0.00</temp>
<bpm>0</bpm>
<rpm>0.00</rpm>
</extensions>
</trkpt>
<trkpt lat="63.944187164" lon="-21.976675034">
<ele>143.710938</ele>
<time>2012-07-28T18:27:46Z</time>
<speed>3.910000</speed>
<extensions>
<speed>3.9</speed>
<temp>0.00</temp>
<bpm>0</bpm>
<rpm>0.00</rpm>
</extensions>
</trkpt>
<trkpt lat="63.944282532" lon="-21.976329803">
<ele>145.722656</ele>
<time>2012-07-28T18:27:51Z</time>
<speed>3.730000</speed>
<extensions>
<speed>3.7</speed>
<temp>0.00</temp>
<bpm>0</bpm>
<rpm>0.00</rpm>
</extensions>
</trkpt>
<trkpt lat="63.944400787" lon="-21.976051331">
<ele>148.886719</ele>
<time>2012-07-28T18:27:56Z</time>
<speed>3.460000</speed>
<extensions>
<speed>3.5</speed>
<temp>0.00</temp>
<bpm>0</bpm>
<rpm>0.00</rpm>
</extensions>
</trkpt>
<trkpt lat="63.944515228" lon="-21.975791931">
<ele>148.554688</ele>
<time>2012-07-28T18:28:01Z</time>
<speed>3.690000</speed>
<extensions>
<speed>3.7</speed>
<temp>0.00</temp>
<bpm>0</bpm>
<rpm>0.00</rpm>
</extensions>
</trkpt>
<trkpt lat="63.944622040" lon="-21.975536346">
<ele>149.480469</ele>
<time>2012-07-28T18:28:06Z</time>
<speed>3.980000</speed>
<extensions>
<speed>4.0</speed>
<temp>0.00</temp>
<bpm>0</bpm>
<rpm>0.00</rpm>
</extensions>
</trkpt>
<trkpt lat="63.944747925" lon="-21.975181580">
<ele>150.734375</ele>
<time>2012-07-28T18:28:11Z</time>
<speed>4.470000</speed>
<extensions>
<speed>4.5</speed>
<temp>0.00</temp>
<bpm>0</bpm>
<rpm>0.00</rpm>
</extensions>
</trkpt>
<trkpt lat="63.944873810" lon="-21.974830627">
<ele>150.359375</ele>
<time>2012-07-28T18:28:16Z</time>
<speed>4.100000</speed>
<extensions>
<speed>4.1</speed>
<temp>0.00</temp>
<bpm>0</bpm>
<rpm>0.00</rpm>
</extensions>
</trkpt>
<trkpt lat="63.944984436" lon="-21.974538803">
<ele>147.062500</ele>
<time>2012-07-28T18:28:21Z</time>
<speed>3.570000</speed>
<extensions>
<speed>3.6</speed>
<temp>0.00</temp>
<bpm>0</bpm>
<rpm>0.00</rpm>
</extensions>
</trkpt>
<trkpt lat="63.945083618" lon="-21.974233627">
<ele>146.285156</ele>
<time>2012-07-28T18:28:26Z</time>
<speed>3.790000</speed>
<extensions>
<speed>3.8</speed>
<temp>0.00</temp>
<bpm>0</bpm>
<rpm>0.00</rpm>
</extensions>
</trkpt>
<trkpt lat="63.945205688" lon="-21.973924637">
<ele>145.578125</ele>
<time>2012-07-28T18:28:31Z</time>
<speed>4.040000</speed>
<extensions>
<speed>4.0</speed>
<temp>0.00</temp>
<bpm>0</bpm>
<rpm>0.00</rpm>
</extensions>
</trkpt>
<trkpt lat="63.945339203" lon="-21.973659515">
<ele>146.261719</ele>
<time>2012-07-28T18:28:36Z</time>
<speed>3.620000</speed>
<extensions>
<speed>3.6</speed>
<temp>0.00</temp>
<bpm>0</bpm>
<rpm>0.00</rpm>
</extensions>
</trkpt>
<trkpt lat="63.945461273" lon="-21.973377228">
<ele>146.277344</ele>
<time>2012-07-28T18:28:41Z</time>
<speed>3.850000</speed>
<extensions>
<speed>3.8</speed>
<temp>0.00</temp>
<bpm>0</bpm>
<rpm>0.00</rpm>
</extensions>
</trkpt>
<trkpt lat="63.945598602" lon="-21.973091125">
<ele>145.679688</ele>
<time>2012-07-28T18:28:46Z</time>
<speed>4.680000</speed>
<extensions>
<speed>4.7</speed>
<temp>0.00</temp>
<bpm>0</bpm>
<rpm>0.00</rpm>
</extensions>
</trkpt>
<trkpt lat="63.945705414" lon="-21.972824097">
<ele>145.914063</ele>
<time>2012-07-28T18:28:51Z</time>
<speed>3.480000</speed>
<extensions>
<speed>3.5</speed>
<temp>0.00</temp>
<bpm>0</bpm>
<rpm>0.00</rpm>
</extensions>
</trkpt>
<trkpt lat="63.945804596" lon="-21.972522736">
<ele>145.230469</ele>
<time>2012-07-28T18:28:56Z</time>
<speed>3.980000</speed>
<extensions>
<speed>4.0</speed>
<temp>0.00</temp>
<bpm>0</bpm>
<rpm>0.00</rpm>
</extensions>
</trkpt>
<trkpt lat="63.945896149" lon="-21.972175598">
<ele>146.371094</ele>
<time>2012-07-28T18:29:01Z</time>
<speed>3.900000</speed>
<extensions>
<speed>3.9</speed>
<temp>0.00</temp>
<bpm>0</bpm>
<rpm>0.00</rpm>
</extensions>
</trkpt>
<trkpt lat="63.945968628" lon="-21.971803665">
<ele>146.371094</ele>
<time>2012-07-28T18:29:06Z</time>
<speed>4.060000</speed>
<extensions>
<speed>4.1</speed>
<temp>0.00</temp>
<bpm>0</bpm>
<rpm>0.00</rpm>
</extensions>
</trkpt>
<trkpt lat="63.946044922" lon="-21.971418381">
<ele>146.316406</ele>
<time>2012-07-28T18:29:11Z</time>
<speed>3.920000</speed>
<extensions>
<speed>3.9</speed>
<temp>0.00</temp>
<bpm>0</bpm>
<rpm>0.00</rpm>
</extensions>
</trkpt>
<trkpt lat="63.946109772" lon="-21.970998764">
<ele>144.406250</ele>
<time>2012-07-28T18:29:16Z</time>
<speed>4.440000</speed>
<extensions>
<speed>4.4</speed>
<temp>0.00</temp>
<bpm>0</bpm>
<rpm>0.00</rpm>
</extensions>
</trkpt>
<trkpt lat="63.946151733" lon="-21.970561981">
<ele>146.093750</ele>
<time>2012-07-28T18:29:21Z</time>
<speed>4.150000</speed>
<extensions>
<speed>4.1</speed>
<temp>0.00</temp>
<bpm>0</bpm>
<rpm>0.00</rpm>
</extensions>
</trkpt>
<trkpt lat="63.946193695" lon="-21.970172882">
<ele>145.093750</ele>
<time>2012-07-28T18:29:26Z</time>
<speed>4.160000</speed>
<extensions>
<speed>4.2</speed>
<temp>0.00</temp>
<bpm>0</bpm>
<rpm>0.00</rpm>
</extensions>
</trkpt>
<trkpt lat="63.946224213" lon="-21.969812393">
<ele>144.046875</ele>
<time>2012-07-28T18:29:31Z</time>
<speed>3.500000</speed>
<extensions>
<speed>3.5</speed>
<temp>0.00</temp>
<bpm>0</bpm>
<rpm>0.00</rpm>
</extensions>
</trkpt>
<trkpt lat="63.946266174" lon="-21.969429016">
<ele>142.523438</ele>
<time>2012-07-28T18:29:36Z</time>
<speed>4.140000</speed>
<extensions>
<speed>4.1</speed>
<temp>0.00</temp>
<bpm>0</bpm>
<rpm>0.00</rpm>
</extensions>
</trkpt>
<trkpt lat="63.946296692" lon="-21.969026566">
<ele>142.917969</ele>
<time>2012-07-28T18:29:41Z</time>
<speed>4.280000</speed>
<extensions>
<speed>4.3</speed>
<temp>0.00</temp>
<bpm>0</bpm>
<rpm>0.00</rpm>
</extensions>
</trkpt>
<trkpt lat="63.946338654" lon="-21.968591690">
<ele>143.191406</ele>
<time>2012-07-28T18:29:46Z</time>
<speed>4.330000</speed>
<extensions>
<speed>4.3</speed>
<temp>0.00</temp>
<bpm>0</bpm>
<rpm>0.00</rpm>
</extensions>
</trkpt>
<trkpt lat="63.946392059" lon="-21.968143463">
<ele>144.683594</ele>
<time>2012-07-28T18:29:51Z</time>
<speed>4.330000</speed>
<extensions>
<speed>4.3</speed>
<temp>0.00</temp>
<bpm>0</bpm>
<rpm>0.00</rpm>
</extensions>
</trkpt>
<trkpt lat="63.946437836" lon="-21.967700958">
<ele>142.410156</ele>
<time>2012-07-28T18:29:56Z</time>
<speed>4.540000</speed>
<extensions>
<speed>4.5</speed>
<temp>0.00</temp>
<bpm>0</bpm>
<rpm>0.00</rpm>
</extensions>
</trkpt>
<trkpt lat="63.946475983" lon="-21.967288971">
<ele>143.789063</ele>
<time>2012-07-28T18:30:01Z</time>
<speed>4.220000</speed>
<extensions>
<speed>4.2</speed>
<temp>0.00</temp>
<bpm>0</bpm>
<rpm>0.00</rpm>
</extensions>
</trkpt>
<trkpt lat="63.946514130" lon="-21.966882706">
<ele>144.027344</ele>
<time>2012-07-28T18:30:06Z</time>
<speed>3.970000</speed>
<extensions>
<speed>4.0</speed>
<temp>0.00</temp>
<bpm>0</bpm>
<rpm>0.00</rpm>
</extensions>
</trkpt>
<trkpt lat="63.946556091" lon="-21.966474533">
<ele>143.484375</ele>
<time>2012-07-28T18:30:11Z</time>
<speed>3.940000</speed>
<extensions>
<speed>3.9</speed>
<temp>0.00</temp>
<bpm>0</bpm>
<rpm>0.00</rpm>
</extensions>
</trkpt>
<trkpt lat="63.946590424" lon="-21.966094971">
<ele>142.281250</ele>
<time>2012-07-28T18:30:16Z</time>
<speed>4.230000</speed>
<extensions>
<speed>4.2</speed>
<temp>0.00</temp>
<bpm>0</bpm>
<rpm>0.00</rpm>
</extensions>
</trkpt>
<trkpt lat="63.946628571" lon="-21.965681076">
<ele>141.960938</ele>
<time>2012-07-28T18:30:21Z</time>
<speed>4.210000</speed>
<extensions>
<speed>4.2</speed>
<temp>0.00</temp>
<bpm>0</bpm>
<rpm>0.00</rpm>
</extensions>
</trkpt>
<trkpt lat="63.946662903" lon="-21.965244293">
<ele>141.820313</ele>
<time>2012-07-28T18:30:26Z</time>
<speed>4.500000</speed>
<extensions>
<speed>4.5</speed>
<temp>0.00</temp>
<bpm>0</bpm>
<rpm>0.00</rpm>
</extensions>
</trkpt>
<trkpt lat="63.946708679" lon="-21.964807510">
<ele>140.613281</ele>
<time>2012-07-28T18:30:31Z</time>
<speed>4.730000</speed>
<extensions>
<speed>4.7</speed>
<temp>0.00</temp>
<bpm>0</bpm>
<rpm>0.00</rpm>
</extensions>
</trkpt>
<trkpt lat="63.946746826" lon="-21.964340210">
<ele>140.328125</ele>
<time>2012-07-28T18:30:36Z</time>
<speed>4.410000</speed>
<extensions>
<speed>4.4</speed>
<temp>0.00</temp>
<bpm>0</bpm>
<rpm>0.00</rpm>
</extensions>
</trkpt>
<trkpt lat="63.946807861" lon="-21.963912964">
<ele>141.058594</ele>
<time>2012-07-28T18:30:41Z</time>
<speed>4.730000</speed>
<extensions>
<speed>4.7</speed>
<temp>0.00</temp>
<bpm>0</bpm>
<rpm>0.00</rpm>
</extensions>
</trkpt>
<trkpt lat="63.946922302" lon="-21.963447571">
<ele>140.226563</ele>
<time>2012-07-28T18:30:46Z</time>
<speed>5.470000</speed>
<extensions>
<speed>5.5</speed>
<temp>0.00</temp>
<bpm>0</bpm>
<rpm>0.00</rpm>
</extensions>
</trkpt>
<trkpt lat="63.947071075" lon="-21.963073730">
<ele>141.609375</ele>
<time>2012-07-28T18:30:51Z</time>
<speed>4.780000</speed>
<extensions>
<speed>4.8</speed>
<temp>0.00</temp>
<bpm>0</bpm>
<rpm>0.00</rpm>
</extensions>
</trkpt>
<trkpt lat="63.947219849" lon="-21.962814331">
<ele>143.226563</ele>
<time>2012-07-28T18:30:56Z</time>
<speed>3.860000</speed>
<extensions>
<speed>3.9</speed>
<temp>0.00</temp>
<bpm>0</bpm>
<rpm>0.00</rpm>
</extensions>
</trkpt>
<trkpt lat="63.947383881" lon="-21.962577820">
<ele>145.765625</ele>
<time>2012-07-28T18:31:01Z</time>
<speed>4.260000</speed>
<extensions>
<speed>4.3</speed>
<temp>0.00</temp>
<bpm>0</bpm>
<rpm>0.00</rpm>
</extensions>
</trkpt>
<trkpt lat="63.947540283" lon="-21.962377548">
<ele>147.859375</ele>
<time>2012-07-28T18:31:06Z</time>
<speed>3.040000</speed>
<extensions>
<speed>3.0</speed>
<temp>0.00</temp>
<bpm>0</bpm>
<rpm>0.00</rpm>
</extensions>
</trkpt>
<trkpt lat="63.947658539" lon="-21.962217331">
<ele>148.371094</ele>
<time>2012-07-28T18:31:11Z</time>
<speed>3.050000</speed>
<extensions>
<speed>3.0</speed>
<temp>0.00</temp>
<bpm>0</bpm>
<rpm>0.00</rpm>
</extensions>
</trkpt>
<trkpt lat="63.947776794" lon="-21.962070465">
<ele>149.226563</ele>
<time>2012-07-28T18:31:16Z</time>
<speed>3.010000</speed>
<extensions>
<speed>3.0</speed>
<temp>0.00</temp>
<bpm>0</bpm>
<rpm>0.00</rpm>
</extensions>
</trkpt>
<trkpt lat="63.947902679" lon="-21.961923599">
<ele>149.953125</ele>
<time>2012-07-28T18:31:21Z</time>
<speed>3.190000</speed>
<extensions>
<speed>3.2</speed>
<temp>0.00</temp>
<bpm>0</bpm>
<rpm>0.00</rpm>
</extensions>
</trkpt>
<trkpt lat="63.948020935" lon="-21.961767197">
<ele>150.460938</ele>
<time>2012-07-28T18:31:26Z</time>
<speed>2.920000</speed>
<extensions>
<speed>2.9</speed>
<temp>0.00</temp>
<bpm>0</bpm>
<rpm>0.00</rpm>
</extensions>
</trkpt>
<trkpt lat="63.948123932" lon="-21.961637497">
<ele>150.195313</ele>
<time>2012-07-28T18:31:31Z</time>
<speed>2.850000</speed>
<extensions>
<speed>2.9</speed>
<temp>0.00</temp>
<bpm>0</bpm>
<rpm>0.00</rpm>
</extensions>
</trkpt>
<trkpt lat="63.948234558" lon="-21.961498260">
<ele>150.238281</ele>
<time>2012-07-28T18:31:36Z</time>
<speed>3.020000</speed>
<extensions>
<speed>3.0</speed>
<temp>0.00</temp>
<bpm>0</bpm>
<rpm>0.00</rpm>
</extensions>
</trkpt>
<trkpt lat="63.948364258" lon="-21.961339951">
<ele>150.339844</ele>
<time>2012-07-28T18:31:41Z</time>
<speed>3.300000</speed>
<extensions>
<speed>3.3</speed>
<temp>0.00</temp>
<bpm>0</bpm>
<rpm>0.00</rpm>
</extensions>
</trkpt>
<trkpt lat="63.948497772" lon="-21.961164474">
<ele>150.257813</ele>
<time>2012-07-28T18:31:46Z</time>
<speed>3.280000</speed>
<extensions>
<speed>3.3</speed>
<temp>0.00</temp>
<bpm>0</bpm>
<rpm>0.00</rpm>
</extensions>
</trkpt>
<trkpt lat="63.948596954" lon="-21.961017609">
<ele>150.515625</ele>
<time>2012-07-28T18:31:51Z</time>
<speed>2.870000</speed>
<extensions>
<speed>2.9</speed>
<temp>0.00</temp>
<bpm>0</bpm>
<rpm>0.00</rpm>
</extensions>
</trkpt>
<trkpt lat="63.948703766" lon="-21.960880280">
<ele>150.789063</ele>
<time>2012-07-28T18:31:56Z</time>
<speed>2.760000</speed>
<extensions>
<speed>2.8</speed>
<temp>0.00</temp>
<bpm>0</bpm>
<rpm>0.00</rpm>
</extensions>
</trkpt>
<trkpt lat="63.948810577" lon="-21.960744858">
<ele>151.089844</ele>
<time>2012-07-28T18:32:01Z</time>
<speed>2.700000</speed>
<extensions>
<speed>2.7</speed>
<temp>0.00</temp>
<bpm>0</bpm>
<rpm>0.00</rpm>
</extensions>
</trkpt>
<trkpt lat="63.948917389" lon="-21.960599899">
<ele>150.832031</ele>
<time>2012-07-28T18:32:06Z</time>
<speed>2.700000</speed>
<extensions>
<speed>2.7</speed>
<temp>0.00</temp>
<bpm>0</bpm>
<rpm>0.00</rpm>
</extensions>
</trkpt>
<trkpt lat="63.949020386" lon="-21.960491180">
<ele>151.011719</ele>
<time>2012-07-28T18:32:11Z</time>
<speed>2.650000</speed>
<extensions>
<speed>2.6</speed>
<temp>0.00</temp>
<bpm>0</bpm>
<rpm>0.00</rpm>
</extensions>
</trkpt>
<trkpt lat="63.949127197" lon="-21.960357666">
<ele>151.335938</ele>
<time>2012-07-28T18:32:16Z</time>
<speed>2.570000</speed>
<extensions>
<speed>2.6</speed>
<temp>0.00</temp>
<bpm>0</bpm>
<rpm>0.00</rpm>
</extensions>
</trkpt>
<trkpt lat="63.949230194" lon="-21.960229874">
<ele>151.949219</ele>
<time>2012-07-28T18:32:21Z</time>
<speed>2.570000</speed>
<extensions>
<speed>2.6</speed>
<temp>0.00</temp>
<bpm>0</bpm>
<rpm>0.00</rpm>
</extensions>
</trkpt>
<trkpt lat="63.949325562" lon="-21.960098267">
<ele>151.929688</ele>
<time>2012-07-28T18:32:26Z</time>
<speed>2.620000</speed>
<extensions>
<speed>2.6</speed>
<temp>0.00</temp>
<bpm>0</bpm>
<rpm>0.00</rpm>
</extensions>
</trkpt>
<trkpt lat="63.949424744" lon="-21.959970474">
<ele>151.714844</ele>
<time>2012-07-28T18:32:31Z</time>
<speed>2.950000</speed>
<extensions>
<speed>2.9</speed>
<temp>0.00</temp>
<bpm>0</bpm>
<rpm>0.00</rpm>
</extensions>
</trkpt>
<trkpt lat="63.949527740" lon="-21.959850311">
<ele>151.812500</ele>
<time>2012-07-28T18:32:36Z</time>
<speed>2.100000</speed>
<extensions>
<speed>2.1</speed>
<temp>0.00</temp>
<bpm>0</bpm>
<rpm>0.00</rpm>
</extensions>
</trkpt>
<trkpt lat="63.949596405" lon="-21.959745407">
<ele>152.175781</ele>
<time>2012-07-28T18:32:41Z</time>
<speed>2.020000</speed>
<extensions>
<speed>2.0</speed>
<temp>0.00</temp>
<bpm>0</bpm>
<rpm>0.00</rpm>
</extensions>
</trkpt>
<trkpt lat="63.949691772" lon="-21.959621429">
<ele>152.320313</ele>
<time>2012-07-28T18:32:46Z</time>
<speed>2.790000</speed>
<extensions>
<speed>2.8</speed>
<temp>0.00</temp>
<bpm>0</bpm>
<rpm>0.00</rpm>
</extensions>
</trkpt>
<trkpt lat="63.949813843" lon="-21.959474564">
<ele>152.464844</ele>
<time>2012-07-28T18:32:51Z</time>
<speed>3.080000</speed>
<extensions>
<speed>3.1</speed>
<temp>0.00</temp>
<bpm>0</bpm>
<rpm>0.00</rpm>
</extensions>
</trkpt>
<trkpt lat="63.949947357" lon="-21.959299088">
<ele>152.378906</ele>
<time>2012-07-28T18:32:56Z</time>
<speed>3.430000</speed>
<extensions>
<speed>3.4</speed>
<temp>0.00</temp>
<bpm>0</bpm>
<rpm>0.00</rpm>
</extensions>
</trkpt>
<trkpt lat="63.950080872" lon="-21.959146500">
<ele>152.292969</ele>
<time>2012-07-28T18:33:01Z</time>
<speed>3.240000</speed>
<extensions>
<speed>3.2</speed>
<temp>0.00</temp>
<bpm>0</bpm>
<rpm>0.00</rpm>
</extensions>
</trkpt>
<trkpt lat="63.950199127" lon="-21.958986282">
<ele>152.234375</ele>
<time>2012-07-28T18:33:06Z</time>
<speed>2.840000</speed>
<extensions>
<speed>2.8</speed>
<temp>0.00</temp>
<bpm>0</bpm>
<rpm>0.00</rpm>
</extensions>
</trkpt>
<trkpt lat="63.950313568" lon="-21.958835602">
<ele>152.250000</ele>
<time>2012-07-28T18:33:11Z</time>
<speed>3.420000</speed>
<extensions>
<speed>3.4</speed>
<temp>0.00</temp>
<bpm>0</bpm>
<rpm>0.00</rpm>
</extensions>
</trkpt>
<trkpt lat="63.950450897" lon="-21.958658218">
<ele>152.511719</ele>
<time>2012-07-28T18:33:16Z</time>
<speed>3.610000</speed>
<extensions>
<speed>3.6</speed>
<temp>0.00</temp>
<bpm>0</bpm>
<rpm>0.00</rpm>
</extensions>
</trkpt>
<trkpt lat="63.950595856" lon="-21.958463669">
<ele>151.996094</ele>
<time>2012-07-28T18:33:21Z</time>
<speed>3.680000</speed>
<extensions>
<speed>3.7</speed>
<temp>0.00</temp>
<bpm>0</bpm>
<rpm>0.00</rpm>
</extensions>
</trkpt>
<trkpt lat="63.950744629" lon="-21.958292007">
<ele>152.449219</ele>
<time>2012-07-28T18:33:26Z</time>
<speed>3.730000</speed>
<extensions>
<speed>3.7</speed>
<temp>0.00</temp>
<bpm>0</bpm>
<rpm>0.00</rpm>
</extensions>
</trkpt>
<trkpt lat="63.950897217" lon="-21.958080292">
<ele>152.820313</ele>
<time>2012-07-28T18:33:31Z</time>
<speed>3.800000</speed>
<extensions>
<speed>3.8</speed>
<temp>0.00</temp>
<bpm>0</bpm>
<rpm>0.00</rpm>
</extensions>
</trkpt>
<trkpt lat="63.951038361" lon="-21.957908630">
<ele>153.667969</ele>
<time>2012-07-28T18:33:36Z</time>
<speed>3.450000</speed>
<extensions>
<speed>3.5</speed>
<temp>0.00</temp>
<bpm>0</bpm>
<rpm>0.00</rpm>
</extensions>
</trkpt>
<trkpt lat="63.951148987" lon="-21.957765579">
<ele>153.890625</ele>
<time>2012-07-28T18:33:41Z</time>
<speed>2.840000</speed>
<extensions>
<speed>2.8</speed>
<temp>0.00</temp>
<bpm>0</bpm>
<rpm>0.00</rpm>
</extensions>
</trkpt>
<trkpt lat="63.951251984" lon="-21.957628250">
<ele>154.417969</ele>
<time>2012-07-28T18:33:46Z</time>
<speed>2.690000</speed>
<extensions>
<speed>2.7</speed>
<temp>0.00</temp>
<bpm>0</bpm>
<rpm>0.00</rpm>
</extensions>
</trkpt>
<trkpt lat="63.951335907" lon="-21.957517624">
<ele>154.480469</ele>
<time>2012-07-28T18:33:51Z</time>
<speed>1.980000</speed>
<extensions>
<speed>2.0</speed>
<temp>0.00</temp>
<bpm>0</bpm>
<rpm>0.00</rpm>
</extensions>
</trkpt>
<trkpt lat="63.951412201" lon="-21.957420349">
<ele>154.648438</ele>
<time>2012-07-28T18:33:56Z</time>
<speed>1.900000</speed>
<extensions>
<speed>1.9</speed>
<temp>0.00</temp>
<bpm>0</bpm>
<rpm>0.00</rpm>
</extensions>
</trkpt>
<trkpt lat="63.951503754" lon="-21.957294464">
<ele>154.621094</ele>
<time>2012-07-28T18:34:01Z</time>
<speed>2.110000</speed>
<extensions>
<speed>2.1</speed>
<temp>0.00</temp>
<bpm>0</bpm>
<rpm>0.00</rpm>
</extensions>
</trkpt>
<trkpt lat="63.951576233" lon="-21.957191467">
<ele>154.839844</ele>
<time>2012-07-28T18:34:06Z</time>
<speed>2.310000</speed>
<extensions>
<speed>2.3</speed>
<temp>0.00</temp>
<bpm>0</bpm>
<rpm>0.00</rpm>
</extensions>
</trkpt>
<trkpt lat="63.951667786" lon="-21.957077026">
<ele>155.027344</ele>
<time>2012-07-28T18:34:11Z</time>
<speed>2.080000</speed>
<extensions>
<speed>2.1</speed>
<temp>0.00</temp>
<bpm>0</bpm>
<rpm>0.00</rpm>
</extensions>
</trkpt>
<trkpt lat="63.951755524" lon="-21.956960678">
<ele>155.589844</ele>
<time>2012-07-28T18:34:16Z</time>
<speed>2.450000</speed>
<extensions>
<speed>2.4</speed>
<temp>0.00</temp>
<bpm>0</bpm>
<rpm>0.00</rpm>
</extensions>
</trkpt>
<trkpt lat="63.951854706" lon="-21.956848145">
<ele>155.707031</ele>
<time>2012-07-28T18:34:21Z</time>
<speed>2.410000</speed>
<extensions>
<speed>2.4</speed>
<temp>0.00</temp>
<bpm>0</bpm>
<rpm>0.00</rpm>
</extensions>
</trkpt>
<trkpt lat="63.951950073" lon="-21.956708908">
<ele>156.085938</ele>
<time>2012-07-28T18:34:26Z</time>
<speed>2.600000</speed>
<extensions>
<speed>2.6</speed>
<temp>0.00</temp>
<bpm>0</bpm>
<rpm>0.00</rpm>
</extensions>
</trkpt>
<trkpt lat="63.952053070" lon="-21.956558228">
<ele>156.386719</ele>
<time>2012-07-28T18:34:31Z</time>
<speed>2.420000</speed>
<extensions>
<speed>2.4</speed>
<temp>0.00</temp>
<bpm>0</bpm>
<rpm>0.00</rpm>
</extensions>
</trkpt>
<trkpt lat="63.952136993" lon="-21.956464767">
<ele>156.496094</ele>
<time>2012-07-28T18:34:36Z</time>
<speed>2.000000</speed>
<extensions>
<speed>2.0</speed>
<temp>0.00</temp>
<bpm>0</bpm>
<rpm>0.00</rpm>
</extensions>
</trkpt>
<trkpt lat="63.952201843" lon="-21.956348419">
<ele>157.984375</ele>
<time>2012-07-28T18:34:41Z</time>
<speed>1.960000</speed>
<extensions>
<speed>2.0</speed>
<temp>0.00</temp>
<bpm>0</bpm>
<rpm>0.00</rpm>
</extensions>
</trkpt>
<trkpt lat="63.952285767" lon="-21.956237793">
<ele>158.058594</ele>
<time>2012-07-28T18:34:46Z</time>
<speed>2.370000</speed>
<extensions>
<speed>2.4</speed>
<temp>0.00</temp>
<bpm>0</bpm>
<rpm>0.00</rpm>
</extensions>
</trkpt>
<trkpt lat="63.952384949" lon="-21.956130981">
<ele>158.226563</ele>
<time>2012-07-28T18:34:51Z</time>
<speed>2.570000</speed>
<extensions>
<speed>2.6</speed>
<temp>0.00</temp>
<bpm>0</bpm>
<rpm>0.00</rpm>
</extensions>
</trkpt>
<trkpt lat="63.952487946" lon="-21.956005096">
<ele>158.324219</ele>
<time>2012-07-28T18:34:56Z</time>
<speed>2.400000</speed>
<extensions>
<speed>2.4</speed>
<temp>0.00</temp>
<bpm>0</bpm>
<rpm>0.00</rpm>
</extensions>
</trkpt>
<trkpt lat="63.952571869" lon="-21.955877304">
<ele>158.558594</ele>
<time>2012-07-28T18:35:01Z</time>
<speed>2.000000</speed>
<extensions>
<speed>2.0</speed>
<temp>0.00</temp>
<bpm>0</bpm>
<rpm>0.00</rpm>
</extensions>
</trkpt>
<trkpt lat="63.952655792" lon="-21.955768585">
<ele>158.722656</ele>
<time>2012-07-28T18:35:06Z</time>
<speed>2.170000</speed>
<extensions>
<speed>2.2</speed>
<temp>0.00</temp>
<bpm>0</bpm>
<rpm>0.00</rpm>
</extensions>
</trkpt>
<trkpt lat="63.952758789" lon="-21.955673218">
<ele>158.906250</ele>
<time>2012-07-28T18:35:11Z</time>
<speed>2.240000</speed>
<extensions>
<speed>2.2</speed>
<temp>0.00</temp>
<bpm>0</bpm>
<rpm>0.00</rpm>
</extensions>
</trkpt>
<trkpt lat="63.952842712" lon="-21.955537796">
<ele>157.230469</ele>
<time>2012-07-28T18:35:16Z</time>
<speed>2.450000</speed>
<extensions>
<speed>2.4</speed>
<temp>0.00</temp>
<bpm>0</bpm>
<rpm>0.00</rpm>
</extensions>
</trkpt>
<trkpt lat="63.952941895" lon="-21.955421448">
<ele>157.820313</ele>
<time>2012-07-28T18:35:21Z</time>
<speed>2.610000</speed>
<extensions>
<speed>2.6</speed>
<temp>0.00</temp>
<bpm>0</bpm>
<rpm>0.00</rpm>
</extensions>
</trkpt>
<trkpt lat="63.953041077" lon="-21.955282211">
<ele>158.050781</ele>
<time>2012-07-28T18:35:26Z</time>
<speed>2.640000</speed>
<extensions>
<speed>2.6</speed>
<temp>0.00</temp>
<bpm>0</bpm>
<rpm>0.00</rpm>
</extensions>
</trkpt>
<trkpt lat="63.953144073" lon="-21.955175400">
<ele>158.019531</ele>
<time>2012-07-28T18:35:31Z</time>
<speed>2.130000</speed>
<extensions>
<speed>2.1</speed>
<temp>0.00</temp>
<bpm>0</bpm>
<rpm>0.00</rpm>
</extensions>
</trkpt>
<trkpt lat="63.953220367" lon="-21.955078125">
<ele>157.203125</ele>
<time>2012-07-28T18:35:36Z</time>
<speed>2.360000</speed>
<extensions>
<speed>2.4</speed>
<temp>0.00</temp>
<bpm>0</bpm>
<rpm>0.00</rpm>
</extensions>
</trkpt>
<trkpt lat="63.953308105" lon="-21.954944611">
<ele>157.683594</ele>
<time>2012-07-28T18:35:41Z</time>
<speed>2.560000</speed>
<extensions>
<speed>2.6</speed>
<temp>0.00</temp>
<bpm>0</bpm>
<rpm>0.00</rpm>
</extensions>
</trkpt>
<trkpt lat="63.953414917" lon="-21.954818726">
<ele>158.261719</ele>
<time>2012-07-28T18:35:46Z</time>
<speed>2.670000</speed>
<extensions>
<speed>2.7</speed>
<temp>0.00</temp>
<bpm>0</bpm>
<rpm>0.00</rpm>
</extensions>
</trkpt>
<trkpt lat="63.953525543" lon="-21.954687119">
<ele>158.449219</ele>
<time>2012-07-28T18:35:51Z</time>
<speed>3.130000</speed>
<extensions>
<speed>3.1</speed>
<temp>0.00</temp>
<bpm>0</bpm>
<rpm>0.00</rpm>
</extensions>
</trkpt>
<trkpt lat="63.953655243" lon="-21.954542160">
<ele>158.230469</ele>
<time>2012-07-28T18:35:56Z</time>
<speed>3.090000</speed>
<extensions>
<speed>3.1</speed>
<temp>0.00</temp>
<bpm>0</bpm>
<rpm>0.00</rpm>
</extensions>
</trkpt>
<trkpt lat="63.953777313" lon="-21.954401016">
<ele>158.015625</ele>
<time>2012-07-28T18:36:01Z</time>
<speed>3.040000</speed>
<extensions>
<speed>3.0</speed>
<temp>0.00</temp>
<bpm>0</bpm>
<rpm>0.00</rpm>
</extensions>
</trkpt>
<trkpt lat="63.953899384" lon="-21.954265594">
<ele>158.183594</ele>
<time>2012-07-28T18:36:06Z</time>
<speed>3.050000</speed>
<extensions>
<speed>3.0</speed>
<temp>0.00</temp>
<bpm>0</bpm>
<rpm>0.00</rpm>
</extensions>
</trkpt>
<trkpt lat="63.954006195" lon="-21.954151154">
<ele>157.761719</ele>
<time>2012-07-28T18:36:11Z</time>
<speed>2.840000</speed>
<extensions>
<speed>2.8</speed>
<temp>0.00</temp>
<bpm>0</bpm>
<rpm>0.00</rpm>
</extensions>
</trkpt>
<trkpt lat="63.954124451" lon="-21.954044342">
<ele>156.996094</ele>
<time>2012-07-28T18:36:16Z</time>
<speed>3.060000</speed>
<extensions>
<speed>3.1</speed>
<temp>0.00</temp>
<bpm>0</bpm>
<rpm>0.00</rpm>
</extensions>
</trkpt>
<trkpt lat="63.954238892" lon="-21.953931808">
<ele>157.222656</ele>
<time>2012-07-28T18:36:21Z</time>
<speed>1.820000</speed>
<extensions>
<speed>1.8</speed>
<temp>0.00</temp>
<bpm>0</bpm>
<rpm>0.00</rpm>
</extensions>
</trkpt>
<trkpt lat="63.954326630" lon="-21.953853607">
<ele>156.000000</ele>
<time>2012-07-28T18:36:26Z</time>
<speed>2.560000</speed>
<extensions>
<speed>2.6</speed>
<temp>0.00</temp>
<bpm>0</bpm>
<rpm>0.00</rpm>
</extensions>
</trkpt>
<trkpt lat="63.954460144" lon="-21.953746796">
<ele>155.703125</ele>
<time>2012-07-28T18:36:31Z</time>
<speed>3.410000</speed>
<extensions>
<speed>3.4</speed>
<temp>0.00</temp>
<bpm>0</bpm>
<rpm>0.00</rpm>
</extensions>
</trkpt>
<trkpt lat="63.954616547" lon="-21.953626633">
<ele>155.601563</ele>
<time>2012-07-28T18:36:36Z</time>
<speed>3.740000</speed>
<extensions>
<speed>3.7</speed>
<temp>0.00</temp>
<bpm>0</bpm>
<rpm>0.00</rpm>
</extensions>
</trkpt>
<trkpt lat="63.954788208" lon="-21.953495026">
<ele>155.781250</ele>
<time>2012-07-28T18:36:41Z</time>
<speed>4.030000</speed>
<extensions>
<speed>4.0</speed>
<temp>0.00</temp>
<bpm>0</bpm>
<rpm>0.00</rpm>
</extensions>
</trkpt>
<trkpt lat="63.954967499" lon="-21.953336716">
<ele>156.449219</ele>
<time>2012-07-28T18:36:46Z</time>
<speed>3.920000</speed>
<extensions>
<speed>3.9</speed>
<temp>0.00</temp>
<bpm>0</bpm>
<rpm>0.00</rpm>
</extensions>
</trkpt>
<trkpt lat="63.955104828" lon="-21.953226089">
<ele>156.824219</ele>
<time>2012-07-28T18:36:51Z</time>
<speed>2.660000</speed>
<extensions>
<speed>2.7</speed>
<temp>0.00</temp>
<bpm>0</bpm>
<rpm>0.00</rpm>
</extensions>
</trkpt>
<trkpt lat="63.955192566" lon="-21.953151703">
<ele>156.882813</ele>
<time>2012-07-28T18:36:56Z</time>
<speed>1.730000</speed>
<extensions>
<speed>1.7</speed>
<temp>0.00</temp>
<bpm>0</bpm>
<rpm>0.00</rpm>
</extensions>
</trkpt>
<trkpt lat="63.955268860" lon="-21.953090668">
<ele>156.335938</ele>
<time>2012-07-28T18:37:01Z</time>
<speed>2.400000</speed>
<extensions>
<speed>2.4</speed>
<temp>0.00</temp>
<bpm>0</bpm>
<rpm>0.00</rpm>
</extensions>
</trkpt>
<trkpt lat="63.955371857" lon="-21.953018188">
<ele>156.343750</ele>
<time>2012-07-28T18:37:06Z</time>
<speed>2.090000</speed>
<extensions>
<speed>2.1</speed>
<temp>0.00</temp>
<bpm>0</bpm>
<rpm>0.00</rpm>
</extensions>
</trkpt>
<trkpt lat="63.955478668" lon="-21.952913284">
<ele>156.566406</ele>
<time>2012-07-28T18:37:11Z</time>
<speed>3.020000</speed>
<extensions>
<speed>3.0</speed>
<temp>0.00</temp>
<bpm>0</bpm>
<rpm>0.00</rpm>
</extensions>
</trkpt>
<trkpt lat="63.955627441" lon="-21.952796936">
<ele>156.691406</ele>
<time>2012-07-28T18:37:16Z</time>
<speed>3.790000</speed>
<extensions>
<speed>3.8</speed>
<temp>0.00</temp>
<bpm>0</bpm>
<rpm>0.00</rpm>
</extensions>
</trkpt>
<trkpt lat="63.955791473" lon="-21.952671051">
<ele>157.058594</ele>
<time>2012-07-28T18:37:21Z</time>
<speed>3.510000</speed>
<extensions>
<speed>3.5</speed>
<temp>0.00</temp>
<bpm>0</bpm>
<rpm>0.00</rpm>
</extensions>
</trkpt>
<trkpt lat="63.955917358" lon="-21.952585220">
<ele>157.167969</ele>
<time>2012-07-28T18:37:26Z</time>
<speed>2.250000</speed>
<extensions>
<speed>2.3</speed>
<temp>0.00</temp>
<bpm>0</bpm>
<rpm>0.00</rpm>
</extensions>
</trkpt>
<trkpt lat="63.956008911" lon="-21.952484131">
<ele>157.316406</ele>
<time>2012-07-28T18:37:31Z</time>
<speed>2.840000</speed>
<extensions>
<speed>2.8</speed>
<temp>0.00</temp>
<bpm>0</bpm>
<rpm>0.00</rpm>
</extensions>
</trkpt>
<trkpt lat="63.956134796" lon="-21.952381134">
<ele>157.488281</ele>
<time>2012-07-28T18:37:36Z</time>
<speed>3.350000</speed>
<extensions>
<speed>3.4</speed>
<temp>0.00</temp>
<bpm>0</bpm>
<rpm>0.00</rpm>
</extensions>
</trkpt>
<trkpt lat="63.956287384" lon="-21.952259064">
<ele>157.316406</ele>
<time>2012-07-28T18:37:41Z</time>
<speed>3.840000</speed>
<extensions>
<speed>3.8</speed>
<temp>0.00</temp>
<bpm>0</bpm>
<rpm>0.00</rpm>
</extensions>
</trkpt>
<trkpt lat="63.956462860" lon="-21.952108383">
<ele>156.996094</ele>
<time>2012-07-28T18:37:46Z</time>
<speed>4.310000</speed>
<extensions>
<speed>4.3</speed>
<temp>0.00</temp>
<bpm>0</bpm>
<rpm>0.00</rpm>
</extensions>
</trkpt>
<trkpt lat="63.956649780" lon="-21.951940536">
<ele>157.132813</ele>
<time>2012-07-28T18:37:51Z</time>
<speed>4.540000</speed>
<extensions>
<speed>4.5</speed>
<temp>0.00</temp>
<bpm>0</bpm>
<rpm>0.00</rpm>
</extensions>
</trkpt>
<trkpt lat="63.956813812" lon="-21.951799393">
<ele>157.664063</ele>
<time>2012-07-28T18:37:56Z</time>
<speed>3.260000</speed>
<extensions>
<speed>3.3</speed>
<temp>0.00</temp>
<bpm>0</bpm>
<rpm>0.00</rpm>
</extensions>
</trkpt>
<trkpt lat="63.956928253" lon="-21.951707840">
<ele>157.742188</ele>
<time>2012-07-28T18:38:01Z</time>
<speed>2.490000</speed>
<extensions>
<speed>2.5</speed>
<temp>0.00</temp>
<bpm>0</bpm>
<rpm>0.00</rpm>
</extensions>
</trkpt>
<trkpt lat="63.957046509" lon="-21.951616287">
<ele>157.714844</ele>
<time>2012-07-28T18:38:06Z</time>
<speed>3.090000</speed>
<extensions>
<speed>3.1</speed>
<temp>0.00</temp>
<bpm>0</bpm>
<rpm>0.00</rpm>
</extensions>
</trkpt>
<trkpt lat="63.957180023" lon="-21.951484680">
<ele>158.128906</ele>
<time>2012-07-28T18:38:11Z</time>
<speed>3.600000</speed>
<extensions>
<speed>3.6</speed>
<temp>0.00</temp>
<bpm>0</bpm>
<rpm>0.00</rpm>
</extensions>
</trkpt>
<trkpt lat="63.957336426" lon="-21.951324463">
<ele>158.218750</ele>
<time>2012-07-28T18:38:16Z</time>
<speed>3.940000</speed>
<extensions>
<speed>3.9</speed>
<temp>0.00</temp>
<bpm>0</bpm>
<rpm>0.00</rpm>
</extensions>
</trkpt>
<trkpt lat="63.957504272" lon="-21.951133728">
<ele>158.570313</ele>
<time>2012-07-28T18:38:21Z</time>
<speed>4.280000</speed>
<extensions>
<speed>4.3</speed>
<temp>0.00</temp>
<bpm>0</bpm>
<rpm>0.00</rpm>
</extensions>
</trkpt>
<trkpt lat="63.957656860" lon="-21.950950623">
<ele>158.917969</ele>
<time>2012-07-28T18:38:26Z</time>
<speed>3.130000</speed>
<extensions>
<speed>3.1</speed>
<temp>0.00</temp>
<bpm>0</bpm>
<rpm>0.00</rpm>
</extensions>
</trkpt>
<trkpt lat="63.957782745" lon="-21.950790405">
<ele>159.144531</ele>
<time>2012-07-28T18:38:31Z</time>
<speed>3.580000</speed>
<extensions>
<speed>3.6</speed>
<temp>0.00</temp>
<bpm>0</bpm>
<rpm>0.00</rpm>
</extensions>
</trkpt>
<trkpt lat="63.957923889" lon="-21.950584412">
<ele>159.523438</ele>
<time>2012-07-28T18:38:36Z</time>
<speed>3.570000</speed>
<extensions>
<speed>3.6</speed>
<temp>0.00</temp>
<bpm>0</bpm>
<rpm>0.00</rpm>
</extensions>
</trkpt>
<trkpt lat="63.958038330" lon="-21.950387955">
<ele>159.632813</ele>
<time>2012-07-28T18:38:41Z</time>
<speed>3.270000</speed>
<extensions>
<speed>3.3</speed>
<temp>0.00</temp>
<bpm>0</bpm>
<rpm>0.00</rpm>
</extensions>
</trkpt>
<trkpt lat="63.958156586" lon="-21.950183868">
<ele>159.820313</ele>
<time>2012-07-28T18:38:46Z</time>
<speed>3.090000</speed>
<extensions>
<speed>3.1</speed>
<temp>0.00</temp>
<bpm>0</bpm>
<rpm>0.00</rpm>
</extensions>
</trkpt>
<trkpt lat="63.958225250" lon="-21.950004578">
<ele>158.730469</ele>
<time>2012-07-28T18:38:51Z</time>
<speed>1.690000</speed>
<extensions>
<speed>1.7</speed>
<temp>0.00</temp>
<bpm>0</bpm>
<rpm>0.00</rpm>
</extensions>
</trkpt>
<trkpt lat="63.958293915" lon="-21.949892044">
<ele>159.855469</ele>
<time>2012-07-28T18:38:56Z</time>
<speed>2.540000</speed>
<extensions>
<speed>2.5</speed>
<temp>0.00</temp>
<bpm>0</bpm>
<rpm>0.00</rpm>
</extensions>
</trkpt>
<trkpt lat="63.958396912" lon="-21.949701309">
<ele>160.179688</ele>
<time>2012-07-28T18:39:01Z</time>
<speed>3.160000</speed>
<extensions>
<speed>3.2</speed>
<temp>0.00</temp>
<bpm>0</bpm>
<rpm>0.00</rpm>
</extensions>
</trkpt>
<trkpt lat="63.958518982" lon="-21.949478149">
<ele>160.832031</ele>
<time>2012-07-28T18:39:06Z</time>
<speed>3.540000</speed>
<extensions>
<speed>3.5</speed>
<temp>0.00</temp>
<bpm>0</bpm>
<rpm>0.00</rpm>
</extensions>
</trkpt>
<trkpt lat="63.958637238" lon="-21.949230194">
<ele>160.523438</ele>
<time>2012-07-28T18:39:11Z</time>
<speed>3.640000</speed>
<extensions>
<speed>3.6</speed>
<temp>0.00</temp>
<bpm>0</bpm>
<rpm>0.00</rpm>
</extensions>
</trkpt>
<trkpt lat="63.958770752" lon="-21.948991776">
<ele>161.386719</ele>
<time>2012-07-28T18:39:16Z</time>
<speed>3.740000</speed>
<extensions>
<speed>3.7</speed>
<temp>0.00</temp>
<bpm>0</bpm>
<rpm>0.00</rpm>
</extensions>
</trkpt>
<trkpt lat="63.958900452" lon="-21.948726654">
<ele>161.078125</ele>
<time>2012-07-28T18:39:21Z</time>
<speed>3.520000</speed>
<extensions>
<speed>3.5</speed>
<temp>0.00</temp>
<bpm>0</bpm>
<rpm>0.00</rpm>
</extensions>
</trkpt>
<trkpt lat="63.958995819" lon="-21.948507309">
<ele>161.941406</ele>
<time>2012-07-28T18:39:26Z</time>
<speed>3.220000</speed>
<extensions>
<speed>3.2</speed>
<temp>0.00</temp>
<bpm>0</bpm>
<rpm>0.00</rpm>
</extensions>
</trkpt>
<trkpt lat="63.959110260" lon="-21.948232651">
<ele>162.433594</ele>
<time>2012-07-28T18:39:31Z</time>
<speed>3.760000</speed>
<extensions>
<speed>3.8</speed>
<temp>0.00</temp>
<bpm>0</bpm>
<rpm>0.00</rpm>
</extensions>
</trkpt>
<trkpt lat="63.959209442" lon="-21.948019028">
<ele>162.894531</ele>
<time>2012-07-28T18:39:36Z</time>
<speed>2.440000</speed>
<extensions>
<speed>2.4</speed>
<temp>0.00</temp>
<bpm>0</bpm>
<rpm>0.00</rpm>
</extensions>
</trkpt>
<trkpt lat="63.959289551" lon="-21.947803497">
<ele>163.656250</ele>
<time>2012-07-28T18:39:41Z</time>
<speed>2.980000</speed>
<extensions>
<speed>3.0</speed>
<temp>0.00</temp>
<bpm>0</bpm>
<rpm>0.00</rpm>
</extensions>
</trkpt>
<trkpt lat="63.959369659" lon="-21.947530746">
<ele>164.609375</ele>
<time>2012-07-28T18:39:46Z</time>
<speed>2.970000</speed>
<extensions>
<speed>3.0</speed>
<temp>0.00</temp>
<bpm>0</bpm>
<rpm>0.00</rpm>
</extensions>
</trkpt>
<trkpt lat="63.959426880" lon="-21.947292328">
<ele>164.875000</ele>
<time>2012-07-28T18:39:51Z</time>
<speed>2.280000</speed>
<extensions>
<speed>2.3</speed>
<temp>0.00</temp>
<bpm>0</bpm>
<rpm>0.00</rpm>
</extensions>
</trkpt>
<trkpt lat="63.959480286" lon="-21.947065353">
<ele>165.984375</ele>
<time>2012-07-28T18:39:56Z</time>
<speed>2.380000</speed>
<extensions>
<speed>2.4</speed>
<temp>0.00</temp>
<bpm>0</bpm>
<rpm>0.00</rpm>
</extensions>
</trkpt>
<trkpt lat="63.959518433" lon="-21.946866989">
<ele>160.058594</ele>
<time>2012-07-28T18:40:01Z</time>
<speed>2.150000</speed>
<extensions>
<speed>2.1</speed>
<temp>0.00</temp>
<bpm>0</bpm>
<rpm>0.00</rpm>
</extensions>
</trkpt>
<trkpt lat="63.959552765" lon="-21.946674347">
<ele>160.976563</ele>
<time>2012-07-28T18:40:06Z</time>
<speed>2.060000</speed>
<extensions>
<speed>2.1</speed>
<temp>0.00</temp>
<bpm>0</bpm>
<rpm>0.00</rpm>
</extensions>
</trkpt>
<trkpt lat="63.959583282" lon="-21.946481705">
<ele>162.207031</ele>
<time>2012-07-28T18:40:11Z</time>
<speed>1.880000</speed>
<extensions>
<speed>1.9</speed>
<temp>0.00</temp>
<bpm>0</bpm>
<rpm>0.00</rpm>
</extensions>
</trkpt>
<trkpt lat="63.959587097" lon="-21.946300507">
<ele>162.988281</ele>
<time>2012-07-28T18:40:16Z</time>
<speed>1.840000</speed>
<extensions>
<speed>1.8</speed>
<temp>0.00</temp>
<bpm>0</bpm>
<rpm>0.00</rpm>
</extensions>
</trkpt>
<trkpt lat="63.959590912" lon="-21.946115494">
<ele>163.964844</ele>
<time>2012-07-28T18:40:21Z</time>
<speed>1.890000</speed>
<extensions>
<speed>1.9</speed>
<temp>0.00</temp>
<bpm>0</bpm>
<rpm>0.00</rpm>
</extensions>
</trkpt>
<trkpt lat="63.959617615" lon="-21.945932388">
<ele>165.093750</ele>
<time>2012-07-28T18:40:26Z</time>
<speed>1.830000</speed>
<extensions>
<speed>1.8</speed>
<temp>0.00</temp>
<bpm>0</bpm>
<rpm>0.00</rpm>
</extensions>
</trkpt>
<trkpt lat="63.959632874" lon="-21.945760727">
<ele>165.648438</ele>
<time>2012-07-28T18:40:31Z</time>
<speed>1.470000</speed>
<extensions>
<speed>1.5</speed>
<temp>0.00</temp>
<bpm>0</bpm>
<rpm>0.00</rpm>
</extensions>
</trkpt>
<trkpt lat="63.959651947" lon="-21.945640564">
<ele>166.644531</ele>
<time>2012-07-28T18:40:36Z</time>
<speed>1.510000</speed>
<extensions>
<speed>1.5</speed>
<temp>0.00</temp>
<bpm>0</bpm>
<rpm>0.00</rpm>
</extensions>
</trkpt>
<trkpt lat="63.959667206" lon="-21.945472717">
<ele>167.113281</ele>
<time>2012-07-28T18:40:41Z</time>
<speed>1.660000</speed>
<extensions>
<speed>1.7</speed>
<temp>0.00</temp>
<bpm>0</bpm>
<rpm>0.00</rpm>
</extensions>
</trkpt>
<trkpt lat="63.959686279" lon="-21.945316315">
<ele>167.960938</ele>
<time>2012-07-28T18:40:46Z</time>
<speed>1.870000</speed>
<extensions>
<speed>1.9</speed>
<temp>0.00</temp>
<bpm>0</bpm>
<rpm>0.00</rpm>
</extensions>
</trkpt>
<trkpt lat="63.959705353" lon="-21.945104599">
<ele>167.851563</ele>
<time>2012-07-28T18:40:51Z</time>
<speed>2.570000</speed>
<extensions>
<speed>2.6</speed>
<temp>0.00</temp>
<bpm>0</bpm>
<rpm>0.00</rpm>
</extensions>
</trkpt>
<trkpt lat="63.959732056" lon="-21.944900513">
<ele>167.949219</ele>
<time>2012-07-28T18:40:56Z</time>
<speed>2.340000</speed>
<extensions>
<speed>2.3</speed>
<temp>0.00</temp>
<bpm>0</bpm>
<rpm>0.00</rpm>
</extensions>
</trkpt>
<trkpt lat="63.959781647" lon="-21.944648743">
<ele>166.925781</ele>
<time>2012-07-28T18:41:01Z</time>
<speed>2.690000</speed>
<extensions>
<speed>2.7</speed>
<temp>0.00</temp>
<bpm>0</bpm>
<rpm>0.00</rpm>
</extensions>
</trkpt>
<trkpt lat="63.959815979" lon="-21.944408417">
<ele>165.625000</ele>
<time>2012-07-28T18:41:06Z</time>
<speed>2.690000</speed>
<extensions>
<speed>2.7</speed>
<temp>0.00</temp>
<bpm>0</bpm>
<rpm>0.00</rpm>
</extensions>
</trkpt>
<trkpt lat="63.959865570" lon="-21.944147110">
<ele>166.136719</ele>
<time>2012-07-28T18:41:11Z</time>
<speed>2.660000</speed>
<extensions>
<speed>2.7</speed>
<temp>0.00</temp>
<bpm>0</bpm>
<rpm>0.00</rpm>
</extensions>
</trkpt>
<trkpt lat="63.959915161" lon="-21.943954468">
<ele>165.734375</ele>
<time>2012-07-28T18:41:16Z</time>
<speed>1.360000</speed>
<extensions>
<speed>1.4</speed>
<temp>0.00</temp>
<bpm>0</bpm>
<rpm>0.00</rpm>
</extensions>
</trkpt>
<trkpt lat="63.959934235" lon="-21.943826675">
<ele>166.523438</ele>
<time>2012-07-28T18:41:21Z</time>
<speed>1.610000</speed>
<extensions>
<speed>1.6</speed>
<temp>0.00</temp>
<bpm>0</bpm>
<rpm>0.00</rpm>
</extensions>
</trkpt>
<trkpt lat="63.959972382" lon="-21.943675995">
<ele>166.593750</ele>
<time>2012-07-28T18:41:26Z</time>
<speed>2.190000</speed>
<extensions>
<speed>2.2</speed>
<temp>0.00</temp>
<bpm>0</bpm>
<rpm>0.00</rpm>
</extensions>
</trkpt>
<trkpt lat="63.960041046" lon="-21.943517685">
<ele>167.023438</ele>
<time>2012-07-28T18:41:31Z</time>
<speed>1.430000</speed>
<extensions>
<speed>1.4</speed>
<temp>0.00</temp>
<bpm>0</bpm>
<rpm>0.00</rpm>
</extensions>
</trkpt>
<trkpt lat="63.960102081" lon="-21.943334579">
<ele>166.394531</ele>
<time>2012-07-28T18:41:36Z</time>
<speed>2.380000</speed>
<extensions>
<speed>2.4</speed>
<temp>0.00</temp>
<bpm>0</bpm>
<rpm>0.00</rpm>
</extensions>
</trkpt>
<trkpt lat="63.960174561" lon="-21.943159103">
<ele>167.027344</ele>
<time>2012-07-28T18:41:41Z</time>
<speed>2.160000</speed>
<extensions>
<speed>2.2</speed>
<temp>0.00</temp>
<bpm>0</bpm>
<rpm>0.00</rpm>
</extensions>
</trkpt>
<trkpt lat="63.960220337" lon="-21.943006516">
<ele>163.964844</ele>
<time>2012-07-28T18:41:46Z</time>
<speed>1.430000</speed>
<extensions>
<speed>1.4</speed>
<temp>0.00</temp>
<bpm>0</bpm>
<rpm>0.00</rpm>
</extensions>
</trkpt>
<trkpt lat="63.960262299" lon="-21.942876816">
<ele>165.050781</ele>
<time>2012-07-28T18:41:51Z</time>
<speed>2.570000</speed>
<extensions>
<speed>2.6</speed>
<temp>0.00</temp>
<bpm>0</bpm>
<rpm>0.00</rpm>
</extensions>
</trkpt>
<trkpt lat="63.960342407" lon="-21.942674637">
<ele>163.738281</ele>
<time>2012-07-28T18:41:56Z</time>
<speed>2.200000</speed>
<extensions>
<speed>2.2</speed>
<temp>0.00</temp>
<bpm>0</bpm>
<rpm>0.00</rpm>
</extensions>
</trkpt>
<trkpt lat="63.960422516" lon="-21.942487717">
<ele>162.988281</ele>
<time>2012-07-28T18:42:01Z</time>
<speed>2.930000</speed>
<extensions>
<speed>2.9</speed>
<temp>0.00</temp>
<bpm>0</bpm>
<rpm>0.00</rpm>
</extensions>
</trkpt>
<trkpt lat="63.960502625" lon="-21.942321777">
<ele>165.125000</ele>
<time>2012-07-28T18:42:06Z</time>
<speed>2.340000</speed>
<extensions>
<speed>2.3</speed>
<temp>0.00</temp>
<bpm>0</bpm>
<rpm>0.00</rpm>
</extensions>
</trkpt>
<trkpt lat="63.960582733" lon="-21.942136765">
<ele>163.656250</ele>
<time>2012-07-28T18:42:11Z</time>
<speed>1.890000</speed>
<extensions>
<speed>1.9</speed>
<temp>0.00</temp>
<bpm>0</bpm>
<rpm>0.00</rpm>
</extensions>
</trkpt>
<trkpt lat="63.960643768" lon="-21.941982269">
<ele>162.472656</ele>
<time>2012-07-28T18:42:16Z</time>
<speed>3.000000</speed>
<extensions>
<speed>3.0</speed>
<temp>0.00</temp>
<bpm>0</bpm>
<rpm>0.00</rpm>
</extensions>
</trkpt>
<trkpt lat="63.960735321" lon="-21.941724777">
<ele>160.335938</ele>
<time>2012-07-28T18:42:21Z</time>
<speed>3.100000</speed>
<extensions>
<speed>3.1</speed>
<temp>0.00</temp>
<bpm>0</bpm>
<rpm>0.00</rpm>
</extensions>
</trkpt>
<trkpt lat="63.960834503" lon="-21.941507339">
<ele>159.152344</ele>
<time>2012-07-28T18:42:26Z</time>
<speed>2.750000</speed>
<extensions>
<speed>2.7</speed>
<temp>0.00</temp>
<bpm>0</bpm>
<rpm>0.00</rpm>
</extensions>
</trkpt>
<trkpt lat="63.960922241" lon="-21.941316605">
<ele>160.273438</ele>
<time>2012-07-28T18:42:31Z</time>
<speed>2.950000</speed>
<extensions>
<speed>2.9</speed>
<temp>0.00</temp>
<bpm>0</bpm>
<rpm>0.00</rpm>
</extensions>
</trkpt>
<trkpt lat="63.961013794" lon="-21.941106796">
<ele>158.808594</ele>
<time>2012-07-28T18:42:36Z</time>
<speed>2.930000</speed>
<extensions>
<speed>2.9</speed>
<temp>0.00</temp>
<bpm>0</bpm>
<rpm>0.00</rpm>
</extensions>
</trkpt>
<trkpt lat="63.961124420" lon="-21.940870285">
<ele>160.082031</ele>
<time>2012-07-28T18:42:41Z</time>
<speed>3.600000</speed>
<extensions>
<speed>3.6</speed>
<temp>0.00</temp>
<bpm>0</bpm>
<rpm>0.00</rpm>
</extensions>
</trkpt>
<trkpt lat="63.961250305" lon="-21.940607071">
<ele>160.839844</ele>
<time>2012-07-28T18:42:46Z</time>
<speed>4.070000</speed>
<extensions>
<speed>4.1</speed>
<temp>0.00</temp>
<bpm>0</bpm>
<rpm>0.00</rpm>
</extensions>
</trkpt>
<trkpt lat="63.961391449" lon="-21.940355301">
<ele>162.996094</ele>
<time>2012-07-28T18:42:51Z</time>
<speed>4.060000</speed>
<extensions>
<speed>4.1</speed>
<temp>0.00</temp>
<bpm>0</bpm>
<rpm>0.00</rpm>
</extensions>
</trkpt>
<trkpt lat="63.961532593" lon="-21.940116882">
<ele>163.796875</ele>
<time>2012-07-28T18:42:56Z</time>
<speed>3.640000</speed>
<extensions>
<speed>3.6</speed>
<temp>0.00</temp>
<bpm>0</bpm>
<rpm>0.00</rpm>
</extensions>
</trkpt>
<trkpt lat="63.961647034" lon="-21.939933777">
<ele>163.980469</ele>
<time>2012-07-28T18:43:01Z</time>
<speed>2.790000</speed>
<extensions>
<speed>2.8</speed>
<temp>0.00</temp>
<bpm>0</bpm>
<rpm>0.00</rpm>
</extensions>
</trkpt>
<trkpt lat="63.961742401" lon="-21.939809799">
<ele>165.386719</ele>
<time>2012-07-28T18:43:06Z</time>
<speed>2.720000</speed>
<extensions>
<speed>2.7</speed>
<temp>0.00</temp>
<bpm>0</bpm>
<rpm>0.00</rpm>
</extensions>
</trkpt>
<trkpt lat="63.961887360" lon="-21.939699173">
<ele>165.101563</ele>
<time>2012-07-28T18:43:11Z</time>
<speed>3.630000</speed>
<extensions>
<speed>3.6</speed>
<temp>0.00</temp>
<bpm>0</bpm>
<rpm>0.00</rpm>
</extensions>
</trkpt>
<trkpt lat="63.962043762" lon="-21.939586639">
<ele>165.585938</ele>
<time>2012-07-28T18:43:16Z</time>
<speed>3.790000</speed>
<extensions>
<speed>3.8</speed>
<temp>0.00</temp>
<bpm>0</bpm>
<rpm>0.00</rpm>
</extensions>
</trkpt>
<trkpt lat="63.962211609" lon="-21.939481735">
<ele>163.011719</ele>
<time>2012-07-28T18:43:21Z</time>
<speed>4.030000</speed>
<extensions>
<speed>4.0</speed>
<temp>0.00</temp>
<bpm>0</bpm>
<rpm>0.00</rpm>
</extensions>
</trkpt>
<trkpt lat="63.962398529" lon="-21.939449310">
<ele>162.437500</ele>
<time>2012-07-28T18:43:26Z</time>
<speed>4.010000</speed>
<extensions>
<speed>4.0</speed>
<temp>0.00</temp>
<bpm>0</bpm>
<rpm>0.00</rpm>
</extensions>
</trkpt>
<trkpt lat="63.962585449" lon="-21.939474106">
<ele>162.582031</ele>
<time>2012-07-28T18:43:31Z</time>
<speed>4.650000</speed>
<extensions>
<speed>4.6</speed>
<temp>0.00</temp>
<bpm>0</bpm>
<rpm>0.00</rpm>
</extensions>
</trkpt>
<trkpt lat="63.962783813" lon="-21.939596176">
<ele>163.371094</ele>
<time>2012-07-28T18:43:36Z</time>
<speed>4.380000</speed>
<extensions>
<speed>4.4</speed>
<temp>0.00</temp>
<bpm>0</bpm>
<rpm>0.00</rpm>
</extensions>
</trkpt>
<trkpt lat="63.962951660" lon="-21.939741135">
<ele>161.355469</ele>
<time>2012-07-28T18:43:41Z</time>
<speed>3.680000</speed>
<extensions>
<speed>3.7</speed>
<temp>0.00</temp>
<bpm>0</bpm>
<rpm>0.00</rpm>
</extensions>
</trkpt>
<trkpt lat="63.963100433" lon="-21.939914703">
<ele>160.328125</ele>
<time>2012-07-28T18:43:46Z</time>
<speed>3.750000</speed>
<extensions>
<speed>3.8</speed>
<temp>0.00</temp>
<bpm>0</bpm>
<rpm>0.00</rpm>
</extensions>
</trkpt>
<trkpt lat="63.963233948" lon="-21.940073013">
<ele>159.710938</ele>
<time>2012-07-28T18:43:51Z</time>
<speed>3.080000</speed>
<extensions>
<speed>3.1</speed>
<temp>0.00</temp>
<bpm>0</bpm>
<rpm>0.00</rpm>
</extensions>
</trkpt>
<trkpt lat="63.963317871" lon="-21.940202713">
<ele>159.500000</ele>
<time>2012-07-28T18:43:56Z</time>
<speed>2.200000</speed>
<extensions>
<speed>2.2</speed>
<temp>0.00</temp>
<bpm>0</bpm>
<rpm>0.00</rpm>
</extensions>
</trkpt>
<trkpt lat="63.963401794" lon="-21.940336227">
<ele>159.687500</ele>
<time>2012-07-28T18:44:01Z</time>
<speed>2.170000</speed>
<extensions>
<speed>2.2</speed>
<temp>0.00</temp>
<bpm>0</bpm>
<rpm>0.00</rpm>
</extensions>
</trkpt>
<trkpt lat="63.963493347" lon="-21.940462112">
<ele>159.785156</ele>
<time>2012-07-28T18:44:06Z</time>
<speed>2.550000</speed>
<extensions>
<speed>2.6</speed>
<temp>0.00</temp>
<bpm>0</bpm>
<rpm>0.00</rpm>
</extensions>
</trkpt>
<trkpt lat="63.963615417" lon="-21.940570831">
<ele>159.261719</ele>
<time>2012-07-28T18:44:11Z</time>
<speed>3.400000</speed>
<extensions>
<speed>3.4</speed>
<temp>0.00</temp>
<bpm>0</bpm>
<rpm>0.00</rpm>
</extensions>
</trkpt>
<trkpt lat="63.963756561" lon="-21.940824509">
<ele>159.160156</ele>
<time>2012-07-28T18:44:16Z</time>
<speed>4.490000</speed>
<extensions>
<speed>4.5</speed>
<temp>0.00</temp>
<bpm>0</bpm>
<rpm>0.00</rpm>
</extensions>
</trkpt>
<trkpt lat="63.963916779" lon="-21.941158295">
<ele>159.160156</ele>
<time>2012-07-28T18:44:21Z</time>
<speed>4.870000</speed>
<extensions>
<speed>4.9</speed>
<temp>0.00</temp>
<bpm>0</bpm>
<rpm>0.00</rpm>
</extensions>
</trkpt>
<trkpt lat="63.964057922" lon="-21.941438675">
<ele>159.234375</ele>
<time>2012-07-28T18:44:26Z</time>
<speed>3.340000</speed>
<extensions>
<speed>3.3</speed>
<temp>0.00</temp>
<bpm>0</bpm>
<rpm>0.00</rpm>
</extensions>
</trkpt>
<trkpt lat="63.964164734" lon="-21.941646576">
<ele>159.539063</ele>
<time>2012-07-28T18:44:31Z</time>
<speed>3.020000</speed>
<extensions>
<speed>3.0</speed>
<temp>0.00</temp>
<bpm>0</bpm>
<rpm>0.00</rpm>
</extensions>
</trkpt>
<trkpt lat="63.964241028" lon="-21.941833496">
<ele>160.707031</ele>
<time>2012-07-28T18:44:36Z</time>
<speed>2.120000</speed>
<extensions>
<speed>2.1</speed>
<temp>0.00</temp>
<bpm>0</bpm>
<rpm>0.00</rpm>
</extensions>
</trkpt>
<trkpt lat="63.964309692" lon="-21.941980362">
<ele>160.785156</ele>
<time>2012-07-28T18:44:41Z</time>
<speed>2.150000</speed>
<extensions>
<speed>2.1</speed>
<temp>0.00</temp>
<bpm>0</bpm>
<rpm>0.00</rpm>
</extensions>
</trkpt>
<trkpt lat="63.964385986" lon="-21.942113876">
<ele>161.449219</ele>
<time>2012-07-28T18:44:46Z</time>
<speed>2.090000</speed>
<extensions>
<speed>2.1</speed>
<temp>0.00</temp>
<bpm>0</bpm>
<rpm>0.00</rpm>
</extensions>
</trkpt>
<trkpt lat="63.964462280" lon="-21.942272186">
<ele>162.683594</ele>
<time>2012-07-28T18:44:51Z</time>
<speed>2.540000</speed>
<extensions>
<speed>2.5</speed>
<temp>0.00</temp>
<bpm>0</bpm>
<rpm>0.00</rpm>
</extensions>
</trkpt>
<trkpt lat="63.964550018" lon="-21.942424774">
<ele>163.632813</ele>
<time>2012-07-28T18:44:56Z</time>
<speed>2.440000</speed>
<extensions>
<speed>2.4</speed>
<temp>0.00</temp>
<bpm>0</bpm>
<rpm>0.00</rpm>
</extensions>
</trkpt>
<trkpt lat="63.964618683" lon="-21.942565918">
<ele>163.800781</ele>
<time>2012-07-28T18:45:01Z</time>
<speed>1.890000</speed>
<extensions>
<speed>1.9</speed>
<temp>0.00</temp>
<bpm>0</bpm>
<rpm>0.00</rpm>
</extensions>
</trkpt>
<trkpt lat="63.964683533" lon="-21.942722321">
<ele>163.558594</ele>
<time>2012-07-28T18:45:06Z</time>
<speed>2.410000</speed>
<extensions>
<speed>2.4</speed>
<temp>0.00</temp>
<bpm>0</bpm>
<rpm>0.00</rpm>
</extensions>
</trkpt>
<trkpt lat="63.964740753" lon="-21.942873001">
<ele>164.074219</ele>
<time>2012-07-28T18:45:11Z</time>
<speed>2.090000</speed>
<extensions>
<speed>2.1</speed>
<temp>0.00</temp>
<bpm>0</bpm>
<rpm>0.00</rpm>
</extensions>
</trkpt>
<trkpt lat="63.964820862" lon="-21.943012238">
<ele>163.980469</ele>
<time>2012-07-28T18:45:16Z</time>
<speed>2.140000</speed>
<extensions>
<speed>2.1</speed>
<temp>0.00</temp>
<bpm>0</bpm>
<rpm>0.00</rpm>
</extensions>
</trkpt>
<trkpt lat="63.964927673" lon="-21.943191528">
<ele>163.769531</ele>
<time>2012-07-28T18:45:21Z</time>
<speed>3.490000</speed>
<extensions>
<speed>3.5</speed>
<temp>0.00</temp>
<bpm>0</bpm>
<rpm>0.00</rpm>
</extensions>
</trkpt>
<trkpt lat="63.965053558" lon="-21.943439484">
<ele>163.117188</ele>
<time>2012-07-28T18:45:26Z</time>
<speed>3.880000</speed>
<extensions>
<speed>3.9</speed>
<temp>0.00</temp>
<bpm>0</bpm>
<rpm>0.00</rpm>
</extensions>
</trkpt>
<trkpt lat="63.965175629" lon="-21.943683624">
<ele>163.109375</ele>
<time>2012-07-28T18:45:31Z</time>
<speed>3.440000</speed>
<extensions>
<speed>3.4</speed>
<temp>0.00</temp>
<bpm>0</bpm>
<rpm>0.00</rpm>
</extensions>
</trkpt>
<trkpt lat="63.965286255" lon="-21.943910599">
<ele>163.632813</ele>
<time>2012-07-28T18:45:36Z</time>
<speed>2.970000</speed>
<extensions>
<speed>3.0</speed>
<temp>0.00</temp>
<bpm>0</bpm>
<rpm>0.00</rpm>
</extensions>
</trkpt>
<trkpt lat="63.965351105" lon="-21.944067001">
<ele>164.156250</ele>
<time>2012-07-28T18:45:41Z</time>
<speed>1.430000</speed>
<extensions>
<speed>1.4</speed>
<temp>0.00</temp>
<bpm>0</bpm>
<rpm>0.00</rpm>
</extensions>
</trkpt>
<trkpt lat="63.965396881" lon="-21.944162369">
<ele>164.765625</ele>
<time>2012-07-28T18:45:46Z</time>
<speed>1.350000</speed>
<extensions>
<speed>1.4</speed>
<temp>0.00</temp>
<bpm>0</bpm>
<rpm>0.00</rpm>
</extensions>
</trkpt>
<trkpt lat="63.965450287" lon="-21.944252014">
<ele>165.582031</ele>
<time>2012-07-28T18:45:51Z</time>
<speed>1.400000</speed>
<extensions>
<speed>1.4</speed>
<temp>0.00</temp>
<bpm>0</bpm>
<rpm>0.00</rpm>
</extensions>
</trkpt>
<trkpt lat="63.965503693" lon="-21.944341660">
<ele>165.585938</ele>
<time>2012-07-28T18:45:56Z</time>
<speed>1.540000</speed>
<extensions>
<speed>1.5</speed>
<temp>0.00</temp>
<bpm>0</bpm>
<rpm>0.00</rpm>
</extensions>
</trkpt>
<trkpt lat="63.965545654" lon="-21.944438934">
<ele>165.445313</ele>
<time>2012-07-28T18:46:01Z</time>
<speed>1.430000</speed>
<extensions>
<speed>1.4</speed>
<temp>0.00</temp>
<bpm>0</bpm>
<rpm>0.00</rpm>
</extensions>
</trkpt>
<trkpt lat="63.965599060" lon="-21.944499969">
<ele>166.261719</ele>
<time>2012-07-28T18:46:06Z</time>
<speed>1.330000</speed>
<extensions>
<speed>1.3</speed>
<temp>0.00</temp>
<bpm>0</bpm>
<rpm>0.00</rpm>
</extensions>
</trkpt>
<trkpt lat="63.965644836" lon="-21.944570541">
<ele>166.484375</ele>
<time>2012-07-28T18:46:11Z</time>
<speed>1.340000</speed>
<extensions>
<speed>1.3</speed>
<temp>0.00</temp>
<bpm>0</bpm>
<rpm>0.00</rpm>
</extensions>
</trkpt>
<trkpt lat="63.965702057" lon="-21.944643021">
<ele>166.902344</ele>
<time>2012-07-28T18:46:16Z</time>
<speed>1.480000</speed>
<extensions>
<speed>1.5</speed>
<temp>0.00</temp>
<bpm>0</bpm>
<rpm>0.00</rpm>
</extensions>
</trkpt>
<trkpt lat="63.965751648" lon="-21.944715500">
<ele>166.718750</ele>
<time>2012-07-28T18:46:21Z</time>
<speed>1.240000</speed>
<extensions>
<speed>1.2</speed>
<temp>0.00</temp>
<bpm>0</bpm>
<rpm>0.00</rpm>
</extensions>
</trkpt>
<trkpt lat="63.965789795" lon="-21.944793701">
<ele>166.851563</ele>
<time>2012-07-28T18:46:26Z</time>
<speed>1.140000</speed>
<extensions>
<speed>1.1</speed>
<temp>0.00</temp>
<bpm>0</bpm>
<rpm>0.00</rpm>
</extensions>
</trkpt>
<trkpt lat="63.965820313" lon="-21.944856644">
<ele>166.750000</ele>
<time>2012-07-28T18:46:31Z</time>
<speed>1.080000</speed>
<extensions>
<speed>1.1</speed>
<temp>0.00</temp>
<bpm>0</bpm>
<rpm>0.00</rpm>
</extensions>
</trkpt>
<trkpt lat="63.965854645" lon="-21.944904327">
<ele>166.996094</ele>
<time>2012-07-28T18:46:36Z</time>
<speed>1.080000</speed>
<extensions>
<speed>1.1</speed>
<temp>0.00</temp>
<bpm>0</bpm>
<rpm>0.00</rpm>
</extensions>
</trkpt>
<trkpt lat="63.965896606" lon="-21.944969177">
<ele>168.125000</ele>
<time>2012-07-28T18:46:41Z</time>
<speed>1.150000</speed>
<extensions>
<speed>1.1</speed>
<temp>0.00</temp>
<bpm>0</bpm>
<rpm>0.00</rpm>
</extensions>
</trkpt>
<trkpt lat="63.965950012" lon="-21.945022583">
<ele>170.468750</ele>
<time>2012-07-28T18:46:46Z</time>
<speed>1.300000</speed>
<extensions>
<speed>1.3</speed>
<temp>0.00</temp>
<bpm>0</bpm>
<rpm>0.00</rpm>
</extensions>
</trkpt>
<trkpt lat="63.965991974" lon="-21.945096970">
<ele>172.273438</ele>
<time>2012-07-28T18:46:51Z</time>
<speed>1.260000</speed>
<extensions>
<speed>1.3</speed>
<temp>0.00</temp>
<bpm>0</bpm>
<rpm>0.00</rpm>
</extensions>
</trkpt>
<trkpt lat="63.966045380" lon="-21.945144653">
<ele>173.437500</ele>
<time>2012-07-28T18:46:56Z</time>
<speed>1.370000</speed>
<extensions>
<speed>1.4</speed>
<temp>0.00</temp>
<bpm>0</bpm>
<rpm>0.00</rpm>
</extensions>
</trkpt>
<trkpt lat="63.966094971" lon="-21.945211411">
<ele>174.335938</ele>
<time>2012-07-28T18:47:01Z</time>
<speed>1.440000</speed>
<extensions>
<speed>1.4</speed>
<temp>0.00</temp>
<bpm>0</bpm>
<rpm>0.00</rpm>
</extensions>
</trkpt>
<trkpt lat="63.966156006" lon="-21.945287704">
<ele>175.253906</ele>
<time>2012-07-28T18:47:06Z</time>
<speed>1.310000</speed>
<extensions>
<speed>1.3</speed>
<temp>0.00</temp>
<bpm>0</bpm>
<rpm>0.00</rpm>
</extensions>
</trkpt>
<trkpt lat="63.966205597" lon="-21.945354462">
<ele>176.308594</ele>
<time>2012-07-28T18:47:11Z</time>
<speed>1.220000</speed>
<extensions>
<speed>1.2</speed>
<temp>0.00</temp>
<bpm>0</bpm>
<rpm>0.00</rpm>
</extensions>
</trkpt>
<trkpt lat="63.966266632" lon="-21.945425034">
<ele>177.140625</ele>
<time>2012-07-28T18:47:16Z</time>
<speed>1.410000</speed>
<extensions>
<speed>1.4</speed>
<temp>0.00</temp>
<bpm>0</bpm>
<rpm>0.00</rpm>
</extensions>
</trkpt>
<trkpt lat="63.966331482" lon="-21.945476532">
<ele>178.144531</ele>
<time>2012-07-28T18:47:21Z</time>
<speed>1.600000</speed>
<extensions>
<speed>1.6</speed>
<temp>0.00</temp>
<bpm>0</bpm>
<rpm>0.00</rpm>
</extensions>
</trkpt>
<trkpt lat="63.966396332" lon="-21.945569992">
<ele>179.058594</ele>
<time>2012-07-28T18:47:26Z</time>
<speed>2.020000</speed>
<extensions>
<speed>2.0</speed>
<temp>0.00</temp>
<bpm>0</bpm>
<rpm>0.00</rpm>
</extensions>
</trkpt>
<trkpt lat="63.966472626" lon="-21.945659637">
<ele>180.117188</ele>
<time>2012-07-28T18:47:31Z</time>
<speed>1.840000</speed>
<extensions>
<speed>1.8</speed>
<temp>0.00</temp>
<bpm>0</bpm>
<rpm>0.00</rpm>
</extensions>
</trkpt>
<trkpt lat="63.966545105" lon="-21.945756912">
<ele>180.320313</ele>
<time>2012-07-28T18:47:36Z</time>
<speed>1.970000</speed>
<extensions>
<speed>2.0</speed>
<temp>0.00</temp>
<bpm>0</bpm>
<rpm>0.00</rpm>
</extensions>
</trkpt>
<trkpt lat="63.966609955" lon="-21.945863724">
<ele>180.246094</ele>
<time>2012-07-28T18:47:41Z</time>
<speed>1.380000</speed>
<extensions>
<speed>1.4</speed>
<temp>0.00</temp>
<bpm>0</bpm>
<rpm>0.00</rpm>
</extensions>
</trkpt>
<trkpt lat="63.966644287" lon="-21.945943832">
<ele>180.328125</ele>
<time>2012-07-28T18:47:46Z</time>
<speed>0.920000</speed>
<extensions>
<speed>0.9</speed>
<temp>0.00</temp>
<bpm>0</bpm>
<rpm>0.00</rpm>
</extensions>
</trkpt>
<trkpt lat="63.966682434" lon="-21.945976257">
<ele>180.050781</ele>
<time>2012-07-28T18:47:51Z</time>
<speed>1.000000</speed>
<extensions>
<speed>1.0</speed>
<temp>0.00</temp>
<bpm>0</bpm>
<rpm>0.00</rpm>
</extensions>
</trkpt>
<trkpt lat="63.966728210" lon="-21.946033478">
<ele>179.773438</ele>
<time>2012-07-28T18:47:56Z</time>
<speed>1.470000</speed>
<extensions>
<speed>1.5</speed>
<temp>0.00</temp>
<bpm>0</bpm>
<rpm>0.00</rpm>
</extensions>
</trkpt>
<trkpt lat="63.966804504" lon="-21.946138382">
<ele>179.410156</ele>
<time>2012-07-28T18:48:01Z</time>
<speed>2.610000</speed>
<extensions>
<speed>2.6</speed>
<temp>0.00</temp>
<bpm>0</bpm>
<rpm>0.00</rpm>
</extensions>
</trkpt>
<trkpt lat="63.966869354" lon="-21.946184158">
<ele>178.496094</ele>
<time>2012-07-28T18:48:06Z</time>
<speed>0.600000</speed>
<extensions>
<speed>0.6</speed>
<temp>0.00</temp>
<bpm>0</bpm>
<rpm>0.00</rpm>
</extensions>
</trkpt>
<trkpt lat="63.966876984" lon="-21.946184158">
<ele>178.000000</ele>
<time>2012-07-28T18:48:11Z</time>
<speed>0.020000</speed>
<extensions>
<speed>0.0</speed>
<temp>0.00</temp>
<bpm>0</bpm>
<rpm>0.00</rpm>
</extensions>
</trkpt>
<trkpt lat="63.966876984" lon="-21.946184158">
<ele>177.957031</ele>
<time>2012-07-28T18:48:16Z</time>
<extensions>
<speed>0.0</speed>
<temp>0.00</temp>
<bpm>0</bpm>
<rpm>0.00</rpm>
</extensions>
</trkpt>
<trkpt lat="63.966873169" lon="-21.946186066">
<ele>177.929688</ele>
<time>2012-07-28T18:48:21Z</time>
<speed>0.040000</speed>
<extensions>
<speed>0.0</speed>
<temp>0.00</temp>
<bpm>0</bpm>
<rpm>0.00</rpm>
</extensions>
</trkpt>
<trkpt lat="63.966876984" lon="-21.946184158">
<ele>177.890625</ele>
<time>2012-07-28T18:48:26Z</time>
<speed>0.020000</speed>
<extensions>
<speed>0.0</speed>
<temp>0.00</temp>
<bpm>0</bpm>
<rpm>0.00</rpm>
</extensions>
</trkpt>
<trkpt lat="63.966873169" lon="-21.946184158">
<ele>177.886719</ele>
<time>2012-07-28T18:48:31Z</time>
<extensions>
<speed>0.0</speed>
<temp>0.00</temp>
<bpm>0</bpm>
<rpm>0.00</rpm>
</extensions>
</trkpt>
<trkpt lat="63.966873169" lon="-21.946184158">
<ele>177.886719</ele>
<time>2012-07-28T18:48:36Z</time>
<speed>0.010000</speed>
<extensions>
<speed>0.0</speed>
<temp>0.00</temp>
<bpm>0</bpm>
<rpm>0.00</rpm>
</extensions>
</trkpt>
<trkpt lat="63.966873169" lon="-21.946184158">
<ele>177.886719</ele>
<time>2012-07-28T18:48:41Z</time>
<speed>0.020000</speed>
<extensions>
<speed>0.0</speed>
<temp>0.00</temp>
<bpm>0</bpm>
<rpm>0.00</rpm>
</extensions>
</trkpt>
<trkpt lat="63.966873169" lon="-21.946184158">
<ele>177.894531</ele>
<time>2012-07-28T18:48:46Z</time>
<speed>0.090000</speed>
<extensions>
<speed>0.1</speed>
<temp>0.00</temp>
<bpm>0</bpm>
<rpm>0.00</rpm>
</extensions>
</trkpt>
<trkpt lat="63.966896057" lon="-21.946260452">
<ele>177.902344</ele>
<time>2012-07-28T18:48:51Z</time>
<speed>1.640000</speed>
<extensions>
<speed>1.6</speed>
<temp>0.00</temp>
<bpm>0</bpm>
<rpm>0.00</rpm>
</extensions>
</trkpt>
<trkpt lat="63.966983795" lon="-21.946397781">
<ele>177.039063</ele>
<time>2012-07-28T18:48:56Z</time>
<speed>3.320000</speed>
<extensions>
<speed>3.3</speed>
<temp>0.00</temp>
<bpm>0</bpm>
<rpm>0.00</rpm>
</extensions>
</trkpt>
<trkpt lat="63.967166901" lon="-21.946605682">
<ele>174.484375</ele>
<time>2012-07-28T18:49:01Z</time>
<speed>5.870000</speed>
<extensions>
<speed>5.9</speed>
<temp>0.00</temp>
<bpm>0</bpm>
<rpm>0.00</rpm>
</extensions>
</trkpt>
<trkpt lat="63.967441559" lon="-21.946907043">
<ele>171.382813</ele>
<time>2012-07-28T18:49:06Z</time>
<speed>7.060000</speed>
<extensions>
<speed>7.1</speed>
<temp>0.00</temp>
<bpm>0</bpm>
<rpm>0.00</rpm>
</extensions>
</trkpt>
<trkpt lat="63.967754364" lon="-21.947376251">
<ele>166.167969</ele>
<time>2012-07-28T18:49:11Z</time>
<speed>9.490000</speed>
<extensions>
<speed>9.5</speed>
<temp>0.00</temp>
<bpm>0</bpm>
<rpm>0.00</rpm>
</extensions>
</trkpt>
<trkpt lat="63.968093872" lon="-21.948146820">
<ele>158.558594</ele>
<time>2012-07-28T18:49:16Z</time>
<speed>11.300000</speed>
<extensions>
<speed>11.3</speed>
<temp>0.00</temp>
<bpm>0</bpm>
<rpm>0.00</rpm>
</extensions>
</trkpt>
<trkpt lat="63.968486786" lon="-21.948923111">
<ele>152.644531</ele>
<time>2012-07-28T18:49:21Z</time>
<speed>11.050000</speed>
<extensions>
<speed>11.0</speed>
<temp>0.00</temp>
<bpm>0</bpm>
<rpm>0.00</rpm>
</extensions>
</trkpt>
<trkpt lat="63.968883514" lon="-21.949478149">
<ele>149.242188</ele>
<time>2012-07-28T18:49:26Z</time>
<speed>9.890000</speed>
<extensions>
<speed>9.9</speed>
<temp>0.00</temp>
<bpm>0</bpm>
<rpm>0.00</rpm>
</extensions>
</trkpt>
<trkpt lat="63.969318390" lon="-21.950027466">
<ele>140.984375</ele>
<time>2012-07-28T18:49:31Z</time>
<speed>12.550000</speed>
<extensions>
<speed>12.6</speed>
<temp>0.00</temp>
<bpm>0</bpm>
<rpm>0.00</rpm>
</extensions>
</trkpt>
<trkpt lat="63.969860077" lon="-21.950670242">
<ele>131.535156</ele>
<time>2012-07-28T18:49:36Z</time>
<speed>13.920000</speed>
<extensions>
<speed>13.9</speed>
<temp>0.00</temp>
<bpm>0</bpm>
<rpm>0.00</rpm>
</extensions>
</trkpt>
<trkpt lat="63.970397949" lon="-21.951204300">
<ele>127.322266</ele>
<time>2012-07-28T18:49:41Z</time>
<speed>11.860000</speed>
<extensions>
<speed>11.9</speed>
<temp>0.00</temp>
<bpm>0</bpm>
<rpm>0.00</rpm>
</extensions>
</trkpt>
<trkpt lat="63.970829010" lon="-21.951454163">
<ele>127.480469</ele>
<time>2012-07-28T18:49:46Z</time>
<speed>8.140000</speed>
<extensions>
<speed>8.1</speed>
<temp>0.00</temp>
<bpm>0</bpm>
<rpm>0.00</rpm>
</extensions>
</trkpt>
<trkpt lat="63.971134186" lon="-21.951601028">
<ele>128.007813</ele>
<time>2012-07-28T18:49:51Z</time>
<speed>5.850000</speed>
<extensions>
<speed>5.8</speed>
<temp>0.00</temp>
<bpm>0</bpm>
<rpm>0.00</rpm>
</extensions>
</trkpt>
<trkpt lat="63.971351624" lon="-21.951711655">
<ele>127.984375</ele>
<time>2012-07-28T18:49:56Z</time>
<speed>4.270000</speed>
<extensions>
<speed>4.3</speed>
<temp>0.00</temp>
<bpm>0</bpm>
<rpm>0.00</rpm>
</extensions>
</trkpt>
<trkpt lat="63.971511841" lon="-21.951770782">
<ele>127.841797</ele>
<time>2012-07-28T18:50:01Z</time>
<speed>3.140000</speed>
<extensions>
<speed>3.1</speed>
<temp>0.00</temp>
<bpm>0</bpm>
<rpm>0.00</rpm>
</extensions>
</trkpt>
<trkpt lat="63.971607208" lon="-21.951833725">
<ele>127.169922</ele>
<time>2012-07-28T18:50:06Z</time>
<speed>1.930000</speed>
<extensions>
<speed>1.9</speed>
<temp>0.00</temp>
<bpm>0</bpm>
<rpm>0.00</rpm>
</extensions>
</trkpt>
<trkpt lat="63.971725464" lon="-21.951879501">
<ele>127.431641</ele>
<time>2012-07-28T18:50:11Z</time>
<speed>3.020000</speed>
<extensions>
<speed>3.0</speed>
<temp>0.00</temp>
<bpm>0</bpm>
<rpm>0.00</rpm>
</extensions>
</trkpt>
<trkpt lat="63.971866608" lon="-21.951940536">
<ele>128.507813</ele>
<time>2012-07-28T18:50:16Z</time>
<speed>2.930000</speed>
<extensions>
<speed>2.9</speed>
<temp>0.00</temp>
<bpm>0</bpm>
<rpm>0.00</rpm>
</extensions>
</trkpt>
<trkpt lat="63.972000122" lon="-21.951997757">
<ele>129.753906</ele>
<time>2012-07-28T18:50:21Z</time>
<speed>2.990000</speed>
<extensions>
<speed>3.0</speed>
<temp>0.00</temp>
<bpm>0</bpm>
<rpm>0.00</rpm>
</extensions>
</trkpt>
<trkpt lat="63.972091675" lon="-21.952060699">
<ele>130.835938</ele>
<time>2012-07-28T18:50:26Z</time>
<speed>1.320000</speed>
<extensions>
<speed>1.3</speed>
<temp>0.00</temp>
<bpm>0</bpm>
<rpm>0.00</rpm>
</extensions>
</trkpt>
<trkpt lat="63.972141266" lon="-21.952146530">
<ele>130.781250</ele>
<time>2012-07-28T18:50:31Z</time>
<speed>2.070000</speed>
<extensions>
<speed>2.1</speed>
<temp>0.00</temp>
<bpm>0</bpm>
<rpm>0.00</rpm>
</extensions>
</trkpt>
<trkpt lat="63.972209930" lon="-21.952301025">
<ele>130.789063</ele>
<time>2012-07-28T18:50:36Z</time>
<speed>1.710000</speed>
<extensions>
<speed>1.7</speed>
<temp>0.00</temp>
<bpm>0</bpm>
<rpm>0.00</rpm>
</extensions>
</trkpt>
<trkpt lat="63.972293854" lon="-21.952333450">
<ele>131.078125</ele>
<time>2012-07-28T18:50:41Z</time>
<speed>2.490000</speed>
<extensions>
<speed>2.5</speed>
<temp>0.00</temp>
<bpm>0</bpm>
<rpm>0.00</rpm>
</extensions>
</trkpt>
<trkpt lat="63.972415924" lon="-21.952312469">
<ele>131.359375</ele>
<time>2012-07-28T18:50:46Z</time>
<speed>2.730000</speed>
<extensions>
<speed>2.7</speed>
<temp>0.00</temp>
<bpm>0</bpm>
<rpm>0.00</rpm>
</extensions>
</trkpt>
<trkpt lat="63.972530365" lon="-21.952383041">
<ele>131.574219</ele>
<time>2012-07-28T18:50:51Z</time>
<speed>2.520000</speed>
<extensions>
<speed>2.5</speed>
<temp>0.00</temp>
<bpm>0</bpm>
<rpm>0.00</rpm>
</extensions>
</trkpt>
<trkpt lat="63.972644806" lon="-21.952449799">
<ele>131.300781</ele>
<time>2012-07-28T18:50:56Z</time>
<speed>2.800000</speed>
<extensions>
<speed>2.8</speed>
<temp>0.00</temp>
<bpm>0</bpm>
<rpm>0.00</rpm>
</extensions>
</trkpt>
<trkpt lat="63.972770691" lon="-21.952489853">
<ele>131.785156</ele>
<time>2012-07-28T18:51:01Z</time>
<speed>2.720000</speed>
<extensions>
<speed>2.7</speed>
<temp>0.00</temp>
<bpm>0</bpm>
<rpm>0.00</rpm>
</extensions>
</trkpt>
<trkpt lat="63.972904205" lon="-21.952556610">
<ele>131.539063</ele>
<time>2012-07-28T18:51:06Z</time>
<speed>3.290000</speed>
<extensions>
<speed>3.3</speed>
<temp>0.00</temp>
<bpm>0</bpm>
<rpm>0.00</rpm>
</extensions>
</trkpt>
<trkpt lat="63.973037720" lon="-21.952650070">
<ele>131.683594</ele>
<time>2012-07-28T18:51:11Z</time>
<speed>2.790000</speed>
<extensions>
<speed>2.8</speed>
<temp>0.00</temp>
<bpm>0</bpm>
<rpm>0.00</rpm>
</extensions>
</trkpt>
<trkpt lat="63.973152161" lon="-21.952726364">
<ele>131.707031</ele>
<time>2012-07-28T18:51:16Z</time>
<speed>2.720000</speed>
<extensions>
<speed>2.7</speed>
<temp>0.00</temp>
<bpm>0</bpm>
<rpm>0.00</rpm>
</extensions>
</trkpt>
<trkpt lat="63.973285675" lon="-21.952772141">
<ele>131.238281</ele>
<time>2012-07-28T18:51:21Z</time>
<speed>2.790000</speed>
<extensions>
<speed>2.8</speed>
<temp>0.00</temp>
<bpm>0</bpm>
<rpm>0.00</rpm>
</extensions>
</trkpt>
<trkpt lat="63.973411560" lon="-21.952823639">
<ele>131.003906</ele>
<time>2012-07-28T18:51:26Z</time>
<speed>3.000000</speed>
<extensions>
<speed>3.0</speed>
<temp>0.00</temp>
<bpm>0</bpm>
<rpm>0.00</rpm>
</extensions>
</trkpt>
<trkpt lat="63.973529816" lon="-21.952884674">
<ele>130.960938</ele>
<time>2012-07-28T18:51:31Z</time>
<speed>2.450000</speed>
<extensions>
<speed>2.4</speed>
<temp>0.00</temp>
<bpm>0</bpm>
<rpm>0.00</rpm>
</extensions>
</trkpt>
<trkpt lat="63.973644257" lon="-21.952943802">
<ele>130.699219</ele>
<time>2012-07-28T18:51:36Z</time>
<speed>2.710000</speed>
<extensions>
<speed>2.7</speed>
<temp>0.00</temp>
<bpm>0</bpm>
<rpm>0.00</rpm>
</extensions>
</trkpt>
<trkpt lat="63.973777771" lon="-21.952991486">
<ele>130.078125</ele>
<time>2012-07-28T18:51:41Z</time>
<speed>3.450000</speed>
<extensions>
<speed>3.5</speed>
<temp>0.00</temp>
<bpm>0</bpm>
<rpm>0.00</rpm>
</extensions>
</trkpt>
<trkpt lat="63.973953247" lon="-21.953016281">
<ele>129.062500</ele>
<time>2012-07-28T18:51:46Z</time>
<speed>4.480000</speed>
<extensions>
<speed>4.5</speed>
<temp>0.00</temp>
<bpm>0</bpm>
<rpm>0.00</rpm>
</extensions>
</trkpt>
<trkpt lat="63.974201202" lon="-21.953002930">
<ele>127.285156</ele>
<time>2012-07-28T18:51:51Z</time>
<speed>6.640000</speed>
<extensions>
<speed>6.6</speed>
<temp>0.00</temp>
<bpm>0</bpm>
<rpm>0.00</rpm>
</extensions>
</trkpt>
<trkpt lat="63.974529266" lon="-21.952928543">
<ele>125.941406</ele>
<time>2012-07-28T18:51:56Z</time>
<speed>7.620000</speed>
<extensions>
<speed>7.6</speed>
<temp>0.00</temp>
<bpm>0</bpm>
<rpm>0.00</rpm>
</extensions>
</trkpt>
<trkpt lat="63.974864960" lon="-21.952817917">
<ele>126.283203</ele>
<time>2012-07-28T18:52:01Z</time>
<speed>6.600000</speed>
<extensions>
<speed>6.6</speed>
<temp>0.00</temp>
<bpm>0</bpm>
<rpm>0.00</rpm>
</extensions>
</trkpt>
<trkpt lat="63.975124359" lon="-21.952724457">
<ele>127.896484</ele>
<time>2012-07-28T18:52:06Z</time>
<speed>4.920000</speed>
<extensions>
<speed>4.9</speed>
<temp>0.00</temp>
<bpm>0</bpm>
<rpm>0.00</rpm>
</extensions>
</trkpt>
<trkpt lat="63.975296021" lon="-21.952650070">
<ele>128.851563</ele>
<time>2012-07-28T18:52:11Z</time>
<speed>3.750000</speed>
<extensions>
<speed>3.8</speed>
<temp>0.00</temp>
<bpm>0</bpm>
<rpm>0.00</rpm>
</extensions>
</trkpt>
<trkpt lat="63.975467682" lon="-21.952585220">
<ele>129.640625</ele>
<time>2012-07-28T18:52:16Z</time>
<speed>3.990000</speed>
<extensions>
<speed>4.0</speed>
<temp>0.00</temp>
<bpm>0</bpm>
<rpm>0.00</rpm>
</extensions>
</trkpt>
<trkpt lat="63.975646973" lon="-21.952518463">
<ele>130.015625</ele>
<time>2012-07-28T18:52:21Z</time>
<speed>4.200000</speed>
<extensions>
<speed>4.2</speed>
<temp>0.00</temp>
<bpm>0</bpm>
<rpm>0.00</rpm>
</extensions>
</trkpt>
<trkpt lat="63.975803375" lon="-21.952487946">
<ele>130.292969</ele>
<time>2012-07-28T18:52:26Z</time>
<speed>3.160000</speed>
<extensions>
<speed>3.2</speed>
<temp>0.00</temp>
<bpm>0</bpm>
<rpm>0.00</rpm>
</extensions>
</trkpt>
<trkpt lat="63.975925446" lon="-21.952449799">
<ele>129.941406</ele>
<time>2012-07-28T18:52:31Z</time>
<speed>2.960000</speed>
<extensions>
<speed>3.0</speed>
<temp>0.00</temp>
<bpm>0</bpm>
<rpm>0.00</rpm>
</extensions>
</trkpt>
<trkpt lat="63.976066589" lon="-21.952398300">
<ele>129.800781</ele>
<time>2012-07-28T18:52:36Z</time>
<speed>3.430000</speed>
<extensions>
<speed>3.4</speed>
<temp>0.00</temp>
<bpm>0</bpm>
<rpm>0.00</rpm>
</extensions>
</trkpt>
<trkpt lat="63.976226807" lon="-21.952342987">
<ele>129.277344</ele>
<time>2012-07-28T18:52:41Z</time>
<speed>3.510000</speed>
<extensions>
<speed>3.5</speed>
<temp>0.00</temp>
<bpm>0</bpm>
<rpm>0.00</rpm>
</extensions>
</trkpt>
<trkpt lat="63.976371765" lon="-21.952293396">
<ele>129.023438</ele>
<time>2012-07-28T18:52:46Z</time>
<speed>3.330000</speed>
<extensions>
<speed>3.3</speed>
<temp>0.00</temp>
<bpm>0</bpm>
<rpm>0.00</rpm>
</extensions>
</trkpt>
<trkpt lat="63.976524353" lon="-21.952228546">
<ele>128.617188</ele>
<time>2012-07-28T18:52:51Z</time>
<speed>3.630000</speed>
<extensions>
<speed>3.6</speed>
<temp>0.00</temp>
<bpm>0</bpm>
<rpm>0.00</rpm>
</extensions>
</trkpt>
<trkpt lat="63.976696014" lon="-21.952175140">
<ele>128.042969</ele>
<time>2012-07-28T18:52:56Z</time>
<speed>4.130000</speed>
<extensions>
<speed>4.1</speed>
<temp>0.00</temp>
<bpm>0</bpm>
<rpm>0.00</rpm>
</extensions>
</trkpt>
<trkpt lat="63.976894379" lon="-21.952112198">
<ele>127.380859</ele>
<time>2012-07-28T18:53:01Z</time>
<speed>4.800000</speed>
<extensions>
<speed>4.8</speed>
<temp>0.00</temp>
<bpm>0</bpm>
<rpm>0.00</rpm>
</extensions>
</trkpt>
<trkpt lat="63.977123260" lon="-21.952051163">
<ele>125.982422</ele>
<time>2012-07-28T18:53:06Z</time>
<speed>5.440000</speed>
<extensions>
<speed>5.4</speed>
<temp>0.00</temp>
<bpm>0</bpm>
<rpm>0.00</rpm>
</extensions>
</trkpt>
<trkpt lat="63.977375031" lon="-21.951946259">
<ele>125.328125</ele>
<time>2012-07-28T18:53:11Z</time>
<speed>5.600000</speed>
<extensions>
<speed>5.6</speed>
<temp>0.00</temp>
<bpm>0</bpm>
<rpm>0.00</rpm>
</extensions>
</trkpt>
<trkpt lat="63.977607727" lon="-21.951868057">
<ele>125.042969</ele>
<time>2012-07-28T18:53:16Z</time>
<speed>5.100000</speed>
<extensions>
<speed>5.1</speed>
<temp>0.00</temp>
<bpm>0</bpm>
<rpm>0.00</rpm>
</extensions>
</trkpt>
<trkpt lat="63.977832794" lon="-21.951789856">
<ele>124.080078</ele>
<time>2012-07-28T18:53:21Z</time>
<speed>4.990000</speed>
<extensions>
<speed>5.0</speed>
<temp>0.00</temp>
<bpm>0</bpm>
<rpm>0.00</rpm>
</extensions>
</trkpt>
<trkpt lat="63.978054047" lon="-21.951679230">
<ele>123.400391</ele>
<time>2012-07-28T18:53:26Z</time>
<speed>5.140000</speed>
<extensions>
<speed>5.1</speed>
<temp>0.00</temp>
<bpm>0</bpm>
<rpm>0.00</rpm>
</extensions>
</trkpt>
<trkpt lat="63.978282928" lon="-21.951614380">
<ele>123.617188</ele>
<time>2012-07-28T18:53:31Z</time>
<speed>5.310000</speed>
<extensions>
<speed>5.3</speed>
<temp>0.00</temp>
<bpm>0</bpm>
<rpm>0.00</rpm>
</extensions>
</trkpt>
<trkpt lat="63.978534698" lon="-21.951507568">
<ele>122.152344</ele>
<time>2012-07-28T18:53:36Z</time>
<speed>5.930000</speed>
<extensions>
<speed>5.9</speed>
<temp>0.00</temp>
<bpm>0</bpm>
<rpm>0.00</rpm>
</extensions>
</trkpt>
<trkpt lat="63.978805542" lon="-21.951427460">
<ele>120.324219</ele>
<time>2012-07-28T18:53:41Z</time>
<speed>6.300000</speed>
<extensions>
<speed>6.3</speed>
<temp>0.00</temp>
<bpm>0</bpm>
<rpm>0.00</rpm>
</extensions>
</trkpt>
<trkpt lat="63.979095459" lon="-21.951313019">
<ele>118.458984</ele>
<time>2012-07-28T18:53:46Z</time>
<speed>6.700000</speed>
<extensions>
<speed>6.7</speed>
<temp>0.00</temp>
<bpm>0</bpm>
<rpm>0.00</rpm>
</extensions>
</trkpt>
<trkpt lat="63.979408264" lon="-21.951225281">
<ele>117.337891</ele>
<time>2012-07-28T18:53:51Z</time>
<speed>7.100000</speed>
<extensions>
<speed>7.1</speed>
<temp>0.00</temp>
<bpm>0</bpm>
<rpm>0.00</rpm>
</extensions>
</trkpt>
<trkpt lat="63.979721069" lon="-21.951139450">
<ele>117.390625</ele>
<time>2012-07-28T18:53:56Z</time>
<speed>6.730000</speed>
<extensions>
<speed>6.7</speed>
<temp>0.00</temp>
<bpm>0</bpm>
<rpm>0.00</rpm>
</extensions>
</trkpt>
<trkpt lat="63.980010986" lon="-21.951053619">
<ele>117.755859</ele>
<time>2012-07-28T18:54:01Z</time>
<speed>6.350000</speed>
<extensions>
<speed>6.4</speed>
<temp>0.00</temp>
<bpm>0</bpm>
<rpm>0.00</rpm>
</extensions>
</trkpt>
<trkpt lat="63.980270386" lon="-21.950977325">
<ele>117.937500</ele>
<time>2012-07-28T18:54:06Z</time>
<speed>5.570000</speed>
<extensions>
<speed>5.6</speed>
<temp>0.00</temp>
<bpm>0</bpm>
<rpm>0.00</rpm>
</extensions>
</trkpt>
<trkpt lat="63.980514526" lon="-21.950912476">
<ele>117.294922</ele>
<time>2012-07-28T18:54:11Z</time>
<speed>5.330000</speed>
<extensions>
<speed>5.3</speed>
<temp>0.00</temp>
<bpm>0</bpm>
<rpm>0.00</rpm>
</extensions>
</trkpt>
<trkpt lat="63.980758667" lon="-21.950809479">
<ele>116.273438</ele>
<time>2012-07-28T18:54:16Z</time>
<speed>6.030000</speed>
<extensions>
<speed>6.0</speed>
<temp>0.00</temp>
<bpm>0</bpm>
<rpm>0.00</rpm>
</extensions>
</trkpt>
<trkpt lat="63.981048584" lon="-21.950721741">
<ele>115.050781</ele>
<time>2012-07-28T18:54:21Z</time>
<speed>6.860000</speed>
<extensions>
<speed>6.9</speed>
<temp>0.00</temp>
<bpm>0</bpm>
<rpm>0.00</rpm>
</extensions>
</trkpt>
<trkpt lat="63.981361389" lon="-21.950601578">
<ele>113.267578</ele>
<time>2012-07-28T18:54:26Z</time>
<speed>7.350000</speed>
<extensions>
<speed>7.3</speed>
<temp>0.00</temp>
<bpm>0</bpm>
<rpm>0.00</rpm>
</extensions>
</trkpt>
<trkpt lat="63.981681824" lon="-21.950502396">
<ele>111.816406</ele>
<time>2012-07-28T18:54:31Z</time>
<speed>6.930000</speed>
<extensions>
<speed>6.9</speed>
<temp>0.00</temp>
<bpm>0</bpm>
<rpm>0.00</rpm>
</extensions>
</trkpt>
<trkpt lat="63.981964111" lon="-21.950422287">
<ele>111.785156</ele>
<time>2012-07-28T18:54:36Z</time>
<speed>5.720000</speed>
<extensions>
<speed>5.7</speed>
<temp>0.00</temp>
<bpm>0</bpm>
<rpm>0.00</rpm>
</extensions>
</trkpt>
<trkpt lat="63.982215881" lon="-21.950323105">
<ele>112.103516</ele>
<time>2012-07-28T18:54:41Z</time>
<speed>5.760000</speed>
<extensions>
<speed>5.8</speed>
<temp>0.00</temp>
<bpm>0</bpm>
<rpm>0.00</rpm>
</extensions>
</trkpt>
<trkpt lat="63.982475281" lon="-21.950231552">
<ele>111.968750</ele>
<time>2012-07-28T18:54:46Z</time>
<speed>5.920000</speed>
<extensions>
<speed>5.9</speed>
<temp>0.00</temp>
<bpm>0</bpm>
<rpm>0.00</rpm>
</extensions>
</trkpt>
<trkpt lat="63.982730865" lon="-21.950151443">
<ele>111.402344</ele>
<time>2012-07-28T18:54:51Z</time>
<speed>5.420000</speed>
<extensions>
<speed>5.4</speed>
<temp>0.00</temp>
<bpm>0</bpm>
<rpm>0.00</rpm>
</extensions>
</trkpt>
<trkpt lat="63.982986450" lon="-21.950065613">
<ele>110.347656</ele>
<time>2012-07-28T18:54:56Z</time>
<speed>6.150000</speed>
<extensions>
<speed>6.1</speed>
<temp>0.00</temp>
<bpm>0</bpm>
<rpm>0.00</rpm>
</extensions>
</trkpt>
<trkpt lat="63.983272552" lon="-21.949977875">
<ele>109.933594</ele>
<time>2012-07-28T18:55:01Z</time>
<speed>6.350000</speed>
<extensions>
<speed>6.4</speed>
<temp>0.00</temp>
<bpm>0</bpm>
<rpm>0.00</rpm>
</extensions>
</trkpt>
<trkpt lat="63.983558655" lon="-21.949884415">
<ele>109.218750</ele>
<time>2012-07-28T18:55:06Z</time>
<speed>6.310000</speed>
<extensions>
<speed>6.3</speed>
<temp>0.00</temp>
<bpm>0</bpm>
<rpm>0.00</rpm>
</extensions>
</trkpt>
<trkpt lat="63.983833313" lon="-21.949789047">
<ele>108.400391</ele>
<time>2012-07-28T18:55:11Z</time>
<speed>5.940000</speed>
<extensions>
<speed>5.9</speed>
<temp>0.00</temp>
<bpm>0</bpm>
<rpm>0.00</rpm>
</extensions>
</trkpt>
<trkpt lat="63.984085083" lon="-21.949708939">
<ele>107.599609</ele>
<time>2012-07-28T18:55:16Z</time>
<speed>5.600000</speed>
<extensions>
<speed>5.6</speed>
<temp>0.00</temp>
<bpm>0</bpm>
<rpm>0.00</rpm>
</extensions>
</trkpt>
<trkpt lat="63.984329224" lon="-21.949630737">
<ele>107.037109</ele>
<time>2012-07-28T18:55:21Z</time>
<speed>5.700000</speed>
<extensions>
<speed>5.7</speed>
<temp>0.00</temp>
<bpm>0</bpm>
<rpm>0.00</rpm>
</extensions>
</trkpt>
<trkpt lat="63.984603882" lon="-21.949539185">
<ele>106.515625</ele>
<time>2012-07-28T18:55:26Z</time>
<speed>6.340000</speed>
<extensions>
<speed>6.3</speed>
<temp>0.00</temp>
<bpm>0</bpm>
<rpm>0.00</rpm>
</extensions>
</trkpt>
<trkpt lat="63.984897614" lon="-21.949451447">
<ele>106.208984</ele>
<time>2012-07-28T18:55:31Z</time>
<speed>6.600000</speed>
<extensions>
<speed>6.6</speed>
<temp>0.00</temp>
<bpm>0</bpm>
<rpm>0.00</rpm>
</extensions>
</trkpt>
<trkpt lat="63.985198975" lon="-21.949354172">
<ele>105.353516</ele>
<time>2012-07-28T18:55:36Z</time>
<speed>6.920000</speed>
<extensions>
<speed>6.9</speed>
<temp>0.00</temp>
<bpm>0</bpm>
<rpm>0.00</rpm>
</extensions>
</trkpt>
<trkpt lat="63.985492706" lon="-21.949247360">
<ele>104.957031</ele>
<time>2012-07-28T18:55:41Z</time>
<speed>6.220000</speed>
<extensions>
<speed>6.2</speed>
<temp>0.00</temp>
<bpm>0</bpm>
<rpm>0.00</rpm>
</extensions>
</trkpt>
<trkpt lat="63.985748291" lon="-21.949157715">
<ele>104.246094</ele>
<time>2012-07-28T18:55:46Z</time>
<speed>5.590000</speed>
<extensions>
<speed>5.6</speed>
<temp>0.00</temp>
<bpm>0</bpm>
<rpm>0.00</rpm>
</extensions>
</trkpt>
<trkpt lat="63.986015320" lon="-21.949087143">
<ele>104.039063</ele>
<time>2012-07-28T18:55:51Z</time>
<speed>5.980000</speed>
<extensions>
<speed>6.0</speed>
<temp>0.00</temp>
<bpm>0</bpm>
<rpm>0.00</rpm>
</extensions>
</trkpt>
<trkpt lat="63.986282349" lon="-21.948991776">
<ele>104.035156</ele>
<time>2012-07-28T18:55:56Z</time>
<speed>6.330000</speed>
<extensions>
<speed>6.3</speed>
<temp>0.00</temp>
<bpm>0</bpm>
<rpm>0.00</rpm>
</extensions>
</trkpt>
<trkpt lat="63.986564636" lon="-21.948890686">
<ele>104.068359</ele>
<time>2012-07-28T18:56:01Z</time>
<speed>6.300000</speed>
<extensions>
<speed>6.3</speed>
<temp>0.00</temp>
<bpm>0</bpm>
<rpm>0.00</rpm>
</extensions>
</trkpt>
<trkpt lat="63.986816406" lon="-21.948804855">
<ele>103.957031</ele>
<time>2012-07-28T18:56:06Z</time>
<speed>4.960000</speed>
<extensions>
<speed>5.0</speed>
<temp>0.00</temp>
<bpm>0</bpm>
<rpm>0.00</rpm>
</extensions>
</trkpt>
<trkpt lat="63.987037659" lon="-21.948732376">
<ele>104.109375</ele>
<time>2012-07-28T18:56:11Z</time>
<speed>5.180000</speed>
<extensions>
<speed>5.2</speed>
<temp>0.00</temp>
<bpm>0</bpm>
<rpm>0.00</rpm>
</extensions>
</trkpt>
<trkpt lat="63.987277985" lon="-21.948659897">
<ele>104.347656</ele>
<time>2012-07-28T18:56:16Z</time>
<speed>5.770000</speed>
<extensions>
<speed>5.8</speed>
<temp>0.00</temp>
<bpm>0</bpm>
<rpm>0.00</rpm>
</extensions>
</trkpt>
<trkpt lat="63.987545013" lon="-21.948587418">
<ele>104.445313</ele>
<time>2012-07-28T18:56:21Z</time>
<speed>6.140000</speed>
<extensions>
<speed>6.1</speed>
<temp>0.00</temp>
<bpm>0</bpm>
<rpm>0.00</rpm>
</extensions>
</trkpt>
<trkpt lat="63.987808228" lon="-21.948495865">
<ele>104.337891</ele>
<time>2012-07-28T18:56:26Z</time>
<speed>6.090000</speed>
<extensions>
<speed>6.1</speed>
<temp>0.00</temp>
<bpm>0</bpm>
<rpm>0.00</rpm>
</extensions>
</trkpt>
<trkpt lat="63.988086700" lon="-21.948404312">
<ele>104.531250</ele>
<time>2012-07-28T18:56:31Z</time>
<speed>6.460000</speed>
<extensions>
<speed>6.5</speed>
<temp>0.00</temp>
<bpm>0</bpm>
<rpm>0.00</rpm>
</extensions>
</trkpt>
<trkpt lat="63.988353729" lon="-21.948318481">
<ele>104.175781</ele>
<time>2012-07-28T18:56:36Z</time>
<speed>5.340000</speed>
<extensions>
<speed>5.3</speed>
<temp>0.00</temp>
<bpm>0</bpm>
<rpm>0.00</rpm>
</extensions>
</trkpt>
<trkpt lat="63.988590240" lon="-21.948232651">
<ele>103.435547</ele>
<time>2012-07-28T18:56:41Z</time>
<speed>5.620000</speed>
<extensions>
<speed>5.6</speed>
<temp>0.00</temp>
<bpm>0</bpm>
<rpm>0.00</rpm>
</extensions>
</trkpt>
<trkpt lat="63.988826752" lon="-21.948148727">
<ele>103.210938</ele>
<time>2012-07-28T18:56:46Z</time>
<speed>4.900000</speed>
<extensions>
<speed>4.9</speed>
<temp>0.00</temp>
<bpm>0</bpm>
<rpm>0.00</rpm>
</extensions>
</trkpt>
<trkpt lat="63.989036560" lon="-21.948076248">
<ele>102.912109</ele>
<time>2012-07-28T18:56:51Z</time>
<speed>4.970000</speed>
<extensions>
<speed>5.0</speed>
<temp>0.00</temp>
<bpm>0</bpm>
<rpm>0.00</rpm>
</extensions>
</trkpt>
<trkpt lat="63.989261627" lon="-21.948015213">
<ele>104.236328</ele>
<time>2012-07-28T18:56:56Z</time>
<speed>4.780000</speed>
<extensions>
<speed>4.8</speed>
<temp>0.00</temp>
<bpm>0</bpm>
<rpm>0.00</rpm>
</extensions>
</trkpt>
<trkpt lat="63.989456177" lon="-21.947961807">
<ele>104.238281</ele>
<time>2012-07-28T18:57:01Z</time>
<speed>3.800000</speed>
<extensions>
<speed>3.8</speed>
<temp>0.00</temp>
<bpm>0</bpm>
<rpm>0.00</rpm>
</extensions>
</trkpt>
<trkpt lat="63.989643097" lon="-21.947906494">
<ele>104.255859</ele>
<time>2012-07-28T18:57:06Z</time>
<speed>4.630000</speed>
<extensions>
<speed>4.6</speed>
<temp>0.00</temp>
<bpm>0</bpm>
<rpm>0.00</rpm>
</extensions>
</trkpt>
<trkpt lat="63.989856720" lon="-21.947847366">
<ele>103.916016</ele>
<time>2012-07-28T18:57:11Z</time>
<speed>4.600000</speed>
<extensions>
<speed>4.6</speed>
<temp>0.00</temp>
<bpm>0</bpm>
<rpm>0.00</rpm>
</extensions>
</trkpt>
<trkpt lat="63.990058899" lon="-21.947793961">
<ele>104.218750</ele>
<time>2012-07-28T18:57:16Z</time>
<speed>4.160000</speed>
<extensions>
<speed>4.2</speed>
<temp>0.00</temp>
<bpm>0</bpm>
<rpm>0.00</rpm>
</extensions>
</trkpt>
<trkpt lat="63.990253448" lon="-21.947734833">
<ele>103.978516</ele>
<time>2012-07-28T18:57:21Z</time>
<speed>4.690000</speed>
<extensions>
<speed>4.7</speed>
<temp>0.00</temp>
<bpm>0</bpm>
<rpm>0.00</rpm>
</extensions>
</trkpt>
<trkpt lat="63.990455627" lon="-21.947673798">
<ele>104.072266</ele>
<time>2012-07-28T18:57:26Z</time>
<speed>4.540000</speed>
<extensions>
<speed>4.5</speed>
<temp>0.00</temp>
<bpm>0</bpm>
<rpm>0.00</rpm>
</extensions>
</trkpt>
<trkpt lat="63.990653992" lon="-21.947599411">
<ele>103.966797</ele>
<time>2012-07-28T18:57:31Z</time>
<speed>4.530000</speed>
<extensions>
<speed>4.5</speed>
<temp>0.00</temp>
<bpm>0</bpm>
<rpm>0.00</rpm>
</extensions>
</trkpt>
<trkpt lat="63.990848541" lon="-21.947555542">
<ele>103.673828</ele>
<time>2012-07-28T18:57:36Z</time>
<speed>4.370000</speed>
<extensions>
<speed>4.4</speed>
<temp>0.00</temp>
<bpm>0</bpm>
<rpm>0.00</rpm>
</extensions>
</trkpt>
<trkpt lat="63.991046906" lon="-21.947494507">
<ele>103.384766</ele>
<time>2012-07-28T18:57:41Z</time>
<speed>4.260000</speed>
<extensions>
<speed>4.3</speed>
<temp>0.00</temp>
<bpm>0</bpm>
<rpm>0.00</rpm>
</extensions>
</trkpt>
<trkpt lat="63.991256714" lon="-21.947395325">
<ele>103.458984</ele>
<time>2012-07-28T18:57:46Z</time>
<speed>5.290000</speed>
<extensions>
<speed>5.3</speed>
<temp>0.00</temp>
<bpm>0</bpm>
<rpm>0.00</rpm>
</extensions>
</trkpt>
<trkpt lat="63.991489410" lon="-21.947319031">
<ele>102.119141</ele>
<time>2012-07-28T18:57:51Z</time>
<speed>5.340000</speed>
<extensions>
<speed>5.3</speed>
<temp>0.00</temp>
<bpm>0</bpm>
<rpm>0.00</rpm>
</extensions>
</trkpt>
<trkpt lat="63.991756439" lon="-21.947227478">
<ele>101.339844</ele>
<time>2012-07-28T18:57:56Z</time>
<speed>5.960000</speed>
<extensions>
<speed>6.0</speed>
<temp>0.00</temp>
<bpm>0</bpm>
<rpm>0.00</rpm>
</extensions>
</trkpt>
<trkpt lat="63.992034912" lon="-21.947156906">
<ele>100.683594</ele>
<time>2012-07-28T18:58:01Z</time>
<speed>6.050000</speed>
<extensions>
<speed>6.1</speed>
<temp>0.00</temp>
<bpm>0</bpm>
<rpm>0.00</rpm>
</extensions>
</trkpt>
<trkpt lat="63.992305756" lon="-21.947052002">
<ele>100.648438</ele>
<time>2012-07-28T18:58:06Z</time>
<speed>6.050000</speed>
<extensions>
<speed>6.1</speed>
<temp>0.00</temp>
<bpm>0</bpm>
<rpm>0.00</rpm>
</extensions>
</trkpt>
<trkpt lat="63.992561340" lon="-21.946975708">
<ele>100.160156</ele>
<time>2012-07-28T18:58:11Z</time>
<speed>5.380000</speed>
<extensions>
<speed>5.4</speed>
<temp>0.00</temp>
<bpm>0</bpm>
<rpm>0.00</rpm>
</extensions>
</trkpt>
<trkpt lat="63.992805481" lon="-21.946901321">
<ele>99.722656</ele>
<time>2012-07-28T18:58:16Z</time>
<speed>5.540000</speed>
<extensions>
<speed>5.5</speed>
<temp>0.00</temp>
<bpm>0</bpm>
<rpm>0.00</rpm>
</extensions>
</trkpt>
<trkpt lat="63.993038177" lon="-21.946807861">
<ele>99.367188</ele>
<time>2012-07-28T18:58:21Z</time>
<speed>5.000000</speed>
<extensions>
<speed>5.0</speed>
<temp>0.00</temp>
<bpm>0</bpm>
<rpm>0.00</rpm>
</extensions>
</trkpt>
<trkpt lat="63.993286133" lon="-21.946727753">
<ele>99.025391</ele>
<time>2012-07-28T18:58:26Z</time>
<speed>5.610000</speed>
<extensions>
<speed>5.6</speed>
<temp>0.00</temp>
<bpm>0</bpm>
<rpm>0.00</rpm>
</extensions>
</trkpt>
<trkpt lat="63.993534088" lon="-21.946657181">
<ele>98.439453</ele>
<time>2012-07-28T18:58:31Z</time>
<speed>5.770000</speed>
<extensions>
<speed>5.8</speed>
<temp>0.00</temp>
<bpm>0</bpm>
<rpm>0.00</rpm>
</extensions>
</trkpt>
<trkpt lat="63.993801117" lon="-21.946559906">
<ele>97.681641</ele>
<time>2012-07-28T18:58:36Z</time>
<speed>6.260000</speed>
<extensions>
<speed>6.3</speed>
<temp>0.00</temp>
<bpm>0</bpm>
<rpm>0.00</rpm>
</extensions>
</trkpt>
<trkpt lat="63.994091034" lon="-21.946458817">
<ele>96.248047</ele>
<time>2012-07-28T18:58:41Z</time>
<speed>6.870000</speed>
<extensions>
<speed>6.9</speed>
<temp>0.00</temp>
<bpm>0</bpm>
<rpm>0.00</rpm>
</extensions>
</trkpt>
<trkpt lat="63.994403839" lon="-21.946348190">
<ele>95.099609</ele>
<time>2012-07-28T18:58:46Z</time>
<speed>7.000000</speed>
<extensions>
<speed>7.0</speed>
<temp>0.00</temp>
<bpm>0</bpm>
<rpm>0.00</rpm>
</extensions>
</trkpt>
<trkpt lat="63.994720459" lon="-21.946252823">
<ele>93.714844</ele>
<time>2012-07-28T18:58:51Z</time>
<speed>7.210000</speed>
<extensions>
<speed>7.2</speed>
<temp>0.00</temp>
<bpm>0</bpm>
<rpm>0.00</rpm>
</extensions>
</trkpt>
<trkpt lat="63.995059967" lon="-21.946147919">
<ele>93.205078</ele>
<time>2012-07-28T18:58:56Z</time>
<speed>7.790000</speed>
<extensions>
<speed>7.8</speed>
<temp>0.00</temp>
<bpm>0</bpm>
<rpm>0.00</rpm>
</extensions>
</trkpt>
<trkpt lat="63.995391846" lon="-21.946012497">
<ele>92.628906</ele>
<time>2012-07-28T18:59:01Z</time>
<speed>7.070000</speed>
<extensions>
<speed>7.1</speed>
<temp>0.00</temp>
<bpm>0</bpm>
<rpm>0.00</rpm>
</extensions>
</trkpt>
<trkpt lat="63.995674133" lon="-21.945926666">
<ele>93.968750</ele>
<time>2012-07-28T18:59:06Z</time>
<speed>5.630000</speed>
<extensions>
<speed>5.6</speed>
<temp>0.00</temp>
<bpm>0</bpm>
<rpm>0.00</rpm>
</extensions>
</trkpt>
<trkpt lat="63.995895386" lon="-21.945871353">
<ele>94.753906</ele>
<time>2012-07-28T18:59:11Z</time>
<speed>4.590000</speed>
<extensions>
<speed>4.6</speed>
<temp>0.00</temp>
<bpm>0</bpm>
<rpm>0.00</rpm>
</extensions>
</trkpt>
<trkpt lat="63.996086121" lon="-21.945808411">
<ele>94.871094</ele>
<time>2012-07-28T18:59:16Z</time>
<speed>4.270000</speed>
<extensions>
<speed>4.3</speed>
<temp>0.00</temp>
<bpm>0</bpm>
<rpm>0.00</rpm>
</extensions>
</trkpt>
<trkpt lat="63.996276855" lon="-21.945749283">
<ele>95.312500</ele>
<time>2012-07-28T18:59:21Z</time>
<speed>4.210000</speed>
<extensions>
<speed>4.2</speed>
<temp>0.00</temp>
<bpm>0</bpm>
<rpm>0.00</rpm>
</extensions>
</trkpt>
<trkpt lat="63.996459961" lon="-21.945676804">
<ele>95.236328</ele>
<time>2012-07-28T18:59:26Z</time>
<speed>4.100000</speed>
<extensions>
<speed>4.1</speed>
<temp>0.00</temp>
<bpm>0</bpm>
<rpm>0.00</rpm>
</extensions>
</trkpt>
<trkpt lat="63.996639252" lon="-21.945627213">
<ele>95.687500</ele>
<time>2012-07-28T18:59:31Z</time>
<speed>4.040000</speed>
<extensions>
<speed>4.0</speed>
<temp>0.00</temp>
<bpm>0</bpm>
<rpm>0.00</rpm>
</extensions>
</trkpt>
<trkpt lat="63.996845245" lon="-21.945562363">
<ele>94.943359</ele>
<time>2012-07-28T18:59:36Z</time>
<speed>4.850000</speed>
<extensions>
<speed>4.8</speed>
<temp>0.00</temp>
<bpm>0</bpm>
<rpm>0.00</rpm>
</extensions>
</trkpt>
<trkpt lat="63.997058868" lon="-21.945524216">
<ele>95.675781</ele>
<time>2012-07-28T18:59:41Z</time>
<speed>5.000000</speed>
<extensions>
<speed>5.0</speed>
<temp>0.00</temp>
<bpm>0</bpm>
<rpm>0.00</rpm>
</extensions>
</trkpt>
<trkpt lat="63.997291565" lon="-21.945453644">
<ele>96.087891</ele>
<time>2012-07-28T18:59:46Z</time>
<speed>5.470000</speed>
<extensions>
<speed>5.5</speed>
<temp>0.00</temp>
<bpm>0</bpm>
<rpm>0.00</rpm>
</extensions>
</trkpt>
<trkpt lat="63.997539520" lon="-21.945369720">
<ele>95.509766</ele>
<time>2012-07-28T18:59:51Z</time>
<speed>5.780000</speed>
<extensions>
<speed>5.8</speed>
<temp>0.00</temp>
<bpm>0</bpm>
<rpm>0.00</rpm>
</extensions>
</trkpt>
<trkpt lat="63.997787476" lon="-21.945270538">
<ele>95.009766</ele>
<time>2012-07-28T18:59:56Z</time>
<speed>5.310000</speed>
<extensions>
<speed>5.3</speed>
<temp>0.00</temp>
<bpm>0</bpm>
<rpm>0.00</rpm>
</extensions>
</trkpt>
<trkpt lat="63.998023987" lon="-21.945171356">
<ele>94.425781</ele>
<time>2012-07-28T19:00:01Z</time>
<speed>5.720000</speed>
<extensions>
<speed>5.7</speed>
<temp>0.00</temp>
<bpm>0</bpm>
<rpm>0.00</rpm>
</extensions>
</trkpt>
<trkpt lat="63.998283386" lon="-21.945066452">
<ele>92.751953</ele>
<time>2012-07-28T19:00:06Z</time>
<speed>6.020000</speed>
<extensions>
<speed>6.0</speed>
<temp>0.00</temp>
<bpm>0</bpm>
<rpm>0.00</rpm>
</extensions>
</trkpt>
<trkpt lat="63.998565674" lon="-21.944976807">
<ele>92.839844</ele>
<time>2012-07-28T19:00:11Z</time>
<speed>6.370000</speed>
<extensions>
<speed>6.4</speed>
<temp>0.00</temp>
<bpm>0</bpm>
<rpm>0.00</rpm>
</extensions>
</trkpt>
<trkpt lat="63.998855591" lon="-21.944911957">
<ele>93.078125</ele>
<time>2012-07-28T19:00:16Z</time>
<speed>6.590000</speed>
<extensions>
<speed>6.6</speed>
<temp>0.00</temp>
<bpm>0</bpm>
<rpm>0.00</rpm>
</extensions>
</trkpt>
<trkpt lat="63.999149323" lon="-21.944816589">
<ele>92.556641</ele>
<time>2012-07-28T19:00:21Z</time>
<speed>6.740000</speed>
<extensions>
<speed>6.7</speed>
<temp>0.00</temp>
<bpm>0</bpm>
<rpm>0.00</rpm>
</extensions>
</trkpt>
<trkpt lat="63.999458313" lon="-21.944719315">
<ele>92.888672</ele>
<time>2012-07-28T19:00:26Z</time>
<speed>6.640000</speed>
<extensions>
<speed>6.6</speed>
<temp>0.00</temp>
<bpm>0</bpm>
<rpm>0.00</rpm>
</extensions>
</trkpt>
<trkpt lat="63.999744415" lon="-21.944633484">
<ele>93.925781</ele>
<time>2012-07-28T19:00:31Z</time>
<speed>6.490000</speed>
<extensions>
<speed>6.5</speed>
<temp>0.00</temp>
<bpm>0</bpm>
<rpm>0.00</rpm>
</extensions>
</trkpt>
<trkpt lat="64.000022888" lon="-21.944524765">
<ele>93.884766</ele>
<time>2012-07-28T19:00:36Z</time>
<speed>5.860000</speed>
<extensions>
<speed>5.9</speed>
<temp>0.00</temp>
<bpm>0</bpm>
<rpm>0.00</rpm>
</extensions>
</trkpt>
<trkpt lat="64.000274658" lon="-21.944442749">
<ele>95.689453</ele>
<time>2012-07-28T19:00:41Z</time>
<speed>5.550000</speed>
<extensions>
<speed>5.5</speed>
<temp>0.00</temp>
<bpm>0</bpm>
<rpm>0.00</rpm>
</extensions>
</trkpt>
<trkpt lat="64.000511169" lon="-21.944366455">
<ele>95.609375</ele>
<time>2012-07-28T19:00:46Z</time>
<speed>5.300000</speed>
<extensions>
<speed>5.3</speed>
<temp>0.00</temp>
<bpm>0</bpm>
<rpm>0.00</rpm>
</extensions>
</trkpt>
<trkpt lat="64.000755310" lon="-21.944309235">
<ele>94.916016</ele>
<time>2012-07-28T19:00:51Z</time>
<speed>5.900000</speed>
<extensions>
<speed>5.9</speed>
<temp>0.00</temp>
<bpm>0</bpm>
<rpm>0.00</rpm>
</extensions>
</trkpt>
<trkpt lat="64.001014709" lon="-21.944211960">
<ele>94.328125</ele>
<time>2012-07-28T19:00:56Z</time>
<speed>5.370000</speed>
<extensions>
<speed>5.4</speed>
<temp>0.00</temp>
<bpm>0</bpm>
<rpm>0.00</rpm>
</extensions>
</trkpt>
<trkpt lat="64.001243591" lon="-21.944120407">
<ele>93.830078</ele>
<time>2012-07-28T19:01:01Z</time>
<speed>5.440000</speed>
<extensions>
<speed>5.4</speed>
<temp>0.00</temp>
<bpm>0</bpm>
<rpm>0.00</rpm>
</extensions>
</trkpt>
<trkpt lat="64.001487732" lon="-21.944046021">
<ele>93.468750</ele>
<time>2012-07-28T19:01:06Z</time>
<speed>5.370000</speed>
<extensions>
<speed>5.4</speed>
<temp>0.00</temp>
<bpm>0</bpm>
<rpm>0.00</rpm>
</extensions>
</trkpt>
<trkpt lat="64.001724243" lon="-21.943967819">
<ele>93.138672</ele>
<time>2012-07-28T19:01:11Z</time>
<speed>5.350000</speed>
<extensions>
<speed>5.4</speed>
<temp>0.00</temp>
<bpm>0</bpm>
<rpm>0.00</rpm>
</extensions>
</trkpt>
<trkpt lat="64.001960754" lon="-21.943881989">
<ele>92.822266</ele>
<time>2012-07-28T19:01:16Z</time>
<speed>5.230000</speed>
<extensions>
<speed>5.2</speed>
<temp>0.00</temp>
<bpm>0</bpm>
<rpm>0.00</rpm>
</extensions>
</trkpt>
<trkpt lat="64.002212524" lon="-21.943811417">
<ele>92.785156</ele>
<time>2012-07-28T19:01:21Z</time>
<speed>5.400000</speed>
<extensions>
<speed>5.4</speed>
<temp>0.00</temp>
<bpm>0</bpm>
<rpm>0.00</rpm>
</extensions>
</trkpt>
<trkpt lat="64.002449036" lon="-21.943737030">
<ele>93.855469</ele>
<time>2012-07-28T19:01:26Z</time>
<speed>5.400000</speed>
<extensions>
<speed>5.4</speed>
<temp>0.00</temp>
<bpm>0</bpm>
<rpm>0.00</rpm>
</extensions>
</trkpt>
<trkpt lat="64.002685547" lon="-21.943662643">
<ele>94.197266</ele>
<time>2012-07-28T19:01:31Z</time>
<speed>5.440000</speed>
<extensions>
<speed>5.4</speed>
<temp>0.00</temp>
<bpm>0</bpm>
<rpm>0.00</rpm>
</extensions>
</trkpt>
<trkpt lat="64.002929688" lon="-21.943578720">
<ele>93.468750</ele>
<time>2012-07-28T19:01:36Z</time>
<speed>5.640000</speed>
<extensions>
<speed>5.6</speed>
<temp>0.00</temp>
<bpm>0</bpm>
<rpm>0.00</rpm>
</extensions>
</trkpt>
<trkpt lat="64.003173828" lon="-21.943511963">
<ele>94.033203</ele>
<time>2012-07-28T19:01:41Z</time>
<speed>5.710000</speed>
<extensions>
<speed>5.7</speed>
<temp>0.00</temp>
<bpm>0</bpm>
<rpm>0.00</rpm>
</extensions>
</trkpt>
<trkpt lat="64.003433228" lon="-21.943435669">
<ele>93.464844</ele>
<time>2012-07-28T19:01:46Z</time>
<speed>6.050000</speed>
<extensions>
<speed>6.1</speed>
<temp>0.00</temp>
<bpm>0</bpm>
<rpm>0.00</rpm>
</extensions>
</trkpt>
<trkpt lat="64.003707886" lon="-21.943338394">
<ele>91.343750</ele>
<time>2012-07-28T19:01:51Z</time>
<speed>6.390000</speed>
<extensions>
<speed>6.4</speed>
<temp>0.00</temp>
<bpm>0</bpm>
<rpm>0.00</rpm>
</extensions>
</trkpt>
<trkpt lat="64.004005432" lon="-21.943252563">
<ele>91.542969</ele>
<time>2012-07-28T19:01:56Z</time>
<speed>6.560000</speed>
<extensions>
<speed>6.6</speed>
<temp>0.00</temp>
<bpm>0</bpm>
<rpm>0.00</rpm>
</extensions>
</trkpt>
<trkpt lat="64.004287720" lon="-21.943157196">
<ele>91.437500</ele>
<time>2012-07-28T19:02:01Z</time>
<speed>6.180000</speed>
<extensions>
<speed>6.2</speed>
<temp>0.00</temp>
<bpm>0</bpm>
<rpm>0.00</rpm>
</extensions>
</trkpt>
<trkpt lat="64.004562378" lon="-21.943058014">
<ele>91.525391</ele>
<time>2012-07-28T19:02:06Z</time>
<speed>6.430000</speed>
<extensions>
<speed>6.4</speed>
<temp>0.00</temp>
<bpm>0</bpm>
<rpm>0.00</rpm>
</extensions>
</trkpt>
<trkpt lat="64.004859924" lon="-21.942956924">
<ele>91.375000</ele>
<time>2012-07-28T19:02:11Z</time>
<speed>6.630000</speed>
<extensions>
<speed>6.6</speed>
<temp>0.00</temp>
<bpm>0</bpm>
<rpm>0.00</rpm>
</extensions>
</trkpt>
<trkpt lat="64.005165100" lon="-21.942865372">
<ele>91.271484</ele>
<time>2012-07-28T19:02:16Z</time>
<speed>7.330000</speed>
<extensions>
<speed>7.3</speed>
<temp>0.00</temp>
<bpm>0</bpm>
<rpm>0.00</rpm>
</extensions>
</trkpt>
<trkpt lat="64.005462646" lon="-21.942770004">
<ele>91.080078</ele>
<time>2012-07-28T19:02:21Z</time>
<speed>6.610000</speed>
<extensions>
<speed>6.6</speed>
<temp>0.00</temp>
<bpm>0</bpm>
<rpm>0.00</rpm>
</extensions>
</trkpt>
<trkpt lat="64.005729675" lon="-21.942686081">
<ele>91.378906</ele>
<time>2012-07-28T19:02:26Z</time>
<speed>5.790000</speed>
<extensions>
<speed>5.8</speed>
<temp>0.00</temp>
<bpm>0</bpm>
<rpm>0.00</rpm>
</extensions>
</trkpt>
<trkpt lat="64.005973816" lon="-21.942581177">
<ele>89.677734</ele>
<time>2012-07-28T19:02:31Z</time>
<speed>5.440000</speed>
<extensions>
<speed>5.4</speed>
<temp>0.00</temp>
<bpm>0</bpm>
<rpm>0.00</rpm>
</extensions>
</trkpt>
<trkpt lat="64.006210327" lon="-21.942502975">
<ele>89.740234</ele>
<time>2012-07-28T19:02:36Z</time>
<speed>5.290000</speed>
<extensions>
<speed>5.3</speed>
<temp>0.00</temp>
<bpm>0</bpm>
<rpm>0.00</rpm>
</extensions>
</trkpt>
<trkpt lat="64.006446838" lon="-21.942424774">
<ele>88.498047</ele>
<time>2012-07-28T19:02:41Z</time>
<speed>4.860000</speed>
<extensions>
<speed>4.9</speed>
<temp>0.00</temp>
<bpm>0</bpm>
<rpm>0.00</rpm>
</extensions>
</trkpt>
<trkpt lat="64.006683350" lon="-21.942354202">
<ele>88.201172</ele>
<time>2012-07-28T19:02:46Z</time>
<speed>5.800000</speed>
<extensions>
<speed>5.8</speed>
<temp>0.00</temp>
<bpm>0</bpm>
<rpm>0.00</rpm>
</extensions>
</trkpt>
<trkpt lat="64.006965637" lon="-21.942253113">
<ele>87.015625</ele>
<time>2012-07-28T19:02:51Z</time>
<speed>7.020000</speed>
<extensions>
<speed>7.0</speed>
<temp>0.00</temp>
<bpm>0</bpm>
<rpm>0.00</rpm>
</extensions>
</trkpt>
<trkpt lat="64.007286072" lon="-21.942134857">
<ele>85.173828</ele>
<time>2012-07-28T19:02:56Z</time>
<speed>7.460000</speed>
<extensions>
<speed>7.5</speed>
<temp>0.00</temp>
<bpm>0</bpm>
<rpm>0.00</rpm>
</extensions>
</trkpt>
<trkpt lat="64.007629395" lon="-21.942020416">
<ele>84.541016</ele>
<time>2012-07-28T19:03:01Z</time>
<speed>7.920000</speed>
<extensions>
<speed>7.9</speed>
<temp>0.00</temp>
<bpm>0</bpm>
<rpm>0.00</rpm>
</extensions>
</trkpt>
<trkpt lat="64.008003235" lon="-21.941896439">
<ele>83.677734</ele>
<time>2012-07-28T19:03:06Z</time>
<speed>8.760000</speed>
<extensions>
<speed>8.8</speed>
<temp>0.00</temp>
<bpm>0</bpm>
<rpm>0.00</rpm>
</extensions>
</trkpt>
<trkpt lat="64.008377075" lon="-21.941764832">
<ele>83.541016</ele>
<time>2012-07-28T19:03:11Z</time>
<speed>7.930000</speed>
<extensions>
<speed>7.9</speed>
<temp>0.00</temp>
<bpm>0</bpm>
<rpm>0.00</rpm>
</extensions>
</trkpt>
<trkpt lat="64.008728027" lon="-21.941650391">
<ele>84.146484</ele>
<time>2012-07-28T19:03:16Z</time>
<speed>7.590000</speed>
<extensions>
<speed>7.6</speed>
<temp>0.00</temp>
<bpm>0</bpm>
<rpm>0.00</rpm>
</extensions>
</trkpt>
<trkpt lat="64.009056091" lon="-21.941583633">
<ele>85.150391</ele>
<time>2012-07-28T19:03:21Z</time>
<speed>6.410000</speed>
<extensions>
<speed>6.4</speed>
<temp>0.00</temp>
<bpm>0</bpm>
<rpm>0.00</rpm>
</extensions>
</trkpt>
<trkpt lat="64.009330750" lon="-21.941591263">
<ele>85.861328</ele>
<time>2012-07-28T19:03:26Z</time>
<speed>6.130000</speed>
<extensions>
<speed>6.1</speed>
<temp>0.00</temp>
<bpm>0</bpm>
<rpm>0.00</rpm>
</extensions>
</trkpt>
<trkpt lat="64.009605408" lon="-21.941629410">
<ele>86.207031</ele>
<time>2012-07-28T19:03:31Z</time>
<speed>6.350000</speed>
<extensions>
<speed>6.4</speed>
<temp>0.00</temp>
<bpm>0</bpm>
<rpm>0.00</rpm>
</extensions>
</trkpt>
<trkpt lat="64.009864807" lon="-21.941696167">
<ele>85.882813</ele>
<time>2012-07-28T19:03:36Z</time>
<speed>5.500000</speed>
<extensions>
<speed>5.5</speed>
<temp>0.00</temp>
<bpm>0</bpm>
<rpm>0.00</rpm>
</extensions>
</trkpt>
<trkpt lat="64.010093689" lon="-21.941787720">
<ele>85.724609</ele>
<time>2012-07-28T19:03:41Z</time>
<speed>5.610000</speed>
<extensions>
<speed>5.6</speed>
<temp>0.00</temp>
<bpm>0</bpm>
<rpm>0.00</rpm>
</extensions>
</trkpt>
<trkpt lat="64.010337830" lon="-21.941926956">
<ele>85.929688</ele>
<time>2012-07-28T19:03:46Z</time>
<speed>6.030000</speed>
<extensions>
<speed>6.0</speed>
<temp>0.00</temp>
<bpm>0</bpm>
<rpm>0.00</rpm>
</extensions>
</trkpt>
<trkpt lat="64.010604858" lon="-21.942117691">
<ele>85.265625</ele>
<time>2012-07-28T19:03:51Z</time>
<speed>6.250000</speed>
<extensions>
<speed>6.3</speed>
<temp>0.00</temp>
<bpm>0</bpm>
<rpm>0.00</rpm>
</extensions>
</trkpt>
<trkpt lat="64.010864258" lon="-21.942352295">
<ele>84.708984</ele>
<time>2012-07-28T19:03:56Z</time>
<speed>6.170000</speed>
<extensions>
<speed>6.2</speed>
<temp>0.00</temp>
<bpm>0</bpm>
<rpm>0.00</rpm>
</extensions>
</trkpt>
<trkpt lat="64.011123657" lon="-21.942651749">
<ele>83.707031</ele>
<time>2012-07-28T19:04:01Z</time>
<speed>6.760000</speed>
<extensions>
<speed>6.8</speed>
<temp>0.00</temp>
<bpm>0</bpm>
<rpm>0.00</rpm>
</extensions>
</trkpt>
<trkpt lat="64.011383057" lon="-21.943010330">
<ele>82.683594</ele>
<time>2012-07-28T19:04:06Z</time>
<speed>6.980000</speed>
<extensions>
<speed>7.0</speed>
<temp>0.00</temp>
<bpm>0</bpm>
<rpm>0.00</rpm>
</extensions>
</trkpt>
<trkpt lat="64.011665344" lon="-21.943389893">
<ele>82.097656</ele>
<time>2012-07-28T19:04:11Z</time>
<speed>7.810000</speed>
<extensions>
<speed>7.8</speed>
<temp>0.00</temp>
<bpm>0</bpm>
<rpm>0.00</rpm>
</extensions>
</trkpt>
<trkpt lat="64.011978149" lon="-21.943798065">
<ele>79.837891</ele>
<time>2012-07-28T19:04:16Z</time>
<speed>8.110000</speed>
<extensions>
<speed>8.1</speed>
<temp>0.00</temp>
<bpm>0</bpm>
<rpm>0.00</rpm>
</extensions>
</trkpt>
<trkpt lat="64.012306213" lon="-21.944229126">
<ele>78.328125</ele>
<time>2012-07-28T19:04:21Z</time>
<speed>8.610000</speed>
<extensions>
<speed>8.6</speed>
<temp>0.00</temp>
<bpm>0</bpm>
<rpm>0.00</rpm>
</extensions>
</trkpt>
<trkpt lat="64.012649536" lon="-21.944677353">
<ele>77.488281</ele>
<time>2012-07-28T19:04:26Z</time>
<speed>9.070000</speed>
<extensions>
<speed>9.1</speed>
<temp>0.00</temp>
<bpm>0</bpm>
<rpm>0.00</rpm>
</extensions>
</trkpt>
<trkpt lat="64.013000488" lon="-21.945142746">
<ele>77.242188</ele>
<time>2012-07-28T19:04:31Z</time>
<speed>8.810000</speed>
<extensions>
<speed>8.8</speed>
<temp>0.00</temp>
<bpm>0</bpm>
<rpm>0.00</rpm>
</extensions>
</trkpt>
<trkpt lat="64.013328552" lon="-21.945577621">
<ele>77.683594</ele>
<time>2012-07-28T19:04:36Z</time>
<speed>8.110000</speed>
<extensions>
<speed>8.1</speed>
<temp>0.00</temp>
<bpm>0</bpm>
<rpm>0.00</rpm>
</extensions>
</trkpt>
<trkpt lat="64.013633728" lon="-21.945974350">
<ele>76.847656</ele>
<time>2012-07-28T19:04:41Z</time>
<speed>7.740000</speed>
<extensions>
<speed>7.7</speed>
<temp>0.00</temp>
<bpm>0</bpm>
<rpm>0.00</rpm>
</extensions>
</trkpt>
<trkpt lat="64.013938904" lon="-21.946365356">
<ele>75.634766</ele>
<time>2012-07-28T19:04:46Z</time>
<speed>7.860000</speed>
<extensions>
<speed>7.9</speed>
<temp>0.00</temp>
<bpm>0</bpm>
<rpm>0.00</rpm>
</extensions>
</trkpt>
<trkpt lat="64.014236450" lon="-21.946748734">
<ele>74.839844</ele>
<time>2012-07-28T19:04:51Z</time>
<speed>7.940000</speed>
<extensions>
<speed>7.9</speed>
<temp>0.00</temp>
<bpm>0</bpm>
<rpm>0.00</rpm>
</extensions>
</trkpt>
<trkpt lat="64.014541626" lon="-21.947160721">
<ele>74.353516</ele>
<time>2012-07-28T19:04:56Z</time>
<speed>7.720000</speed>
<extensions>
<speed>7.7</speed>
<temp>0.00</temp>
<bpm>0</bpm>
<rpm>0.00</rpm>
</extensions>
</trkpt>
<trkpt lat="64.014846802" lon="-21.947542191">
<ele>73.351563</ele>
<time>2012-07-28T19:05:01Z</time>
<speed>7.670000</speed>
<extensions>
<speed>7.7</speed>
<temp>0.00</temp>
<bpm>0</bpm>
<rpm>0.00</rpm>
</extensions>
</trkpt>
<trkpt lat="64.015144348" lon="-21.947938919">
<ele>72.291016</ele>
<time>2012-07-28T19:05:06Z</time>
<speed>7.630000</speed>
<extensions>
<speed>7.6</speed>
<temp>0.00</temp>
<bpm>0</bpm>
<rpm>0.00</rpm>
</extensions>
</trkpt>
<trkpt lat="64.015434265" lon="-21.948320389">
<ele>71.681641</ele>
<time>2012-07-28T19:05:11Z</time>
<speed>6.860000</speed>
<extensions>
<speed>6.9</speed>
<temp>0.00</temp>
<bpm>0</bpm>
<rpm>0.00</rpm>
</extensions>
</trkpt>
<trkpt lat="64.015701294" lon="-21.948671341">
<ele>71.398438</ele>
<time>2012-07-28T19:05:16Z</time>
<speed>6.990000</speed>
<extensions>
<speed>7.0</speed>
<temp>0.00</temp>
<bpm>0</bpm>
<rpm>0.00</rpm>
</extensions>
</trkpt>
<trkpt lat="64.015968323" lon="-21.949029922">
<ele>71.437500</ele>
<time>2012-07-28T19:05:21Z</time>
<speed>6.760000</speed>
<extensions>
<speed>6.8</speed>
<temp>0.00</temp>
<bpm>0</bpm>
<rpm>0.00</rpm>
</extensions>
</trkpt>
<trkpt lat="64.016227722" lon="-21.949352264">
<ele>71.191406</ele>
<time>2012-07-28T19:05:26Z</time>
<speed>6.520000</speed>
<extensions>
<speed>6.5</speed>
<temp>0.00</temp>
<bpm>0</bpm>
<rpm>0.00</rpm>
</extensions>
</trkpt>
<trkpt lat="64.016464233" lon="-21.949649811">
<ele>70.908203</ele>
<time>2012-07-28T19:05:31Z</time>
<speed>5.570000</speed>
<extensions>
<speed>5.6</speed>
<temp>0.00</temp>
<bpm>0</bpm>
<rpm>0.00</rpm>
</extensions>
</trkpt>
<trkpt lat="64.016670227" lon="-21.949939728">
<ele>70.820313</ele>
<time>2012-07-28T19:05:36Z</time>
<speed>5.140000</speed>
<extensions>
<speed>5.1</speed>
<temp>0.00</temp>
<bpm>0</bpm>
<rpm>0.00</rpm>
</extensions>
</trkpt>
<trkpt lat="64.016860962" lon="-21.950202942">
<ele>72.957031</ele>
<time>2012-07-28T19:05:41Z</time>
<speed>4.890000</speed>
<extensions>
<speed>4.9</speed>
<temp>0.00</temp>
<bpm>0</bpm>
<rpm>0.00</rpm>
</extensions>
</trkpt>
<trkpt lat="64.017044067" lon="-21.950445175">
<ele>73.593750</ele>
<time>2012-07-28T19:05:46Z</time>
<speed>4.850000</speed>
<extensions>
<speed>4.8</speed>
<temp>0.00</temp>
<bpm>0</bpm>
<rpm>0.00</rpm>
</extensions>
</trkpt>
<trkpt lat="64.017227173" lon="-21.950689316">
<ele>73.212891</ele>
<time>2012-07-28T19:05:51Z</time>
<speed>4.370000</speed>
<extensions>
<speed>4.4</speed>
<temp>0.00</temp>
<bpm>0</bpm>
<rpm>0.00</rpm>
</extensions>
</trkpt>
<trkpt lat="64.017379761" lon="-21.950899124">
<ele>72.468750</ele>
<time>2012-07-28T19:05:56Z</time>
<speed>4.220000</speed>
<extensions>
<speed>4.2</speed>
<temp>0.00</temp>
<bpm>0</bpm>
<rpm>0.00</rpm>
</extensions>
</trkpt>
<trkpt lat="64.017570496" lon="-21.951133728">
<ele>72.480469</ele>
<time>2012-07-28T19:06:01Z</time>
<speed>4.930000</speed>
<extensions>
<speed>4.9</speed>
<temp>0.00</temp>
<bpm>0</bpm>
<rpm>0.00</rpm>
</extensions>
</trkpt>
<trkpt lat="64.017776489" lon="-21.951385498">
<ele>72.417969</ele>
<time>2012-07-28T19:06:06Z</time>
<speed>4.910000</speed>
<extensions>
<speed>4.9</speed>
<temp>0.00</temp>
<bpm>0</bpm>
<rpm>0.00</rpm>
</extensions>
</trkpt>
<trkpt lat="64.017974854" lon="-21.951644897">
<ele>71.259766</ele>
<time>2012-07-28T19:06:11Z</time>
<speed>5.390000</speed>
<extensions>
<speed>5.4</speed>
<temp>0.00</temp>
<bpm>0</bpm>
<rpm>0.00</rpm>
</extensions>
</trkpt>
<trkpt lat="64.018165588" lon="-21.951898575">
<ele>70.800781</ele>
<time>2012-07-28T19:06:16Z</time>
<speed>4.990000</speed>
<extensions>
<speed>5.0</speed>
<temp>0.00</temp>
<bpm>0</bpm>
<rpm>0.00</rpm>
</extensions>
</trkpt>
<trkpt lat="64.018371582" lon="-21.952169418">
<ele>69.947266</ele>
<time>2012-07-28T19:06:21Z</time>
<speed>5.320000</speed>
<extensions>
<speed>5.3</speed>
<temp>0.00</temp>
<bpm>0</bpm>
<rpm>0.00</rpm>
</extensions>
</trkpt>
<trkpt lat="64.018585205" lon="-21.952449799">
<ele>69.537109</ele>
<time>2012-07-28T19:06:26Z</time>
<speed>5.220000</speed>
<extensions>
<speed>5.2</speed>
<temp>0.00</temp>
<bpm>0</bpm>
<rpm>0.00</rpm>
</extensions>
</trkpt>
<trkpt lat="64.018806458" lon="-21.952756882">
<ele>68.871094</ele>
<time>2012-07-28T19:06:31Z</time>
<speed>5.670000</speed>
<extensions>
<speed>5.7</speed>
<temp>0.00</temp>
<bpm>0</bpm>
<rpm>0.00</rpm>
</extensions>
</trkpt>
<trkpt lat="64.019027710" lon="-21.953042984">
<ele>68.681641</ele>
<time>2012-07-28T19:06:36Z</time>
<speed>5.650000</speed>
<extensions>
<speed>5.7</speed>
<temp>0.00</temp>
<bpm>0</bpm>
<rpm>0.00</rpm>
</extensions>
</trkpt>
<trkpt lat="64.019233704" lon="-21.953306198">
<ele>67.240234</ele>
<time>2012-07-28T19:06:41Z</time>
<speed>5.020000</speed>
<extensions>
<speed>5.0</speed>
<temp>0.00</temp>
<bpm>0</bpm>
<rpm>0.00</rpm>
</extensions>
</trkpt>
<trkpt lat="64.019424438" lon="-21.953563690">
<ele>67.160156</ele>
<time>2012-07-28T19:06:46Z</time>
<speed>4.910000</speed>
<extensions>
<speed>4.9</speed>
<temp>0.00</temp>
<bpm>0</bpm>
<rpm>0.00</rpm>
</extensions>
</trkpt>
<trkpt lat="64.019615173" lon="-21.953796387">
<ele>66.636719</ele>
<time>2012-07-28T19:06:51Z</time>
<speed>4.810000</speed>
<extensions>
<speed>4.8</speed>
<temp>0.00</temp>
<bpm>0</bpm>
<rpm>0.00</rpm>
</extensions>
</trkpt>
<trkpt lat="64.019790649" lon="-21.954025269">
<ele>66.058594</ele>
<time>2012-07-28T19:06:56Z</time>
<speed>4.600000</speed>
<extensions>
<speed>4.6</speed>
<temp>0.00</temp>
<bpm>0</bpm>
<rpm>0.00</rpm>
</extensions>
</trkpt>
<trkpt lat="64.019973755" lon="-21.954265594">
<ele>65.933594</ele>
<time>2012-07-28T19:07:01Z</time>
<speed>4.770000</speed>
<extensions>
<speed>4.8</speed>
<temp>0.00</temp>
<bpm>0</bpm>
<rpm>0.00</rpm>
</extensions>
</trkpt>
<trkpt lat="64.020172119" lon="-21.954502106">
<ele>65.759766</ele>
<time>2012-07-28T19:07:06Z</time>
<speed>5.240000</speed>
<extensions>
<speed>5.2</speed>
<temp>0.00</temp>
<bpm>0</bpm>
<rpm>0.00</rpm>
</extensions>
</trkpt>
<trkpt lat="64.020385742" lon="-21.954780579">
<ele>65.156250</ele>
<time>2012-07-28T19:07:11Z</time>
<speed>6.000000</speed>
<extensions>
<speed>6.0</speed>
<temp>0.00</temp>
<bpm>0</bpm>
<rpm>0.00</rpm>
</extensions>
</trkpt>
<trkpt lat="64.020637512" lon="-21.955112457">
<ele>64.208984</ele>
<time>2012-07-28T19:07:16Z</time>
<speed>6.840000</speed>
<extensions>
<speed>6.8</speed>
<temp>0.00</temp>
<bpm>0</bpm>
<rpm>0.00</rpm>
</extensions>
</trkpt>
<trkpt lat="64.020904541" lon="-21.955461502">
<ele>63.364258</ele>
<time>2012-07-28T19:07:21Z</time>
<speed>6.860000</speed>
<extensions>
<speed>6.9</speed>
<temp>0.00</temp>
<bpm>0</bpm>
<rpm>0.00</rpm>
</extensions>
</trkpt>
<trkpt lat="64.021171570" lon="-21.955801010">
<ele>63.213867</ele>
<time>2012-07-28T19:07:26Z</time>
<speed>6.320000</speed>
<extensions>
<speed>6.3</speed>
<temp>0.00</temp>
<bpm>0</bpm>
<rpm>0.00</rpm>
</extensions>
</trkpt>
<trkpt lat="64.021392822" lon="-21.956113815">
<ele>62.802734</ele>
<time>2012-07-28T19:07:31Z</time>
<speed>5.790000</speed>
<extensions>
<speed>5.8</speed>
<temp>0.00</temp>
<bpm>0</bpm>
<rpm>0.00</rpm>
</extensions>
</trkpt>
<trkpt lat="64.021621704" lon="-21.956388474">
<ele>63.020508</ele>
<time>2012-07-28T19:07:36Z</time>
<speed>5.670000</speed>
<extensions>
<speed>5.7</speed>
<temp>0.00</temp>
<bpm>0</bpm>
<rpm>0.00</rpm>
</extensions>
</trkpt>
<trkpt lat="64.021827698" lon="-21.956674576">
<ele>62.468750</ele>
<time>2012-07-28T19:07:41Z</time>
<speed>5.100000</speed>
<extensions>
<speed>5.1</speed>
<temp>0.00</temp>
<bpm>0</bpm>
<rpm>0.00</rpm>
</extensions>
</trkpt>
<trkpt lat="64.022026062" lon="-21.956928253">
<ele>61.963867</ele>
<time>2012-07-28T19:07:46Z</time>
<speed>5.440000</speed>
<extensions>
<speed>5.4</speed>
<temp>0.00</temp>
<bpm>0</bpm>
<rpm>0.00</rpm>
</extensions>
</trkpt>
<trkpt lat="64.022239685" lon="-21.957214355">
<ele>61.783203</ele>
<time>2012-07-28T19:07:51Z</time>
<speed>5.640000</speed>
<extensions>
<speed>5.6</speed>
<temp>0.00</temp>
<bpm>0</bpm>
<rpm>0.00</rpm>
</extensions>
</trkpt>
<trkpt lat="64.022453308" lon="-21.957492828">
<ele>61.804688</ele>
<time>2012-07-28T19:07:56Z</time>
<speed>4.950000</speed>
<extensions>
<speed>4.9</speed>
<temp>0.00</temp>
<bpm>0</bpm>
<rpm>0.00</rpm>
</extensions>
</trkpt>
<trkpt lat="64.022651672" lon="-21.957746506">
<ele>62.321289</ele>
<time>2012-07-28T19:08:01Z</time>
<speed>5.080000</speed>
<extensions>
<speed>5.1</speed>
<temp>0.00</temp>
<bpm>0</bpm>
<rpm>0.00</rpm>
</extensions>
</trkpt>
<trkpt lat="64.022850037" lon="-21.958009720">
<ele>62.788086</ele>
<time>2012-07-28T19:08:06Z</time>
<speed>4.830000</speed>
<extensions>
<speed>4.8</speed>
<temp>0.00</temp>
<bpm>0</bpm>
<rpm>0.00</rpm>
</extensions>
</trkpt>
<trkpt lat="64.023033142" lon="-21.958248138">
<ele>62.602539</ele>
<time>2012-07-28T19:08:11Z</time>
<speed>4.690000</speed>
<extensions>
<speed>4.7</speed>
<temp>0.00</temp>
<bpm>0</bpm>
<rpm>0.00</rpm>
</extensions>
</trkpt>
<trkpt lat="64.023216248" lon="-21.958482742">
<ele>62.711914</ele>
<time>2012-07-28T19:08:16Z</time>
<speed>4.640000</speed>
<extensions>
<speed>4.6</speed>
<temp>0.00</temp>
<bpm>0</bpm>
<rpm>0.00</rpm>
</extensions>
</trkpt>
<trkpt lat="64.023399353" lon="-21.958726883">
<ele>62.634766</ele>
<time>2012-07-28T19:08:21Z</time>
<speed>4.810000</speed>
<extensions>
<speed>4.8</speed>
<temp>0.00</temp>
<bpm>0</bpm>
<rpm>0.00</rpm>
</extensions>
</trkpt>
<trkpt lat="64.023582458" lon="-21.958976746">
<ele>61.565430</ele>
<time>2012-07-28T19:08:26Z</time>
<speed>5.450000</speed>
<extensions>
<speed>5.5</speed>
<temp>0.00</temp>
<bpm>0</bpm>
<rpm>0.00</rpm>
</extensions>
</trkpt>
<trkpt lat="64.023803711" lon="-21.959270477">
<ele>60.919922</ele>
<time>2012-07-28T19:08:31Z</time>
<speed>6.270000</speed>
<extensions>
<speed>6.3</speed>
<temp>0.00</temp>
<bpm>0</bpm>
<rpm>0.00</rpm>
</extensions>
</trkpt>
<trkpt lat="64.024070740" lon="-21.959615707">
<ele>59.127930</ele>
<time>2012-07-28T19:08:36Z</time>
<speed>7.330000</speed>
<extensions>
<speed>7.3</speed>
<temp>0.00</temp>
<bpm>0</bpm>
<rpm>0.00</rpm>
</extensions>
</trkpt>
<trkpt lat="64.024375916" lon="-21.960014343">
<ele>57.314453</ele>
<time>2012-07-28T19:08:41Z</time>
<speed>8.130000</speed>
<extensions>
<speed>8.1</speed>
<temp>0.00</temp>
<bpm>0</bpm>
<rpm>0.00</rpm>
</extensions>
</trkpt>
<trkpt lat="64.024703979" lon="-21.960462570">
<ele>56.193359</ele>
<time>2012-07-28T19:08:46Z</time>
<speed>8.570000</speed>
<extensions>
<speed>8.6</speed>
<temp>0.00</temp>
<bpm>0</bpm>
<rpm>0.00</rpm>
</extensions>
</trkpt>
<trkpt lat="64.025032043" lon="-21.960882187">
<ele>55.967773</ele>
<time>2012-07-28T19:08:51Z</time>
<speed>8.000000</speed>
<extensions>
<speed>8.0</speed>
<temp>0.00</temp>
<bpm>0</bpm>
<rpm>0.00</rpm>
</extensions>
</trkpt>
<trkpt lat="64.025321960" lon="-21.961252213">
<ele>56.571289</ele>
<time>2012-07-28T19:08:56Z</time>
<speed>6.930000</speed>
<extensions>
<speed>6.9</speed>
<temp>0.00</temp>
<bpm>0</bpm>
<rpm>0.00</rpm>
</extensions>
</trkpt>
<trkpt lat="64.025596619" lon="-21.961582184">
<ele>56.900391</ele>
<time>2012-07-28T19:09:01Z</time>
<speed>6.860000</speed>
<extensions>
<speed>6.9</speed>
<temp>0.00</temp>
<bpm>0</bpm>
<rpm>0.00</rpm>
</extensions>
</trkpt>
<trkpt lat="64.025840759" lon="-21.961906433">
<ele>56.528320</ele>
<time>2012-07-28T19:09:06Z</time>
<speed>5.700000</speed>
<extensions>
<speed>5.7</speed>
<temp>0.00</temp>
<bpm>0</bpm>
<rpm>0.00</rpm>
</extensions>
</trkpt>
<trkpt lat="64.026039124" lon="-21.962171555">
<ele>56.048828</ele>
<time>2012-07-28T19:09:11Z</time>
<speed>4.950000</speed>
<extensions>
<speed>4.9</speed>
<temp>0.00</temp>
<bpm>0</bpm>
<rpm>0.00</rpm>
</extensions>
</trkpt>
<trkpt lat="64.026229858" lon="-21.962415695">
<ele>56.460938</ele>
<time>2012-07-28T19:09:16Z</time>
<speed>4.350000</speed>
<extensions>
<speed>4.3</speed>
<temp>0.00</temp>
<bpm>0</bpm>
<rpm>0.00</rpm>
</extensions>
</trkpt>
<trkpt lat="64.026382446" lon="-21.962635040">
<ele>56.723633</ele>
<time>2012-07-28T19:09:21Z</time>
<speed>3.680000</speed>
<extensions>
<speed>3.7</speed>
<temp>0.00</temp>
<bpm>0</bpm>
<rpm>0.00</rpm>
</extensions>
</trkpt>
<trkpt lat="64.026512146" lon="-21.962818146">
<ele>57.069336</ele>
<time>2012-07-28T19:09:26Z</time>
<speed>3.810000</speed>
<extensions>
<speed>3.8</speed>
<temp>0.00</temp>
<bpm>0</bpm>
<rpm>0.00</rpm>
</extensions>
</trkpt>
<trkpt lat="64.026679993" lon="-21.963033676">
<ele>57.075195</ele>
<time>2012-07-28T19:09:31Z</time>
<speed>4.640000</speed>
<extensions>
<speed>4.6</speed>
<temp>0.00</temp>
<bpm>0</bpm>
<rpm>0.00</rpm>
</extensions>
</trkpt>
<trkpt lat="64.026847839" lon="-21.963254929">
<ele>56.223633</ele>
<time>2012-07-28T19:09:36Z</time>
<speed>4.090000</speed>
<extensions>
<speed>4.1</speed>
<temp>0.00</temp>
<bpm>0</bpm>
<rpm>0.00</rpm>
</extensions>
</trkpt>
<trkpt lat="64.027023315" lon="-21.963478088">
<ele>55.745117</ele>
<time>2012-07-28T19:09:41Z</time>
<speed>4.410000</speed>
<extensions>
<speed>4.4</speed>
<temp>0.00</temp>
<bpm>0</bpm>
<rpm>0.00</rpm>
</extensions>
</trkpt>
<trkpt lat="64.027191162" lon="-21.963701248">
<ele>55.299805</ele>
<time>2012-07-28T19:09:46Z</time>
<speed>4.390000</speed>
<extensions>
<speed>4.4</speed>
<temp>0.00</temp>
<bpm>0</bpm>
<rpm>0.00</rpm>
</extensions>
</trkpt>
<trkpt lat="64.027366638" lon="-21.963935852">
<ele>55.141602</ele>
<time>2012-07-28T19:09:51Z</time>
<speed>4.450000</speed>
<extensions>
<speed>4.5</speed>
<temp>0.00</temp>
<bpm>0</bpm>
<rpm>0.00</rpm>
</extensions>
</trkpt>
<trkpt lat="64.027549744" lon="-21.964166641">
<ele>54.939453</ele>
<time>2012-07-28T19:09:56Z</time>
<speed>4.630000</speed>
<extensions>
<speed>4.6</speed>
<temp>0.00</temp>
<bpm>0</bpm>
<rpm>0.00</rpm>
</extensions>
</trkpt>
<trkpt lat="64.027748108" lon="-21.964426041">
<ele>54.613281</ele>
<time>2012-07-28T19:10:01Z</time>
<speed>5.250000</speed>
<extensions>
<speed>5.2</speed>
<temp>0.00</temp>
<bpm>0</bpm>
<rpm>0.00</rpm>
</extensions>
</trkpt>
<trkpt lat="64.027954102" lon="-21.964698792">
<ele>54.017578</ele>
<time>2012-07-28T19:10:06Z</time>
<speed>5.290000</speed>
<extensions>
<speed>5.3</speed>
<temp>0.00</temp>
<bpm>0</bpm>
<rpm>0.00</rpm>
</extensions>
</trkpt>
<trkpt lat="64.028167725" lon="-21.964992523">
<ele>53.114258</ele>
<time>2012-07-28T19:10:11Z</time>
<speed>5.560000</speed>
<extensions>
<speed>5.6</speed>
<temp>0.00</temp>
<bpm>0</bpm>
<rpm>0.00</rpm>
</extensions>
</trkpt>
<trkpt lat="64.028404236" lon="-21.965270996">
<ele>51.844727</ele>
<time>2012-07-28T19:10:16Z</time>
<speed>5.940000</speed>
<extensions>
<speed>5.9</speed>
<temp>0.00</temp>
<bpm>0</bpm>
<rpm>0.00</rpm>
</extensions>
</trkpt>
<trkpt lat="64.028640747" lon="-21.965559006">
<ele>51.250977</ele>
<time>2012-07-28T19:10:21Z</time>
<speed>6.090000</speed>
<extensions>
<speed>6.1</speed>
<temp>0.00</temp>
<bpm>0</bpm>
<rpm>0.00</rpm>
</extensions>
</trkpt>
<trkpt lat="64.028869629" lon="-21.965866089">
<ele>50.729492</ele>
<time>2012-07-28T19:10:26Z</time>
<speed>5.760000</speed>
<extensions>
<speed>5.8</speed>
<temp>0.00</temp>
<bpm>0</bpm>
<rpm>0.00</rpm>
</extensions>
</trkpt>
<trkpt lat="64.029098511" lon="-21.966150284">
<ele>50.302734</ele>
<time>2012-07-28T19:10:31Z</time>
<speed>5.580000</speed>
<extensions>
<speed>5.6</speed>
<temp>0.00</temp>
<bpm>0</bpm>
<rpm>0.00</rpm>
</extensions>
</trkpt>
<trkpt lat="64.029304504" lon="-21.966426849">
<ele>50.015625</ele>
<time>2012-07-28T19:10:36Z</time>
<speed>5.210000</speed>
<extensions>
<speed>5.2</speed>
<temp>0.00</temp>
<bpm>0</bpm>
<rpm>0.00</rpm>
</extensions>
</trkpt>
<trkpt lat="64.029495239" lon="-21.966697693">
<ele>50.167969</ele>
<time>2012-07-28T19:10:41Z</time>
<speed>5.040000</speed>
<extensions>
<speed>5.0</speed>
<temp>0.00</temp>
<bpm>0</bpm>
<rpm>0.00</rpm>
</extensions>
</trkpt>
<trkpt lat="64.029701233" lon="-21.966960907">
<ele>49.297852</ele>
<time>2012-07-28T19:10:46Z</time>
<speed>5.190000</speed>
<extensions>
<speed>5.2</speed>
<temp>0.00</temp>
<bpm>0</bpm>
<rpm>0.00</rpm>
</extensions>
</trkpt>
<trkpt lat="64.029899597" lon="-21.967214584">
<ele>49.762695</ele>
<time>2012-07-28T19:10:51Z</time>
<speed>5.090000</speed>
<extensions>
<speed>5.1</speed>
<temp>0.00</temp>
<bpm>0</bpm>
<rpm>0.00</rpm>
</extensions>
</trkpt>
<trkpt lat="64.030090332" lon="-21.967458725">
<ele>48.926758</ele>
<time>2012-07-28T19:10:56Z</time>
<speed>5.150000</speed>
<extensions>
<speed>5.2</speed>
<temp>0.00</temp>
<bpm>0</bpm>
<rpm>0.00</rpm>
</extensions>
</trkpt>
<trkpt lat="64.030311584" lon="-21.967765808">
<ele>48.462891</ele>
<time>2012-07-28T19:11:01Z</time>
<speed>5.870000</speed>
<extensions>
<speed>5.9</speed>
<temp>0.00</temp>
<bpm>0</bpm>
<rpm>0.00</rpm>
</extensions>
</trkpt>
<trkpt lat="64.030525208" lon="-21.968055725">
<ele>48.216797</ele>
<time>2012-07-28T19:11:06Z</time>
<speed>5.270000</speed>
<extensions>
<speed>5.3</speed>
<temp>0.00</temp>
<bpm>0</bpm>
<rpm>0.00</rpm>
</extensions>
</trkpt>
<trkpt lat="64.030746460" lon="-21.968338013">
<ele>48.913086</ele>
<time>2012-07-28T19:11:11Z</time>
<speed>5.830000</speed>
<extensions>
<speed>5.8</speed>
<temp>0.00</temp>
<bpm>0</bpm>
<rpm>0.00</rpm>
</extensions>
</trkpt>
<trkpt lat="64.030982971" lon="-21.968648911">
<ele>48.898438</ele>
<time>2012-07-28T19:11:16Z</time>
<speed>6.040000</speed>
<extensions>
<speed>6.0</speed>
<temp>0.00</temp>
<bpm>0</bpm>
<rpm>0.00</rpm>
</extensions>
</trkpt>
<trkpt lat="64.031219482" lon="-21.968957901">
<ele>49.405273</ele>
<time>2012-07-28T19:11:21Z</time>
<speed>6.130000</speed>
<extensions>
<speed>6.1</speed>
<temp>0.00</temp>
<bpm>0</bpm>
<rpm>0.00</rpm>
</extensions>
</trkpt>
<trkpt lat="64.031471252" lon="-21.969276428">
<ele>49.156250</ele>
<time>2012-07-28T19:11:26Z</time>
<speed>6.490000</speed>
<extensions>
<speed>6.5</speed>
<temp>0.00</temp>
<bpm>0</bpm>
<rpm>0.00</rpm>
</extensions>
</trkpt>
<trkpt lat="64.031723022" lon="-21.969615936">
<ele>48.234375</ele>
<time>2012-07-28T19:11:31Z</time>
<speed>6.690000</speed>
<extensions>
<speed>6.7</speed>
<temp>0.00</temp>
<bpm>0</bpm>
<rpm>0.00</rpm>
</extensions>
</trkpt>
<trkpt lat="64.031967163" lon="-21.969944000">
<ele>47.459961</ele>
<time>2012-07-28T19:11:36Z</time>
<speed>5.910000</speed>
<extensions>
<speed>5.9</speed>
<temp>0.00</temp>
<bpm>0</bpm>
<rpm>0.00</rpm>
</extensions>
</trkpt>
<trkpt lat="64.032203674" lon="-21.970249176">
<ele>46.408203</ele>
<time>2012-07-28T19:11:41Z</time>
<speed>6.480000</speed>
<extensions>
<speed>6.5</speed>
<temp>0.00</temp>
<bpm>0</bpm>
<rpm>0.00</rpm>
</extensions>
</trkpt>
<trkpt lat="64.032470703" lon="-21.970581055">
<ele>46.019531</ele>
<time>2012-07-28T19:11:46Z</time>
<speed>6.770000</speed>
<extensions>
<speed>6.8</speed>
<temp>0.00</temp>
<bpm>0</bpm>
<rpm>0.00</rpm>
</extensions>
</trkpt>
<trkpt lat="64.032730103" lon="-21.970937729">
<ele>45.954102</ele>
<time>2012-07-28T19:11:51Z</time>
<speed>6.730000</speed>
<extensions>
<speed>6.7</speed>
<temp>0.00</temp>
<bpm>0</bpm>
<rpm>0.00</rpm>
</extensions>
</trkpt>
<trkpt lat="64.033012390" lon="-21.971277237">
<ele>46.077148</ele>
<time>2012-07-28T19:11:56Z</time>
<speed>6.880000</speed>
<extensions>
<speed>6.9</speed>
<temp>0.00</temp>
<bpm>0</bpm>
<rpm>0.00</rpm>
</extensions>
</trkpt>
<trkpt lat="64.033264160" lon="-21.971628189">
<ele>46.391602</ele>
<time>2012-07-28T19:12:01Z</time>
<speed>6.500000</speed>
<extensions>
<speed>6.5</speed>
<temp>0.00</temp>
<bpm>0</bpm>
<rpm>0.00</rpm>
</extensions>
</trkpt>
<trkpt lat="64.033523560" lon="-21.971958160">
<ele>46.611328</ele>
<time>2012-07-28T19:12:06Z</time>
<speed>6.490000</speed>
<extensions>
<speed>6.5</speed>
<temp>0.00</temp>
<bpm>0</bpm>
<rpm>0.00</rpm>
</extensions>
</trkpt>
<trkpt lat="64.033752441" lon="-21.972248077">
<ele>46.116211</ele>
<time>2012-07-28T19:12:11Z</time>
<speed>5.260000</speed>
<extensions>
<speed>5.3</speed>
<temp>0.00</temp>
<bpm>0</bpm>
<rpm>0.00</rpm>
</extensions>
</trkpt>
<trkpt lat="64.033935547" lon="-21.972488403">
<ele>45.020508</ele>
<time>2012-07-28T19:12:16Z</time>
<speed>4.780000</speed>
<extensions>
<speed>4.8</speed>
<temp>0.00</temp>
<bpm>0</bpm>
<rpm>0.00</rpm>
</extensions>
</trkpt>
<trkpt lat="64.034133911" lon="-21.972742081">
<ele>44.088867</ele>
<time>2012-07-28T19:12:21Z</time>
<speed>5.400000</speed>
<extensions>
<speed>5.4</speed>
<temp>0.00</temp>
<bpm>0</bpm>
<rpm>0.00</rpm>
</extensions>
</trkpt>
<trkpt lat="64.034339905" lon="-21.973022461">
<ele>44.210938</ele>
<time>2012-07-28T19:12:26Z</time>
<speed>5.600000</speed>
<extensions>
<speed>5.6</speed>
<temp>0.00</temp>
<bpm>0</bpm>
<rpm>0.00</rpm>
</extensions>
</trkpt>
<trkpt lat="64.034568787" lon="-21.973291397">
<ele>44.517578</ele>
<time>2012-07-28T19:12:31Z</time>
<speed>5.940000</speed>
<extensions>
<speed>5.9</speed>
<temp>0.00</temp>
<bpm>0</bpm>
<rpm>0.00</rpm>
</extensions>
</trkpt>
<trkpt lat="64.034790039" lon="-21.973604202">
<ele>43.980469</ele>
<time>2012-07-28T19:12:36Z</time>
<speed>5.980000</speed>
<extensions>
<speed>6.0</speed>
<temp>0.00</temp>
<bpm>0</bpm>
<rpm>0.00</rpm>
</extensions>
</trkpt>
<trkpt lat="64.035026550" lon="-21.973905563">
<ele>42.911133</ele>
<time>2012-07-28T19:12:41Z</time>
<speed>5.570000</speed>
<extensions>
<speed>5.6</speed>
<temp>0.00</temp>
<bpm>0</bpm>
<rpm>0.00</rpm>
</extensions>
</trkpt>
<trkpt lat="64.035224915" lon="-21.974155426">
<ele>41.703125</ele>
<time>2012-07-28T19:12:46Z</time>
<speed>4.480000</speed>
<extensions>
<speed>4.5</speed>
<temp>0.00</temp>
<bpm>0</bpm>
<rpm>0.00</rpm>
</extensions>
</trkpt>
<trkpt lat="64.035385132" lon="-21.974382401">
<ele>41.313477</ele>
<time>2012-07-28T19:12:51Z</time>
<speed>3.800000</speed>
<extensions>
<speed>3.8</speed>
<temp>0.00</temp>
<bpm>0</bpm>
<rpm>0.00</rpm>
</extensions>
</trkpt>
<trkpt lat="64.035530090" lon="-21.974559784">
<ele>39.571289</ele>
<time>2012-07-28T19:12:56Z</time>
<speed>3.930000</speed>
<extensions>
<speed>3.9</speed>
<temp>0.00</temp>
<bpm>0</bpm>
<rpm>0.00</rpm>
</extensions>
</trkpt>
<trkpt lat="64.035697937" lon="-21.974790573">
<ele>39.324219</ele>
<time>2012-07-28T19:13:01Z</time>
<speed>4.310000</speed>
<extensions>
<speed>4.3</speed>
<temp>0.00</temp>
<bpm>0</bpm>
<rpm>0.00</rpm>
</extensions>
</trkpt>
<trkpt lat="64.035858154" lon="-21.975065231">
<ele>39.514648</ele>
<time>2012-07-28T19:13:06Z</time>
<speed>4.540000</speed>
<extensions>
<speed>4.5</speed>
<temp>0.00</temp>
<bpm>0</bpm>
<rpm>0.00</rpm>
</extensions>
</trkpt>
<trkpt lat="64.036033630" lon="-21.975353241">
<ele>39.737305</ele>
<time>2012-07-28T19:13:11Z</time>
<speed>4.840000</speed>
<extensions>
<speed>4.8</speed>
<temp>0.00</temp>
<bpm>0</bpm>
<rpm>0.00</rpm>
</extensions>
</trkpt>
<trkpt lat="64.036201477" lon="-21.975666046">
<ele>39.772461</ele>
<time>2012-07-28T19:13:16Z</time>
<speed>4.810000</speed>
<extensions>
<speed>4.8</speed>
<temp>0.00</temp>
<bpm>0</bpm>
<rpm>0.00</rpm>
</extensions>
</trkpt>
<trkpt lat="64.036361694" lon="-21.976009369">
<ele>39.769531</ele>
<time>2012-07-28T19:13:21Z</time>
<speed>4.870000</speed>
<extensions>
<speed>4.9</speed>
<temp>0.00</temp>
<bpm>0</bpm>
<rpm>0.00</rpm>
</extensions>
</trkpt>
<trkpt lat="64.036529541" lon="-21.976320267">
<ele>38.947266</ele>
<time>2012-07-28T19:13:26Z</time>
<speed>4.670000</speed>
<extensions>
<speed>4.7</speed>
<temp>0.00</temp>
<bpm>0</bpm>
<rpm>0.00</rpm>
</extensions>
</trkpt>
<trkpt lat="64.036666870" lon="-21.976606369">
<ele>38.552734</ele>
<time>2012-07-28T19:13:31Z</time>
<speed>3.760000</speed>
<extensions>
<speed>3.8</speed>
<temp>0.00</temp>
<bpm>0</bpm>
<rpm>0.00</rpm>
</extensions>
</trkpt>
<trkpt lat="64.036811829" lon="-21.976884842">
<ele>38.145508</ele>
<time>2012-07-28T19:13:36Z</time>
<speed>4.660000</speed>
<extensions>
<speed>4.7</speed>
<temp>0.00</temp>
<bpm>0</bpm>
<rpm>0.00</rpm>
</extensions>
</trkpt>
<trkpt lat="64.036964417" lon="-21.977239609">
<ele>37.743164</ele>
<time>2012-07-28T19:13:41Z</time>
<speed>5.060000</speed>
<extensions>
<speed>5.1</speed>
<temp>0.00</temp>
<bpm>0</bpm>
<rpm>0.00</rpm>
</extensions>
</trkpt>
<trkpt lat="64.037109375" lon="-21.977596283">
<ele>37.805664</ele>
<time>2012-07-28T19:13:46Z</time>
<speed>4.480000</speed>
<extensions>
<speed>4.5</speed>
<temp>0.00</temp>
<bpm>0</bpm>
<rpm>0.00</rpm>
</extensions>
</trkpt>
<trkpt lat="64.037239075" lon="-21.977933884">
<ele>37.553711</ele>
<time>2012-07-28T19:13:51Z</time>
<speed>4.550000</speed>
<extensions>
<speed>4.5</speed>
<temp>0.00</temp>
<bpm>0</bpm>
<rpm>0.00</rpm>
</extensions>
</trkpt>
<trkpt lat="64.037376404" lon="-21.978298187">
<ele>37.514648</ele>
<time>2012-07-28T19:13:56Z</time>
<speed>5.040000</speed>
<extensions>
<speed>5.0</speed>
<temp>0.00</temp>
<bpm>0</bpm>
<rpm>0.00</rpm>
</extensions>
</trkpt>
<trkpt lat="64.037513733" lon="-21.978679657">
<ele>37.291992</ele>
<time>2012-07-28T19:14:01Z</time>
<speed>4.470000</speed>
<extensions>
<speed>4.5</speed>
<temp>0.00</temp>
<bpm>0</bpm>
<rpm>0.00</rpm>
</extensions>
</trkpt>
<trkpt lat="64.037635803" lon="-21.979017258">
<ele>37.072266</ele>
<time>2012-07-28T19:14:06Z</time>
<speed>4.140000</speed>
<extensions>
<speed>4.1</speed>
<temp>0.00</temp>
<bpm>0</bpm>
<rpm>0.00</rpm>
</extensions>
</trkpt>
<trkpt lat="64.037734985" lon="-21.979343414">
<ele>36.769531</ele>
<time>2012-07-28T19:14:11Z</time>
<speed>3.930000</speed>
<extensions>
<speed>3.9</speed>
<temp>0.00</temp>
<bpm>0</bpm>
<rpm>0.00</rpm>
</extensions>
</trkpt>
<trkpt lat="64.037841797" lon="-21.979669571">
<ele>36.725586</ele>
<time>2012-07-28T19:14:16Z</time>
<speed>3.770000</speed>
<extensions>
<speed>3.8</speed>
<temp>0.00</temp>
<bpm>0</bpm>
<rpm>0.00</rpm>
</extensions>
</trkpt>
<trkpt lat="64.037933350" lon="-21.979980469">
<ele>36.551758</ele>
<time>2012-07-28T19:14:21Z</time>
<speed>3.440000</speed>
<extensions>
<speed>3.4</speed>
<temp>0.00</temp>
<bpm>0</bpm>
<rpm>0.00</rpm>
</extensions>
</trkpt>
<trkpt lat="64.038032532" lon="-21.980249405">
<ele>35.097656</ele>
<time>2012-07-28T19:14:26Z</time>
<speed>3.470000</speed>
<extensions>
<speed>3.5</speed>
<temp>0.00</temp>
<bpm>0</bpm>
<rpm>0.00</rpm>
</extensions>
</trkpt>
<trkpt lat="64.038139343" lon="-21.980596542">
<ele>36.245117</ele>
<time>2012-07-28T19:14:31Z</time>
<speed>4.740000</speed>
<extensions>
<speed>4.7</speed>
<temp>0.00</temp>
<bpm>0</bpm>
<rpm>0.00</rpm>
</extensions>
</trkpt>
<trkpt lat="64.038291931" lon="-21.980985641">
<ele>35.377930</ele>
<time>2012-07-28T19:14:36Z</time>
<speed>5.480000</speed>
<extensions>
<speed>5.5</speed>
<temp>0.00</temp>
<bpm>0</bpm>
<rpm>0.00</rpm>
</extensions>
</trkpt>
<trkpt lat="64.038459778" lon="-21.981420517">
<ele>34.775391</ele>
<time>2012-07-28T19:14:41Z</time>
<speed>5.600000</speed>
<extensions>
<speed>5.6</speed>
<temp>0.00</temp>
<bpm>0</bpm>
<rpm>0.00</rpm>
</extensions>
</trkpt>
<trkpt lat="64.038635254" lon="-21.981853485">
<ele>34.319336</ele>
<time>2012-07-28T19:14:46Z</time>
<speed>5.620000</speed>
<extensions>
<speed>5.6</speed>
<temp>0.00</temp>
<bpm>0</bpm>
<rpm>0.00</rpm>
</extensions>
</trkpt>
<trkpt lat="64.038818359" lon="-21.982250214">
<ele>33.684570</ele>
<time>2012-07-28T19:14:51Z</time>
<speed>5.720000</speed>
<extensions>
<speed>5.7</speed>
<temp>0.00</temp>
<bpm>0</bpm>
<rpm>0.00</rpm>
</extensions>
</trkpt>
<trkpt lat="64.038993835" lon="-21.982633591">
<ele>33.324219</ele>
<time>2012-07-28T19:14:56Z</time>
<speed>4.930000</speed>
<extensions>
<speed>4.9</speed>
<temp>0.00</temp>
<bpm>0</bpm>
<rpm>0.00</rpm>
</extensions>
</trkpt>
<trkpt lat="64.039146423" lon="-21.982938766">
<ele>33.039063</ele>
<time>2012-07-28T19:15:01Z</time>
<speed>4.240000</speed>
<extensions>
<speed>4.2</speed>
<temp>0.00</temp>
<bpm>0</bpm>
<rpm>0.00</rpm>
</extensions>
</trkpt>
<trkpt lat="64.039314270" lon="-21.983238220">
<ele>32.672852</ele>
<time>2012-07-28T19:15:06Z</time>
<speed>4.850000</speed>
<extensions>
<speed>4.8</speed>
<temp>0.00</temp>
<bpm>0</bpm>
<rpm>0.00</rpm>
</extensions>
</trkpt>
<trkpt lat="64.039489746" lon="-21.983556747">
<ele>32.086914</ele>
<time>2012-07-28T19:15:11Z</time>
<speed>4.820000</speed>
<extensions>
<speed>4.8</speed>
<temp>0.00</temp>
<bpm>0</bpm>
<rpm>0.00</rpm>
</extensions>
</trkpt>
<trkpt lat="64.039634705" lon="-21.983840942">
<ele>32.774414</ele>
<time>2012-07-28T19:15:16Z</time>
<speed>4.100000</speed>
<extensions>
<speed>4.1</speed>
<temp>0.00</temp>
<bpm>0</bpm>
<rpm>0.00</rpm>
</extensions>
</trkpt>
<trkpt lat="64.039779663" lon="-21.984092712">
<ele>32.979492</ele>
<time>2012-07-28T19:15:21Z</time>
<speed>4.420000</speed>
<extensions>
<speed>4.4</speed>
<temp>0.00</temp>
<bpm>0</bpm>
<rpm>0.00</rpm>
</extensions>
</trkpt>
<trkpt lat="64.039962769" lon="-21.984375000">
<ele>32.372070</ele>
<time>2012-07-28T19:15:26Z</time>
<speed>5.110000</speed>
<extensions>
<speed>5.1</speed>
<temp>0.00</temp>
<bpm>0</bpm>
<rpm>0.00</rpm>
</extensions>
</trkpt>
<trkpt lat="64.040168762" lon="-21.984672546">
<ele>31.210449</ele>
<time>2012-07-28T19:15:31Z</time>
<speed>5.530000</speed>
<extensions>
<speed>5.5</speed>
<temp>0.00</temp>
<bpm>0</bpm>
<rpm>0.00</rpm>
</extensions>
</trkpt>
<trkpt lat="64.040390015" lon="-21.984981537">
<ele>31.062988</ele>
<time>2012-07-28T19:15:36Z</time>
<speed>5.860000</speed>
<extensions>
<speed>5.9</speed>
<temp>0.00</temp>
<bpm>0</bpm>
<rpm>0.00</rpm>
</extensions>
</trkpt>
<trkpt lat="64.040626526" lon="-21.985288620">
<ele>30.655273</ele>
<time>2012-07-28T19:15:41Z</time>
<speed>6.260000</speed>
<extensions>
<speed>6.3</speed>
<temp>0.00</temp>
<bpm>0</bpm>
<rpm>0.00</rpm>
</extensions>
</trkpt>
<trkpt lat="64.040863037" lon="-21.985565186">
<ele>30.062012</ele>
<time>2012-07-28T19:15:46Z</time>
<speed>5.470000</speed>
<extensions>
<speed>5.5</speed>
<temp>0.00</temp>
<bpm>0</bpm>
<rpm>0.00</rpm>
</extensions>
</trkpt>
<trkpt lat="64.041084290" lon="-21.985809326">
<ele>29.132324</ele>
<time>2012-07-28T19:15:51Z</time>
<speed>5.600000</speed>
<extensions>
<speed>5.6</speed>
<temp>0.00</temp>
<bpm>0</bpm>
<rpm>0.00</rpm>
</extensions>
</trkpt>
<trkpt lat="64.041313171" lon="-21.986051559">
<ele>28.800293</ele>
<time>2012-07-28T19:15:56Z</time>
<speed>5.690000</speed>
<extensions>
<speed>5.7</speed>
<temp>0.00</temp>
<bpm>0</bpm>
<rpm>0.00</rpm>
</extensions>
</trkpt>
<trkpt lat="64.041549683" lon="-21.986270905">
<ele>28.779297</ele>
<time>2012-07-28T19:16:01Z</time>
<speed>5.640000</speed>
<extensions>
<speed>5.6</speed>
<temp>0.00</temp>
<bpm>0</bpm>
<rpm>0.00</rpm>
</extensions>
</trkpt>
<trkpt lat="64.041786194" lon="-21.986467361">
<ele>29.489746</ele>
<time>2012-07-28T19:16:06Z</time>
<speed>5.600000</speed>
<extensions>
<speed>5.6</speed>
<temp>0.00</temp>
<bpm>0</bpm>
<rpm>0.00</rpm>
</extensions>
</trkpt>
<trkpt lat="64.042030334" lon="-21.986661911">
<ele>29.522461</ele>
<time>2012-07-28T19:16:11Z</time>
<speed>4.600000</speed>
<extensions>
<speed>4.6</speed>
<temp>0.00</temp>
<bpm>0</bpm>
<rpm>0.00</rpm>
</extensions>
</trkpt>
<trkpt lat="64.042266846" lon="-21.986860275">
<ele>28.750488</ele>
<time>2012-07-28T19:16:16Z</time>
<speed>5.230000</speed>
<extensions>
<speed>5.2</speed>
<temp>0.00</temp>
<bpm>0</bpm>
<rpm>0.00</rpm>
</extensions>
</trkpt>
<trkpt lat="64.042488098" lon="-21.986986160">
<ele>28.829590</ele>
<time>2012-07-28T19:16:21Z</time>
<speed>4.940000</speed>
<extensions>
<speed>4.9</speed>
<temp>0.00</temp>
<bpm>0</bpm>
<rpm>0.00</rpm>
</extensions>
</trkpt>
<trkpt lat="64.042694092" lon="-21.987102509">
<ele>28.116211</ele>
<time>2012-07-28T19:16:26Z</time>
<speed>4.790000</speed>
<extensions>
<speed>4.8</speed>
<temp>0.00</temp>
<bpm>0</bpm>
<rpm>0.00</rpm>
</extensions>
</trkpt>
<trkpt lat="64.042907715" lon="-21.987197876">
<ele>27.546387</ele>
<time>2012-07-28T19:16:31Z</time>
<speed>5.050000</speed>
<extensions>
<speed>5.1</speed>
<temp>0.00</temp>
<bpm>0</bpm>
<rpm>0.00</rpm>
</extensions>
</trkpt>
<trkpt lat="64.043136597" lon="-21.987297058">
<ele>27.413086</ele>
<time>2012-07-28T19:16:36Z</time>
<speed>5.140000</speed>
<extensions>
<speed>5.1</speed>
<temp>0.00</temp>
<bpm>0</bpm>
<rpm>0.00</rpm>
</extensions>
</trkpt>
<trkpt lat="64.043365479" lon="-21.987390518">
<ele>26.520020</ele>
<time>2012-07-28T19:16:41Z</time>
<speed>5.050000</speed>
<extensions>
<speed>5.1</speed>
<temp>0.00</temp>
<bpm>0</bpm>
<rpm>0.00</rpm>
</extensions>
</trkpt>
<trkpt lat="64.043594360" lon="-21.987466812">
<ele>25.734375</ele>
<time>2012-07-28T19:16:46Z</time>
<speed>5.110000</speed>
<extensions>
<speed>5.1</speed>
<temp>0.00</temp>
<bpm>0</bpm>
<rpm>0.00</rpm>
</extensions>
</trkpt>
<trkpt lat="64.043800354" lon="-21.987543106">
<ele>25.751465</ele>
<time>2012-07-28T19:16:51Z</time>
<speed>4.450000</speed>
<extensions>
<speed>4.5</speed>
<temp>0.00</temp>
<bpm>0</bpm>
<rpm>0.00</rpm>
</extensions>
</trkpt>
<trkpt lat="64.043991089" lon="-21.987598419">
<ele>25.192871</ele>
<time>2012-07-28T19:16:56Z</time>
<speed>4.130000</speed>
<extensions>
<speed>4.1</speed>
<temp>0.00</temp>
<bpm>0</bpm>
<rpm>0.00</rpm>
</extensions>
</trkpt>
<trkpt lat="64.044158936" lon="-21.987665176">
<ele>25.368164</ele>
<time>2012-07-28T19:17:01Z</time>
<speed>3.610000</speed>
<extensions>
<speed>3.6</speed>
<temp>0.00</temp>
<bpm>0</bpm>
<rpm>0.00</rpm>
</extensions>
</trkpt>
<trkpt lat="64.044326782" lon="-21.987733841">
<ele>25.125000</ele>
<time>2012-07-28T19:17:06Z</time>
<speed>4.190000</speed>
<extensions>
<speed>4.2</speed>
<temp>0.00</temp>
<bpm>0</bpm>
<rpm>0.00</rpm>
</extensions>
</trkpt>
<trkpt lat="64.044517517" lon="-21.987815857">
<ele>24.909180</ele>
<time>2012-07-28T19:17:11Z</time>
<speed>4.530000</speed>
<extensions>
<speed>4.5</speed>
<temp>0.00</temp>
<bpm>0</bpm>
<rpm>0.00</rpm>
</extensions>
</trkpt>
<trkpt lat="64.044731140" lon="-21.987911224">
<ele>24.783203</ele>
<time>2012-07-28T19:17:16Z</time>
<speed>4.690000</speed>
<extensions>
<speed>4.7</speed>
<temp>0.00</temp>
<bpm>0</bpm>
<rpm>0.00</rpm>
</extensions>
</trkpt>
<trkpt lat="64.044929504" lon="-21.988037109">
<ele>24.767578</ele>
<time>2012-07-28T19:17:21Z</time>
<speed>4.850000</speed>
<extensions>
<speed>4.8</speed>
<temp>0.00</temp>
<bpm>0</bpm>
<rpm>0.00</rpm>
</extensions>
</trkpt>
<trkpt lat="64.045135498" lon="-21.988151550">
<ele>24.035645</ele>
<time>2012-07-28T19:17:26Z</time>
<speed>4.380000</speed>
<extensions>
<speed>4.4</speed>
<temp>0.00</temp>
<bpm>0</bpm>
<rpm>0.00</rpm>
</extensions>
</trkpt>
<trkpt lat="64.045318604" lon="-21.988281250">
<ele>24.539063</ele>
<time>2012-07-28T19:17:31Z</time>
<speed>4.020000</speed>
<extensions>
<speed>4.0</speed>
<temp>0.00</temp>
<bpm>0</bpm>
<rpm>0.00</rpm>
</extensions>
</trkpt>
<trkpt lat="64.045478821" lon="-21.988405228">
<ele>24.556152</ele>
<time>2012-07-28T19:17:36Z</time>
<speed>3.740000</speed>
<extensions>
<speed>3.7</speed>
<temp>0.00</temp>
<bpm>0</bpm>
<rpm>0.00</rpm>
</extensions>
</trkpt>
<trkpt lat="64.045639038" lon="-21.988515854">
<ele>24.187012</ele>
<time>2012-07-28T19:17:41Z</time>
<speed>3.870000</speed>
<extensions>
<speed>3.9</speed>
<temp>0.00</temp>
<bpm>0</bpm>
<rpm>0.00</rpm>
</extensions>
</trkpt>
<trkpt lat="64.045799255" lon="-21.988615036">
<ele>24.602051</ele>
<time>2012-07-28T19:17:46Z</time>
<speed>3.480000</speed>
<extensions>
<speed>3.5</speed>
<temp>0.00</temp>
<bpm>0</bpm>
<rpm>0.00</rpm>
</extensions>
</trkpt>
<trkpt lat="64.045921326" lon="-21.988433838">
<ele>25.583496</ele>
<time>2012-07-28T19:17:51Z</time>
<speed>3.360000</speed>
<extensions>
<speed>3.4</speed>
<temp>0.00</temp>
<bpm>0</bpm>
<rpm>0.00</rpm>
</extensions>
</trkpt>
<trkpt lat="64.046058655" lon="-21.988361359">
<ele>25.097168</ele>
<time>2012-07-28T19:17:56Z</time>
<speed>3.470000</speed>
<extensions>
<speed>3.5</speed>
<temp>0.00</temp>
<bpm>0</bpm>
<rpm>0.00</rpm>
</extensions>
</trkpt>
<trkpt lat="64.046195984" lon="-21.988538742">
<ele>24.158203</ele>
<time>2012-07-28T19:18:01Z</time>
<speed>3.660000</speed>
<extensions>
<speed>3.7</speed>
<temp>0.00</temp>
<bpm>0</bpm>
<rpm>0.00</rpm>
</extensions>
</trkpt>
<trkpt lat="64.046318054" lon="-21.988786697">
<ele>23.119141</ele>
<time>2012-07-28T19:18:06Z</time>
<speed>3.450000</speed>
<extensions>
<speed>3.5</speed>
<temp>0.00</temp>
<bpm>0</bpm>
<rpm>0.00</rpm>
</extensions>
</trkpt>
<trkpt lat="64.046463013" lon="-21.988992691">
<ele>22.605469</ele>
<time>2012-07-28T19:18:11Z</time>
<speed>3.840000</speed>
<extensions>
<speed>3.8</speed>
<temp>0.00</temp>
<bpm>0</bpm>
<rpm>0.00</rpm>
</extensions>
</trkpt>
<trkpt lat="64.046615601" lon="-21.989208221">
<ele>21.773438</ele>
<time>2012-07-28T19:18:16Z</time>
<speed>4.260000</speed>
<extensions>
<speed>4.3</speed>
<temp>0.00</temp>
<bpm>0</bpm>
<rpm>0.00</rpm>
</extensions>
</trkpt>
<trkpt lat="64.046798706" lon="-21.989439011">
<ele>20.473145</ele>
<time>2012-07-28T19:18:21Z</time>
<speed>5.100000</speed>
<extensions>
<speed>5.1</speed>
<temp>0.00</temp>
<bpm>0</bpm>
<rpm>0.00</rpm>
</extensions>
</trkpt>
<trkpt lat="64.046997070" lon="-21.989641190">
<ele>19.728516</ele>
<time>2012-07-28T19:18:26Z</time>
<speed>4.270000</speed>
<extensions>
<speed>4.3</speed>
<temp>0.00</temp>
<bpm>0</bpm>
<rpm>0.00</rpm>
</extensions>
</trkpt>
<trkpt lat="64.047172546" lon="-21.989845276">
<ele>19.756836</ele>
<time>2012-07-28T19:18:31Z</time>
<speed>4.910000</speed>
<extensions>
<speed>4.9</speed>
<temp>0.00</temp>
<bpm>0</bpm>
<rpm>0.00</rpm>
</extensions>
</trkpt>
<trkpt lat="64.047363281" lon="-21.990083694">
<ele>18.467285</ele>
<time>2012-07-28T19:18:36Z</time>
<speed>4.680000</speed>
<extensions>
<speed>4.7</speed>
<temp>0.00</temp>
<bpm>0</bpm>
<rpm>0.00</rpm>
</extensions>
</trkpt>
<trkpt lat="64.047538757" lon="-21.990264893">
<ele>17.163574</ele>
<time>2012-07-28T19:18:41Z</time>
<speed>3.850000</speed>
<extensions>
<speed>3.8</speed>
<temp>0.00</temp>
<bpm>0</bpm>
<rpm>0.00</rpm>
</extensions>
</trkpt>
<trkpt lat="64.047691345" lon="-21.990419388">
<ele>18.042480</ele>
<time>2012-07-28T19:18:46Z</time>
<speed>3.930000</speed>
<extensions>
<speed>3.9</speed>
<temp>0.00</temp>
<bpm>0</bpm>
<rpm>0.00</rpm>
</extensions>
</trkpt>
<trkpt lat="64.047866821" lon="-21.990613937">
<ele>17.257813</ele>
<time>2012-07-28T19:18:51Z</time>
<speed>4.710000</speed>
<extensions>
<speed>4.7</speed>
<temp>0.00</temp>
<bpm>0</bpm>
<rpm>0.00</rpm>
</extensions>
</trkpt>
<trkpt lat="64.048072815" lon="-21.990818024">
<ele>16.372070</ele>
<time>2012-07-28T19:18:56Z</time>
<speed>5.180000</speed>
<extensions>
<speed>5.2</speed>
<temp>0.00</temp>
<bpm>0</bpm>
<rpm>0.00</rpm>
</extensions>
</trkpt>
<trkpt lat="64.048294067" lon="-21.991048813">
<ele>17.513672</ele>
<time>2012-07-28T19:19:01Z</time>
<speed>5.170000</speed>
<extensions>
<speed>5.2</speed>
<temp>0.00</temp>
<bpm>0</bpm>
<rpm>0.00</rpm>
</extensions>
</trkpt>
<trkpt lat="64.048500061" lon="-21.991228104">
<ele>17.519531</ele>
<time>2012-07-28T19:19:06Z</time>
<speed>4.560000</speed>
<extensions>
<speed>4.6</speed>
<temp>0.00</temp>
<bpm>0</bpm>
<rpm>0.00</rpm>
</extensions>
</trkpt>
<trkpt lat="64.048683167" lon="-21.991363525">
<ele>17.342285</ele>
<time>2012-07-28T19:19:11Z</time>
<speed>3.860000</speed>
<extensions>
<speed>3.9</speed>
<temp>0.00</temp>
<bpm>0</bpm>
<rpm>0.00</rpm>
</extensions>
</trkpt>
<trkpt lat="64.048843384" lon="-21.991456985">
<ele>17.294922</ele>
<time>2012-07-28T19:19:16Z</time>
<speed>3.650000</speed>
<extensions>
<speed>3.7</speed>
<temp>0.00</temp>
<bpm>0</bpm>
<rpm>0.00</rpm>
</extensions>
</trkpt>
<trkpt lat="64.048988342" lon="-21.991552353">
<ele>17.420898</ele>
<time>2012-07-28T19:19:21Z</time>
<speed>3.240000</speed>
<extensions>
<speed>3.2</speed>
<temp>0.00</temp>
<bpm>0</bpm>
<rpm>0.00</rpm>
</extensions>
</trkpt>
<trkpt lat="64.049125671" lon="-21.991641998">
<ele>16.861328</ele>
<time>2012-07-28T19:19:26Z</time>
<speed>2.950000</speed>
<extensions>
<speed>2.9</speed>
<temp>0.00</temp>
<bpm>0</bpm>
<rpm>0.00</rpm>
</extensions>
</trkpt>
<trkpt lat="64.049240112" lon="-21.991722107">
<ele>17.129395</ele>
<time>2012-07-28T19:19:31Z</time>
<speed>2.670000</speed>
<extensions>
<speed>2.7</speed>
<temp>0.00</temp>
<bpm>0</bpm>
<rpm>0.00</rpm>
</extensions>
</trkpt>
<trkpt lat="64.049346924" lon="-21.991790771">
<ele>17.625488</ele>
<time>2012-07-28T19:19:36Z</time>
<speed>2.270000</speed>
<extensions>
<speed>2.3</speed>
<temp>0.00</temp>
<bpm>0</bpm>
<rpm>0.00</rpm>
</extensions>
</trkpt>
<trkpt lat="64.049438477" lon="-21.991853714">
<ele>16.563477</ele>
<time>2012-07-28T19:19:41Z</time>
<speed>2.250000</speed>
<extensions>
<speed>2.3</speed>
<temp>0.00</temp>
<bpm>0</bpm>
<rpm>0.00</rpm>
</extensions>
</trkpt>
<trkpt lat="64.049530029" lon="-21.991889954">
<ele>17.248535</ele>
<time>2012-07-28T19:19:46Z</time>
<speed>1.990000</speed>
<extensions>
<speed>2.0</speed>
<temp>0.00</temp>
<bpm>0</bpm>
<rpm>0.00</rpm>
</extensions>
</trkpt>
<trkpt lat="64.049621582" lon="-21.991962433">
<ele>17.171387</ele>
<time>2012-07-28T19:19:51Z</time>
<speed>1.920000</speed>
<extensions>
<speed>1.9</speed>
<temp>0.00</temp>
<bpm>0</bpm>
<rpm>0.00</rpm>
</extensions>
</trkpt>
<trkpt lat="64.049743652" lon="-21.992042542">
<ele>17.284668</ele>
<time>2012-07-28T19:19:56Z</time>
<speed>3.280000</speed>
<extensions>
<speed>3.3</speed>
<temp>0.00</temp>
<bpm>0</bpm>
<rpm>0.00</rpm>
</extensions>
</trkpt>
<trkpt lat="64.049880981" lon="-21.992151260">
<ele>16.738281</ele>
<time>2012-07-28T19:20:01Z</time>
<speed>3.460000</speed>
<extensions>
<speed>3.5</speed>
<temp>0.00</temp>
<bpm>0</bpm>
<rpm>0.00</rpm>
</extensions>
</trkpt>
<trkpt lat="64.050041199" lon="-21.992315292">
<ele>16.459961</ele>
<time>2012-07-28T19:20:06Z</time>
<speed>4.710000</speed>
<extensions>
<speed>4.7</speed>
<temp>0.00</temp>
<bpm>0</bpm>
<rpm>0.00</rpm>
</extensions>
</trkpt>
<trkpt lat="64.050231934" lon="-21.992568970">
<ele>16.899414</ele>
<time>2012-07-28T19:20:11Z</time>
<speed>4.840000</speed>
<extensions>
<speed>4.8</speed>
<temp>0.00</temp>
<bpm>0</bpm>
<rpm>0.00</rpm>
</extensions>
</trkpt>
<trkpt lat="64.050384521" lon="-21.992835999">
<ele>17.514648</ele>
<time>2012-07-28T19:20:16Z</time>
<speed>3.520000</speed>
<extensions>
<speed>3.5</speed>
<temp>0.00</temp>
<bpm>0</bpm>
<rpm>0.00</rpm>
</extensions>
</trkpt>
<trkpt lat="64.050460815" lon="-21.993028641">
<ele>18.438477</ele>
<time>2012-07-28T19:20:21Z</time>
<speed>2.090000</speed>
<extensions>
<speed>2.1</speed>
<temp>0.00</temp>
<bpm>0</bpm>
<rpm>0.00</rpm>
</extensions>
</trkpt>
<trkpt lat="64.050537109" lon="-21.993213654">
<ele>18.776855</ele>
<time>2012-07-28T19:20:26Z</time>
<speed>2.580000</speed>
<extensions>
<speed>2.6</speed>
<temp>0.00</temp>
<bpm>0</bpm>
<rpm>0.00</rpm>
</extensions>
</trkpt>
<trkpt lat="64.050598145" lon="-21.993459702">
<ele>19.666504</ele>
<time>2012-07-28T19:20:31Z</time>
<speed>3.360000</speed>
<extensions>
<speed>3.4</speed>
<temp>0.00</temp>
<bpm>0</bpm>
<rpm>0.00</rpm>
</extensions>
</trkpt>
<trkpt lat="64.050666809" lon="-21.993774414">
<ele>20.402344</ele>
<time>2012-07-28T19:20:36Z</time>
<speed>2.830000</speed>
<extensions>
<speed>2.8</speed>
<temp>0.00</temp>
<bpm>0</bpm>
<rpm>0.00</rpm>
</extensions>
</trkpt>
<trkpt lat="64.050712585" lon="-21.994047165">
<ele>20.475586</ele>
<time>2012-07-28T19:20:41Z</time>
<speed>3.470000</speed>
<extensions>
<speed>3.5</speed>
<temp>0.00</temp>
<bpm>0</bpm>
<rpm>0.00</rpm>
</extensions>
</trkpt>
<trkpt lat="64.050750732" lon="-21.994316101">
<ele>20.357910</ele>
<time>2012-07-28T19:20:46Z</time>
<speed>2.150000</speed>
<extensions>
<speed>2.1</speed>
<temp>0.00</temp>
<bpm>0</bpm>
<rpm>0.00</rpm>
</extensions>
</trkpt>
<trkpt lat="64.050781250" lon="-21.994581223">
<ele>20.163086</ele>
<time>2012-07-28T19:20:51Z</time>
<speed>3.220000</speed>
<extensions>
<speed>3.2</speed>
<temp>0.00</temp>
<bpm>0</bpm>
<rpm>0.00</rpm>
</extensions>
</trkpt>
<trkpt lat="64.050796509" lon="-21.994903564">
<ele>19.931152</ele>
<time>2012-07-28T19:20:56Z</time>
<speed>2.710000</speed>
<extensions>
<speed>2.7</speed>
<temp>0.00</temp>
<bpm>0</bpm>
<rpm>0.00</rpm>
</extensions>
</trkpt>
<trkpt lat="64.050804138" lon="-21.995195389">
<ele>19.219238</ele>
<time>2012-07-28T19:21:01Z</time>
<speed>3.240000</speed>
<extensions>
<speed>3.2</speed>
<temp>0.00</temp>
<bpm>0</bpm>
<rpm>0.00</rpm>
</extensions>
</trkpt>
<trkpt lat="64.050788879" lon="-21.995447159">
<ele>19.336914</ele>
<time>2012-07-28T19:21:06Z</time>
<speed>2.170000</speed>
<extensions>
<speed>2.2</speed>
<temp>0.00</temp>
<bpm>0</bpm>
<rpm>0.00</rpm>
</extensions>
</trkpt>
<trkpt lat="64.050773621" lon="-21.995664597">
<ele>19.691895</ele>
<time>2012-07-28T19:21:11Z</time>
<speed>3.040000</speed>
<extensions>
<speed>3.0</speed>
<temp>0.00</temp>
<bpm>0</bpm>
<rpm>0.00</rpm>
</extensions>
</trkpt>
<trkpt lat="64.050727844" lon="-21.996019363">
<ele>20.222168</ele>
<time>2012-07-28T19:21:16Z</time>
<speed>3.620000</speed>
<extensions>
<speed>3.6</speed>
<temp>0.00</temp>
<bpm>0</bpm>
<rpm>0.00</rpm>
</extensions>
</trkpt>
<trkpt lat="64.050674438" lon="-21.996366501">
<ele>20.634277</ele>
<time>2012-07-28T19:21:21Z</time>
<speed>4.050000</speed>
<extensions>
<speed>4.0</speed>
<temp>0.00</temp>
<bpm>0</bpm>
<rpm>0.00</rpm>
</extensions>
</trkpt>
<trkpt lat="64.050605774" lon="-21.996753693">
<ele>20.210938</ele>
<time>2012-07-28T19:21:26Z</time>
<speed>4.130000</speed>
<extensions>
<speed>4.1</speed>
<temp>0.00</temp>
<bpm>0</bpm>
<rpm>0.00</rpm>
</extensions>
</trkpt>
<trkpt lat="64.050544739" lon="-21.997095108">
<ele>20.495117</ele>
<time>2012-07-28T19:21:31Z</time>
<speed>3.640000</speed>
<extensions>
<speed>3.6</speed>
<temp>0.00</temp>
<bpm>0</bpm>
<rpm>0.00</rpm>
</extensions>
</trkpt>
<trkpt lat="64.050476074" lon="-21.997447968">
<ele>20.735352</ele>
<time>2012-07-28T19:21:36Z</time>
<speed>4.190000</speed>
<extensions>
<speed>4.2</speed>
<temp>0.00</temp>
<bpm>0</bpm>
<rpm>0.00</rpm>
</extensions>
</trkpt>
<trkpt lat="64.050407410" lon="-21.997831345">
<ele>21.025391</ele>
<time>2012-07-28T19:21:41Z</time>
<speed>3.760000</speed>
<extensions>
<speed>3.8</speed>
<temp>0.00</temp>
<bpm>0</bpm>
<rpm>0.00</rpm>
</extensions>
</trkpt>
<trkpt lat="64.050346375" lon="-21.998151779">
<ele>21.242676</ele>
<time>2012-07-28T19:21:46Z</time>
<speed>3.540000</speed>
<extensions>
<speed>3.5</speed>
<temp>0.00</temp>
<bpm>0</bpm>
<rpm>0.00</rpm>
</extensions>
</trkpt>
<trkpt lat="64.050270081" lon="-21.998552322">
<ele>21.485840</ele>
<time>2012-07-28T19:21:51Z</time>
<speed>4.660000</speed>
<extensions>
<speed>4.7</speed>
<temp>0.00</temp>
<bpm>0</bpm>
<rpm>0.00</rpm>
</extensions>
</trkpt>
<trkpt lat="64.050193787" lon="-21.998966217">
<ele>21.389160</ele>
<time>2012-07-28T19:21:56Z</time>
<speed>4.100000</speed>
<extensions>
<speed>4.1</speed>
<temp>0.00</temp>
<bpm>0</bpm>
<rpm>0.00</rpm>
</extensions>
</trkpt>
<trkpt lat="64.050132751" lon="-21.999332428">
<ele>21.606934</ele>
<time>2012-07-28T19:22:01Z</time>
<speed>3.600000</speed>
<extensions>
<speed>3.6</speed>
<temp>0.00</temp>
<bpm>0</bpm>
<rpm>0.00</rpm>
</extensions>
</trkpt>
<trkpt lat="64.050071716" lon="-21.999685287">
<ele>21.505859</ele>
<time>2012-07-28T19:22:06Z</time>
<speed>3.980000</speed>
<extensions>
<speed>4.0</speed>
<temp>0.00</temp>
<bpm>0</bpm>
<rpm>0.00</rpm>
</extensions>
</trkpt>
<trkpt lat="64.049995422" lon="-22.000072479">
<ele>21.826172</ele>
<time>2012-07-28T19:22:11Z</time>
<speed>4.230000</speed>
<extensions>
<speed>4.2</speed>
<temp>0.00</temp>
<bpm>0</bpm>
<rpm>0.00</rpm>
</extensions>
</trkpt>
<trkpt lat="64.049919128" lon="-22.000471115">
<ele>22.212402</ele>
<time>2012-07-28T19:22:16Z</time>
<speed>4.210000</speed>
<extensions>
<speed>4.2</speed>
<temp>0.00</temp>
<bpm>0</bpm>
<rpm>0.00</rpm>
</extensions>
</trkpt>
<trkpt lat="64.049911499" lon="-22.000869751">
<ele>21.586914</ele>
<time>2012-07-28T19:22:21Z</time>
<speed>3.470000</speed>
<extensions>
<speed>3.5</speed>
<temp>0.00</temp>
<bpm>0</bpm>
<rpm>0.00</rpm>
</extensions>
</trkpt>
<trkpt lat="64.049926758" lon="-22.001207352">
<ele>21.182129</ele>
<time>2012-07-28T19:22:26Z</time>
<speed>2.840000</speed>
<extensions>
<speed>2.8</speed>
<temp>0.00</temp>
<bpm>0</bpm>
<rpm>0.00</rpm>
</extensions>
</trkpt>
<trkpt lat="64.049995422" lon="-22.001487732">
<ele>21.107910</ele>
<time>2012-07-28T19:22:31Z</time>
<speed>2.810000</speed>
<extensions>
<speed>2.8</speed>
<temp>0.00</temp>
<bpm>0</bpm>
<rpm>0.00</rpm>
</extensions>
</trkpt>
<trkpt lat="64.050094604" lon="-22.001621246">
<ele>21.565430</ele>
<time>2012-07-28T19:22:36Z</time>
<speed>2.630000</speed>
<extensions>
<speed>2.6</speed>
<temp>0.00</temp>
<bpm>0</bpm>
<rpm>0.00</rpm>
</extensions>
</trkpt>
<trkpt lat="64.050224304" lon="-22.001693726">
<ele>21.100098</ele>
<time>2012-07-28T19:22:41Z</time>
<speed>2.620000</speed>
<extensions>
<speed>2.6</speed>
<temp>0.00</temp>
<bpm>0</bpm>
<rpm>0.00</rpm>
</extensions>
</trkpt>
<trkpt lat="64.050292969" lon="-22.001668930">
<ele>20.848145</ele>
<time>2012-07-28T19:22:46Z</time>
<speed>0.110000</speed>
<extensions>
<speed>0.1</speed>
<temp>0.00</temp>
<bpm>0</bpm>
<rpm>0.00</rpm>
</extensions>
</trkpt>
<trkpt lat="64.050285339" lon="-22.001670837">
<ele>20.768555</ele>
<time>2012-07-28T19:22:51Z</time>
<speed>0.020000</speed>
<extensions>
<speed>0.0</speed>
<temp>0.00</temp>
<bpm>0</bpm>
<rpm>0.00</rpm>
</extensions>
</trkpt>
<trkpt lat="64.050285339" lon="-22.001668930">
<ele>20.753906</ele>
<time>2012-07-28T19:22:56Z</time>
<extensions>
<speed>0.0</speed>
<temp>0.00</temp>
<bpm>0</bpm>
<rpm>0.00</rpm>
</extensions>
</trkpt>
<trkpt lat="64.050285339" lon="-22.001667023">
<ele>20.775391</ele>
<time>2012-07-28T19:23:01Z</time>
<extensions>
<speed>0.0</speed>
<temp>0.00</temp>
<bpm>0</bpm>
<rpm>0.00</rpm>
</extensions>
</trkpt>
<trkpt lat="64.050285339" lon="-22.001668930">
<ele>20.817871</ele>
<time>2012-07-28T19:23:06Z</time>
<speed>0.030000</speed>
<extensions>
<speed>0.0</speed>
<temp>0.00</temp>
<bpm>0</bpm>
<rpm>0.00</rpm>
</extensions>
</trkpt>
<trkpt lat="64.050285339" lon="-22.001667023">
<ele>20.616699</ele>
<time>2012-07-28T19:23:11Z</time>
<extensions>
<speed>0.0</speed>
<temp>0.00</temp>
<bpm>0</bpm>
<rpm>0.00</rpm>
</extensions>
</trkpt>
<trkpt lat="64.050292969" lon="-22.001657486">
<ele>20.641113</ele>
<time>2012-07-28T19:23:16Z</time>
<speed>1.050000</speed>
<extensions>
<speed>1.0</speed>
<temp>0.00</temp>
<bpm>0</bpm>
<rpm>0.00</rpm>
</extensions>
</trkpt>
<trkpt lat="64.050376892" lon="-22.001487732">
<ele>20.263672</ele>
<time>2012-07-28T19:23:21Z</time>
<speed>3.580000</speed>
<extensions>
<speed>3.6</speed>
<temp>0.00</temp>
<bpm>0</bpm>
<rpm>0.00</rpm>
</extensions>
</trkpt>
<trkpt lat="64.050453186" lon="-22.001096725">
<ele>19.823242</ele>
<time>2012-07-28T19:23:26Z</time>
<speed>4.350000</speed>
<extensions>
<speed>4.3</speed>
<temp>0.00</temp>
<bpm>0</bpm>
<rpm>0.00</rpm>
</extensions>
</trkpt>
<trkpt lat="64.050529480" lon="-22.000663757">
<ele>19.815918</ele>
<time>2012-07-28T19:23:31Z</time>
<speed>4.600000</speed>
<extensions>
<speed>4.6</speed>
<temp>0.00</temp>
<bpm>0</bpm>
<rpm>0.00</rpm>
</extensions>
</trkpt>
<trkpt lat="64.050598145" lon="-22.000204086">
<ele>19.671387</ele>
<time>2012-07-28T19:23:36Z</time>
<speed>4.880000</speed>
<extensions>
<speed>4.9</speed>
<temp>0.00</temp>
<bpm>0</bpm>
<rpm>0.00</rpm>
</extensions>
</trkpt>
<trkpt lat="64.050682068" lon="-21.999715805">
<ele>19.517578</ele>
<time>2012-07-28T19:23:41Z</time>
<speed>4.900000</speed>
<extensions>
<speed>4.9</speed>
<temp>0.00</temp>
<bpm>0</bpm>
<rpm>0.00</rpm>
</extensions>
</trkpt>
<trkpt lat="64.050750732" lon="-21.999282837">
<ele>20.021484</ele>
<time>2012-07-28T19:23:46Z</time>
<speed>3.980000</speed>
<extensions>
<speed>4.0</speed>
<temp>0.00</temp>
<bpm>0</bpm>
<rpm>0.00</rpm>
</extensions>
</trkpt>
<trkpt lat="64.050811768" lon="-21.998945236">
<ele>19.794922</ele>
<time>2012-07-28T19:23:51Z</time>
<speed>3.330000</speed>
<extensions>
<speed>3.3</speed>
<temp>0.00</temp>
<bpm>0</bpm>
<rpm>0.00</rpm>
</extensions>
</trkpt>
<trkpt lat="64.050857544" lon="-21.998666763">
<ele>19.466309</ele>
<time>2012-07-28T19:23:56Z</time>
<speed>2.850000</speed>
<extensions>
<speed>2.9</speed>
<temp>0.00</temp>
<bpm>0</bpm>
<rpm>0.00</rpm>
</extensions>
</trkpt>
<trkpt lat="64.050895691" lon="-21.998399734">
<ele>18.008789</ele>
<time>2012-07-28T19:24:01Z</time>
<speed>2.970000</speed>
<extensions>
<speed>3.0</speed>
<temp>0.00</temp>
<bpm>0</bpm>
<rpm>0.00</rpm>
</extensions>
</trkpt>
<trkpt lat="64.050949097" lon="-21.998125076">
<ele>18.889648</ele>
<time>2012-07-28T19:24:06Z</time>
<speed>2.810000</speed>
<extensions>
<speed>2.8</speed>
<temp>0.00</temp>
<bpm>0</bpm>
<rpm>0.00</rpm>
</extensions>
</trkpt>
<trkpt lat="64.050994873" lon="-21.997844696">
<ele>19.389160</ele>
<time>2012-07-28T19:24:11Z</time>
<speed>2.690000</speed>
<extensions>
<speed>2.7</speed>
<temp>0.00</temp>
<bpm>0</bpm>
<rpm>0.00</rpm>
</extensions>
</trkpt>
<trkpt lat="64.051025391" lon="-21.997575760">
<ele>19.032227</ele>
<time>2012-07-28T19:24:16Z</time>
<speed>2.650000</speed>
<extensions>
<speed>2.6</speed>
<temp>0.00</temp>
<bpm>0</bpm>
<rpm>0.00</rpm>
</extensions>
</trkpt>
<trkpt lat="64.051071167" lon="-21.997333527">
<ele>19.041504</ele>
<time>2012-07-28T19:24:21Z</time>
<speed>3.090000</speed>
<extensions>
<speed>3.1</speed>
<temp>0.00</temp>
<bpm>0</bpm>
<rpm>0.00</rpm>
</extensions>
</trkpt>
<trkpt lat="64.051109314" lon="-21.997070313">
<ele>19.125000</ele>
<time>2012-07-28T19:24:26Z</time>
<speed>2.510000</speed>
<extensions>
<speed>2.5</speed>
<temp>0.00</temp>
<bpm>0</bpm>
<rpm>0.00</rpm>
</extensions>
</trkpt>
<trkpt lat="64.051147461" lon="-21.996833801">
<ele>19.321777</ele>
<time>2012-07-28T19:24:31Z</time>
<speed>2.730000</speed>
<extensions>
<speed>2.7</speed>
<temp>0.00</temp>
<bpm>0</bpm>
<rpm>0.00</rpm>
</extensions>
</trkpt>
<trkpt lat="64.051193237" lon="-21.996541977">
<ele>19.427246</ele>
<time>2012-07-28T19:24:36Z</time>
<speed>2.850000</speed>
<extensions>
<speed>2.9</speed>
<temp>0.00</temp>
<bpm>0</bpm>
<rpm>0.00</rpm>
</extensions>
</trkpt>
<trkpt lat="64.051239014" lon="-21.996252060">
<ele>19.271973</ele>
<time>2012-07-28T19:24:41Z</time>
<speed>3.150000</speed>
<extensions>
<speed>3.2</speed>
<temp>0.00</temp>
<bpm>0</bpm>
<rpm>0.00</rpm>
</extensions>
</trkpt>
<trkpt lat="64.051284790" lon="-21.995950699">
<ele>19.206543</ele>
<time>2012-07-28T19:24:46Z</time>
<speed>2.940000</speed>
<extensions>
<speed>2.9</speed>
<temp>0.00</temp>
<bpm>0</bpm>
<rpm>0.00</rpm>
</extensions>
</trkpt>
<trkpt lat="64.051330566" lon="-21.995670319">
<ele>18.957520</ele>
<time>2012-07-28T19:24:51Z</time>
<speed>3.040000</speed>
<extensions>
<speed>3.0</speed>
<temp>0.00</temp>
<bpm>0</bpm>
<rpm>0.00</rpm>
</extensions>
</trkpt>
<trkpt lat="64.051368713" lon="-21.995378494">
<ele>18.658203</ele>
<time>2012-07-28T19:24:56Z</time>
<speed>3.050000</speed>
<extensions>
<speed>3.0</speed>
<temp>0.00</temp>
<bpm>0</bpm>
<rpm>0.00</rpm>
</extensions>
</trkpt>
<trkpt lat="64.051406860" lon="-21.995086670">
<ele>19.008301</ele>
<time>2012-07-28T19:25:01Z</time>
<speed>2.840000</speed>
<extensions>
<speed>2.8</speed>
<temp>0.00</temp>
<bpm>0</bpm>
<rpm>0.00</rpm>
</extensions>
</trkpt>
<trkpt lat="64.051445007" lon="-21.994838715">
<ele>19.167969</ele>
<time>2012-07-28T19:25:06Z</time>
<speed>2.520000</speed>
<extensions>
<speed>2.5</speed>
<temp>0.00</temp>
<bpm>0</bpm>
<rpm>0.00</rpm>
</extensions>
</trkpt>
<trkpt lat="64.051483154" lon="-21.994575500">
<ele>19.258301</ele>
<time>2012-07-28T19:25:11Z</time>
<speed>2.890000</speed>
<extensions>
<speed>2.9</speed>
<temp>0.00</temp>
<bpm>0</bpm>
<rpm>0.00</rpm>
</extensions>
</trkpt>
<trkpt lat="64.051528931" lon="-21.994308472">
<ele>19.140137</ele>
<time>2012-07-28T19:25:16Z</time>
<speed>2.680000</speed>
<extensions>
<speed>2.7</speed>
<temp>0.00</temp>
<bpm>0</bpm>
<rpm>0.00</rpm>
</extensions>
</trkpt>
<trkpt lat="64.051574707" lon="-21.994029999">
<ele>19.134277</ele>
<time>2012-07-28T19:25:21Z</time>
<speed>2.850000</speed>
<extensions>
<speed>2.9</speed>
<temp>0.00</temp>
<bpm>0</bpm>
<rpm>0.00</rpm>
</extensions>
</trkpt>
<trkpt lat="64.051612854" lon="-21.993764877">
<ele>19.209473</ele>
<time>2012-07-28T19:25:26Z</time>
<speed>2.860000</speed>
<extensions>
<speed>2.9</speed>
<temp>0.00</temp>
<bpm>0</bpm>
<rpm>0.00</rpm>
</extensions>
</trkpt>
<trkpt lat="64.051651001" lon="-21.993467331">
<ele>19.366211</ele>
<time>2012-07-28T19:25:31Z</time>
<speed>3.160000</speed>
<extensions>
<speed>3.2</speed>
<temp>0.00</temp>
<bpm>0</bpm>
<rpm>0.00</rpm>
</extensions>
</trkpt>
<trkpt lat="64.051704407" lon="-21.993158340">
<ele>19.046875</ele>
<time>2012-07-28T19:25:36Z</time>
<speed>3.160000</speed>
<extensions>
<speed>3.2</speed>
<temp>0.00</temp>
<bpm>0</bpm>
<rpm>0.00</rpm>
</extensions>
</trkpt>
<trkpt lat="64.051750183" lon="-21.992843628">
<ele>19.364746</ele>
<time>2012-07-28T19:25:41Z</time>
<speed>3.280000</speed>
<extensions>
<speed>3.3</speed>
<temp>0.00</temp>
<bpm>0</bpm>
<rpm>0.00</rpm>
</extensions>
</trkpt>
<trkpt lat="64.051803589" lon="-21.992517471">
<ele>19.648926</ele>
<time>2012-07-28T19:25:46Z</time>
<speed>3.500000</speed>
<extensions>
<speed>3.5</speed>
<temp>0.00</temp>
<bpm>0</bpm>
<rpm>0.00</rpm>
</extensions>
</trkpt>
<trkpt lat="64.051856995" lon="-21.992179871">
<ele>21.464844</ele>
<time>2012-07-28T19:25:51Z</time>
<speed>3.800000</speed>
<extensions>
<speed>3.8</speed>
<temp>0.00</temp>
<bpm>0</bpm>
<rpm>0.00</rpm>
</extensions>
</trkpt>
<trkpt lat="64.051910400" lon="-21.991825104">
<ele>21.629395</ele>
<time>2012-07-28T19:25:56Z</time>
<speed>3.780000</speed>
<extensions>
<speed>3.8</speed>
<temp>0.00</temp>
<bpm>0</bpm>
<rpm>0.00</rpm>
</extensions>
</trkpt>
<trkpt lat="64.051963806" lon="-21.991451263">
<ele>20.997559</ele>
<time>2012-07-28T19:26:01Z</time>
<speed>3.580000</speed>
<extensions>
<speed>3.6</speed>
<temp>0.00</temp>
<bpm>0</bpm>
<rpm>0.00</rpm>
</extensions>
</trkpt>
<trkpt lat="64.052017212" lon="-21.991115570">
<ele>21.372070</ele>
<time>2012-07-28T19:26:06Z</time>
<speed>3.510000</speed>
<extensions>
<speed>3.5</speed>
<temp>0.00</temp>
<bpm>0</bpm>
<rpm>0.00</rpm>
</extensions>
</trkpt>
<trkpt lat="64.052070618" lon="-21.990785599">
<ele>21.488770</ele>
<time>2012-07-28T19:26:11Z</time>
<speed>3.370000</speed>
<extensions>
<speed>3.4</speed>
<temp>0.00</temp>
<bpm>0</bpm>
<rpm>0.00</rpm>
</extensions>
</trkpt>
<trkpt lat="64.052124023" lon="-21.990457535">
<ele>23.083008</ele>
<time>2012-07-28T19:26:16Z</time>
<speed>3.520000</speed>
<extensions>
<speed>3.5</speed>
<temp>0.00</temp>
<bpm>0</bpm>
<rpm>0.00</rpm>
</extensions>
</trkpt>
<trkpt lat="64.052169800" lon="-21.990114212">
<ele>23.031738</ele>
<time>2012-07-28T19:26:21Z</time>
<speed>3.600000</speed>
<extensions>
<speed>3.6</speed>
<temp>0.00</temp>
<bpm>0</bpm>
<rpm>0.00</rpm>
</extensions>
</trkpt>
<trkpt lat="64.052223206" lon="-21.989761353">
<ele>22.166992</ele>
<time>2012-07-28T19:26:26Z</time>
<speed>3.580000</speed>
<extensions>
<speed>3.6</speed>
<temp>0.00</temp>
<bpm>0</bpm>
<rpm>0.00</rpm>
</extensions>
</trkpt>
<trkpt lat="64.052276611" lon="-21.989402771">
<ele>21.492676</ele>
<time>2012-07-28T19:26:31Z</time>
<speed>3.630000</speed>
<extensions>
<speed>3.6</speed>
<temp>0.00</temp>
<bpm>0</bpm>
<rpm>0.00</rpm>
</extensions>
</trkpt>
<trkpt lat="64.052330017" lon="-21.989051819">
<ele>21.734863</ele>
<time>2012-07-28T19:26:36Z</time>
<speed>3.650000</speed>
<extensions>
<speed>3.7</speed>
<temp>0.00</temp>
<bpm>0</bpm>
<rpm>0.00</rpm>
</extensions>
</trkpt>
<trkpt lat="64.052375793" lon="-21.988737106">
<ele>22.260254</ele>
<time>2012-07-28T19:26:41Z</time>
<speed>3.210000</speed>
<extensions>
<speed>3.2</speed>
<temp>0.00</temp>
<bpm>0</bpm>
<rpm>0.00</rpm>
</extensions>
</trkpt>
<trkpt lat="64.052421570" lon="-21.988420486">
<ele>21.968262</ele>
<time>2012-07-28T19:26:46Z</time>
<speed>3.320000</speed>
<extensions>
<speed>3.3</speed>
<temp>0.00</temp>
<bpm>0</bpm>
<rpm>0.00</rpm>
</extensions>
</trkpt>
<trkpt lat="64.052467346" lon="-21.988088608">
<ele>21.278320</ele>
<time>2012-07-28T19:26:51Z</time>
<speed>3.380000</speed>
<extensions>
<speed>3.4</speed>
<temp>0.00</temp>
<bpm>0</bpm>
<rpm>0.00</rpm>
</extensions>
</trkpt>
<trkpt lat="64.052505493" lon="-21.987762451">
<ele>21.264648</ele>
<time>2012-07-28T19:26:56Z</time>
<speed>3.240000</speed>
<extensions>
<speed>3.2</speed>
<temp>0.00</temp>
<bpm>0</bpm>
<rpm>0.00</rpm>
</extensions>
</trkpt>
<trkpt lat="64.052558899" lon="-21.987440109">
<ele>21.394531</ele>
<time>2012-07-28T19:27:01Z</time>
<speed>3.250000</speed>
<extensions>
<speed>3.2</speed>
<temp>0.00</temp>
<bpm>0</bpm>
<rpm>0.00</rpm>
</extensions>
</trkpt>
<trkpt lat="64.052619934" lon="-21.987144470">
<ele>23.561035</ele>
<time>2012-07-28T19:27:06Z</time>
<speed>2.950000</speed>
<extensions>
<speed>2.9</speed>
<temp>0.00</temp>
<bpm>0</bpm>
<rpm>0.00</rpm>
</extensions>
</trkpt>
<trkpt lat="64.052658081" lon="-21.986852646">
<ele>24.722656</ele>
<time>2012-07-28T19:27:11Z</time>
<speed>3.030000</speed>
<extensions>
<speed>3.0</speed>
<temp>0.00</temp>
<bpm>0</bpm>
<rpm>0.00</rpm>
</extensions>
</trkpt>
<trkpt lat="64.052703857" lon="-21.986562729">
<ele>24.776855</ele>
<time>2012-07-28T19:27:16Z</time>
<speed>3.090000</speed>
<extensions>
<speed>3.1</speed>
<temp>0.00</temp>
<bpm>0</bpm>
<rpm>0.00</rpm>
</extensions>
</trkpt>
<trkpt lat="64.052742004" lon="-21.986261368">
<ele>24.390137</ele>
<time>2012-07-28T19:27:21Z</time>
<speed>2.890000</speed>
<extensions>
<speed>2.9</speed>
<temp>0.00</temp>
<bpm>0</bpm>
<rpm>0.00</rpm>
</extensions>
</trkpt>
<trkpt lat="64.052780151" lon="-21.985998154">
<ele>23.773926</ele>
<time>2012-07-28T19:27:26Z</time>
<speed>2.830000</speed>
<extensions>
<speed>2.8</speed>
<temp>0.00</temp>
<bpm>0</bpm>
<rpm>0.00</rpm>
</extensions>
</trkpt>
<trkpt lat="64.052818298" lon="-21.985719681">
<ele>23.833008</ele>
<time>2012-07-28T19:27:31Z</time>
<speed>2.890000</speed>
<extensions>
<speed>2.9</speed>
<temp>0.00</temp>
<bpm>0</bpm>
<rpm>0.00</rpm>
</extensions>
</trkpt>
<trkpt lat="64.052864075" lon="-21.985445023">
<ele>24.046387</ele>
<time>2012-07-28T19:27:36Z</time>
<speed>2.640000</speed>
<extensions>
<speed>2.6</speed>
<temp>0.00</temp>
<bpm>0</bpm>
<rpm>0.00</rpm>
</extensions>
</trkpt>
<trkpt lat="64.052902222" lon="-21.985197067">
<ele>23.949219</ele>
<time>2012-07-28T19:27:41Z</time>
<speed>2.710000</speed>
<extensions>
<speed>2.7</speed>
<temp>0.00</temp>
<bpm>0</bpm>
<rpm>0.00</rpm>
</extensions>
</trkpt>
<trkpt lat="64.052932739" lon="-21.984952927">
<ele>24.229492</ele>
<time>2012-07-28T19:27:46Z</time>
<speed>2.640000</speed>
<extensions>
<speed>2.6</speed>
<temp>0.00</temp>
<bpm>0</bpm>
<rpm>0.00</rpm>
</extensions>
</trkpt>
<trkpt lat="64.052970886" lon="-21.984697342">
<ele>23.768066</ele>
<time>2012-07-28T19:27:51Z</time>
<speed>2.590000</speed>
<extensions>
<speed>2.6</speed>
<temp>0.00</temp>
<bpm>0</bpm>
<rpm>0.00</rpm>
</extensions>
</trkpt>
<trkpt lat="64.053009033" lon="-21.984426498">
<ele>23.525879</ele>
<time>2012-07-28T19:27:56Z</time>
<speed>3.070000</speed>
<extensions>
<speed>3.1</speed>
<temp>0.00</temp>
<bpm>0</bpm>
<rpm>0.00</rpm>
</extensions>
</trkpt>
<trkpt lat="64.053039551" lon="-21.984182358">
<ele>24.029297</ele>
<time>2012-07-28T19:28:01Z</time>
<speed>2.360000</speed>
<extensions>
<speed>2.4</speed>
<temp>0.00</temp>
<bpm>0</bpm>
<rpm>0.00</rpm>
</extensions>
</trkpt>
<trkpt lat="64.053077698" lon="-21.983970642">
<ele>24.496582</ele>
<time>2012-07-28T19:28:06Z</time>
<speed>2.300000</speed>
<extensions>
<speed>2.3</speed>
<temp>0.00</temp>
<bpm>0</bpm>
<rpm>0.00</rpm>
</extensions>
</trkpt>
<trkpt lat="64.053115845" lon="-21.983751297">
<ele>24.271973</ele>
<time>2012-07-28T19:28:11Z</time>
<speed>2.030000</speed>
<extensions>
<speed>2.0</speed>
<temp>0.00</temp>
<bpm>0</bpm>
<rpm>0.00</rpm>
</extensions>
</trkpt>
<trkpt lat="64.053146362" lon="-21.983566284">
<ele>25.195801</ele>
<time>2012-07-28T19:28:16Z</time>
<speed>2.250000</speed>
<extensions>
<speed>2.3</speed>
<temp>0.00</temp>
<bpm>0</bpm>
<rpm>0.00</rpm>
</extensions>
</trkpt>
<trkpt lat="64.053169250" lon="-21.983379364">
<ele>26.551758</ele>
<time>2012-07-28T19:28:21Z</time>
<speed>2.020000</speed>
<extensions>
<speed>2.0</speed>
<temp>0.00</temp>
<bpm>0</bpm>
<rpm>0.00</rpm>
</extensions>
</trkpt>
<trkpt lat="64.053207397" lon="-21.983184814">
<ele>26.271484</ele>
<time>2012-07-28T19:28:26Z</time>
<speed>1.720000</speed>
<extensions>
<speed>1.7</speed>
<temp>0.00</temp>
<bpm>0</bpm>
<rpm>0.00</rpm>
</extensions>
</trkpt>
<trkpt lat="64.053230286" lon="-21.982994080">
<ele>27.147461</ele>
<time>2012-07-28T19:28:31Z</time>
<speed>1.790000</speed>
<extensions>
<speed>1.8</speed>
<temp>0.00</temp>
<bpm>0</bpm>
<rpm>0.00</rpm>
</extensions>
</trkpt>
<trkpt lat="64.053245544" lon="-21.982797623">
<ele>29.134766</ele>
<time>2012-07-28T19:28:36Z</time>
<speed>2.070000</speed>
<extensions>
<speed>2.1</speed>
<temp>0.00</temp>
<bpm>0</bpm>
<rpm>0.00</rpm>
</extensions>
</trkpt>
<trkpt lat="64.053276062" lon="-21.982587814">
<ele>28.724609</ele>
<time>2012-07-28T19:28:41Z</time>
<speed>1.830000</speed>
<extensions>
<speed>1.8</speed>
<temp>0.00</temp>
<bpm>0</bpm>
<rpm>0.00</rpm>
</extensions>
</trkpt>
<trkpt lat="64.053306580" lon="-21.982414246">
<ele>30.927734</ele>
<time>2012-07-28T19:28:46Z</time>
<speed>2.130000</speed>
<extensions>
<speed>2.1</speed>
<temp>0.00</temp>
<bpm>0</bpm>
<rpm>0.00</rpm>
</extensions>
</trkpt>
<trkpt lat="64.053344727" lon="-21.982212067">
<ele>31.061035</ele>
<time>2012-07-28T19:28:51Z</time>
<speed>2.150000</speed>
<extensions>
<speed>2.1</speed>
<temp>0.00</temp>
<bpm>0</bpm>
<rpm>0.00</rpm>
</extensions>
</trkpt>
<trkpt lat="64.053375244" lon="-21.982023239">
<ele>31.755859</ele>
<time>2012-07-28T19:28:56Z</time>
<speed>1.940000</speed>
<extensions>
<speed>1.9</speed>
<temp>0.00</temp>
<bpm>0</bpm>
<rpm>0.00</rpm>
</extensions>
</trkpt>
<trkpt lat="64.053405762" lon="-21.981832504">
<ele>32.563477</ele>
<time>2012-07-28T19:29:01Z</time>
<speed>2.200000</speed>
<extensions>
<speed>2.2</speed>
<temp>0.00</temp>
<bpm>0</bpm>
<rpm>0.00</rpm>
</extensions>
</trkpt>
<trkpt lat="64.053436279" lon="-21.981622696">
<ele>33.562500</ele>
<time>2012-07-28T19:29:06Z</time>
<speed>2.040000</speed>
<extensions>
<speed>2.0</speed>
<temp>0.00</temp>
<bpm>0</bpm>
<rpm>0.00</rpm>
</extensions>
</trkpt>
<trkpt lat="64.053466797" lon="-21.981407166">
<ele>32.432617</ele>
<time>2012-07-28T19:29:11Z</time>
<speed>2.170000</speed>
<extensions>
<speed>2.2</speed>
<temp>0.00</temp>
<bpm>0</bpm>
<rpm>0.00</rpm>
</extensions>
</trkpt>
<trkpt lat="64.053497314" lon="-21.981193542">
<ele>30.146973</ele>
<time>2012-07-28T19:29:16Z</time>
<speed>2.280000</speed>
<extensions>
<speed>2.3</speed>
<temp>0.00</temp>
<bpm>0</bpm>
<rpm>0.00</rpm>
</extensions>
</trkpt>
<trkpt lat="64.053543091" lon="-21.980970383">
<ele>30.739746</ele>
<time>2012-07-28T19:29:21Z</time>
<speed>2.470000</speed>
<extensions>
<speed>2.5</speed>
<temp>0.00</temp>
<bpm>0</bpm>
<rpm>0.00</rpm>
</extensions>
</trkpt>
<trkpt lat="64.053581238" lon="-21.980741501">
<ele>31.423340</ele>
<time>2012-07-28T19:29:26Z</time>
<speed>2.430000</speed>
<extensions>
<speed>2.4</speed>
<temp>0.00</temp>
<bpm>0</bpm>
<rpm>0.00</rpm>
</extensions>
</trkpt>
<trkpt lat="64.053619385" lon="-21.980495453">
<ele>32.548828</ele>
<time>2012-07-28T19:29:31Z</time>
<speed>2.510000</speed>
<extensions>
<speed>2.5</speed>
<temp>0.00</temp>
<bpm>0</bpm>
<rpm>0.00</rpm>
</extensions>
</trkpt>
<trkpt lat="64.053657532" lon="-21.980274200">
<ele>33.011719</ele>
<time>2012-07-28T19:29:36Z</time>
<speed>2.210000</speed>
<extensions>
<speed>2.2</speed>
<temp>0.00</temp>
<bpm>0</bpm>
<rpm>0.00</rpm>
</extensions>
</trkpt>
<trkpt lat="64.053688049" lon="-21.980033875">
<ele>35.582031</ele>
<time>2012-07-28T19:29:41Z</time>
<speed>2.530000</speed>
<extensions>
<speed>2.5</speed>
<temp>0.00</temp>
<bpm>0</bpm>
<rpm>0.00</rpm>
</extensions>
</trkpt>
<trkpt lat="64.053726196" lon="-21.979816437">
<ele>35.934570</ele>
<time>2012-07-28T19:29:46Z</time>
<speed>2.150000</speed>
<extensions>
<speed>2.1</speed>
<temp>0.00</temp>
<bpm>0</bpm>
<rpm>0.00</rpm>
</extensions>
</trkpt>
<trkpt lat="64.053749084" lon="-21.979595184">
<ele>35.386719</ele>
<time>2012-07-28T19:29:51Z</time>
<speed>2.380000</speed>
<extensions>
<speed>2.4</speed>
<temp>0.00</temp>
<bpm>0</bpm>
<rpm>0.00</rpm>
</extensions>
</trkpt>
<trkpt lat="64.053787231" lon="-21.979356766">
<ele>35.139648</ele>
<time>2012-07-28T19:29:56Z</time>
<speed>2.520000</speed>
<extensions>
<speed>2.5</speed>
<temp>0.00</temp>
<bpm>0</bpm>
<rpm>0.00</rpm>
</extensions>
</trkpt>
<trkpt lat="64.053825378" lon="-21.979103088">
<ele>34.312500</ele>
<time>2012-07-28T19:30:01Z</time>
<speed>2.570000</speed>
<extensions>
<speed>2.6</speed>
<temp>0.00</temp>
<bpm>0</bpm>
<rpm>0.00</rpm>
</extensions>
</trkpt>
<trkpt lat="64.053871155" lon="-21.978845596">
<ele>34.783203</ele>
<time>2012-07-28T19:30:06Z</time>
<speed>2.670000</speed>
<extensions>
<speed>2.7</speed>
<temp>0.00</temp>
<bpm>0</bpm>
<rpm>0.00</rpm>
</extensions>
</trkpt>
<trkpt lat="64.053901672" lon="-21.978590012">
<ele>34.833008</ele>
<time>2012-07-28T19:30:11Z</time>
<speed>2.790000</speed>
<extensions>
<speed>2.8</speed>
<temp>0.00</temp>
<bpm>0</bpm>
<rpm>0.00</rpm>
</extensions>
</trkpt>
<trkpt lat="64.053955078" lon="-21.978273392">
<ele>34.614258</ele>
<time>2012-07-28T19:30:16Z</time>
<speed>3.020000</speed>
<extensions>
<speed>3.0</speed>
<temp>0.00</temp>
<bpm>0</bpm>
<rpm>0.00</rpm>
</extensions>
</trkpt>
<trkpt lat="64.053970337" lon="-21.978061676">
<ele>35.587891</ele>
<time>2012-07-28T19:30:21Z</time>
<speed>0.010000</speed>
<extensions>
<speed>0.0</speed>
<temp>0.00</temp>
<bpm>0</bpm>
<rpm>0.00</rpm>
</extensions>
</trkpt>
<trkpt lat="64.053970337" lon="-21.978054047">
<ele>36.865234</ele>
<time>2012-07-28T19:30:26Z</time>
<extensions>
<speed>0.0</speed>
<temp>0.00</temp>
<bpm>0</bpm>
<rpm>0.00</rpm>
</extensions>
</trkpt>
<trkpt lat="64.053970337" lon="-21.978054047">
<ele>36.845703</ele>
<time>2012-07-28T19:30:31Z</time>
<speed>0.020000</speed>
<extensions>
<speed>0.0</speed>
<temp>0.00</temp>
<bpm>0</bpm>
<rpm>0.00</rpm>
</extensions>
</trkpt>
<trkpt lat="64.053970337" lon="-21.978055954">
<ele>36.783203</ele>
<time>2012-07-28T19:30:36Z</time>
<speed>0.080000</speed>
<extensions>
<speed>0.1</speed>
<temp>0.00</temp>
<bpm>0</bpm>
<rpm>0.00</rpm>
</extensions>
</trkpt>
<trkpt lat="64.053970337" lon="-21.978050232">
<ele>36.801758</ele>
<time>2012-07-28T19:30:41Z</time>
<speed>0.020000</speed>
<extensions>
<speed>0.0</speed>
<temp>0.00</temp>
<bpm>0</bpm>
<rpm>0.00</rpm>
</extensions>
</trkpt>
<trkpt lat="64.053970337" lon="-21.978052139">
<ele>36.823242</ele>
<time>2012-07-28T19:30:46Z</time>
<speed>0.150000</speed>
<extensions>
<speed>0.2</speed>
<temp>0.00</temp>
<bpm>0</bpm>
<rpm>0.00</rpm>
</extensions>
</trkpt>
<trkpt lat="64.053970337" lon="-21.978054047">
<ele>36.452148</ele>
<time>2012-07-28T19:30:51Z</time>
<speed>0.040000</speed>
<extensions>
<speed>0.0</speed>
<temp>0.00</temp>
<bpm>0</bpm>
<rpm>0.00</rpm>
</extensions>
</trkpt>
<trkpt lat="64.053970337" lon="-21.978054047">
<ele>35.885742</ele>
<time>2012-07-28T19:30:56Z</time>
<speed>0.010000</speed>
<extensions>
<speed>0.0</speed>
<temp>0.00</temp>
<bpm>0</bpm>
<rpm>0.00</rpm>
</extensions>
</trkpt>
<trkpt lat="64.053970337" lon="-21.978054047">
<ele>35.805664</ele>
<time>2012-07-28T19:31:01Z</time>
<speed>0.160000</speed>
<extensions>
<speed>0.2</speed>
<temp>0.00</temp>
<bpm>0</bpm>
<rpm>0.00</rpm>
</extensions>
</trkpt>
<trkpt lat="64.053962708" lon="-21.978052139">
<ele>34.813477</ele>
<time>2012-07-28T19:31:06Z</time>
<speed>0.400000</speed>
<extensions>
<speed>0.4</speed>
<temp>0.00</temp>
<bpm>0</bpm>
<rpm>0.00</rpm>
</extensions>
</trkpt>
<trkpt lat="64.053924561" lon="-21.978019714">
<ele>33.743164</ele>
<time>2012-07-28T19:31:11Z</time>
<speed>1.350000</speed>
<extensions>
<speed>1.4</speed>
<temp>0.00</temp>
<bpm>0</bpm>
<rpm>0.00</rpm>
</extensions>
</trkpt>
<trkpt lat="64.053871155" lon="-21.977977753">
<ele>33.201172</ele>
<time>2012-07-28T19:31:16Z</time>
<speed>0.370000</speed>
<extensions>
<speed>0.4</speed>
<temp>0.00</temp>
<bpm>0</bpm>
<rpm>0.00</rpm>
</extensions>
</trkpt>
<trkpt lat="64.053840637" lon="-21.977972031">
<ele>33.135742</ele>
<time>2012-07-28T19:31:21Z</time>
<speed>1.330000</speed>
<extensions>
<speed>1.3</speed>
<temp>0.00</temp>
<bpm>0</bpm>
<rpm>0.00</rpm>
</extensions>
</trkpt>
<trkpt lat="64.053787231" lon="-21.977935791">
<ele>33.993164</ele>
<time>2012-07-28T19:31:26Z</time>
<speed>1.220000</speed>
<extensions>
<speed>1.2</speed>
<temp>0.00</temp>
<bpm>0</bpm>
<rpm>0.00</rpm>
</extensions>
</trkpt>
<trkpt lat="64.053741455" lon="-21.977876663">
<ele>35.663086</ele>
<time>2012-07-28T19:31:31Z</time>
<speed>1.400000</speed>
<extensions>
<speed>1.4</speed>
<temp>0.00</temp>
<bpm>0</bpm>
<rpm>0.00</rpm>
</extensions>
</trkpt>
<trkpt lat="64.053688049" lon="-21.977830887">
<ele>36.153320</ele>
<time>2012-07-28T19:31:36Z</time>
<speed>1.270000</speed>
<extensions>
<speed>1.3</speed>
<temp>0.00</temp>
<bpm>0</bpm>
<rpm>0.00</rpm>
</extensions>
</trkpt>
<trkpt lat="64.053634644" lon="-21.977758408">
<ele>35.049805</ele>
<time>2012-07-28T19:31:41Z</time>
<speed>1.200000</speed>
<extensions>
<speed>1.2</speed>
<temp>0.00</temp>
<bpm>0</bpm>
<rpm>0.00</rpm>
</extensions>
</trkpt>
<trkpt lat="64.053604126" lon="-21.977651596">
<ele>34.077148</ele>
<time>2012-07-28T19:31:46Z</time>
<speed>1.010000</speed>
<extensions>
<speed>1.0</speed>
<temp>0.00</temp>
<bpm>0</bpm>
<rpm>0.00</rpm>
</extensions>
</trkpt>
<trkpt lat="64.053581238" lon="-21.977552414">
<ele>33.597656</ele>
<time>2012-07-28T19:31:51Z</time>
<speed>0.950000</speed>
<extensions>
<speed>1.0</speed>
<temp>0.00</temp>
<bpm>0</bpm>
<rpm>0.00</rpm>
</extensions>
</trkpt>
<trkpt lat="64.053558350" lon="-21.977497101">
<ele>32.281250</ele>
<time>2012-07-28T19:31:56Z</time>
<speed>1.080000</speed>
<extensions>
<speed>1.1</speed>
<temp>0.00</temp>
<bpm>0</bpm>
<rpm>0.00</rpm>
</extensions>
</trkpt>
<trkpt lat="64.053489685" lon="-21.977493286">
<ele>31.339844</ele>
<time>2012-07-28T19:32:01Z</time>
<speed>1.000000</speed>
<extensions>
<speed>1.0</speed>
<temp>0.00</temp>
<bpm>0</bpm>
<rpm>0.00</rpm>
</extensions>
</trkpt>
<trkpt lat="64.053451538" lon="-21.977523804">
<ele>32.333984</ele>
<time>2012-07-28T19:32:06Z</time>
<speed>1.210000</speed>
<extensions>
<speed>1.2</speed>
<temp>0.00</temp>
<bpm>0</bpm>
<rpm>0.00</rpm>
</extensions>
</trkpt>
<trkpt lat="64.053436279" lon="-21.977548599">
<ele>31.230469</ele>
<time>2012-07-28T19:32:11Z</time>
<speed>0.050000</speed>
<extensions>
<speed>0.1</speed>
<temp>0.00</temp>
<bpm>0</bpm>
<rpm>0.00</rpm>
</extensions>
</trkpt>
<trkpt lat="64.053398132" lon="-21.977722168">
<ele>31.752441</ele>
<time>2012-07-28T19:32:16Z</time>
<speed>3.280000</speed>
<extensions>
<speed>3.3</speed>
<temp>0.00</temp>
<bpm>0</bpm>
<rpm>0.00</rpm>
</extensions>
</trkpt>
<trkpt lat="64.053314209" lon="-21.978069305">
<ele>32.700195</ele>
<time>2012-07-28T19:32:21Z</time>
<speed>3.800000</speed>
<extensions>
<speed>3.8</speed>
<temp>0.00</temp>
<bpm>0</bpm>
<rpm>0.00</rpm>
</extensions>
</trkpt>
<trkpt lat="64.053184509" lon="-21.978279114">
<ele>33.724609</ele>
<time>2012-07-28T19:32:26Z</time>
<speed>3.240000</speed>
<extensions>
<speed>3.2</speed>
<temp>0.00</temp>
<bpm>0</bpm>
<rpm>0.00</rpm>
</extensions>
</trkpt>
<trkpt lat="64.053062439" lon="-21.978433609">
<ele>34.711914</ele>
<time>2012-07-28T19:32:31Z</time>
<speed>2.960000</speed>
<extensions>
<speed>3.0</speed>
<temp>0.00</temp>
<bpm>0</bpm>
<rpm>0.00</rpm>
</extensions>
</trkpt>
<trkpt lat="64.052947998" lon="-21.978576660">
<ele>36.181641</ele>
<time>2012-07-28T19:32:36Z</time>
<speed>3.230000</speed>
<extensions>
<speed>3.2</speed>
<temp>0.00</temp>
<bpm>0</bpm>
<rpm>0.00</rpm>
</extensions>
</trkpt>
<trkpt lat="64.052864075" lon="-21.978858948">
<ele>35.312500</ele>
<time>2012-07-28T19:32:41Z</time>
<speed>3.190000</speed>
<extensions>
<speed>3.2</speed>
<temp>0.00</temp>
<bpm>0</bpm>
<rpm>0.00</rpm>
</extensions>
</trkpt>
<trkpt lat="64.052780151" lon="-21.979135513">
<ele>35.337891</ele>
<time>2012-07-28T19:32:46Z</time>
<speed>3.350000</speed>
<extensions>
<speed>3.4</speed>
<temp>0.00</temp>
<bpm>0</bpm>
<rpm>0.00</rpm>
</extensions>
</trkpt>
<trkpt lat="64.052680969" lon="-21.979373932">
<ele>33.983398</ele>
<time>2012-07-28T19:32:51Z</time>
<speed>2.970000</speed>
<extensions>
<speed>3.0</speed>
<temp>0.00</temp>
<bpm>0</bpm>
<rpm>0.00</rpm>
</extensions>
</trkpt>
<trkpt lat="64.052597046" lon="-21.979621887">
<ele>33.558594</ele>
<time>2012-07-28T19:32:56Z</time>
<speed>2.840000</speed>
<extensions>
<speed>2.8</speed>
<temp>0.00</temp>
<bpm>0</bpm>
<rpm>0.00</rpm>
</extensions>
</trkpt>
<trkpt lat="64.052520752" lon="-21.979825974">
<ele>32.988281</ele>
<time>2012-07-28T19:33:01Z</time>
<speed>2.190000</speed>
<extensions>
<speed>2.2</speed>
<temp>0.00</temp>
<bpm>0</bpm>
<rpm>0.00</rpm>
</extensions>
</trkpt>
<trkpt lat="64.052490234" lon="-21.979866028">
<ele>35.280273</ele>
<time>2012-07-28T19:33:06Z</time>
<speed>0.070000</speed>
<extensions>
<speed>0.1</speed>
<temp>0.00</temp>
<bpm>0</bpm>
<rpm>0.00</rpm>
</extensions>
</trkpt>
<trkpt lat="64.052497864" lon="-21.979885101">
<ele>36.036133</ele>
<time>2012-07-28T19:33:11Z</time>
<speed>0.760000</speed>
<extensions>
<speed>0.8</speed>
<temp>0.00</temp>
<bpm>0</bpm>
<rpm>0.00</rpm>
</extensions>
</trkpt>
<trkpt lat="64.052497864" lon="-21.979764938">
<ele>36.427734</ele>
<time>2012-07-28T19:33:16Z</time>
<speed>0.770000</speed>
<extensions>
<speed>0.8</speed>
<temp>0.00</temp>
<bpm>0</bpm>
<rpm>0.00</rpm>
</extensions>
</trkpt>
<trkpt lat="64.052497864" lon="-21.979722977">
<ele>36.821289</ele>
<time>2012-07-28T19:33:21Z</time>
<speed>0.080000</speed>
<extensions>
<speed>0.1</speed>
<temp>0.00</temp>
<bpm>0</bpm>
<rpm>0.00</rpm>
</extensions>
</trkpt>
<trkpt lat="64.052520752" lon="-21.979667664">
<ele>33.729492</ele>
<time>2012-07-28T19:33:26Z</time>
<speed>1.580000</speed>
<extensions>
<speed>1.6</speed>
<temp>0.00</temp>
<bpm>0</bpm>
<rpm>0.00</rpm>
</extensions>
</trkpt>
<trkpt lat="64.052558899" lon="-21.979585648">
<ele>30.891113</ele>
<time>2012-07-28T19:33:31Z</time>
<speed>1.290000</speed>
<extensions>
<speed>1.3</speed>
<temp>0.00</temp>
<bpm>0</bpm>
<rpm>0.00</rpm>
</extensions>
</trkpt>
<trkpt lat="64.052551270" lon="-21.979513168">
<ele>26.835449</ele>
<time>2012-07-28T19:33:36Z</time>
<speed>0.230000</speed>
<extensions>
<speed>0.2</speed>
<temp>0.00</temp>
<bpm>0</bpm>
<rpm>0.00</rpm>
</extensions>
</trkpt>
<trkpt lat="64.052543640" lon="-21.979494095">
<ele>25.903809</ele>
<time>2012-07-28T19:33:41Z</time>
<speed>0.170000</speed>
<extensions>
<speed>0.2</speed>
<temp>0.00</temp>
<bpm>0</bpm>
<rpm>0.00</rpm>
</extensions>
</trkpt>
<trkpt lat="64.052536011" lon="-21.979496002">
<ele>25.420898</ele>
<time>2012-07-28T19:33:46Z</time>
<speed>0.080000</speed>
<extensions>
<speed>0.1</speed>
<temp>0.00</temp>
<bpm>0</bpm>
<rpm>0.00</rpm>
</extensions>
</trkpt>
<trkpt lat="64.052536011" lon="-21.979496002">
<ele>25.268555</ele>
<time>2012-07-28T19:33:51Z</time>
<speed>0.020000</speed>
<extensions>
<speed>0.0</speed>
<temp>0.00</temp>
<bpm>0</bpm>
<rpm>0.00</rpm>
</extensions>
</trkpt>
<trkpt lat="64.052543640" lon="-21.979496002">
<ele>25.217773</ele>
<time>2012-07-28T19:33:56Z</time>
<speed>0.010000</speed>
<extensions>
<speed>0.0</speed>
<temp>0.00</temp>
<bpm>0</bpm>
<rpm>0.00</rpm>
</extensions>
</trkpt>
<trkpt lat="64.052543640" lon="-21.979496002">
<ele>25.193359</ele>
<time>2012-07-28T19:34:01Z</time>
<speed>0.010000</speed>
<extensions>
<speed>0.0</speed>
<temp>0.00</temp>
<bpm>0</bpm>
<rpm>0.00</rpm>
</extensions>
</trkpt>
<trkpt lat="64.052543640" lon="-21.979497910">
<ele>25.211914</ele>
<time>2012-07-28T19:34:06Z</time>
<speed>0.030000</speed>
<extensions>
<speed>0.0</speed>
<temp>0.00</temp>
<bpm>0</bpm>
<rpm>0.00</rpm>
</extensions>
</trkpt>
<trkpt lat="64.052543640" lon="-21.979497910">
<ele>25.238770</ele>
<time>2012-07-28T19:34:11Z</time>
<speed>0.010000</speed>
<extensions>
<speed>0.0</speed>
<temp>0.00</temp>
<bpm>0</bpm>
<rpm>0.00</rpm>
</extensions>
</trkpt>
<trkpt lat="64.052543640" lon="-21.979497910">
<ele>25.245117</ele>
<time>2012-07-28T19:34:16Z</time>
<speed>0.040000</speed>
<extensions>
<speed>0.0</speed>
<temp>0.00</temp>
<bpm>0</bpm>
<rpm>0.00</rpm>
</extensions>
</trkpt>
<trkpt lat="64.052543640" lon="-21.979497910">
<ele>25.231445</ele>
<time>2012-07-28T19:34:21Z</time>
<speed>0.010000</speed>
<extensions>
<speed>0.0</speed>
<temp>0.00</temp>
<bpm>0</bpm>
<rpm>0.00</rpm>
</extensions>
</trkpt>
<trkpt lat="64.052543640" lon="-21.979496002">
<ele>25.266113</ele>
<time>2012-07-28T19:34:26Z</time>
<speed>0.010000</speed>
<extensions>
<speed>0.0</speed>
<temp>0.00</temp>
<bpm>0</bpm>
<rpm>0.00</rpm>
</extensions>
</trkpt>
<trkpt lat="64.052543640" lon="-21.979496002">
<ele>25.293945</ele>
<time>2012-07-28T19:34:31Z</time>
<speed>0.010000</speed>
<extensions>
<speed>0.0</speed>
<temp>0.00</temp>
<bpm>0</bpm>
<rpm>0.00</rpm>
</extensions>
</trkpt>
<trkpt lat="64.052543640" lon="-21.979497910">
<ele>25.320801</ele>
<time>2012-07-28T19:34:36Z</time>
<speed>0.060000</speed>
<extensions>
<speed>0.1</speed>
<temp>0.00</temp>
<bpm>0</bpm>
<rpm>0.00</rpm>
</extensions>
</trkpt>
<trkpt lat="64.052543640" lon="-21.979497910">
<ele>25.306641</ele>
<time>2012-07-28T19:34:41Z</time>
<speed>0.010000</speed>
<extensions>
<speed>0.0</speed>
<temp>0.00</temp>
<bpm>0</bpm>
<rpm>0.00</rpm>
</extensions>
</trkpt>
<trkpt lat="64.052543640" lon="-21.979497910">
<ele>25.292480</ele>
<time>2012-07-28T19:34:46Z</time>
<speed>0.020000</speed>
<extensions>
<speed>0.0</speed>
<temp>0.00</temp>
<bpm>0</bpm>
<rpm>0.00</rpm>
</extensions>
</trkpt>
<trkpt lat="64.052543640" lon="-21.979497910">
<ele>25.294434</ele>
<time>2012-07-28T19:34:51Z</time>
<speed>0.070000</speed>
<extensions>
<speed>0.1</speed>
<temp>0.00</temp>
<bpm>0</bpm>
<rpm>0.00</rpm>
</extensions>
</trkpt>
<trkpt lat="64.052543640" lon="-21.979497910">
<ele>25.416992</ele>
<time>2012-07-28T19:34:56Z</time>
<speed>0.430000</speed>
<extensions>
<speed>0.4</speed>
<temp>0.00</temp>
<bpm>0</bpm>
<rpm>0.00</rpm>
</extensions>
</trkpt>
<trkpt lat="64.052536011" lon="-21.979484558">
<ele>25.301758</ele>
<time>2012-07-28T19:35:01Z</time>
<speed>0.300000</speed>
<extensions>
<speed>0.3</speed>
<temp>0.00</temp>
<bpm>0</bpm>
<rpm>0.00</rpm>
</extensions>
</trkpt>
<trkpt lat="64.052558899" lon="-21.979486465">
<ele>25.956055</ele>
<time>2012-07-28T19:35:06Z</time>
<speed>0.040000</speed>
<extensions>
<speed>0.0</speed>
<temp>0.00</temp>
<bpm>0</bpm>
<rpm>0.00</rpm>
</extensions>
</trkpt>
<trkpt lat="64.052558899" lon="-21.979484558">
<ele>26.233398</ele>
<time>2012-07-28T19:35:11Z</time>
<speed>0.060000</speed>
<extensions>
<speed>0.1</speed>
<temp>0.00</temp>
<bpm>0</bpm>
<rpm>0.00</rpm>
</extensions>
</trkpt>
<trkpt lat="64.052558899" lon="-21.979488373">
<ele>26.599121</ele>
<time>2012-07-28T19:35:16Z</time>
<speed>0.050000</speed>
<extensions>
<speed>0.1</speed>
<temp>0.00</temp>
<bpm>0</bpm>
<rpm>0.00</rpm>
</extensions>
</trkpt>
<trkpt lat="64.052566528" lon="-21.979492188">
<ele>27.087891</ele>
<time>2012-07-28T19:35:21Z</time>
<speed>0.160000</speed>
<extensions>
<speed>0.2</speed>
<temp>0.00</temp>
<bpm>0</bpm>
<rpm>0.00</rpm>
</extensions>
</trkpt>
<trkpt lat="64.052574158" lon="-21.979499817">
<ele>27.723633</ele>
<time>2012-07-28T19:35:26Z</time>
<speed>0.240000</speed>
<extensions>
<speed>0.2</speed>
<temp>0.00</temp>
<bpm>0</bpm>
<rpm>0.00</rpm>
</extensions>
</trkpt>
<trkpt lat="64.052581787" lon="-21.979507446">
<ele>28.501465</ele>
<time>2012-07-28T19:35:31Z</time>
<speed>0.240000</speed>
<extensions>
<speed>0.2</speed>
<temp>0.00</temp>
<bpm>0</bpm>
<rpm>0.00</rpm>
</extensions>
</trkpt>
<trkpt lat="64.052597046" lon="-21.979516983">
<ele>29.281738</ele>
<time>2012-07-28T19:35:36Z</time>
<speed>0.260000</speed>
<extensions>
<speed>0.3</speed>
<temp>0.00</temp>
<bpm>0</bpm>
<rpm>0.00</rpm>
</extensions>
</trkpt>
<trkpt lat="64.052604675" lon="-21.979526520">
<ele>30.004395</ele>
<time>2012-07-28T19:35:41Z</time>
<speed>0.280000</speed>
<extensions>
<speed>0.3</speed>
<temp>0.00</temp>
<bpm>0</bpm>
<rpm>0.00</rpm>
</extensions>
</trkpt>
<trkpt lat="64.052642822" lon="-21.979557037">
<ele>31.728516</ele>
<time>2012-07-28T19:35:46Z</time>
<speed>0.350000</speed>
<extensions>
<speed>0.3</speed>
<temp>0.00</temp>
<bpm>0</bpm>
<rpm>0.00</rpm>
</extensions>
</trkpt>
<trkpt lat="64.052665710" lon="-21.979574203">
<ele>32.893555</ele>
<time>2012-07-28T19:35:51Z</time>
<speed>0.330000</speed>
<extensions>
<speed>0.3</speed>
<temp>0.00</temp>
<bpm>0</bpm>
<rpm>0.00</rpm>
</extensions>
</trkpt>
<trkpt lat="64.052696228" lon="-21.979595184">
<ele>34.702148</ele>
<time>2012-07-28T19:35:56Z</time>
<speed>0.370000</speed>
<extensions>
<speed>0.4</speed>
<temp>0.00</temp>
<bpm>0</bpm>
<rpm>0.00</rpm>
</extensions>
</trkpt>
<trkpt lat="64.052726746" lon="-21.979616165">
<ele>36.305664</ele>
<time>2012-07-28T19:36:01Z</time>
<speed>0.350000</speed>
<extensions>
<speed>0.3</speed>
<temp>0.00</temp>
<bpm>0</bpm>
<rpm>0.00</rpm>
</extensions>
</trkpt>
<trkpt lat="64.052742004" lon="-21.979633331">
<ele>37.952148</ele>
<time>2012-07-28T19:36:06Z</time>
<speed>0.280000</speed>
<extensions>
<speed>0.3</speed>
<temp>0.00</temp>
<bpm>0</bpm>
<rpm>0.00</rpm>
</extensions>
</trkpt>
<trkpt lat="64.052749634" lon="-21.979646683">
<ele>38.827148</ele>
<time>2012-07-28T19:36:11Z</time>
<speed>0.310000</speed>
<extensions>
<speed>0.3</speed>
<temp>0.00</temp>
<bpm>0</bpm>
<rpm>0.00</rpm>
</extensions>
</trkpt>
<trkpt lat="64.052742004" lon="-21.979642868">
<ele>38.319336</ele>
<time>2012-07-28T19:36:16Z</time>
<speed>0.210000</speed>
<extensions>
<speed>0.2</speed>
<temp>0.00</temp>
<bpm>0</bpm>
<rpm>0.00</rpm>
</extensions>
</trkpt>
<trkpt lat="64.052749634" lon="-21.979650497">
<ele>38.770508</ele>
<time>2012-07-28T19:36:21Z</time>
<speed>0.100000</speed>
<extensions>
<speed>0.1</speed>
<temp>0.00</temp>
<bpm>0</bpm>
<rpm>0.00</rpm>
</extensions>
</trkpt>
<trkpt lat="64.052749634" lon="-21.979652405">
<ele>39.164063</ele>
<time>2012-07-28T19:36:26Z</time>
<speed>0.050000</speed>
<extensions>
<speed>0.1</speed>
<temp>0.00</temp>
<bpm>0</bpm>
<rpm>0.00</rpm>
</extensions>
</trkpt>
<trkpt lat="64.052749634" lon="-21.979652405">
<ele>39.545898</ele>
<time>2012-07-28T19:36:31Z</time>
<speed>0.050000</speed>
<extensions>
<speed>0.1</speed>
<temp>0.00</temp>
<bpm>0</bpm>
<rpm>0.00</rpm>
</extensions>
</trkpt>
<trkpt lat="64.052757263" lon="-21.979654312">
<ele>39.932617</ele>
<time>2012-07-28T19:36:36Z</time>
<speed>0.090000</speed>
<extensions>
<speed>0.1</speed>
<temp>0.00</temp>
<bpm>0</bpm>
<rpm>0.00</rpm>
</extensions>
</trkpt>
<trkpt lat="64.052764893" lon="-21.979658127">
<ele>40.307617</ele>
<time>2012-07-28T19:36:41Z</time>
<speed>0.110000</speed>
<extensions>
<speed>0.1</speed>
<temp>0.00</temp>
<bpm>0</bpm>
<rpm>0.00</rpm>
</extensions>
</trkpt>
<trkpt lat="64.052764893" lon="-21.979661942">
<ele>40.697266</ele>
<time>2012-07-28T19:36:46Z</time>
<speed>0.100000</speed>
<extensions>
<speed>0.1</speed>
<temp>0.00</temp>
<bpm>0</bpm>
<rpm>0.00</rpm>
</extensions>
</trkpt>
<trkpt lat="64.052772522" lon="-21.979667664">
<ele>41.112305</ele>
<time>2012-07-28T19:36:51Z</time>
<speed>0.120000</speed>
<extensions>
<speed>0.1</speed>
<temp>0.00</temp>
<bpm>0</bpm>
<rpm>0.00</rpm>
</extensions>
</trkpt>
<trkpt lat="64.052780151" lon="-21.979673386">
<ele>41.543945</ele>
<time>2012-07-28T19:36:56Z</time>
<speed>0.150000</speed>
<extensions>
<speed>0.2</speed>
<temp>0.00</temp>
<bpm>0</bpm>
<rpm>0.00</rpm>
</extensions>
</trkpt>
<trkpt lat="64.052780151" lon="-21.979679108">
<ele>41.818359</ele>
<time>2012-07-28T19:37:01Z</time>
<speed>0.030000</speed>
<extensions>
<speed>0.0</speed>
<temp>0.00</temp>
<bpm>0</bpm>
<rpm>0.00</rpm>
</extensions>
</trkpt>
<trkpt lat="64.052780151" lon="-21.979681015">
<ele>41.987305</ele>
<time>2012-07-28T19:37:06Z</time>
<speed>0.010000</speed>
<extensions>
<speed>0.0</speed>
<temp>0.00</temp>
<bpm>0</bpm>
<rpm>0.00</rpm>
</extensions>
</trkpt>
<trkpt lat="64.052780151" lon="-21.979681015">
<ele>42.159180</ele>
<time>2012-07-28T19:37:11Z</time>
<speed>0.020000</speed>
<extensions>
<speed>0.0</speed>
<temp>0.00</temp>
<bpm>0</bpm>
<rpm>0.00</rpm>
</extensions>
</trkpt>
<trkpt lat="64.052780151" lon="-21.979682922">
<ele>42.249023</ele>
<time>2012-07-28T19:37:16Z</time>
<extensions>
<speed>0.0</speed>
<temp>0.00</temp>
<bpm>0</bpm>
<rpm>0.00</rpm>
</extensions>
</trkpt>
<trkpt lat="64.052780151" lon="-21.979682922">
<ele>42.245117</ele>
<time>2012-07-28T19:37:21Z</time>
<speed>0.040000</speed>
<extensions>
<speed>0.0</speed>
<temp>0.00</temp>
<bpm>0</bpm>
<rpm>0.00</rpm>
</extensions>
</trkpt>
<trkpt lat="64.052787781" lon="-21.979684830">
<ele>42.220703</ele>
<time>2012-07-28T19:37:26Z</time>
<speed>0.020000</speed>
<extensions>
<speed>0.0</speed>
<temp>0.00</temp>
<bpm>0</bpm>
<rpm>0.00</rpm>
</extensions>
</trkpt>
<trkpt lat="64.052787781" lon="-21.979684830">
<ele>42.240234</ele>
<time>2012-07-28T19:37:31Z</time>
<speed>0.040000</speed>
<extensions>
<speed>0.0</speed>
<temp>0.00</temp>
<bpm>0</bpm>
<rpm>0.00</rpm>
</extensions>
</trkpt>
<trkpt lat="64.052780151" lon="-21.979682922">
<ele>42.162109</ele>
<time>2012-07-28T19:37:36Z</time>
<speed>0.020000</speed>
<extensions>
<speed>0.0</speed>
<temp>0.00</temp>
<bpm>0</bpm>
<rpm>0.00</rpm>
</extensions>
</trkpt>
<trkpt lat="64.052780151" lon="-21.979681015">
<ele>42.010742</ele>
<time>2012-07-28T19:37:41Z</time>
<speed>0.040000</speed>
<extensions>
<speed>0.0</speed>
<temp>0.00</temp>
<bpm>0</bpm>
<rpm>0.00</rpm>
</extensions>
</trkpt>
<trkpt lat="64.052780151" lon="-21.979681015">
<ele>41.812500</ele>
<time>2012-07-28T19:37:46Z</time>
<speed>0.020000</speed>
<extensions>
<speed>0.0</speed>
<temp>0.00</temp>
<bpm>0</bpm>
<rpm>0.00</rpm>
</extensions>
</trkpt>
<trkpt lat="64.052780151" lon="-21.979681015">
<ele>41.629883</ele>
<time>2012-07-28T19:37:51Z</time>
<speed>0.010000</speed>
<extensions>
<speed>0.0</speed>
<temp>0.00</temp>
<bpm>0</bpm>
<rpm>0.00</rpm>
</extensions>
</trkpt>
<trkpt lat="64.052780151" lon="-21.979681015">
<ele>41.494141</ele>
<time>2012-07-28T19:37:56Z</time>
<speed>0.010000</speed>
<extensions>
<speed>0.0</speed>
<temp>0.00</temp>
<bpm>0</bpm>
<rpm>0.00</rpm>
</extensions>
</trkpt>
<trkpt lat="64.052780151" lon="-21.979681015">
<ele>41.307617</ele>
<time>2012-07-28T19:38:01Z</time>
<speed>0.010000</speed>
<extensions>
<speed>0.0</speed>
<temp>0.00</temp>
<bpm>0</bpm>
<rpm>0.00</rpm>
</extensions>
</trkpt>
<trkpt lat="64.052780151" lon="-21.979679108">
<ele>41.091797</ele>
<time>2012-07-28T19:38:06Z</time>
<speed>0.040000</speed>
<extensions>
<speed>0.0</speed>
<temp>0.00</temp>
<bpm>0</bpm>
<rpm>0.00</rpm>
</extensions>
</trkpt>
<trkpt lat="64.052772522" lon="-21.979677200">
<ele>40.854492</ele>
<time>2012-07-28T19:38:11Z</time>
<speed>0.030000</speed>
<extensions>
<speed>0.0</speed>
<temp>0.00</temp>
<bpm>0</bpm>
<rpm>0.00</rpm>
</extensions>
</trkpt>
<trkpt lat="64.052772522" lon="-21.979675293">
<ele>40.633789</ele>
<time>2012-07-28T19:38:16Z</time>
<speed>0.010000</speed>
<extensions>
<speed>0.0</speed>
<temp>0.00</temp>
<bpm>0</bpm>
<rpm>0.00</rpm>
</extensions>
</trkpt>
<trkpt lat="64.052772522" lon="-21.979675293">
<ele>40.450195</ele>
<time>2012-07-28T19:38:21Z</time>
<speed>0.020000</speed>
<extensions>
<speed>0.0</speed>
<temp>0.00</temp>
<bpm>0</bpm>
<rpm>0.00</rpm>
</extensions>
</trkpt>
<trkpt lat="64.052772522" lon="-21.979673386">
<ele>40.315430</ele>
<time>2012-07-28T19:38:26Z</time>
<speed>0.010000</speed>
<extensions>
<speed>0.0</speed>
<temp>0.00</temp>
<bpm>0</bpm>
<rpm>0.00</rpm>
</extensions>
</trkpt>
<trkpt lat="64.052772522" lon="-21.979675293">
<ele>40.212891</ele>
<time>2012-07-28T19:38:31Z</time>
<speed>0.030000</speed>
<extensions>
<speed>0.0</speed>
<temp>0.00</temp>
<bpm>0</bpm>
<rpm>0.00</rpm>
</extensions>
</trkpt>
<trkpt lat="64.052772522" lon="-21.979675293">
<ele>40.194336</ele>
<time>2012-07-28T19:38:36Z</time>
<speed>0.030000</speed>
<extensions>
<speed>0.0</speed>
<temp>0.00</temp>
<bpm>0</bpm>
<rpm>0.00</rpm>
</extensions>
</trkpt>
<trkpt lat="64.052764893" lon="-21.979677200">
<ele>40.235352</ele>
<time>2012-07-28T19:38:41Z</time>
<speed>0.030000</speed>
<extensions>
<speed>0.0</speed>
<temp>0.00</temp>
<bpm>0</bpm>
<rpm>0.00</rpm>
</extensions>
</trkpt>
<trkpt lat="64.052764893" lon="-21.979675293">
<ele>40.224609</ele>
<time>2012-07-28T19:38:46Z</time>
<extensions>
<speed>0.0</speed>
<temp>0.00</temp>
<bpm>0</bpm>
<rpm>0.00</rpm>
</extensions>
</trkpt>
<trkpt lat="64.052764893" lon="-21.979677200">
<ele>40.189453</ele>
<time>2012-07-28T19:38:51Z</time>
<speed>0.020000</speed>
<extensions>
<speed>0.0</speed>
<temp>0.00</temp>
<bpm>0</bpm>
<rpm>0.00</rpm>
</extensions>
</trkpt>
<trkpt lat="64.052764893" lon="-21.979677200">
<ele>40.158203</ele>
<time>2012-07-28T19:38:56Z</time>
<extensions>
<speed>0.0</speed>
<temp>0.00</temp>
<bpm>0</bpm>
<rpm>0.00</rpm>
</extensions>
</trkpt>
<trkpt lat="64.052764893" lon="-21.979677200">
<ele>40.083984</ele>
<time>2012-07-28T19:39:01Z</time>
<speed>0.010000</speed>
<extensions>
<speed>0.0</speed>
<temp>0.00</temp>
<bpm>0</bpm>
<rpm>0.00</rpm>
</extensions>
</trkpt>
<trkpt lat="64.052764893" lon="-21.979677200">
<ele>39.947266</ele>
<time>2012-07-28T19:39:06Z</time>
<speed>0.010000</speed>
<extensions>
<speed>0.0</speed>
<temp>0.00</temp>
<bpm>0</bpm>
<rpm>0.00</rpm>
</extensions>
</trkpt>
<trkpt lat="64.052764893" lon="-21.979677200">
<ele>39.809570</ele>
<time>2012-07-28T19:39:11Z</time>
<speed>0.030000</speed>
<extensions>
<speed>0.0</speed>
<temp>0.00</temp>
<bpm>0</bpm>
<rpm>0.00</rpm>
</extensions>
</trkpt>
<trkpt lat="64.052764893" lon="-21.979675293">
<ele>39.654297</ele>
<time>2012-07-28T19:39:16Z</time>
<extensions>
<speed>0.0</speed>
<temp>0.00</temp>
<bpm>0</bpm>
<rpm>0.00</rpm>
</extensions>
</trkpt>
<trkpt lat="64.052764893" lon="-21.979675293">
<ele>39.577148</ele>
<time>2012-07-28T19:39:21Z</time>
<speed>0.010000</speed>
<extensions>
<speed>0.0</speed>
<temp>0.00</temp>
<bpm>0</bpm>
<rpm>0.00</rpm>
</extensions>
</trkpt>
<trkpt lat="64.052757263" lon="-21.979675293">
<ele>39.525391</ele>
<time>2012-07-28T19:39:26Z</time>
<speed>0.030000</speed>
<extensions>
<speed>0.0</speed>
<temp>0.00</temp>
<bpm>0</bpm>
<rpm>0.00</rpm>
</extensions>
</trkpt>
<trkpt lat="64.052757263" lon="-21.979673386">
<ele>39.458008</ele>
<time>2012-07-28T19:39:31Z</time>
<extensions>
<speed>0.0</speed>
<temp>0.00</temp>
<bpm>0</bpm>
<rpm>0.00</rpm>
</extensions>
</trkpt>
<trkpt lat="64.052757263" lon="-21.979671478">
<ele>39.489258</ele>
<time>2012-07-28T19:39:36Z</time>
<speed>0.030000</speed>
<extensions>
<speed>0.0</speed>
<temp>0.00</temp>
<bpm>0</bpm>
<rpm>0.00</rpm>
</extensions>
</trkpt>
<trkpt lat="64.052757263" lon="-21.979671478">
<ele>39.548828</ele>
<time>2012-07-28T19:39:41Z</time>
<extensions>
<speed>0.0</speed>
<temp>0.00</temp>
<bpm>0</bpm>
<rpm>0.00</rpm>
</extensions>
</trkpt>
<trkpt lat="64.052757263" lon="-21.979671478">
<ele>39.576172</ele>
<time>2012-07-28T19:39:46Z</time>
<extensions>
<speed>0.0</speed>
<temp>0.00</temp>
<bpm>0</bpm>
<rpm>0.00</rpm>
</extensions>
</trkpt>
<trkpt lat="64.052757263" lon="-21.979671478">
<ele>39.563477</ele>
<time>2012-07-28T19:39:51Z</time>
<speed>0.010000</speed>
<extensions>
<speed>0.0</speed>
<temp>0.00</temp>
<bpm>0</bpm>
<rpm>0.00</rpm>
</extensions>
</trkpt>
<trkpt lat="64.052757263" lon="-21.979671478">
<ele>39.554688</ele>
<time>2012-07-28T19:39:56Z</time>
<speed>0.010000</speed>
<extensions>
<speed>0.0</speed>
<temp>0.00</temp>
<bpm>0</bpm>
<rpm>0.00</rpm>
</extensions>
</trkpt>
<trkpt lat="64.052757263" lon="-21.979673386">
<ele>39.671875</ele>
<time>2012-07-28T19:40:01Z</time>
<speed>0.010000</speed>
<extensions>
<speed>0.0</speed>
<temp>0.00</temp>
<bpm>0</bpm>
<rpm>0.00</rpm>
</extensions>
</trkpt>
<trkpt lat="64.052757263" lon="-21.979673386">
<ele>39.848633</ele>
<time>2012-07-28T19:40:06Z</time>
<speed>0.020000</speed>
<extensions>
<speed>0.0</speed>
<temp>0.00</temp>
<bpm>0</bpm>
<rpm>0.00</rpm>
</extensions>
</trkpt>
<trkpt lat="64.052757263" lon="-21.979673386">
<ele>39.934570</ele>
<time>2012-07-28T19:40:11Z</time>
<speed>0.010000</speed>
<extensions>
<speed>0.0</speed>
<temp>0.00</temp>
<bpm>0</bpm>
<rpm>0.00</rpm>
</extensions>
</trkpt>
<trkpt lat="64.052757263" lon="-21.979675293">
<ele>39.942383</ele>
<time>2012-07-28T19:40:16Z</time>
<speed>0.020000</speed>
<extensions>
<speed>0.0</speed>
<temp>0.00</temp>
<bpm>0</bpm>
<rpm>0.00</rpm>
</extensions>
</trkpt>
<trkpt lat="64.052757263" lon="-21.979677200">
<ele>39.915039</ele>
<time>2012-07-28T19:40:21Z</time>
<speed>0.010000</speed>
<extensions>
<speed>0.0</speed>
<temp>0.00</temp>
<bpm>0</bpm>
<rpm>0.00</rpm>
</extensions>
</trkpt>
<trkpt lat="64.052757263" lon="-21.979677200">
<ele>39.888672</ele>
<time>2012-07-28T19:40:26Z</time>
<speed>0.010000</speed>
<extensions>
<speed>0.0</speed>
<temp>0.00</temp>
<bpm>0</bpm>
<rpm>0.00</rpm>
</extensions>
</trkpt>
<trkpt lat="64.052757263" lon="-21.979675293">
<ele>39.883789</ele>
<time>2012-07-28T19:40:31Z</time>
<extensions>
<speed>0.0</speed>
<temp>0.00</temp>
<bpm>0</bpm>
<rpm>0.00</rpm>
</extensions>
</trkpt>
<trkpt lat="64.052757263" lon="-21.979675293">
<ele>39.859375</ele>
<time>2012-07-28T19:40:36Z</time>
<speed>0.010000</speed>
<extensions>
<speed>0.0</speed>
<temp>0.00</temp>
<bpm>0</bpm>
<rpm>0.00</rpm>
</extensions>
</trkpt>
<trkpt lat="64.052757263" lon="-21.979673386">
<ele>39.775391</ele>
<time>2012-07-28T19:40:41Z</time>
<speed>0.010000</speed>
<extensions>
<speed>0.0</speed>
<temp>0.00</temp>
<bpm>0</bpm>
<rpm>0.00</rpm>
</extensions>
</trkpt>
<trkpt lat="64.052757263" lon="-21.979675293">
<ele>39.638672</ele>
<time>2012-07-28T19:40:46Z</time>
<speed>0.020000</speed>
<extensions>
<speed>0.0</speed>
<temp>0.00</temp>
<bpm>0</bpm>
<rpm>0.00</rpm>
</extensions>
</trkpt>
<trkpt lat="64.052757263" lon="-21.979677200">
<ele>39.477539</ele>
<time>2012-07-28T19:40:51Z</time>
<speed>0.010000</speed>
<extensions>
<speed>0.0</speed>
<temp>0.00</temp>
<bpm>0</bpm>
<rpm>0.00</rpm>
</extensions>
</trkpt>
<trkpt lat="64.052757263" lon="-21.979677200">
<ele>39.330078</ele>
<time>2012-07-28T19:40:56Z</time>
<speed>0.030000</speed>
<extensions>
<speed>0.0</speed>
<temp>0.00</temp>
<bpm>0</bpm>
<rpm>0.00</rpm>
</extensions>
</trkpt>
<trkpt lat="64.052757263" lon="-21.979677200">
<ele>39.168945</ele>
<time>2012-07-28T19:41:01Z</time>
<speed>0.010000</speed>
<extensions>
<speed>0.0</speed>
<temp>0.00</temp>
<bpm>0</bpm>
<rpm>0.00</rpm>
</extensions>
</trkpt>
<trkpt lat="64.052757263" lon="-21.979677200">
<ele>38.999023</ele>
<time>2012-07-28T19:41:06Z</time>
<extensions>
<speed>0.0</speed>
<temp>0.00</temp>
<bpm>0</bpm>
<rpm>0.00</rpm>
</extensions>
</trkpt>
<trkpt lat="64.052757263" lon="-21.979679108">
<ele>38.843750</ele>
<time>2012-07-28T19:41:11Z</time>
<speed>0.020000</speed>
<extensions>
<speed>0.0</speed>
<temp>0.00</temp>
<bpm>0</bpm>
<rpm>0.00</rpm>
</extensions>
</trkpt>
<trkpt lat="64.052757263" lon="-21.979681015">
<ele>38.694336</ele>
<time>2012-07-28T19:41:16Z</time>
<speed>0.020000</speed>
<extensions>
<speed>0.0</speed>
<temp>0.00</temp>
<bpm>0</bpm>
<rpm>0.00</rpm>
</extensions>
</trkpt>
<trkpt lat="64.052757263" lon="-21.979681015">
<ele>38.554688</ele>
<time>2012-07-28T19:41:21Z</time>
<extensions>
<speed>0.0</speed>
<temp>0.00</temp>
<bpm>0</bpm>
<rpm>0.00</rpm>
</extensions>
</trkpt>
<trkpt lat="64.052757263" lon="-21.979681015">
<ele>38.541992</ele>
<time>2012-07-28T19:41:26Z</time>
<speed>0.010000</speed>
<extensions>
<speed>0.0</speed>
<temp>0.00</temp>
<bpm>0</bpm>
<rpm>0.00</rpm>
</extensions>
</trkpt>
<trkpt lat="64.052757263" lon="-21.979682922">
<ele>38.546875</ele>
<time>2012-07-28T19:41:31Z</time>
<speed>0.010000</speed>
<extensions>
<speed>0.0</speed>
<temp>0.00</temp>
<bpm>0</bpm>
<rpm>0.00</rpm>
</extensions>
</trkpt>
<trkpt lat="64.052757263" lon="-21.979684830">
<ele>38.534180</ele>
<time>2012-07-28T19:41:36Z</time>
<speed>0.030000</speed>
<extensions>
<speed>0.0</speed>
<temp>0.00</temp>
<bpm>0</bpm>
<rpm>0.00</rpm>
</extensions>
</trkpt>
<trkpt lat="64.052757263" lon="-21.979686737">
<ele>38.504883</ele>
<time>2012-07-28T19:41:41Z</time>
<speed>0.030000</speed>
<extensions>
<speed>0.0</speed>
<temp>0.00</temp>
<bpm>0</bpm>
<rpm>0.00</rpm>
</extensions>
</trkpt>
<trkpt lat="64.052749634" lon="-21.979686737">
<ele>38.431641</ele>
<time>2012-07-28T19:41:46Z</time>
<speed>0.130000</speed>
<extensions>
<speed>0.1</speed>
<temp>0.00</temp>
<bpm>0</bpm>
<rpm>0.00</rpm>
</extensions>
</trkpt>
<trkpt lat="64.052742004" lon="-21.979679108">
<ele>38.284180</ele>
<time>2012-07-28T19:41:51Z</time>
<speed>0.230000</speed>
<extensions>
<speed>0.2</speed>
<temp>0.00</temp>
<bpm>0</bpm>
<rpm>0.00</rpm>
</extensions>
</trkpt>
<trkpt lat="64.052734375" lon="-21.979671478">
<ele>38.119141</ele>
<time>2012-07-28T19:41:56Z</time>
<speed>0.240000</speed>
<extensions>
<speed>0.2</speed>
<temp>0.00</temp>
<bpm>0</bpm>
<rpm>0.00</rpm>
</extensions>
</trkpt>
<trkpt lat="64.052726746" lon="-21.979660034">
<ele>37.941406</ele>
<time>2012-07-28T19:42:01Z</time>
<speed>0.230000</speed>
<extensions>
<speed>0.2</speed>
<temp>0.00</temp>
<bpm>0</bpm>
<rpm>0.00</rpm>
</extensions>
</trkpt>
<trkpt lat="64.052703857" lon="-21.979646683">
<ele>37.672852</ele>
<time>2012-07-28T19:42:06Z</time>
<speed>0.390000</speed>
<extensions>
<speed>0.4</speed>
<temp>0.00</temp>
<bpm>0</bpm>
<rpm>0.00</rpm>
</extensions>
</trkpt>
<trkpt lat="64.052688599" lon="-21.979646683">
<ele>37.490234</ele>
<time>2012-07-28T19:42:11Z</time>
<speed>0.410000</speed>
<extensions>
<speed>0.4</speed>
<temp>0.00</temp>
<bpm>0</bpm>
<rpm>0.00</rpm>
</extensions>
</trkpt>
<trkpt lat="64.052680969" lon="-21.979660034">
<ele>37.176758</ele>
<time>2012-07-28T19:42:16Z</time>
<speed>0.390000</speed>
<extensions>
<speed>0.4</speed>
<temp>0.00</temp>
<bpm>0</bpm>
<rpm>0.00</rpm>
</extensions>
</trkpt>
<trkpt lat="64.052680969" lon="-21.979688644">
<ele>36.828125</ele>
<time>2012-07-28T19:42:21Z</time>
<speed>0.360000</speed>
<extensions>
<speed>0.4</speed>
<temp>0.00</temp>
<bpm>0</bpm>
<rpm>0.00</rpm>
</extensions>
</trkpt>
<trkpt lat="64.052680969" lon="-21.979709625">
<ele>36.110352</ele>
<time>2012-07-28T19:42:26Z</time>
<speed>0.290000</speed>
<extensions>
<speed>0.3</speed>
<temp>0.00</temp>
<bpm>0</bpm>
<rpm>0.00</rpm>
</extensions>
</trkpt>
<trkpt lat="64.052673340" lon="-21.979717255">
<ele>35.616211</ele>
<time>2012-07-28T19:42:31Z</time>
<speed>0.270000</speed>
<extensions>
<speed>0.3</speed>
<temp>0.00</temp>
<bpm>0</bpm>
<rpm>0.00</rpm>
</extensions>
</trkpt>
<trkpt lat="64.052658081" lon="-21.979703903">
<ele>35.234375</ele>
<time>2012-07-28T19:42:36Z</time>
<speed>0.310000</speed>
<extensions>
<speed>0.3</speed>
<temp>0.00</temp>
<bpm>0</bpm>
<rpm>0.00</rpm>
</extensions>
</trkpt>
<trkpt lat="64.052642822" lon="-21.979707718">
<ele>34.523438</ele>
<time>2012-07-28T19:42:41Z</time>
<speed>0.370000</speed>
<extensions>
<speed>0.4</speed>
<temp>0.00</temp>
<bpm>0</bpm>
<rpm>0.00</rpm>
</extensions>
</trkpt>
<trkpt lat="64.052619934" lon="-21.979696274">
<ele>33.916992</ele>
<time>2012-07-28T19:42:46Z</time>
<speed>0.390000</speed>
<extensions>
<speed>0.4</speed>
<temp>0.00</temp>
<bpm>0</bpm>
<rpm>0.00</rpm>
</extensions>
</trkpt>
<trkpt lat="64.052635193" lon="-21.979717255">
<ele>33.265625</ele>
<time>2012-07-28T19:42:51Z</time>
<speed>0.280000</speed>
<extensions>
<speed>0.3</speed>
<temp>0.00</temp>
<bpm>0</bpm>
<rpm>0.00</rpm>
</extensions>
</trkpt>
<trkpt lat="64.052635193" lon="-21.979728699">
<ele>32.763672</ele>
<time>2012-07-28T19:42:56Z</time>
<speed>0.140000</speed>
<extensions>
<speed>0.1</speed>
<temp>0.00</temp>
<bpm>0</bpm>
<rpm>0.00</rpm>
</extensions>
</trkpt>
<trkpt lat="64.052627563" lon="-21.979724884">
<ele>32.303711</ele>
<time>2012-07-28T19:43:01Z</time>
<speed>0.020000</speed>
<extensions>
<speed>0.0</speed>
<temp>0.00</temp>
<bpm>0</bpm>
<rpm>0.00</rpm>
</extensions>
</trkpt>
<trkpt lat="64.052627563" lon="-21.979728699">
<ele>31.852539</ele>
<time>2012-07-28T19:43:06Z</time>
<speed>0.040000</speed>
<extensions>
<speed>0.0</speed>
<temp>0.00</temp>
<bpm>0</bpm>
<rpm>0.00</rpm>
</extensions>
</trkpt>
<trkpt lat="64.052627563" lon="-21.979734421">
<ele>31.410645</ele>
<time>2012-07-28T19:43:11Z</time>
<speed>0.020000</speed>
<extensions>
<speed>0.0</speed>
<temp>0.00</temp>
<bpm>0</bpm>
<rpm>0.00</rpm>
</extensions>
</trkpt>
<trkpt lat="64.052627563" lon="-21.979736328">
<ele>30.975586</ele>
<time>2012-07-28T19:43:16Z</time>
<speed>0.020000</speed>
<extensions>
<speed>0.0</speed>
<temp>0.00</temp>
<bpm>0</bpm>
<rpm>0.00</rpm>
</extensions>
</trkpt>
<trkpt lat="64.052627563" lon="-21.979740143">
<ele>30.560547</ele>
<time>2012-07-28T19:43:21Z</time>
<speed>0.040000</speed>
<extensions>
<speed>0.0</speed>
<temp>0.00</temp>
<bpm>0</bpm>
<rpm>0.00</rpm>
</extensions>
</trkpt>
<trkpt lat="64.052627563" lon="-21.979743958">
<ele>30.178223</ele>
<time>2012-07-28T19:43:26Z</time>
<speed>0.030000</speed>
<extensions>
<speed>0.0</speed>
<temp>0.00</temp>
<bpm>0</bpm>
<rpm>0.00</rpm>
</extensions>
</trkpt>
<trkpt lat="64.052627563" lon="-21.979747772">
<ele>29.814453</ele>
<time>2012-07-28T19:43:31Z</time>
<speed>0.050000</speed>
<extensions>
<speed>0.1</speed>
<temp>0.00</temp>
<bpm>0</bpm>
<rpm>0.00</rpm>
</extensions>
</trkpt>
<trkpt lat="64.052627563" lon="-21.979751587">
<ele>29.441895</ele>
<time>2012-07-28T19:43:36Z</time>
<speed>0.060000</speed>
<extensions>
<speed>0.1</speed>
<temp>0.00</temp>
<bpm>0</bpm>
<rpm>0.00</rpm>
</extensions>
</trkpt>
<trkpt lat="64.052635193" lon="-21.979757309">
<ele>29.055176</ele>
<time>2012-07-28T19:43:41Z</time>
<speed>0.050000</speed>
<extensions>
<speed>0.1</speed>
<temp>0.00</temp>
<bpm>0</bpm>
<rpm>0.00</rpm>
</extensions>
</trkpt>
<trkpt lat="64.052635193" lon="-21.979763031">
<ele>28.700195</ele>
<time>2012-07-28T19:43:46Z</time>
<speed>0.040000</speed>
<extensions>
<speed>0.0</speed>
<temp>0.00</temp>
<bpm>0</bpm>
<rpm>0.00</rpm>
</extensions>
</trkpt>
<trkpt lat="64.052635193" lon="-21.979766846">
<ele>28.384277</ele>
<time>2012-07-28T19:43:51Z</time>
<speed>0.050000</speed>
<extensions>
<speed>0.1</speed>
<temp>0.00</temp>
<bpm>0</bpm>
<rpm>0.00</rpm>
</extensions>
</trkpt>
<trkpt lat="64.052635193" lon="-21.979770660">
<ele>28.088867</ele>
<time>2012-07-28T19:43:56Z</time>
<speed>0.020000</speed>
<extensions>
<speed>0.0</speed>
<temp>0.00</temp>
<bpm>0</bpm>
<rpm>0.00</rpm>
</extensions>
</trkpt>
<trkpt lat="64.052635193" lon="-21.979772568">
<ele>27.802246</ele>
<time>2012-07-28T19:44:01Z</time>
<speed>0.050000</speed>
<extensions>
<speed>0.1</speed>
<temp>0.00</temp>
<bpm>0</bpm>
<rpm>0.00</rpm>
</extensions>
</trkpt>
<trkpt lat="64.052635193" lon="-21.979776382">
<ele>27.534180</ele>
<time>2012-07-28T19:44:06Z</time>
<speed>0.040000</speed>
<extensions>
<speed>0.0</speed>
<temp>0.00</temp>
<bpm>0</bpm>
<rpm>0.00</rpm>
</extensions>
</trkpt>
<trkpt lat="64.052635193" lon="-21.979780197">
<ele>27.288574</ele>
<time>2012-07-28T19:44:11Z</time>
<speed>0.070000</speed>
<extensions>
<speed>0.1</speed>
<temp>0.00</temp>
<bpm>0</bpm>
<rpm>0.00</rpm>
</extensions>
</trkpt>
<trkpt lat="64.052642822" lon="-21.979785919">
<ele>27.047852</ele>
<time>2012-07-28T19:44:16Z</time>
<speed>0.030000</speed>
<extensions>
<speed>0.0</speed>
<temp>0.00</temp>
<bpm>0</bpm>
<rpm>0.00</rpm>
</extensions>
</trkpt>
<trkpt lat="64.052642822" lon="-21.979785919">
<ele>27.047852</ele>
<time>2012-07-28T19:44:21Z</time>
<extensions>
<speed>0.0</speed>
<temp>0.00</temp>
<bpm>0</bpm>
<rpm>0.00</rpm>
</extensions>
</trkpt>
<trkpt lat="64.052642822" lon="-21.979785919">
<ele>27.069336</ele>
<time>2012-07-28T19:44:26Z</time>
<extensions>
<speed>0.0</speed>
<temp>0.00</temp>
<bpm>0</bpm>
<rpm>0.00</rpm>
</extensions>
</trkpt>
<trkpt lat="64.052642822" lon="-21.979784012">
<ele>27.104492</ele>
<time>2012-07-28T19:44:31Z</time>
<speed>0.020000</speed>
<extensions>
<speed>0.0</speed>
<temp>0.00</temp>
<bpm>0</bpm>
<rpm>0.00</rpm>
</extensions>
</trkpt>
<trkpt lat="64.052635193" lon="-21.979782104">
<ele>27.146973</ele>
<time>2012-07-28T19:44:36Z</time>
<speed>0.040000</speed>
<extensions>
<speed>0.0</speed>
<temp>0.00</temp>
<bpm>0</bpm>
<rpm>0.00</rpm>
</extensions>
</trkpt>
<trkpt lat="64.052635193" lon="-21.979778290">
<ele>27.212402</ele>
<time>2012-07-28T19:44:41Z</time>
<speed>0.020000</speed>
<extensions>
<speed>0.0</speed>
<temp>0.00</temp>
<bpm>0</bpm>
<rpm>0.00</rpm>
</extensions>
</trkpt>
<trkpt lat="64.052635193" lon="-21.979778290">
<ele>27.287109</ele>
<time>2012-07-28T19:44:46Z</time>
<extensions>
<speed>0.0</speed>
<temp>0.00</temp>
<bpm>0</bpm>
<rpm>0.00</rpm>
</extensions>
</trkpt>
<trkpt lat="64.052635193" lon="-21.979778290">
<ele>27.365234</ele>
<time>2012-07-28T19:44:51Z</time>
<speed>0.020000</speed>
<extensions>
<speed>0.0</speed>
<temp>0.00</temp>
<bpm>0</bpm>
<rpm>0.00</rpm>
</extensions>
</trkpt>
<trkpt lat="64.052635193" lon="-21.979778290">
<ele>27.456055</ele>
<time>2012-07-28T19:44:56Z</time>
<speed>0.020000</speed>
<extensions>
<speed>0.0</speed>
<temp>0.00</temp>
<bpm>0</bpm>
<rpm>0.00</rpm>
</extensions>
</trkpt>
<trkpt lat="64.052635193" lon="-21.979778290">
<ele>27.573730</ele>
<time>2012-07-28T19:45:01Z</time>
<extensions>
<speed>0.0</speed>
<temp>0.00</temp>
<bpm>0</bpm>
<rpm>0.00</rpm>
</extensions>
</trkpt>
<trkpt lat="64.052642822" lon="-21.979776382">
<ele>27.710449</ele>
<time>2012-07-28T19:45:06Z</time>
<extensions>
<speed>0.0</speed>
<temp>0.00</temp>
<bpm>0</bpm>
<rpm>0.00</rpm>
</extensions>
</trkpt>
<trkpt lat="64.052642822" lon="-21.979776382">
<ele>27.881836</ele>
<time>2012-07-28T19:45:11Z</time>
<speed>0.020000</speed>
<extensions>
<speed>0.0</speed>
<temp>0.00</temp>
<bpm>0</bpm>
<rpm>0.00</rpm>
</extensions>
</trkpt>
<trkpt lat="64.052642822" lon="-21.979774475">
<ele>28.068848</ele>
<time>2012-07-28T19:45:16Z</time>
<speed>0.020000</speed>
<extensions>
<speed>0.0</speed>
<temp>0.00</temp>
<bpm>0</bpm>
<rpm>0.00</rpm>
</extensions>
</trkpt>
<trkpt lat="64.052642822" lon="-21.979772568">
<ele>28.293945</ele>
<time>2012-07-28T19:45:21Z</time>
<speed>0.010000</speed>
<extensions>
<speed>0.0</speed>
<temp>0.00</temp>
<bpm>0</bpm>
<rpm>0.00</rpm>
</extensions>
</trkpt>
<trkpt lat="64.052642822" lon="-21.979772568">
<ele>28.554688</ele>
<time>2012-07-28T19:45:26Z</time>
<speed>0.010000</speed>
<extensions>
<speed>0.0</speed>
<temp>0.00</temp>
<bpm>0</bpm>
<rpm>0.00</rpm>
</extensions>
</trkpt>
<trkpt lat="64.052642822" lon="-21.979772568">
<ele>28.840332</ele>
<time>2012-07-28T19:45:31Z</time>
<speed>0.010000</speed>
<extensions>
<speed>0.0</speed>
<temp>0.00</temp>
<bpm>0</bpm>
<rpm>0.00</rpm>
</extensions>
</trkpt>
<trkpt lat="64.052642822" lon="-21.979772568">
<ele>29.162109</ele>
<time>2012-07-28T19:45:36Z</time>
<speed>0.040000</speed>
<extensions>
<speed>0.0</speed>
<temp>0.00</temp>
<bpm>0</bpm>
<rpm>0.00</rpm>
</extensions>
</trkpt>
<trkpt lat="64.052642822" lon="-21.979774475">
<ele>29.519531</ele>
<time>2012-07-28T19:45:41Z</time>
<speed>0.010000</speed>
<extensions>
<speed>0.0</speed>
<temp>0.00</temp>
<bpm>0</bpm>
<rpm>0.00</rpm>
</extensions>
</trkpt>
<trkpt lat="64.052642822" lon="-21.979770660">
<ele>29.890137</ele>
<time>2012-07-28T19:45:46Z</time>
<speed>0.060000</speed>
<extensions>
<speed>0.1</speed>
<temp>0.00</temp>
<bpm>0</bpm>
<rpm>0.00</rpm>
</extensions>
</trkpt>
<trkpt lat="64.052642822" lon="-21.979764938">
<ele>30.277344</ele>
<time>2012-07-28T19:45:51Z</time>
<speed>0.050000</speed>
<extensions>
<speed>0.1</speed>
<temp>0.00</temp>
<bpm>0</bpm>
<rpm>0.00</rpm>
</extensions>
</trkpt>
<trkpt lat="64.052642822" lon="-21.979759216">
<ele>30.680176</ele>
<time>2012-07-28T19:45:56Z</time>
<speed>0.090000</speed>
<extensions>
<speed>0.1</speed>
<temp>0.00</temp>
<bpm>0</bpm>
<rpm>0.00</rpm>
</extensions>
</trkpt>
<trkpt lat="64.052635193" lon="-21.979751587">
<ele>31.094238</ele>
<time>2012-07-28T19:46:01Z</time>
<speed>0.060000</speed>
<extensions>
<speed>0.1</speed>
<temp>0.00</temp>
<bpm>0</bpm>
<rpm>0.00</rpm>
</extensions>
</trkpt>
<trkpt lat="64.052635193" lon="-21.979743958">
<ele>31.513184</ele>
<time>2012-07-28T19:46:06Z</time>
<speed>0.080000</speed>
<extensions>
<speed>0.1</speed>
<temp>0.00</temp>
<bpm>0</bpm>
<rpm>0.00</rpm>
</extensions>
</trkpt>
<trkpt lat="64.052635193" lon="-21.979738235">
<ele>31.904785</ele>
<time>2012-07-28T19:46:11Z</time>
<speed>0.050000</speed>
<extensions>
<speed>0.1</speed>
<temp>0.00</temp>
<bpm>0</bpm>
<rpm>0.00</rpm>
</extensions>
</trkpt>
<trkpt lat="64.052635193" lon="-21.979734421">
<ele>32.298828</ele>
<time>2012-07-28T19:46:16Z</time>
<speed>0.020000</speed>
<extensions>
<speed>0.0</speed>
<temp>0.00</temp>
<bpm>0</bpm>
<rpm>0.00</rpm>
</extensions>
</trkpt>
<trkpt lat="64.052635193" lon="-21.979734421">
<ele>32.708008</ele>
<time>2012-07-28T19:46:21Z</time>
<speed>0.010000</speed>
<extensions>
<speed>0.0</speed>
<temp>0.00</temp>
<bpm>0</bpm>
<rpm>0.00</rpm>
</extensions>
</trkpt>
<trkpt lat="64.052635193" lon="-21.979736328">
<ele>33.145508</ele>
<time>2012-07-28T19:46:26Z</time>
<speed>0.020000</speed>
<extensions>
<speed>0.0</speed>
<temp>0.00</temp>
<bpm>0</bpm>
<rpm>0.00</rpm>
</extensions>
</trkpt>
<trkpt lat="64.052635193" lon="-21.979736328">
<ele>33.606445</ele>
<time>2012-07-28T19:46:31Z</time>
<speed>0.020000</speed>
<extensions>
<speed>0.0</speed>
<temp>0.00</temp>
<bpm>0</bpm>
<rpm>0.00</rpm>
</extensions>
</trkpt>
<trkpt lat="64.052635193" lon="-21.979734421">
<ele>34.117188</ele>
<time>2012-07-28T19:46:36Z</time>
<speed>0.030000</speed>
<extensions>
<speed>0.0</speed>
<temp>0.00</temp>
<bpm>0</bpm>
<rpm>0.00</rpm>
</extensions>
</trkpt>
<trkpt lat="64.052635193" lon="-21.979730606">
<ele>34.677734</ele>
<time>2012-07-28T19:46:41Z</time>
<speed>0.080000</speed>
<extensions>
<speed>0.1</speed>
<temp>0.00</temp>
<bpm>0</bpm>
<rpm>0.00</rpm>
</extensions>
</trkpt>
<trkpt lat="64.052627563" lon="-21.979724884">
<ele>35.278320</ele>
<time>2012-07-28T19:46:46Z</time>
<speed>0.120000</speed>
<extensions>
<speed>0.1</speed>
<temp>0.00</temp>
<bpm>0</bpm>
<rpm>0.00</rpm>
</extensions>
</trkpt>
<trkpt lat="64.052627563" lon="-21.979717255">
<ele>35.897461</ele>
<time>2012-07-28T19:46:51Z</time>
<speed>0.080000</speed>
<extensions>
<speed>0.1</speed>
<temp>0.00</temp>
<bpm>0</bpm>
<rpm>0.00</rpm>
</extensions>
</trkpt>
<trkpt lat="64.052619934" lon="-21.979717255">
<ele>36.523438</ele>
<time>2012-07-28T19:46:56Z</time>
<speed>0.050000</speed>
<extensions>
<speed>0.1</speed>
<temp>0.00</temp>
<bpm>0</bpm>
<rpm>0.00</rpm>
</extensions>
</trkpt>
<trkpt lat="64.052619934" lon="-21.979717255">
<ele>37.164063</ele>
<time>2012-07-28T19:47:01Z</time>
<speed>0.060000</speed>
<extensions>
<speed>0.1</speed>
<temp>0.00</temp>
<bpm>0</bpm>
<rpm>0.00</rpm>
</extensions>
</trkpt>
<trkpt lat="64.052619934" lon="-21.979717255">
<ele>37.802734</ele>
<time>2012-07-28T19:47:06Z</time>
<speed>0.070000</speed>
<extensions>
<speed>0.1</speed>
<temp>0.00</temp>
<bpm>0</bpm>
<rpm>0.00</rpm>
</extensions>
</trkpt>
<trkpt lat="64.052612305" lon="-21.979713440">
<ele>38.413086</ele>
<time>2012-07-28T19:47:11Z</time>
<speed>0.090000</speed>
<extensions>
<speed>0.1</speed>
<temp>0.00</temp>
<bpm>0</bpm>
<rpm>0.00</rpm>
</extensions>
</trkpt>
<trkpt lat="64.052612305" lon="-21.979703903">
<ele>38.925781</ele>
<time>2012-07-28T19:47:16Z</time>
<speed>0.120000</speed>
<extensions>
<speed>0.1</speed>
<temp>0.00</temp>
<bpm>0</bpm>
<rpm>0.00</rpm>
</extensions>
</trkpt>
<trkpt lat="64.052612305" lon="-21.979694366">
<ele>39.322266</ele>
<time>2012-07-28T19:47:21Z</time>
<speed>0.060000</speed>
<extensions>
<speed>0.1</speed>
<temp>0.00</temp>
<bpm>0</bpm>
<rpm>0.00</rpm>
</extensions>
</trkpt>
<trkpt lat="64.052612305" lon="-21.979692459">
<ele>39.658203</ele>
<time>2012-07-28T19:47:26Z</time>
<speed>0.050000</speed>
<extensions>
<speed>0.1</speed>
<temp>0.00</temp>
<bpm>0</bpm>
<rpm>0.00</rpm>
</extensions>
</trkpt>
<trkpt lat="64.052612305" lon="-21.979690552">
<ele>39.996094</ele>
<time>2012-07-28T19:47:31Z</time>
<speed>0.060000</speed>
<extensions>
<speed>0.1</speed>
<temp>0.00</temp>
<bpm>0</bpm>
<rpm>0.00</rpm>
</extensions>
</trkpt>
<trkpt lat="64.052612305" lon="-21.979692459">
<ele>39.991211</ele>
<time>2012-07-28T19:47:36Z</time>
<speed>0.010000</speed>
<extensions>
<speed>0.0</speed>
<temp>0.00</temp>
<bpm>0</bpm>
<rpm>0.00</rpm>
</extensions>
</trkpt>
<trkpt lat="64.052612305" lon="-21.979694366">
<ele>40.037109</ele>
<time>2012-07-28T19:47:41Z</time>
<speed>0.040000</speed>
<extensions>
<speed>0.0</speed>
<temp>0.00</temp>
<bpm>0</bpm>
<rpm>0.00</rpm>
</extensions>
</trkpt>
<trkpt lat="64.052612305" lon="-21.979696274">
<ele>40.035156</ele>
<time>2012-07-28T19:47:46Z</time>
<speed>0.010000</speed>
<extensions>
<speed>0.0</speed>
<temp>0.00</temp>
<bpm>0</bpm>
<rpm>0.00</rpm>
</extensions>
</trkpt>
<trkpt lat="64.052612305" lon="-21.979694366">
<ele>40.013672</ele>
<time>2012-07-28T19:47:51Z</time>
<extensions>
<speed>0.0</speed>
<temp>0.00</temp>
<bpm>0</bpm>
<rpm>0.00</rpm>
</extensions>
</trkpt>
<trkpt lat="64.052612305" lon="-21.979694366">
<ele>39.980469</ele>
<time>2012-07-28T19:47:56Z</time>
<extensions>
<speed>0.0</speed>
<temp>0.00</temp>
<bpm>0</bpm>
<rpm>0.00</rpm>
</extensions>
</trkpt>
<trkpt lat="64.052612305" lon="-21.979694366">
<ele>39.981445</ele>
<time>2012-07-28T19:48:01Z</time>
<extensions>
<speed>0.0</speed>
<temp>0.00</temp>
<bpm>0</bpm>
<rpm>0.00</rpm>
</extensions>
</trkpt>
<trkpt lat="64.052612305" lon="-21.979692459">
<ele>39.956055</ele>
<time>2012-07-28T19:48:06Z</time>
<speed>0.030000</speed>
<extensions>
<speed>0.0</speed>
<temp>0.00</temp>
<bpm>0</bpm>
<rpm>0.00</rpm>
</extensions>
</trkpt>
<trkpt lat="64.052612305" lon="-21.979692459">
<ele>39.956055</ele>
<time>2012-07-28T19:48:11Z</time>
<extensions>
<speed>0.0</speed>
<temp>0.00</temp>
<bpm>0</bpm>
<rpm>0.00</rpm>
</extensions>
</trkpt>
<trkpt lat="64.052612305" lon="-21.979690552">
<ele>39.944336</ele>
<time>2012-07-28T19:48:16Z</time>
<extensions>
<speed>0.0</speed>
<temp>0.00</temp>
<bpm>0</bpm>
<rpm>0.00</rpm>
</extensions>
</trkpt>
<trkpt lat="64.052612305" lon="-21.979690552">
<ele>39.936523</ele>
<time>2012-07-28T19:48:21Z</time>
<speed>0.040000</speed>
<extensions>
<speed>0.0</speed>
<temp>0.00</temp>
<bpm>0</bpm>
<rpm>0.00</rpm>
</extensions>
</trkpt>
<trkpt lat="64.052612305" lon="-21.979690552">
<ele>39.933594</ele>
<time>2012-07-28T19:48:26Z</time>
<extensions>
<speed>0.0</speed>
<temp>0.00</temp>
<bpm>0</bpm>
<rpm>0.00</rpm>
</extensions>
</trkpt>
<trkpt lat="64.052612305" lon="-21.979688644">
<ele>39.895508</ele>
<time>2012-07-28T19:48:31Z</time>
<speed>0.010000</speed>
<extensions>
<speed>0.0</speed>
<temp>0.00</temp>
<bpm>0</bpm>
<rpm>0.00</rpm>
</extensions>
</trkpt>
<trkpt lat="64.052612305" lon="-21.979686737">
<ele>39.845703</ele>
<time>2012-07-28T19:48:36Z</time>
<speed>0.010000</speed>
<extensions>
<speed>0.0</speed>
<temp>0.00</temp>
<bpm>0</bpm>
<rpm>0.00</rpm>
</extensions>
</trkpt>
<trkpt lat="64.052612305" lon="-21.979688644">
<ele>39.815430</ele>
<time>2012-07-28T19:48:41Z</time>
<speed>0.050000</speed>
<extensions>
<speed>0.1</speed>
<temp>0.00</temp>
<bpm>0</bpm>
<rpm>0.00</rpm>
</extensions>
</trkpt>
<trkpt lat="64.052612305" lon="-21.979694366">
<ele>39.765625</ele>
<time>2012-07-28T19:48:46Z</time>
<speed>0.050000</speed>
<extensions>
<speed>0.1</speed>
<temp>0.00</temp>
<bpm>0</bpm>
<rpm>0.00</rpm>
</extensions>
</trkpt>
<trkpt lat="64.052619934" lon="-21.979698181">
<ele>39.701172</ele>
<time>2012-07-28T19:48:51Z</time>
<speed>0.060000</speed>
<extensions>
<speed>0.1</speed>
<temp>0.00</temp>
<bpm>0</bpm>
<rpm>0.00</rpm>
</extensions>
</trkpt>
<trkpt lat="64.052619934" lon="-21.979700089">
<ele>39.622070</ele>
<time>2012-07-28T19:48:56Z</time>
<speed>0.020000</speed>
<extensions>
<speed>0.0</speed>
<temp>0.00</temp>
<bpm>0</bpm>
<rpm>0.00</rpm>
</extensions>
</trkpt>
<trkpt lat="64.052619934" lon="-21.979698181">
<ele>39.523438</ele>
<time>2012-07-28T19:49:01Z</time>
<speed>0.060000</speed>
<extensions>
<speed>0.1</speed>
<temp>0.00</temp>
<bpm>0</bpm>
<rpm>0.00</rpm>
</extensions>
</trkpt>
<trkpt lat="64.052612305" lon="-21.979690552">
<ele>39.388672</ele>
<time>2012-07-28T19:49:06Z</time>
<speed>0.130000</speed>
<extensions>
<speed>0.1</speed>
<temp>0.00</temp>
<bpm>0</bpm>
<rpm>0.00</rpm>
</extensions>
</trkpt>
<trkpt lat="64.052612305" lon="-21.979686737">
<ele>39.228516</ele>
<time>2012-07-28T19:49:11Z</time>
<extensions>
<speed>0.0</speed>
<temp>0.00</temp>
<bpm>0</bpm>
<rpm>0.00</rpm>
</extensions>
</trkpt>
<trkpt lat="64.052612305" lon="-21.979686737">
<ele>39.082031</ele>
<time>2012-07-28T19:49:16Z</time>
<extensions>
<speed>0.0</speed>
<temp>0.00</temp>
<bpm>0</bpm>
<rpm>0.00</rpm>
</extensions>
</trkpt>
<trkpt lat="64.052612305" lon="-21.979684830">
<ele>38.935547</ele>
<time>2012-07-28T19:49:21Z</time>
<speed>0.020000</speed>
<extensions>
<speed>0.0</speed>
<temp>0.00</temp>
<bpm>0</bpm>
<rpm>0.00</rpm>
</extensions>
</trkpt>
<trkpt lat="64.052612305" lon="-21.979682922">
<ele>38.782227</ele>
<time>2012-07-28T19:49:26Z</time>
<speed>0.040000</speed>
<extensions>
<speed>0.0</speed>
<temp>0.00</temp>
<bpm>0</bpm>
<rpm>0.00</rpm>
</extensions>
</trkpt>
<trkpt lat="64.052604675" lon="-21.979677200">
<ele>38.605469</ele>
<time>2012-07-28T19:49:31Z</time>
<speed>0.100000</speed>
<extensions>
<speed>0.1</speed>
<temp>0.00</temp>
<bpm>0</bpm>
<rpm>0.00</rpm>
</extensions>
</trkpt>
<trkpt lat="64.052604675" lon="-21.979671478">
<ele>38.411133</ele>
<time>2012-07-28T19:49:36Z</time>
<speed>0.020000</speed>
<extensions>
<speed>0.0</speed>
<temp>0.00</temp>
<bpm>0</bpm>
<rpm>0.00</rpm>
</extensions>
</trkpt>
<trkpt lat="64.052604675" lon="-21.979671478">
<ele>38.226563</ele>
<time>2012-07-28T19:49:41Z</time>
<extensions>
<speed>0.0</speed>
<temp>0.00</temp>
<bpm>0</bpm>
<rpm>0.00</rpm>
</extensions>
</trkpt>
<trkpt lat="64.052604675" lon="-21.979671478">
<ele>38.044922</ele>
<time>2012-07-28T19:49:46Z</time>
<speed>0.010000</speed>
<extensions>
<speed>0.0</speed>
<temp>0.00</temp>
<bpm>0</bpm>
<rpm>0.00</rpm>
</extensions>
</trkpt>
<trkpt lat="64.052604675" lon="-21.979669571">
<ele>37.858398</ele>
<time>2012-07-28T19:49:51Z</time>
<speed>0.020000</speed>
<extensions>
<speed>0.0</speed>
<temp>0.00</temp>
<bpm>0</bpm>
<rpm>0.00</rpm>
</extensions>
</trkpt>
<trkpt lat="64.052604675" lon="-21.979665756">
<ele>37.654297</ele>
<time>2012-07-28T19:49:56Z</time>
<speed>0.090000</speed>
<extensions>
<speed>0.1</speed>
<temp>0.00</temp>
<bpm>0</bpm>
<rpm>0.00</rpm>
</extensions>
</trkpt>
<trkpt lat="64.052597046" lon="-21.979658127">
<ele>37.447266</ele>
<time>2012-07-28T19:50:01Z</time>
<speed>0.160000</speed>
<extensions>
<speed>0.2</speed>
<temp>0.00</temp>
<bpm>0</bpm>
<rpm>0.00</rpm>
</extensions>
</trkpt>
<trkpt lat="64.052589417" lon="-21.979642868">
<ele>37.221680</ele>
<time>2012-07-28T19:50:06Z</time>
<speed>0.250000</speed>
<extensions>
<speed>0.2</speed>
<temp>0.00</temp>
<bpm>0</bpm>
<rpm>0.00</rpm>
</extensions>
</trkpt>
<trkpt lat="64.052574158" lon="-21.979602814">
<ele>36.708008</ele>
<time>2012-07-28T19:50:11Z</time>
<speed>0.340000</speed>
<extensions>
<speed>0.3</speed>
<temp>0.00</temp>
<bpm>0</bpm>
<rpm>0.00</rpm>
</extensions>
</trkpt>
<trkpt lat="64.052551270" lon="-21.979536057">
<ele>35.458984</ele>
<time>2012-07-28T19:50:16Z</time>
<speed>0.390000</speed>
<extensions>
<speed>0.4</speed>
<temp>0.00</temp>
<bpm>0</bpm>
<rpm>0.00</rpm>
</extensions>
</trkpt>
<trkpt lat="64.052513123" lon="-21.979454041">
<ele>33.769531</ele>
<time>2012-07-28T19:50:21Z</time>
<speed>0.490000</speed>
<extensions>
<speed>0.5</speed>
<temp>0.00</temp>
<bpm>0</bpm>
<rpm>0.00</rpm>
</extensions>
</trkpt>
<trkpt lat="64.052490234" lon="-21.979394913">
<ele>32.514648</ele>
<time>2012-07-28T19:50:26Z</time>
<speed>0.500000</speed>
<extensions>
<speed>0.5</speed>
<temp>0.00</temp>
<bpm>0</bpm>
<rpm>0.00</rpm>
</extensions>
</trkpt>
<trkpt lat="64.052467346" lon="-21.979347229">
<ele>31.482910</ele>
<time>2012-07-28T19:50:31Z</time>
<speed>0.510000</speed>
<extensions>
<speed>0.5</speed>
<temp>0.00</temp>
<bpm>0</bpm>
<rpm>0.00</rpm>
</extensions>
</trkpt>
<trkpt lat="64.052459717" lon="-21.979331970">
<ele>30.561523</ele>
<time>2012-07-28T19:50:36Z</time>
<speed>0.470000</speed>
<extensions>
<speed>0.5</speed>
<temp>0.00</temp>
<bpm>0</bpm>
<rpm>0.00</rpm>
</extensions>
</trkpt>
<trkpt lat="64.052467346" lon="-21.979364395">
<ele>29.899902</ele>
<time>2012-07-28T19:50:41Z</time>
<speed>0.220000</speed>
<extensions>
<speed>0.2</speed>
<temp>0.00</temp>
<bpm>0</bpm>
<rpm>0.00</rpm>
</extensions>
</trkpt>
<trkpt lat="64.052467346" lon="-21.979360580">
<ele>29.590332</ele>
<time>2012-07-28T19:50:46Z</time>
<speed>0.180000</speed>
<extensions>
<speed>0.2</speed>
<temp>0.00</temp>
<bpm>0</bpm>
<rpm>0.00</rpm>
</extensions>
</trkpt>
<trkpt lat="64.052467346" lon="-21.979352951">
<ele>29.324219</ele>
<time>2012-07-28T19:50:51Z</time>
<speed>0.050000</speed>
<extensions>
<speed>0.1</speed>
<temp>0.00</temp>
<bpm>0</bpm>
<rpm>0.00</rpm>
</extensions>
</trkpt>
<trkpt lat="64.052467346" lon="-21.979354858">
<ele>29.049805</ele>
<time>2012-07-28T19:50:56Z</time>
<speed>0.030000</speed>
<extensions>
<speed>0.0</speed>
<temp>0.00</temp>
<bpm>0</bpm>
<rpm>0.00</rpm>
</extensions>
</trkpt>
<trkpt lat="64.052467346" lon="-21.979364395">
<ele>28.766602</ele>
<time>2012-07-28T19:51:01Z</time>
<speed>0.260000</speed>
<extensions>
<speed>0.3</speed>
<temp>0.00</temp>
<bpm>0</bpm>
<rpm>0.00</rpm>
</extensions>
</trkpt>
<trkpt lat="64.052513123" lon="-21.979484558">
<ele>27.937988</ele>
<time>2012-07-28T19:51:06Z</time>
<speed>0.480000</speed>
<extensions>
<speed>0.5</speed>
<temp>0.00</temp>
<bpm>0</bpm>
<rpm>0.00</rpm>
</extensions>
</trkpt>
<trkpt lat="64.052543640" lon="-21.979564667">
<ele>26.956055</ele>
<time>2012-07-28T19:51:11Z</time>
<speed>0.560000</speed>
<extensions>
<speed>0.6</speed>
<temp>0.00</temp>
<bpm>0</bpm>
<rpm>0.00</rpm>
</extensions>
</trkpt>
<trkpt lat="64.052574158" lon="-21.979646683">
<ele>26.318359</ele>
<time>2012-07-28T19:51:16Z</time>
<speed>0.600000</speed>
<extensions>
<speed>0.6</speed>
<temp>0.00</temp>
<bpm>0</bpm>
<rpm>0.00</rpm>
</extensions>
</trkpt>
<trkpt lat="64.052612305" lon="-21.979742050">
<ele>25.788086</ele>
<time>2012-07-28T19:51:21Z</time>
<speed>0.670000</speed>
<extensions>
<speed>0.7</speed>
<temp>0.00</temp>
<bpm>0</bpm>
<rpm>0.00</rpm>
</extensions>
</trkpt>
<trkpt lat="64.052597046" lon="-21.979722977">
<ele>24.376953</ele>
<time>2012-07-28T19:51:26Z</time>
<speed>0.450000</speed>
<extensions>
<speed>0.5</speed>
<temp>0.00</temp>
<bpm>0</bpm>
<rpm>0.00</rpm>
</extensions>
</trkpt>
<trkpt lat="64.052558899" lon="-21.979635239">
<ele>22.292480</ele>
<time>2012-07-28T19:51:31Z</time>
<speed>0.090000</speed>
<extensions>
<speed>0.1</speed>
<temp>0.00</temp>
<bpm>0</bpm>
<rpm>0.00</rpm>
</extensions>
</trkpt>
<trkpt lat="64.052558899" lon="-21.979642868">
<ele>22.017090</ele>
<time>2012-07-28T19:51:36Z</time>
<speed>0.070000</speed>
<extensions>
<speed>0.1</speed>
<temp>0.00</temp>
<bpm>0</bpm>
<rpm>0.00</rpm>
</extensions>
</trkpt>
<trkpt lat="64.052558899" lon="-21.979648590">
<ele>21.742676</ele>
<time>2012-07-28T19:51:41Z</time>
<speed>0.090000</speed>
<extensions>
<speed>0.1</speed>
<temp>0.00</temp>
<bpm>0</bpm>
<rpm>0.00</rpm>
</extensions>
</trkpt>
<trkpt lat="64.052566528" lon="-21.979658127">
<ele>21.478516</ele>
<time>2012-07-28T19:51:46Z</time>
<speed>0.040000</speed>
<extensions>
<speed>0.0</speed>
<temp>0.00</temp>
<bpm>0</bpm>
<rpm>0.00</rpm>
</extensions>
</trkpt>
<trkpt lat="64.052566528" lon="-21.979658127">
<ele>21.210449</ele>
<time>2012-07-28T19:51:51Z</time>
<speed>0.010000</speed>
<extensions>
<speed>0.0</speed>
<temp>0.00</temp>
<bpm>0</bpm>
<rpm>0.00</rpm>
</extensions>
</trkpt>
<trkpt lat="64.052566528" lon="-21.979661942">
<ele>20.943848</ele>
<time>2012-07-28T19:51:56Z</time>
<speed>0.060000</speed>
<extensions>
<speed>0.1</speed>
<temp>0.00</temp>
<bpm>0</bpm>
<rpm>0.00</rpm>
</extensions>
</trkpt>
<trkpt lat="64.052566528" lon="-21.979663849">
<ele>20.678711</ele>
<time>2012-07-28T19:52:01Z</time>
<speed>0.020000</speed>
<extensions>
<speed>0.0</speed>
<temp>0.00</temp>
<bpm>0</bpm>
<rpm>0.00</rpm>
</extensions>
</trkpt>
<trkpt lat="64.052566528" lon="-21.979661942">
<ele>20.414551</ele>
<time>2012-07-28T19:52:06Z</time>
<speed>0.040000</speed>
<extensions>
<speed>0.0</speed>
<temp>0.00</temp>
<bpm>0</bpm>
<rpm>0.00</rpm>
</extensions>
</trkpt>
<trkpt lat="64.052558899" lon="-21.979660034">
<ele>20.154297</ele>
<time>2012-07-28T19:52:11Z</time>
<speed>0.030000</speed>
<extensions>
<speed>0.0</speed>
<temp>0.00</temp>
<bpm>0</bpm>
<rpm>0.00</rpm>
</extensions>
</trkpt>
<trkpt lat="64.052558899" lon="-21.979663849">
<ele>19.884766</ele>
<time>2012-07-28T19:52:16Z</time>
<speed>0.050000</speed>
<extensions>
<speed>0.1</speed>
<temp>0.00</temp>
<bpm>0</bpm>
<rpm>0.00</rpm>
</extensions>
</trkpt>
<trkpt lat="64.052566528" lon="-21.979669571">
<ele>19.609863</ele>
<time>2012-07-28T19:52:21Z</time>
<speed>0.040000</speed>
<extensions>
<speed>0.0</speed>
<temp>0.00</temp>
<bpm>0</bpm>
<rpm>0.00</rpm>
</extensions>
</trkpt>
<trkpt lat="64.052566528" lon="-21.979673386">
<ele>19.321777</ele>
<time>2012-07-28T19:52:26Z</time>
<speed>0.020000</speed>
<extensions>
<speed>0.0</speed>
<temp>0.00</temp>
<bpm>0</bpm>
<rpm>0.00</rpm>
</extensions>
</trkpt>
<trkpt lat="64.052566528" lon="-21.979675293">
<ele>19.018066</ele>
<time>2012-07-28T19:52:31Z</time>
<speed>0.060000</speed>
<extensions>
<speed>0.1</speed>
<temp>0.00</temp>
<bpm>0</bpm>
<rpm>0.00</rpm>
</extensions>
</trkpt>
<trkpt lat="64.052566528" lon="-21.979681015">
<ele>18.707031</ele>
<time>2012-07-28T19:52:36Z</time>
<speed>0.030000</speed>
<extensions>
<speed>0.0</speed>
<temp>0.00</temp>
<bpm>0</bpm>
<rpm>0.00</rpm>
</extensions>
</trkpt>
<trkpt lat="64.052566528" lon="-21.979684830">
<ele>18.388184</ele>
<time>2012-07-28T19:52:41Z</time>
<speed>0.010000</speed>
<extensions>
<speed>0.0</speed>
<temp>0.00</temp>
<bpm>0</bpm>
<rpm>0.00</rpm>
</extensions>
</trkpt>
<trkpt lat="64.052566528" lon="-21.979686737">
<ele>18.068848</ele>
<time>2012-07-28T19:52:46Z</time>
<speed>0.030000</speed>
<extensions>
<speed>0.0</speed>
<temp>0.00</temp>
<bpm>0</bpm>
<rpm>0.00</rpm>
</extensions>
</trkpt>
<trkpt lat="64.052566528" lon="-21.979688644">
<ele>17.744629</ele>
<time>2012-07-28T19:52:51Z</time>
<speed>0.060000</speed>
<extensions>
<speed>0.1</speed>
<temp>0.00</temp>
<bpm>0</bpm>
<rpm>0.00</rpm>
</extensions>
</trkpt>
<trkpt lat="64.052566528" lon="-21.979692459">
<ele>17.387695</ele>
<time>2012-07-28T19:52:56Z</time>
<speed>0.020000</speed>
<extensions>
<speed>0.0</speed>
<temp>0.00</temp>
<bpm>0</bpm>
<rpm>0.00</rpm>
</extensions>
</trkpt>
<trkpt lat="64.052566528" lon="-21.979694366">
<ele>16.990234</ele>
<time>2012-07-28T19:53:01Z</time>
<speed>0.030000</speed>
<extensions>
<speed>0.0</speed>
<temp>0.00</temp>
<bpm>0</bpm>
<rpm>0.00</rpm>
</extensions>
</trkpt>
<trkpt lat="64.052566528" lon="-21.979696274">
<ele>16.590332</ele>
<time>2012-07-28T19:53:06Z</time>
<speed>0.020000</speed>
<extensions>
<speed>0.0</speed>
<temp>0.00</temp>
<bpm>0</bpm>
<rpm>0.00</rpm>
</extensions>
</trkpt>
<trkpt lat="64.052566528" lon="-21.979698181">
<ele>16.169434</ele>
<time>2012-07-28T19:53:11Z</time>
<speed>0.040000</speed>
<extensions>
<speed>0.0</speed>
<temp>0.00</temp>
<bpm>0</bpm>
<rpm>0.00</rpm>
</extensions>
</trkpt>
<trkpt lat="64.052566528" lon="-21.979701996">
<ele>15.722168</ele>
<time>2012-07-28T19:53:16Z</time>
<speed>0.040000</speed>
<extensions>
<speed>0.0</speed>
<temp>0.00</temp>
<bpm>0</bpm>
<rpm>0.00</rpm>
</extensions>
</trkpt>
<trkpt lat="64.052566528" lon="-21.979705811">
<ele>15.256104</ele>
<time>2012-07-28T19:53:21Z</time>
<speed>0.050000</speed>
<extensions>
<speed>0.1</speed>
<temp>0.00</temp>
<bpm>0</bpm>
<rpm>0.00</rpm>
</extensions>
</trkpt>
<trkpt lat="64.052566528" lon="-21.979709625">
<ele>14.770508</ele>
<time>2012-07-28T19:53:26Z</time>
<speed>0.010000</speed>
<extensions>
<speed>0.0</speed>
<temp>0.00</temp>
<bpm>0</bpm>
<rpm>0.00</rpm>
</extensions>
</trkpt>
<trkpt lat="64.052566528" lon="-21.979711533">
<ele>14.303223</ele>
<time>2012-07-28T19:53:31Z</time>
<speed>0.010000</speed>
<extensions>
<speed>0.0</speed>
<temp>0.00</temp>
<bpm>0</bpm>
<rpm>0.00</rpm>
</extensions>
</trkpt>
<trkpt lat="64.052566528" lon="-21.979711533">
<ele>13.875000</ele>
<time>2012-07-28T19:53:36Z</time>
<speed>0.020000</speed>
<extensions>
<speed>0.0</speed>
<temp>0.00</temp>
<bpm>0</bpm>
<rpm>0.00</rpm>
</extensions>
</trkpt>
<trkpt lat="64.052566528" lon="-21.979713440">
<ele>13.564209</ele>
<time>2012-07-28T19:53:41Z</time>
<speed>0.050000</speed>
<extensions>
<speed>0.1</speed>
<temp>0.00</temp>
<bpm>0</bpm>
<rpm>0.00</rpm>
</extensions>
</trkpt>
<trkpt lat="64.052566528" lon="-21.979713440">
<ele>13.518799</ele>
<time>2012-07-28T19:53:46Z</time>
<speed>0.010000</speed>
<extensions>
<speed>0.0</speed>
<temp>0.00</temp>
<bpm>0</bpm>
<rpm>0.00</rpm>
</extensions>
</trkpt>
<trkpt lat="64.052566528" lon="-21.979711533">
<ele>13.543213</ele>
<time>2012-07-28T19:53:51Z</time>
<extensions>
<speed>0.0</speed>
<temp>0.00</temp>
<bpm>0</bpm>
<rpm>0.00</rpm>
</extensions>
</trkpt>
<trkpt lat="64.052566528" lon="-21.979711533">
<ele>13.576416</ele>
<time>2012-07-28T19:53:56Z</time>
<extensions>
<speed>0.0</speed>
<temp>0.00</temp>
<bpm>0</bpm>
<rpm>0.00</rpm>
</extensions>
</trkpt>
<trkpt lat="64.052566528" lon="-21.979711533">
<ele>13.602051</ele>
<time>2012-07-28T19:54:01Z</time>
<speed>0.010000</speed>
<extensions>
<speed>0.0</speed>
<temp>0.00</temp>
<bpm>0</bpm>
<rpm>0.00</rpm>
</extensions>
</trkpt>
<trkpt lat="64.052566528" lon="-21.979711533">
<ele>13.639893</ele>
<time>2012-07-28T19:54:06Z</time>
<speed>0.020000</speed>
<extensions>
<speed>0.0</speed>
<temp>0.00</temp>
<bpm>0</bpm>
<rpm>0.00</rpm>
</extensions>
</trkpt>
<trkpt lat="64.052566528" lon="-21.979711533">
<ele>13.651611</ele>
<time>2012-07-28T19:54:11Z</time>
<extensions>
<speed>0.0</speed>
<temp>0.00</temp>
<bpm>0</bpm>
<rpm>0.00</rpm>
</extensions>
</trkpt>
<trkpt lat="64.052566528" lon="-21.979711533">
<ele>13.691162</ele>
<time>2012-07-28T19:54:16Z</time>
<speed>0.010000</speed>
<extensions>
<speed>0.0</speed>
<temp>0.00</temp>
<bpm>0</bpm>
<rpm>0.00</rpm>
</extensions>
</trkpt>
<trkpt lat="64.052566528" lon="-21.979711533">
<ele>13.725342</ele>
<time>2012-07-28T19:54:21Z</time>
<extensions>
<speed>0.0</speed>
<temp>0.00</temp>
<bpm>0</bpm>
<rpm>0.00</rpm>
</extensions>
</trkpt>
<trkpt lat="64.052566528" lon="-21.979711533">
<ele>13.753906</ele>
<time>2012-07-28T19:54:26Z</time>
<extensions>
<speed>0.0</speed>
<temp>0.00</temp>
<bpm>0</bpm>
<rpm>0.00</rpm>
</extensions>
</trkpt>
<trkpt lat="64.052566528" lon="-21.979711533">
<ele>13.794922</ele>
<time>2012-07-28T19:54:31Z</time>
<speed>0.010000</speed>
<extensions>
<speed>0.0</speed>
<temp>0.00</temp>
<bpm>0</bpm>
<rpm>0.00</rpm>
</extensions>
</trkpt>
<trkpt lat="64.052566528" lon="-21.979711533">
<ele>13.807129</ele>
<time>2012-07-28T19:54:36Z</time>
<speed>0.010000</speed>
<extensions>
<speed>0.0</speed>
<temp>0.00</temp>
<bpm>0</bpm>
<rpm>0.00</rpm>
</extensions>
</trkpt>
<trkpt lat="64.052566528" lon="-21.979711533">
<ele>13.846191</ele>
<time>2012-07-28T19:54:41Z</time>
<extensions>
<speed>0.0</speed>
<temp>0.00</temp>
<bpm>0</bpm>
<rpm>0.00</rpm>
</extensions>
</trkpt>
<trkpt lat="64.052566528" lon="-21.979709625">
<ele>13.894287</ele>
<time>2012-07-28T19:54:46Z</time>
<speed>0.010000</speed>
<extensions>
<speed>0.0</speed>
<temp>0.00</temp>
<bpm>0</bpm>
<rpm>0.00</rpm>
</extensions>
</trkpt>
<trkpt lat="64.052566528" lon="-21.979711533">
<ele>13.995850</ele>
<time>2012-07-28T19:54:51Z</time>
<speed>0.020000</speed>
<extensions>
<speed>0.0</speed>
<temp>0.00</temp>
<bpm>0</bpm>
<rpm>0.00</rpm>
</extensions>
</trkpt>
<trkpt lat="64.052566528" lon="-21.979713440">
<ele>14.126465</ele>
<time>2012-07-28T19:54:56Z</time>
<speed>0.010000</speed>
<extensions>
<speed>0.0</speed>
<temp>0.00</temp>
<bpm>0</bpm>
<rpm>0.00</rpm>
</extensions>
</trkpt>
<trkpt lat="64.052566528" lon="-21.979713440">
<ele>14.302246</ele>
<time>2012-07-28T19:55:01Z</time>
<speed>0.020000</speed>
<extensions>
<speed>0.0</speed>
<temp>0.00</temp>
<bpm>0</bpm>
<rpm>0.00</rpm>
</extensions>
</trkpt>
<trkpt lat="64.052566528" lon="-21.979713440">
<ele>14.472168</ele>
<time>2012-07-28T19:55:06Z</time>
<speed>0.010000</speed>
<extensions>
<speed>0.0</speed>
<temp>0.00</temp>
<bpm>0</bpm>
<rpm>0.00</rpm>
</extensions>
</trkpt>
<trkpt lat="64.052566528" lon="-21.979709625">
<ele>14.656250</ele>
<time>2012-07-28T19:55:11Z</time>
<speed>0.040000</speed>
<extensions>
<speed>0.0</speed>
<temp>0.00</temp>
<bpm>0</bpm>
<rpm>0.00</rpm>
</extensions>
</trkpt>
<trkpt lat="64.052566528" lon="-21.979709625">
<ele>14.675293</ele>
<time>2012-07-28T19:55:16Z</time>
<speed>0.020000</speed>
<extensions>
<speed>0.0</speed>
<temp>0.00</temp>
<bpm>0</bpm>
<rpm>0.00</rpm>
</extensions>
</trkpt>
<trkpt lat="64.052566528" lon="-21.979709625">
<ele>14.748047</ele>
<time>2012-07-28T19:55:21Z</time>
<extensions>
<speed>0.0</speed>
<temp>0.00</temp>
<bpm>0</bpm>
<rpm>0.00</rpm>
</extensions>
</trkpt>
<trkpt lat="64.052566528" lon="-21.979709625">
<ele>14.770020</ele>
<time>2012-07-28T19:55:26Z</time>
<extensions>
<speed>0.0</speed>
<temp>0.00</temp>
<bpm>0</bpm>
<rpm>0.00</rpm>
</extensions>
</trkpt>
<trkpt lat="64.052566528" lon="-21.979709625">
<ele>14.797852</ele>
<time>2012-07-28T19:55:31Z</time>
<speed>0.020000</speed>
<extensions>
<speed>0.0</speed>
<temp>0.00</temp>
<bpm>0</bpm>
<rpm>0.00</rpm>
</extensions>
</trkpt>
<trkpt lat="64.052566528" lon="-21.979709625">
<ele>14.849365</ele>
<time>2012-07-28T19:55:36Z</time>
<speed>0.030000</speed>
<extensions>
<speed>0.0</speed>
<temp>0.00</temp>
<bpm>0</bpm>
<rpm>0.00</rpm>
</extensions>
</trkpt>
<trkpt lat="64.052566528" lon="-21.979709625">
<ele>14.895264</ele>
<time>2012-07-28T19:55:41Z</time>
<speed>0.010000</speed>
<extensions>
<speed>0.0</speed>
<temp>0.00</temp>
<bpm>0</bpm>
<rpm>0.00</rpm>
</extensions>
</trkpt>
<trkpt lat="64.052566528" lon="-21.979709625">
<ele>14.944336</ele>
<time>2012-07-28T19:55:46Z</time>
<extensions>
<speed>0.0</speed>
<temp>0.00</temp>
<bpm>0</bpm>
<rpm>0.00</rpm>
</extensions>
</trkpt>
<trkpt lat="64.052566528" lon="-21.979709625">
<ele>14.999023</ele>
<time>2012-07-28T19:55:51Z</time>
<speed>0.010000</speed>
<extensions>
<speed>0.0</speed>
<temp>0.00</temp>
<bpm>0</bpm>
<rpm>0.00</rpm>
</extensions>
</trkpt>
<trkpt lat="64.052566528" lon="-21.979709625">
<ele>15.059814</ele>
<time>2012-07-28T19:55:56Z</time>
<extensions>
<speed>0.0</speed>
<temp>0.00</temp>
<bpm>0</bpm>
<rpm>0.00</rpm>
</extensions>
</trkpt>
<trkpt lat="64.052566528" lon="-21.979709625">
<ele>15.087891</ele>
<time>2012-07-28T19:56:01Z</time>
<extensions>
<speed>0.0</speed>
<temp>0.00</temp>
<bpm>0</bpm>
<rpm>0.00</rpm>
</extensions>
</trkpt>
<trkpt lat="64.052566528" lon="-21.979709625">
<ele>15.111816</ele>
<time>2012-07-28T19:56:06Z</time>
<speed>0.010000</speed>
<extensions>
<speed>0.0</speed>
<temp>0.00</temp>
<bpm>0</bpm>
<rpm>0.00</rpm>
</extensions>
</trkpt>
<trkpt lat="64.052566528" lon="-21.979709625">
<ele>15.150146</ele>
<time>2012-07-28T19:56:11Z</time>
<speed>0.010000</speed>
<extensions>
<speed>0.0</speed>
<temp>0.00</temp>
<bpm>0</bpm>
<rpm>0.00</rpm>
</extensions>
</trkpt>
<trkpt lat="64.052566528" lon="-21.979709625">
<ele>15.183105</ele>
<time>2012-07-28T19:56:16Z</time>
<speed>0.010000</speed>
<extensions>
<speed>0.0</speed>
<temp>0.00</temp>
<bpm>0</bpm>
<rpm>0.00</rpm>
</extensions>
</trkpt>
<trkpt lat="64.052566528" lon="-21.979709625">
<ele>15.200928</ele>
<time>2012-07-28T19:56:21Z</time>
<extensions>
<speed>0.0</speed>
<temp>0.00</temp>
<bpm>0</bpm>
<rpm>0.00</rpm>
</extensions>
</trkpt>
<trkpt lat="64.052566528" lon="-21.979709625">
<ele>15.232178</ele>
<time>2012-07-28T19:56:26Z</time>
<extensions>
<speed>0.0</speed>
<temp>0.00</temp>
<bpm>0</bpm>
<rpm>0.00</rpm>
</extensions>
</trkpt>
<trkpt lat="64.052566528" lon="-21.979709625">
<ele>15.252441</ele>
<time>2012-07-28T19:56:31Z</time>
<extensions>
<speed>0.0</speed>
<temp>0.00</temp>
<bpm>0</bpm>
<rpm>0.00</rpm>
</extensions>
</trkpt>
<trkpt lat="64.052566528" lon="-21.979709625">
<ele>15.285156</ele>
<time>2012-07-28T19:56:36Z</time>
<extensions>
<speed>0.0</speed>
<temp>0.00</temp>
<bpm>0</bpm>
<rpm>0.00</rpm>
</extensions>
</trkpt>
<trkpt lat="64.052566528" lon="-21.979709625">
<ele>15.308105</ele>
<time>2012-07-28T19:56:41Z</time>
<extensions>
<speed>0.0</speed>
<temp>0.00</temp>
<bpm>0</bpm>
<rpm>0.00</rpm>
</extensions>
</trkpt>
<trkpt lat="64.052566528" lon="-21.979709625">
<ele>15.329590</ele>
<time>2012-07-28T19:56:46Z</time>
<speed>0.020000</speed>
<extensions>
<speed>0.0</speed>
<temp>0.00</temp>
<bpm>0</bpm>
<rpm>0.00</rpm>
</extensions>
</trkpt>
<trkpt lat="64.052566528" lon="-21.979709625">
<ele>15.344482</ele>
<time>2012-07-28T19:56:51Z</time>
<speed>0.010000</speed>
<extensions>
<speed>0.0</speed>
<temp>0.00</temp>
<bpm>0</bpm>
<rpm>0.00</rpm>
</extensions>
</trkpt>
<trkpt lat="64.052566528" lon="-21.979709625">
<ele>15.343750</ele>
<time>2012-07-28T19:56:56Z</time>
<extensions>
<speed>0.0</speed>
<temp>0.00</temp>
<bpm>0</bpm>
<rpm>0.00</rpm>
</extensions>
</trkpt>
<trkpt lat="64.052566528" lon="-21.979709625">
<ele>15.351807</ele>
<time>2012-07-28T19:57:01Z</time>
<speed>0.010000</speed>
<extensions>
<speed>0.0</speed>
<temp>0.00</temp>
<bpm>0</bpm>
<rpm>0.00</rpm>
</extensions>
</trkpt>
<trkpt lat="64.052566528" lon="-21.979709625">
<ele>15.363770</ele>
<time>2012-07-28T19:57:06Z</time>
<extensions>
<speed>0.0</speed>
<temp>0.00</temp>
<bpm>0</bpm>
<rpm>0.00</rpm>
</extensions>
</trkpt>
<trkpt lat="64.052574158" lon="-21.979709625">
<ele>15.379395</ele>
<time>2012-07-28T19:57:11Z</time>
<extensions>
<speed>0.0</speed>
<temp>0.00</temp>
<bpm>0</bpm>
<rpm>0.00</rpm>
</extensions>
</trkpt>
<trkpt lat="64.052574158" lon="-21.979709625">
<ele>15.386475</ele>
<time>2012-07-28T19:57:16Z</time>
<extensions>
<speed>0.0</speed>
<temp>0.00</temp>
<bpm>0</bpm>
<rpm>0.00</rpm>
</extensions>
</trkpt>
<trkpt lat="64.052574158" lon="-21.979707718">
<ele>15.400391</ele>
<time>2012-07-28T19:57:21Z</time>
<extensions>
<speed>0.0</speed>
<temp>0.00</temp>
<bpm>0</bpm>
<rpm>0.00</rpm>
</extensions>
</trkpt>
<trkpt lat="64.052574158" lon="-21.979707718">
<ele>15.416260</ele>
<time>2012-07-28T19:57:26Z</time>
<extensions>
<speed>0.0</speed>
<temp>0.00</temp>
<bpm>0</bpm>
<rpm>0.00</rpm>
</extensions>
</trkpt>
<trkpt lat="64.052574158" lon="-21.979707718">
<ele>15.423828</ele>
<time>2012-07-28T19:57:31Z</time>
<speed>0.010000</speed>
<extensions>
<speed>0.0</speed>
<temp>0.00</temp>
<bpm>0</bpm>
<rpm>0.00</rpm>
</extensions>
</trkpt>
<trkpt lat="64.052574158" lon="-21.979707718">
<ele>15.444824</ele>
<time>2012-07-28T19:57:36Z</time>
<extensions>
<speed>0.0</speed>
<temp>0.00</temp>
<bpm>0</bpm>
<rpm>0.00</rpm>
</extensions>
</trkpt>
<trkpt lat="64.052574158" lon="-21.979707718">
<ele>15.452637</ele>
<time>2012-07-28T19:57:41Z</time>
<speed>0.010000</speed>
<extensions>
<speed>0.0</speed>
<temp>0.00</temp>
<bpm>0</bpm>
<rpm>0.00</rpm>
</extensions>
</trkpt>
<trkpt lat="64.052574158" lon="-21.979707718">
<ele>15.466064</ele>
<time>2012-07-28T19:57:46Z</time>
<extensions>
<speed>0.0</speed>
<temp>0.00</temp>
<bpm>0</bpm>
<rpm>0.00</rpm>
</extensions>
</trkpt>
<trkpt lat="64.052574158" lon="-21.979707718">
<ele>15.468262</ele>
<time>2012-07-28T19:57:51Z</time>
<speed>0.010000</speed>
<extensions>
<speed>0.0</speed>
<temp>0.00</temp>
<bpm>0</bpm>
<rpm>0.00</rpm>
</extensions>
</trkpt>
<trkpt lat="64.052574158" lon="-21.979705811">
<ele>15.483643</ele>
<time>2012-07-28T19:57:56Z</time>
<extensions>
<speed>0.0</speed>
<temp>0.00</temp>
<bpm>0</bpm>
<rpm>0.00</rpm>
</extensions>
</trkpt>
<trkpt lat="64.052574158" lon="-21.979705811">
<ele>15.497803</ele>
<time>2012-07-28T19:58:01Z</time>
<extensions>
<speed>0.0</speed>
<temp>0.00</temp>
<bpm>0</bpm>
<rpm>0.00</rpm>
</extensions>
</trkpt>
<trkpt lat="64.052574158" lon="-21.979705811">
<ele>15.510986</ele>
<time>2012-07-28T19:58:06Z</time>
<extensions>
<speed>0.0</speed>
<temp>0.00</temp>
<bpm>0</bpm>
<rpm>0.00</rpm>
</extensions>
</trkpt>
<trkpt lat="64.052574158" lon="-21.979705811">
<ele>15.527344</ele>
<time>2012-07-28T19:58:11Z</time>
<extensions>
<speed>0.0</speed>
<temp>0.00</temp>
<bpm>0</bpm>
<rpm>0.00</rpm>
</extensions>
</trkpt>
<trkpt lat="64.052574158" lon="-21.979705811">
<ele>15.567871</ele>
<time>2012-07-28T19:58:16Z</time>
<extensions>
<speed>0.0</speed>
<temp>0.00</temp>
<bpm>0</bpm>
<rpm>0.00</rpm>
</extensions>
</trkpt>
<trkpt lat="64.052574158" lon="-21.979705811">
<ele>15.600830</ele>
<time>2012-07-28T19:58:21Z</time>
<speed>0.010000</speed>
<extensions>
<speed>0.0</speed>
<temp>0.00</temp>
<bpm>0</bpm>
<rpm>0.00</rpm>
</extensions>
</trkpt>
<trkpt lat="64.052574158" lon="-21.979705811">
<ele>15.643555</ele>
<time>2012-07-28T19:58:26Z</time>
<speed>0.010000</speed>
<extensions>
<speed>0.0</speed>
<temp>0.00</temp>
<bpm>0</bpm>
<rpm>0.00</rpm>
</extensions>
</trkpt>
<trkpt lat="64.052574158" lon="-21.979705811">
<ele>15.667236</ele>
<time>2012-07-28T19:58:31Z</time>
<speed>0.010000</speed>
<extensions>
<speed>0.0</speed>
<temp>0.00</temp>
<bpm>0</bpm>
<rpm>0.00</rpm>
</extensions>
</trkpt>
<trkpt lat="64.052574158" lon="-21.979703903">
<ele>15.660400</ele>
<time>2012-07-28T19:58:36Z</time>
<extensions>
<speed>0.0</speed>
<temp>0.00</temp>
<bpm>0</bpm>
<rpm>0.00</rpm>
</extensions>
</trkpt>
<trkpt lat="64.052574158" lon="-21.979703903">
<ele>15.612549</ele>
<time>2012-07-28T19:58:41Z</time>
<speed>0.010000</speed>
<extensions>
<speed>0.0</speed>
<temp>0.00</temp>
<bpm>0</bpm>
<rpm>0.00</rpm>
</extensions>
</trkpt>
<trkpt lat="64.052574158" lon="-21.979701996">
<ele>15.543457</ele>
<time>2012-07-28T19:58:46Z</time>
<speed>0.010000</speed>
<extensions>
<speed>0.0</speed>
<temp>0.00</temp>
<bpm>0</bpm>
<rpm>0.00</rpm>
</extensions>
</trkpt>
<trkpt lat="64.052574158" lon="-21.979701996">
<ele>15.453613</ele>
<time>2012-07-28T19:58:51Z</time>
<speed>0.030000</speed>
<extensions>
<speed>0.0</speed>
<temp>0.00</temp>
<bpm>0</bpm>
<rpm>0.00</rpm>
</extensions>
</trkpt>
<trkpt lat="64.052566528" lon="-21.979700089">
<ele>15.377441</ele>
<time>2012-07-28T19:58:56Z</time>
<extensions>
<speed>0.0</speed>
<temp>0.00</temp>
<bpm>0</bpm>
<rpm>0.00</rpm>
</extensions>
</trkpt>
<trkpt lat="64.052566528" lon="-21.979700089">
<ele>15.332275</ele>
<time>2012-07-28T19:59:01Z</time>
<speed>0.010000</speed>
<extensions>
<speed>0.0</speed>
<temp>0.00</temp>
<bpm>0</bpm>
<rpm>0.00</rpm>
</extensions>
</trkpt>
<trkpt lat="64.052566528" lon="-21.979700089">
<ele>15.300049</ele>
<time>2012-07-28T19:59:06Z</time>
<speed>0.030000</speed>
<extensions>
<speed>0.0</speed>
<temp>0.00</temp>
<bpm>0</bpm>
<rpm>0.00</rpm>
</extensions>
</trkpt>
<trkpt lat="64.052566528" lon="-21.979696274">
<ele>15.300049</ele>
<time>2012-07-28T19:59:11Z</time>
<speed>0.040000</speed>
<extensions>
<speed>0.0</speed>
<temp>0.00</temp>
<bpm>0</bpm>
<rpm>0.00</rpm>
</extensions>
</trkpt>
<trkpt lat="64.052566528" lon="-21.979694366">
<ele>15.331299</ele>
<time>2012-07-28T19:59:16Z</time>
<extensions>
<speed>0.0</speed>
<temp>0.00</temp>
<bpm>0</bpm>
<rpm>0.00</rpm>
</extensions>
</trkpt>
<trkpt lat="64.052566528" lon="-21.979692459">
<ele>15.377441</ele>
<time>2012-07-28T19:59:21Z</time>
<speed>0.050000</speed>
<extensions>
<speed>0.1</speed>
<temp>0.00</temp>
<bpm>0</bpm>
<rpm>0.00</rpm>
</extensions>
</trkpt>
<trkpt lat="64.052566528" lon="-21.979688644">
<ele>15.452881</ele>
<time>2012-07-28T19:59:26Z</time>
<speed>0.030000</speed>
<extensions>
<speed>0.0</speed>
<temp>0.00</temp>
<bpm>0</bpm>
<rpm>0.00</rpm>
</extensions>
</trkpt>
<trkpt lat="64.052566528" lon="-21.979688644">
<ele>15.571045</ele>
<time>2012-07-28T19:59:31Z</time>
<extensions>
<speed>0.0</speed>
<temp>0.00</temp>
<bpm>0</bpm>
<rpm>0.00</rpm>
</extensions>
</trkpt>
<trkpt lat="64.052566528" lon="-21.979686737">
<ele>15.747559</ele>
<time>2012-07-28T19:59:36Z</time>
<speed>0.010000</speed>
<extensions>
<speed>0.0</speed>
<temp>0.00</temp>
<bpm>0</bpm>
<rpm>0.00</rpm>
</extensions>
</trkpt>
<trkpt lat="64.052566528" lon="-21.979686737">
<ele>15.978027</ele>
<time>2012-07-28T19:59:41Z</time>
<speed>0.010000</speed>
<extensions>
<speed>0.0</speed>
<temp>0.00</temp>
<bpm>0</bpm>
<rpm>0.00</rpm>
</extensions>
</trkpt>
<trkpt lat="64.052566528" lon="-21.979684830">
<ele>16.252930</ele>
<time>2012-07-28T19:59:46Z</time>
<speed>0.010000</speed>
<extensions>
<speed>0.0</speed>
<temp>0.00</temp>
<bpm>0</bpm>
<rpm>0.00</rpm>
</extensions>
</trkpt>
<trkpt lat="64.052566528" lon="-21.979682922">
<ele>16.570801</ele>
<time>2012-07-28T19:59:51Z</time>
<speed>0.010000</speed>
<extensions>
<speed>0.0</speed>
<temp>0.00</temp>
<bpm>0</bpm>
<rpm>0.00</rpm>
</extensions>
</trkpt>
<trkpt lat="64.052566528" lon="-21.979681015">
<ele>16.926270</ele>
<time>2012-07-28T19:59:56Z</time>
<speed>0.020000</speed>
<extensions>
<speed>0.0</speed>
<temp>0.00</temp>
<bpm>0</bpm>
<rpm>0.00</rpm>
</extensions>
</trkpt>
<trkpt lat="64.052566528" lon="-21.979677200">
<ele>17.343750</ele>
<time>2012-07-28T20:00:01Z</time>
<speed>0.030000</speed>
<extensions>
<speed>0.0</speed>
<temp>0.00</temp>
<bpm>0</bpm>
<rpm>0.00</rpm>
</extensions>
</trkpt>
<trkpt lat="64.052566528" lon="-21.979673386">
<ele>17.835938</ele>
<time>2012-07-28T20:00:06Z</time>
<speed>0.040000</speed>
<extensions>
<speed>0.0</speed>
<temp>0.00</temp>
<bpm>0</bpm>
<rpm>0.00</rpm>
</extensions>
</trkpt>
<trkpt lat="64.052566528" lon="-21.979669571">
<ele>18.398926</ele>
<time>2012-07-28T20:00:11Z</time>
<speed>0.030000</speed>
<extensions>
<speed>0.0</speed>
<temp>0.00</temp>
<bpm>0</bpm>
<rpm>0.00</rpm>
</extensions>
</trkpt>
<trkpt lat="64.052566528" lon="-21.979665756">
<ele>19.038086</ele>
<time>2012-07-28T20:00:16Z</time>
<speed>0.030000</speed>
<extensions>
<speed>0.0</speed>
<temp>0.00</temp>
<bpm>0</bpm>
<rpm>0.00</rpm>
</extensions>
</trkpt>
<trkpt lat="64.052566528" lon="-21.979661942">
<ele>19.696289</ele>
<time>2012-07-28T20:00:21Z</time>
<speed>0.020000</speed>
<extensions>
<speed>0.0</speed>
<temp>0.00</temp>
<bpm>0</bpm>
<rpm>0.00</rpm>
</extensions>
</trkpt>
<trkpt lat="64.052566528" lon="-21.979661942">
<ele>20.362305</ele>
<time>2012-07-28T20:00:26Z</time>
<speed>0.030000</speed>
<extensions>
<speed>0.0</speed>
<temp>0.00</temp>
<bpm>0</bpm>
<rpm>0.00</rpm>
</extensions>
</trkpt>
<trkpt lat="64.052566528" lon="-21.979658127">
<ele>21.104004</ele>
<time>2012-07-28T20:00:31Z</time>
<speed>0.070000</speed>
<extensions>
<speed>0.1</speed>
<temp>0.00</temp>
<bpm>0</bpm>
<rpm>0.00</rpm>
</extensions>
</trkpt>
<trkpt lat="64.052574158" lon="-21.979654312">
<ele>21.873047</ele>
<time>2012-07-28T20:00:36Z</time>
<speed>0.030000</speed>
<extensions>
<speed>0.0</speed>
<temp>0.00</temp>
<bpm>0</bpm>
<rpm>0.00</rpm>
</extensions>
</trkpt>
<trkpt lat="64.052574158" lon="-21.979652405">
<ele>22.671875</ele>
<time>2012-07-28T20:00:41Z</time>
<speed>0.010000</speed>
<extensions>
<speed>0.0</speed>
<temp>0.00</temp>
<bpm>0</bpm>
<rpm>0.00</rpm>
</extensions>
</trkpt>
<trkpt lat="64.052574158" lon="-21.979648590">
<ele>23.473145</ele>
<time>2012-07-28T20:00:46Z</time>
<speed>0.030000</speed>
<extensions>
<speed>0.0</speed>
<temp>0.00</temp>
<bpm>0</bpm>
<rpm>0.00</rpm>
</extensions>
</trkpt>
<trkpt lat="64.052574158" lon="-21.979642868">
<ele>24.263672</ele>
<time>2012-07-28T20:00:51Z</time>
<speed>0.040000</speed>
<extensions>
<speed>0.0</speed>
<temp>0.00</temp>
<bpm>0</bpm>
<rpm>0.00</rpm>
</extensions>
</trkpt>
<trkpt lat="64.052574158" lon="-21.979637146">
<ele>25.072266</ele>
<time>2012-07-28T20:00:56Z</time>
<speed>0.080000</speed>
<extensions>
<speed>0.1</speed>
<temp>0.00</temp>
<bpm>0</bpm>
<rpm>0.00</rpm>
</extensions>
</trkpt>
<trkpt lat="64.052566528" lon="-21.979629517">
<ele>25.893555</ele>
<time>2012-07-28T20:01:01Z</time>
<speed>0.070000</speed>
<extensions>
<speed>0.1</speed>
<temp>0.00</temp>
<bpm>0</bpm>
<rpm>0.00</rpm>
</extensions>
</trkpt>
<trkpt lat="64.052566528" lon="-21.979621887">
<ele>26.786133</ele>
<time>2012-07-28T20:01:06Z</time>
<speed>0.040000</speed>
<extensions>
<speed>0.0</speed>
<temp>0.00</temp>
<bpm>0</bpm>
<rpm>0.00</rpm>
</extensions>
</trkpt>
<trkpt lat="64.052574158" lon="-21.979619980">
<ele>27.798340</ele>
<time>2012-07-28T20:01:11Z</time>
<speed>0.030000</speed>
<extensions>
<speed>0.0</speed>
<temp>0.00</temp>
<bpm>0</bpm>
<rpm>0.00</rpm>
</extensions>
</trkpt>
<trkpt lat="64.052574158" lon="-21.979612350">
<ele>28.853516</ele>
<time>2012-07-28T20:01:16Z</time>
<speed>0.070000</speed>
<extensions>
<speed>0.1</speed>
<temp>0.00</temp>
<bpm>0</bpm>
<rpm>0.00</rpm>
</extensions>
</trkpt>
<trkpt lat="64.052574158" lon="-21.979608536">
<ele>30.072266</ele>
<time>2012-07-28T20:01:21Z</time>
<speed>0.050000</speed>
<extensions>
<speed>0.1</speed>
<temp>0.00</temp>
<bpm>0</bpm>
<rpm>0.00</rpm>
</extensions>
</trkpt>
<trkpt lat="64.052574158" lon="-21.979606628">
<ele>31.500488</ele>
<time>2012-07-28T20:01:26Z</time>
<speed>0.050000</speed>
<extensions>
<speed>0.1</speed>
<temp>0.00</temp>
<bpm>0</bpm>
<rpm>0.00</rpm>
</extensions>
</trkpt>
<trkpt lat="64.052574158" lon="-21.979602814">
<ele>33.206055</ele>
<time>2012-07-28T20:01:31Z</time>
<speed>0.060000</speed>
<extensions>
<speed>0.1</speed>
<temp>0.00</temp>
<bpm>0</bpm>
<rpm>0.00</rpm>
</extensions>
</trkpt>
<trkpt lat="64.052581787" lon="-21.979598999">
<ele>35.141602</ele>
<time>2012-07-28T20:01:36Z</time>
<speed>0.070000</speed>
<extensions>
<speed>0.1</speed>
<temp>0.00</temp>
<bpm>0</bpm>
<rpm>0.00</rpm>
</extensions>
</trkpt>
<trkpt lat="64.052589417" lon="-21.979606628">
<ele>37.329102</ele>
<time>2012-07-28T20:01:41Z</time>
<speed>0.190000</speed>
<extensions>
<speed>0.2</speed>
<temp>0.00</temp>
<bpm>0</bpm>
<rpm>0.00</rpm>
</extensions>
</trkpt>
<trkpt lat="64.052597046" lon="-21.979625702">
<ele>39.652344</ele>
<time>2012-07-28T20:01:46Z</time>
<speed>0.270000</speed>
<extensions>
<speed>0.3</speed>
<temp>0.00</temp>
<bpm>0</bpm>
<rpm>0.00</rpm>
</extensions>
</trkpt>
<trkpt lat="64.052612305" lon="-21.979640961">
<ele>42.067383</ele>
<time>2012-07-28T20:01:51Z</time>
<speed>0.270000</speed>
<extensions>
<speed>0.3</speed>
<temp>0.00</temp>
<bpm>0</bpm>
<rpm>0.00</rpm>
</extensions>
</trkpt>
<trkpt lat="64.052619934" lon="-21.979656219">
<ele>44.505859</ele>
<time>2012-07-28T20:01:56Z</time>
<speed>0.110000</speed>
<extensions>
<speed>0.1</speed>
<temp>0.00</temp>
<bpm>0</bpm>
<rpm>0.00</rpm>
</extensions>
</trkpt>
<trkpt lat="64.052619934" lon="-21.979646683">
<ele>46.708984</ele>
<time>2012-07-28T20:02:01Z</time>
<speed>0.430000</speed>
<extensions>
<speed>0.4</speed>
<temp>0.00</temp>
<bpm>0</bpm>
<rpm>0.00</rpm>
</extensions>
</trkpt>
<trkpt lat="64.052635193" lon="-21.979703903">
<ele>43.269531</ele>
<time>2012-07-28T20:02:06Z</time>
<speed>0.250000</speed>
<extensions>
<speed>0.2</speed>
<temp>0.00</temp>
<bpm>0</bpm>
<rpm>0.00</rpm>
</extensions>
</trkpt>
<trkpt lat="64.052642822" lon="-21.979713440">
<ele>42.020508</ele>
<time>2012-07-28T20:02:11Z</time>
<speed>0.180000</speed>
<extensions>
<speed>0.2</speed>
<temp>0.00</temp>
<bpm>0</bpm>
<rpm>0.00</rpm>
</extensions>
</trkpt>
<trkpt lat="64.052642822" lon="-21.979700089">
<ele>42.913086</ele>
<time>2012-07-28T20:02:16Z</time>
<speed>0.150000</speed>
<extensions>
<speed>0.2</speed>
<temp>0.00</temp>
<bpm>0</bpm>
<rpm>0.00</rpm>
</extensions>
</trkpt>
<trkpt lat="64.052635193" lon="-21.979692459">
<ele>43.681641</ele>
<time>2012-07-28T20:02:21Z</time>
<speed>0.110000</speed>
<extensions>
<speed>0.1</speed>
<temp>0.00</temp>
<bpm>0</bpm>
<rpm>0.00</rpm>
</extensions>
</trkpt>
<trkpt lat="64.052635193" lon="-21.979684830">
<ele>44.235352</ele>
<time>2012-07-28T20:02:26Z</time>
<speed>0.090000</speed>
<extensions>
<speed>0.1</speed>
<temp>0.00</temp>
<bpm>0</bpm>
<rpm>0.00</rpm>
</extensions>
</trkpt>
<trkpt lat="64.052635193" lon="-21.979671478">
<ele>44.612305</ele>
<time>2012-07-28T20:02:31Z</time>
<speed>0.130000</speed>
<extensions>
<speed>0.1</speed>
<temp>0.00</temp>
<bpm>0</bpm>
<rpm>0.00</rpm>
</extensions>
</trkpt>
<trkpt lat="64.052635193" lon="-21.979663849">
<ele>44.834961</ele>
<time>2012-07-28T20:02:36Z</time>
<speed>0.030000</speed>
<extensions>
<speed>0.0</speed>
<temp>0.00</temp>
<bpm>0</bpm>
<rpm>0.00</rpm>
</extensions>
</trkpt>
<trkpt lat="64.052635193" lon="-21.979661942">
<ele>44.905273</ele>
<time>2012-07-28T20:02:41Z</time>
<speed>0.030000</speed>
<extensions>
<speed>0.0</speed>
<temp>0.00</temp>
<bpm>0</bpm>
<rpm>0.00</rpm>
</extensions>
</trkpt>
<trkpt lat="64.052627563" lon="-21.979661942">
<ele>44.901367</ele>
<time>2012-07-28T20:02:46Z</time>
<speed>0.010000</speed>
<extensions>
<speed>0.0</speed>
<temp>0.00</temp>
<bpm>0</bpm>
<rpm>0.00</rpm>
</extensions>
</trkpt>
<trkpt lat="64.052627563" lon="-21.979661942">
<ele>44.823242</ele>
<time>2012-07-28T20:02:51Z</time>
<speed>0.020000</speed>
<extensions>
<speed>0.0</speed>
<temp>0.00</temp>
<bpm>0</bpm>
<rpm>0.00</rpm>
</extensions>
</trkpt>
<trkpt lat="64.052635193" lon="-21.979663849">
<ele>44.666992</ele>
<time>2012-07-28T20:02:56Z</time>
<speed>0.020000</speed>
<extensions>
<speed>0.0</speed>
<temp>0.00</temp>
<bpm>0</bpm>
<rpm>0.00</rpm>
</extensions>
</trkpt>
<trkpt lat="64.052635193" lon="-21.979665756">
<ele>44.476563</ele>
<time>2012-07-28T20:03:01Z</time>
<speed>0.080000</speed>
<extensions>
<speed>0.1</speed>
<temp>0.00</temp>
<bpm>0</bpm>
<rpm>0.00</rpm>
</extensions>
</trkpt>
<trkpt lat="64.052635193" lon="-21.979667664">
<ele>44.273438</ele>
<time>2012-07-28T20:03:06Z</time>
<speed>0.080000</speed>
<extensions>
<speed>0.1</speed>
<temp>0.00</temp>
<bpm>0</bpm>
<rpm>0.00</rpm>
</extensions>
</trkpt>
<trkpt lat="64.052635193" lon="-21.979673386">
<ele>44.057617</ele>
<time>2012-07-28T20:03:11Z</time>
<speed>0.090000</speed>
<extensions>
<speed>0.1</speed>
<temp>0.00</temp>
<bpm>0</bpm>
<rpm>0.00</rpm>
</extensions>
</trkpt>
<trkpt lat="64.052635193" lon="-21.979675293">
<ele>43.891602</ele>
<time>2012-07-28T20:03:16Z</time>
<speed>0.260000</speed>
<extensions>
<speed>0.3</speed>
<temp>0.00</temp>
<bpm>0</bpm>
<rpm>0.00</rpm>
</extensions>
</trkpt>
<trkpt lat="64.052635193" lon="-21.979688644">
<ele>44.115234</ele>
<time>2012-07-28T20:03:21Z</time>
<speed>0.720000</speed>
<extensions>
<speed>0.7</speed>
<temp>0.00</temp>
<bpm>0</bpm>
<rpm>0.00</rpm>
</extensions>
</trkpt>
<trkpt lat="64.052688599" lon="-21.979639053">
<ele>41.524414</ele>
<time>2012-07-28T20:03:26Z</time>
<speed>2.320000</speed>
<extensions>
<speed>2.3</speed>
<temp>0.00</temp>
<bpm>0</bpm>
<rpm>0.00</rpm>
</extensions>
</trkpt>
<trkpt lat="64.052764893" lon="-21.979385376">
<ele>38.230469</ele>
<time>2012-07-28T20:03:31Z</time>
<speed>3.080000</speed>
<extensions>
<speed>3.1</speed>
<temp>0.00</temp>
<bpm>0</bpm>
<rpm>0.00</rpm>
</extensions>
</trkpt>
<trkpt lat="64.052833557" lon="-21.979084015">
<ele>38.384766</ele>
<time>2012-07-28T20:03:36Z</time>
<speed>2.490000</speed>
<extensions>
<speed>2.5</speed>
<temp>0.00</temp>
<bpm>0</bpm>
<rpm>0.00</rpm>
</extensions>
</trkpt>
<trkpt lat="64.052902222" lon="-21.978794098">
<ele>38.626953</ele>
<time>2012-07-28T20:03:41Z</time>
<speed>3.660000</speed>
<extensions>
<speed>3.7</speed>
<temp>0.00</temp>
<bpm>0</bpm>
<rpm>0.00</rpm>
</extensions>
</trkpt>
<trkpt lat="64.053001404" lon="-21.978387833">
<ele>38.177734</ele>
<time>2012-07-28T20:03:46Z</time>
<speed>4.270000</speed>
<extensions>
<speed>4.3</speed>
<temp>0.00</temp>
<bpm>0</bpm>
<rpm>0.00</rpm>
</extensions>
</trkpt>
<trkpt lat="64.053077698" lon="-21.978019714">
<ele>37.212891</ele>
<time>2012-07-28T20:03:51Z</time>
<speed>3.360000</speed>
<extensions>
<speed>3.4</speed>
<temp>0.00</temp>
<bpm>0</bpm>
<rpm>0.00</rpm>
</extensions>
</trkpt>
<trkpt lat="64.053138733" lon="-21.977666855">
<ele>37.069336</ele>
<time>2012-07-28T20:03:56Z</time>
<speed>3.760000</speed>
<extensions>
<speed>3.8</speed>
<temp>0.00</temp>
<bpm>0</bpm>
<rpm>0.00</rpm>
</extensions>
</trkpt>
<trkpt lat="64.053207397" lon="-21.977243423">
<ele>37.660156</ele>
<time>2012-07-28T20:04:01Z</time>
<speed>4.290000</speed>
<extensions>
<speed>4.3</speed>
<temp>0.00</temp>
<bpm>0</bpm>
<rpm>0.00</rpm>
</extensions>
</trkpt>
<trkpt lat="64.053215027" lon="-21.976848602">
<ele>35.845703</ele>
<time>2012-07-28T20:04:06Z</time>
<speed>3.260000</speed>
<extensions>
<speed>3.3</speed>
<temp>0.00</temp>
<bpm>0</bpm>
<rpm>0.00</rpm>
</extensions>
</trkpt>
<trkpt lat="64.053215027" lon="-21.976457596">
<ele>28.437012</ele>
<time>2012-07-28T20:04:11Z</time>
<speed>3.730000</speed>
<extensions>
<speed>3.7</speed>
<temp>0.00</temp>
<bpm>0</bpm>
<rpm>0.00</rpm>
</extensions>
</trkpt>
<trkpt lat="64.053245544" lon="-21.976127625">
<ele>25.361816</ele>
<time>2012-07-28T20:04:16Z</time>
<speed>2.810000</speed>
<extensions>
<speed>2.8</speed>
<temp>0.00</temp>
<bpm>0</bpm>
<rpm>0.00</rpm>
</extensions>
</trkpt>
<trkpt lat="64.053314209" lon="-21.975870132">
<ele>24.672852</ele>
<time>2012-07-28T20:04:21Z</time>
<speed>2.730000</speed>
<extensions>
<speed>2.7</speed>
<temp>0.00</temp>
<bpm>0</bpm>
<rpm>0.00</rpm>
</extensions>
</trkpt>
<trkpt lat="64.053382874" lon="-21.975606918">
<ele>26.970215</ele>
<time>2012-07-28T20:04:26Z</time>
<speed>3.420000</speed>
<extensions>
<speed>3.4</speed>
<temp>0.00</temp>
<bpm>0</bpm>
<rpm>0.00</rpm>
</extensions>
</trkpt>
<trkpt lat="64.053443909" lon="-21.975242615">
<ele>26.467285</ele>
<time>2012-07-28T20:04:31Z</time>
<speed>3.440000</speed>
<extensions>
<speed>3.4</speed>
<temp>0.00</temp>
<bpm>0</bpm>
<rpm>0.00</rpm>
</extensions>
</trkpt>
<trkpt lat="64.053497314" lon="-21.974924088">
<ele>26.195313</ele>
<time>2012-07-28T20:04:36Z</time>
<speed>3.460000</speed>
<extensions>
<speed>3.5</speed>
<temp>0.00</temp>
<bpm>0</bpm>
<rpm>0.00</rpm>
</extensions>
</trkpt>
<trkpt lat="64.053550720" lon="-21.974584579">
<ele>26.253418</ele>
<time>2012-07-28T20:04:41Z</time>
<speed>3.180000</speed>
<extensions>
<speed>3.2</speed>
<temp>0.00</temp>
<bpm>0</bpm>
<rpm>0.00</rpm>
</extensions>
</trkpt>
<trkpt lat="64.053596497" lon="-21.974277496">
<ele>26.120605</ele>
<time>2012-07-28T20:04:46Z</time>
<speed>3.450000</speed>
<extensions>
<speed>3.5</speed>
<temp>0.00</temp>
<bpm>0</bpm>
<rpm>0.00</rpm>
</extensions>
</trkpt>
<trkpt lat="64.053657532" lon="-21.973972321">
<ele>25.593750</ele>
<time>2012-07-28T20:04:51Z</time>
<speed>3.250000</speed>
<extensions>
<speed>3.2</speed>
<temp>0.00</temp>
<bpm>0</bpm>
<rpm>0.00</rpm>
</extensions>
</trkpt>
<trkpt lat="64.053703308" lon="-21.973682404">
<ele>25.439453</ele>
<time>2012-07-28T20:04:56Z</time>
<speed>3.370000</speed>
<extensions>
<speed>3.4</speed>
<temp>0.00</temp>
<bpm>0</bpm>
<rpm>0.00</rpm>
</extensions>
</trkpt>
<trkpt lat="64.053756714" lon="-21.973388672">
<ele>26.140137</ele>
<time>2012-07-28T20:05:01Z</time>
<speed>3.160000</speed>
<extensions>
<speed>3.2</speed>
<temp>0.00</temp>
<bpm>0</bpm>
<rpm>0.00</rpm>
</extensions>
</trkpt>
<trkpt lat="64.053810120" lon="-21.973060608">
<ele>26.859863</ele>
<time>2012-07-28T20:05:06Z</time>
<speed>3.450000</speed>
<extensions>
<speed>3.5</speed>
<temp>0.00</temp>
<bpm>0</bpm>
<rpm>0.00</rpm>
</extensions>
</trkpt>
<trkpt lat="64.053863525" lon="-21.972732544">
<ele>26.697754</ele>
<time>2012-07-28T20:05:11Z</time>
<speed>3.410000</speed>
<extensions>
<speed>3.4</speed>
<temp>0.00</temp>
<bpm>0</bpm>
<rpm>0.00</rpm>
</extensions>
</trkpt>
<trkpt lat="64.053901672" lon="-21.972448349">
<ele>26.759277</ele>
<time>2012-07-28T20:05:16Z</time>
<speed>2.690000</speed>
<extensions>
<speed>2.7</speed>
<temp>0.00</temp>
<bpm>0</bpm>
<rpm>0.00</rpm>
</extensions>
</trkpt>
<trkpt lat="64.053947449" lon="-21.972179413">
<ele>26.779785</ele>
<time>2012-07-28T20:05:21Z</time>
<speed>2.820000</speed>
<extensions>
<speed>2.8</speed>
<temp>0.00</temp>
<bpm>0</bpm>
<rpm>0.00</rpm>
</extensions>
</trkpt>
<trkpt lat="64.053985596" lon="-21.971921921">
<ele>26.773438</ele>
<time>2012-07-28T20:05:26Z</time>
<speed>2.330000</speed>
<extensions>
<speed>2.3</speed>
<temp>0.00</temp>
<bpm>0</bpm>
<rpm>0.00</rpm>
</extensions>
</trkpt>
<trkpt lat="64.054023743" lon="-21.971681595">
<ele>27.168945</ele>
<time>2012-07-28T20:05:31Z</time>
<speed>2.570000</speed>
<extensions>
<speed>2.6</speed>
<temp>0.00</temp>
<bpm>0</bpm>
<rpm>0.00</rpm>
</extensions>
</trkpt>
<trkpt lat="64.054054260" lon="-21.971448898">
<ele>26.801758</ele>
<time>2012-07-28T20:05:36Z</time>
<speed>2.270000</speed>
<extensions>
<speed>2.3</speed>
<temp>0.00</temp>
<bpm>0</bpm>
<rpm>0.00</rpm>
</extensions>
</trkpt>
<trkpt lat="64.054092407" lon="-21.971147537">
<ele>26.000488</ele>
<time>2012-07-28T20:05:41Z</time>
<speed>3.570000</speed>
<extensions>
<speed>3.6</speed>
<temp>0.00</temp>
<bpm>0</bpm>
<rpm>0.00</rpm>
</extensions>
</trkpt>
<trkpt lat="64.054138184" lon="-21.970817566">
<ele>25.378906</ele>
<time>2012-07-28T20:05:46Z</time>
<speed>3.120000</speed>
<extensions>
<speed>3.1</speed>
<temp>0.00</temp>
<bpm>0</bpm>
<rpm>0.00</rpm>
</extensions>
</trkpt>
<trkpt lat="64.054161072" lon="-21.970495224">
<ele>22.514648</ele>
<time>2012-07-28T20:05:51Z</time>
<speed>2.800000</speed>
<extensions>
<speed>2.8</speed>
<temp>0.00</temp>
<bpm>0</bpm>
<rpm>0.00</rpm>
</extensions>
</trkpt>
<trkpt lat="64.054061890" lon="-21.970235825">
<ele>20.174805</ele>
<time>2012-07-28T20:05:56Z</time>
<speed>3.740000</speed>
<extensions>
<speed>3.7</speed>
<temp>0.00</temp>
<bpm>0</bpm>
<rpm>0.00</rpm>
</extensions>
</trkpt>
<trkpt lat="64.053878784" lon="-21.970079422">
<ele>22.032227</ele>
<time>2012-07-28T20:06:01Z</time>
<speed>4.120000</speed>
<extensions>
<speed>4.1</speed>
<temp>0.00</temp>
<bpm>0</bpm>
<rpm>0.00</rpm>
</extensions>
</trkpt>
<trkpt lat="64.053718567" lon="-21.970037460">
<ele>21.532227</ele>
<time>2012-07-28T20:06:06Z</time>
<speed>2.720000</speed>
<extensions>
<speed>2.7</speed>
<temp>0.00</temp>
<bpm>0</bpm>
<rpm>0.00</rpm>
</extensions>
</trkpt>
<trkpt lat="64.053581238" lon="-21.970104218">
<ele>21.516602</ele>
<time>2012-07-28T20:06:11Z</time>
<speed>3.320000</speed>
<extensions>
<speed>3.3</speed>
<temp>0.00</temp>
<bpm>0</bpm>
<rpm>0.00</rpm>
</extensions>
</trkpt>
<trkpt lat="64.053443909" lon="-21.970022202">
<ele>22.253418</ele>
<time>2012-07-28T20:06:16Z</time>
<speed>3.220000</speed>
<extensions>
<speed>3.2</speed>
<temp>0.00</temp>
<bpm>0</bpm>
<rpm>0.00</rpm>
</extensions>
</trkpt>
<trkpt lat="64.053459167" lon="-21.969684601">
<ele>25.113770</ele>
<time>2012-07-28T20:06:21Z</time>
<speed>3.020000</speed>
<extensions>
<speed>3.0</speed>
<temp>0.00</temp>
<bpm>0</bpm>
<rpm>0.00</rpm>
</extensions>
</trkpt>
<trkpt lat="64.053527832" lon="-21.969417572">
<ele>24.923828</ele>
<time>2012-07-28T20:06:26Z</time>
<speed>2.770000</speed>
<extensions>
<speed>2.8</speed>
<temp>0.00</temp>
<bpm>0</bpm>
<rpm>0.00</rpm>
</extensions>
</trkpt>
<trkpt lat="64.053596497" lon="-21.969219208">
<ele>24.188965</ele>
<time>2012-07-28T20:06:31Z</time>
<speed>2.640000</speed>
<extensions>
<speed>2.6</speed>
<temp>0.00</temp>
<bpm>0</bpm>
<rpm>0.00</rpm>
</extensions>
</trkpt>
<trkpt lat="64.053672791" lon="-21.968946457">
<ele>24.854492</ele>
<time>2012-07-28T20:06:36Z</time>
<speed>3.640000</speed>
<extensions>
<speed>3.6</speed>
<temp>0.00</temp>
<bpm>0</bpm>
<rpm>0.00</rpm>
</extensions>
</trkpt>
<trkpt lat="64.053749084" lon="-21.968564987">
<ele>24.924316</ele>
<time>2012-07-28T20:06:41Z</time>
<speed>4.350000</speed>
<extensions>
<speed>4.3</speed>
<temp>0.00</temp>
<bpm>0</bpm>
<rpm>0.00</rpm>
</extensions>
</trkpt>
<trkpt lat="64.053840637" lon="-21.968208313">
<ele>25.453613</ele>
<time>2012-07-28T20:06:46Z</time>
<speed>3.770000</speed>
<extensions>
<speed>3.8</speed>
<temp>0.00</temp>
<bpm>0</bpm>
<rpm>0.00</rpm>
</extensions>
</trkpt>
<trkpt lat="64.053932190" lon="-21.967884064">
<ele>25.649414</ele>
<time>2012-07-28T20:06:51Z</time>
<speed>3.460000</speed>
<extensions>
<speed>3.5</speed>
<temp>0.00</temp>
<bpm>0</bpm>
<rpm>0.00</rpm>
</extensions>
</trkpt>
<trkpt lat="64.054046631" lon="-21.967617035">
<ele>25.664551</ele>
<time>2012-07-28T20:06:56Z</time>
<speed>4.130000</speed>
<extensions>
<speed>4.1</speed>
<temp>0.00</temp>
<bpm>0</bpm>
<rpm>0.00</rpm>
</extensions>
</trkpt>
<trkpt lat="64.054191589" lon="-21.967369080">
<ele>26.312012</ele>
<time>2012-07-28T20:07:01Z</time>
<speed>3.720000</speed>
<extensions>
<speed>3.7</speed>
<temp>0.00</temp>
<bpm>0</bpm>
<rpm>0.00</rpm>
</extensions>
</trkpt>
<trkpt lat="64.054290771" lon="-21.967189789">
<ele>27.276367</ele>
<time>2012-07-28T20:07:06Z</time>
<speed>2.740000</speed>
<extensions>
<speed>2.7</speed>
<temp>0.00</temp>
<bpm>0</bpm>
<rpm>0.00</rpm>
</extensions>
</trkpt>
<trkpt lat="64.054367065" lon="-21.966951370">
<ele>27.792969</ele>
<time>2012-07-28T20:07:11Z</time>
<speed>2.680000</speed>
<extensions>
<speed>2.7</speed>
<temp>0.00</temp>
<bpm>0</bpm>
<rpm>0.00</rpm>
</extensions>
</trkpt>
<trkpt lat="64.054374695" lon="-21.966648102">
<ele>28.815430</ele>
<time>2012-07-28T20:07:16Z</time>
<speed>2.460000</speed>
<extensions>
<speed>2.5</speed>
<temp>0.00</temp>
<bpm>0</bpm>
<rpm>0.00</rpm>
</extensions>
</trkpt>
<trkpt lat="64.054306030" lon="-21.966379166">
<ele>29.829590</ele>
<time>2012-07-28T20:07:21Z</time>
<speed>3.310000</speed>
<extensions>
<speed>3.3</speed>
<temp>0.00</temp>
<bpm>0</bpm>
<rpm>0.00</rpm>
</extensions>
</trkpt>
<trkpt lat="64.054214478" lon="-21.966060638">
<ele>27.140625</ele>
<time>2012-07-28T20:07:26Z</time>
<speed>3.140000</speed>
<extensions>
<speed>3.1</speed>
<temp>0.00</temp>
<bpm>0</bpm>
<rpm>0.00</rpm>
</extensions>
</trkpt>
<trkpt lat="64.054244995" lon="-21.965772629">
<ele>29.593262</ele>
<time>2012-07-28T20:07:31Z</time>
<speed>3.250000</speed>
<extensions>
<speed>3.2</speed>
<temp>0.00</temp>
<bpm>0</bpm>
<rpm>0.00</rpm>
</extensions>
</trkpt>
<trkpt lat="64.054275513" lon="-21.965433121">
<ele>29.687500</ele>
<time>2012-07-28T20:07:36Z</time>
<speed>3.110000</speed>
<extensions>
<speed>3.1</speed>
<temp>0.00</temp>
<bpm>0</bpm>
<rpm>0.00</rpm>
</extensions>
</trkpt>
<trkpt lat="64.054321289" lon="-21.965158463">
<ele>29.565918</ele>
<time>2012-07-28T20:07:41Z</time>
<speed>3.210000</speed>
<extensions>
<speed>3.2</speed>
<temp>0.00</temp>
<bpm>0</bpm>
<rpm>0.00</rpm>
</extensions>
</trkpt>
<trkpt lat="64.054359436" lon="-21.964872360">
<ele>29.920898</ele>
<time>2012-07-28T20:07:46Z</time>
<speed>2.590000</speed>
<extensions>
<speed>2.6</speed>
<temp>0.00</temp>
<bpm>0</bpm>
<rpm>0.00</rpm>
</extensions>
</trkpt>
<trkpt lat="64.054389954" lon="-21.964632034">
<ele>31.519531</ele>
<time>2012-07-28T20:07:51Z</time>
<speed>2.620000</speed>
<extensions>
<speed>2.6</speed>
<temp>0.00</temp>
<bpm>0</bpm>
<rpm>0.00</rpm>
</extensions>
</trkpt>
<trkpt lat="64.054435730" lon="-21.964389801">
<ele>31.811523</ele>
<time>2012-07-28T20:07:56Z</time>
<speed>2.610000</speed>
<extensions>
<speed>2.6</speed>
<temp>0.00</temp>
<bpm>0</bpm>
<rpm>0.00</rpm>
</extensions>
</trkpt>
<trkpt lat="64.054481506" lon="-21.964183807">
<ele>32.734375</ele>
<time>2012-07-28T20:08:01Z</time>
<speed>2.370000</speed>
<extensions>
<speed>2.4</speed>
<temp>0.00</temp>
<bpm>0</bpm>
<rpm>0.00</rpm>
</extensions>
</trkpt>
<trkpt lat="64.054527283" lon="-21.963989258">
<ele>32.835938</ele>
<time>2012-07-28T20:08:06Z</time>
<speed>2.300000</speed>
<extensions>
<speed>2.3</speed>
<temp>0.00</temp>
<bpm>0</bpm>
<rpm>0.00</rpm>
</extensions>
</trkpt>
<trkpt lat="64.054588318" lon="-21.963821411">
<ele>34.813477</ele>
<time>2012-07-28T20:08:11Z</time>
<speed>1.880000</speed>
<extensions>
<speed>1.9</speed>
<temp>0.00</temp>
<bpm>0</bpm>
<rpm>0.00</rpm>
</extensions>
</trkpt>
<trkpt lat="64.054641724" lon="-21.963691711">
<ele>35.625977</ele>
<time>2012-07-28T20:08:16Z</time>
<speed>1.860000</speed>
<extensions>
<speed>1.9</speed>
<temp>0.00</temp>
<bpm>0</bpm>
<rpm>0.00</rpm>
</extensions>
</trkpt>
<trkpt lat="64.054710388" lon="-21.963613510">
<ele>36.657227</ele>
<time>2012-07-28T20:08:21Z</time>
<speed>1.300000</speed>
<extensions>
<speed>1.3</speed>
<temp>0.00</temp>
<bpm>0</bpm>
<rpm>0.00</rpm>
</extensions>
</trkpt>
<trkpt lat="64.054763794" lon="-21.963518143">
<ele>36.515625</ele>
<time>2012-07-28T20:08:26Z</time>
<speed>1.330000</speed>
<extensions>
<speed>1.3</speed>
<temp>0.00</temp>
<bpm>0</bpm>
<rpm>0.00</rpm>
</extensions>
</trkpt>
<trkpt lat="64.054809570" lon="-21.963438034">
<ele>37.280273</ele>
<time>2012-07-28T20:08:31Z</time>
<speed>1.830000</speed>
<extensions>
<speed>1.8</speed>
<temp>0.00</temp>
<bpm>0</bpm>
<rpm>0.00</rpm>
</extensions>
</trkpt>
<trkpt lat="64.054878235" lon="-21.963375092">
<ele>38.230469</ele>
<time>2012-07-28T20:08:36Z</time>
<speed>1.590000</speed>
<extensions>
<speed>1.6</speed>
<temp>0.00</temp>
<bpm>0</bpm>
<rpm>0.00</rpm>
</extensions>
</trkpt>
<trkpt lat="64.054946899" lon="-21.963294983">
<ele>39.239258</ele>
<time>2012-07-28T20:08:41Z</time>
<speed>1.650000</speed>
<extensions>
<speed>1.7</speed>
<temp>0.00</temp>
<bpm>0</bpm>
<rpm>0.00</rpm>
</extensions>
</trkpt>
<trkpt lat="64.055007935" lon="-21.963218689">
<ele>40.594727</ele>
<time>2012-07-28T20:08:46Z</time>
<speed>1.430000</speed>
<extensions>
<speed>1.4</speed>
<temp>0.00</temp>
<bpm>0</bpm>
<rpm>0.00</rpm>
</extensions>
</trkpt>
<trkpt lat="64.055068970" lon="-21.963184357">
<ele>41.898438</ele>
<time>2012-07-28T20:08:51Z</time>
<speed>1.440000</speed>
<extensions>
<speed>1.4</speed>
<temp>0.00</temp>
<bpm>0</bpm>
<rpm>0.00</rpm>
</extensions>
</trkpt>
<trkpt lat="64.055122375" lon="-21.963119507">
<ele>43.242188</ele>
<time>2012-07-28T20:08:56Z</time>
<speed>1.420000</speed>
<extensions>
<speed>1.4</speed>
<temp>0.00</temp>
<bpm>0</bpm>
<rpm>0.00</rpm>
</extensions>
</trkpt>
<trkpt lat="64.055183411" lon="-21.963077545">
<ele>44.637695</ele>
<time>2012-07-28T20:09:01Z</time>
<speed>1.590000</speed>
<extensions>
<speed>1.6</speed>
<temp>0.00</temp>
<bpm>0</bpm>
<rpm>0.00</rpm>
</extensions>
</trkpt>
<trkpt lat="64.055244446" lon="-21.963014603">
<ele>44.934570</ele>
<time>2012-07-28T20:09:06Z</time>
<speed>1.640000</speed>
<extensions>
<speed>1.6</speed>
<temp>0.00</temp>
<bpm>0</bpm>
<rpm>0.00</rpm>
</extensions>
</trkpt>
<trkpt lat="64.055297852" lon="-21.962959290">
<ele>45.561523</ele>
<time>2012-07-28T20:09:11Z</time>
<speed>0.750000</speed>
<extensions>
<speed>0.8</speed>
<temp>0.00</temp>
<bpm>0</bpm>
<rpm>0.00</rpm>
</extensions>
</trkpt>
<trkpt lat="64.055335999" lon="-21.962942123">
<ele>46.701172</ele>
<time>2012-07-28T20:09:16Z</time>
<speed>1.140000</speed>
<extensions>
<speed>1.1</speed>
<temp>0.00</temp>
<bpm>0</bpm>
<rpm>0.00</rpm>
</extensions>
</trkpt>
<trkpt lat="64.055404663" lon="-21.962839127">
<ele>47.044922</ele>
<time>2012-07-28T20:09:21Z</time>
<speed>1.880000</speed>
<extensions>
<speed>1.9</speed>
<temp>0.00</temp>
<bpm>0</bpm>
<rpm>0.00</rpm>
</extensions>
</trkpt>
<trkpt lat="64.055480957" lon="-21.962764740">
<ele>47.281250</ele>
<time>2012-07-28T20:09:26Z</time>
<speed>1.770000</speed>
<extensions>
<speed>1.8</speed>
<temp>0.00</temp>
<bpm>0</bpm>
<rpm>0.00</rpm>
</extensions>
</trkpt>
<trkpt lat="64.055557251" lon="-21.962669373">
<ele>48.753906</ele>
<time>2012-07-28T20:09:31Z</time>
<speed>1.950000</speed>
<extensions>
<speed>1.9</speed>
<temp>0.00</temp>
<bpm>0</bpm>
<rpm>0.00</rpm>
</extensions>
</trkpt>
<trkpt lat="64.055633545" lon="-21.962568283">
<ele>49.358398</ele>
<time>2012-07-28T20:09:36Z</time>
<speed>1.950000</speed>
<extensions>
<speed>1.9</speed>
<temp>0.00</temp>
<bpm>0</bpm>
<rpm>0.00</rpm>
</extensions>
</trkpt>
<trkpt lat="64.055694580" lon="-21.962486267">
<ele>49.343750</ele>
<time>2012-07-28T20:09:41Z</time>
<speed>1.630000</speed>
<extensions>
<speed>1.6</speed>
<temp>0.00</temp>
<bpm>0</bpm>
<rpm>0.00</rpm>
</extensions>
</trkpt>
<trkpt lat="64.055755615" lon="-21.962402344">
<ele>49.189453</ele>
<time>2012-07-28T20:09:46Z</time>
<speed>1.360000</speed>
<extensions>
<speed>1.4</speed>
<temp>0.00</temp>
<bpm>0</bpm>
<rpm>0.00</rpm>
</extensions>
</trkpt>
<trkpt lat="64.055801392" lon="-21.962301254">
<ele>47.456055</ele>
<time>2012-07-28T20:09:51Z</time>
<speed>1.450000</speed>
<extensions>
<speed>1.4</speed>
<temp>0.00</temp>
<bpm>0</bpm>
<rpm>0.00</rpm>
</extensions>
</trkpt>
<trkpt lat="64.055847168" lon="-21.962192535">
<ele>46.807617</ele>
<time>2012-07-28T20:09:56Z</time>
<speed>1.450000</speed>
<extensions>
<speed>1.4</speed>
<temp>0.00</temp>
<bpm>0</bpm>
<rpm>0.00</rpm>
</extensions>
</trkpt>
<trkpt lat="64.055892944" lon="-21.962068558">
<ele>45.857422</ele>
<time>2012-07-28T20:10:01Z</time>
<speed>1.570000</speed>
<extensions>
<speed>1.6</speed>
<temp>0.00</temp>
<bpm>0</bpm>
<rpm>0.00</rpm>
</extensions>
</trkpt>
<trkpt lat="64.055931091" lon="-21.961929321">
<ele>46.089844</ele>
<time>2012-07-28T20:10:06Z</time>
<speed>1.490000</speed>
<extensions>
<speed>1.5</speed>
<temp>0.00</temp>
<bpm>0</bpm>
<rpm>0.00</rpm>
</extensions>
</trkpt>
<trkpt lat="64.055969238" lon="-21.961797714">
<ele>46.218750</ele>
<time>2012-07-28T20:10:11Z</time>
<speed>1.700000</speed>
<extensions>
<speed>1.7</speed>
<temp>0.00</temp>
<bpm>0</bpm>
<rpm>0.00</rpm>
</extensions>
</trkpt>
<trkpt lat="64.056007385" lon="-21.961671829">
<ele>47.062500</ele>
<time>2012-07-28T20:10:16Z</time>
<speed>1.550000</speed>
<extensions>
<speed>1.5</speed>
<temp>0.00</temp>
<bpm>0</bpm>
<rpm>0.00</rpm>
</extensions>
</trkpt>
<trkpt lat="64.056037903" lon="-21.961515427">
<ele>47.650391</ele>
<time>2012-07-28T20:10:21Z</time>
<speed>1.630000</speed>
<extensions>
<speed>1.6</speed>
<temp>0.00</temp>
<bpm>0</bpm>
<rpm>0.00</rpm>
</extensions>
</trkpt>
<trkpt lat="64.056076050" lon="-21.961364746">
<ele>47.508789</ele>
<time>2012-07-28T20:10:26Z</time>
<speed>1.750000</speed>
<extensions>
<speed>1.8</speed>
<temp>0.00</temp>
<bpm>0</bpm>
<rpm>0.00</rpm>
</extensions>
</trkpt>
<trkpt lat="64.056106567" lon="-21.961204529">
<ele>48.057617</ele>
<time>2012-07-28T20:10:31Z</time>
<speed>1.730000</speed>
<extensions>
<speed>1.7</speed>
<temp>0.00</temp>
<bpm>0</bpm>
<rpm>0.00</rpm>
</extensions>
</trkpt>
<trkpt lat="64.056137085" lon="-21.961036682">
<ele>48.460938</ele>
<time>2012-07-28T20:10:36Z</time>
<speed>1.390000</speed>
<extensions>
<speed>1.4</speed>
<temp>0.00</temp>
<bpm>0</bpm>
<rpm>0.00</rpm>
</extensions>
</trkpt>
<trkpt lat="64.056159973" lon="-21.960863113">
<ele>48.476563</ele>
<time>2012-07-28T20:10:41Z</time>
<speed>1.830000</speed>
<extensions>
<speed>1.8</speed>
<temp>0.00</temp>
<bpm>0</bpm>
<rpm>0.00</rpm>
</extensions>
</trkpt>
<trkpt lat="64.056175232" lon="-21.960704803">
<ele>49.107422</ele>
<time>2012-07-28T20:10:46Z</time>
<speed>1.580000</speed>
<extensions>
<speed>1.6</speed>
<temp>0.00</temp>
<bpm>0</bpm>
<rpm>0.00</rpm>
</extensions>
</trkpt>
<trkpt lat="64.056205750" lon="-21.960556030">
<ele>48.877930</ele>
<time>2012-07-28T20:10:51Z</time>
<speed>1.760000</speed>
<extensions>
<speed>1.8</speed>
<temp>0.00</temp>
<bpm>0</bpm>
<rpm>0.00</rpm>
</extensions>
</trkpt>
<trkpt lat="64.056228638" lon="-21.960411072">
<ele>50.034180</ele>
<time>2012-07-28T20:10:56Z</time>
<speed>1.540000</speed>
<extensions>
<speed>1.5</speed>
<temp>0.00</temp>
<bpm>0</bpm>
<rpm>0.00</rpm>
</extensions>
</trkpt>
<trkpt lat="64.056259155" lon="-21.960233688">
<ele>50.952148</ele>
<time>2012-07-28T20:11:01Z</time>
<speed>1.860000</speed>
<extensions>
<speed>1.9</speed>
<temp>0.00</temp>
<bpm>0</bpm>
<rpm>0.00</rpm>
</extensions>
</trkpt>
<trkpt lat="64.056297302" lon="-21.960067749">
<ele>51.393555</ele>
<time>2012-07-28T20:11:06Z</time>
<speed>1.630000</speed>
<extensions>
<speed>1.6</speed>
<temp>0.00</temp>
<bpm>0</bpm>
<rpm>0.00</rpm>
</extensions>
</trkpt>
<trkpt lat="64.056327820" lon="-21.959901810">
<ele>50.953125</ele>
<time>2012-07-28T20:11:11Z</time>
<speed>1.910000</speed>
<extensions>
<speed>1.9</speed>
<temp>0.00</temp>
<bpm>0</bpm>
<rpm>0.00</rpm>
</extensions>
</trkpt>
<trkpt lat="64.056350708" lon="-21.959745407">
<ele>51.493164</ele>
<time>2012-07-28T20:11:16Z</time>
<speed>1.730000</speed>
<extensions>
<speed>1.7</speed>
<temp>0.00</temp>
<bpm>0</bpm>
<rpm>0.00</rpm>
</extensions>
</trkpt>
<trkpt lat="64.056373596" lon="-21.959564209">
<ele>51.891602</ele>
<time>2012-07-28T20:11:21Z</time>
<speed>1.800000</speed>
<extensions>
<speed>1.8</speed>
<temp>0.00</temp>
<bpm>0</bpm>
<rpm>0.00</rpm>
</extensions>
</trkpt>
<trkpt lat="64.056404114" lon="-21.959383011">
<ele>52.235352</ele>
<time>2012-07-28T20:11:26Z</time>
<speed>1.950000</speed>
<extensions>
<speed>1.9</speed>
<temp>0.00</temp>
<bpm>0</bpm>
<rpm>0.00</rpm>
</extensions>
</trkpt>
<trkpt lat="64.056427002" lon="-21.959194183">
<ele>51.644531</ele>
<time>2012-07-28T20:11:31Z</time>
<speed>1.940000</speed>
<extensions>
<speed>1.9</speed>
<temp>0.00</temp>
<bpm>0</bpm>
<rpm>0.00</rpm>
</extensions>
</trkpt>
<trkpt lat="64.056449890" lon="-21.958997726">
<ele>52.343750</ele>
<time>2012-07-28T20:11:36Z</time>
<speed>1.840000</speed>
<extensions>
<speed>1.8</speed>
<temp>0.00</temp>
<bpm>0</bpm>
<rpm>0.00</rpm>
</extensions>
</trkpt>
<trkpt lat="64.056472778" lon="-21.958831787">
<ele>52.629883</ele>
<time>2012-07-28T20:11:41Z</time>
<speed>1.730000</speed>
<extensions>
<speed>1.7</speed>
<temp>0.00</temp>
<bpm>0</bpm>
<rpm>0.00</rpm>
</extensions>
</trkpt>
<trkpt lat="64.056495667" lon="-21.958669662">
<ele>52.774414</ele>
<time>2012-07-28T20:11:46Z</time>
<speed>1.730000</speed>
<extensions>
<speed>1.7</speed>
<temp>0.00</temp>
<bpm>0</bpm>
<rpm>0.00</rpm>
</extensions>
</trkpt>
<trkpt lat="64.056510925" lon="-21.958477020">
<ele>53.518555</ele>
<time>2012-07-28T20:11:51Z</time>
<speed>1.890000</speed>
<extensions>
<speed>1.9</speed>
<temp>0.00</temp>
<bpm>0</bpm>
<rpm>0.00</rpm>
</extensions>
</trkpt>
<trkpt lat="64.056533813" lon="-21.958288193">
<ele>54.182617</ele>
<time>2012-07-28T20:11:56Z</time>
<speed>1.920000</speed>
<extensions>
<speed>1.9</speed>
<temp>0.00</temp>
<bpm>0</bpm>
<rpm>0.00</rpm>
</extensions>
</trkpt>
<trkpt lat="64.056564331" lon="-21.958108902">
<ele>54.488281</ele>
<time>2012-07-28T20:12:01Z</time>
<speed>1.740000</speed>
<extensions>
<speed>1.7</speed>
<temp>0.00</temp>
<bpm>0</bpm>
<rpm>0.00</rpm>
</extensions>
</trkpt>
<trkpt lat="64.056594849" lon="-21.957929611">
<ele>54.891602</ele>
<time>2012-07-28T20:12:06Z</time>
<speed>1.920000</speed>
<extensions>
<speed>1.9</speed>
<temp>0.00</temp>
<bpm>0</bpm>
<rpm>0.00</rpm>
</extensions>
</trkpt>
<trkpt lat="64.056625366" lon="-21.957765579">
<ele>55.411133</ele>
<time>2012-07-28T20:12:11Z</time>
<speed>1.840000</speed>
<extensions>
<speed>1.8</speed>
<temp>0.00</temp>
<bpm>0</bpm>
<rpm>0.00</rpm>
</extensions>
</trkpt>
<trkpt lat="64.056648254" lon="-21.957580566">
<ele>56.051758</ele>
<time>2012-07-28T20:12:16Z</time>
<speed>1.850000</speed>
<extensions>
<speed>1.8</speed>
<temp>0.00</temp>
<bpm>0</bpm>
<rpm>0.00</rpm>
</extensions>
</trkpt>
<trkpt lat="64.056678772" lon="-21.957391739">
<ele>57.002930</ele>
<time>2012-07-28T20:12:21Z</time>
<speed>2.100000</speed>
<extensions>
<speed>2.1</speed>
<temp>0.00</temp>
<bpm>0</bpm>
<rpm>0.00</rpm>
</extensions>
</trkpt>
<trkpt lat="64.056709290" lon="-21.957199097">
<ele>56.732422</ele>
<time>2012-07-28T20:12:26Z</time>
<speed>1.840000</speed>
<extensions>
<speed>1.8</speed>
<temp>0.00</temp>
<bpm>0</bpm>
<rpm>0.00</rpm>
</extensions>
</trkpt>
<trkpt lat="64.056739807" lon="-21.957036972">
<ele>56.336914</ele>
<time>2012-07-28T20:12:31Z</time>
<speed>1.550000</speed>
<extensions>
<speed>1.5</speed>
<temp>0.00</temp>
<bpm>0</bpm>
<rpm>0.00</rpm>
</extensions>
</trkpt>
<trkpt lat="64.056770325" lon="-21.956876755">
<ele>56.664063</ele>
<time>2012-07-28T20:12:36Z</time>
<speed>1.770000</speed>
<extensions>
<speed>1.8</speed>
<temp>0.00</temp>
<bpm>0</bpm>
<rpm>0.00</rpm>
</extensions>
</trkpt>
<trkpt lat="64.056808472" lon="-21.956722260">
<ele>57.450195</ele>
<time>2012-07-28T20:12:41Z</time>
<speed>2.040000</speed>
<extensions>
<speed>2.0</speed>
<temp>0.00</temp>
<bpm>0</bpm>
<rpm>0.00</rpm>
</extensions>
</trkpt>
<trkpt lat="64.056846619" lon="-21.956521988">
<ele>58.023438</ele>
<time>2012-07-28T20:12:46Z</time>
<speed>2.050000</speed>
<extensions>
<speed>2.1</speed>
<temp>0.00</temp>
<bpm>0</bpm>
<rpm>0.00</rpm>
</extensions>
</trkpt>
<trkpt lat="64.056877136" lon="-21.956319809">
<ele>58.015625</ele>
<time>2012-07-28T20:12:51Z</time>
<speed>2.130000</speed>
<extensions>
<speed>2.1</speed>
<temp>0.00</temp>
<bpm>0</bpm>
<rpm>0.00</rpm>
</extensions>
</trkpt>
<trkpt lat="64.056907654" lon="-21.956129074">
<ele>58.760742</ele>
<time>2012-07-28T20:12:56Z</time>
<speed>1.990000</speed>
<extensions>
<speed>2.0</speed>
<temp>0.00</temp>
<bpm>0</bpm>
<rpm>0.00</rpm>
</extensions>
</trkpt>
<trkpt lat="64.056938171" lon="-21.955924988">
<ele>58.951172</ele>
<time>2012-07-28T20:13:01Z</time>
<speed>2.040000</speed>
<extensions>
<speed>2.0</speed>
<temp>0.00</temp>
<bpm>0</bpm>
<rpm>0.00</rpm>
</extensions>
</trkpt>
<trkpt lat="64.056968689" lon="-21.955728531">
<ele>58.896484</ele>
<time>2012-07-28T20:13:06Z</time>
<speed>2.150000</speed>
<extensions>
<speed>2.1</speed>
<temp>0.00</temp>
<bpm>0</bpm>
<rpm>0.00</rpm>
</extensions>
</trkpt>
<trkpt lat="64.056999207" lon="-21.955513000">
<ele>58.532227</ele>
<time>2012-07-28T20:13:11Z</time>
<speed>2.200000</speed>
<extensions>
<speed>2.2</speed>
<temp>0.00</temp>
<bpm>0</bpm>
<rpm>0.00</rpm>
</extensions>
</trkpt>
<trkpt lat="64.057037354" lon="-21.955299377">
<ele>59.082031</ele>
<time>2012-07-28T20:13:16Z</time>
<speed>2.150000</speed>
<extensions>
<speed>2.1</speed>
<temp>0.00</temp>
<bpm>0</bpm>
<rpm>0.00</rpm>
</extensions>
</trkpt>
<trkpt lat="64.057052612" lon="-21.955083847">
<ele>60.144531</ele>
<time>2012-07-28T20:13:21Z</time>
<speed>2.080000</speed>
<extensions>
<speed>2.1</speed>
<temp>0.00</temp>
<bpm>0</bpm>
<rpm>0.00</rpm>
</extensions>
</trkpt>
<trkpt lat="64.057075500" lon="-21.954870224">
<ele>60.998047</ele>
<time>2012-07-28T20:13:26Z</time>
<speed>2.270000</speed>
<extensions>
<speed>2.3</speed>
<temp>0.00</temp>
<bpm>0</bpm>
<rpm>0.00</rpm>
</extensions>
</trkpt>
<trkpt lat="64.057090759" lon="-21.954633713">
<ele>62.209961</ele>
<time>2012-07-28T20:13:31Z</time>
<speed>2.160000</speed>
<extensions>
<speed>2.2</speed>
<temp>0.00</temp>
<bpm>0</bpm>
<rpm>0.00</rpm>
</extensions>
</trkpt>
<trkpt lat="64.057106018" lon="-21.954421997">
<ele>62.541016</ele>
<time>2012-07-28T20:13:36Z</time>
<speed>1.980000</speed>
<extensions>
<speed>2.0</speed>
<temp>0.00</temp>
<bpm>0</bpm>
<rpm>0.00</rpm>
</extensions>
</trkpt>
<trkpt lat="64.057106018" lon="-21.954187393">
<ele>63.389648</ele>
<time>2012-07-28T20:13:41Z</time>
<speed>2.060000</speed>
<extensions>
<speed>2.1</speed>
<temp>0.00</temp>
<bpm>0</bpm>
<rpm>0.00</rpm>
</extensions>
</trkpt>
<trkpt lat="64.057098389" lon="-21.953956604">
<ele>64.119141</ele>
<time>2012-07-28T20:13:46Z</time>
<speed>2.270000</speed>
<extensions>
<speed>2.3</speed>
<temp>0.00</temp>
<bpm>0</bpm>
<rpm>0.00</rpm>
</extensions>
</trkpt>
<trkpt lat="64.057067871" lon="-21.953744888">
<ele>64.083984</ele>
<time>2012-07-28T20:13:51Z</time>
<speed>2.060000</speed>
<extensions>
<speed>2.1</speed>
<temp>0.00</temp>
<bpm>0</bpm>
<rpm>0.00</rpm>
</extensions>
</trkpt>
<trkpt lat="64.057060242" lon="-21.953508377">
<ele>63.571289</ele>
<time>2012-07-28T20:13:56Z</time>
<speed>2.150000</speed>
<extensions>
<speed>2.1</speed>
<temp>0.00</temp>
<bpm>0</bpm>
<rpm>0.00</rpm>
</extensions>
</trkpt>
<trkpt lat="64.057044983" lon="-21.953279495">
<ele>65.494141</ele>
<time>2012-07-28T20:14:01Z</time>
<speed>2.240000</speed>
<extensions>
<speed>2.2</speed>
<temp>0.00</temp>
<bpm>0</bpm>
<rpm>0.00</rpm>
</extensions>
</trkpt>
<trkpt lat="64.057029724" lon="-21.953029633">
<ele>65.878906</ele>
<time>2012-07-28T20:14:06Z</time>
<speed>2.730000</speed>
<extensions>
<speed>2.7</speed>
<temp>0.00</temp>
<bpm>0</bpm>
<rpm>0.00</rpm>
</extensions>
</trkpt>
<trkpt lat="64.057044983" lon="-21.952753067">
<ele>65.935547</ele>
<time>2012-07-28T20:14:11Z</time>
<speed>2.750000</speed>
<extensions>
<speed>2.7</speed>
<temp>0.00</temp>
<bpm>0</bpm>
<rpm>0.00</rpm>
</extensions>
</trkpt>
<trkpt lat="64.057083130" lon="-21.952510834">
<ele>65.718750</ele>
<time>2012-07-28T20:14:16Z</time>
<speed>2.490000</speed>
<extensions>
<speed>2.5</speed>
<temp>0.00</temp>
<bpm>0</bpm>
<rpm>0.00</rpm>
</extensions>
</trkpt>
<trkpt lat="64.057113647" lon="-21.952297211">
<ele>66.009766</ele>
<time>2012-07-28T20:14:21Z</time>
<speed>2.120000</speed>
<extensions>
<speed>2.1</speed>
<temp>0.00</temp>
<bpm>0</bpm>
<rpm>0.00</rpm>
</extensions>
</trkpt>
<trkpt lat="64.057136536" lon="-21.952157974">
<ele>66.248047</ele>
<time>2012-07-28T20:14:26Z</time>
<speed>1.300000</speed>
<extensions>
<speed>1.3</speed>
<temp>0.00</temp>
<bpm>0</bpm>
<rpm>0.00</rpm>
</extensions>
</trkpt>
<trkpt lat="64.057144165" lon="-21.952117920">
<ele>65.615234</ele>
<time>2012-07-28T20:14:31Z</time>
<speed>0.030000</speed>
<extensions>
<speed>0.0</speed>
<temp>0.00</temp>
<bpm>0</bpm>
<rpm>0.00</rpm>
</extensions>
</trkpt>
<trkpt lat="64.057144165" lon="-21.952117920">
<ele>65.617188</ele>
<time>2012-07-28T20:14:36Z</time>
<speed>0.020000</speed>
<extensions>
<speed>0.0</speed>
<temp>0.00</temp>
<bpm>0</bpm>
<rpm>0.00</rpm>
</extensions>
</trkpt>
<trkpt lat="64.057144165" lon="-21.952119827">
<ele>65.585938</ele>
<time>2012-07-28T20:14:41Z</time>
<speed>0.120000</speed>
<extensions>
<speed>0.1</speed>
<temp>0.00</temp>
<bpm>0</bpm>
<rpm>0.00</rpm>
</extensions>
</trkpt>
<trkpt lat="64.057151794" lon="-21.952058792">
<ele>65.332031</ele>
<time>2012-07-28T20:14:46Z</time>
<speed>1.820000</speed>
<extensions>
<speed>1.8</speed>
<temp>0.00</temp>
<bpm>0</bpm>
<rpm>0.00</rpm>
</extensions>
</trkpt>
<trkpt lat="64.057189941" lon="-21.951889038">
<ele>65.736328</ele>
<time>2012-07-28T20:14:51Z</time>
<speed>2.380000</speed>
<extensions>
<speed>2.4</speed>
<temp>0.00</temp>
<bpm>0</bpm>
<rpm>0.00</rpm>
</extensions>
</trkpt>
<trkpt lat="64.057243347" lon="-21.951663971">
<ele>66.302734</ele>
<time>2012-07-28T20:14:56Z</time>
<speed>2.700000</speed>
<extensions>
<speed>2.7</speed>
<temp>0.00</temp>
<bpm>0</bpm>
<rpm>0.00</rpm>
</extensions>
</trkpt>
<trkpt lat="64.057319641" lon="-21.951414108">
<ele>66.894531</ele>
<time>2012-07-28T20:15:01Z</time>
<speed>3.140000</speed>
<extensions>
<speed>3.1</speed>
<temp>0.00</temp>
<bpm>0</bpm>
<rpm>0.00</rpm>
</extensions>
</trkpt>
<trkpt lat="64.057380676" lon="-21.951211929">
<ele>67.662109</ele>
<time>2012-07-28T20:15:06Z</time>
<speed>2.540000</speed>
<extensions>
<speed>2.5</speed>
<temp>0.00</temp>
<bpm>0</bpm>
<rpm>0.00</rpm>
</extensions>
</trkpt>
<trkpt lat="64.057449341" lon="-21.950992584">
<ele>67.873047</ele>
<time>2012-07-28T20:15:11Z</time>
<speed>2.550000</speed>
<extensions>
<speed>2.6</speed>
<temp>0.00</temp>
<bpm>0</bpm>
<rpm>0.00</rpm>
</extensions>
</trkpt>
<trkpt lat="64.057518005" lon="-21.950790405">
<ele>68.335938</ele>
<time>2012-07-28T20:15:16Z</time>
<speed>2.490000</speed>
<extensions>
<speed>2.5</speed>
<temp>0.00</temp>
<bpm>0</bpm>
<rpm>0.00</rpm>
</extensions>
</trkpt>
<trkpt lat="64.057579041" lon="-21.950563431">
<ele>68.677734</ele>
<time>2012-07-28T20:15:21Z</time>
<speed>2.670000</speed>
<extensions>
<speed>2.7</speed>
<temp>0.00</temp>
<bpm>0</bpm>
<rpm>0.00</rpm>
</extensions>
</trkpt>
<trkpt lat="64.057640076" lon="-21.950351715">
<ele>68.087891</ele>
<time>2012-07-28T20:15:26Z</time>
<speed>2.500000</speed>
<extensions>
<speed>2.5</speed>
<temp>0.00</temp>
<bpm>0</bpm>
<rpm>0.00</rpm>
</extensions>
</trkpt>
<trkpt lat="64.057693481" lon="-21.950130463">
<ele>66.484375</ele>
<time>2012-07-28T20:15:31Z</time>
<speed>2.320000</speed>
<extensions>
<speed>2.3</speed>
<temp>0.00</temp>
<bpm>0</bpm>
<rpm>0.00</rpm>
</extensions>
</trkpt>
<trkpt lat="64.057746887" lon="-21.949951172">
<ele>67.013672</ele>
<time>2012-07-28T20:15:36Z</time>
<speed>1.870000</speed>
<extensions>
<speed>1.9</speed>
<temp>0.00</temp>
<bpm>0</bpm>
<rpm>0.00</rpm>
</extensions>
</trkpt>
<trkpt lat="64.057785034" lon="-21.949775696">
<ele>68.240234</ele>
<time>2012-07-28T20:15:41Z</time>
<speed>2.060000</speed>
<extensions>
<speed>2.1</speed>
<temp>0.00</temp>
<bpm>0</bpm>
<rpm>0.00</rpm>
</extensions>
</trkpt>
<trkpt lat="64.057815552" lon="-21.949577332">
<ele>68.802734</ele>
<time>2012-07-28T20:15:46Z</time>
<speed>2.060000</speed>
<extensions>
<speed>2.1</speed>
<temp>0.00</temp>
<bpm>0</bpm>
<rpm>0.00</rpm>
</extensions>
</trkpt>
<trkpt lat="64.057853699" lon="-21.949373245">
<ele>70.011719</ele>
<time>2012-07-28T20:15:51Z</time>
<speed>2.360000</speed>
<extensions>
<speed>2.4</speed>
<temp>0.00</temp>
<bpm>0</bpm>
<rpm>0.00</rpm>
</extensions>
</trkpt>
<trkpt lat="64.057899475" lon="-21.949148178">
<ele>72.482422</ele>
<time>2012-07-28T20:15:56Z</time>
<speed>2.270000</speed>
<extensions>
<speed>2.3</speed>
<temp>0.00</temp>
<bpm>0</bpm>
<rpm>0.00</rpm>
</extensions>
</trkpt>
<trkpt lat="64.057922363" lon="-21.948932648">
<ele>72.996094</ele>
<time>2012-07-28T20:16:01Z</time>
<speed>2.260000</speed>
<extensions>
<speed>2.3</speed>
<temp>0.00</temp>
<bpm>0</bpm>
<rpm>0.00</rpm>
</extensions>
</trkpt>
<trkpt lat="64.057945251" lon="-21.948709488">
<ele>74.121094</ele>
<time>2012-07-28T20:16:06Z</time>
<speed>2.030000</speed>
<extensions>
<speed>2.0</speed>
<temp>0.00</temp>
<bpm>0</bpm>
<rpm>0.00</rpm>
</extensions>
</trkpt>
<trkpt lat="64.057945251" lon="-21.948482513">
<ele>75.400391</ele>
<time>2012-07-28T20:16:11Z</time>
<speed>2.160000</speed>
<extensions>
<speed>2.2</speed>
<temp>0.00</temp>
<bpm>0</bpm>
<rpm>0.00</rpm>
</extensions>
</trkpt>
<trkpt lat="64.057914734" lon="-21.948251724">
<ele>76.761719</ele>
<time>2012-07-28T20:16:16Z</time>
<speed>2.160000</speed>
<extensions>
<speed>2.2</speed>
<temp>0.00</temp>
<bpm>0</bpm>
<rpm>0.00</rpm>
</extensions>
</trkpt>
<trkpt lat="64.057907104" lon="-21.948030472">
<ele>76.466797</ele>
<time>2012-07-28T20:16:21Z</time>
<speed>2.370000</speed>
<extensions>
<speed>2.4</speed>
<temp>0.00</temp>
<bpm>0</bpm>
<rpm>0.00</rpm>
</extensions>
</trkpt>
<trkpt lat="64.057983398" lon="-21.947875977">
<ele>77.701172</ele>
<time>2012-07-28T20:16:26Z</time>
<speed>2.820000</speed>
<extensions>
<speed>2.8</speed>
<temp>0.00</temp>
<bpm>0</bpm>
<rpm>0.00</rpm>
</extensions>
</trkpt>
<trkpt lat="64.058074951" lon="-21.947761536">
<ele>77.867188</ele>
<time>2012-07-28T20:16:31Z</time>
<speed>2.360000</speed>
<extensions>
<speed>2.4</speed>
<temp>0.00</temp>
<bpm>0</bpm>
<rpm>0.00</rpm>
</extensions>
</trkpt>
<trkpt lat="64.058197021" lon="-21.947669983">
<ele>78.173828</ele>
<time>2012-07-28T20:16:36Z</time>
<speed>2.870000</speed>
<extensions>
<speed>2.9</speed>
<temp>0.00</temp>
<bpm>0</bpm>
<rpm>0.00</rpm>
</extensions>
</trkpt>
<trkpt lat="64.058303833" lon="-21.947515488">
<ele>78.349609</ele>
<time>2012-07-28T20:16:41Z</time>
<speed>3.280000</speed>
<extensions>
<speed>3.3</speed>
<temp>0.00</temp>
<bpm>0</bpm>
<rpm>0.00</rpm>
</extensions>
</trkpt>
<trkpt lat="64.058395386" lon="-21.947231293">
<ele>77.847656</ele>
<time>2012-07-28T20:16:46Z</time>
<speed>3.630000</speed>
<extensions>
<speed>3.6</speed>
<temp>0.00</temp>
<bpm>0</bpm>
<rpm>0.00</rpm>
</extensions>
</trkpt>
<trkpt lat="64.058479309" lon="-21.946849823">
<ele>76.267578</ele>
<time>2012-07-28T20:16:51Z</time>
<speed>4.210000</speed>
<extensions>
<speed>4.2</speed>
<temp>0.00</temp>
<bpm>0</bpm>
<rpm>0.00</rpm>
</extensions>
</trkpt>
<trkpt lat="64.058547974" lon="-21.946365356">
<ele>74.853516</ele>
<time>2012-07-28T20:16:56Z</time>
<speed>5.320000</speed>
<extensions>
<speed>5.3</speed>
<temp>0.00</temp>
<bpm>0</bpm>
<rpm>0.00</rpm>
</extensions>
</trkpt>
<trkpt lat="64.058609009" lon="-21.945743561">
<ele>74.269531</ele>
<time>2012-07-28T20:17:01Z</time>
<speed>6.850000</speed>
<extensions>
<speed>6.8</speed>
<temp>0.00</temp>
<bpm>0</bpm>
<rpm>0.00</rpm>
</extensions>
</trkpt>
<trkpt lat="64.058692932" lon="-21.944972992">
<ele>73.570313</ele>
<time>2012-07-28T20:17:06Z</time>
<speed>8.210000</speed>
<extensions>
<speed>8.2</speed>
<temp>0.00</temp>
<bpm>0</bpm>
<rpm>0.00</rpm>
</extensions>
</trkpt>
<trkpt lat="64.058784485" lon="-21.944067001">
<ele>72.253906</ele>
<time>2012-07-28T20:17:11Z</time>
<speed>9.280000</speed>
<extensions>
<speed>9.3</speed>
<temp>0.00</temp>
<bpm>0</bpm>
<rpm>0.00</rpm>
</extensions>
</trkpt>
<trkpt lat="64.058876038" lon="-21.943113327">
<ele>69.458984</ele>
<time>2012-07-28T20:17:16Z</time>
<speed>9.670000</speed>
<extensions>
<speed>9.7</speed>
<temp>0.00</temp>
<bpm>0</bpm>
<rpm>0.00</rpm>
</extensions>
</trkpt>
<trkpt lat="64.058967590" lon="-21.942077637">
<ele>66.425781</ele>
<time>2012-07-28T20:17:21Z</time>
<speed>10.730000</speed>
<extensions>
<speed>10.7</speed>
<temp>0.00</temp>
<bpm>0</bpm>
<rpm>0.00</rpm>
</extensions>
</trkpt>
<trkpt lat="64.058967590" lon="-21.940937042">
<ele>63.221680</ele>
<time>2012-07-28T20:17:26Z</time>
<speed>11.320000</speed>
<extensions>
<speed>11.3</speed>
<temp>0.00</temp>
<bpm>0</bpm>
<rpm>0.00</rpm>
</extensions>
</trkpt>
<trkpt lat="64.058914185" lon="-21.939802170">
<ele>60.398438</ele>
<time>2012-07-28T20:17:31Z</time>
<speed>10.569999</speed>
<extensions>
<speed>10.6</speed>
<temp>0.00</temp>
<bpm>0</bpm>
<rpm>0.00</rpm>
</extensions>
</trkpt>
<trkpt lat="64.059082031" lon="-21.938974380">
<ele>59.179688</ele>
<time>2012-07-28T20:17:36Z</time>
<speed>7.920000</speed>
<extensions>
<speed>7.9</speed>
<temp>0.00</temp>
<bpm>0</bpm>
<rpm>0.00</rpm>
</extensions>
</trkpt>
<trkpt lat="64.059318542" lon="-21.938499451">
<ele>58.225586</ele>
<time>2012-07-28T20:17:41Z</time>
<speed>6.700000</speed>
<extensions>
<speed>6.7</speed>
<temp>0.00</temp>
<bpm>0</bpm>
<rpm>0.00</rpm>
</extensions>
</trkpt>
<trkpt lat="64.059562683" lon="-21.938690186">
<ele>58.736328</ele>
<time>2012-07-28T20:17:46Z</time>
<speed>4.680000</speed>
<extensions>
<speed>4.7</speed>
<temp>0.00</temp>
<bpm>0</bpm>
<rpm>0.00</rpm>
</extensions>
</trkpt>
<trkpt lat="64.059600830" lon="-21.938760757">
<ele>57.721680</ele>
<time>2012-07-28T20:17:51Z</time>
<speed>0.010000</speed>
<extensions>
<speed>0.0</speed>
<temp>0.00</temp>
<bpm>0</bpm>
<rpm>0.00</rpm>
</extensions>
</trkpt>
<trkpt lat="64.059600830" lon="-21.938762665">
<ele>57.683594</ele>
<time>2012-07-28T20:17:56Z</time>
<speed>0.060000</speed>
<extensions>
<speed>0.1</speed>
<temp>0.00</temp>
<bpm>0</bpm>
<rpm>0.00</rpm>
</extensions>
</trkpt>
<trkpt lat="64.059608459" lon="-21.938770294">
<ele>57.631836</ele>
<time>2012-07-28T20:18:01Z</time>
<speed>1.290000</speed>
<extensions>
<speed>1.3</speed>
<temp>0.00</temp>
<bpm>0</bpm>
<rpm>0.00</rpm>
</extensions>
</trkpt>
<trkpt lat="64.059661865" lon="-21.938884735">
<ele>57.266602</ele>
<time>2012-07-28T20:18:06Z</time>
<speed>1.950000</speed>
<extensions>
<speed>1.9</speed>
<temp>0.00</temp>
<bpm>0</bpm>
<rpm>0.00</rpm>
</extensions>
</trkpt>
<trkpt lat="64.059654236" lon="-21.939018250">
<ele>58.509766</ele>
<time>2012-07-28T20:18:11Z</time>
<speed>2.340000</speed>
<extensions>
<speed>2.3</speed>
<temp>0.00</temp>
<bpm>0</bpm>
<rpm>0.00</rpm>
</extensions>
</trkpt>
<trkpt lat="64.059509277" lon="-21.939096451">
<ele>59.360352</ele>
<time>2012-07-28T20:18:16Z</time>
<speed>3.560000</speed>
<extensions>
<speed>3.6</speed>
<temp>0.00</temp>
<bpm>0</bpm>
<rpm>0.00</rpm>
</extensions>
</trkpt>
<trkpt lat="64.059410095" lon="-21.939397812">
<ele>59.501953</ele>
<time>2012-07-28T20:18:21Z</time>
<speed>3.780000</speed>
<extensions>
<speed>3.8</speed>
<temp>0.00</temp>
<bpm>0</bpm>
<rpm>0.00</rpm>
</extensions>
</trkpt>
<trkpt lat="64.059417725" lon="-21.939847946">
<ele>58.104492</ele>
<time>2012-07-28T20:18:26Z</time>
<speed>4.560000</speed>
<extensions>
<speed>4.6</speed>
<temp>0.00</temp>
<bpm>0</bpm>
<rpm>0.00</rpm>
</extensions>
</trkpt>
<trkpt lat="64.059471130" lon="-21.940357208">
<ele>56.700195</ele>
<time>2012-07-28T20:18:31Z</time>
<speed>5.870000</speed>
<extensions>
<speed>5.9</speed>
<temp>0.00</temp>
<bpm>0</bpm>
<rpm>0.00</rpm>
</extensions>
</trkpt>
<trkpt lat="64.059722900" lon="-21.940681458">
<ele>55.363281</ele>
<time>2012-07-28T20:18:36Z</time>
<speed>6.750000</speed>
<extensions>
<speed>6.7</speed>
<temp>0.00</temp>
<bpm>0</bpm>
<rpm>0.00</rpm>
</extensions>
</trkpt>
<trkpt lat="64.060012817" lon="-21.940372467">
<ele>54.154297</ele>
<time>2012-07-28T20:18:41Z</time>
<speed>7.890000</speed>
<extensions>
<speed>7.9</speed>
<temp>0.00</temp>
<bpm>0</bpm>
<rpm>0.00</rpm>
</extensions>
</trkpt>
<trkpt lat="64.060317993" lon="-21.939884186">
<ele>52.769531</ele>
<time>2012-07-28T20:18:46Z</time>
<speed>8.610000</speed>
<extensions>
<speed>8.6</speed>
<temp>0.00</temp>
<bpm>0</bpm>
<rpm>0.00</rpm>
</extensions>
</trkpt>
<trkpt lat="64.060653687" lon="-21.939439774">
<ele>50.290039</ele>
<time>2012-07-28T20:18:51Z</time>
<speed>8.880000</speed>
<extensions>
<speed>8.9</speed>
<temp>0.00</temp>
<bpm>0</bpm>
<rpm>0.00</rpm>
</extensions>
</trkpt>
<trkpt lat="64.061019897" lon="-21.939029694">
<ele>48.886719</ele>
<time>2012-07-28T20:18:56Z</time>
<speed>9.290000</speed>
<extensions>
<speed>9.3</speed>
<temp>0.00</temp>
<bpm>0</bpm>
<rpm>0.00</rpm>
</extensions>
</trkpt>
<trkpt lat="64.061431885" lon="-21.938764572">
<ele>47.555664</ele>
<time>2012-07-28T20:19:01Z</time>
<speed>8.740000</speed>
<extensions>
<speed>8.7</speed>
<temp>0.00</temp>
<bpm>0</bpm>
<rpm>0.00</rpm>
</extensions>
</trkpt>
<trkpt lat="64.061828613" lon="-21.938663483">
<ele>45.344727</ele>
<time>2012-07-28T20:19:06Z</time>
<speed>9.170000</speed>
<extensions>
<speed>9.2</speed>
<temp>0.00</temp>
<bpm>0</bpm>
<rpm>0.00</rpm>
</extensions>
</trkpt>
<trkpt lat="64.062240601" lon="-21.938545227">
<ele>43.579102</ele>
<time>2012-07-28T20:19:11Z</time>
<speed>9.540000</speed>
<extensions>
<speed>9.5</speed>
<temp>0.00</temp>
<bpm>0</bpm>
<rpm>0.00</rpm>
</extensions>
</trkpt>
<trkpt lat="64.062675476" lon="-21.938400269">
<ele>41.321289</ele>
<time>2012-07-28T20:19:16Z</time>
<speed>9.970000</speed>
<extensions>
<speed>10.0</speed>
<temp>0.00</temp>
<bpm>0</bpm>
<rpm>0.00</rpm>
</extensions>
</trkpt>
<trkpt lat="64.063140869" lon="-21.938245773">
<ele>39.720703</ele>
<time>2012-07-28T20:19:21Z</time>
<speed>10.740000</speed>
<extensions>
<speed>10.7</speed>
<temp>0.00</temp>
<bpm>0</bpm>
<rpm>0.00</rpm>
</extensions>
</trkpt>
<trkpt lat="64.063629150" lon="-21.938076019">
<ele>37.492188</ele>
<time>2012-07-28T20:19:26Z</time>
<speed>10.940000</speed>
<extensions>
<speed>10.9</speed>
<temp>0.00</temp>
<bpm>0</bpm>
<rpm>0.00</rpm>
</extensions>
</trkpt>
<trkpt lat="64.064094543" lon="-21.937919617">
<ele>35.778320</ele>
<time>2012-07-28T20:19:31Z</time>
<speed>9.910000</speed>
<extensions>
<speed>9.9</speed>
<temp>0.00</temp>
<bpm>0</bpm>
<rpm>0.00</rpm>
</extensions>
</trkpt>
<trkpt lat="64.064521790" lon="-21.937807083">
<ele>33.650391</ele>
<time>2012-07-28T20:19:36Z</time>
<speed>9.620000</speed>
<extensions>
<speed>9.6</speed>
<temp>0.00</temp>
<bpm>0</bpm>
<rpm>0.00</rpm>
</extensions>
</trkpt>
<trkpt lat="64.064949036" lon="-21.937683105">
<ele>31.744141</ele>
<time>2012-07-28T20:19:41Z</time>
<speed>9.699999</speed>
<extensions>
<speed>9.7</speed>
<temp>0.00</temp>
<bpm>0</bpm>
<rpm>0.00</rpm>
</extensions>
</trkpt>
<trkpt lat="64.065361023" lon="-21.937583923">
<ele>30.373047</ele>
<time>2012-07-28T20:19:46Z</time>
<speed>8.810000</speed>
<extensions>
<speed>8.8</speed>
<temp>0.00</temp>
<bpm>0</bpm>
<rpm>0.00</rpm>
</extensions>
</trkpt>
<trkpt lat="64.065727234" lon="-21.937479019">
<ele>29.806641</ele>
<time>2012-07-28T20:19:51Z</time>
<speed>7.470000</speed>
<extensions>
<speed>7.5</speed>
<temp>0.00</temp>
<bpm>0</bpm>
<rpm>0.00</rpm>
</extensions>
</trkpt>
<trkpt lat="64.066047668" lon="-21.937423706">
<ele>29.689453</ele>
<time>2012-07-28T20:19:56Z</time>
<speed>7.050000</speed>
<extensions>
<speed>7.0</speed>
<temp>0.00</temp>
<bpm>0</bpm>
<rpm>0.00</rpm>
</extensions>
</trkpt>
<trkpt lat="64.066352844" lon="-21.937429428">
<ele>29.061035</ele>
<time>2012-07-28T20:20:01Z</time>
<speed>6.400000</speed>
<extensions>
<speed>6.4</speed>
<temp>0.00</temp>
<bpm>0</bpm>
<rpm>0.00</rpm>
</extensions>
</trkpt>
<trkpt lat="64.066604614" lon="-21.937469482">
<ele>28.215820</ele>
<time>2012-07-28T20:20:06Z</time>
<speed>5.550000</speed>
<extensions>
<speed>5.5</speed>
<temp>0.00</temp>
<bpm>0</bpm>
<rpm>0.00</rpm>
</extensions>
</trkpt>
<trkpt lat="64.066825867" lon="-21.937459946">
<ele>28.013672</ele>
<time>2012-07-28T20:20:11Z</time>
<speed>4.270000</speed>
<extensions>
<speed>4.3</speed>
<temp>0.00</temp>
<bpm>0</bpm>
<rpm>0.00</rpm>
</extensions>
</trkpt>
<trkpt lat="64.067008972" lon="-21.937284470">
<ele>27.635742</ele>
<time>2012-07-28T20:20:16Z</time>
<speed>4.990000</speed>
<extensions>
<speed>5.0</speed>
<temp>0.00</temp>
<bpm>0</bpm>
<rpm>0.00</rpm>
</extensions>
</trkpt>
<trkpt lat="64.067222595" lon="-21.937215805">
<ele>27.619629</ele>
<time>2012-07-28T20:20:21Z</time>
<speed>5.270000</speed>
<extensions>
<speed>5.3</speed>
<temp>0.00</temp>
<bpm>0</bpm>
<rpm>0.00</rpm>
</extensions>
</trkpt>
<trkpt lat="64.067428589" lon="-21.937517166">
<ele>27.893555</ele>
<time>2012-07-28T20:20:26Z</time>
<speed>5.350000</speed>
<extensions>
<speed>5.4</speed>
<temp>0.00</temp>
<bpm>0</bpm>
<rpm>0.00</rpm>
</extensions>
</trkpt>
<trkpt lat="64.067649841" lon="-21.937692642">
<ele>27.447266</ele>
<time>2012-07-28T20:20:31Z</time>
<speed>5.170000</speed>
<extensions>
<speed>5.2</speed>
<temp>0.00</temp>
<bpm>0</bpm>
<rpm>0.00</rpm>
</extensions>
</trkpt>
<trkpt lat="64.067871094" lon="-21.937746048">
<ele>27.833008</ele>
<time>2012-07-28T20:20:36Z</time>
<speed>4.680000</speed>
<extensions>
<speed>4.7</speed>
<temp>0.00</temp>
<bpm>0</bpm>
<rpm>0.00</rpm>
</extensions>
</trkpt>
<trkpt lat="64.068084717" lon="-21.937818527">
<ele>28.303711</ele>
<time>2012-07-28T20:20:41Z</time>
<speed>4.910000</speed>
<extensions>
<speed>4.9</speed>
<temp>0.00</temp>
<bpm>0</bpm>
<rpm>0.00</rpm>
</extensions>
</trkpt>
<trkpt lat="64.068298340" lon="-21.937871933">
<ele>28.547852</ele>
<time>2012-07-28T20:20:46Z</time>
<speed>4.630000</speed>
<extensions>
<speed>4.6</speed>
<temp>0.00</temp>
<bpm>0</bpm>
<rpm>0.00</rpm>
</extensions>
</trkpt>
<trkpt lat="64.068504333" lon="-21.937940598">
<ele>29.452148</ele>
<time>2012-07-28T20:20:51Z</time>
<speed>4.490000</speed>
<extensions>
<speed>4.5</speed>
<temp>0.00</temp>
<bpm>0</bpm>
<rpm>0.00</rpm>
</extensions>
</trkpt>
<trkpt lat="64.068710327" lon="-21.937995911">
<ele>29.578125</ele>
<time>2012-07-28T20:20:56Z</time>
<speed>4.860000</speed>
<extensions>
<speed>4.9</speed>
<temp>0.00</temp>
<bpm>0</bpm>
<rpm>0.00</rpm>
</extensions>
</trkpt>
<trkpt lat="64.068923950" lon="-21.938062668">
<ele>29.551270</ele>
<time>2012-07-28T20:21:01Z</time>
<speed>4.310000</speed>
<extensions>
<speed>4.3</speed>
<temp>0.00</temp>
<bpm>0</bpm>
<rpm>0.00</rpm>
</extensions>
</trkpt>
<trkpt lat="64.069122314" lon="-21.938121796">
<ele>29.414551</ele>
<time>2012-07-28T20:21:06Z</time>
<speed>4.620000</speed>
<extensions>
<speed>4.6</speed>
<temp>0.00</temp>
<bpm>0</bpm>
<rpm>0.00</rpm>
</extensions>
</trkpt>
<trkpt lat="64.069343567" lon="-21.938182831">
<ele>29.123535</ele>
<time>2012-07-28T20:21:11Z</time>
<speed>4.670000</speed>
<extensions>
<speed>4.7</speed>
<temp>0.00</temp>
<bpm>0</bpm>
<rpm>0.00</rpm>
</extensions>
</trkpt>
<trkpt lat="64.069564819" lon="-21.938240051">
<ele>29.309570</ele>
<time>2012-07-28T20:21:16Z</time>
<speed>4.910000</speed>
<extensions>
<speed>4.9</speed>
<temp>0.00</temp>
<bpm>0</bpm>
<rpm>0.00</rpm>
</extensions>
</trkpt>
<trkpt lat="64.069778442" lon="-21.938318253">
<ele>29.698730</ele>
<time>2012-07-28T20:21:21Z</time>
<speed>4.830000</speed>
<extensions>
<speed>4.8</speed>
<temp>0.00</temp>
<bpm>0</bpm>
<rpm>0.00</rpm>
</extensions>
</trkpt>
<trkpt lat="64.069992065" lon="-21.938385010">
<ele>29.663086</ele>
<time>2012-07-28T20:21:26Z</time>
<speed>4.590000</speed>
<extensions>
<speed>4.6</speed>
<temp>0.00</temp>
<bpm>0</bpm>
<rpm>0.00</rpm>
</extensions>
</trkpt>
<trkpt lat="64.070205688" lon="-21.938451767">
<ele>29.794922</ele>
<time>2012-07-28T20:21:31Z</time>
<speed>4.630000</speed>
<extensions>
<speed>4.6</speed>
<temp>0.00</temp>
<bpm>0</bpm>
<rpm>0.00</rpm>
</extensions>
</trkpt>
<trkpt lat="64.070419312" lon="-21.938518524">
<ele>30.012695</ele>
<time>2012-07-28T20:21:36Z</time>
<speed>4.560000</speed>
<extensions>
<speed>4.6</speed>
<temp>0.00</temp>
<bpm>0</bpm>
<rpm>0.00</rpm>
</extensions>
</trkpt>
<trkpt lat="64.070610046" lon="-21.938581467">
<ele>29.757813</ele>
<time>2012-07-28T20:21:41Z</time>
<speed>4.500000</speed>
<extensions>
<speed>4.5</speed>
<temp>0.00</temp>
<bpm>0</bpm>
<rpm>0.00</rpm>
</extensions>
</trkpt>
<trkpt lat="64.070808411" lon="-21.938640594">
<ele>28.976563</ele>
<time>2012-07-28T20:21:46Z</time>
<speed>4.490000</speed>
<extensions>
<speed>4.5</speed>
<temp>0.00</temp>
<bpm>0</bpm>
<rpm>0.00</rpm>
</extensions>
</trkpt>
<trkpt lat="64.070999146" lon="-21.938697815">
<ele>28.693848</ele>
<time>2012-07-28T20:21:51Z</time>
<speed>4.300000</speed>
<extensions>
<speed>4.3</speed>
<temp>0.00</temp>
<bpm>0</bpm>
<rpm>0.00</rpm>
</extensions>
</trkpt>
<trkpt lat="64.071189880" lon="-21.938749313">
<ele>28.479492</ele>
<time>2012-07-28T20:21:56Z</time>
<speed>4.530000</speed>
<extensions>
<speed>4.5</speed>
<temp>0.00</temp>
<bpm>0</bpm>
<rpm>0.00</rpm>
</extensions>
</trkpt>
<trkpt lat="64.071388245" lon="-21.938802719">
<ele>28.993164</ele>
<time>2012-07-28T20:22:01Z</time>
<speed>4.450000</speed>
<extensions>
<speed>4.5</speed>
<temp>0.00</temp>
<bpm>0</bpm>
<rpm>0.00</rpm>
</extensions>
</trkpt>
<trkpt lat="64.071586609" lon="-21.938863754">
<ele>29.454102</ele>
<time>2012-07-28T20:22:06Z</time>
<speed>4.130000</speed>
<extensions>
<speed>4.1</speed>
<temp>0.00</temp>
<bpm>0</bpm>
<rpm>0.00</rpm>
</extensions>
</trkpt>
<trkpt lat="64.071777344" lon="-21.938930511">
<ele>29.487793</ele>
<time>2012-07-28T20:22:11Z</time>
<speed>4.130000</speed>
<extensions>
<speed>4.1</speed>
<temp>0.00</temp>
<bpm>0</bpm>
<rpm>0.00</rpm>
</extensions>
</trkpt>
<trkpt lat="64.071968079" lon="-21.938968658">
<ele>29.600098</ele>
<time>2012-07-28T20:22:16Z</time>
<speed>4.110000</speed>
<extensions>
<speed>4.1</speed>
<temp>0.00</temp>
<bpm>0</bpm>
<rpm>0.00</rpm>
</extensions>
</trkpt>
<trkpt lat="64.072158813" lon="-21.939033508">
<ele>29.311523</ele>
<time>2012-07-28T20:22:21Z</time>
<speed>4.020000</speed>
<extensions>
<speed>4.0</speed>
<temp>0.00</temp>
<bpm>0</bpm>
<rpm>0.00</rpm>
</extensions>
</trkpt>
<trkpt lat="64.072341919" lon="-21.939086914">
<ele>29.446777</ele>
<time>2012-07-28T20:22:26Z</time>
<speed>4.270000</speed>
<extensions>
<speed>4.3</speed>
<temp>0.00</temp>
<bpm>0</bpm>
<rpm>0.00</rpm>
</extensions>
</trkpt>
<trkpt lat="64.072532654" lon="-21.939126968">
<ele>29.212891</ele>
<time>2012-07-28T20:22:31Z</time>
<speed>4.300000</speed>
<extensions>
<speed>4.3</speed>
<temp>0.00</temp>
<bpm>0</bpm>
<rpm>0.00</rpm>
</extensions>
</trkpt>
<trkpt lat="64.072723389" lon="-21.939161301">
<ele>28.831543</ele>
<time>2012-07-28T20:22:36Z</time>
<speed>4.160000</speed>
<extensions>
<speed>4.2</speed>
<temp>0.00</temp>
<bpm>0</bpm>
<rpm>0.00</rpm>
</extensions>
</trkpt>
<trkpt lat="64.072914124" lon="-21.939210892">
<ele>29.072754</ele>
<time>2012-07-28T20:22:41Z</time>
<speed>4.400000</speed>
<extensions>
<speed>4.4</speed>
<temp>0.00</temp>
<bpm>0</bpm>
<rpm>0.00</rpm>
</extensions>
</trkpt>
<trkpt lat="64.073089600" lon="-21.939260483">
<ele>29.591309</ele>
<time>2012-07-28T20:22:46Z</time>
<speed>3.590000</speed>
<extensions>
<speed>3.6</speed>
<temp>0.00</temp>
<bpm>0</bpm>
<rpm>0.00</rpm>
</extensions>
</trkpt>
<trkpt lat="64.073249817" lon="-21.939313889">
<ele>29.821289</ele>
<time>2012-07-28T20:22:51Z</time>
<speed>4.040000</speed>
<extensions>
<speed>4.0</speed>
<temp>0.00</temp>
<bpm>0</bpm>
<rpm>0.00</rpm>
</extensions>
</trkpt>
<trkpt lat="64.073425293" lon="-21.939384460">
<ele>29.970703</ele>
<time>2012-07-28T20:22:56Z</time>
<speed>3.740000</speed>
<extensions>
<speed>3.7</speed>
<temp>0.00</temp>
<bpm>0</bpm>
<rpm>0.00</rpm>
</extensions>
</trkpt>
<trkpt lat="64.073593140" lon="-21.939449310">
<ele>30.489258</ele>
<time>2012-07-28T20:23:01Z</time>
<speed>3.560000</speed>
<extensions>
<speed>3.6</speed>
<temp>0.00</temp>
<bpm>0</bpm>
<rpm>0.00</rpm>
</extensions>
</trkpt>
<trkpt lat="64.073722839" lon="-21.939495087">
<ele>30.574707</ele>
<time>2012-07-28T20:23:06Z</time>
<speed>2.390000</speed>
<extensions>
<speed>2.4</speed>
<temp>0.00</temp>
<bpm>0</bpm>
<rpm>0.00</rpm>
</extensions>
</trkpt>
<trkpt lat="64.073753357" lon="-21.939529419">
<ele>31.034668</ele>
<time>2012-07-28T20:23:11Z</time>
<speed>0.030000</speed>
<extensions>
<speed>0.0</speed>
<temp>0.00</temp>
<bpm>0</bpm>
<rpm>0.00</rpm>
</extensions>
</trkpt>
<trkpt lat="64.073753357" lon="-21.939521790">
<ele>31.115234</ele>
<time>2012-07-28T20:23:16Z</time>
<speed>0.090000</speed>
<extensions>
<speed>0.1</speed>
<temp>0.00</temp>
<bpm>0</bpm>
<rpm>0.00</rpm>
</extensions>
</trkpt>
<trkpt lat="64.073753357" lon="-21.939521790">
<ele>31.080078</ele>
<time>2012-07-28T20:23:21Z</time>
<speed>0.120000</speed>
<extensions>
<speed>0.1</speed>
<temp>0.00</temp>
<bpm>0</bpm>
<rpm>0.00</rpm>
</extensions>
</trkpt>
<trkpt lat="64.073753357" lon="-21.939521790">
<ele>31.022949</ele>
<time>2012-07-28T20:23:26Z</time>
<speed>0.010000</speed>
<extensions>
<speed>0.0</speed>
<temp>0.00</temp>
<bpm>0</bpm>
<rpm>0.00</rpm>
</extensions>
</trkpt>
<trkpt lat="64.073753357" lon="-21.939521790">
<ele>30.925293</ele>
<time>2012-07-28T20:23:31Z</time>
<speed>0.020000</speed>
<extensions>
<speed>0.0</speed>
<temp>0.00</temp>
<bpm>0</bpm>
<rpm>0.00</rpm>
</extensions>
</trkpt>
<trkpt lat="64.073783875" lon="-21.939537048">
<ele>31.019531</ele>
<time>2012-07-28T20:23:36Z</time>
<speed>1.910000</speed>
<extensions>
<speed>1.9</speed>
<temp>0.00</temp>
<bpm>0</bpm>
<rpm>0.00</rpm>
</extensions>
</trkpt>
<trkpt lat="64.073898315" lon="-21.939588547">
<ele>30.947754</ele>
<time>2012-07-28T20:23:41Z</time>
<speed>2.940000</speed>
<extensions>
<speed>2.9</speed>
<temp>0.00</temp>
<bpm>0</bpm>
<rpm>0.00</rpm>
</extensions>
</trkpt>
<trkpt lat="64.074050903" lon="-21.939622879">
<ele>31.057617</ele>
<time>2012-07-28T20:23:46Z</time>
<speed>4.090000</speed>
<extensions>
<speed>4.1</speed>
<temp>0.00</temp>
<bpm>0</bpm>
<rpm>0.00</rpm>
</extensions>
</trkpt>
<trkpt lat="64.074226379" lon="-21.939666748">
<ele>31.359375</ele>
<time>2012-07-28T20:23:51Z</time>
<speed>4.230000</speed>
<extensions>
<speed>4.2</speed>
<temp>0.00</temp>
<bpm>0</bpm>
<rpm>0.00</rpm>
</extensions>
</trkpt>
<trkpt lat="64.074424744" lon="-21.939727783">
<ele>31.473145</ele>
<time>2012-07-28T20:23:56Z</time>
<speed>4.370000</speed>
<extensions>
<speed>4.4</speed>
<temp>0.00</temp>
<bpm>0</bpm>
<rpm>0.00</rpm>
</extensions>
</trkpt>
<trkpt lat="64.074607849" lon="-21.939794540">
<ele>31.750000</ele>
<time>2012-07-28T20:24:01Z</time>
<speed>4.080000</speed>
<extensions>
<speed>4.1</speed>
<temp>0.00</temp>
<bpm>0</bpm>
<rpm>0.00</rpm>
</extensions>
</trkpt>
<trkpt lat="64.074790955" lon="-21.939870834">
<ele>32.060547</ele>
<time>2012-07-28T20:24:06Z</time>
<speed>4.390000</speed>
<extensions>
<speed>4.4</speed>
<temp>0.00</temp>
<bpm>0</bpm>
<rpm>0.00</rpm>
</extensions>
</trkpt>
<trkpt lat="64.074996948" lon="-21.939933777">
<ele>32.201172</ele>
<time>2012-07-28T20:24:11Z</time>
<speed>4.530000</speed>
<extensions>
<speed>4.5</speed>
<temp>0.00</temp>
<bpm>0</bpm>
<rpm>0.00</rpm>
</extensions>
</trkpt>
<trkpt lat="64.075202942" lon="-21.939992905">
<ele>32.294922</ele>
<time>2012-07-28T20:24:16Z</time>
<speed>4.750000</speed>
<extensions>
<speed>4.8</speed>
<temp>0.00</temp>
<bpm>0</bpm>
<rpm>0.00</rpm>
</extensions>
</trkpt>
<trkpt lat="64.075401306" lon="-21.940031052">
<ele>32.353516</ele>
<time>2012-07-28T20:24:21Z</time>
<speed>4.170000</speed>
<extensions>
<speed>4.2</speed>
<temp>0.00</temp>
<bpm>0</bpm>
<rpm>0.00</rpm>
</extensions>
</trkpt>
<trkpt lat="64.075607300" lon="-21.940076828">
<ele>32.505859</ele>
<time>2012-07-28T20:24:26Z</time>
<speed>4.380000</speed>
<extensions>
<speed>4.4</speed>
<temp>0.00</temp>
<bpm>0</bpm>
<rpm>0.00</rpm>
</extensions>
</trkpt>
<trkpt lat="64.075790405" lon="-21.940124512">
<ele>33.649414</ele>
<time>2012-07-28T20:24:31Z</time>
<speed>4.160000</speed>
<extensions>
<speed>4.2</speed>
<temp>0.00</temp>
<bpm>0</bpm>
<rpm>0.00</rpm>
</extensions>
</trkpt>
<trkpt lat="64.075973511" lon="-21.940084457">
<ele>34.652344</ele>
<time>2012-07-28T20:24:36Z</time>
<speed>3.700000</speed>
<extensions>
<speed>3.7</speed>
<temp>0.00</temp>
<bpm>0</bpm>
<rpm>0.00</rpm>
</extensions>
</trkpt>
<trkpt lat="64.076126099" lon="-21.939920425">
<ele>35.664063</ele>
<time>2012-07-28T20:24:41Z</time>
<speed>3.970000</speed>
<extensions>
<speed>4.0</speed>
<temp>0.00</temp>
<bpm>0</bpm>
<rpm>0.00</rpm>
</extensions>
</trkpt>
<trkpt lat="64.076271057" lon="-21.939971924">
<ele>36.286133</ele>
<time>2012-07-28T20:24:46Z</time>
<speed>3.460000</speed>
<extensions>
<speed>3.5</speed>
<temp>0.00</temp>
<bpm>0</bpm>
<rpm>0.00</rpm>
</extensions>
</trkpt>
<trkpt lat="64.076377869" lon="-21.940225601">
<ele>35.975586</ele>
<time>2012-07-28T20:24:51Z</time>
<speed>3.430000</speed>
<extensions>
<speed>3.4</speed>
<temp>0.00</temp>
<bpm>0</bpm>
<rpm>0.00</rpm>
</extensions>
</trkpt>
<trkpt lat="64.076538086" lon="-21.940433502">
<ele>35.355469</ele>
<time>2012-07-28T20:24:56Z</time>
<speed>4.710000</speed>
<extensions>
<speed>4.7</speed>
<temp>0.00</temp>
<bpm>0</bpm>
<rpm>0.00</rpm>
</extensions>
</trkpt>
<trkpt lat="64.076744080" lon="-21.940513611">
<ele>34.820313</ele>
<time>2012-07-28T20:25:01Z</time>
<speed>4.630000</speed>
<extensions>
<speed>4.6</speed>
<temp>0.00</temp>
<bpm>0</bpm>
<rpm>0.00</rpm>
</extensions>
</trkpt>
<trkpt lat="64.076950073" lon="-21.940553665">
<ele>35.141602</ele>
<time>2012-07-28T20:25:06Z</time>
<speed>4.210000</speed>
<extensions>
<speed>4.2</speed>
<temp>0.00</temp>
<bpm>0</bpm>
<rpm>0.00</rpm>
</extensions>
</trkpt>
<trkpt lat="64.077125549" lon="-21.940574646">
<ele>35.606445</ele>
<time>2012-07-28T20:25:11Z</time>
<speed>4.130000</speed>
<extensions>
<speed>4.1</speed>
<temp>0.00</temp>
<bpm>0</bpm>
<rpm>0.00</rpm>
</extensions>
</trkpt>
<trkpt lat="64.077316284" lon="-21.940629959">
<ele>35.830078</ele>
<time>2012-07-28T20:25:16Z</time>
<speed>4.380000</speed>
<extensions>
<speed>4.4</speed>
<temp>0.00</temp>
<bpm>0</bpm>
<rpm>0.00</rpm>
</extensions>
</trkpt>
<trkpt lat="64.077514648" lon="-21.940694809">
<ele>36.095703</ele>
<time>2012-07-28T20:25:21Z</time>
<speed>4.570000</speed>
<extensions>
<speed>4.6</speed>
<temp>0.00</temp>
<bpm>0</bpm>
<rpm>0.00</rpm>
</extensions>
</trkpt>
<trkpt lat="64.077720642" lon="-21.940765381">
<ele>36.535156</ele>
<time>2012-07-28T20:25:26Z</time>
<speed>4.590000</speed>
<extensions>
<speed>4.6</speed>
<temp>0.00</temp>
<bpm>0</bpm>
<rpm>0.00</rpm>
</extensions>
</trkpt>
<trkpt lat="64.077919006" lon="-21.940834045">
<ele>37.050781</ele>
<time>2012-07-28T20:25:31Z</time>
<speed>4.070000</speed>
<extensions>
<speed>4.1</speed>
<temp>0.00</temp>
<bpm>0</bpm>
<rpm>0.00</rpm>
</extensions>
</trkpt>
<trkpt lat="64.078086853" lon="-21.940887451">
<ele>37.321289</ele>
<time>2012-07-28T20:25:36Z</time>
<speed>3.170000</speed>
<extensions>
<speed>3.2</speed>
<temp>0.00</temp>
<bpm>0</bpm>
<rpm>0.00</rpm>
</extensions>
</trkpt>
<trkpt lat="64.078201294" lon="-21.940923691">
<ele>37.910156</ele>
<time>2012-07-28T20:25:41Z</time>
<speed>2.150000</speed>
<extensions>
<speed>2.1</speed>
<temp>0.00</temp>
<bpm>0</bpm>
<rpm>0.00</rpm>
</extensions>
</trkpt>
<trkpt lat="64.078285217" lon="-21.940919876">
<ele>37.757813</ele>
<time>2012-07-28T20:25:46Z</time>
<speed>2.000000</speed>
<extensions>
<speed>2.0</speed>
<temp>0.00</temp>
<bpm>0</bpm>
<rpm>0.00</rpm>
</extensions>
</trkpt>
<trkpt lat="64.078361511" lon="-21.940948486">
<ele>37.566406</ele>
<time>2012-07-28T20:25:51Z</time>
<speed>1.620000</speed>
<extensions>
<speed>1.6</speed>
<temp>0.00</temp>
<bpm>0</bpm>
<rpm>0.00</rpm>
</extensions>
</trkpt>
<trkpt lat="64.078414917" lon="-21.940973282">
<ele>37.826172</ele>
<time>2012-07-28T20:25:56Z</time>
<speed>1.370000</speed>
<extensions>
<speed>1.4</speed>
<temp>0.00</temp>
<bpm>0</bpm>
<rpm>0.00</rpm>
</extensions>
</trkpt>
<trkpt lat="64.078514099" lon="-21.940986633">
<ele>37.248047</ele>
<time>2012-07-28T20:26:01Z</time>
<speed>2.440000</speed>
<extensions>
<speed>2.4</speed>
<temp>0.00</temp>
<bpm>0</bpm>
<rpm>0.00</rpm>
</extensions>
</trkpt>
<trkpt lat="64.078666687" lon="-21.941024780">
<ele>36.808594</ele>
<time>2012-07-28T20:26:06Z</time>
<speed>3.810000</speed>
<extensions>
<speed>3.8</speed>
<temp>0.00</temp>
<bpm>0</bpm>
<rpm>0.00</rpm>
</extensions>
</trkpt>
<trkpt lat="64.078849792" lon="-21.941097260">
<ele>37.050781</ele>
<time>2012-07-28T20:26:11Z</time>
<speed>3.810000</speed>
<extensions>
<speed>3.8</speed>
<temp>0.00</temp>
<bpm>0</bpm>
<rpm>0.00</rpm>
</extensions>
</trkpt>
<trkpt lat="64.079025269" lon="-21.941165924">
<ele>36.481445</ele>
<time>2012-07-28T20:26:16Z</time>
<speed>4.470000</speed>
<extensions>
<speed>4.5</speed>
<temp>0.00</temp>
<bpm>0</bpm>
<rpm>0.00</rpm>
</extensions>
</trkpt>
<trkpt lat="64.079231262" lon="-21.941234589">
<ele>36.711914</ele>
<time>2012-07-28T20:26:21Z</time>
<speed>4.630000</speed>
<extensions>
<speed>4.6</speed>
<temp>0.00</temp>
<bpm>0</bpm>
<rpm>0.00</rpm>
</extensions>
</trkpt>
<trkpt lat="64.079437256" lon="-21.941272736">
<ele>36.511719</ele>
<time>2012-07-28T20:26:26Z</time>
<speed>4.590000</speed>
<extensions>
<speed>4.6</speed>
<temp>0.00</temp>
<bpm>0</bpm>
<rpm>0.00</rpm>
</extensions>
</trkpt>
<trkpt lat="64.079635620" lon="-21.941343307">
<ele>35.792969</ele>
<time>2012-07-28T20:26:31Z</time>
<speed>4.610000</speed>
<extensions>
<speed>4.6</speed>
<temp>0.00</temp>
<bpm>0</bpm>
<rpm>0.00</rpm>
</extensions>
</trkpt>
<trkpt lat="64.079856873" lon="-21.941425323">
<ele>35.942383</ele>
<time>2012-07-28T20:26:36Z</time>
<speed>4.950000</speed>
<extensions>
<speed>4.9</speed>
<temp>0.00</temp>
<bpm>0</bpm>
<rpm>0.00</rpm>
</extensions>
</trkpt>
<trkpt lat="64.080078125" lon="-21.941499710">
<ele>35.972656</ele>
<time>2012-07-28T20:26:41Z</time>
<speed>5.080000</speed>
<extensions>
<speed>5.1</speed>
<temp>0.00</temp>
<bpm>0</bpm>
<rpm>0.00</rpm>
</extensions>
</trkpt>
<trkpt lat="64.080299377" lon="-21.941574097">
<ele>35.684570</ele>
<time>2012-07-28T20:26:46Z</time>
<speed>5.020000</speed>
<extensions>
<speed>5.0</speed>
<temp>0.00</temp>
<bpm>0</bpm>
<rpm>0.00</rpm>
</extensions>
</trkpt>
<trkpt lat="64.080528259" lon="-21.941665649">
<ele>35.553711</ele>
<time>2012-07-28T20:26:51Z</time>
<speed>5.110000</speed>
<extensions>
<speed>5.1</speed>
<temp>0.00</temp>
<bpm>0</bpm>
<rpm>0.00</rpm>
</extensions>
</trkpt>
<trkpt lat="64.080741882" lon="-21.941759109">
<ele>35.666016</ele>
<time>2012-07-28T20:26:56Z</time>
<speed>4.720000</speed>
<extensions>
<speed>4.7</speed>
<temp>0.00</temp>
<bpm>0</bpm>
<rpm>0.00</rpm>
</extensions>
</trkpt>
<trkpt lat="64.080940247" lon="-21.941848755">
<ele>36.189453</ele>
<time>2012-07-28T20:27:01Z</time>
<speed>4.850000</speed>
<extensions>
<speed>4.8</speed>
<temp>0.00</temp>
<bpm>0</bpm>
<rpm>0.00</rpm>
</extensions>
</trkpt>
<trkpt lat="64.081153870" lon="-21.941932678">
<ele>36.043945</ele>
<time>2012-07-28T20:27:06Z</time>
<speed>4.820000</speed>
<extensions>
<speed>4.8</speed>
<temp>0.00</temp>
<bpm>0</bpm>
<rpm>0.00</rpm>
</extensions>
</trkpt>
<trkpt lat="64.081375122" lon="-21.941987991">
<ele>36.260742</ele>
<time>2012-07-28T20:27:11Z</time>
<speed>4.840000</speed>
<extensions>
<speed>4.8</speed>
<temp>0.00</temp>
<bpm>0</bpm>
<rpm>0.00</rpm>
</extensions>
</trkpt>
<trkpt lat="64.081588745" lon="-21.942041397">
<ele>36.215820</ele>
<time>2012-07-28T20:27:16Z</time>
<speed>4.760000</speed>
<extensions>
<speed>4.8</speed>
<temp>0.00</temp>
<bpm>0</bpm>
<rpm>0.00</rpm>
</extensions>
</trkpt>
<trkpt lat="64.081794739" lon="-21.942083359">
<ele>36.515625</ele>
<time>2012-07-28T20:27:21Z</time>
<speed>4.780000</speed>
<extensions>
<speed>4.8</speed>
<temp>0.00</temp>
<bpm>0</bpm>
<rpm>0.00</rpm>
</extensions>
</trkpt>
<trkpt lat="64.082008362" lon="-21.942119598">
<ele>36.304688</ele>
<time>2012-07-28T20:27:26Z</time>
<speed>4.780000</speed>
<extensions>
<speed>4.8</speed>
<temp>0.00</temp>
<bpm>0</bpm>
<rpm>0.00</rpm>
</extensions>
</trkpt>
<trkpt lat="64.082214355" lon="-21.942182541">
<ele>37.074219</ele>
<time>2012-07-28T20:27:31Z</time>
<speed>4.470000</speed>
<extensions>
<speed>4.5</speed>
<temp>0.00</temp>
<bpm>0</bpm>
<rpm>0.00</rpm>
</extensions>
</trkpt>
<trkpt lat="64.082405090" lon="-21.942245483">
<ele>37.416992</ele>
<time>2012-07-28T20:27:36Z</time>
<speed>3.320000</speed>
<extensions>
<speed>3.3</speed>
<temp>0.00</temp>
<bpm>0</bpm>
<rpm>0.00</rpm>
</extensions>
</trkpt>
<trkpt lat="64.082557678" lon="-21.942295074">
<ele>38.208984</ele>
<time>2012-07-28T20:27:41Z</time>
<speed>3.790000</speed>
<extensions>
<speed>3.8</speed>
<temp>0.00</temp>
<bpm>0</bpm>
<rpm>0.00</rpm>
</extensions>
</trkpt>
<trkpt lat="64.082740784" lon="-21.942228317">
<ele>39.192383</ele>
<time>2012-07-28T20:27:46Z</time>
<speed>3.360000</speed>
<extensions>
<speed>3.4</speed>
<temp>0.00</temp>
<bpm>0</bpm>
<rpm>0.00</rpm>
</extensions>
</trkpt>
<trkpt lat="64.082847595" lon="-21.942560196">
<ele>37.217773</ele>
<time>2012-07-28T20:27:51Z</time>
<speed>3.830000</speed>
<extensions>
<speed>3.8</speed>
<temp>0.00</temp>
<bpm>0</bpm>
<rpm>0.00</rpm>
</extensions>
</trkpt>
<trkpt lat="64.083053589" lon="-21.942626953">
<ele>35.683594</ele>
<time>2012-07-28T20:27:56Z</time>
<speed>4.590000</speed>
<extensions>
<speed>4.6</speed>
<temp>0.00</temp>
<bpm>0</bpm>
<rpm>0.00</rpm>
</extensions>
</trkpt>
<trkpt lat="64.083267212" lon="-21.942804337">
<ele>33.842773</ele>
<time>2012-07-28T20:28:01Z</time>
<speed>5.510000</speed>
<extensions>
<speed>5.5</speed>
<temp>0.00</temp>
<bpm>0</bpm>
<rpm>0.00</rpm>
</extensions>
</trkpt>
<trkpt lat="64.083511353" lon="-21.943119049">
<ele>29.725098</ele>
<time>2012-07-28T20:28:06Z</time>
<speed>6.700000</speed>
<extensions>
<speed>6.7</speed>
<temp>0.00</temp>
<bpm>0</bpm>
<rpm>0.00</rpm>
</extensions>
</trkpt>
<trkpt lat="64.083717346" lon="-21.943393707">
<ele>26.955566</ele>
<time>2012-07-28T20:28:11Z</time>
<speed>3.650000</speed>
<extensions>
<speed>3.7</speed>
<temp>0.00</temp>
<bpm>0</bpm>
<rpm>0.00</rpm>
</extensions>
</trkpt>
<trkpt lat="64.083808899" lon="-21.943441391">
<ele>27.650391</ele>
<time>2012-07-28T20:28:16Z</time>
<speed>0.710000</speed>
<extensions>
<speed>0.7</speed>
<temp>0.00</temp>
<bpm>0</bpm>
<rpm>0.00</rpm>
</extensions>
</trkpt>
<trkpt lat="64.083816528" lon="-21.943429947">
<ele>28.418945</ele>
<time>2012-07-28T20:28:21Z</time>
<speed>0.040000</speed>
<extensions>
<speed>0.0</speed>
<temp>0.00</temp>
<bpm>0</bpm>
<rpm>0.00</rpm>
</extensions>
</trkpt>
<trkpt lat="64.083816528" lon="-21.943428040">
<ele>28.544434</ele>
<time>2012-07-28T20:28:26Z</time>
<extensions>
<speed>0.0</speed>
<temp>0.00</temp>
<bpm>0</bpm>
<rpm>0.00</rpm>
</extensions>
</trkpt>
<trkpt lat="64.083816528" lon="-21.943426132">
<ele>28.767578</ele>
<time>2012-07-28T20:28:31Z</time>
<speed>0.040000</speed>
<extensions>
<speed>0.0</speed>
<temp>0.00</temp>
<bpm>0</bpm>
<rpm>0.00</rpm>
</extensions>
</trkpt>
<trkpt lat="64.083816528" lon="-21.943422318">
<ele>28.992676</ele>
<time>2012-07-28T20:28:36Z</time>
<speed>0.090000</speed>
<extensions>
<speed>0.1</speed>
<temp>0.00</temp>
<bpm>0</bpm>
<rpm>0.00</rpm>
</extensions>
</trkpt>
<trkpt lat="64.083816528" lon="-21.943418503">
<ele>29.270020</ele>
<time>2012-07-28T20:28:41Z</time>
<speed>0.010000</speed>
<extensions>
<speed>0.0</speed>
<temp>0.00</temp>
<bpm>0</bpm>
<rpm>0.00</rpm>
</extensions>
</trkpt>
<trkpt lat="64.083816528" lon="-21.943418503">
<ele>29.389648</ele>
<time>2012-07-28T20:28:46Z</time>
<speed>0.020000</speed>
<extensions>
<speed>0.0</speed>
<temp>0.00</temp>
<bpm>0</bpm>
<rpm>0.00</rpm>
</extensions>
</trkpt>
<trkpt lat="64.083816528" lon="-21.943420410">
<ele>29.549805</ele>
<time>2012-07-28T20:28:51Z</time>
<speed>0.030000</speed>
<extensions>
<speed>0.0</speed>
<temp>0.00</temp>
<bpm>0</bpm>
<rpm>0.00</rpm>
</extensions>
</trkpt>
<trkpt lat="64.083816528" lon="-21.943418503">
<ele>29.597168</ele>
<time>2012-07-28T20:28:56Z</time>
<extensions>
<speed>0.0</speed>
<temp>0.00</temp>
<bpm>0</bpm>
<rpm>0.00</rpm>
</extensions>
</trkpt>
<trkpt lat="64.083816528" lon="-21.943418503">
<ele>29.633301</ele>
<time>2012-07-28T20:29:01Z</time>
<speed>0.010000</speed>
<extensions>
<speed>0.0</speed>
<temp>0.00</temp>
<bpm>0</bpm>
<rpm>0.00</rpm>
</extensions>
</trkpt>
<trkpt lat="64.083816528" lon="-21.943416595">
<ele>29.634766</ele>
<time>2012-07-28T20:29:06Z</time>
<extensions>
<speed>0.0</speed>
<temp>0.00</temp>
<bpm>0</bpm>
<rpm>0.00</rpm>
</extensions>
</trkpt>
<trkpt lat="64.083816528" lon="-21.943416595">
<ele>29.628418</ele>
<time>2012-07-28T20:29:11Z</time>
<extensions>
<speed>0.0</speed>
<temp>0.00</temp>
<bpm>0</bpm>
<rpm>0.00</rpm>
</extensions>
</trkpt>
<trkpt lat="64.083824158" lon="-21.943416595">
<ele>29.656738</ele>
<time>2012-07-28T20:29:16Z</time>
<speed>1.170000</speed>
<extensions>
<speed>1.2</speed>
<temp>0.00</temp>
<bpm>0</bpm>
<rpm>0.00</rpm>
</extensions>
</trkpt>
<trkpt lat="64.083938599" lon="-21.943328857">
<ele>31.479980</ele>
<time>2012-07-28T20:29:21Z</time>
<speed>3.940000</speed>
<extensions>
<speed>3.9</speed>
<temp>0.00</temp>
<bpm>0</bpm>
<rpm>0.00</rpm>
</extensions>
</trkpt>
<trkpt lat="64.084083557" lon="-21.943141937">
<ele>31.620605</ele>
<time>2012-07-28T20:29:26Z</time>
<speed>3.190000</speed>
<extensions>
<speed>3.2</speed>
<temp>0.00</temp>
<bpm>0</bpm>
<rpm>0.00</rpm>
</extensions>
</trkpt>
<trkpt lat="64.084182739" lon="-21.942893982">
<ele>32.996094</ele>
<time>2012-07-28T20:29:31Z</time>
<speed>2.920000</speed>
<extensions>
<speed>2.9</speed>
<temp>0.00</temp>
<bpm>0</bpm>
<rpm>0.00</rpm>
</extensions>
</trkpt>
<trkpt lat="64.084259033" lon="-21.942640305">
<ele>35.806641</ele>
<time>2012-07-28T20:29:36Z</time>
<speed>2.830000</speed>
<extensions>
<speed>2.8</speed>
<temp>0.00</temp>
<bpm>0</bpm>
<rpm>0.00</rpm>
</extensions>
</trkpt>
<trkpt lat="64.084342957" lon="-21.942434311">
<ele>35.660156</ele>
<time>2012-07-28T20:29:41Z</time>
<speed>2.880000</speed>
<extensions>
<speed>2.9</speed>
<temp>0.00</temp>
<bpm>0</bpm>
<rpm>0.00</rpm>
</extensions>
</trkpt>
<trkpt lat="64.084426880" lon="-21.942232132">
<ele>36.768555</ele>
<time>2012-07-28T20:29:46Z</time>
<speed>2.820000</speed>
<extensions>
<speed>2.8</speed>
<temp>0.00</temp>
<bpm>0</bpm>
<rpm>0.00</rpm>
</extensions>
</trkpt>
<trkpt lat="64.084503174" lon="-21.942031860">
<ele>36.342773</ele>
<time>2012-07-28T20:29:51Z</time>
<speed>2.510000</speed>
<extensions>
<speed>2.5</speed>
<temp>0.00</temp>
<bpm>0</bpm>
<rpm>0.00</rpm>
</extensions>
</trkpt>
<trkpt lat="64.084579468" lon="-21.941820145">
<ele>35.079102</ele>
<time>2012-07-28T20:29:56Z</time>
<speed>2.610000</speed>
<extensions>
<speed>2.6</speed>
<temp>0.00</temp>
<bpm>0</bpm>
<rpm>0.00</rpm>
</extensions>
</trkpt>
<trkpt lat="64.084648132" lon="-21.941619873">
<ele>33.848633</ele>
<time>2012-07-28T20:30:01Z</time>
<speed>2.430000</speed>
<extensions>
<speed>2.4</speed>
<temp>0.00</temp>
<bpm>0</bpm>
<rpm>0.00</rpm>
</extensions>
</trkpt>
<trkpt lat="64.084716797" lon="-21.941406250">
<ele>33.438477</ele>
<time>2012-07-28T20:30:06Z</time>
<speed>2.850000</speed>
<extensions>
<speed>2.9</speed>
<temp>0.00</temp>
<bpm>0</bpm>
<rpm>0.00</rpm>
</extensions>
</trkpt>
<trkpt lat="64.084800720" lon="-21.941202164">
<ele>30.992676</ele>
<time>2012-07-28T20:30:11Z</time>
<speed>2.750000</speed>
<extensions>
<speed>2.7</speed>
<temp>0.00</temp>
<bpm>0</bpm>
<rpm>0.00</rpm>
</extensions>
</trkpt>
<trkpt lat="64.084884644" lon="-21.940971375">
<ele>31.884766</ele>
<time>2012-07-28T20:30:16Z</time>
<speed>2.760000</speed>
<extensions>
<speed>2.8</speed>
<temp>0.00</temp>
<bpm>0</bpm>
<rpm>0.00</rpm>
</extensions>
</trkpt>
<trkpt lat="64.084960938" lon="-21.940746307">
<ele>31.610840</ele>
<time>2012-07-28T20:30:21Z</time>
<speed>2.770000</speed>
<extensions>
<speed>2.8</speed>
<temp>0.00</temp>
<bpm>0</bpm>
<rpm>0.00</rpm>
</extensions>
</trkpt>
<trkpt lat="64.085037231" lon="-21.940530777">
<ele>31.389648</ele>
<time>2012-07-28T20:30:26Z</time>
<speed>2.380000</speed>
<extensions>
<speed>2.4</speed>
<temp>0.00</temp>
<bpm>0</bpm>
<rpm>0.00</rpm>
</extensions>
</trkpt>
<trkpt lat="64.085105896" lon="-21.940317154">
<ele>28.821777</ele>
<time>2012-07-28T20:30:31Z</time>
<speed>2.850000</speed>
<extensions>
<speed>2.9</speed>
<temp>0.00</temp>
<bpm>0</bpm>
<rpm>0.00</rpm>
</extensions>
</trkpt>
<trkpt lat="64.085182190" lon="-21.940109253">
<ele>29.283203</ele>
<time>2012-07-28T20:30:36Z</time>
<speed>2.640000</speed>
<extensions>
<speed>2.6</speed>
<temp>0.00</temp>
<bpm>0</bpm>
<rpm>0.00</rpm>
</extensions>
</trkpt>
<trkpt lat="64.085266113" lon="-21.939922333">
<ele>28.458008</ele>
<time>2012-07-28T20:30:41Z</time>
<speed>2.370000</speed>
<extensions>
<speed>2.4</speed>
<temp>0.00</temp>
<bpm>0</bpm>
<rpm>0.00</rpm>
</extensions>
</trkpt>
<trkpt lat="64.085350037" lon="-21.939735413">
<ele>27.518555</ele>
<time>2012-07-28T20:30:46Z</time>
<speed>2.840000</speed>
<extensions>
<speed>2.8</speed>
<temp>0.00</temp>
<bpm>0</bpm>
<rpm>0.00</rpm>
</extensions>
</trkpt>
<trkpt lat="64.085456848" lon="-21.939510345">
<ele>28.988770</ele>
<time>2012-07-28T20:30:51Z</time>
<speed>3.270000</speed>
<extensions>
<speed>3.3</speed>
<temp>0.00</temp>
<bpm>0</bpm>
<rpm>0.00</rpm>
</extensions>
</trkpt>
<trkpt lat="64.085571289" lon="-21.939306259">
<ele>28.606445</ele>
<time>2012-07-28T20:30:56Z</time>
<speed>3.490000</speed>
<extensions>
<speed>3.5</speed>
<temp>0.00</temp>
<bpm>0</bpm>
<rpm>0.00</rpm>
</extensions>
</trkpt>
<trkpt lat="64.085685730" lon="-21.939092636">
<ele>28.399902</ele>
<time>2012-07-28T20:31:01Z</time>
<speed>3.310000</speed>
<extensions>
<speed>3.3</speed>
<temp>0.00</temp>
<bpm>0</bpm>
<rpm>0.00</rpm>
</extensions>
</trkpt>
<trkpt lat="64.085792542" lon="-21.938877106">
<ele>29.298828</ele>
<time>2012-07-28T20:31:06Z</time>
<speed>3.310000</speed>
<extensions>
<speed>3.3</speed>
<temp>0.00</temp>
<bpm>0</bpm>
<rpm>0.00</rpm>
</extensions>
</trkpt>
<trkpt lat="64.085914612" lon="-21.938644409">
<ele>31.523438</ele>
<time>2012-07-28T20:31:11Z</time>
<speed>3.260000</speed>
<extensions>
<speed>3.3</speed>
<temp>0.00</temp>
<bpm>0</bpm>
<rpm>0.00</rpm>
</extensions>
</trkpt>
<trkpt lat="64.086044312" lon="-21.938442230">
<ele>32.653320</ele>
<time>2012-07-28T20:31:16Z</time>
<speed>3.690000</speed>
<extensions>
<speed>3.7</speed>
<temp>0.00</temp>
<bpm>0</bpm>
<rpm>0.00</rpm>
</extensions>
</trkpt>
<trkpt lat="64.086174011" lon="-21.938209534">
<ele>33.334961</ele>
<time>2012-07-28T20:31:21Z</time>
<speed>3.560000</speed>
<extensions>
<speed>3.6</speed>
<temp>0.00</temp>
<bpm>0</bpm>
<rpm>0.00</rpm>
</extensions>
</trkpt>
<trkpt lat="64.086296082" lon="-21.938020706">
<ele>35.496094</ele>
<time>2012-07-28T20:31:26Z</time>
<speed>2.860000</speed>
<extensions>
<speed>2.9</speed>
<temp>0.00</temp>
<bpm>0</bpm>
<rpm>0.00</rpm>
</extensions>
</trkpt>
<trkpt lat="64.086425781" lon="-21.937856674">
<ele>36.769531</ele>
<time>2012-07-28T20:31:31Z</time>
<speed>4.190000</speed>
<extensions>
<speed>4.2</speed>
<temp>0.00</temp>
<bpm>0</bpm>
<rpm>0.00</rpm>
</extensions>
</trkpt>
<trkpt lat="64.086578369" lon="-21.937622070">
<ele>34.433594</ele>
<time>2012-07-28T20:31:36Z</time>
<speed>4.100000</speed>
<extensions>
<speed>4.1</speed>
<temp>0.00</temp>
<bpm>0</bpm>
<rpm>0.00</rpm>
</extensions>
</trkpt>
<trkpt lat="64.086738586" lon="-21.937374115">
<ele>32.420898</ele>
<time>2012-07-28T20:31:41Z</time>
<speed>4.640000</speed>
<extensions>
<speed>4.6</speed>
<temp>0.00</temp>
<bpm>0</bpm>
<rpm>0.00</rpm>
</extensions>
</trkpt>
<trkpt lat="64.086921692" lon="-21.937068939">
<ele>31.785645</ele>
<time>2012-07-28T20:31:46Z</time>
<speed>4.680000</speed>
<extensions>
<speed>4.7</speed>
<temp>0.00</temp>
<bpm>0</bpm>
<rpm>0.00</rpm>
</extensions>
</trkpt>
<trkpt lat="64.087097168" lon="-21.936777115">
<ele>30.226074</ele>
<time>2012-07-28T20:31:51Z</time>
<speed>5.060000</speed>
<extensions>
<speed>5.1</speed>
<temp>0.00</temp>
<bpm>0</bpm>
<rpm>0.00</rpm>
</extensions>
</trkpt>
<trkpt lat="64.087303162" lon="-21.936487198">
<ele>29.552734</ele>
<time>2012-07-28T20:31:56Z</time>
<speed>5.850000</speed>
<extensions>
<speed>5.8</speed>
<temp>0.00</temp>
<bpm>0</bpm>
<rpm>0.00</rpm>
</extensions>
</trkpt>
<trkpt lat="64.087532043" lon="-21.936100006">
<ele>29.499512</ele>
<time>2012-07-28T20:32:01Z</time>
<speed>6.960000</speed>
<extensions>
<speed>7.0</speed>
<temp>0.00</temp>
<bpm>0</bpm>
<rpm>0.00</rpm>
</extensions>
</trkpt>
<trkpt lat="64.087806702" lon="-21.935663223">
<ele>29.066406</ele>
<time>2012-07-28T20:32:06Z</time>
<speed>8.280000</speed>
<extensions>
<speed>8.3</speed>
<temp>0.00</temp>
<bpm>0</bpm>
<rpm>0.00</rpm>
</extensions>
</trkpt>
<trkpt lat="64.088119507" lon="-21.935121536">
<ele>27.162598</ele>
<time>2012-07-28T20:32:11Z</time>
<speed>8.020000</speed>
<extensions>
<speed>8.0</speed>
<temp>0.00</temp>
<bpm>0</bpm>
<rpm>0.00</rpm>
</extensions>
</trkpt>
<trkpt lat="64.088348389" lon="-21.934692383">
<ele>26.030273</ele>
<time>2012-07-28T20:32:16Z</time>
<speed>4.990000</speed>
<extensions>
<speed>5.0</speed>
<temp>0.00</temp>
<bpm>0</bpm>
<rpm>0.00</rpm>
</extensions>
</trkpt>
<trkpt lat="64.088455200" lon="-21.934474945">
<ele>25.602539</ele>
<time>2012-07-28T20:32:21Z</time>
<speed>3.250000</speed>
<extensions>
<speed>3.2</speed>
<temp>0.00</temp>
<bpm>0</bpm>
<rpm>0.00</rpm>
</extensions>
</trkpt>
<trkpt lat="64.088592529" lon="-21.934165955">
<ele>25.243652</ele>
<time>2012-07-28T20:32:26Z</time>
<speed>5.330000</speed>
<extensions>
<speed>5.3</speed>
<temp>0.00</temp>
<bpm>0</bpm>
<rpm>0.00</rpm>
</extensions>
</trkpt>
<trkpt lat="64.088783264" lon="-21.933757782">
<ele>26.590820</ele>
<time>2012-07-28T20:32:31Z</time>
<speed>6.150000</speed>
<extensions>
<speed>6.1</speed>
<temp>0.00</temp>
<bpm>0</bpm>
<rpm>0.00</rpm>
</extensions>
</trkpt>
<trkpt lat="64.088989258" lon="-21.933298111">
<ele>26.968750</ele>
<time>2012-07-28T20:32:36Z</time>
<speed>6.640000</speed>
<extensions>
<speed>6.6</speed>
<temp>0.00</temp>
<bpm>0</bpm>
<rpm>0.00</rpm>
</extensions>
</trkpt>
<trkpt lat="64.089195251" lon="-21.932800293">
<ele>26.957031</ele>
<time>2012-07-28T20:32:41Z</time>
<speed>6.350000</speed>
<extensions>
<speed>6.4</speed>
<temp>0.00</temp>
<bpm>0</bpm>
<rpm>0.00</rpm>
</extensions>
</trkpt>
<trkpt lat="64.089393616" lon="-21.932325363">
<ele>26.844238</ele>
<time>2012-07-28T20:32:46Z</time>
<speed>6.140000</speed>
<extensions>
<speed>6.1</speed>
<temp>0.00</temp>
<bpm>0</bpm>
<rpm>0.00</rpm>
</extensions>
</trkpt>
<trkpt lat="64.089569092" lon="-21.931865692">
<ele>27.020020</ele>
<time>2012-07-28T20:32:51Z</time>
<speed>5.860000</speed>
<extensions>
<speed>5.9</speed>
<temp>0.00</temp>
<bpm>0</bpm>
<rpm>0.00</rpm>
</extensions>
</trkpt>
<trkpt lat="64.089729309" lon="-21.931415558">
<ele>25.846191</ele>
<time>2012-07-28T20:32:56Z</time>
<speed>5.410000</speed>
<extensions>
<speed>5.4</speed>
<temp>0.00</temp>
<bpm>0</bpm>
<rpm>0.00</rpm>
</extensions>
</trkpt>
<trkpt lat="64.089897156" lon="-21.931003571">
<ele>26.473145</ele>
<time>2012-07-28T20:33:01Z</time>
<speed>5.230000</speed>
<extensions>
<speed>5.2</speed>
<temp>0.00</temp>
<bpm>0</bpm>
<rpm>0.00</rpm>
</extensions>
</trkpt>
<trkpt lat="64.090042114" lon="-21.930597305">
<ele>28.269531</ele>
<time>2012-07-28T20:33:06Z</time>
<speed>4.920000</speed>
<extensions>
<speed>4.9</speed>
<temp>0.00</temp>
<bpm>0</bpm>
<rpm>0.00</rpm>
</extensions>
</trkpt>
<trkpt lat="64.090164185" lon="-21.930196762">
<ele>28.609863</ele>
<time>2012-07-28T20:33:11Z</time>
<speed>4.630000</speed>
<extensions>
<speed>4.6</speed>
<temp>0.00</temp>
<bpm>0</bpm>
<rpm>0.00</rpm>
</extensions>
</trkpt>
<trkpt lat="64.090293884" lon="-21.929826736">
<ele>28.805176</ele>
<time>2012-07-28T20:33:16Z</time>
<speed>4.530000</speed>
<extensions>
<speed>4.5</speed>
<temp>0.00</temp>
<bpm>0</bpm>
<rpm>0.00</rpm>
</extensions>
</trkpt>
<trkpt lat="64.090415955" lon="-21.929458618">
<ele>29.350098</ele>
<time>2012-07-28T20:33:21Z</time>
<speed>4.710000</speed>
<extensions>
<speed>4.7</speed>
<temp>0.00</temp>
<bpm>0</bpm>
<rpm>0.00</rpm>
</extensions>
</trkpt>
<trkpt lat="64.090545654" lon="-21.929121017">
<ele>29.231934</ele>
<time>2012-07-28T20:33:26Z</time>
<speed>4.160000</speed>
<extensions>
<speed>4.2</speed>
<temp>0.00</temp>
<bpm>0</bpm>
<rpm>0.00</rpm>
</extensions>
</trkpt>
<trkpt lat="64.090667725" lon="-21.928760529">
<ele>28.513672</ele>
<time>2012-07-28T20:33:31Z</time>
<speed>4.380000</speed>
<extensions>
<speed>4.4</speed>
<temp>0.00</temp>
<bpm>0</bpm>
<rpm>0.00</rpm>
</extensions>
</trkpt>
<trkpt lat="64.090782166" lon="-21.928392410">
<ele>27.472656</ele>
<time>2012-07-28T20:33:36Z</time>
<speed>4.540000</speed>
<extensions>
<speed>4.5</speed>
<temp>0.00</temp>
<bpm>0</bpm>
<rpm>0.00</rpm>
</extensions>
</trkpt>
<trkpt lat="64.090927124" lon="-21.928033829">
<ele>26.395020</ele>
<time>2012-07-28T20:33:41Z</time>
<speed>4.980000</speed>
<extensions>
<speed>5.0</speed>
<temp>0.00</temp>
<bpm>0</bpm>
<rpm>0.00</rpm>
</extensions>
</trkpt>
<trkpt lat="64.091079712" lon="-21.927631378">
<ele>25.271973</ele>
<time>2012-07-28T20:33:46Z</time>
<speed>5.520000</speed>
<extensions>
<speed>5.5</speed>
<temp>0.00</temp>
<bpm>0</bpm>
<rpm>0.00</rpm>
</extensions>
</trkpt>
<trkpt lat="64.091285706" lon="-21.927225113">
<ele>24.433105</ele>
<time>2012-07-28T20:33:51Z</time>
<speed>6.290000</speed>
<extensions>
<speed>6.3</speed>
<temp>0.00</temp>
<bpm>0</bpm>
<rpm>0.00</rpm>
</extensions>
</trkpt>
<trkpt lat="64.091514587" lon="-21.926790237">
<ele>23.670898</ele>
<time>2012-07-28T20:33:56Z</time>
<speed>7.190000</speed>
<extensions>
<speed>7.2</speed>
<temp>0.00</temp>
<bpm>0</bpm>
<rpm>0.00</rpm>
</extensions>
</trkpt>
<trkpt lat="64.091796875" lon="-21.926351547">
<ele>19.958008</ele>
<time>2012-07-28T20:34:01Z</time>
<speed>7.510000</speed>
<extensions>
<speed>7.5</speed>
<temp>0.00</temp>
<bpm>0</bpm>
<rpm>0.00</rpm>
</extensions>
</trkpt>
<trkpt lat="64.092086792" lon="-21.925962448">
<ele>17.351563</ele>
<time>2012-07-28T20:34:06Z</time>
<speed>7.440000</speed>
<extensions>
<speed>7.4</speed>
<temp>0.00</temp>
<bpm>0</bpm>
<rpm>0.00</rpm>
</extensions>
</trkpt>
<trkpt lat="64.092407227" lon="-21.925621033">
<ele>18.123535</ele>
<time>2012-07-28T20:34:11Z</time>
<speed>7.810000</speed>
<extensions>
<speed>7.8</speed>
<temp>0.00</temp>
<bpm>0</bpm>
<rpm>0.00</rpm>
</extensions>
</trkpt>
<trkpt lat="64.092727661" lon="-21.925254822">
<ele>17.950195</ele>
<time>2012-07-28T20:34:16Z</time>
<speed>8.230000</speed>
<extensions>
<speed>8.2</speed>
<temp>0.00</temp>
<bpm>0</bpm>
<rpm>0.00</rpm>
</extensions>
</trkpt>
<trkpt lat="64.093070984" lon="-21.924884796">
<ele>18.360352</ele>
<time>2012-07-28T20:34:21Z</time>
<speed>8.610000</speed>
<extensions>
<speed>8.6</speed>
<temp>0.00</temp>
<bpm>0</bpm>
<rpm>0.00</rpm>
</extensions>
</trkpt>
<trkpt lat="64.093421936" lon="-21.924491882">
<ele>18.272949</ele>
<time>2012-07-28T20:34:26Z</time>
<speed>8.590000</speed>
<extensions>
<speed>8.6</speed>
<temp>0.00</temp>
<bpm>0</bpm>
<rpm>0.00</rpm>
</extensions>
</trkpt>
<trkpt lat="64.093757629" lon="-21.924144745">
<ele>17.593750</ele>
<time>2012-07-28T20:34:31Z</time>
<speed>8.230000</speed>
<extensions>
<speed>8.2</speed>
<temp>0.00</temp>
<bpm>0</bpm>
<rpm>0.00</rpm>
</extensions>
</trkpt>
<trkpt lat="64.094085693" lon="-21.923761368">
<ele>16.952148</ele>
<time>2012-07-28T20:34:36Z</time>
<speed>8.190000</speed>
<extensions>
<speed>8.2</speed>
<temp>0.00</temp>
<bpm>0</bpm>
<rpm>0.00</rpm>
</extensions>
</trkpt>
<trkpt lat="64.094429016" lon="-21.923389435">
<ele>15.646729</ele>
<time>2012-07-28T20:34:41Z</time>
<speed>8.740000</speed>
<extensions>
<speed>8.7</speed>
<temp>0.00</temp>
<bpm>0</bpm>
<rpm>0.00</rpm>
</extensions>
</trkpt>
<trkpt lat="64.094795227" lon="-21.923004150">
<ele>16.625977</ele>
<time>2012-07-28T20:34:46Z</time>
<speed>9.000000</speed>
<extensions>
<speed>9.0</speed>
<temp>0.00</temp>
<bpm>0</bpm>
<rpm>0.00</rpm>
</extensions>
</trkpt>
<trkpt lat="64.095161438" lon="-21.922613144">
<ele>14.298584</ele>
<time>2012-07-28T20:34:51Z</time>
<speed>8.790000</speed>
<extensions>
<speed>8.8</speed>
<temp>0.00</temp>
<bpm>0</bpm>
<rpm>0.00</rpm>
</extensions>
</trkpt>
<trkpt lat="64.095512390" lon="-21.922252655">
<ele>13.922852</ele>
<time>2012-07-28T20:34:56Z</time>
<speed>8.330000</speed>
<extensions>
<speed>8.3</speed>
<temp>0.00</temp>
<bpm>0</bpm>
<rpm>0.00</rpm>
</extensions>
</trkpt>
<trkpt lat="64.095832825" lon="-21.921880722">
<ele>12.627686</ele>
<time>2012-07-28T20:35:01Z</time>
<speed>7.690000</speed>
<extensions>
<speed>7.7</speed>
<temp>0.00</temp>
<bpm>0</bpm>
<rpm>0.00</rpm>
</extensions>
</trkpt>
<trkpt lat="64.096122742" lon="-21.921535492">
<ele>12.305176</ele>
<time>2012-07-28T20:35:06Z</time>
<speed>6.990000</speed>
<extensions>
<speed>7.0</speed>
<temp>0.00</temp>
<bpm>0</bpm>
<rpm>0.00</rpm>
</extensions>
</trkpt>
<trkpt lat="64.096397400" lon="-21.921255112">
<ele>12.657471</ele>
<time>2012-07-28T20:35:11Z</time>
<speed>6.500000</speed>
<extensions>
<speed>6.5</speed>
<temp>0.00</temp>
<bpm>0</bpm>
<rpm>0.00</rpm>
</extensions>
</trkpt>
<trkpt lat="64.096641541" lon="-21.920980453">
<ele>12.362549</ele>
<time>2012-07-28T20:35:16Z</time>
<speed>6.210000</speed>
<extensions>
<speed>6.2</speed>
<temp>0.00</temp>
<bpm>0</bpm>
<rpm>0.00</rpm>
</extensions>
</trkpt>
<trkpt lat="64.096870422" lon="-21.920701981">
<ele>12.714355</ele>
<time>2012-07-28T20:35:21Z</time>
<speed>5.580000</speed>
<extensions>
<speed>5.6</speed>
<temp>0.00</temp>
<bpm>0</bpm>
<rpm>0.00</rpm>
</extensions>
</trkpt>
<trkpt lat="64.097106934" lon="-21.920417786">
<ele>13.324219</ele>
<time>2012-07-28T20:35:26Z</time>
<speed>6.330000</speed>
<extensions>
<speed>6.3</speed>
<temp>0.00</temp>
<bpm>0</bpm>
<rpm>0.00</rpm>
</extensions>
</trkpt>
<trkpt lat="64.097343445" lon="-21.920097351">
<ele>14.113770</ele>
<time>2012-07-28T20:35:31Z</time>
<speed>5.730000</speed>
<extensions>
<speed>5.7</speed>
<temp>0.00</temp>
<bpm>0</bpm>
<rpm>0.00</rpm>
</extensions>
</trkpt>
<trkpt lat="64.097572327" lon="-21.919795990">
<ele>14.514648</ele>
<time>2012-07-28T20:35:36Z</time>
<speed>6.210000</speed>
<extensions>
<speed>6.2</speed>
<temp>0.00</temp>
<bpm>0</bpm>
<rpm>0.00</rpm>
</extensions>
</trkpt>
<trkpt lat="64.097824097" lon="-21.919445038">
<ele>14.905518</ele>
<time>2012-07-28T20:35:41Z</time>
<speed>6.270000</speed>
<extensions>
<speed>6.3</speed>
<temp>0.00</temp>
<bpm>0</bpm>
<rpm>0.00</rpm>
</extensions>
</trkpt>
<trkpt lat="64.098030090" lon="-21.919099808">
<ele>15.474121</ele>
<time>2012-07-28T20:35:46Z</time>
<speed>5.690000</speed>
<extensions>
<speed>5.7</speed>
<temp>0.00</temp>
<bpm>0</bpm>
<rpm>0.00</rpm>
</extensions>
</trkpt>
<trkpt lat="64.098228455" lon="-21.918745041">
<ele>16.245117</ele>
<time>2012-07-28T20:35:51Z</time>
<speed>4.760000</speed>
<extensions>
<speed>4.8</speed>
<temp>0.00</temp>
<bpm>0</bpm>
<rpm>0.00</rpm>
</extensions>
</trkpt>
<trkpt lat="64.098358154" lon="-21.918468475">
<ele>17.772949</ele>
<time>2012-07-28T20:35:56Z</time>
<speed>3.430000</speed>
<extensions>
<speed>3.4</speed>
<temp>0.00</temp>
<bpm>0</bpm>
<rpm>0.00</rpm>
</extensions>
</trkpt>
<trkpt lat="64.098480225" lon="-21.918214798">
<ele>18.145020</ele>
<time>2012-07-28T20:36:01Z</time>
<speed>3.570000</speed>
<extensions>
<speed>3.6</speed>
<temp>0.00</temp>
<bpm>0</bpm>
<rpm>0.00</rpm>
</extensions>
</trkpt>
<trkpt lat="64.098587036" lon="-21.917997360">
<ele>18.516113</ele>
<time>2012-07-28T20:36:06Z</time>
<speed>2.910000</speed>
<extensions>
<speed>2.9</speed>
<temp>0.00</temp>
<bpm>0</bpm>
<rpm>0.00</rpm>
</extensions>
</trkpt>
<trkpt lat="64.098670959" lon="-21.917814255">
<ele>19.544922</ele>
<time>2012-07-28T20:36:11Z</time>
<speed>2.560000</speed>
<extensions>
<speed>2.6</speed>
<temp>0.00</temp>
<bpm>0</bpm>
<rpm>0.00</rpm>
</extensions>
</trkpt>
<trkpt lat="64.098762512" lon="-21.917634964">
<ele>19.926270</ele>
<time>2012-07-28T20:36:16Z</time>
<speed>2.770000</speed>
<extensions>
<speed>2.8</speed>
<temp>0.00</temp>
<bpm>0</bpm>
<rpm>0.00</rpm>
</extensions>
</trkpt>
<trkpt lat="64.098846436" lon="-21.917449951">
<ele>19.460449</ele>
<time>2012-07-28T20:36:21Z</time>
<speed>2.680000</speed>
<extensions>
<speed>2.7</speed>
<temp>0.00</temp>
<bpm>0</bpm>
<rpm>0.00</rpm>
</extensions>
</trkpt>
<trkpt lat="64.098930359" lon="-21.917274475">
<ele>19.292969</ele>
<time>2012-07-28T20:36:26Z</time>
<speed>2.610000</speed>
<extensions>
<speed>2.6</speed>
<temp>0.00</temp>
<bpm>0</bpm>
<rpm>0.00</rpm>
</extensions>
</trkpt>
<trkpt lat="64.099006653" lon="-21.917083740">
<ele>19.216797</ele>
<time>2012-07-28T20:36:31Z</time>
<speed>2.660000</speed>
<extensions>
<speed>2.7</speed>
<temp>0.00</temp>
<bpm>0</bpm>
<rpm>0.00</rpm>
</extensions>
</trkpt>
<trkpt lat="64.099090576" lon="-21.916900635">
<ele>19.095703</ele>
<time>2012-07-28T20:36:36Z</time>
<speed>2.480000</speed>
<extensions>
<speed>2.5</speed>
<temp>0.00</temp>
<bpm>0</bpm>
<rpm>0.00</rpm>
</extensions>
</trkpt>
<trkpt lat="64.099174500" lon="-21.916727066">
<ele>19.670410</ele>
<time>2012-07-28T20:36:41Z</time>
<speed>2.350000</speed>
<extensions>
<speed>2.4</speed>
<temp>0.00</temp>
<bpm>0</bpm>
<rpm>0.00</rpm>
</extensions>
</trkpt>
<trkpt lat="64.099243164" lon="-21.916534424">
<ele>20.083984</ele>
<time>2012-07-28T20:36:46Z</time>
<speed>2.550000</speed>
<extensions>
<speed>2.6</speed>
<temp>0.00</temp>
<bpm>0</bpm>
<rpm>0.00</rpm>
</extensions>
</trkpt>
<trkpt lat="64.099334717" lon="-21.916355133">
<ele>20.987305</ele>
<time>2012-07-28T20:36:51Z</time>
<speed>2.670000</speed>
<extensions>
<speed>2.7</speed>
<temp>0.00</temp>
<bpm>0</bpm>
<rpm>0.00</rpm>
</extensions>
</trkpt>
<trkpt lat="64.099418640" lon="-21.916145325">
<ele>21.317383</ele>
<time>2012-07-28T20:36:56Z</time>
<speed>2.780000</speed>
<extensions>
<speed>2.8</speed>
<temp>0.00</temp>
<bpm>0</bpm>
<rpm>0.00</rpm>
</extensions>
</trkpt>
<trkpt lat="64.099479675" lon="-21.915889740">
<ele>19.211426</ele>
<time>2012-07-28T20:37:01Z</time>
<speed>2.790000</speed>
<extensions>
<speed>2.8</speed>
<temp>0.00</temp>
<bpm>0</bpm>
<rpm>0.00</rpm>
</extensions>
</trkpt>
<trkpt lat="64.099533081" lon="-21.915611267">
<ele>17.112305</ele>
<time>2012-07-28T20:37:06Z</time>
<speed>2.930000</speed>
<extensions>
<speed>2.9</speed>
<temp>0.00</temp>
<bpm>0</bpm>
<rpm>0.00</rpm>
</extensions>
</trkpt>
<trkpt lat="64.099624634" lon="-21.915388107">
<ele>18.107910</ele>
<time>2012-07-28T20:37:11Z</time>
<speed>3.050000</speed>
<extensions>
<speed>3.0</speed>
<temp>0.00</temp>
<bpm>0</bpm>
<rpm>0.00</rpm>
</extensions>
</trkpt>
<trkpt lat="64.099708557" lon="-21.915157318">
<ele>18.484375</ele>
<time>2012-07-28T20:37:16Z</time>
<speed>2.940000</speed>
<extensions>
<speed>2.9</speed>
<temp>0.00</temp>
<bpm>0</bpm>
<rpm>0.00</rpm>
</extensions>
</trkpt>
<trkpt lat="64.099800110" lon="-21.914913177">
<ele>18.121582</ele>
<time>2012-07-28T20:37:21Z</time>
<speed>3.230000</speed>
<extensions>
<speed>3.2</speed>
<temp>0.00</temp>
<bpm>0</bpm>
<rpm>0.00</rpm>
</extensions>
</trkpt>
<trkpt lat="64.099884033" lon="-21.914630890">
<ele>17.717773</ele>
<time>2012-07-28T20:37:26Z</time>
<speed>3.610000</speed>
<extensions>
<speed>3.6</speed>
<temp>0.00</temp>
<bpm>0</bpm>
<rpm>0.00</rpm>
</extensions>
</trkpt>
<trkpt lat="64.099975586" lon="-21.914295197">
<ele>17.010742</ele>
<time>2012-07-28T20:37:31Z</time>
<speed>3.820000</speed>
<extensions>
<speed>3.8</speed>
<temp>0.00</temp>
<bpm>0</bpm>
<rpm>0.00</rpm>
</extensions>
</trkpt>
<trkpt lat="64.100105286" lon="-21.914005280">
<ele>17.835938</ele>
<time>2012-07-28T20:37:36Z</time>
<speed>4.010000</speed>
<extensions>
<speed>4.0</speed>
<temp>0.00</temp>
<bpm>0</bpm>
<rpm>0.00</rpm>
</extensions>
</trkpt>
<trkpt lat="64.100196838" lon="-21.913667679">
<ele>17.907715</ele>
<time>2012-07-28T20:37:41Z</time>
<speed>3.830000</speed>
<extensions>
<speed>3.8</speed>
<temp>0.00</temp>
<bpm>0</bpm>
<rpm>0.00</rpm>
</extensions>
</trkpt>
<trkpt lat="64.100296021" lon="-21.913347244">
<ele>19.858887</ele>
<time>2012-07-28T20:37:46Z</time>
<speed>3.720000</speed>
<extensions>
<speed>3.7</speed>
<temp>0.00</temp>
<bpm>0</bpm>
<rpm>0.00</rpm>
</extensions>
</trkpt>
<trkpt lat="64.100387573" lon="-21.913034439">
<ele>20.731934</ele>
<time>2012-07-28T20:37:51Z</time>
<speed>3.820000</speed>
<extensions>
<speed>3.8</speed>
<temp>0.00</temp>
<bpm>0</bpm>
<rpm>0.00</rpm>
</extensions>
</trkpt>
<trkpt lat="64.100486755" lon="-21.912714005">
<ele>22.667480</ele>
<time>2012-07-28T20:37:56Z</time>
<speed>3.930000</speed>
<extensions>
<speed>3.9</speed>
<temp>0.00</temp>
<bpm>0</bpm>
<rpm>0.00</rpm>
</extensions>
</trkpt>
<trkpt lat="64.100585938" lon="-21.912364960">
<ele>23.216797</ele>
<time>2012-07-28T20:38:01Z</time>
<speed>4.180000</speed>
<extensions>
<speed>4.2</speed>
<temp>0.00</temp>
<bpm>0</bpm>
<rpm>0.00</rpm>
</extensions>
</trkpt>
<trkpt lat="64.100692749" lon="-21.911985397">
<ele>23.141602</ele>
<time>2012-07-28T20:38:06Z</time>
<speed>4.550000</speed>
<extensions>
<speed>4.5</speed>
<temp>0.00</temp>
<bpm>0</bpm>
<rpm>0.00</rpm>
</extensions>
</trkpt>
<trkpt lat="64.100799561" lon="-21.911558151">
<ele>22.967285</ele>
<time>2012-07-28T20:38:11Z</time>
<speed>4.880000</speed>
<extensions>
<speed>4.9</speed>
<temp>0.00</temp>
<bpm>0</bpm>
<rpm>0.00</rpm>
</extensions>
</trkpt>
<trkpt lat="64.100921631" lon="-21.911098480">
<ele>21.808105</ele>
<time>2012-07-28T20:38:16Z</time>
<speed>5.580000</speed>
<extensions>
<speed>5.6</speed>
<temp>0.00</temp>
<bpm>0</bpm>
<rpm>0.00</rpm>
</extensions>
</trkpt>
<trkpt lat="64.101066589" lon="-21.910583496">
<ele>21.624512</ele>
<time>2012-07-28T20:38:21Z</time>
<speed>6.460000</speed>
<extensions>
<speed>6.5</speed>
<temp>0.00</temp>
<bpm>0</bpm>
<rpm>0.00</rpm>
</extensions>
</trkpt>
<trkpt lat="64.101219177" lon="-21.909923553">
<ele>19.677246</ele>
<time>2012-07-28T20:38:26Z</time>
<speed>7.590000</speed>
<extensions>
<speed>7.6</speed>
<temp>0.00</temp>
<bpm>0</bpm>
<rpm>0.00</rpm>
</extensions>
</trkpt>
<trkpt lat="64.101387024" lon="-21.909181595">
<ele>17.860840</ele>
<time>2012-07-28T20:38:31Z</time>
<speed>8.480000</speed>
<extensions>
<speed>8.5</speed>
<temp>0.00</temp>
<bpm>0</bpm>
<rpm>0.00</rpm>
</extensions>
</trkpt>
<trkpt lat="64.101593018" lon="-21.908405304">
<ele>16.607422</ele>
<time>2012-07-28T20:38:36Z</time>
<speed>9.130000</speed>
<extensions>
<speed>9.1</speed>
<temp>0.00</temp>
<bpm>0</bpm>
<rpm>0.00</rpm>
</extensions>
</trkpt>
<trkpt lat="64.101821899" lon="-21.907585144">
<ele>14.633789</ele>
<time>2012-07-28T20:38:41Z</time>
<speed>9.540000</speed>
<extensions>
<speed>9.5</speed>
<temp>0.00</temp>
<bpm>0</bpm>
<rpm>0.00</rpm>
</extensions>
</trkpt>
<trkpt lat="64.102066040" lon="-21.906774521">
<ele>13.323730</ele>
<time>2012-07-28T20:38:46Z</time>
<speed>9.560000</speed>
<extensions>
<speed>9.6</speed>
<temp>0.00</temp>
<bpm>0</bpm>
<rpm>0.00</rpm>
</extensions>
</trkpt>
<trkpt lat="64.102340698" lon="-21.906034470">
<ele>11.323486</ele>
<time>2012-07-28T20:38:51Z</time>
<speed>9.260000</speed>
<extensions>
<speed>9.3</speed>
<temp>0.00</temp>
<bpm>0</bpm>
<rpm>0.00</rpm>
</extensions>
</trkpt>
<trkpt lat="64.102645874" lon="-21.905422211">
<ele>11.165283</ele>
<time>2012-07-28T20:38:56Z</time>
<speed>8.810000</speed>
<extensions>
<speed>8.8</speed>
<temp>0.00</temp>
<bpm>0</bpm>
<rpm>0.00</rpm>
</extensions>
</trkpt>
<trkpt lat="64.102951050" lon="-21.904916763">
<ele>9.932129</ele>
<time>2012-07-28T20:39:01Z</time>
<speed>8.260000</speed>
<extensions>
<speed>8.3</speed>
<temp>0.00</temp>
<bpm>0</bpm>
<rpm>0.00</rpm>
</extensions>
</trkpt>
<trkpt lat="64.103263855" lon="-21.904491425">
<ele>8.791992</ele>
<time>2012-07-28T20:39:06Z</time>
<speed>7.980000</speed>
<extensions>
<speed>8.0</speed>
<temp>0.00</temp>
<bpm>0</bpm>
<rpm>0.00</rpm>
</extensions>
</trkpt>
<trkpt lat="64.103576660" lon="-21.904146194">
<ele>8.374268</ele>
<time>2012-07-28T20:39:11Z</time>
<speed>7.860000</speed>
<extensions>
<speed>7.9</speed>
<temp>0.00</temp>
<bpm>0</bpm>
<rpm>0.00</rpm>
</extensions>
</trkpt>
<trkpt lat="64.103889465" lon="-21.903846741">
<ele>7.720215</ele>
<time>2012-07-28T20:39:16Z</time>
<speed>6.930000</speed>
<extensions>
<speed>6.9</speed>
<temp>0.00</temp>
<bpm>0</bpm>
<rpm>0.00</rpm>
</extensions>
</trkpt>
<trkpt lat="64.104179382" lon="-21.903665543">
<ele>8.553467</ele>
<time>2012-07-28T20:39:21Z</time>
<speed>6.450000</speed>
<extensions>
<speed>6.4</speed>
<temp>0.00</temp>
<bpm>0</bpm>
<rpm>0.00</rpm>
</extensions>
</trkpt>
<trkpt lat="64.104454041" lon="-21.903554916">
<ele>9.125000</ele>
<time>2012-07-28T20:39:26Z</time>
<speed>5.760000</speed>
<extensions>
<speed>5.8</speed>
<temp>0.00</temp>
<bpm>0</bpm>
<rpm>0.00</rpm>
</extensions>
</trkpt>
<trkpt lat="64.104698181" lon="-21.903484344">
<ele>9.354736</ele>
<time>2012-07-28T20:39:31Z</time>
<speed>5.260000</speed>
<extensions>
<speed>5.3</speed>
<temp>0.00</temp>
<bpm>0</bpm>
<rpm>0.00</rpm>
</extensions>
</trkpt>
<trkpt lat="64.104919434" lon="-21.903448105">
<ele>10.154053</ele>
<time>2012-07-28T20:39:36Z</time>
<speed>4.540000</speed>
<extensions>
<speed>4.5</speed>
<temp>0.00</temp>
<bpm>0</bpm>
<rpm>0.00</rpm>
</extensions>
</trkpt>
<trkpt lat="64.105125427" lon="-21.903448105">
<ele>10.673096</ele>
<time>2012-07-28T20:39:41Z</time>
<speed>4.370000</speed>
<extensions>
<speed>4.4</speed>
<temp>0.00</temp>
<bpm>0</bpm>
<rpm>0.00</rpm>
</extensions>
</trkpt>
<trkpt lat="64.105308533" lon="-21.903465271">
<ele>11.288086</ele>
<time>2012-07-28T20:39:46Z</time>
<speed>4.260000</speed>
<extensions>
<speed>4.3</speed>
<temp>0.00</temp>
<bpm>0</bpm>
<rpm>0.00</rpm>
</extensions>
</trkpt>
<trkpt lat="64.105491638" lon="-21.903497696">
<ele>12.439453</ele>
<time>2012-07-28T20:39:51Z</time>
<speed>3.410000</speed>
<extensions>
<speed>3.4</speed>
<temp>0.00</temp>
<bpm>0</bpm>
<rpm>0.00</rpm>
</extensions>
</trkpt>
<trkpt lat="64.105628967" lon="-21.903530121">
<ele>12.817871</ele>
<time>2012-07-28T20:39:56Z</time>
<speed>2.970000</speed>
<extensions>
<speed>3.0</speed>
<temp>0.00</temp>
<bpm>0</bpm>
<rpm>0.00</rpm>
</extensions>
</trkpt>
<trkpt lat="64.105743408" lon="-21.903566360">
<ele>13.769531</ele>
<time>2012-07-28T20:40:01Z</time>
<speed>2.500000</speed>
<extensions>
<speed>2.5</speed>
<temp>0.00</temp>
<bpm>0</bpm>
<rpm>0.00</rpm>
</extensions>
</trkpt>
<trkpt lat="64.105842590" lon="-21.903629303">
<ele>13.835938</ele>
<time>2012-07-28T20:40:06Z</time>
<speed>2.290000</speed>
<extensions>
<speed>2.3</speed>
<temp>0.00</temp>
<bpm>0</bpm>
<rpm>0.00</rpm>
</extensions>
</trkpt>
<trkpt lat="64.105941772" lon="-21.903661728">
<ele>14.056641</ele>
<time>2012-07-28T20:40:11Z</time>
<speed>2.090000</speed>
<extensions>
<speed>2.1</speed>
<temp>0.00</temp>
<bpm>0</bpm>
<rpm>0.00</rpm>
</extensions>
</trkpt>
<trkpt lat="64.106025696" lon="-21.903717041">
<ele>13.954834</ele>
<time>2012-07-28T20:40:16Z</time>
<speed>1.900000</speed>
<extensions>
<speed>1.9</speed>
<temp>0.00</temp>
<bpm>0</bpm>
<rpm>0.00</rpm>
</extensions>
</trkpt>
<trkpt lat="64.106094360" lon="-21.903774261">
<ele>14.612061</ele>
<time>2012-07-28T20:40:21Z</time>
<speed>1.750000</speed>
<extensions>
<speed>1.8</speed>
<temp>0.00</temp>
<bpm>0</bpm>
<rpm>0.00</rpm>
</extensions>
</trkpt>
<trkpt lat="64.106178284" lon="-21.903827667">
<ele>15.128906</ele>
<time>2012-07-28T20:40:26Z</time>
<speed>2.480000</speed>
<extensions>
<speed>2.5</speed>
<temp>0.00</temp>
<bpm>0</bpm>
<rpm>0.00</rpm>
</extensions>
</trkpt>
<trkpt lat="64.106239319" lon="-21.903905869">
<ele>16.000488</ele>
<time>2012-07-28T20:40:31Z</time>
<speed>1.660000</speed>
<extensions>
<speed>1.7</speed>
<temp>0.00</temp>
<bpm>0</bpm>
<rpm>0.00</rpm>
</extensions>
</trkpt>
<trkpt lat="64.106307983" lon="-21.903997421">
<ele>16.370117</ele>
<time>2012-07-28T20:40:36Z</time>
<speed>1.950000</speed>
<extensions>
<speed>1.9</speed>
<temp>0.00</temp>
<bpm>0</bpm>
<rpm>0.00</rpm>
</extensions>
</trkpt>
<trkpt lat="64.106384277" lon="-21.904115677">
<ele>18.108398</ele>
<time>2012-07-28T20:40:41Z</time>
<speed>1.400000</speed>
<extensions>
<speed>1.4</speed>
<temp>0.00</temp>
<bpm>0</bpm>
<rpm>0.00</rpm>
</extensions>
</trkpt>
<trkpt lat="64.106468201" lon="-21.904165268">
<ele>18.323730</ele>
<time>2012-07-28T20:40:46Z</time>
<speed>2.740000</speed>
<extensions>
<speed>2.7</speed>
<temp>0.00</temp>
<bpm>0</bpm>
<rpm>0.00</rpm>
</extensions>
</trkpt>
<trkpt lat="64.106575012" lon="-21.904254913">
<ele>18.902832</ele>
<time>2012-07-28T20:40:51Z</time>
<speed>1.950000</speed>
<extensions>
<speed>1.9</speed>
<temp>0.00</temp>
<bpm>0</bpm>
<rpm>0.00</rpm>
</extensions>
</trkpt>
<trkpt lat="64.106651306" lon="-21.904325485">
<ele>19.871582</ele>
<time>2012-07-28T20:40:56Z</time>
<speed>2.170000</speed>
<extensions>
<speed>2.2</speed>
<temp>0.00</temp>
<bpm>0</bpm>
<rpm>0.00</rpm>
</extensions>
</trkpt>
<trkpt lat="64.106742859" lon="-21.904459000">
<ele>20.067871</ele>
<time>2012-07-28T20:41:01Z</time>
<speed>2.970000</speed>
<extensions>
<speed>3.0</speed>
<temp>0.00</temp>
<bpm>0</bpm>
<rpm>0.00</rpm>
</extensions>
</trkpt>
<trkpt lat="64.106842041" lon="-21.904609680">
<ele>20.574707</ele>
<time>2012-07-28T20:41:06Z</time>
<speed>2.490000</speed>
<extensions>
<speed>2.5</speed>
<temp>0.00</temp>
<bpm>0</bpm>
<rpm>0.00</rpm>
</extensions>
</trkpt>
<trkpt lat="64.106925964" lon="-21.904727936">
<ele>21.263672</ele>
<time>2012-07-28T20:41:11Z</time>
<speed>2.340000</speed>
<extensions>
<speed>2.3</speed>
<temp>0.00</temp>
<bpm>0</bpm>
<rpm>0.00</rpm>
</extensions>
</trkpt>
<trkpt lat="64.107017517" lon="-21.904832840">
<ele>21.750977</ele>
<time>2012-07-28T20:41:16Z</time>
<speed>2.330000</speed>
<extensions>
<speed>2.3</speed>
<temp>0.00</temp>
<bpm>0</bpm>
<rpm>0.00</rpm>
</extensions>
</trkpt>
<trkpt lat="64.107124329" lon="-21.904937744">
<ele>22.128418</ele>
<time>2012-07-28T20:41:21Z</time>
<speed>2.660000</speed>
<extensions>
<speed>2.7</speed>
<temp>0.00</temp>
<bpm>0</bpm>
<rpm>0.00</rpm>
</extensions>
</trkpt>
<trkpt lat="64.107231140" lon="-21.905042648">
<ele>22.649902</ele>
<time>2012-07-28T20:41:26Z</time>
<speed>2.450000</speed>
<extensions>
<speed>2.4</speed>
<temp>0.00</temp>
<bpm>0</bpm>
<rpm>0.00</rpm>
</extensions>
</trkpt>
<trkpt lat="64.107337952" lon="-21.905143738">
<ele>22.999023</ele>
<time>2012-07-28T20:41:31Z</time>
<speed>2.570000</speed>
<extensions>
<speed>2.6</speed>
<temp>0.00</temp>
<bpm>0</bpm>
<rpm>0.00</rpm>
</extensions>
</trkpt>
<trkpt lat="64.107437134" lon="-21.905241013">
<ele>23.940430</ele>
<time>2012-07-28T20:41:36Z</time>
<speed>2.350000</speed>
<extensions>
<speed>2.4</speed>
<temp>0.00</temp>
<bpm>0</bpm>
<rpm>0.00</rpm>
</extensions>
</trkpt>
<trkpt lat="64.107528687" lon="-21.905336380">
<ele>25.300781</ele>
<time>2012-07-28T20:41:41Z</time>
<speed>2.240000</speed>
<extensions>
<speed>2.2</speed>
<temp>0.00</temp>
<bpm>0</bpm>
<rpm>0.00</rpm>
</extensions>
</trkpt>
<trkpt lat="64.107627869" lon="-21.905431747">
<ele>25.325195</ele>
<time>2012-07-28T20:41:46Z</time>
<speed>2.390000</speed>
<extensions>
<speed>2.4</speed>
<temp>0.00</temp>
<bpm>0</bpm>
<rpm>0.00</rpm>
</extensions>
</trkpt>
<trkpt lat="64.107719421" lon="-21.905534744">
<ele>26.832520</ele>
<time>2012-07-28T20:41:51Z</time>
<speed>2.230000</speed>
<extensions>
<speed>2.2</speed>
<temp>0.00</temp>
<bpm>0</bpm>
<rpm>0.00</rpm>
</extensions>
</trkpt>
<trkpt lat="64.107803345" lon="-21.905637741">
<ele>27.417969</ele>
<time>2012-07-28T20:41:56Z</time>
<speed>2.190000</speed>
<extensions>
<speed>2.2</speed>
<temp>0.00</temp>
<bpm>0</bpm>
<rpm>0.00</rpm>
</extensions>
</trkpt>
<trkpt lat="64.107902527" lon="-21.905727386">
<ele>26.560059</ele>
<time>2012-07-28T20:42:01Z</time>
<speed>2.360000</speed>
<extensions>
<speed>2.4</speed>
<temp>0.00</temp>
<bpm>0</bpm>
<rpm>0.00</rpm>
</extensions>
</trkpt>
<trkpt lat="64.108001709" lon="-21.905828476">
<ele>26.822754</ele>
<time>2012-07-28T20:42:06Z</time>
<speed>2.280000</speed>
<extensions>
<speed>2.3</speed>
<temp>0.00</temp>
<bpm>0</bpm>
<rpm>0.00</rpm>
</extensions>
</trkpt>
<trkpt lat="64.108093262" lon="-21.905927658">
<ele>27.650391</ele>
<time>2012-07-28T20:42:11Z</time>
<speed>2.330000</speed>
<extensions>
<speed>2.3</speed>
<temp>0.00</temp>
<bpm>0</bpm>
<rpm>0.00</rpm>
</extensions>
</trkpt>
<trkpt lat="64.108192444" lon="-21.906011581">
<ele>27.273438</ele>
<time>2012-07-28T20:42:16Z</time>
<speed>2.420000</speed>
<extensions>
<speed>2.4</speed>
<temp>0.00</temp>
<bpm>0</bpm>
<rpm>0.00</rpm>
</extensions>
</trkpt>
<trkpt lat="64.108291626" lon="-21.906116486">
<ele>28.171387</ele>
<time>2012-07-28T20:42:21Z</time>
<speed>2.410000</speed>
<extensions>
<speed>2.4</speed>
<temp>0.00</temp>
<bpm>0</bpm>
<rpm>0.00</rpm>
</extensions>
</trkpt>
<trkpt lat="64.108398438" lon="-21.906225204">
<ele>29.072266</ele>
<time>2012-07-28T20:42:26Z</time>
<speed>2.660000</speed>
<extensions>
<speed>2.7</speed>
<temp>0.00</temp>
<bpm>0</bpm>
<rpm>0.00</rpm>
</extensions>
</trkpt>
<trkpt lat="64.108505249" lon="-21.906339645">
<ele>30.437500</ele>
<time>2012-07-28T20:42:31Z</time>
<speed>2.590000</speed>
<extensions>
<speed>2.6</speed>
<temp>0.00</temp>
<bpm>0</bpm>
<rpm>0.00</rpm>
</extensions>
</trkpt>
<trkpt lat="64.108612061" lon="-21.906446457">
<ele>31.481934</ele>
<time>2012-07-28T20:42:36Z</time>
<speed>2.550000</speed>
<extensions>
<speed>2.6</speed>
<temp>0.00</temp>
<bpm>0</bpm>
<rpm>0.00</rpm>
</extensions>
</trkpt>
<trkpt lat="64.108734131" lon="-21.906530380">
<ele>32.749023</ele>
<time>2012-07-28T20:42:41Z</time>
<speed>2.800000</speed>
<extensions>
<speed>2.8</speed>
<temp>0.00</temp>
<bpm>0</bpm>
<rpm>0.00</rpm>
</extensions>
</trkpt>
<trkpt lat="64.108856201" lon="-21.906637192">
<ele>33.553711</ele>
<time>2012-07-28T20:42:46Z</time>
<speed>2.770000</speed>
<extensions>
<speed>2.8</speed>
<temp>0.00</temp>
<bpm>0</bpm>
<rpm>0.00</rpm>
</extensions>
</trkpt>
<trkpt lat="64.108978271" lon="-21.906764984">
<ele>34.382813</ele>
<time>2012-07-28T20:42:51Z</time>
<speed>3.660000</speed>
<extensions>
<speed>3.7</speed>
<temp>0.00</temp>
<bpm>0</bpm>
<rpm>0.00</rpm>
</extensions>
</trkpt>
<trkpt lat="64.109115601" lon="-21.906900406">
<ele>34.803711</ele>
<time>2012-07-28T20:42:56Z</time>
<speed>3.370000</speed>
<extensions>
<speed>3.4</speed>
<temp>0.00</temp>
<bpm>0</bpm>
<rpm>0.00</rpm>
</extensions>
</trkpt>
<trkpt lat="64.109245300" lon="-21.907028198">
<ele>34.970703</ele>
<time>2012-07-28T20:43:01Z</time>
<speed>3.010000</speed>
<extensions>
<speed>3.0</speed>
<temp>0.00</temp>
<bpm>0</bpm>
<rpm>0.00</rpm>
</extensions>
</trkpt>
<trkpt lat="64.109367371" lon="-21.907135010">
<ele>36.316406</ele>
<time>2012-07-28T20:43:06Z</time>
<speed>2.920000</speed>
<extensions>
<speed>2.9</speed>
<temp>0.00</temp>
<bpm>0</bpm>
<rpm>0.00</rpm>
</extensions>
</trkpt>
<trkpt lat="64.109504700" lon="-21.907270432">
<ele>36.778320</ele>
<time>2012-07-28T20:43:11Z</time>
<speed>3.640000</speed>
<extensions>
<speed>3.6</speed>
<temp>0.00</temp>
<bpm>0</bpm>
<rpm>0.00</rpm>
</extensions>
</trkpt>
<trkpt lat="64.109649658" lon="-21.907394409">
<ele>37.283203</ele>
<time>2012-07-28T20:43:16Z</time>
<speed>3.210000</speed>
<extensions>
<speed>3.2</speed>
<temp>0.00</temp>
<bpm>0</bpm>
<rpm>0.00</rpm>
</extensions>
</trkpt>
<trkpt lat="64.109786987" lon="-21.907472610">
<ele>37.695313</ele>
<time>2012-07-28T20:43:21Z</time>
<speed>3.150000</speed>
<extensions>
<speed>3.2</speed>
<temp>0.00</temp>
<bpm>0</bpm>
<rpm>0.00</rpm>
</extensions>
</trkpt>
<trkpt lat="64.109924316" lon="-21.907548904">
<ele>38.617188</ele>
<time>2012-07-28T20:43:26Z</time>
<speed>3.020000</speed>
<extensions>
<speed>3.0</speed>
<temp>0.00</temp>
<bpm>0</bpm>
<rpm>0.00</rpm>
</extensions>
</trkpt>
<trkpt lat="64.110061646" lon="-21.907632828">
<ele>40.791992</ele>
<time>2012-07-28T20:43:31Z</time>
<speed>2.820000</speed>
<extensions>
<speed>2.8</speed>
<temp>0.00</temp>
<bpm>0</bpm>
<rpm>0.00</rpm>
</extensions>
</trkpt>
<trkpt lat="64.110198975" lon="-21.907686234">
<ele>41.059570</ele>
<time>2012-07-28T20:43:36Z</time>
<speed>3.110000</speed>
<extensions>
<speed>3.1</speed>
<temp>0.00</temp>
<bpm>0</bpm>
<rpm>0.00</rpm>
</extensions>
</trkpt>
<trkpt lat="64.110351563" lon="-21.907716751">
<ele>40.826172</ele>
<time>2012-07-28T20:43:41Z</time>
<speed>1.920000</speed>
<extensions>
<speed>1.9</speed>
<temp>0.00</temp>
<bpm>0</bpm>
<rpm>0.00</rpm>
</extensions>
</trkpt>
<trkpt lat="64.110488892" lon="-21.907760620">
<ele>40.317383</ele>
<time>2012-07-28T20:43:46Z</time>
<speed>2.970000</speed>
<extensions>
<speed>3.0</speed>
<temp>0.00</temp>
<bpm>0</bpm>
<rpm>0.00</rpm>
</extensions>
</trkpt>
<trkpt lat="64.110671997" lon="-21.907758713">
<ele>40.735352</ele>
<time>2012-07-28T20:43:51Z</time>
<speed>3.440000</speed>
<extensions>
<speed>3.4</speed>
<temp>0.00</temp>
<bpm>0</bpm>
<rpm>0.00</rpm>
</extensions>
</trkpt>
<trkpt lat="64.110832214" lon="-21.907754898">
<ele>40.496094</ele>
<time>2012-07-28T20:43:56Z</time>
<speed>3.370000</speed>
<extensions>
<speed>3.4</speed>
<temp>0.00</temp>
<bpm>0</bpm>
<rpm>0.00</rpm>
</extensions>
</trkpt>
<trkpt lat="64.110908508" lon="-21.907712936">
<ele>38.666016</ele>
<time>2012-07-28T20:44:01Z</time>
<speed>0.990000</speed>
<extensions>
<speed>1.0</speed>
<temp>0.00</temp>
<bpm>0</bpm>
<rpm>0.00</rpm>
</extensions>
</trkpt>
<trkpt lat="64.110984802" lon="-21.907606125">
<ele>36.215820</ele>
<time>2012-07-28T20:44:06Z</time>
<speed>2.710000</speed>
<extensions>
<speed>2.7</speed>
<temp>0.00</temp>
<bpm>0</bpm>
<rpm>0.00</rpm>
</extensions>
</trkpt>
<trkpt lat="64.111167908" lon="-21.907341003">
<ele>33.830078</ele>
<time>2012-07-28T20:44:11Z</time>
<speed>4.030000</speed>
<extensions>
<speed>4.0</speed>
<temp>0.00</temp>
<bpm>0</bpm>
<rpm>0.00</rpm>
</extensions>
</trkpt>
<trkpt lat="64.112052917" lon="-21.906778336">
<ele>-14.761230</ele>
<time>2012-07-28T20:44:34Z</time>
<speed>4.690000</speed>
<extensions>
<speed>4.7</speed>
<temp>0.00</temp>
<bpm>0</bpm>
<rpm>0.00</rpm>
</extensions>
</trkpt>
<trkpt lat="64.112251282" lon="-21.906841278">
<ele>19.997559</ele>
<time>2012-07-28T20:44:39Z</time>
<speed>4.840000</speed>
<extensions>
<speed>4.8</speed>
<temp>0.00</temp>
<bpm>0</bpm>
<rpm>0.00</rpm>
</extensions>
</trkpt>
<trkpt lat="64.112442017" lon="-21.906560898">
<ele>19.725586</ele>
<time>2012-07-28T20:44:44Z</time>
<speed>5.580000</speed>
<extensions>
<speed>5.6</speed>
<temp>0.00</temp>
<bpm>0</bpm>
<rpm>0.00</rpm>
</extensions>
</trkpt>
<trkpt lat="64.112648010" lon="-21.906227112">
<ele>22.107910</ele>
<time>2012-07-28T20:44:49Z</time>
<speed>5.710000</speed>
<extensions>
<speed>5.7</speed>
<temp>0.00</temp>
<bpm>0</bpm>
<rpm>0.00</rpm>
</extensions>
</trkpt>
<trkpt lat="64.112876892" lon="-21.905879974">
<ele>25.393066</ele>
<time>2012-07-28T20:44:54Z</time>
<speed>5.850000</speed>
<extensions>
<speed>5.8</speed>
<temp>0.00</temp>
<bpm>0</bpm>
<rpm>0.00</rpm>
</extensions>
</trkpt>
<trkpt lat="64.113075256" lon="-21.905416489">
<ele>29.265137</ele>
<time>2012-07-28T20:44:59Z</time>
<speed>6.360000</speed>
<extensions>
<speed>6.4</speed>
<temp>0.00</temp>
<bpm>0</bpm>
<rpm>0.00</rpm>
</extensions>
</trkpt>
<trkpt lat="64.113281250" lon="-21.904914856">
<ele>32.282227</ele>
<time>2012-07-28T20:45:04Z</time>
<speed>7.040000</speed>
<extensions>
<speed>7.0</speed>
<temp>0.00</temp>
<bpm>0</bpm>
<rpm>0.00</rpm>
</extensions>
</trkpt>
<trkpt lat="64.113487244" lon="-21.904308319">
<ele>33.082031</ele>
<time>2012-07-28T20:45:09Z</time>
<speed>7.720000</speed>
<extensions>
<speed>7.7</speed>
<temp>0.00</temp>
<bpm>0</bpm>
<rpm>0.00</rpm>
</extensions>
</trkpt>
<trkpt lat="64.113708496" lon="-21.903625488">
<ele>31.707520</ele>
<time>2012-07-28T20:45:14Z</time>
<speed>8.700000</speed>
<extensions>
<speed>8.7</speed>
<temp>0.00</temp>
<bpm>0</bpm>
<rpm>0.00</rpm>
</extensions>
</trkpt>
<trkpt lat="64.113960266" lon="-21.902864456">
<ele>30.511719</ele>
<time>2012-07-28T20:45:19Z</time>
<speed>9.280000</speed>
<extensions>
<speed>9.3</speed>
<temp>0.00</temp>
<bpm>0</bpm>
<rpm>0.00</rpm>
</extensions>
</trkpt>
<trkpt lat="64.114212036" lon="-21.902067184">
<ele>29.382324</ele>
<time>2012-07-28T20:45:24Z</time>
<speed>9.660000</speed>
<extensions>
<speed>9.7</speed>
<temp>0.00</temp>
<bpm>0</bpm>
<rpm>0.00</rpm>
</extensions>
</trkpt>
<trkpt lat="64.114479065" lon="-21.901252747">
<ele>27.161133</ele>
<time>2012-07-28T20:45:29Z</time>
<speed>10.010000</speed>
<extensions>
<speed>10.0</speed>
<temp>0.00</temp>
<bpm>0</bpm>
<rpm>0.00</rpm>
</extensions>
</trkpt>
<trkpt lat="64.114753723" lon="-21.900459290">
<ele>24.095215</ele>
<time>2012-07-28T20:45:34Z</time>
<speed>9.880000</speed>
<extensions>
<speed>9.9</speed>
<temp>0.00</temp>
<bpm>0</bpm>
<rpm>0.00</rpm>
</extensions>
</trkpt>
<trkpt lat="64.115089417" lon="-21.899747849">
<ele>20.275391</ele>
<time>2012-07-28T20:45:39Z</time>
<speed>10.460000</speed>
<extensions>
<speed>10.5</speed>
<temp>0.00</temp>
<bpm>0</bpm>
<rpm>0.00</rpm>
</extensions>
</trkpt>
<trkpt lat="64.115478516" lon="-21.899112701">
<ele>16.566895</ele>
<time>2012-07-28T20:45:44Z</time>
<speed>10.790000</speed>
<extensions>
<speed>10.8</speed>
<temp>0.00</temp>
<bpm>0</bpm>
<rpm>0.00</rpm>
</extensions>
</trkpt>
<trkpt lat="64.115913391" lon="-21.898582458">
<ele>14.267822</ele>
<time>2012-07-28T20:45:49Z</time>
<speed>10.430000</speed>
<extensions>
<speed>10.4</speed>
<temp>0.00</temp>
<bpm>0</bpm>
<rpm>0.00</rpm>
</extensions>
</trkpt>
<trkpt lat="64.116348267" lon="-21.898221970">
<ele>12.763184</ele>
<time>2012-07-28T20:45:54Z</time>
<speed>9.900000</speed>
<extensions>
<speed>9.9</speed>
<temp>0.00</temp>
<bpm>0</bpm>
<rpm>0.00</rpm>
</extensions>
</trkpt>
<trkpt lat="64.116767883" lon="-21.898004532">
<ele>12.802002</ele>
<time>2012-07-28T20:45:59Z</time>
<speed>8.930000</speed>
<extensions>
<speed>8.9</speed>
<temp>0.00</temp>
<bpm>0</bpm>
<rpm>0.00</rpm>
</extensions>
</trkpt>
<trkpt lat="64.117134094" lon="-21.897954941">
<ele>12.100830</ele>
<time>2012-07-28T20:46:04Z</time>
<speed>7.750000</speed>
<extensions>
<speed>7.7</speed>
<temp>0.00</temp>
<bpm>0</bpm>
<rpm>0.00</rpm>
</extensions>
</trkpt>
<trkpt lat="64.117477417" lon="-21.897975922">
<ele>12.073486</ele>
<time>2012-07-28T20:46:09Z</time>
<speed>7.840000</speed>
<extensions>
<speed>7.8</speed>
<temp>0.00</temp>
<bpm>0</bpm>
<rpm>0.00</rpm>
</extensions>
</trkpt>
<trkpt lat="64.117820740" lon="-21.898014069">
<ele>12.470703</ele>
<time>2012-07-28T20:46:14Z</time>
<speed>7.670000</speed>
<extensions>
<speed>7.7</speed>
<temp>0.00</temp>
<bpm>0</bpm>
<rpm>0.00</rpm>
</extensions>
</trkpt>
<trkpt lat="64.118148804" lon="-21.898069382">
<ele>14.737061</ele>
<time>2012-07-28T20:46:19Z</time>
<speed>6.800000</speed>
<extensions>
<speed>6.8</speed>
<temp>0.00</temp>
<bpm>0</bpm>
<rpm>0.00</rpm>
</extensions>
</trkpt>
<trkpt lat="64.118431091" lon="-21.898130417">
<ele>15.922119</ele>
<time>2012-07-28T20:46:24Z</time>
<speed>5.830000</speed>
<extensions>
<speed>5.8</speed>
<temp>0.00</temp>
<bpm>0</bpm>
<rpm>0.00</rpm>
</extensions>
</trkpt>
<trkpt lat="64.118690491" lon="-21.898132324">
<ele>17.099609</ele>
<time>2012-07-28T20:46:29Z</time>
<speed>5.940000</speed>
<extensions>
<speed>5.9</speed>
<temp>0.00</temp>
<bpm>0</bpm>
<rpm>0.00</rpm>
</extensions>
</trkpt>
<trkpt lat="64.118957520" lon="-21.898176193">
<ele>17.901367</ele>
<time>2012-07-28T20:46:34Z</time>
<speed>5.860000</speed>
<extensions>
<speed>5.9</speed>
<temp>0.00</temp>
<bpm>0</bpm>
<rpm>0.00</rpm>
</extensions>
</trkpt>
<trkpt lat="64.119216919" lon="-21.898223877">
<ele>18.823730</ele>
<time>2012-07-28T20:46:39Z</time>
<speed>5.910000</speed>
<extensions>
<speed>5.9</speed>
<temp>0.00</temp>
<bpm>0</bpm>
<rpm>0.00</rpm>
</extensions>
</trkpt>
<trkpt lat="64.119483948" lon="-21.898267746">
<ele>19.578125</ele>
<time>2012-07-28T20:46:44Z</time>
<speed>5.490000</speed>
<extensions>
<speed>5.5</speed>
<temp>0.00</temp>
<bpm>0</bpm>
<rpm>0.00</rpm>
</extensions>
</trkpt>
<trkpt lat="64.119712830" lon="-21.898300171">
<ele>19.085449</ele>
<time>2012-07-28T20:46:49Z</time>
<speed>4.830000</speed>
<extensions>
<speed>4.8</speed>
<temp>0.00</temp>
<bpm>0</bpm>
<rpm>0.00</rpm>
</extensions>
</trkpt>
<trkpt lat="64.119934082" lon="-21.898351669">
<ele>18.905273</ele>
<time>2012-07-28T20:46:54Z</time>
<speed>5.000000</speed>
<extensions>
<speed>5.0</speed>
<temp>0.00</temp>
<bpm>0</bpm>
<rpm>0.00</rpm>
</extensions>
</trkpt>
<trkpt lat="64.120140076" lon="-21.898386002">
<ele>18.402832</ele>
<time>2012-07-28T20:46:59Z</time>
<speed>4.210000</speed>
<extensions>
<speed>4.2</speed>
<temp>0.00</temp>
<bpm>0</bpm>
<rpm>0.00</rpm>
</extensions>
</trkpt>
<trkpt lat="64.120323181" lon="-21.898414612">
<ele>17.965820</ele>
<time>2012-07-28T20:47:04Z</time>
<speed>4.030000</speed>
<extensions>
<speed>4.0</speed>
<temp>0.00</temp>
<bpm>0</bpm>
<rpm>0.00</rpm>
</extensions>
</trkpt>
<trkpt lat="64.120498657" lon="-21.898439407">
<ele>17.974609</ele>
<time>2012-07-28T20:47:09Z</time>
<speed>3.520000</speed>
<extensions>
<speed>3.5</speed>
<temp>0.00</temp>
<bpm>0</bpm>
<rpm>0.00</rpm>
</extensions>
</trkpt>
<trkpt lat="64.120651245" lon="-21.898479462">
<ele>18.049316</ele>
<time>2012-07-28T20:47:14Z</time>
<speed>3.560000</speed>
<extensions>
<speed>3.6</speed>
<temp>0.00</temp>
<bpm>0</bpm>
<rpm>0.00</rpm>
</extensions>
</trkpt>
<trkpt lat="64.120796204" lon="-21.898506165">
<ele>18.281738</ele>
<time>2012-07-28T20:47:19Z</time>
<speed>3.210000</speed>
<extensions>
<speed>3.2</speed>
<temp>0.00</temp>
<bpm>0</bpm>
<rpm>0.00</rpm>
</extensions>
</trkpt>
<trkpt lat="64.120933533" lon="-21.898553848">
<ele>20.378418</ele>
<time>2012-07-28T20:47:24Z</time>
<speed>2.900000</speed>
<extensions>
<speed>2.9</speed>
<temp>0.00</temp>
<bpm>0</bpm>
<rpm>0.00</rpm>
</extensions>
</trkpt>
<trkpt lat="64.121063232" lon="-21.898569107">
<ele>21.000000</ele>
<time>2012-07-28T20:47:29Z</time>
<speed>2.760000</speed>
<extensions>
<speed>2.8</speed>
<temp>0.00</temp>
<bpm>0</bpm>
<rpm>0.00</rpm>
</extensions>
</trkpt>
<trkpt lat="64.121185303" lon="-21.898586273">
<ele>22.426270</ele>
<time>2012-07-28T20:47:34Z</time>
<speed>2.910000</speed>
<extensions>
<speed>2.9</speed>
<temp>0.00</temp>
<bpm>0</bpm>
<rpm>0.00</rpm>
</extensions>
</trkpt>
<trkpt lat="64.121307373" lon="-21.898584366">
<ele>23.247070</ele>
<time>2012-07-28T20:47:39Z</time>
<speed>2.780000</speed>
<extensions>
<speed>2.8</speed>
<temp>0.00</temp>
<bpm>0</bpm>
<rpm>0.00</rpm>
</extensions>
</trkpt>
<trkpt lat="64.121421814" lon="-21.898614883">
<ele>23.804199</ele>
<time>2012-07-28T20:47:44Z</time>
<speed>2.650000</speed>
<extensions>
<speed>2.6</speed>
<temp>0.00</temp>
<bpm>0</bpm>
<rpm>0.00</rpm>
</extensions>
</trkpt>
<trkpt lat="64.121536255" lon="-21.898649216">
<ele>24.569336</ele>
<time>2012-07-28T20:47:49Z</time>
<speed>2.580000</speed>
<extensions>
<speed>2.6</speed>
<temp>0.00</temp>
<bpm>0</bpm>
<rpm>0.00</rpm>
</extensions>
</trkpt>
<trkpt lat="64.121643066" lon="-21.898674011">
<ele>25.856445</ele>
<time>2012-07-28T20:47:54Z</time>
<speed>1.620000</speed>
<extensions>
<speed>1.6</speed>
<temp>0.00</temp>
<bpm>0</bpm>
<rpm>0.00</rpm>
</extensions>
</trkpt>
<trkpt lat="64.121757507" lon="-21.898696899">
<ele>26.721680</ele>
<time>2012-07-28T20:47:59Z</time>
<speed>2.900000</speed>
<extensions>
<speed>2.9</speed>
<temp>0.00</temp>
<bpm>0</bpm>
<rpm>0.00</rpm>
</extensions>
</trkpt>
<trkpt lat="64.121871948" lon="-21.898714066">
<ele>27.181152</ele>
<time>2012-07-28T20:48:04Z</time>
<speed>2.040000</speed>
<extensions>
<speed>2.0</speed>
<temp>0.00</temp>
<bpm>0</bpm>
<rpm>0.00</rpm>
</extensions>
</trkpt>
<trkpt lat="64.121978760" lon="-21.898727417">
<ele>28.045410</ele>
<time>2012-07-28T20:48:09Z</time>
<speed>2.610000</speed>
<extensions>
<speed>2.6</speed>
<temp>0.00</temp>
<bpm>0</bpm>
<rpm>0.00</rpm>
</extensions>
</trkpt>
<trkpt lat="64.122108459" lon="-21.898738861">
<ele>28.734863</ele>
<time>2012-07-28T20:48:14Z</time>
<speed>2.290000</speed>
<extensions>
<speed>2.3</speed>
<temp>0.00</temp>
<bpm>0</bpm>
<rpm>0.00</rpm>
</extensions>
</trkpt>
<trkpt lat="64.122200012" lon="-21.898777008">
<ele>28.834961</ele>
<time>2012-07-28T20:48:19Z</time>
<speed>2.050000</speed>
<extensions>
<speed>2.1</speed>
<temp>0.00</temp>
<bpm>0</bpm>
<rpm>0.00</rpm>
</extensions>
</trkpt>
<trkpt lat="64.122283936" lon="-21.898803711">
<ele>28.910645</ele>
<time>2012-07-28T20:48:24Z</time>
<speed>2.030000</speed>
<extensions>
<speed>2.0</speed>
<temp>0.00</temp>
<bpm>0</bpm>
<rpm>0.00</rpm>
</extensions>
</trkpt>
<trkpt lat="64.122367859" lon="-21.898826599">
<ele>30.012695</ele>
<time>2012-07-28T20:48:29Z</time>
<speed>2.240000</speed>
<extensions>
<speed>2.2</speed>
<temp>0.00</temp>
<bpm>0</bpm>
<rpm>0.00</rpm>
</extensions>
</trkpt>
<trkpt lat="64.122459412" lon="-21.898830414">
<ele>30.393555</ele>
<time>2012-07-28T20:48:34Z</time>
<speed>2.130000</speed>
<extensions>
<speed>2.1</speed>
<temp>0.00</temp>
<bpm>0</bpm>
<rpm>0.00</rpm>
</extensions>
</trkpt>
<trkpt lat="64.122558594" lon="-21.898849487">
<ele>30.829590</ele>
<time>2012-07-28T20:48:39Z</time>
<speed>1.960000</speed>
<extensions>
<speed>2.0</speed>
<temp>0.00</temp>
<bpm>0</bpm>
<rpm>0.00</rpm>
</extensions>
</trkpt>
<trkpt lat="64.122642517" lon="-21.898860931">
<ele>31.506348</ele>
<time>2012-07-28T20:48:44Z</time>
<speed>1.950000</speed>
<extensions>
<speed>1.9</speed>
<temp>0.00</temp>
<bpm>0</bpm>
<rpm>0.00</rpm>
</extensions>
</trkpt>
<trkpt lat="64.122734070" lon="-21.898880005">
<ele>31.886719</ele>
<time>2012-07-28T20:48:49Z</time>
<speed>2.460000</speed>
<extensions>
<speed>2.5</speed>
<temp>0.00</temp>
<bpm>0</bpm>
<rpm>0.00</rpm>
</extensions>
</trkpt>
<trkpt lat="64.122825623" lon="-21.898902893">
<ele>32.233398</ele>
<time>2012-07-28T20:48:54Z</time>
<speed>2.020000</speed>
<extensions>
<speed>2.0</speed>
<temp>0.00</temp>
<bpm>0</bpm>
<rpm>0.00</rpm>
</extensions>
</trkpt>
<trkpt lat="64.122917175" lon="-21.898927689">
<ele>32.525391</ele>
<time>2012-07-28T20:48:59Z</time>
<speed>2.160000</speed>
<extensions>
<speed>2.2</speed>
<temp>0.00</temp>
<bpm>0</bpm>
<rpm>0.00</rpm>
</extensions>
</trkpt>
<trkpt lat="64.123008728" lon="-21.898933411">
<ele>31.948242</ele>
<time>2012-07-28T20:49:04Z</time>
<speed>1.920000</speed>
<extensions>
<speed>1.9</speed>
<temp>0.00</temp>
<bpm>0</bpm>
<rpm>0.00</rpm>
</extensions>
</trkpt>
<trkpt lat="64.123100281" lon="-21.898952484">
<ele>32.089844</ele>
<time>2012-07-28T20:49:09Z</time>
<speed>2.120000</speed>
<extensions>
<speed>2.1</speed>
<temp>0.00</temp>
<bpm>0</bpm>
<rpm>0.00</rpm>
</extensions>
</trkpt>
<trkpt lat="64.123191833" lon="-21.898954391">
<ele>32.958984</ele>
<time>2012-07-28T20:49:14Z</time>
<speed>2.100000</speed>
<extensions>
<speed>2.1</speed>
<temp>0.00</temp>
<bpm>0</bpm>
<rpm>0.00</rpm>
</extensions>
</trkpt>
<trkpt lat="64.123283386" lon="-21.898963928">
<ele>33.106445</ele>
<time>2012-07-28T20:49:19Z</time>
<speed>1.880000</speed>
<extensions>
<speed>1.9</speed>
<temp>0.00</temp>
<bpm>0</bpm>
<rpm>0.00</rpm>
</extensions>
</trkpt>
<trkpt lat="64.123374939" lon="-21.898983002">
<ele>34.650391</ele>
<time>2012-07-28T20:49:24Z</time>
<speed>2.050000</speed>
<extensions>
<speed>2.1</speed>
<temp>0.00</temp>
<bpm>0</bpm>
<rpm>0.00</rpm>
</extensions>
</trkpt>
<trkpt lat="64.123466492" lon="-21.899003983">
<ele>34.555664</ele>
<time>2012-07-28T20:49:29Z</time>
<speed>2.010000</speed>
<extensions>
<speed>2.0</speed>
<temp>0.00</temp>
<bpm>0</bpm>
<rpm>0.00</rpm>
</extensions>
</trkpt>
<trkpt lat="64.123542786" lon="-21.899015427">
<ele>35.672852</ele>
<time>2012-07-28T20:49:34Z</time>
<speed>2.030000</speed>
<extensions>
<speed>2.0</speed>
<temp>0.00</temp>
<bpm>0</bpm>
<rpm>0.00</rpm>
</extensions>
</trkpt>
<trkpt lat="64.123641968" lon="-21.899030685">
<ele>35.966797</ele>
<time>2012-07-28T20:49:39Z</time>
<speed>2.100000</speed>
<extensions>
<speed>2.1</speed>
<temp>0.00</temp>
<bpm>0</bpm>
<rpm>0.00</rpm>
</extensions>
</trkpt>
<trkpt lat="64.123733521" lon="-21.899055481">
<ele>36.269531</ele>
<time>2012-07-28T20:49:44Z</time>
<speed>2.040000</speed>
<extensions>
<speed>2.0</speed>
<temp>0.00</temp>
<bpm>0</bpm>
<rpm>0.00</rpm>
</extensions>
</trkpt>
<trkpt lat="64.123832703" lon="-21.899061203">
<ele>37.181641</ele>
<time>2012-07-28T20:49:49Z</time>
<speed>1.910000</speed>
<extensions>
<speed>1.9</speed>
<temp>0.00</temp>
<bpm>0</bpm>
<rpm>0.00</rpm>
</extensions>
</trkpt>
<trkpt lat="64.123924255" lon="-21.899080276">
<ele>37.781250</ele>
<time>2012-07-28T20:49:54Z</time>
<speed>1.920000</speed>
<extensions>
<speed>1.9</speed>
<temp>0.00</temp>
<bpm>0</bpm>
<rpm>0.00</rpm>
</extensions>
</trkpt>
<trkpt lat="64.124008179" lon="-21.899093628">
<ele>37.645508</ele>
<time>2012-07-28T20:49:59Z</time>
<speed>1.950000</speed>
<extensions>
<speed>1.9</speed>
<temp>0.00</temp>
<bpm>0</bpm>
<rpm>0.00</rpm>
</extensions>
</trkpt>
<trkpt lat="64.124099731" lon="-21.899106979">
<ele>37.482422</ele>
<time>2012-07-28T20:50:04Z</time>
<speed>2.040000</speed>
<extensions>
<speed>2.0</speed>
<temp>0.00</temp>
<bpm>0</bpm>
<rpm>0.00</rpm>
</extensions>
</trkpt>
<trkpt lat="64.124191284" lon="-21.899124146">
<ele>37.901367</ele>
<time>2012-07-28T20:50:09Z</time>
<speed>1.840000</speed>
<extensions>
<speed>1.8</speed>
<temp>0.00</temp>
<bpm>0</bpm>
<rpm>0.00</rpm>
</extensions>
</trkpt>
<trkpt lat="64.124267578" lon="-21.899148941">
<ele>38.309570</ele>
<time>2012-07-28T20:50:14Z</time>
<speed>2.000000</speed>
<extensions>
<speed>2.0</speed>
<temp>0.00</temp>
<bpm>0</bpm>
<rpm>0.00</rpm>
</extensions>
</trkpt>
<trkpt lat="64.124366760" lon="-21.899154663">
<ele>38.459961</ele>
<time>2012-07-28T20:50:19Z</time>
<speed>2.210000</speed>
<extensions>
<speed>2.2</speed>
<temp>0.00</temp>
<bpm>0</bpm>
<rpm>0.00</rpm>
</extensions>
</trkpt>
<trkpt lat="64.124458313" lon="-21.899168015">
<ele>38.909180</ele>
<time>2012-07-28T20:50:24Z</time>
<speed>2.180000</speed>
<extensions>
<speed>2.2</speed>
<temp>0.00</temp>
<bpm>0</bpm>
<rpm>0.00</rpm>
</extensions>
</trkpt>
<trkpt lat="64.124557495" lon="-21.899177551">
<ele>39.028320</ele>
<time>2012-07-28T20:50:29Z</time>
<speed>2.030000</speed>
<extensions>
<speed>2.0</speed>
<temp>0.00</temp>
<bpm>0</bpm>
<rpm>0.00</rpm>
</extensions>
</trkpt>
<trkpt lat="64.124649048" lon="-21.899208069">
<ele>38.861328</ele>
<time>2012-07-28T20:50:34Z</time>
<speed>2.150000</speed>
<extensions>
<speed>2.1</speed>
<temp>0.00</temp>
<bpm>0</bpm>
<rpm>0.00</rpm>
</extensions>
</trkpt>
<trkpt lat="64.124748230" lon="-21.899209976">
<ele>39.651367</ele>
<time>2012-07-28T20:50:39Z</time>
<speed>2.000000</speed>
<extensions>
<speed>2.0</speed>
<temp>0.00</temp>
<bpm>0</bpm>
<rpm>0.00</rpm>
</extensions>
</trkpt>
<trkpt lat="64.124839783" lon="-21.899232864">
<ele>40.039063</ele>
<time>2012-07-28T20:50:44Z</time>
<speed>2.150000</speed>
<extensions>
<speed>2.1</speed>
<temp>0.00</temp>
<bpm>0</bpm>
<rpm>0.00</rpm>
</extensions>
</trkpt>
<trkpt lat="64.124931335" lon="-21.899246216">
<ele>40.786133</ele>
<time>2012-07-28T20:50:49Z</time>
<speed>2.160000</speed>
<extensions>
<speed>2.2</speed>
<temp>0.00</temp>
<bpm>0</bpm>
<rpm>0.00</rpm>
</extensions>
</trkpt>
<trkpt lat="64.125022888" lon="-21.899261475">
<ele>40.975586</ele>
<time>2012-07-28T20:50:54Z</time>
<speed>2.070000</speed>
<extensions>
<speed>2.1</speed>
<temp>0.00</temp>
<bpm>0</bpm>
<rpm>0.00</rpm>
</extensions>
</trkpt>
<trkpt lat="64.125114441" lon="-21.899265289">
<ele>42.030273</ele>
<time>2012-07-28T20:50:59Z</time>
<speed>1.990000</speed>
<extensions>
<speed>2.0</speed>
<temp>0.00</temp>
<bpm>0</bpm>
<rpm>0.00</rpm>
</extensions>
</trkpt>
<trkpt lat="64.125221252" lon="-21.899295807">
<ele>42.370117</ele>
<time>2012-07-28T20:51:04Z</time>
<speed>2.600000</speed>
<extensions>
<speed>2.6</speed>
<temp>0.00</temp>
<bpm>0</bpm>
<rpm>0.00</rpm>
</extensions>
</trkpt>
<trkpt lat="64.125343323" lon="-21.899332047">
<ele>42.877930</ele>
<time>2012-07-28T20:51:09Z</time>
<speed>2.910000</speed>
<extensions>
<speed>2.9</speed>
<temp>0.00</temp>
<bpm>0</bpm>
<rpm>0.00</rpm>
</extensions>
</trkpt>
<trkpt lat="64.125473022" lon="-21.899364471">
<ele>43.618164</ele>
<time>2012-07-28T20:51:14Z</time>
<speed>2.770000</speed>
<extensions>
<speed>2.8</speed>
<temp>0.00</temp>
<bpm>0</bpm>
<rpm>0.00</rpm>
</extensions>
</trkpt>
<trkpt lat="64.125595093" lon="-21.899372101">
<ele>44.083984</ele>
<time>2012-07-28T20:51:19Z</time>
<speed>2.530000</speed>
<extensions>
<speed>2.5</speed>
<temp>0.00</temp>
<bpm>0</bpm>
<rpm>0.00</rpm>
</extensions>
</trkpt>
<trkpt lat="64.125709534" lon="-21.899398804">
<ele>44.519531</ele>
<time>2012-07-28T20:51:24Z</time>
<speed>2.420000</speed>
<extensions>
<speed>2.4</speed>
<temp>0.00</temp>
<bpm>0</bpm>
<rpm>0.00</rpm>
</extensions>
</trkpt>
<trkpt lat="64.125808716" lon="-21.899440765">
<ele>45.524414</ele>
<time>2012-07-28T20:51:29Z</time>
<speed>2.480000</speed>
<extensions>
<speed>2.5</speed>
<temp>0.00</temp>
<bpm>0</bpm>
<rpm>0.00</rpm>
</extensions>
</trkpt>
<trkpt lat="64.125915527" lon="-21.899461746">
<ele>46.269531</ele>
<time>2012-07-28T20:51:34Z</time>
<speed>2.420000</speed>
<extensions>
<speed>2.4</speed>
<temp>0.00</temp>
<bpm>0</bpm>
<rpm>0.00</rpm>
</extensions>
</trkpt>
<trkpt lat="64.126014709" lon="-21.899492264">
<ele>47.805664</ele>
<time>2012-07-28T20:51:39Z</time>
<speed>2.880000</speed>
<extensions>
<speed>2.9</speed>
<temp>0.00</temp>
<bpm>0</bpm>
<rpm>0.00</rpm>
</extensions>
</trkpt>
<trkpt lat="64.126129150" lon="-21.899477005">
<ele>45.616211</ele>
<time>2012-07-28T20:51:44Z</time>
<speed>2.390000</speed>
<extensions>
<speed>2.4</speed>
<temp>0.00</temp>
<bpm>0</bpm>
<rpm>0.00</rpm>
</extensions>
</trkpt>
<trkpt lat="64.126243591" lon="-21.899480820">
<ele>46.102539</ele>
<time>2012-07-28T20:51:49Z</time>
<speed>2.560000</speed>
<extensions>
<speed>2.6</speed>
<temp>0.00</temp>
<bpm>0</bpm>
<rpm>0.00</rpm>
</extensions>
</trkpt>
<trkpt lat="64.126365662" lon="-21.899501801">
<ele>47.608398</ele>
<time>2012-07-28T20:51:54Z</time>
<speed>2.740000</speed>
<extensions>
<speed>2.7</speed>
<temp>0.00</temp>
<bpm>0</bpm>
<rpm>0.00</rpm>
</extensions>
</trkpt>
<trkpt lat="64.126495361" lon="-21.899528503">
<ele>47.365234</ele>
<time>2012-07-28T20:51:59Z</time>
<speed>3.290000</speed>
<extensions>
<speed>3.3</speed>
<temp>0.00</temp>
<bpm>0</bpm>
<rpm>0.00</rpm>
</extensions>
</trkpt>
<trkpt lat="64.126647949" lon="-21.899574280">
<ele>47.560547</ele>
<time>2012-07-28T20:52:04Z</time>
<speed>3.330000</speed>
<extensions>
<speed>3.3</speed>
<temp>0.00</temp>
<bpm>0</bpm>
<rpm>0.00</rpm>
</extensions>
</trkpt>
<trkpt lat="64.126792908" lon="-21.899612427">
<ele>46.945313</ele>
<time>2012-07-28T20:52:09Z</time>
<speed>3.260000</speed>
<extensions>
<speed>3.3</speed>
<temp>0.00</temp>
<bpm>0</bpm>
<rpm>0.00</rpm>
</extensions>
</trkpt>
<trkpt lat="64.126945496" lon="-21.899633408">
<ele>47.338867</ele>
<time>2012-07-28T20:52:14Z</time>
<speed>3.470000</speed>
<extensions>
<speed>3.5</speed>
<temp>0.00</temp>
<bpm>0</bpm>
<rpm>0.00</rpm>
</extensions>
</trkpt>
<trkpt lat="64.127120972" lon="-21.899663925">
<ele>47.999023</ele>
<time>2012-07-28T20:52:19Z</time>
<speed>3.820000</speed>
<extensions>
<speed>3.8</speed>
<temp>0.00</temp>
<bpm>0</bpm>
<rpm>0.00</rpm>
</extensions>
</trkpt>
<trkpt lat="64.127296448" lon="-21.899700165">
<ele>47.773438</ele>
<time>2012-07-28T20:52:24Z</time>
<speed>4.130000</speed>
<extensions>
<speed>4.1</speed>
<temp>0.00</temp>
<bpm>0</bpm>
<rpm>0.00</rpm>
</extensions>
</trkpt>
<trkpt lat="64.127479553" lon="-21.899711609">
<ele>48.322266</ele>
<time>2012-07-28T20:52:29Z</time>
<speed>3.940000</speed>
<extensions>
<speed>3.9</speed>
<temp>0.00</temp>
<bpm>0</bpm>
<rpm>0.00</rpm>
</extensions>
</trkpt>
<trkpt lat="64.127655029" lon="-21.899742126">
<ele>48.698242</ele>
<time>2012-07-28T20:52:34Z</time>
<speed>4.170000</speed>
<extensions>
<speed>4.2</speed>
<temp>0.00</temp>
<bpm>0</bpm>
<rpm>0.00</rpm>
</extensions>
</trkpt>
<trkpt lat="64.127830505" lon="-21.899778366">
<ele>49.109375</ele>
<time>2012-07-28T20:52:39Z</time>
<speed>4.440000</speed>
<extensions>
<speed>4.4</speed>
<temp>0.00</temp>
<bpm>0</bpm>
<rpm>0.00</rpm>
</extensions>
</trkpt>
<trkpt lat="64.128028870" lon="-21.899812698">
<ele>49.308594</ele>
<time>2012-07-28T20:52:44Z</time>
<speed>3.850000</speed>
<extensions>
<speed>3.8</speed>
<temp>0.00</temp>
<bpm>0</bpm>
<rpm>0.00</rpm>
</extensions>
</trkpt>
<trkpt lat="64.128189087" lon="-21.899820328">
<ele>49.186523</ele>
<time>2012-07-28T20:52:49Z</time>
<speed>3.580000</speed>
<extensions>
<speed>3.6</speed>
<temp>0.00</temp>
<bpm>0</bpm>
<rpm>0.00</rpm>
</extensions>
</trkpt>
<trkpt lat="64.128356934" lon="-21.899814606">
<ele>48.372070</ele>
<time>2012-07-28T20:52:54Z</time>
<speed>3.500000</speed>
<extensions>
<speed>3.5</speed>
<temp>0.00</temp>
<bpm>0</bpm>
<rpm>0.00</rpm>
</extensions>
</trkpt>
<trkpt lat="64.128501892" lon="-21.899848938">
<ele>47.632813</ele>
<time>2012-07-28T20:52:59Z</time>
<speed>3.080000</speed>
<extensions>
<speed>3.1</speed>
<temp>0.00</temp>
<bpm>0</bpm>
<rpm>0.00</rpm>
</extensions>
</trkpt>
<trkpt lat="64.128608704" lon="-21.899824142">
<ele>47.233398</ele>
<time>2012-07-28T20:53:04Z</time>
<speed>1.920000</speed>
<extensions>
<speed>1.9</speed>
<temp>0.00</temp>
<bpm>0</bpm>
<rpm>0.00</rpm>
</extensions>
</trkpt>
<trkpt lat="64.128616333" lon="-21.899826050">
<ele>47.132813</ele>
<time>2012-07-28T20:53:09Z</time>
<speed>0.020000</speed>
<extensions>
<speed>0.0</speed>
<temp>0.00</temp>
<bpm>0</bpm>
<rpm>0.00</rpm>
</extensions>
</trkpt>
<trkpt lat="64.128616333" lon="-21.899826050">
<ele>46.990234</ele>
<time>2012-07-28T20:53:14Z</time>
<extensions>
<speed>0.0</speed>
<temp>0.00</temp>
<bpm>0</bpm>
<rpm>0.00</rpm>
</extensions>
</trkpt>
<trkpt lat="64.128616333" lon="-21.899826050">
<ele>46.954102</ele>
<time>2012-07-28T20:53:19Z</time>
<extensions>
<speed>0.0</speed>
<temp>0.00</temp>
<bpm>0</bpm>
<rpm>0.00</rpm>
</extensions>
</trkpt>
<trkpt lat="64.128616333" lon="-21.899826050">
<ele>46.942383</ele>
<time>2012-07-28T20:53:24Z</time>
<speed>0.010000</speed>
<extensions>
<speed>0.0</speed>
<temp>0.00</temp>
<bpm>0</bpm>
<rpm>0.00</rpm>
</extensions>
</trkpt>
<trkpt lat="64.128616333" lon="-21.899826050">
<ele>46.964844</ele>
<time>2012-07-28T20:53:29Z</time>
<extensions>
<speed>0.0</speed>
<temp>0.00</temp>
<bpm>0</bpm>
<rpm>0.00</rpm>
</extensions>
</trkpt>
<trkpt lat="64.128616333" lon="-21.899826050">
<ele>46.960938</ele>
<time>2012-07-28T20:53:34Z</time>
<extensions>
<speed>0.0</speed>
<temp>0.00</temp>
<bpm>0</bpm>
<rpm>0.00</rpm>
</extensions>
</trkpt>
<trkpt lat="64.128616333" lon="-21.899826050">
<ele>47.312500</ele>
<time>2012-07-28T20:53:39Z</time>
<speed>0.370000</speed>
<extensions>
<speed>0.4</speed>
<temp>0.00</temp>
<bpm>0</bpm>
<rpm>0.00</rpm>
</extensions>
</trkpt>
<trkpt lat="64.128692627" lon="-21.899911880">
<ele>46.867188</ele>
<time>2012-07-28T20:53:44Z</time>
<speed>3.210000</speed>
<extensions>
<speed>3.2</speed>
<temp>0.00</temp>
<bpm>0</bpm>
<rpm>0.00</rpm>
</extensions>
</trkpt>
<trkpt lat="64.128868103" lon="-21.899938583">
<ele>46.783203</ele>
<time>2012-07-28T20:53:49Z</time>
<speed>4.010000</speed>
<extensions>
<speed>4.0</speed>
<temp>0.00</temp>
<bpm>0</bpm>
<rpm>0.00</rpm>
</extensions>
</trkpt>
<trkpt lat="64.129043579" lon="-21.899929047">
<ele>46.944336</ele>
<time>2012-07-28T20:53:54Z</time>
<speed>2.850000</speed>
<extensions>
<speed>2.9</speed>
<temp>0.00</temp>
<bpm>0</bpm>
<rpm>0.00</rpm>
</extensions>
</trkpt>
<trkpt lat="64.129089355" lon="-21.899923325">
<ele>46.974609</ele>
<time>2012-07-28T20:53:59Z</time>
<extensions>
<speed>0.0</speed>
<temp>0.00</temp>
<bpm>0</bpm>
<rpm>0.00</rpm>
</extensions>
</trkpt>
<trkpt lat="64.129089355" lon="-21.899919510">
<ele>46.722656</ele>
<time>2012-07-28T20:54:04Z</time>
<speed>0.010000</speed>
<extensions>
<speed>0.0</speed>
<temp>0.00</temp>
<bpm>0</bpm>
<rpm>0.00</rpm>
</extensions>
</trkpt>
<trkpt lat="64.129081726" lon="-21.899909973">
<ele>48.117188</ele>
<time>2012-07-28T20:54:09Z</time>
<speed>0.030000</speed>
<extensions>
<speed>0.0</speed>
<temp>0.00</temp>
<bpm>0</bpm>
<rpm>0.00</rpm>
</extensions>
</trkpt>
<trkpt lat="64.129089355" lon="-21.899896622">
<ele>47.158203</ele>
<time>2012-07-28T20:54:14Z</time>
<extensions>
<speed>0.0</speed>
<temp>0.00</temp>
<bpm>0</bpm>
<rpm>0.00</rpm>
</extensions>
</trkpt>
<trkpt lat="64.129089355" lon="-21.899888992">
<ele>46.138672</ele>
<time>2012-07-28T20:54:19Z</time>
<speed>0.010000</speed>
<extensions>
<speed>0.0</speed>
<temp>0.00</temp>
<bpm>0</bpm>
<rpm>0.00</rpm>
</extensions>
</trkpt>
<trkpt lat="64.129089355" lon="-21.899898529">
<ele>46.333984</ele>
<time>2012-07-28T20:54:24Z</time>
<speed>0.050000</speed>
<extensions>
<speed>0.1</speed>
<temp>0.00</temp>
<bpm>0</bpm>
<rpm>0.00</rpm>
</extensions>
</trkpt>
<trkpt lat="64.129096985" lon="-21.899909973">
<ele>46.727539</ele>
<time>2012-07-28T20:54:29Z</time>
<speed>1.830000</speed>
<extensions>
<speed>1.8</speed>
<temp>0.00</temp>
<bpm>0</bpm>
<rpm>0.00</rpm>
</extensions>
</trkpt>
<trkpt lat="64.129257202" lon="-21.899930954">
<ele>48.034180</ele>
<time>2012-07-28T20:54:34Z</time>
<speed>5.050000</speed>
<extensions>
<speed>5.1</speed>
<temp>0.00</temp>
<bpm>0</bpm>
<rpm>0.00</rpm>
</extensions>
</trkpt>
<trkpt lat="64.129493713" lon="-21.899927139">
<ele>48.065430</ele>
<time>2012-07-28T20:54:39Z</time>
<speed>5.220000</speed>
<extensions>
<speed>5.2</speed>
<temp>0.00</temp>
<bpm>0</bpm>
<rpm>0.00</rpm>
</extensions>
</trkpt>
<trkpt lat="64.129745483" lon="-21.899911880">
<ele>48.009766</ele>
<time>2012-07-28T20:54:44Z</time>
<speed>5.600000</speed>
<extensions>
<speed>5.6</speed>
<temp>0.00</temp>
<bpm>0</bpm>
<rpm>0.00</rpm>
</extensions>
</trkpt>
<trkpt lat="64.130012512" lon="-21.899841309">
<ele>48.695313</ele>
<time>2012-07-28T20:54:49Z</time>
<speed>5.990000</speed>
<extensions>
<speed>6.0</speed>
<temp>0.00</temp>
<bpm>0</bpm>
<rpm>0.00</rpm>
</extensions>
</trkpt>
<trkpt lat="64.130294800" lon="-21.899784088">
<ele>48.817383</ele>
<time>2012-07-28T20:54:54Z</time>
<speed>6.340000</speed>
<extensions>
<speed>6.3</speed>
<temp>0.00</temp>
<bpm>0</bpm>
<rpm>0.00</rpm>
</extensions>
</trkpt>
<trkpt lat="64.130577087" lon="-21.899662018">
<ele>47.251953</ele>
<time>2012-07-28T20:54:59Z</time>
<speed>6.550000</speed>
<extensions>
<speed>6.5</speed>
<temp>0.00</temp>
<bpm>0</bpm>
<rpm>0.00</rpm>
</extensions>
</trkpt>
<trkpt lat="64.130874634" lon="-21.899520874">
<ele>46.003906</ele>
<time>2012-07-28T20:55:04Z</time>
<speed>6.820000</speed>
<extensions>
<speed>6.8</speed>
<temp>0.00</temp>
<bpm>0</bpm>
<rpm>0.00</rpm>
</extensions>
</trkpt>
<trkpt lat="64.131164551" lon="-21.899356842">
<ele>44.156250</ele>
<time>2012-07-28T20:55:09Z</time>
<speed>6.770000</speed>
<extensions>
<speed>6.8</speed>
<temp>0.00</temp>
<bpm>0</bpm>
<rpm>0.00</rpm>
</extensions>
</trkpt>
<trkpt lat="64.131462097" lon="-21.899156570">
<ele>43.902344</ele>
<time>2012-07-28T20:55:14Z</time>
<speed>7.040000</speed>
<extensions>
<speed>7.0</speed>
<temp>0.00</temp>
<bpm>0</bpm>
<rpm>0.00</rpm>
</extensions>
</trkpt>
<trkpt lat="64.131774902" lon="-21.898946762">
<ele>42.323242</ele>
<time>2012-07-28T20:55:19Z</time>
<speed>7.280000</speed>
<extensions>
<speed>7.3</speed>
<temp>0.00</temp>
<bpm>0</bpm>
<rpm>0.00</rpm>
</extensions>
</trkpt>
<trkpt lat="64.132072449" lon="-21.898702621">
<ele>41.361328</ele>
<time>2012-07-28T20:55:24Z</time>
<speed>6.940000</speed>
<extensions>
<speed>6.9</speed>
<temp>0.00</temp>
<bpm>0</bpm>
<rpm>0.00</rpm>
</extensions>
</trkpt>
<trkpt lat="64.132347107" lon="-21.898475647">
<ele>40.750977</ele>
<time>2012-07-28T20:55:29Z</time>
<speed>6.120000</speed>
<extensions>
<speed>6.1</speed>
<temp>0.00</temp>
<bpm>0</bpm>
<rpm>0.00</rpm>
</extensions>
</trkpt>
<trkpt lat="64.132575989" lon="-21.898283005">
<ele>40.509766</ele>
<time>2012-07-28T20:55:34Z</time>
<speed>4.870000</speed>
<extensions>
<speed>4.9</speed>
<temp>0.00</temp>
<bpm>0</bpm>
<rpm>0.00</rpm>
</extensions>
</trkpt>
<trkpt lat="64.132751465" lon="-21.898120880">
<ele>40.909180</ele>
<time>2012-07-28T20:55:39Z</time>
<speed>3.630000</speed>
<extensions>
<speed>3.6</speed>
<temp>0.00</temp>
<bpm>0</bpm>
<rpm>0.00</rpm>
</extensions>
</trkpt>
<trkpt lat="64.132843018" lon="-21.898040771">
<ele>41.335938</ele>
<time>2012-07-28T20:55:44Z</time>
<speed>1.400000</speed>
<extensions>
<speed>1.4</speed>
<temp>0.00</temp>
<bpm>0</bpm>
<rpm>0.00</rpm>
</extensions>
</trkpt>
<trkpt lat="64.132865906" lon="-21.898019791">
<ele>41.803711</ele>
<time>2012-07-28T20:55:49Z</time>
<speed>0.090000</speed>
<extensions>
<speed>0.1</speed>
<temp>0.00</temp>
<bpm>0</bpm>
<rpm>0.00</rpm>
</extensions>
</trkpt>
<trkpt lat="64.132858276" lon="-21.898050308">
<ele>41.114258</ele>
<time>2012-07-28T20:55:54Z</time>
<speed>0.020000</speed>
<extensions>
<speed>0.0</speed>
<temp>0.00</temp>
<bpm>0</bpm>
<rpm>0.00</rpm>
</extensions>
</trkpt>
<trkpt lat="64.132850647" lon="-21.898036957">
<ele>40.747070</ele>
<time>2012-07-28T20:55:59Z</time>
<speed>0.050000</speed>
<extensions>
<speed>0.1</speed>
<temp>0.00</temp>
<bpm>0</bpm>
<rpm>0.00</rpm>
</extensions>
</trkpt>
<trkpt lat="64.132896423" lon="-21.898006439">
<ele>40.725586</ele>
<time>2012-07-28T20:56:04Z</time>
<speed>2.190000</speed>
<extensions>
<speed>2.2</speed>
<temp>0.00</temp>
<bpm>0</bpm>
<rpm>0.00</rpm>
</extensions>
</trkpt>
<trkpt lat="64.133033752" lon="-21.897878647">
<ele>40.423828</ele>
<time>2012-07-28T20:56:09Z</time>
<speed>4.440000</speed>
<extensions>
<speed>4.4</speed>
<temp>0.00</temp>
<bpm>0</bpm>
<rpm>0.00</rpm>
</extensions>
</trkpt>
<trkpt lat="64.133239746" lon="-21.897705078">
<ele>40.596680</ele>
<time>2012-07-28T20:56:14Z</time>
<speed>5.310000</speed>
<extensions>
<speed>5.3</speed>
<temp>0.00</temp>
<bpm>0</bpm>
<rpm>0.00</rpm>
</extensions>
</trkpt>
<trkpt lat="64.133476257" lon="-21.897512436">
<ele>40.737305</ele>
<time>2012-07-28T20:56:19Z</time>
<speed>5.340000</speed>
<extensions>
<speed>5.3</speed>
<temp>0.00</temp>
<bpm>0</bpm>
<rpm>0.00</rpm>
</extensions>
</trkpt>
<trkpt lat="64.133689880" lon="-21.897348404">
<ele>40.527344</ele>
<time>2012-07-28T20:56:24Z</time>
<speed>5.130000</speed>
<extensions>
<speed>5.1</speed>
<temp>0.00</temp>
<bpm>0</bpm>
<rpm>0.00</rpm>
</extensions>
</trkpt>
<trkpt lat="64.133926392" lon="-21.897169113">
<ele>40.468750</ele>
<time>2012-07-28T20:56:29Z</time>
<speed>5.450000</speed>
<extensions>
<speed>5.5</speed>
<temp>0.00</temp>
<bpm>0</bpm>
<rpm>0.00</rpm>
</extensions>
</trkpt>
<trkpt lat="64.134155273" lon="-21.897001266">
<ele>41.499023</ele>
<time>2012-07-28T20:56:34Z</time>
<speed>5.120000</speed>
<extensions>
<speed>5.1</speed>
<temp>0.00</temp>
<bpm>0</bpm>
<rpm>0.00</rpm>
</extensions>
</trkpt>
<trkpt lat="64.134361267" lon="-21.896837234">
<ele>41.947266</ele>
<time>2012-07-28T20:56:39Z</time>
<speed>5.140000</speed>
<extensions>
<speed>5.1</speed>
<temp>0.00</temp>
<bpm>0</bpm>
<rpm>0.00</rpm>
</extensions>
</trkpt>
<trkpt lat="64.134597778" lon="-21.896669388">
<ele>42.098633</ele>
<time>2012-07-28T20:56:44Z</time>
<speed>5.300000</speed>
<extensions>
<speed>5.3</speed>
<temp>0.00</temp>
<bpm>0</bpm>
<rpm>0.00</rpm>
</extensions>
</trkpt>
<trkpt lat="64.134796143" lon="-21.896492004">
<ele>43.160156</ele>
<time>2012-07-28T20:56:49Z</time>
<speed>5.060000</speed>
<extensions>
<speed>5.1</speed>
<temp>0.00</temp>
<bpm>0</bpm>
<rpm>0.00</rpm>
</extensions>
</trkpt>
<trkpt lat="64.135040283" lon="-21.896303177">
<ele>42.632813</ele>
<time>2012-07-28T20:56:54Z</time>
<speed>5.790000</speed>
<extensions>
<speed>5.8</speed>
<temp>0.00</temp>
<bpm>0</bpm>
<rpm>0.00</rpm>
</extensions>
</trkpt>
<trkpt lat="64.135284424" lon="-21.896114349">
<ele>42.739258</ele>
<time>2012-07-28T20:56:59Z</time>
<speed>5.320000</speed>
<extensions>
<speed>5.3</speed>
<temp>0.00</temp>
<bpm>0</bpm>
<rpm>0.00</rpm>
</extensions>
</trkpt>
<trkpt lat="64.135490417" lon="-21.895942688">
<ele>42.728516</ele>
<time>2012-07-28T20:57:04Z</time>
<speed>4.740000</speed>
<extensions>
<speed>4.7</speed>
<temp>0.00</temp>
<bpm>0</bpm>
<rpm>0.00</rpm>
</extensions>
</trkpt>
<trkpt lat="64.135704041" lon="-21.895771027">
<ele>42.900391</ele>
<time>2012-07-28T20:57:09Z</time>
<speed>5.260000</speed>
<extensions>
<speed>5.3</speed>
<temp>0.00</temp>
<bpm>0</bpm>
<rpm>0.00</rpm>
</extensions>
</trkpt>
<trkpt lat="64.135917664" lon="-21.895595551">
<ele>42.748047</ele>
<time>2012-07-28T20:57:14Z</time>
<speed>5.120000</speed>
<extensions>
<speed>5.1</speed>
<temp>0.00</temp>
<bpm>0</bpm>
<rpm>0.00</rpm>
</extensions>
</trkpt>
<trkpt lat="64.136138916" lon="-21.895435333">
<ele>42.113281</ele>
<time>2012-07-28T20:57:19Z</time>
<speed>5.510000</speed>
<extensions>
<speed>5.5</speed>
<temp>0.00</temp>
<bpm>0</bpm>
<rpm>0.00</rpm>
</extensions>
</trkpt>
<trkpt lat="64.136375427" lon="-21.895231247">
<ele>41.760742</ele>
<time>2012-07-28T20:57:24Z</time>
<speed>5.780000</speed>
<extensions>
<speed>5.8</speed>
<temp>0.00</temp>
<bpm>0</bpm>
<rpm>0.00</rpm>
</extensions>
</trkpt>
<trkpt lat="64.136634827" lon="-21.895019531">
<ele>40.546875</ele>
<time>2012-07-28T20:57:29Z</time>
<speed>6.260000</speed>
<extensions>
<speed>6.3</speed>
<temp>0.00</temp>
<bpm>0</bpm>
<rpm>0.00</rpm>
</extensions>
</trkpt>
<trkpt lat="64.136901855" lon="-21.894763947">
<ele>39.934570</ele>
<time>2012-07-28T20:57:34Z</time>
<speed>6.630000</speed>
<extensions>
<speed>6.6</speed>
<temp>0.00</temp>
<bpm>0</bpm>
<rpm>0.00</rpm>
</extensions>
</trkpt>
<trkpt lat="64.137184143" lon="-21.894531250">
<ele>38.803711</ele>
<time>2012-07-28T20:57:39Z</time>
<speed>6.700000</speed>
<extensions>
<speed>6.7</speed>
<temp>0.00</temp>
<bpm>0</bpm>
<rpm>0.00</rpm>
</extensions>
</trkpt>
<trkpt lat="64.137458801" lon="-21.894285202">
<ele>37.754883</ele>
<time>2012-07-28T20:57:44Z</time>
<speed>6.100000</speed>
<extensions>
<speed>6.1</speed>
<temp>0.00</temp>
<bpm>0</bpm>
<rpm>0.00</rpm>
</extensions>
</trkpt>
<trkpt lat="64.137710571" lon="-21.894016266">
<ele>36.578125</ele>
<time>2012-07-28T20:57:49Z</time>
<speed>6.410000</speed>
<extensions>
<speed>6.4</speed>
<temp>0.00</temp>
<bpm>0</bpm>
<rpm>0.00</rpm>
</extensions>
</trkpt>
<trkpt lat="64.137947083" lon="-21.893806458">
<ele>35.477539</ele>
<time>2012-07-28T20:57:54Z</time>
<speed>4.780000</speed>
<extensions>
<speed>4.8</speed>
<temp>0.00</temp>
<bpm>0</bpm>
<rpm>0.00</rpm>
</extensions>
</trkpt>
<trkpt lat="64.138053894" lon="-21.893463135">
<ele>34.378906</ele>
<time>2012-07-28T20:57:59Z</time>
<speed>4.110000</speed>
<extensions>
<speed>4.1</speed>
<temp>0.00</temp>
<bpm>0</bpm>
<rpm>0.00</rpm>
</extensions>
</trkpt>
<trkpt lat="64.138015747" lon="-21.892961502">
<ele>33.911133</ele>
<time>2012-07-28T20:58:04Z</time>
<speed>5.240000</speed>
<extensions>
<speed>5.2</speed>
<temp>0.00</temp>
<bpm>0</bpm>
<rpm>0.00</rpm>
</extensions>
</trkpt>
<trkpt lat="64.137908936" lon="-21.892431259">
<ele>35.178711</ele>
<time>2012-07-28T20:58:09Z</time>
<speed>5.690000</speed>
<extensions>
<speed>5.7</speed>
<temp>0.00</temp>
<bpm>0</bpm>
<rpm>0.00</rpm>
</extensions>
</trkpt>
<trkpt lat="64.137832642" lon="-21.891870499">
<ele>25.096680</ele>
<time>2012-07-28T20:58:14Z</time>
<speed>5.420000</speed>
<extensions>
<speed>5.4</speed>
<temp>0.00</temp>
<bpm>0</bpm>
<rpm>0.00</rpm>
</extensions>
</trkpt>
<trkpt lat="64.137741089" lon="-21.891370773">
<ele>21.333496</ele>
<time>2012-07-28T20:58:19Z</time>
<speed>4.840000</speed>
<extensions>
<speed>4.8</speed>
<temp>0.00</temp>
<bpm>0</bpm>
<rpm>0.00</rpm>
</extensions>
</trkpt>
<trkpt lat="64.137672424" lon="-21.890888214">
<ele>22.209473</ele>
<time>2012-07-28T20:58:24Z</time>
<speed>4.840000</speed>
<extensions>
<speed>4.8</speed>
<temp>0.00</temp>
<bpm>0</bpm>
<rpm>0.00</rpm>
</extensions>
</trkpt>
<trkpt lat="64.137596130" lon="-21.890436172">
<ele>25.446289</ele>
<time>2012-07-28T20:58:29Z</time>
<speed>4.010000</speed>
<extensions>
<speed>4.0</speed>
<temp>0.00</temp>
<bpm>0</bpm>
<rpm>0.00</rpm>
</extensions>
</trkpt>
<trkpt lat="64.137565613" lon="-21.890142441">
<ele>29.579590</ele>
<time>2012-07-28T20:58:34Z</time>
<speed>2.110000</speed>
<extensions>
<speed>2.1</speed>
<temp>0.00</temp>
<bpm>0</bpm>
<rpm>0.00</rpm>
</extensions>
</trkpt>
<trkpt lat="64.137542725" lon="-21.890008926">
<ele>31.633301</ele>
<time>2012-07-28T20:58:39Z</time>
<speed>0.450000</speed>
<extensions>
<speed>0.5</speed>
<temp>0.00</temp>
<bpm>0</bpm>
<rpm>0.00</rpm>
</extensions>
</trkpt>
<trkpt lat="64.137542725" lon="-21.890005112">
<ele>31.453125</ele>
<time>2012-07-28T20:58:44Z</time>
<speed>0.060000</speed>
<extensions>
<speed>0.1</speed>
<temp>0.00</temp>
<bpm>0</bpm>
<rpm>0.00</rpm>
</extensions>
</trkpt>
<trkpt lat="64.137535095" lon="-21.890020370">
<ele>31.808594</ele>
<time>2012-07-28T20:58:49Z</time>
<speed>0.020000</speed>
<extensions>
<speed>0.0</speed>
<temp>0.00</temp>
<bpm>0</bpm>
<rpm>0.00</rpm>
</extensions>
</trkpt>
<trkpt lat="64.137535095" lon="-21.890031815">
<ele>32.067383</ele>
<time>2012-07-28T20:58:54Z</time>
<speed>0.030000</speed>
<extensions>
<speed>0.0</speed>
<temp>0.00</temp>
<bpm>0</bpm>
<rpm>0.00</rpm>
</extensions>
</trkpt>
<trkpt lat="64.137535095" lon="-21.890041351">
<ele>31.751465</ele>
<time>2012-07-28T20:58:59Z</time>
<speed>0.010000</speed>
<extensions>
<speed>0.0</speed>
<temp>0.00</temp>
<bpm>0</bpm>
<rpm>0.00</rpm>
</extensions>
</trkpt>
<trkpt lat="64.137535095" lon="-21.890039444">
<ele>31.807617</ele>
<time>2012-07-28T20:59:04Z</time>
<extensions>
<speed>0.0</speed>
<temp>0.00</temp>
<bpm>0</bpm>
<rpm>0.00</rpm>
</extensions>
</trkpt>
<trkpt lat="64.137527466" lon="-21.889907837">
<ele>33.283203</ele>
<time>2012-07-28T20:59:09Z</time>
<speed>3.270000</speed>
<extensions>
<speed>3.3</speed>
<temp>0.00</temp>
<bpm>0</bpm>
<rpm>0.00</rpm>
</extensions>
</trkpt>
<trkpt lat="64.137481689" lon="-21.889492035">
<ele>34.991211</ele>
<time>2012-07-28T20:59:14Z</time>
<speed>3.670000</speed>
<extensions>
<speed>3.7</speed>
<temp>0.00</temp>
<bpm>0</bpm>
<rpm>0.00</rpm>
</extensions>
</trkpt>
<trkpt lat="64.137542725" lon="-21.889139175">
<ele>34.146484</ele>
<time>2012-07-28T20:59:19Z</time>
<speed>3.540000</speed>
<extensions>
<speed>3.5</speed>
<temp>0.00</temp>
<bpm>0</bpm>
<rpm>0.00</rpm>
</extensions>
</trkpt>
<trkpt lat="64.137649536" lon="-21.888866425">
<ele>36.757813</ele>
<time>2012-07-28T20:59:24Z</time>
<speed>4.420000</speed>
<extensions>
<speed>4.4</speed>
<temp>0.00</temp>
<bpm>0</bpm>
<rpm>0.00</rpm>
</extensions>
</trkpt>
<trkpt lat="64.137779236" lon="-21.888599396">
<ele>41.116211</ele>
<time>2012-07-28T20:59:29Z</time>
<speed>2.930000</speed>
<extensions>
<speed>2.9</speed>
<temp>0.00</temp>
<bpm>0</bpm>
<rpm>0.00</rpm>
</extensions>
</trkpt>
<trkpt lat="64.137878418" lon="-21.888385773">
<ele>42.619141</ele>
<time>2012-07-28T20:59:34Z</time>
<speed>2.910000</speed>
<extensions>
<speed>2.9</speed>
<temp>0.00</temp>
<bpm>0</bpm>
<rpm>0.00</rpm>
</extensions>
</trkpt>
<trkpt lat="64.137977600" lon="-21.888149261">
<ele>47.784180</ele>
<time>2012-07-28T20:59:39Z</time>
<speed>3.400000</speed>
<extensions>
<speed>3.4</speed>
<temp>0.00</temp>
<bpm>0</bpm>
<rpm>0.00</rpm>
</extensions>
</trkpt>
<trkpt lat="64.138099670" lon="-21.887895584">
<ele>48.001953</ele>
<time>2012-07-28T20:59:44Z</time>
<speed>3.300000</speed>
<extensions>
<speed>3.3</speed>
<temp>0.00</temp>
<bpm>0</bpm>
<rpm>0.00</rpm>
</extensions>
</trkpt>
<trkpt lat="64.138198853" lon="-21.887662888">
<ele>50.794922</ele>
<time>2012-07-28T20:59:49Z</time>
<speed>2.660000</speed>
<extensions>
<speed>2.7</speed>
<temp>0.00</temp>
<bpm>0</bpm>
<rpm>0.00</rpm>
</extensions>
</trkpt>
<trkpt lat="64.138275146" lon="-21.887477875">
<ele>50.775391</ele>
<time>2012-07-28T20:59:54Z</time>
<speed>2.700000</speed>
<extensions>
<speed>2.7</speed>
<temp>0.00</temp>
<bpm>0</bpm>
<rpm>0.00</rpm>
</extensions>
</trkpt>
<trkpt lat="64.138366699" lon="-21.887245178">
<ele>45.819336</ele>
<time>2012-07-28T20:59:59Z</time>
<speed>3.160000</speed>
<extensions>
<speed>3.2</speed>
<temp>0.00</temp>
<bpm>0</bpm>
<rpm>0.00</rpm>
</extensions>
</trkpt>
<trkpt lat="64.138458252" lon="-21.887008667">
<ele>44.803711</ele>
<time>2012-07-28T21:00:04Z</time>
<speed>2.800000</speed>
<extensions>
<speed>2.8</speed>
<temp>0.00</temp>
<bpm>0</bpm>
<rpm>0.00</rpm>
</extensions>
</trkpt>
<trkpt lat="64.138542175" lon="-21.886707306">
<ele>51.438477</ele>
<time>2012-07-28T21:00:09Z</time>
<speed>3.620000</speed>
<extensions>
<speed>3.6</speed>
<temp>0.00</temp>
<bpm>0</bpm>
<rpm>0.00</rpm>
</extensions>
</trkpt>
<trkpt lat="64.138603210" lon="-21.886320114">
<ele>50.689453</ele>
<time>2012-07-28T21:00:14Z</time>
<speed>2.530000</speed>
<extensions>
<speed>2.5</speed>
<temp>0.00</temp>
<bpm>0</bpm>
<rpm>0.00</rpm>
</extensions>
</trkpt>
<trkpt lat="64.138626099" lon="-21.886081696">
<ele>47.552734</ele>
<time>2012-07-28T21:00:19Z</time>
<speed>2.170000</speed>
<extensions>
<speed>2.2</speed>
<temp>0.00</temp>
<bpm>0</bpm>
<rpm>0.00</rpm>
</extensions>
</trkpt>
<trkpt lat="64.138656616" lon="-21.885854721">
<ele>50.064453</ele>
<time>2012-07-28T21:00:24Z</time>
<speed>2.180000</speed>
<extensions>
<speed>2.2</speed>
<temp>0.00</temp>
<bpm>0</bpm>
<rpm>0.00</rpm>
</extensions>
</trkpt>
<trkpt lat="64.138687134" lon="-21.885625839">
<ele>50.972656</ele>
<time>2012-07-28T21:00:29Z</time>
<speed>2.250000</speed>
<extensions>
<speed>2.3</speed>
<temp>0.00</temp>
<bpm>0</bpm>
<rpm>0.00</rpm>
</extensions>
</trkpt>
<trkpt lat="64.138763428" lon="-21.885454178">
<ele>53.266602</ele>
<time>2012-07-28T21:00:34Z</time>
<speed>1.930000</speed>
<extensions>
<speed>1.9</speed>
<temp>0.00</temp>
<bpm>0</bpm>
<rpm>0.00</rpm>
</extensions>
</trkpt>
<trkpt lat="64.138801575" lon="-21.885282516">
<ele>57.923828</ele>
<time>2012-07-28T21:00:39Z</time>
<speed>1.970000</speed>
<extensions>
<speed>2.0</speed>
<temp>0.00</temp>
<bpm>0</bpm>
<rpm>0.00</rpm>
</extensions>
</trkpt>
<trkpt lat="64.138824463" lon="-21.885032654">
<ele>59.404297</ele>
<time>2012-07-28T21:00:44Z</time>
<speed>2.500000</speed>
<extensions>
<speed>2.5</speed>
<temp>0.00</temp>
<bpm>0</bpm>
<rpm>0.00</rpm>
</extensions>
</trkpt>
<trkpt lat="64.138801575" lon="-21.884702682">
<ele>61.722656</ele>
<time>2012-07-28T21:00:49Z</time>
<speed>2.930000</speed>
<extensions>
<speed>2.9</speed>
<temp>0.00</temp>
<bpm>0</bpm>
<rpm>0.00</rpm>
</extensions>
</trkpt>
<trkpt lat="64.138793945" lon="-21.884403229">
<ele>61.805664</ele>
<time>2012-07-28T21:00:54Z</time>
<speed>2.630000</speed>
<extensions>
<speed>2.6</speed>
<temp>0.00</temp>
<bpm>0</bpm>
<rpm>0.00</rpm>
</extensions>
</trkpt>
<trkpt lat="64.138786316" lon="-21.884172440">
<ele>63.524414</ele>
<time>2012-07-28T21:00:59Z</time>
<speed>1.750000</speed>
<extensions>
<speed>1.8</speed>
<temp>0.00</temp>
<bpm>0</bpm>
<rpm>0.00</rpm>
</extensions>
</trkpt>
<trkpt lat="64.138793945" lon="-21.883949280">
<ele>64.205078</ele>
<time>2012-07-28T21:01:04Z</time>
<speed>2.120000</speed>
<extensions>
<speed>2.1</speed>
<temp>0.00</temp>
<bpm>0</bpm>
<rpm>0.00</rpm>
</extensions>
</trkpt>
<trkpt lat="64.138755798" lon="-21.883686066">
<ele>65.597656</ele>
<time>2012-07-28T21:01:09Z</time>
<speed>2.530000</speed>
<extensions>
<speed>2.5</speed>
<temp>0.00</temp>
<bpm>0</bpm>
<rpm>0.00</rpm>
</extensions>
</trkpt>
<trkpt lat="64.138740540" lon="-21.883485794">
<ele>66.226563</ele>
<time>2012-07-28T21:01:14Z</time>
<speed>2.080000</speed>
<extensions>
<speed>2.1</speed>
<temp>0.00</temp>
<bpm>0</bpm>
<rpm>0.00</rpm>
</extensions>
</trkpt>
<trkpt lat="64.138687134" lon="-21.883234024">
<ele>66.542969</ele>
<time>2012-07-28T21:01:19Z</time>
<speed>2.810000</speed>
<extensions>
<speed>2.8</speed>
<temp>0.00</temp>
<bpm>0</bpm>
<rpm>0.00</rpm>
</extensions>
</trkpt>
<trkpt lat="64.138641357" lon="-21.882946014">
<ele>67.806641</ele>
<time>2012-07-28T21:01:24Z</time>
<speed>2.840000</speed>
<extensions>
<speed>2.8</speed>
<temp>0.00</temp>
<bpm>0</bpm>
<rpm>0.00</rpm>
</extensions>
</trkpt>
<trkpt lat="64.138565063" lon="-21.882650375">
<ele>70.505859</ele>
<time>2012-07-28T21:01:29Z</time>
<speed>3.140000</speed>
<extensions>
<speed>3.1</speed>
<temp>0.00</temp>
<bpm>0</bpm>
<rpm>0.00</rpm>
</extensions>
</trkpt>
<trkpt lat="64.138481140" lon="-21.882410049">
<ele>74.476563</ele>
<time>2012-07-28T21:01:34Z</time>
<speed>3.350000</speed>
<extensions>
<speed>3.4</speed>
<temp>0.00</temp>
<bpm>0</bpm>
<rpm>0.00</rpm>
</extensions>
</trkpt>
<trkpt lat="64.138397217" lon="-21.882129669">
<ele>77.187500</ele>
<time>2012-07-28T21:01:39Z</time>
<speed>3.400000</speed>
<extensions>
<speed>3.4</speed>
<temp>0.00</temp>
<bpm>0</bpm>
<rpm>0.00</rpm>
</extensions>
</trkpt>
<trkpt lat="64.138259888" lon="-21.881868362">
<ele>79.123047</ele>
<time>2012-07-28T21:01:44Z</time>
<speed>2.990000</speed>
<extensions>
<speed>3.0</speed>
<temp>0.00</temp>
<bpm>0</bpm>
<rpm>0.00</rpm>
</extensions>
</trkpt>
<trkpt lat="64.138153076" lon="-21.881666183">
<ele>80.744141</ele>
<time>2012-07-28T21:01:49Z</time>
<speed>2.830000</speed>
<extensions>
<speed>2.8</speed>
<temp>0.00</temp>
<bpm>0</bpm>
<rpm>0.00</rpm>
</extensions>
</trkpt>
<trkpt lat="64.138061523" lon="-21.881488800">
<ele>79.722656</ele>
<time>2012-07-28T21:01:54Z</time>
<speed>2.170000</speed>
<extensions>
<speed>2.2</speed>
<temp>0.00</temp>
<bpm>0</bpm>
<rpm>0.00</rpm>
</extensions>
</trkpt>
<trkpt lat="64.137969971" lon="-21.881380081">
<ele>77.384766</ele>
<time>2012-07-28T21:01:59Z</time>
<speed>1.450000</speed>
<extensions>
<speed>1.4</speed>
<temp>0.00</temp>
<bpm>0</bpm>
<rpm>0.00</rpm>
</extensions>
</trkpt>
<trkpt lat="64.137916565" lon="-21.881317139">
<ele>76.943359</ele>
<time>2012-07-28T21:02:04Z</time>
<speed>0.790000</speed>
<extensions>
<speed>0.8</speed>
<temp>0.00</temp>
<bpm>0</bpm>
<rpm>0.00</rpm>
</extensions>
</trkpt>
<trkpt lat="64.137908936" lon="-21.881303787">
<ele>76.376953</ele>
<time>2012-07-28T21:02:09Z</time>
<speed>0.030000</speed>
<extensions>
<speed>0.0</speed>
<temp>0.00</temp>
<bpm>0</bpm>
<rpm>0.00</rpm>
</extensions>
</trkpt>
<trkpt lat="64.137901306" lon="-21.881303787">
<ele>76.242188</ele>
<time>2012-07-28T21:02:14Z</time>
<extensions>
<speed>0.0</speed>
<temp>0.00</temp>
<bpm>0</bpm>
<rpm>0.00</rpm>
</extensions>
</trkpt>
<trkpt lat="64.137901306" lon="-21.881301880">
<ele>76.304688</ele>
<time>2012-07-28T21:02:19Z</time>
<extensions>
<speed>0.0</speed>
<temp>0.00</temp>
<bpm>0</bpm>
<rpm>0.00</rpm>
</extensions>
</trkpt>
<trkpt lat="64.137901306" lon="-21.881301880">
<ele>76.273438</ele>
<time>2012-07-28T21:02:24Z</time>
<extensions>
<speed>0.0</speed>
<temp>0.00</temp>
<bpm>0</bpm>
<rpm>0.00</rpm>
</extensions>
</trkpt>
<trkpt lat="64.137901306" lon="-21.881301880">
<ele>76.304688</ele>
<time>2012-07-28T21:02:29Z</time>
<extensions>
<speed>0.0</speed>
<temp>0.00</temp>
<bpm>0</bpm>
<rpm>0.00</rpm>
</extensions>
</trkpt>
<trkpt lat="64.137901306" lon="-21.881301880">
<ele>76.285156</ele>
<time>2012-07-28T21:02:34Z</time>
<extensions>
<speed>0.0</speed>
<temp>0.00</temp>
<bpm>0</bpm>
<rpm>0.00</rpm>
</extensions>
</trkpt>
<trkpt lat="64.137901306" lon="-21.881301880">
<ele>76.322266</ele>
<time>2012-07-28T21:02:39Z</time>
<extensions>
<speed>0.0</speed>
<temp>0.00</temp>
<bpm>0</bpm>
<rpm>0.00</rpm>
</extensions>
</trkpt>
<trkpt lat="64.137901306" lon="-21.881301880">
<ele>76.322266</ele>
<time>2012-07-28T21:02:44Z</time>
<speed>0.100000</speed>
<extensions>
<speed>0.1</speed>
<temp>0.00</temp>
<bpm>0</bpm>
<rpm>0.00</rpm>
</extensions>
</trkpt>
<trkpt lat="64.137893677" lon="-21.881294250">
<ele>76.027344</ele>
<time>2012-07-28T21:02:49Z</time>
<speed>0.020000</speed>
<extensions>
<speed>0.0</speed>
<temp>0.00</temp>
<bpm>0</bpm>
<rpm>0.00</rpm>
</extensions>
</trkpt>
<trkpt lat="64.137893677" lon="-21.881294250">
<ele>76.115234</ele>
<time>2012-07-28T21:02:54Z</time>
<speed>0.020000</speed>
<extensions>
<speed>0.0</speed>
<temp>0.00</temp>
<bpm>0</bpm>
<rpm>0.00</rpm>
</extensions>
</trkpt>
<trkpt lat="64.137893677" lon="-21.881292343">
<ele>76.185547</ele>
<time>2012-07-28T21:02:59Z</time>
<speed>1.010000</speed>
<extensions>
<speed>1.0</speed>
<temp>0.00</temp>
<bpm>0</bpm>
<rpm>0.00</rpm>
</extensions>
</trkpt>
<trkpt lat="64.137855530" lon="-21.881278992">
<ele>73.376953</ele>
<time>2012-07-28T21:03:04Z</time>
<speed>0.060000</speed>
<extensions>
<speed>0.1</speed>
<temp>0.00</temp>
<bpm>0</bpm>
<rpm>0.00</rpm>
</extensions>
</trkpt>
<trkpt lat="64.137855530" lon="-21.881280899">
<ele>72.900391</ele>
<time>2012-07-28T21:03:09Z</time>
<extensions>
<speed>0.0</speed>
<temp>0.00</temp>
<bpm>0</bpm>
<rpm>0.00</rpm>
</extensions>
</trkpt>
<trkpt lat="64.137855530" lon="-21.881280899">
<ele>72.916016</ele>
<time>2012-07-28T21:03:14Z</time>
<extensions>
<speed>0.0</speed>
<temp>0.00</temp>
<bpm>0</bpm>
<rpm>0.00</rpm>
</extensions>
</trkpt>
<trkpt lat="64.137855530" lon="-21.881280899">
<ele>72.865234</ele>
<time>2012-07-28T21:03:19Z</time>
<speed>0.060000</speed>
<extensions>
<speed>0.1</speed>
<temp>0.00</temp>
<bpm>0</bpm>
<rpm>0.00</rpm>
</extensions>
</trkpt>
<trkpt lat="64.137817383" lon="-21.881174088">
<ele>71.525391</ele>
<time>2012-07-28T21:03:24Z</time>
<speed>3.980000</speed>
<extensions>
<speed>4.0</speed>
<temp>0.00</temp>
<bpm>0</bpm>
<rpm>0.00</rpm>
</extensions>
</trkpt>
<trkpt lat="64.137802124" lon="-21.880744934">
<ele>67.847656</ele>
<time>2012-07-28T21:03:29Z</time>
<speed>4.430000</speed>
<extensions>
<speed>4.4</speed>
<temp>0.00</temp>
<bpm>0</bpm>
<rpm>0.00</rpm>
</extensions>
</trkpt>
<trkpt lat="64.137924194" lon="-21.880342484">
<ele>64.728516</ele>
<time>2012-07-28T21:03:34Z</time>
<speed>6.040000</speed>
<extensions>
<speed>6.0</speed>
<temp>0.00</temp>
<bpm>0</bpm>
<rpm>0.00</rpm>
</extensions>
</trkpt>
<trkpt lat="64.138130188" lon="-21.879825592">
<ele>61.705078</ele>
<time>2012-07-28T21:03:39Z</time>
<speed>6.260000</speed>
<extensions>
<speed>6.3</speed>
<temp>0.00</temp>
<bpm>0</bpm>
<rpm>0.00</rpm>
</extensions>
</trkpt>
<trkpt lat="64.138320923" lon="-21.879415512">
<ele>58.695313</ele>
<time>2012-07-28T21:03:44Z</time>
<speed>4.790000</speed>
<extensions>
<speed>4.8</speed>
<temp>0.00</temp>
<bpm>0</bpm>
<rpm>0.00</rpm>
</extensions>
</trkpt>
<trkpt lat="64.138435364" lon="-21.879087448">
<ele>54.682617</ele>
<time>2012-07-28T21:03:49Z</time>
<speed>2.780000</speed>
<extensions>
<speed>2.8</speed>
<temp>0.00</temp>
<bpm>0</bpm>
<rpm>0.00</rpm>
</extensions>
</trkpt>
<trkpt lat="64.138519287" lon="-21.878898621">
<ele>53.646484</ele>
<time>2012-07-28T21:03:54Z</time>
<speed>1.470000</speed>
<extensions>
<speed>1.5</speed>
<temp>0.00</temp>
<bpm>0</bpm>
<rpm>0.00</rpm>
</extensions>
</trkpt>
<trkpt lat="64.138565063" lon="-21.878770828">
<ele>56.223633</ele>
<time>2012-07-28T21:03:59Z</time>
<speed>0.660000</speed>
<extensions>
<speed>0.7</speed>
<temp>0.00</temp>
<bpm>0</bpm>
<rpm>0.00</rpm>
</extensions>
</trkpt>
<trkpt lat="64.138565063" lon="-21.878753662">
<ele>56.114258</ele>
<time>2012-07-28T21:04:04Z</time>
<extensions>
<speed>0.0</speed>
<temp>0.00</temp>
<bpm>0</bpm>
<rpm>0.00</rpm>
</extensions>
</trkpt>
<trkpt lat="64.138565063" lon="-21.878755569">
<ele>55.902344</ele>
<time>2012-07-28T21:04:09Z</time>
<speed>0.040000</speed>
<extensions>
<speed>0.0</speed>
<temp>0.00</temp>
<bpm>0</bpm>
<rpm>0.00</rpm>
</extensions>
</trkpt>
<trkpt lat="64.138565063" lon="-21.878751755">
<ele>55.687500</ele>
<time>2012-07-28T21:04:14Z</time>
<speed>0.010000</speed>
<extensions>
<speed>0.0</speed>
<temp>0.00</temp>
<bpm>0</bpm>
<rpm>0.00</rpm>
</extensions>
</trkpt>
<trkpt lat="64.138565063" lon="-21.878751755">
<ele>55.528320</ele>
<time>2012-07-28T21:04:19Z</time>
<speed>0.020000</speed>
<extensions>
<speed>0.0</speed>
<temp>0.00</temp>
<bpm>0</bpm>
<rpm>0.00</rpm>
</extensions>
</trkpt>
<trkpt lat="64.138565063" lon="-21.878751755">
<ele>55.476563</ele>
<time>2012-07-28T21:04:24Z</time>
<speed>0.050000</speed>
<extensions>
<speed>0.1</speed>
<temp>0.00</temp>
<bpm>0</bpm>
<rpm>0.00</rpm>
</extensions>
</trkpt>
<trkpt lat="64.138641357" lon="-21.878578186">
<ele>56.452148</ele>
<time>2012-07-28T21:04:29Z</time>
<speed>3.540000</speed>
<extensions>
<speed>3.5</speed>
<temp>0.00</temp>
<bpm>0</bpm>
<rpm>0.00</rpm>
</extensions>
</trkpt>
<trkpt lat="64.138786316" lon="-21.878582001">
<ele>51.914063</ele>
<time>2012-07-28T21:04:34Z</time>
<speed>3.000000</speed>
<extensions>
<speed>3.0</speed>
<temp>0.00</temp>
<bpm>0</bpm>
<rpm>0.00</rpm>
</extensions>
</trkpt>
<trkpt lat="64.138893127" lon="-21.878799438">
<ele>47.172852</ele>
<time>2012-07-28T21:04:39Z</time>
<speed>3.800000</speed>
<extensions>
<speed>3.8</speed>
<temp>0.00</temp>
<bpm>0</bpm>
<rpm>0.00</rpm>
</extensions>
</trkpt>
<trkpt lat="64.139015198" lon="-21.879127502">
<ele>41.003906</ele>
<time>2012-07-28T21:04:44Z</time>
<speed>3.950000</speed>
<extensions>
<speed>4.0</speed>
<temp>0.00</temp>
<bpm>0</bpm>
<rpm>0.00</rpm>
</extensions>
</trkpt>
<trkpt lat="64.139129639" lon="-21.879405975">
<ele>38.135742</ele>
<time>2012-07-28T21:04:49Z</time>
<speed>3.380000</speed>
<extensions>
<speed>3.4</speed>
<temp>0.00</temp>
<bpm>0</bpm>
<rpm>0.00</rpm>
</extensions>
</trkpt>
<trkpt lat="64.139228821" lon="-21.879737854">
<ele>35.342773</ele>
<time>2012-07-28T21:04:54Z</time>
<speed>4.560000</speed>
<extensions>
<speed>4.6</speed>
<temp>0.00</temp>
<bpm>0</bpm>
<rpm>0.00</rpm>
</extensions>
</trkpt>
<trkpt lat="64.139358521" lon="-21.880147934">
<ele>34.090820</ele>
<time>2012-07-28T21:04:59Z</time>
<speed>5.300000</speed>
<extensions>
<speed>5.3</speed>
<temp>0.00</temp>
<bpm>0</bpm>
<rpm>0.00</rpm>
</extensions>
</trkpt>
<trkpt lat="64.139495850" lon="-21.880559921">
<ele>32.295898</ele>
<time>2012-07-28T21:05:04Z</time>
<speed>4.640000</speed>
<extensions>
<speed>4.6</speed>
<temp>0.00</temp>
<bpm>0</bpm>
<rpm>0.00</rpm>
</extensions>
</trkpt>
<trkpt lat="64.139633179" lon="-21.880947113">
<ele>31.003906</ele>
<time>2012-07-28T21:05:09Z</time>
<speed>5.200000</speed>
<extensions>
<speed>5.2</speed>
<temp>0.00</temp>
<bpm>0</bpm>
<rpm>0.00</rpm>
</extensions>
</trkpt>
<trkpt lat="64.139755249" lon="-21.881416321">
<ele>29.728516</ele>
<time>2012-07-28T21:05:14Z</time>
<speed>5.680000</speed>
<extensions>
<speed>5.7</speed>
<temp>0.00</temp>
<bpm>0</bpm>
<rpm>0.00</rpm>
</extensions>
</trkpt>
<trkpt lat="64.139884949" lon="-21.881879807">
<ele>29.786621</ele>
<time>2012-07-28T21:05:19Z</time>
<speed>5.130000</speed>
<extensions>
<speed>5.1</speed>
<temp>0.00</temp>
<bpm>0</bpm>
<rpm>0.00</rpm>
</extensions>
</trkpt>
<trkpt lat="64.139999390" lon="-21.882312775">
<ele>29.599609</ele>
<time>2012-07-28T21:05:24Z</time>
<speed>4.390000</speed>
<extensions>
<speed>4.4</speed>
<temp>0.00</temp>
<bpm>0</bpm>
<rpm>0.00</rpm>
</extensions>
</trkpt>
<trkpt lat="64.140090942" lon="-21.882705688">
<ele>29.360840</ele>
<time>2012-07-28T21:05:29Z</time>
<speed>4.620000</speed>
<extensions>
<speed>4.6</speed>
<temp>0.00</temp>
<bpm>0</bpm>
<rpm>0.00</rpm>
</extensions>
</trkpt>
<trkpt lat="64.140167236" lon="-21.883134842">
<ele>29.176758</ele>
<time>2012-07-28T21:05:34Z</time>
<speed>4.350000</speed>
<extensions>
<speed>4.3</speed>
<temp>0.00</temp>
<bpm>0</bpm>
<rpm>0.00</rpm>
</extensions>
</trkpt>
<trkpt lat="64.140312195" lon="-21.883390427">
<ele>28.197266</ele>
<time>2012-07-28T21:05:39Z</time>
<speed>4.030000</speed>
<extensions>
<speed>4.0</speed>
<temp>0.00</temp>
<bpm>0</bpm>
<rpm>0.00</rpm>
</extensions>
</trkpt>
<trkpt lat="64.140502930" lon="-21.883428574">
<ele>28.500977</ele>
<time>2012-07-28T21:05:44Z</time>
<speed>3.850000</speed>
<extensions>
<speed>3.8</speed>
<temp>0.00</temp>
<bpm>0</bpm>
<rpm>0.00</rpm>
</extensions>
</trkpt>
<trkpt lat="64.140686035" lon="-21.883371353">
<ele>28.201660</ele>
<time>2012-07-28T21:05:49Z</time>
<speed>4.700000</speed>
<extensions>
<speed>4.7</speed>
<temp>0.00</temp>
<bpm>0</bpm>
<rpm>0.00</rpm>
</extensions>
</trkpt>
<trkpt lat="64.140907288" lon="-21.883310318">
<ele>27.129395</ele>
<time>2012-07-28T21:05:54Z</time>
<speed>4.930000</speed>
<extensions>
<speed>4.9</speed>
<temp>0.00</temp>
<bpm>0</bpm>
<rpm>0.00</rpm>
</extensions>
</trkpt>
<trkpt lat="64.141120911" lon="-21.883237839">
<ele>25.278809</ele>
<time>2012-07-28T21:05:59Z</time>
<speed>4.800000</speed>
<extensions>
<speed>4.8</speed>
<temp>0.00</temp>
<bpm>0</bpm>
<rpm>0.00</rpm>
</extensions>
</trkpt>
<trkpt lat="64.141319275" lon="-21.883192062">
<ele>23.833496</ele>
<time>2012-07-28T21:06:04Z</time>
<speed>3.300000</speed>
<extensions>
<speed>3.3</speed>
<temp>0.00</temp>
<bpm>0</bpm>
<rpm>0.00</rpm>
</extensions>
</trkpt>
<trkpt lat="64.141456604" lon="-21.883106232">
<ele>23.101563</ele>
<time>2012-07-28T21:06:09Z</time>
<speed>3.140000</speed>
<extensions>
<speed>3.1</speed>
<temp>0.00</temp>
<bpm>0</bpm>
<rpm>0.00</rpm>
</extensions>
</trkpt>
<trkpt lat="64.141571045" lon="-21.882915497">
<ele>22.357422</ele>
<time>2012-07-28T21:06:14Z</time>
<speed>3.260000</speed>
<extensions>
<speed>3.3</speed>
<temp>0.00</temp>
<bpm>0</bpm>
<rpm>0.00</rpm>
</extensions>
</trkpt>
<trkpt lat="64.141716003" lon="-21.882984161">
<ele>22.048828</ele>
<time>2012-07-28T21:06:19Z</time>
<speed>3.740000</speed>
<extensions>
<speed>3.7</speed>
<temp>0.00</temp>
<bpm>0</bpm>
<rpm>0.00</rpm>
</extensions>
</trkpt>
<trkpt lat="64.141883850" lon="-21.883035660">
<ele>21.985840</ele>
<time>2012-07-28T21:06:24Z</time>
<speed>3.510000</speed>
<extensions>
<speed>3.5</speed>
<temp>0.00</temp>
<bpm>0</bpm>
<rpm>0.00</rpm>
</extensions>
</trkpt>
<trkpt lat="64.142021179" lon="-21.883037567">
<ele>22.016602</ele>
<time>2012-07-28T21:06:29Z</time>
<speed>3.180000</speed>
<extensions>
<speed>3.2</speed>
<temp>0.00</temp>
<bpm>0</bpm>
<rpm>0.00</rpm>
</extensions>
</trkpt>
<trkpt lat="64.142196655" lon="-21.883056641">
<ele>21.245117</ele>
<time>2012-07-28T21:06:34Z</time>
<speed>3.860000</speed>
<extensions>
<speed>3.9</speed>
<temp>0.00</temp>
<bpm>0</bpm>
<rpm>0.00</rpm>
</extensions>
</trkpt>
<trkpt lat="64.142395020" lon="-21.883087158">
<ele>20.354492</ele>
<time>2012-07-28T21:06:39Z</time>
<speed>5.210000</speed>
<extensions>
<speed>5.2</speed>
<temp>0.00</temp>
<bpm>0</bpm>
<rpm>0.00</rpm>
</extensions>
</trkpt>
<trkpt lat="64.142639160" lon="-21.883062363">
<ele>19.301270</ele>
<time>2012-07-28T21:06:44Z</time>
<speed>5.840000</speed>
<extensions>
<speed>5.8</speed>
<temp>0.00</temp>
<bpm>0</bpm>
<rpm>0.00</rpm>
</extensions>
</trkpt>
<trkpt lat="64.142898560" lon="-21.883007050">
<ele>18.087402</ele>
<time>2012-07-28T21:06:49Z</time>
<speed>5.720000</speed>
<extensions>
<speed>5.7</speed>
<temp>0.00</temp>
<bpm>0</bpm>
<rpm>0.00</rpm>
</extensions>
</trkpt>
<trkpt lat="64.143119812" lon="-21.882963181">
<ele>16.951660</ele>
<time>2012-07-28T21:06:54Z</time>
<speed>5.420000</speed>
<extensions>
<speed>5.4</speed>
<temp>0.00</temp>
<bpm>0</bpm>
<rpm>0.00</rpm>
</extensions>
</trkpt>
<trkpt lat="64.143371582" lon="-21.882875443">
<ele>15.394043</ele>
<time>2012-07-28T21:06:59Z</time>
<speed>5.710000</speed>
<extensions>
<speed>5.7</speed>
<temp>0.00</temp>
<bpm>0</bpm>
<rpm>0.00</rpm>
</extensions>
</trkpt>
<trkpt lat="64.143646240" lon="-21.882816315">
<ele>14.339600</ele>
<time>2012-07-28T21:07:04Z</time>
<speed>6.130000</speed>
<extensions>
<speed>6.1</speed>
<temp>0.00</temp>
<bpm>0</bpm>
<rpm>0.00</rpm>
</extensions>
</trkpt>
<trkpt lat="64.143936157" lon="-21.882751465">
<ele>13.306152</ele>
<time>2012-07-28T21:07:09Z</time>
<speed>6.400000</speed>
<extensions>
<speed>6.4</speed>
<temp>0.00</temp>
<bpm>0</bpm>
<rpm>0.00</rpm>
</extensions>
</trkpt>
<trkpt lat="64.144218445" lon="-21.882678986">
<ele>12.451172</ele>
<time>2012-07-28T21:07:14Z</time>
<speed>6.380000</speed>
<extensions>
<speed>6.4</speed>
<temp>0.00</temp>
<bpm>0</bpm>
<rpm>0.00</rpm>
</extensions>
</trkpt>
<trkpt lat="64.144493103" lon="-21.882602692">
<ele>11.594238</ele>
<time>2012-07-28T21:07:19Z</time>
<speed>6.470000</speed>
<extensions>
<speed>6.5</speed>
<temp>0.00</temp>
<bpm>0</bpm>
<rpm>0.00</rpm>
</extensions>
</trkpt>
<trkpt lat="64.144767761" lon="-21.882499695">
<ele>10.975098</ele>
<time>2012-07-28T21:07:24Z</time>
<speed>6.180000</speed>
<extensions>
<speed>6.2</speed>
<temp>0.00</temp>
<bpm>0</bpm>
<rpm>0.00</rpm>
</extensions>
</trkpt>
<trkpt lat="64.145042419" lon="-21.882415771">
<ele>11.025391</ele>
<time>2012-07-28T21:07:29Z</time>
<speed>6.200000</speed>
<extensions>
<speed>6.2</speed>
<temp>0.00</temp>
<bpm>0</bpm>
<rpm>0.00</rpm>
</extensions>
</trkpt>
<trkpt lat="64.145301819" lon="-21.882337570">
<ele>10.628174</ele>
<time>2012-07-28T21:07:34Z</time>
<speed>5.010000</speed>
<extensions>
<speed>5.0</speed>
<temp>0.00</temp>
<bpm>0</bpm>
<rpm>0.00</rpm>
</extensions>
</trkpt>
<trkpt lat="64.145523071" lon="-21.882307053">
<ele>8.878174</ele>
<time>2012-07-28T21:07:39Z</time>
<speed>4.950000</speed>
<extensions>
<speed>4.9</speed>
<temp>0.00</temp>
<bpm>0</bpm>
<rpm>0.00</rpm>
</extensions>
</trkpt>
<trkpt lat="64.145744324" lon="-21.882236481">
<ele>9.906494</ele>
<time>2012-07-28T21:07:44Z</time>
<speed>4.940000</speed>
<extensions>
<speed>4.9</speed>
<temp>0.00</temp>
<bpm>0</bpm>
<rpm>0.00</rpm>
</extensions>
</trkpt>
<trkpt lat="64.145957947" lon="-21.882165909">
<ele>9.202148</ele>
<time>2012-07-28T21:07:49Z</time>
<speed>4.640000</speed>
<extensions>
<speed>4.6</speed>
<temp>0.00</temp>
<bpm>0</bpm>
<rpm>0.00</rpm>
</extensions>
</trkpt>
<trkpt lat="64.146171570" lon="-21.882095337">
<ele>8.526367</ele>
<time>2012-07-28T21:07:54Z</time>
<speed>4.710000</speed>
<extensions>
<speed>4.7</speed>
<temp>0.00</temp>
<bpm>0</bpm>
<rpm>0.00</rpm>
</extensions>
</trkpt>
<trkpt lat="64.146369934" lon="-21.881959915">
<ele>8.438232</ele>
<time>2012-07-28T21:07:59Z</time>
<speed>4.720000</speed>
<extensions>
<speed>4.7</speed>
<temp>0.00</temp>
<bpm>0</bpm>
<rpm>0.00</rpm>
</extensions>
</trkpt>
<trkpt lat="64.146537781" lon="-21.881860733">
<ele>8.891113</ele>
<time>2012-07-28T21:08:04Z</time>
<speed>2.750000</speed>
<extensions>
<speed>2.7</speed>
<temp>0.00</temp>
<bpm>0</bpm>
<rpm>0.00</rpm>
</extensions>
</trkpt>
<trkpt lat="64.146575928" lon="-21.881830215">
<ele>9.256592</ele>
<time>2012-07-28T21:08:09Z</time>
<speed>0.340000</speed>
<extensions>
<speed>0.3</speed>
<temp>0.00</temp>
<bpm>0</bpm>
<rpm>0.00</rpm>
</extensions>
</trkpt>
<trkpt lat="64.146575928" lon="-21.881822586">
<ele>9.625488</ele>
<time>2012-07-28T21:08:14Z</time>
<speed>0.060000</speed>
<extensions>
<speed>0.1</speed>
<temp>0.00</temp>
<bpm>0</bpm>
<rpm>0.00</rpm>
</extensions>
</trkpt>
<trkpt lat="64.146575928" lon="-21.881820679">
<ele>9.860352</ele>
<time>2012-07-28T21:08:19Z</time>
<speed>0.010000</speed>
<extensions>
<speed>0.0</speed>
<temp>0.00</temp>
<bpm>0</bpm>
<rpm>0.00</rpm>
</extensions>
</trkpt>
<trkpt lat="64.146575928" lon="-21.881822586">
<ele>9.956787</ele>
<time>2012-07-28T21:08:24Z</time>
<speed>0.010000</speed>
<extensions>
<speed>0.0</speed>
<temp>0.00</temp>
<bpm>0</bpm>
<rpm>0.00</rpm>
</extensions>
</trkpt>
<trkpt lat="64.146575928" lon="-21.881824493">
<ele>9.969971</ele>
<time>2012-07-28T21:08:29Z</time>
<speed>0.010000</speed>
<extensions>
<speed>0.0</speed>
<temp>0.00</temp>
<bpm>0</bpm>
<rpm>0.00</rpm>
</extensions>
</trkpt>
<trkpt lat="64.146621704" lon="-21.881820679">
<ele>9.804932</ele>
<time>2012-07-28T21:08:34Z</time>
<speed>2.810000</speed>
<extensions>
<speed>2.8</speed>
<temp>0.00</temp>
<bpm>0</bpm>
<rpm>0.00</rpm>
</extensions>
</trkpt>
<trkpt lat="64.146682739" lon="-21.881540298">
<ele>9.775391</ele>
<time>2012-07-28T21:08:39Z</time>
<speed>3.430000</speed>
<extensions>
<speed>3.4</speed>
<temp>0.00</temp>
<bpm>0</bpm>
<rpm>0.00</rpm>
</extensions>
</trkpt>
<trkpt lat="64.146705627" lon="-21.881111145">
<ele>9.853760</ele>
<time>2012-07-28T21:08:44Z</time>
<speed>3.800000</speed>
<extensions>
<speed>3.8</speed>
<temp>0.00</temp>
<bpm>0</bpm>
<rpm>0.00</rpm>
</extensions>
</trkpt>
<trkpt lat="64.146728516" lon="-21.880714417">
<ele>10.397217</ele>
<time>2012-07-28T21:08:49Z</time>
<speed>3.730000</speed>
<extensions>
<speed>3.7</speed>
<temp>0.00</temp>
<bpm>0</bpm>
<rpm>0.00</rpm>
</extensions>
</trkpt>
<trkpt lat="64.146736145" lon="-21.880342484">
<ele>11.535400</ele>
<time>2012-07-28T21:08:54Z</time>
<speed>3.020000</speed>
<extensions>
<speed>3.0</speed>
<temp>0.00</temp>
<bpm>0</bpm>
<rpm>0.00</rpm>
</extensions>
</trkpt>
<trkpt lat="64.146728516" lon="-21.880012512">
<ele>13.659180</ele>
<time>2012-07-28T21:08:59Z</time>
<speed>3.130000</speed>
<extensions>
<speed>3.1</speed>
<temp>0.00</temp>
<bpm>0</bpm>
<rpm>0.00</rpm>
</extensions>
</trkpt>
<trkpt lat="64.146736145" lon="-21.879673004">
<ele>13.822998</ele>
<time>2012-07-28T21:09:04Z</time>
<speed>3.220000</speed>
<extensions>
<speed>3.2</speed>
<temp>0.00</temp>
<bpm>0</bpm>
<rpm>0.00</rpm>
</extensions>
</trkpt>
<trkpt lat="64.146743774" lon="-21.879360199">
<ele>14.353271</ele>
<time>2012-07-28T21:09:09Z</time>
<speed>3.500000</speed>
<extensions>
<speed>3.5</speed>
<temp>0.00</temp>
<bpm>0</bpm>
<rpm>0.00</rpm>
</extensions>
</trkpt>
<trkpt lat="64.146751404" lon="-21.879020691">
<ele>14.330078</ele>
<time>2012-07-28T21:09:14Z</time>
<speed>3.240000</speed>
<extensions>
<speed>3.2</speed>
<temp>0.00</temp>
<bpm>0</bpm>
<rpm>0.00</rpm>
</extensions>
</trkpt>
<trkpt lat="64.146759033" lon="-21.878662109">
<ele>14.607666</ele>
<time>2012-07-28T21:09:19Z</time>
<speed>3.210000</speed>
<extensions>
<speed>3.2</speed>
<temp>0.00</temp>
<bpm>0</bpm>
<rpm>0.00</rpm>
</extensions>
</trkpt>
<trkpt lat="64.146759033" lon="-21.878309250">
<ele>15.327881</ele>
<time>2012-07-28T21:09:24Z</time>
<speed>3.290000</speed>
<extensions>
<speed>3.3</speed>
<temp>0.00</temp>
<bpm>0</bpm>
<rpm>0.00</rpm>
</extensions>
</trkpt>
<trkpt lat="64.146720886" lon="-21.878028870">
<ele>16.445801</ele>
<time>2012-07-28T21:09:29Z</time>
<speed>2.090000</speed>
<extensions>
<speed>2.1</speed>
<temp>0.00</temp>
<bpm>0</bpm>
<rpm>0.00</rpm>
</extensions>
</trkpt>
<trkpt lat="64.146720886" lon="-21.877792358">
<ele>13.366455</ele>
<time>2012-07-28T21:09:34Z</time>
<speed>2.970000</speed>
<extensions>
<speed>3.0</speed>
<temp>0.00</temp>
<bpm>0</bpm>
<rpm>0.00</rpm>
</extensions>
</trkpt>
<trkpt lat="64.146736145" lon="-21.877439499">
<ele>13.728516</ele>
<time>2012-07-28T21:09:39Z</time>
<speed>3.500000</speed>
<extensions>
<speed>3.5</speed>
<temp>0.00</temp>
<bpm>0</bpm>
<rpm>0.00</rpm>
</extensions>
</trkpt>
<trkpt lat="64.146743774" lon="-21.877082825">
<ele>13.308105</ele>
<time>2012-07-28T21:09:44Z</time>
<speed>3.540000</speed>
<extensions>
<speed>3.5</speed>
<temp>0.00</temp>
<bpm>0</bpm>
<rpm>0.00</rpm>
</extensions>
</trkpt>
<trkpt lat="64.146743774" lon="-21.876661301">
<ele>13.368896</ele>
<time>2012-07-28T21:09:49Z</time>
<speed>4.610000</speed>
<extensions>
<speed>4.6</speed>
<temp>0.00</temp>
<bpm>0</bpm>
<rpm>0.00</rpm>
</extensions>
</trkpt>
<trkpt lat="64.146743774" lon="-21.876247406">
<ele>13.111084</ele>
<time>2012-07-28T21:09:54Z</time>
<speed>3.510000</speed>
<extensions>
<speed>3.5</speed>
<temp>0.00</temp>
<bpm>0</bpm>
<rpm>0.00</rpm>
</extensions>
</trkpt>
<trkpt lat="64.146751404" lon="-21.875967026">
<ele>15.677734</ele>
<time>2012-07-28T21:09:59Z</time>
<speed>1.700000</speed>
<extensions>
<speed>1.7</speed>
<temp>0.00</temp>
<bpm>0</bpm>
<rpm>0.00</rpm>
</extensions>
</trkpt>
<trkpt lat="64.146644592" lon="-21.875957489">
<ele>17.480957</ele>
<time>2012-07-28T21:10:04Z</time>
<speed>2.920000</speed>
<extensions>
<speed>2.9</speed>
<temp>0.00</temp>
<bpm>0</bpm>
<rpm>0.00</rpm>
</extensions>
</trkpt>
<trkpt lat="64.146476746" lon="-21.875904083">
<ele>18.085449</ele>
<time>2012-07-28T21:10:09Z</time>
<speed>3.480000</speed>
<extensions>
<speed>3.5</speed>
<temp>0.00</temp>
<bpm>0</bpm>
<rpm>0.00</rpm>
</extensions>
</trkpt>
<trkpt lat="64.146316528" lon="-21.875848770">
<ele>20.742676</ele>
<time>2012-07-28T21:10:14Z</time>
<speed>3.240000</speed>
<extensions>
<speed>3.2</speed>
<temp>0.00</temp>
<bpm>0</bpm>
<rpm>0.00</rpm>
</extensions>
</trkpt>
<trkpt lat="64.146194458" lon="-21.875841141">
<ele>23.211914</ele>
<time>2012-07-28T21:10:19Z</time>
<speed>1.500000</speed>
<extensions>
<speed>1.5</speed>
<temp>0.00</temp>
<bpm>0</bpm>
<rpm>0.00</rpm>
</extensions>
</trkpt>
<trkpt lat="64.146163940" lon="-21.875900269">
<ele>24.152832</ele>
<time>2012-07-28T21:10:24Z</time>
<speed>0.090000</speed>
<extensions>
<speed>0.1</speed>
<temp>0.00</temp>
<bpm>0</bpm>
<rpm>0.00</rpm>
</extensions>
</trkpt>
<trkpt lat="64.146163940" lon="-21.875898361">
<ele>24.922852</ele>
<time>2012-07-28T21:10:29Z</time>
<speed>0.050000</speed>
<extensions>
<speed>0.1</speed>
<temp>0.00</temp>
<bpm>0</bpm>
<rpm>0.00</rpm>
</extensions>
</trkpt>
<trkpt lat="64.146163940" lon="-21.875894547">
<ele>25.082520</ele>
<time>2012-07-28T21:10:34Z</time>
<extensions>
<speed>0.0</speed>
<temp>0.00</temp>
<bpm>0</bpm>
<rpm>0.00</rpm>
</extensions>
</trkpt>
<trkpt lat="64.146163940" lon="-21.875892639">
<ele>25.068359</ele>
<time>2012-07-28T21:10:39Z</time>
<speed>0.100000</speed>
<extensions>
<speed>0.1</speed>
<temp>0.00</temp>
<bpm>0</bpm>
<rpm>0.00</rpm>
</extensions>
</trkpt>
<trkpt lat="64.146156311" lon="-21.875898361">
<ele>25.006348</ele>
<time>2012-07-28T21:10:44Z</time>
<speed>0.130000</speed>
<extensions>
<speed>0.1</speed>
<temp>0.00</temp>
<bpm>0</bpm>
<rpm>0.00</rpm>
</extensions>
</trkpt>
<trkpt lat="64.146156311" lon="-21.875890732">
<ele>24.976074</ele>
<time>2012-07-28T21:10:49Z</time>
<speed>0.030000</speed>
<extensions>
<speed>0.0</speed>
<temp>0.00</temp>
<bpm>0</bpm>
<rpm>0.00</rpm>
</extensions>
</trkpt>
<trkpt lat="64.146156311" lon="-21.875890732">
<ele>25.036621</ele>
<time>2012-07-28T21:10:54Z</time>
<speed>0.060000</speed>
<extensions>
<speed>0.1</speed>
<temp>0.00</temp>
<bpm>0</bpm>
<rpm>0.00</rpm>
</extensions>
</trkpt>
<trkpt lat="64.146141052" lon="-21.875993729">
<ele>23.078125</ele>
<time>2012-07-28T21:10:59Z</time>
<speed>1.710000</speed>
<extensions>
<speed>1.7</speed>
<temp>0.00</temp>
<bpm>0</bpm>
<rpm>0.00</rpm>
</extensions>
</trkpt>
<trkpt lat="64.146148682" lon="-21.876222610">
<ele>20.125977</ele>
<time>2012-07-28T21:11:04Z</time>
<speed>1.990000</speed>
<extensions>
<speed>2.0</speed>
<temp>0.00</temp>
<bpm>0</bpm>
<rpm>0.00</rpm>
</extensions>
</trkpt>
<trkpt lat="64.146148682" lon="-21.876445770">
<ele>19.394043</ele>
<time>2012-07-28T21:11:09Z</time>
<speed>1.550000</speed>
<extensions>
<speed>1.5</speed>
<temp>0.00</temp>
<bpm>0</bpm>
<rpm>0.00</rpm>
</extensions>
</trkpt>
<trkpt lat="64.146156311" lon="-21.876531601">
<ele>17.195313</ele>
<time>2012-07-28T21:11:14Z</time>
<speed>0.390000</speed>
<extensions>
<speed>0.4</speed>
<temp>0.00</temp>
<bpm>0</bpm>
<rpm>0.00</rpm>
</extensions>
</trkpt>
<trkpt lat="64.146148682" lon="-21.876535416">
<ele>16.290527</ele>
<time>2012-07-28T21:11:19Z</time>
<speed>0.310000</speed>
<extensions>
<speed>0.3</speed>
<temp>0.00</temp>
<bpm>0</bpm>
<rpm>0.00</rpm>
</extensions>
</trkpt>
<trkpt lat="64.146141052" lon="-21.876605988">
<ele>14.717773</ele>
<time>2012-07-28T21:11:24Z</time>
<speed>0.430000</speed>
<extensions>
<speed>0.4</speed>
<temp>0.00</temp>
<bpm>0</bpm>
<rpm>0.00</rpm>
</extensions>
</trkpt>
<trkpt lat="64.146141052" lon="-21.876640320">
<ele>14.986572</ele>
<time>2012-07-28T21:11:29Z</time>
<speed>0.270000</speed>
<extensions>
<speed>0.3</speed>
<temp>0.00</temp>
<bpm>0</bpm>
<rpm>0.00</rpm>
</extensions>
</trkpt>
<trkpt lat="64.146148682" lon="-21.876647949">
<ele>15.227295</ele>
<time>2012-07-28T21:11:34Z</time>
<speed>0.020000</speed>
<extensions>
<speed>0.0</speed>
<temp>0.00</temp>
<bpm>0</bpm>
<rpm>0.00</rpm>
</extensions>
</trkpt>
<trkpt lat="64.146141052" lon="-21.876628876">
<ele>15.262451</ele>
<time>2012-07-28T21:11:39Z</time>
<speed>0.070000</speed>
<extensions>
<speed>0.1</speed>
<temp>0.00</temp>
<bpm>0</bpm>
<rpm>0.00</rpm>
</extensions>
</trkpt>
<trkpt lat="64.146141052" lon="-21.876630783">
<ele>15.535400</ele>
<time>2012-07-28T21:11:44Z</time>
<speed>0.030000</speed>
<extensions>
<speed>0.0</speed>
<temp>0.00</temp>
<bpm>0</bpm>
<rpm>0.00</rpm>
</extensions>
</trkpt>
<trkpt lat="64.146141052" lon="-21.876632690">
<ele>15.538330</ele>
<time>2012-07-28T21:11:49Z</time>
<speed>0.020000</speed>
<extensions>
<speed>0.0</speed>
<temp>0.00</temp>
<bpm>0</bpm>
<rpm>0.00</rpm>
</extensions>
</trkpt>
<trkpt lat="64.146141052" lon="-21.876632690">
<ele>15.549072</ele>
<time>2012-07-28T21:11:54Z</time>
<extensions>
<speed>0.0</speed>
<temp>0.00</temp>
<bpm>0</bpm>
<rpm>0.00</rpm>
</extensions>
</trkpt>
<trkpt lat="64.146141052" lon="-21.876632690">
<ele>15.541016</ele>
<time>2012-07-28T21:11:59Z</time>
<speed>0.260000</speed>
<extensions>
<speed>0.3</speed>
<temp>0.00</temp>
<bpm>0</bpm>
<rpm>0.00</rpm>
</extensions>
</trkpt>
<trkpt lat="64.146141052" lon="-21.876632690">
<ele>15.534668</ele>
<time>2012-07-28T21:12:04Z</time>
<speed>0.010000</speed>
<extensions>
<speed>0.0</speed>
<temp>0.00</temp>
<bpm>0</bpm>
<rpm>0.00</rpm>
</extensions>
</trkpt>
<trkpt lat="64.146141052" lon="-21.876632690">
<ele>15.537842</ele>
<time>2012-07-28T21:12:09Z</time>
<speed>0.010000</speed>
<extensions>
<speed>0.0</speed>
<temp>0.00</temp>
<bpm>0</bpm>
<rpm>0.00</rpm>
</extensions>
</trkpt>
<trkpt lat="64.146141052" lon="-21.876632690">
<ele>15.515381</ele>
<time>2012-07-28T21:12:14Z</time>
<speed>0.040000</speed>
<extensions>
<speed>0.0</speed>
<temp>0.00</temp>
<bpm>0</bpm>
<rpm>0.00</rpm>
</extensions>
</trkpt>
<trkpt lat="64.146141052" lon="-21.876632690">
<ele>15.514893</ele>
<time>2012-07-28T21:12:19Z</time>
<extensions>
<speed>0.0</speed>
<temp>0.00</temp>
<bpm>0</bpm>
<rpm>0.00</rpm>
</extensions>
</trkpt>
<trkpt lat="64.146141052" lon="-21.876632690">
<ele>15.519775</ele>
<time>2012-07-28T21:12:24Z</time>
<extensions>
<speed>0.0</speed>
<temp>0.00</temp>
<bpm>0</bpm>
<rpm>0.00</rpm>
</extensions>
</trkpt>
<trkpt lat="64.146141052" lon="-21.876632690">
<ele>15.532471</ele>
<time>2012-07-28T21:12:29Z</time>
<extensions>
<speed>0.0</speed>
<temp>0.00</temp>
<bpm>0</bpm>
<rpm>0.00</rpm>
</extensions>
</trkpt>
<trkpt lat="64.146141052" lon="-21.876632690">
<ele>15.535645</ele>
<time>2012-07-28T21:12:34Z</time>
<extensions>
<speed>0.0</speed>
<temp>0.00</temp>
<bpm>0</bpm>
<rpm>0.00</rpm>
</extensions>
</trkpt>
<trkpt lat="64.146141052" lon="-21.876615524">
<ele>15.616699</ele>
<time>2012-07-28T21:12:39Z</time>
<speed>1.080000</speed>
<extensions>
<speed>1.1</speed>
<temp>0.00</temp>
<bpm>0</bpm>
<rpm>0.00</rpm>
</extensions>
</trkpt>
<trkpt lat="64.146156311" lon="-21.876312256">
<ele>16.225586</ele>
<time>2012-07-28T21:12:44Z</time>
<speed>3.270000</speed>
<extensions>
<speed>3.3</speed>
<temp>0.00</temp>
<bpm>0</bpm>
<rpm>0.00</rpm>
</extensions>
</trkpt>
<trkpt lat="64.146156311" lon="-21.876026154">
<ele>16.184570</ele>
<time>2012-07-28T21:12:49Z</time>
<speed>2.360000</speed>
<extensions>
<speed>2.4</speed>
<temp>0.00</temp>
<bpm>0</bpm>
<rpm>0.00</rpm>
</extensions>
</trkpt>
<trkpt lat="64.146141052" lon="-21.875717163">
<ele>16.207520</ele>
<time>2012-07-28T21:12:54Z</time>
<speed>3.150000</speed>
<extensions>
<speed>3.2</speed>
<temp>0.00</temp>
<bpm>0</bpm>
<rpm>0.00</rpm>
</extensions>
</trkpt>
<trkpt lat="64.146156311" lon="-21.875394821">
<ele>15.699219</ele>
<time>2012-07-28T21:12:59Z</time>
<speed>2.620000</speed>
<extensions>
<speed>2.6</speed>
<temp>0.00</temp>
<bpm>0</bpm>
<rpm>0.00</rpm>
</extensions>
</trkpt>
<trkpt lat="64.146171570" lon="-21.875204086">
<ele>16.569336</ele>
<time>2012-07-28T21:13:04Z</time>
<speed>1.890000</speed>
<extensions>
<speed>1.9</speed>
<temp>0.00</temp>
<bpm>0</bpm>
<rpm>0.00</rpm>
</extensions>
</trkpt>
<trkpt lat="64.146057129" lon="-21.875162125">
<ele>18.750977</ele>
<time>2012-07-28T21:13:09Z</time>
<speed>2.400000</speed>
<extensions>
<speed>2.4</speed>
<temp>0.00</temp>
<bpm>0</bpm>
<rpm>0.00</rpm>
</extensions>
</trkpt>
<trkpt lat="64.145965576" lon="-21.875005722">
<ele>20.329590</ele>
<time>2012-07-28T21:13:14Z</time>
<speed>2.510000</speed>
<extensions>
<speed>2.5</speed>
<temp>0.00</temp>
<bpm>0</bpm>
<rpm>0.00</rpm>
</extensions>
</trkpt>
<trkpt lat="64.145866394" lon="-21.874855042">
<ele>24.859863</ele>
<time>2012-07-28T21:13:19Z</time>
<speed>3.310000</speed>
<extensions>
<speed>3.3</speed>
<temp>0.00</temp>
<bpm>0</bpm>
<rpm>0.00</rpm>
</extensions>
</trkpt>
<trkpt lat="64.145721436" lon="-21.874752045">
<ele>28.055176</ele>
<time>2012-07-28T21:13:24Z</time>
<speed>2.570000</speed>
<extensions>
<speed>2.6</speed>
<temp>0.00</temp>
<bpm>0</bpm>
<rpm>0.00</rpm>
</extensions>
</trkpt>
<trkpt lat="64.145576477" lon="-21.874694824">
<ele>28.602539</ele>
<time>2012-07-28T21:13:29Z</time>
<speed>3.000000</speed>
<extensions>
<speed>3.0</speed>
<temp>0.00</temp>
<bpm>0</bpm>
<rpm>0.00</rpm>
</extensions>
</trkpt>
<trkpt lat="64.145423889" lon="-21.874696732">
<ele>25.228516</ele>
<time>2012-07-28T21:13:34Z</time>
<speed>3.610000</speed>
<extensions>
<speed>3.6</speed>
<temp>0.00</temp>
<bpm>0</bpm>
<rpm>0.00</rpm>
</extensions>
</trkpt>
<trkpt lat="64.145248413" lon="-21.874692917">
<ele>23.316895</ele>
<time>2012-07-28T21:13:39Z</time>
<speed>3.040000</speed>
<extensions>
<speed>3.0</speed>
<temp>0.00</temp>
<bpm>0</bpm>
<rpm>0.00</rpm>
</extensions>
</trkpt>
<trkpt lat="64.145187378" lon="-21.874698639">
<ele>23.358887</ele>
<time>2012-07-28T21:13:44Z</time>
<speed>0.120000</speed>
<extensions>
<speed>0.1</speed>
<temp>0.00</temp>
<bpm>0</bpm>
<rpm>0.00</rpm>
</extensions>
</trkpt>
<trkpt lat="64.145187378" lon="-21.874706268">
<ele>23.761230</ele>
<time>2012-07-28T21:13:49Z</time>
<speed>0.050000</speed>
<extensions>
<speed>0.1</speed>
<temp>0.00</temp>
<bpm>0</bpm>
<rpm>0.00</rpm>
</extensions>
</trkpt>
<trkpt lat="64.145164490" lon="-21.874706268">
<ele>23.693848</ele>
<time>2012-07-28T21:13:54Z</time>
<speed>1.930000</speed>
<extensions>
<speed>1.9</speed>
<temp>0.00</temp>
<bpm>0</bpm>
<rpm>0.00</rpm>
</extensions>
</trkpt>
<trkpt lat="64.145042419" lon="-21.874719620">
<ele>22.664551</ele>
<time>2012-07-28T21:13:59Z</time>
<speed>2.550000</speed>
<extensions>
<speed>2.6</speed>
<temp>0.00</temp>
<bpm>0</bpm>
<rpm>0.00</rpm>
</extensions>
</trkpt>
<trkpt lat="64.144912720" lon="-21.874710083">
<ele>21.807617</ele>
<time>2012-07-28T21:14:04Z</time>
<speed>2.870000</speed>
<extensions>
<speed>2.9</speed>
<temp>0.00</temp>
<bpm>0</bpm>
<rpm>0.00</rpm>
</extensions>
</trkpt>
<trkpt lat="64.144790649" lon="-21.874683380">
<ele>21.494141</ele>
<time>2012-07-28T21:14:09Z</time>
<speed>2.030000</speed>
<extensions>
<speed>2.0</speed>
<temp>0.00</temp>
<bpm>0</bpm>
<rpm>0.00</rpm>
</extensions>
</trkpt>
<trkpt lat="64.144676208" lon="-21.874643326">
<ele>22.233398</ele>
<time>2012-07-28T21:14:14Z</time>
<speed>2.930000</speed>
<extensions>
<speed>2.9</speed>
<temp>0.00</temp>
<bpm>0</bpm>
<rpm>0.00</rpm>
</extensions>
</trkpt>
<trkpt lat="64.144569397" lon="-21.874544144">
<ele>24.964355</ele>
<time>2012-07-28T21:14:19Z</time>
<speed>2.540000</speed>
<extensions>
<speed>2.5</speed>
<temp>0.00</temp>
<bpm>0</bpm>
<rpm>0.00</rpm>
</extensions>
</trkpt>
<trkpt lat="64.144508362" lon="-21.874395370">
<ele>26.360352</ele>
<time>2012-07-28T21:14:24Z</time>
<speed>0.510000</speed>
<extensions>
<speed>0.5</speed>
<temp>0.00</temp>
<bpm>0</bpm>
<rpm>0.00</rpm>
</extensions>
</trkpt>
<trkpt lat="64.144477844" lon="-21.874313354">
<ele>28.744629</ele>
<time>2012-07-28T21:14:29Z</time>
<speed>1.510000</speed>
<extensions>
<speed>1.5</speed>
<temp>0.00</temp>
<bpm>0</bpm>
<rpm>0.00</rpm>
</extensions>
</trkpt>
<trkpt lat="64.144439697" lon="-21.874277115">
<ele>30.014160</ele>
<time>2012-07-28T21:14:34Z</time>
<speed>0.090000</speed>
<extensions>
<speed>0.1</speed>
<temp>0.00</temp>
<bpm>0</bpm>
<rpm>0.00</rpm>
</extensions>
</trkpt>
<trkpt lat="64.144432068" lon="-21.874277115">
<ele>29.393066</ele>
<time>2012-07-28T21:14:39Z</time>
<speed>0.010000</speed>
<extensions>
<speed>0.0</speed>
<temp>0.00</temp>
<bpm>0</bpm>
<rpm>0.00</rpm>
</extensions>
</trkpt>
<trkpt lat="64.144432068" lon="-21.874277115">
<ele>29.511719</ele>
<time>2012-07-28T21:14:44Z</time>
<speed>0.030000</speed>
<extensions>
<speed>0.0</speed>
<temp>0.00</temp>
<bpm>0</bpm>
<rpm>0.00</rpm>
</extensions>
</trkpt>
<trkpt lat="64.144432068" lon="-21.874277115">
<ele>29.498047</ele>
<time>2012-07-28T21:14:49Z</time>
<speed>0.020000</speed>
<extensions>
<speed>0.0</speed>
<temp>0.00</temp>
<bpm>0</bpm>
<rpm>0.00</rpm>
</extensions>
</trkpt>
<trkpt lat="64.144432068" lon="-21.874277115">
<ele>29.476563</ele>
<time>2012-07-28T21:14:54Z</time>
<speed>0.070000</speed>
<extensions>
<speed>0.1</speed>
<temp>0.00</temp>
<bpm>0</bpm>
<rpm>0.00</rpm>
</extensions>
</trkpt>
<trkpt lat="64.144432068" lon="-21.874277115">
<ele>29.443848</ele>
<time>2012-07-28T21:14:59Z</time>
<speed>0.120000</speed>
<extensions>
<speed>0.1</speed>
<temp>0.00</temp>
<bpm>0</bpm>
<rpm>0.00</rpm>
</extensions>
</trkpt>
<trkpt lat="64.144462585" lon="-21.874307632">
<ele>28.679688</ele>
<time>2012-07-28T21:15:04Z</time>
<speed>1.320000</speed>
<extensions>
<speed>1.3</speed>
<temp>0.00</temp>
<bpm>0</bpm>
<rpm>0.00</rpm>
</extensions>
</trkpt>
<trkpt lat="64.144546509" lon="-21.874330521">
<ele>27.497559</ele>
<time>2012-07-28T21:15:09Z</time>
<speed>0.920000</speed>
<extensions>
<speed>0.9</speed>
<temp>0.00</temp>
<bpm>0</bpm>
<rpm>0.00</rpm>
</extensions>
</trkpt>
<trkpt lat="64.144569397" lon="-21.874305725">
<ele>26.831543</ele>
<time>2012-07-28T21:15:14Z</time>
<speed>0.010000</speed>
<extensions>
<speed>0.0</speed>
<temp>0.00</temp>
<bpm>0</bpm>
<rpm>0.00</rpm>
</extensions>
</trkpt>
<trkpt lat="64.144569397" lon="-21.874319077">
<ele>26.071777</ele>
<time>2012-07-28T21:15:19Z</time>
<speed>0.010000</speed>
<extensions>
<speed>0.0</speed>
<temp>0.00</temp>
<bpm>0</bpm>
<rpm>0.00</rpm>
</extensions>
</trkpt>
<trkpt lat="64.144569397" lon="-21.874319077">
<ele>26.132813</ele>
<time>2012-07-28T21:15:24Z</time>
<extensions>
<speed>0.0</speed>
<temp>0.00</temp>
<bpm>0</bpm>
<rpm>0.00</rpm>
</extensions>
</trkpt>
<trkpt lat="64.144569397" lon="-21.874317169">
<ele>26.202148</ele>
<time>2012-07-28T21:15:29Z</time>
<extensions>
<speed>0.0</speed>
<temp>0.00</temp>
<bpm>0</bpm>
<rpm>0.00</rpm>
</extensions>
</trkpt>
<trkpt lat="64.144569397" lon="-21.874317169">
<ele>26.177734</ele>
<time>2012-07-28T21:15:34Z</time>
<extensions>
<speed>0.0</speed>
<temp>0.00</temp>
<bpm>0</bpm>
<rpm>0.00</rpm>
</extensions>
</trkpt>
<trkpt lat="64.144569397" lon="-21.874317169">
<ele>26.167969</ele>
<time>2012-07-28T21:15:39Z</time>
<speed>0.010000</speed>
<extensions>
<speed>0.0</speed>
<temp>0.00</temp>
<bpm>0</bpm>
<rpm>0.00</rpm>
</extensions>
</trkpt>
<trkpt lat="64.144569397" lon="-21.874317169">
<ele>26.176270</ele>
<time>2012-07-28T21:15:44Z</time>
<extensions>
<speed>0.0</speed>
<temp>0.00</temp>
<bpm>0</bpm>
<rpm>0.00</rpm>
</extensions>
</trkpt>
<trkpt lat="64.144569397" lon="-21.874317169">
<ele>26.167969</ele>
<time>2012-07-28T21:15:49Z</time>
<speed>0.130000</speed>
<extensions>
<speed>0.1</speed>
<temp>0.00</temp>
<bpm>0</bpm>
<rpm>0.00</rpm>
</extensions>
</trkpt>
<trkpt lat="64.144607544" lon="-21.874290466">
<ele>25.120605</ele>
<time>2012-07-28T21:15:54Z</time>
<speed>0.900000</speed>
<extensions>
<speed>0.9</speed>
<temp>0.00</temp>
<bpm>0</bpm>
<rpm>0.00</rpm>
</extensions>
</trkpt>
<trkpt lat="64.144630432" lon="-21.874263763">
<ele>23.706543</ele>
<time>2012-07-28T21:15:59Z</time>
<speed>1.070000</speed>
<extensions>
<speed>1.1</speed>
<temp>0.00</temp>
<bpm>0</bpm>
<rpm>0.00</rpm>
</extensions>
</trkpt>
<trkpt lat="64.144660950" lon="-21.874193192">
<ele>23.411133</ele>
<time>2012-07-28T21:16:04Z</time>
<speed>1.240000</speed>
<extensions>
<speed>1.2</speed>
<temp>0.00</temp>
<bpm>0</bpm>
<rpm>0.00</rpm>
</extensions>
</trkpt>
<trkpt lat="64.144699097" lon="-21.874116898">
<ele>23.250488</ele>
<time>2012-07-28T21:16:09Z</time>
<speed>0.990000</speed>
<extensions>
<speed>1.0</speed>
<temp>0.00</temp>
<bpm>0</bpm>
<rpm>0.00</rpm>
</extensions>
</trkpt>
<trkpt lat="64.144706726" lon="-21.874101639">
<ele>22.861328</ele>
<time>2012-07-28T21:16:14Z</time>
<speed>0.300000</speed>
<extensions>
<speed>0.3</speed>
<temp>0.00</temp>
<bpm>0</bpm>
<rpm>0.00</rpm>
</extensions>
</trkpt>
<trkpt lat="64.144714355" lon="-21.874111176">
<ele>22.310547</ele>
<time>2012-07-28T21:16:19Z</time>
<speed>0.160000</speed>
<extensions>
<speed>0.2</speed>
<temp>0.00</temp>
<bpm>0</bpm>
<rpm>0.00</rpm>
</extensions>
</trkpt>
<trkpt lat="64.144706726" lon="-21.874097824">
<ele>22.581055</ele>
<time>2012-07-28T21:16:24Z</time>
<speed>0.290000</speed>
<extensions>
<speed>0.3</speed>
<temp>0.00</temp>
<bpm>0</bpm>
<rpm>0.00</rpm>
</extensions>
</trkpt>
<trkpt lat="64.144699097" lon="-21.874095917">
<ele>22.687012</ele>
<time>2012-07-28T21:16:29Z</time>
<speed>0.090000</speed>
<extensions>
<speed>0.1</speed>
<temp>0.00</temp>
<bpm>0</bpm>
<rpm>0.00</rpm>
</extensions>
</trkpt>
<trkpt lat="64.144699097" lon="-21.874101639">
<ele>22.723145</ele>
<time>2012-07-28T21:16:34Z</time>
<speed>0.040000</speed>
<extensions>
<speed>0.0</speed>
<temp>0.00</temp>
<bpm>0</bpm>
<rpm>0.00</rpm>
</extensions>
</trkpt>
<trkpt lat="64.144699097" lon="-21.874103546">
<ele>22.722168</ele>
<time>2012-07-28T21:16:39Z</time>
<speed>0.010000</speed>
<extensions>
<speed>0.0</speed>
<temp>0.00</temp>
<bpm>0</bpm>
<rpm>0.00</rpm>
</extensions>
</trkpt>
<trkpt lat="64.144699097" lon="-21.874095917">
<ele>22.722168</ele>
<time>2012-07-28T21:16:44Z</time>
<speed>0.070000</speed>
<extensions>
<speed>0.1</speed>
<temp>0.00</temp>
<bpm>0</bpm>
<rpm>0.00</rpm>
</extensions>
</trkpt>
<trkpt lat="64.144699097" lon="-21.874092102">
<ele>22.734375</ele>
<time>2012-07-28T21:16:49Z</time>
<speed>0.100000</speed>
<extensions>
<speed>0.1</speed>
<temp>0.00</temp>
<bpm>0</bpm>
<rpm>0.00</rpm>
</extensions>
</trkpt>
<trkpt lat="64.144699097" lon="-21.874092102">
<ele>22.720215</ele>
<time>2012-07-28T21:16:54Z</time>
<extensions>
<speed>0.0</speed>
<temp>0.00</temp>
<bpm>0</bpm>
<rpm>0.00</rpm>
</extensions>
</trkpt>
<trkpt lat="64.144699097" lon="-21.874092102">
<ele>22.720703</ele>
<time>2012-07-28T21:16:59Z</time>
<extensions>
<speed>0.0</speed>
<temp>0.00</temp>
<bpm>0</bpm>
<rpm>0.00</rpm>
</extensions>
</trkpt>
<trkpt lat="64.144699097" lon="-21.874090195">
<ele>22.714355</ele>
<time>2012-07-28T21:17:04Z</time>
<extensions>
<speed>0.0</speed>
<temp>0.00</temp>
<bpm>0</bpm>
<rpm>0.00</rpm>
</extensions>
</trkpt>
<trkpt lat="64.144699097" lon="-21.874090195">
<ele>22.717773</ele>
<time>2012-07-28T21:17:09Z</time>
<extensions>
<speed>0.0</speed>
<temp>0.00</temp>
<bpm>0</bpm>
<rpm>0.00</rpm>
</extensions>
</trkpt>
<trkpt lat="64.144699097" lon="-21.874090195">
<ele>22.719727</ele>
<time>2012-07-28T21:17:14Z</time>
<speed>0.010000</speed>
<extensions>
<speed>0.0</speed>
<temp>0.00</temp>
<bpm>0</bpm>
<rpm>0.00</rpm>
</extensions>
</trkpt>
<trkpt lat="64.144699097" lon="-21.874090195">
<ele>22.719238</ele>
<time>2012-07-28T21:17:19Z</time>
<extensions>
<speed>0.0</speed>
<temp>0.00</temp>
<bpm>0</bpm>
<rpm>0.00</rpm>
</extensions>
</trkpt>
<trkpt lat="64.144699097" lon="-21.874090195">
<ele>22.711914</ele>
<time>2012-07-28T21:17:24Z</time>
<speed>0.010000</speed>
<extensions>
<speed>0.0</speed>
<temp>0.00</temp>
<bpm>0</bpm>
<rpm>0.00</rpm>
</extensions>
</trkpt>
<trkpt lat="64.144699097" lon="-21.874090195">
<ele>22.708984</ele>
<time>2012-07-28T21:17:29Z</time>
<extensions>
<speed>0.0</speed>
<temp>0.00</temp>
<bpm>0</bpm>
<rpm>0.00</rpm>
</extensions>
</trkpt>
<trkpt lat="64.144706726" lon="-21.874090195">
<ele>22.706055</ele>
<time>2012-07-28T21:17:34Z</time>
<speed>0.030000</speed>
<extensions>
<speed>0.0</speed>
<temp>0.00</temp>
<bpm>0</bpm>
<rpm>0.00</rpm>
</extensions>
</trkpt>
<trkpt lat="64.144706726" lon="-21.874090195">
<ele>22.694336</ele>
<time>2012-07-28T21:17:39Z</time>
<speed>0.010000</speed>
<extensions>
<speed>0.0</speed>
<temp>0.00</temp>
<bpm>0</bpm>
<rpm>0.00</rpm>
</extensions>
</trkpt>
<trkpt lat="64.144706726" lon="-21.874088287">
<ele>22.686035</ele>
<time>2012-07-28T21:17:44Z</time>
<extensions>
<speed>0.0</speed>
<temp>0.00</temp>
<bpm>0</bpm>
<rpm>0.00</rpm>
</extensions>
</trkpt>
<trkpt lat="64.144706726" lon="-21.874088287">
<ele>22.685059</ele>
<time>2012-07-28T21:17:49Z</time>
<speed>0.020000</speed>
<extensions>
<speed>0.0</speed>
<temp>0.00</temp>
<bpm>0</bpm>
<rpm>0.00</rpm>
</extensions>
</trkpt>
<trkpt lat="64.144706726" lon="-21.874088287">
<ele>22.691895</ele>
<time>2012-07-28T21:17:54Z</time>
<extensions>
<speed>0.0</speed>
<temp>0.00</temp>
<bpm>0</bpm>
<rpm>0.00</rpm>
</extensions>
</trkpt>
<trkpt lat="64.144706726" lon="-21.874088287">
<ele>22.674805</ele>
<time>2012-07-28T21:17:59Z</time>
<extensions>
<speed>0.0</speed>
<temp>0.00</temp>
<bpm>0</bpm>
<rpm>0.00</rpm>
</extensions>
</trkpt>
<trkpt lat="64.144706726" lon="-21.874086380">
<ele>22.643066</ele>
<time>2012-07-28T21:18:04Z</time>
<speed>0.030000</speed>
<extensions>
<speed>0.0</speed>
<temp>0.00</temp>
<bpm>0</bpm>
<rpm>0.00</rpm>
</extensions>
</trkpt>
<trkpt lat="64.144706726" lon="-21.874086380">
<ele>22.611328</ele>
<time>2012-07-28T21:18:09Z</time>
<speed>0.010000</speed>
<extensions>
<speed>0.0</speed>
<temp>0.00</temp>
<bpm>0</bpm>
<rpm>0.00</rpm>
</extensions>
</trkpt>
<trkpt lat="64.144706726" lon="-21.874086380">
<ele>22.580078</ele>
<time>2012-07-28T21:18:14Z</time>
<extensions>
<speed>0.0</speed>
<temp>0.00</temp>
<bpm>0</bpm>
<rpm>0.00</rpm>
</extensions>
</trkpt>
<trkpt lat="64.144706726" lon="-21.874086380">
<ele>22.568848</ele>
<time>2012-07-28T21:18:19Z</time>
<speed>0.010000</speed>
<extensions>
<speed>0.0</speed>
<temp>0.00</temp>
<bpm>0</bpm>
<rpm>0.00</rpm>
</extensions>
</trkpt>
<trkpt lat="64.144706726" lon="-21.874086380">
<ele>22.562500</ele>
<time>2012-07-28T21:18:24Z</time>
<speed>0.010000</speed>
<extensions>
<speed>0.0</speed>
<temp>0.00</temp>
<bpm>0</bpm>
<rpm>0.00</rpm>
</extensions>
</trkpt>
<trkpt lat="64.144706726" lon="-21.874086380">
<ele>22.540527</ele>
<time>2012-07-28T21:18:29Z</time>
<speed>0.010000</speed>
<extensions>
<speed>0.0</speed>
<temp>0.00</temp>
<bpm>0</bpm>
<rpm>0.00</rpm>
</extensions>
</trkpt>
<trkpt lat="64.144706726" lon="-21.874086380">
<ele>22.503906</ele>
<time>2012-07-28T21:18:34Z</time>
<speed>0.010000</speed>
<extensions>
<speed>0.0</speed>
<temp>0.00</temp>
<bpm>0</bpm>
<rpm>0.00</rpm>
</extensions>
</trkpt>
<trkpt lat="64.144706726" lon="-21.874086380">
<ele>22.491211</ele>
<time>2012-07-28T21:18:39Z</time>
<speed>0.010000</speed>
<extensions>
<speed>0.0</speed>
<temp>0.00</temp>
<bpm>0</bpm>
<rpm>0.00</rpm>
</extensions>
</trkpt>
<trkpt lat="64.144706726" lon="-21.874086380">
<ele>22.451660</ele>
<time>2012-07-28T21:18:44Z</time>
<speed>0.010000</speed>
<extensions>
<speed>0.0</speed>
<temp>0.00</temp>
<bpm>0</bpm>
<rpm>0.00</rpm>
</extensions>
</trkpt>
<trkpt lat="64.144706726" lon="-21.874086380">
<ele>22.437988</ele>
<time>2012-07-28T21:18:49Z</time>
<speed>0.010000</speed>
<extensions>
<speed>0.0</speed>
<temp>0.00</temp>
<bpm>0</bpm>
<rpm>0.00</rpm>
</extensions>
</trkpt>
<trkpt lat="64.144706726" lon="-21.874086380">
<ele>22.416992</ele>
<time>2012-07-28T21:18:54Z</time>
<extensions>
<speed>0.0</speed>
<temp>0.00</temp>
<bpm>0</bpm>
<rpm>0.00</rpm>
</extensions>
</trkpt>
<trkpt lat="64.144714355" lon="-21.874074936">
<ele>22.648926</ele>
<time>2012-07-28T21:18:59Z</time>
<speed>0.910000</speed>
<extensions>
<speed>0.9</speed>
<temp>0.00</temp>
<bpm>0</bpm>
<rpm>0.00</rpm>
</extensions>
</trkpt>
<trkpt lat="64.144752502" lon="-21.874052048">
<ele>23.752930</ele>
<time>2012-07-28T21:19:04Z</time>
<speed>1.160000</speed>
<extensions>
<speed>1.2</speed>
<temp>0.00</temp>
<bpm>0</bpm>
<rpm>0.00</rpm>
</extensions>
</trkpt>
<trkpt lat="64.144798279" lon="-21.874111176">
<ele>24.397949</ele>
<time>2012-07-28T21:19:09Z</time>
<speed>1.980000</speed>
<extensions>
<speed>2.0</speed>
<temp>0.00</temp>
<bpm>0</bpm>
<rpm>0.00</rpm>
</extensions>
</trkpt>
<trkpt lat="64.144874573" lon="-21.874204636">
<ele>24.018066</ele>
<time>2012-07-28T21:19:14Z</time>
<speed>2.040000</speed>
<extensions>
<speed>2.0</speed>
<temp>0.00</temp>
<bpm>0</bpm>
<rpm>0.00</rpm>
</extensions>
</trkpt>
<trkpt lat="64.144981384" lon="-21.874254227">
<ele>21.974121</ele>
<time>2012-07-28T21:19:19Z</time>
<speed>2.460000</speed>
<extensions>
<speed>2.5</speed>
<temp>0.00</temp>
<bpm>0</bpm>
<rpm>0.00</rpm>
</extensions>
</trkpt>
<trkpt lat="64.145057678" lon="-21.874332428">
<ele>19.500977</ele>
<time>2012-07-28T21:19:24Z</time>
<speed>1.710000</speed>
<extensions>
<speed>1.7</speed>
<temp>0.00</temp>
<bpm>0</bpm>
<rpm>0.00</rpm>
</extensions>
</trkpt>
<trkpt lat="64.145141602" lon="-21.874433517">
<ele>18.467773</ele>
<time>2012-07-28T21:19:29Z</time>
<speed>2.720000</speed>
<extensions>
<speed>2.7</speed>
<temp>0.00</temp>
<bpm>0</bpm>
<rpm>0.00</rpm>
</extensions>
</trkpt>
<trkpt lat="64.145240784" lon="-21.874591827">
<ele>17.112305</ele>
<time>2012-07-28T21:19:34Z</time>
<speed>2.710000</speed>
<extensions>
<speed>2.7</speed>
<temp>0.00</temp>
<bpm>0</bpm>
<rpm>0.00</rpm>
</extensions>
</trkpt>
<trkpt lat="64.145362854" lon="-21.874687195">
<ele>17.457031</ele>
<time>2012-07-28T21:19:39Z</time>
<speed>2.720000</speed>
<extensions>
<speed>2.7</speed>
<temp>0.00</temp>
<bpm>0</bpm>
<rpm>0.00</rpm>
</extensions>
</trkpt>
<trkpt lat="64.145484924" lon="-21.874752045">
<ele>17.302246</ele>
<time>2012-07-28T21:19:44Z</time>
<speed>2.670000</speed>
<extensions>
<speed>2.7</speed>
<temp>0.00</temp>
<bpm>0</bpm>
<rpm>0.00</rpm>
</extensions>
</trkpt>
<trkpt lat="64.145637512" lon="-21.874757767">
<ele>16.346680</ele>
<time>2012-07-28T21:19:49Z</time>
<speed>3.060000</speed>
<extensions>
<speed>3.1</speed>
<temp>0.00</temp>
<bpm>0</bpm>
<rpm>0.00</rpm>
</extensions>
</trkpt>
<trkpt lat="64.145774841" lon="-21.874807358">
<ele>16.601563</ele>
<time>2012-07-28T21:19:54Z</time>
<speed>2.720000</speed>
<extensions>
<speed>2.7</speed>
<temp>0.00</temp>
<bpm>0</bpm>
<rpm>0.00</rpm>
</extensions>
</trkpt>
<trkpt lat="64.145889282" lon="-21.874893188">
<ele>16.149414</ele>
<time>2012-07-28T21:19:59Z</time>
<speed>2.530000</speed>
<extensions>
<speed>2.5</speed>
<temp>0.00</temp>
<bpm>0</bpm>
<rpm>0.00</rpm>
</extensions>
</trkpt>
<trkpt lat="64.145950317" lon="-21.875061035">
<ele>15.061279</ele>
<time>2012-07-28T21:20:04Z</time>
<speed>1.260000</speed>
<extensions>
<speed>1.3</speed>
<temp>0.00</temp>
<bpm>0</bpm>
<rpm>0.00</rpm>
</extensions>
</trkpt>
<trkpt lat="64.145950317" lon="-21.875059128">
<ele>14.279785</ele>
<time>2012-07-28T21:20:09Z</time>
<speed>0.060000</speed>
<extensions>
<speed>0.1</speed>
<temp>0.00</temp>
<bpm>0</bpm>
<rpm>0.00</rpm>
</extensions>
</trkpt>
<trkpt lat="64.145950317" lon="-21.875061035">
<ele>14.267578</ele>
<time>2012-07-28T21:20:14Z</time>
<speed>0.020000</speed>
<extensions>
<speed>0.0</speed>
<temp>0.00</temp>
<bpm>0</bpm>
<rpm>0.00</rpm>
</extensions>
</trkpt>
<trkpt lat="64.145950317" lon="-21.875061035">
<ele>14.236328</ele>
<time>2012-07-28T21:20:19Z</time>
<extensions>
<speed>0.0</speed>
<temp>0.00</temp>
<bpm>0</bpm>
<rpm>0.00</rpm>
</extensions>
</trkpt>
<trkpt lat="64.145950317" lon="-21.875082016">
<ele>14.341309</ele>
<time>2012-07-28T21:20:24Z</time>
<speed>1.200000</speed>
<extensions>
<speed>1.2</speed>
<temp>0.00</temp>
<bpm>0</bpm>
<rpm>0.00</rpm>
</extensions>
</trkpt>
<trkpt lat="64.145988464" lon="-21.875158310">
<ele>14.615479</ele>
<time>2012-07-28T21:20:29Z</time>
<speed>2.580000</speed>
<extensions>
<speed>2.6</speed>
<temp>0.00</temp>
<bpm>0</bpm>
<rpm>0.00</rpm>
</extensions>
</trkpt>
<trkpt lat="64.146095276" lon="-21.875169754">
<ele>14.077393</ele>
<time>2012-07-28T21:20:34Z</time>
<speed>2.340000</speed>
<extensions>
<speed>2.3</speed>
<temp>0.00</temp>
<bpm>0</bpm>
<rpm>0.00</rpm>
</extensions>
</trkpt>
<trkpt lat="64.146125793" lon="-21.874870300">
<ele>14.252930</ele>
<time>2012-07-28T21:20:39Z</time>
<speed>1.980000</speed>
<extensions>
<speed>2.0</speed>
<temp>0.00</temp>
<bpm>0</bpm>
<rpm>0.00</rpm>
</extensions>
</trkpt>
<trkpt lat="64.146148682" lon="-21.874656677">
<ele>13.838623</ele>
<time>2012-07-28T21:20:44Z</time>
<speed>1.710000</speed>
<extensions>
<speed>1.7</speed>
<temp>0.00</temp>
<bpm>0</bpm>
<rpm>0.00</rpm>
</extensions>
</trkpt>
<trkpt lat="64.146156311" lon="-21.874584198">
<ele>14.399170</ele>
<time>2012-07-28T21:20:49Z</time>
<extensions>
<speed>0.0</speed>
<temp>0.00</temp>
<bpm>0</bpm>
<rpm>0.00</rpm>
</extensions>
</trkpt>
<trkpt lat="64.146156311" lon="-21.874574661">
<ele>14.041016</ele>
<time>2012-07-28T21:20:54Z</time>
<speed>0.060000</speed>
<extensions>
<speed>0.1</speed>
<temp>0.00</temp>
<bpm>0</bpm>
<rpm>0.00</rpm>
</extensions>
</trkpt>
<trkpt lat="64.146156311" lon="-21.874530792">
<ele>13.801758</ele>
<time>2012-07-28T21:20:59Z</time>
<speed>0.990000</speed>
<extensions>
<speed>1.0</speed>
<temp>0.00</temp>
<bpm>0</bpm>
<rpm>0.00</rpm>
</extensions>
</trkpt>
<trkpt lat="64.146148682" lon="-21.874465942">
<ele>14.630127</ele>
<time>2012-07-28T21:21:04Z</time>
<speed>0.090000</speed>
<extensions>
<speed>0.1</speed>
<temp>0.00</temp>
<bpm>0</bpm>
<rpm>0.00</rpm>
</extensions>
</trkpt>
<trkpt lat="64.146148682" lon="-21.874465942">
<ele>14.864502</ele>
<time>2012-07-28T21:21:09Z</time>
<speed>0.050000</speed>
<extensions>
<speed>0.1</speed>
<temp>0.00</temp>
<bpm>0</bpm>
<rpm>0.00</rpm>
</extensions>
</trkpt>
<trkpt lat="64.146148682" lon="-21.874471664">
<ele>14.855957</ele>
<time>2012-07-28T21:21:14Z</time>
<speed>0.160000</speed>
<extensions>
<speed>0.2</speed>
<temp>0.00</temp>
<bpm>0</bpm>
<rpm>0.00</rpm>
</extensions>
</trkpt>
<trkpt lat="64.146141052" lon="-21.874481201">
<ele>14.813477</ele>
<time>2012-07-28T21:21:19Z</time>
<speed>0.060000</speed>
<extensions>
<speed>0.1</speed>
<temp>0.00</temp>
<bpm>0</bpm>
<rpm>0.00</rpm>
</extensions>
</trkpt>
<trkpt lat="64.146141052" lon="-21.874485016">
<ele>14.813965</ele>
<time>2012-07-28T21:21:24Z</time>
<speed>0.030000</speed>
<extensions>
<speed>0.0</speed>
<temp>0.00</temp>
<bpm>0</bpm>
<rpm>0.00</rpm>
</extensions>
</trkpt>
<trkpt lat="64.146148682" lon="-21.874481201">
<ele>14.846680</ele>
<time>2012-07-28T21:21:29Z</time>
<extensions>
<speed>0.0</speed>
<temp>0.00</temp>
<bpm>0</bpm>
<rpm>0.00</rpm>
</extensions>
</trkpt>
<trkpt lat="64.146148682" lon="-21.874477386">
<ele>14.879639</ele>
<time>2012-07-28T21:21:34Z</time>
<speed>0.210000</speed>
<extensions>
<speed>0.2</speed>
<temp>0.00</temp>
<bpm>0</bpm>
<rpm>0.00</rpm>
</extensions>
</trkpt>
<trkpt lat="64.146141052" lon="-21.874454498">
<ele>14.929199</ele>
<time>2012-07-28T21:21:39Z</time>
<speed>0.010000</speed>
<extensions>
<speed>0.0</speed>
<temp>0.00</temp>
<bpm>0</bpm>
<rpm>0.00</rpm>
</extensions>
</trkpt>
<trkpt lat="64.146133423" lon="-21.874452591">
<ele>14.962158</ele>
<time>2012-07-28T21:21:44Z</time>
<extensions>
<speed>0.0</speed>
<temp>0.00</temp>
<bpm>0</bpm>
<rpm>0.00</rpm>
</extensions>
</trkpt>
<trkpt lat="64.146133423" lon="-21.874452591">
<ele>14.947510</ele>
<time>2012-07-28T21:21:49Z</time>
<speed>0.050000</speed>
<extensions>
<speed>0.1</speed>
<temp>0.00</temp>
<bpm>0</bpm>
<rpm>0.00</rpm>
</extensions>
</trkpt>
<trkpt lat="64.146118164" lon="-21.874446869">
<ele>14.790283</ele>
<time>2012-07-28T21:21:54Z</time>
<speed>1.050000</speed>
<extensions>
<speed>1.0</speed>
<temp>0.00</temp>
<bpm>0</bpm>
<rpm>0.00</rpm>
</extensions>
</trkpt>
<trkpt lat="64.146003723" lon="-21.874469757">
<ele>15.830322</ele>
<time>2012-07-28T21:21:59Z</time>
<speed>1.920000</speed>
<extensions>
<speed>1.9</speed>
<temp>0.00</temp>
<bpm>0</bpm>
<rpm>0.00</rpm>
</extensions>
</trkpt>
<trkpt lat="64.145957947" lon="-21.874603271">
<ele>16.118652</ele>
<time>2012-07-28T21:22:04Z</time>
<speed>1.840000</speed>
<extensions>
<speed>1.8</speed>
<temp>0.00</temp>
<bpm>0</bpm>
<rpm>0.00</rpm>
</extensions>
</trkpt>
<trkpt lat="64.145927429" lon="-21.874761581">
<ele>15.213379</ele>
<time>2012-07-28T21:22:09Z</time>
<speed>1.630000</speed>
<extensions>
<speed>1.6</speed>
<temp>0.00</temp>
<bpm>0</bpm>
<rpm>0.00</rpm>
</extensions>
</trkpt>
<trkpt lat="64.145851135" lon="-21.874866486">
<ele>14.986816</ele>
<time>2012-07-28T21:22:14Z</time>
<speed>1.530000</speed>
<extensions>
<speed>1.5</speed>
<temp>0.00</temp>
<bpm>0</bpm>
<rpm>0.00</rpm>
</extensions>
</trkpt>
<trkpt lat="64.145812988" lon="-21.874876022">
<ele>15.284424</ele>
<time>2012-07-28T21:22:19Z</time>
<speed>0.010000</speed>
<extensions>
<speed>0.0</speed>
<temp>0.00</temp>
<bpm>0</bpm>
<rpm>0.00</rpm>
</extensions>
</trkpt>
<trkpt lat="64.145820618" lon="-21.874862671">
<ele>15.595459</ele>
<time>2012-07-28T21:22:24Z</time>
<speed>0.640000</speed>
<extensions>
<speed>0.6</speed>
<temp>0.00</temp>
<bpm>0</bpm>
<rpm>0.00</rpm>
</extensions>
</trkpt>
<trkpt lat="64.145797729" lon="-21.874885559">
<ele>15.492188</ele>
<time>2012-07-28T21:22:29Z</time>
<speed>0.010000</speed>
<extensions>
<speed>0.0</speed>
<temp>0.00</temp>
<bpm>0</bpm>
<rpm>0.00</rpm>
</extensions>
</trkpt>
<trkpt lat="64.145797729" lon="-21.874885559">
<ele>15.463379</ele>
<time>2012-07-28T21:22:34Z</time>
<speed>0.670000</speed>
<extensions>
<speed>0.7</speed>
<temp>0.00</temp>
<bpm>0</bpm>
<rpm>0.00</rpm>
</extensions>
</trkpt>
<trkpt lat="64.145774841" lon="-21.874895096">
<ele>15.196289</ele>
<time>2012-07-28T21:22:39Z</time>
<speed>0.090000</speed>
<extensions>
<speed>0.1</speed>
<temp>0.00</temp>
<bpm>0</bpm>
<rpm>0.00</rpm>
</extensions>
</trkpt>
<trkpt lat="64.145767212" lon="-21.874908447">
<ele>15.229248</ele>
<time>2012-07-28T21:22:44Z</time>
<speed>1.300000</speed>
<extensions>
<speed>1.3</speed>
<temp>0.00</temp>
<bpm>0</bpm>
<rpm>0.00</rpm>
</extensions>
</trkpt>
<trkpt lat="64.145713806" lon="-21.875017166">
<ele>15.569580</ele>
<time>2012-07-28T21:22:49Z</time>
<speed>1.190000</speed>
<extensions>
<speed>1.2</speed>
<temp>0.00</temp>
<bpm>0</bpm>
<rpm>0.00</rpm>
</extensions>
</trkpt>
<trkpt lat="64.145660400" lon="-21.875032425">
<ele>15.394043</ele>
<time>2012-07-28T21:22:54Z</time>
<speed>0.960000</speed>
<extensions>
<speed>1.0</speed>
<temp>0.00</temp>
<bpm>0</bpm>
<rpm>0.00</rpm>
</extensions>
</trkpt>
<trkpt lat="64.145645142" lon="-21.875034332">
<ele>15.454590</ele>
<time>2012-07-28T21:22:59Z</time>
<speed>0.220000</speed>
<extensions>
<speed>0.2</speed>
<temp>0.00</temp>
<bpm>0</bpm>
<rpm>0.00</rpm>
</extensions>
</trkpt>
<trkpt lat="64.145637512" lon="-21.875074387">
<ele>15.233154</ele>
<time>2012-07-28T21:23:04Z</time>
<speed>0.270000</speed>
<extensions>
<speed>0.3</speed>
<temp>0.00</temp>
<bpm>0</bpm>
<rpm>0.00</rpm>
</extensions>
</trkpt>
<trkpt lat="64.145629883" lon="-21.875074387">
<ele>15.168701</ele>
<time>2012-07-28T21:23:09Z</time>
<speed>0.250000</speed>
<extensions>
<speed>0.2</speed>
<temp>0.00</temp>
<bpm>0</bpm>
<rpm>0.00</rpm>
</extensions>
</trkpt>
<trkpt lat="64.145629883" lon="-21.875101089">
<ele>14.971680</ele>
<time>2012-07-28T21:23:14Z</time>
<speed>0.060000</speed>
<extensions>
<speed>0.1</speed>
<temp>0.00</temp>
<bpm>0</bpm>
<rpm>0.00</rpm>
</extensions>
</trkpt>
<trkpt lat="64.145622253" lon="-21.875116348">
<ele>14.838135</ele>
<time>2012-07-28T21:23:19Z</time>
<speed>0.230000</speed>
<extensions>
<speed>0.2</speed>
<temp>0.00</temp>
<bpm>0</bpm>
<rpm>0.00</rpm>
</extensions>
</trkpt>
<trkpt lat="64.145622253" lon="-21.875125885">
<ele>14.838379</ele>
<time>2012-07-28T21:23:24Z</time>
<speed>0.120000</speed>
<extensions>
<speed>0.1</speed>
<temp>0.00</temp>
<bpm>0</bpm>
<rpm>0.00</rpm>
</extensions>
</trkpt>
<trkpt lat="64.145614624" lon="-21.875131607">
<ele>14.391357</ele>
<time>2012-07-28T21:23:29Z</time>
<speed>0.340000</speed>
<extensions>
<speed>0.3</speed>
<temp>0.00</temp>
<bpm>0</bpm>
<rpm>0.00</rpm>
</extensions>
</trkpt>
<trkpt lat="64.145614624" lon="-21.875141144">
<ele>13.958984</ele>
<time>2012-07-28T21:23:34Z</time>
<speed>0.410000</speed>
<extensions>
<speed>0.4</speed>
<temp>0.00</temp>
<bpm>0</bpm>
<rpm>0.00</rpm>
</extensions>
</trkpt>
<trkpt lat="64.145614624" lon="-21.875137329">
<ele>13.782959</ele>
<time>2012-07-28T21:23:39Z</time>
<speed>0.200000</speed>
<extensions>
<speed>0.2</speed>
<temp>0.00</temp>
<bpm>0</bpm>
<rpm>0.00</rpm>
</extensions>
</trkpt>
<trkpt lat="64.145614624" lon="-21.875143051">
<ele>13.822754</ele>
<time>2012-07-28T21:23:44Z</time>
<speed>0.090000</speed>
<extensions>
<speed>0.1</speed>
<temp>0.00</temp>
<bpm>0</bpm>
<rpm>0.00</rpm>
</extensions>
</trkpt>
<trkpt lat="64.145622253" lon="-21.875148773">
<ele>13.863770</ele>
<time>2012-07-28T21:23:49Z</time>
<speed>0.080000</speed>
<extensions>
<speed>0.1</speed>
<temp>0.00</temp>
<bpm>0</bpm>
<rpm>0.00</rpm>
</extensions>
</trkpt>
<trkpt lat="64.145622253" lon="-21.875154495">
<ele>13.856689</ele>
<time>2012-07-28T21:23:54Z</time>
<speed>0.100000</speed>
<extensions>
<speed>0.1</speed>
<temp>0.00</temp>
<bpm>0</bpm>
<rpm>0.00</rpm>
</extensions>
</trkpt>
<trkpt lat="64.145622253" lon="-21.875158310">
<ele>13.901367</ele>
<time>2012-07-28T21:23:59Z</time>
<speed>0.040000</speed>
<extensions>
<speed>0.0</speed>
<temp>0.00</temp>
<bpm>0</bpm>
<rpm>0.00</rpm>
</extensions>
</trkpt>
<trkpt lat="64.145622253" lon="-21.875160217">
<ele>13.954102</ele>
<time>2012-07-28T21:24:04Z</time>
<speed>0.120000</speed>
<extensions>
<speed>0.1</speed>
<temp>0.00</temp>
<bpm>0</bpm>
<rpm>0.00</rpm>
</extensions>
</trkpt>
<trkpt lat="64.145622253" lon="-21.875162125">
<ele>14.040039</ele>
<time>2012-07-28T21:24:09Z</time>
<speed>0.160000</speed>
<extensions>
<speed>0.2</speed>
<temp>0.00</temp>
<bpm>0</bpm>
<rpm>0.00</rpm>
</extensions>
</trkpt>
<trkpt lat="64.145614624" lon="-21.875169754">
<ele>14.116943</ele>
<time>2012-07-28T21:24:14Z</time>
<speed>0.050000</speed>
<extensions>
<speed>0.1</speed>
<temp>0.00</temp>
<bpm>0</bpm>
<rpm>0.00</rpm>
</extensions>
</trkpt>
<trkpt lat="64.145614624" lon="-21.875173569">
<ele>14.155762</ele>
<time>2012-07-28T21:24:19Z</time>
<speed>0.180000</speed>
<extensions>
<speed>0.2</speed>
<temp>0.00</temp>
<bpm>0</bpm>
<rpm>0.00</rpm>
</extensions>
</trkpt>
<trkpt lat="64.145606995" lon="-21.875186920">
<ele>14.239502</ele>
<time>2012-07-28T21:24:24Z</time>
<speed>0.090000</speed>
<extensions>
<speed>0.1</speed>
<temp>0.00</temp>
<bpm>0</bpm>
<rpm>0.00</rpm>
</extensions>
</trkpt>
<trkpt lat="64.145614624" lon="-21.875192642">
<ele>14.346191</ele>
<time>2012-07-28T21:24:29Z</time>
<speed>0.030000</speed>
<extensions>
<speed>0.0</speed>
<temp>0.00</temp>
<bpm>0</bpm>
<rpm>0.00</rpm>
</extensions>
</trkpt>
<trkpt lat="64.145614624" lon="-21.875194550">
<ele>14.445557</ele>
<time>2012-07-28T21:24:34Z</time>
<speed>0.060000</speed>
<extensions>
<speed>0.1</speed>
<temp>0.00</temp>
<bpm>0</bpm>
<rpm>0.00</rpm>
</extensions>
</trkpt>
<trkpt lat="64.145622253" lon="-21.875185013">
<ele>14.175049</ele>
<time>2012-07-28T21:24:39Z</time>
<speed>0.120000</speed>
<extensions>
<speed>0.1</speed>
<temp>0.00</temp>
<bpm>0</bpm>
<rpm>0.00</rpm>
</extensions>
</trkpt>
<trkpt lat="64.145622253" lon="-21.875185013">
<ele>13.586426</ele>
<time>2012-07-28T21:24:44Z</time>
<speed>0.210000</speed>
<extensions>
<speed>0.2</speed>
<temp>0.00</temp>
<bpm>0</bpm>
<rpm>0.00</rpm>
</extensions>
</trkpt>
<trkpt lat="64.145622253" lon="-21.875194550">
<ele>13.652100</ele>
<time>2012-07-28T21:24:49Z</time>
<speed>0.160000</speed>
<extensions>
<speed>0.2</speed>
<temp>0.00</temp>
<bpm>0</bpm>
<rpm>0.00</rpm>
</extensions>
</trkpt>
<trkpt lat="64.145622253" lon="-21.875200272">
<ele>13.762207</ele>
<time>2012-07-28T21:24:54Z</time>
<speed>0.120000</speed>
<extensions>
<speed>0.1</speed>
<temp>0.00</temp>
<bpm>0</bpm>
<rpm>0.00</rpm>
</extensions>
</trkpt>
<trkpt lat="64.145622253" lon="-21.875202179">
<ele>13.861572</ele>
<time>2012-07-28T21:24:59Z</time>
<speed>0.030000</speed>
<extensions>
<speed>0.0</speed>
<temp>0.00</temp>
<bpm>0</bpm>
<rpm>0.00</rpm>
</extensions>
</trkpt>
<trkpt lat="64.145622253" lon="-21.875200272">
<ele>13.962402</ele>
<time>2012-07-28T21:25:04Z</time>
<speed>0.110000</speed>
<extensions>
<speed>0.1</speed>
<temp>0.00</temp>
<bpm>0</bpm>
<rpm>0.00</rpm>
</extensions>
</trkpt>
<trkpt lat="64.145622253" lon="-21.875205994">
<ele>14.076172</ele>
<time>2012-07-28T21:25:09Z</time>
<speed>0.160000</speed>
<extensions>
<speed>0.2</speed>
<temp>0.00</temp>
<bpm>0</bpm>
<rpm>0.00</rpm>
</extensions>
</trkpt>
<trkpt lat="64.145622253" lon="-21.875215530">
<ele>14.252441</ele>
<time>2012-07-28T21:25:14Z</time>
<speed>0.100000</speed>
<extensions>
<speed>0.1</speed>
<temp>0.00</temp>
<bpm>0</bpm>
<rpm>0.00</rpm>
</extensions>
</trkpt>
<trkpt lat="64.145614624" lon="-21.875226974">
<ele>14.435303</ele>
<time>2012-07-28T21:25:19Z</time>
<speed>0.180000</speed>
<extensions>
<speed>0.2</speed>
<temp>0.00</temp>
<bpm>0</bpm>
<rpm>0.00</rpm>
</extensions>
</trkpt>
<trkpt lat="64.145606995" lon="-21.875236511">
<ele>14.635742</ele>
<time>2012-07-28T21:25:24Z</time>
<speed>0.250000</speed>
<extensions>
<speed>0.2</speed>
<temp>0.00</temp>
<bpm>0</bpm>
<rpm>0.00</rpm>
</extensions>
</trkpt>
<trkpt lat="64.145606995" lon="-21.875232697">
<ele>14.793701</ele>
<time>2012-07-28T21:25:29Z</time>
<speed>0.120000</speed>
<extensions>
<speed>0.1</speed>
<temp>0.00</temp>
<bpm>0</bpm>
<rpm>0.00</rpm>
</extensions>
</trkpt>
<trkpt lat="64.145606995" lon="-21.875228882">
<ele>14.968994</ele>
<time>2012-07-28T21:25:34Z</time>
<speed>0.120000</speed>
<extensions>
<speed>0.1</speed>
<temp>0.00</temp>
<bpm>0</bpm>
<rpm>0.00</rpm>
</extensions>
</trkpt>
<trkpt lat="64.145606995" lon="-21.875234604">
<ele>15.178955</ele>
<time>2012-07-28T21:25:39Z</time>
<speed>0.130000</speed>
<extensions>
<speed>0.1</speed>
<temp>0.00</temp>
<bpm>0</bpm>
<rpm>0.00</rpm>
</extensions>
</trkpt>
<trkpt lat="64.145606995" lon="-21.875240326">
<ele>15.296143</ele>
<time>2012-07-28T21:25:44Z</time>
<speed>0.010000</speed>
<extensions>
<speed>0.0</speed>
<temp>0.00</temp>
<bpm>0</bpm>
<rpm>0.00</rpm>
</extensions>
</trkpt>
<trkpt lat="64.145606995" lon="-21.875247955">
<ele>15.420654</ele>
<time>2012-07-28T21:25:49Z</time>
<speed>0.310000</speed>
<extensions>
<speed>0.3</speed>
<temp>0.00</temp>
<bpm>0</bpm>
<rpm>0.00</rpm>
</extensions>
</trkpt>
<trkpt lat="64.145629883" lon="-21.875205994">
<ele>15.285156</ele>
<time>2012-07-28T21:25:54Z</time>
<speed>0.060000</speed>
<extensions>
<speed>0.1</speed>
<temp>0.00</temp>
<bpm>0</bpm>
<rpm>0.00</rpm>
</extensions>
</trkpt>
<trkpt lat="64.145622253" lon="-21.875200272">
<ele>15.442871</ele>
<time>2012-07-28T21:25:59Z</time>
<speed>0.130000</speed>
<extensions>
<speed>0.1</speed>
<temp>0.00</temp>
<bpm>0</bpm>
<rpm>0.00</rpm>
</extensions>
</trkpt>
<trkpt lat="64.145622253" lon="-21.875204086">
<ele>15.544678</ele>
<time>2012-07-28T21:26:04Z</time>
<speed>0.140000</speed>
<extensions>
<speed>0.1</speed>
<temp>0.00</temp>
<bpm>0</bpm>
<rpm>0.00</rpm>
</extensions>
</trkpt>
<trkpt lat="64.145614624" lon="-21.875211716">
<ele>15.663574</ele>
<time>2012-07-28T21:26:09Z</time>
<speed>0.070000</speed>
<extensions>
<speed>0.1</speed>
<temp>0.00</temp>
<bpm>0</bpm>
<rpm>0.00</rpm>
</extensions>
</trkpt>
<trkpt lat="64.145614624" lon="-21.875213623">
<ele>15.739014</ele>
<time>2012-07-28T21:26:14Z</time>
<speed>0.090000</speed>
<extensions>
<speed>0.1</speed>
<temp>0.00</temp>
<bpm>0</bpm>
<rpm>0.00</rpm>
</extensions>
</trkpt>
<trkpt lat="64.145614624" lon="-21.875209808">
<ele>15.819336</ele>
<time>2012-07-28T21:26:19Z</time>
<speed>0.060000</speed>
<extensions>
<speed>0.1</speed>
<temp>0.00</temp>
<bpm>0</bpm>
<rpm>0.00</rpm>
</extensions>
</trkpt>
<trkpt lat="64.145614624" lon="-21.875207901">
<ele>15.916748</ele>
<time>2012-07-28T21:26:24Z</time>
<speed>0.060000</speed>
<extensions>
<speed>0.1</speed>
<temp>0.00</temp>
<bpm>0</bpm>
<rpm>0.00</rpm>
</extensions>
</trkpt>
<trkpt lat="64.145614624" lon="-21.875213623">
<ele>16.048340</ele>
<time>2012-07-28T21:26:29Z</time>
<speed>0.010000</speed>
<extensions>
<speed>0.0</speed>
<temp>0.00</temp>
<bpm>0</bpm>
<rpm>0.00</rpm>
</extensions>
</trkpt>
<trkpt lat="64.145614624" lon="-21.875207901">
<ele>16.149414</ele>
<time>2012-07-28T21:26:34Z</time>
<speed>0.080000</speed>
<extensions>
<speed>0.1</speed>
<temp>0.00</temp>
<bpm>0</bpm>
<rpm>0.00</rpm>
</extensions>
</trkpt>
<trkpt lat="64.145614624" lon="-21.875207901">
<ele>16.276367</ele>
<time>2012-07-28T21:26:39Z</time>
<speed>0.020000</speed>
<extensions>
<speed>0.0</speed>
<temp>0.00</temp>
<bpm>0</bpm>
<rpm>0.00</rpm>
</extensions>
</trkpt>
<trkpt lat="64.145614624" lon="-21.875213623">
<ele>16.404297</ele>
<time>2012-07-28T21:26:44Z</time>
<speed>0.110000</speed>
<extensions>
<speed>0.1</speed>
<temp>0.00</temp>
<bpm>0</bpm>
<rpm>0.00</rpm>
</extensions>
</trkpt>
<trkpt lat="64.145614624" lon="-21.875215530">
<ele>16.516602</ele>
<time>2012-07-28T21:26:49Z</time>
<speed>0.050000</speed>
<extensions>
<speed>0.1</speed>
<temp>0.00</temp>
<bpm>0</bpm>
<rpm>0.00</rpm>
</extensions>
</trkpt>
<trkpt lat="64.145622253" lon="-21.875221252">
<ele>16.647461</ele>
<time>2012-07-28T21:26:54Z</time>
<speed>0.110000</speed>
<extensions>
<speed>0.1</speed>
<temp>0.00</temp>
<bpm>0</bpm>
<rpm>0.00</rpm>
</extensions>
</trkpt>
<trkpt lat="64.145622253" lon="-21.875221252">
<ele>16.721191</ele>
<time>2012-07-28T21:26:59Z</time>
<speed>0.090000</speed>
<extensions>
<speed>0.1</speed>
<temp>0.00</temp>
<bpm>0</bpm>
<rpm>0.00</rpm>
</extensions>
</trkpt>
<trkpt lat="64.145614624" lon="-21.875221252">
<ele>16.841797</ele>
<time>2012-07-28T21:27:04Z</time>
<speed>0.050000</speed>
<extensions>
<speed>0.1</speed>
<temp>0.00</temp>
<bpm>0</bpm>
<rpm>0.00</rpm>
</extensions>
</trkpt>
<trkpt lat="64.145622253" lon="-21.875217438">
<ele>16.963379</ele>
<time>2012-07-28T21:27:09Z</time>
<speed>0.030000</speed>
<extensions>
<speed>0.0</speed>
<temp>0.00</temp>
<bpm>0</bpm>
<rpm>0.00</rpm>
</extensions>
</trkpt>
<trkpt lat="64.145622253" lon="-21.875219345">
<ele>17.023438</ele>
<time>2012-07-28T21:27:14Z</time>
<speed>0.170000</speed>
<extensions>
<speed>0.2</speed>
<temp>0.00</temp>
<bpm>0</bpm>
<rpm>0.00</rpm>
</extensions>
</trkpt>
<trkpt lat="64.145622253" lon="-21.875223160">
<ele>17.043945</ele>
<time>2012-07-28T21:27:19Z</time>
<speed>0.050000</speed>
<extensions>
<speed>0.1</speed>
<temp>0.00</temp>
<bpm>0</bpm>
<rpm>0.00</rpm>
</extensions>
</trkpt>
<trkpt lat="64.145622253" lon="-21.875219345">
<ele>17.079590</ele>
<time>2012-07-28T21:27:24Z</time>
<speed>0.110000</speed>
<extensions>
<speed>0.1</speed>
<temp>0.00</temp>
<bpm>0</bpm>
<rpm>0.00</rpm>
</extensions>
</trkpt>
<trkpt lat="64.145622253" lon="-21.875221252">
<ele>17.140137</ele>
<time>2012-07-28T21:27:29Z</time>
<speed>0.080000</speed>
<extensions>
<speed>0.1</speed>
<temp>0.00</temp>
<bpm>0</bpm>
<rpm>0.00</rpm>
</extensions>
</trkpt>
<trkpt lat="64.145622253" lon="-21.875219345">
<ele>17.192871</ele>
<time>2012-07-28T21:27:34Z</time>
<speed>0.100000</speed>
<extensions>
<speed>0.1</speed>
<temp>0.00</temp>
<bpm>0</bpm>
<rpm>0.00</rpm>
</extensions>
</trkpt>
<trkpt lat="64.145622253" lon="-21.875217438">
<ele>17.194336</ele>
<time>2012-07-28T21:27:39Z</time>
<speed>0.040000</speed>
<extensions>
<speed>0.0</speed>
<temp>0.00</temp>
<bpm>0</bpm>
<rpm>0.00</rpm>
</extensions>
</trkpt>
<trkpt lat="64.145622253" lon="-21.875223160">
<ele>17.198242</ele>
<time>2012-07-28T21:27:44Z</time>
<speed>0.140000</speed>
<extensions>
<speed>0.1</speed>
<temp>0.00</temp>
<bpm>0</bpm>
<rpm>0.00</rpm>
</extensions>
</trkpt>
<trkpt lat="64.145622253" lon="-21.875228882">
<ele>17.231445</ele>
<time>2012-07-28T21:27:49Z</time>
<speed>0.120000</speed>
<extensions>
<speed>0.1</speed>
<temp>0.00</temp>
<bpm>0</bpm>
<rpm>0.00</rpm>
</extensions>
</trkpt>
<trkpt lat="64.145622253" lon="-21.875230789">
<ele>17.230957</ele>
<time>2012-07-28T21:27:54Z</time>
<speed>0.140000</speed>
<extensions>
<speed>0.1</speed>
<temp>0.00</temp>
<bpm>0</bpm>
<rpm>0.00</rpm>
</extensions>
</trkpt>
<trkpt lat="64.145614624" lon="-21.875238419">
<ele>17.227051</ele>
<time>2012-07-28T21:27:59Z</time>
<speed>0.180000</speed>
<extensions>
<speed>0.2</speed>
<temp>0.00</temp>
<bpm>0</bpm>
<rpm>0.00</rpm>
</extensions>
</trkpt>
<trkpt lat="64.145614624" lon="-21.875240326">
<ele>17.193359</ele>
<time>2012-07-28T21:28:04Z</time>
<speed>0.070000</speed>
<extensions>
<speed>0.1</speed>
<temp>0.00</temp>
<bpm>0</bpm>
<rpm>0.00</rpm>
</extensions>
</trkpt>
<trkpt lat="64.145614624" lon="-21.875242233">
<ele>17.270508</ele>
<time>2012-07-28T21:28:09Z</time>
<speed>0.070000</speed>
<extensions>
<speed>0.1</speed>
<temp>0.00</temp>
<bpm>0</bpm>
<rpm>0.00</rpm>
</extensions>
</trkpt>
<trkpt lat="64.145614624" lon="-21.875234604">
<ele>17.334473</ele>
<time>2012-07-28T21:28:14Z</time>
<speed>0.020000</speed>
<extensions>
<speed>0.0</speed>
<temp>0.00</temp>
<bpm>0</bpm>
<rpm>0.00</rpm>
</extensions>
</trkpt>
<trkpt lat="64.145614624" lon="-21.875232697">
<ele>17.375000</ele>
<time>2012-07-28T21:28:19Z</time>
<speed>0.040000</speed>
<extensions>
<speed>0.0</speed>
<temp>0.00</temp>
<bpm>0</bpm>
<rpm>0.00</rpm>
</extensions>
</trkpt>
<trkpt lat="64.145614624" lon="-21.875230789">
<ele>17.348633</ele>
<time>2012-07-28T21:28:24Z</time>
<speed>0.050000</speed>
<extensions>
<speed>0.1</speed>
<temp>0.00</temp>
<bpm>0</bpm>
<rpm>0.00</rpm>
</extensions>
</trkpt>
<trkpt lat="64.145606995" lon="-21.875221252">
<ele>17.324707</ele>
<time>2012-07-28T21:28:29Z</time>
<speed>0.140000</speed>
<extensions>
<speed>0.1</speed>
<temp>0.00</temp>
<bpm>0</bpm>
<rpm>0.00</rpm>
</extensions>
</trkpt>
<trkpt lat="64.145606995" lon="-21.875211716">
<ele>17.298828</ele>
<time>2012-07-28T21:28:34Z</time>
<speed>0.160000</speed>
<extensions>
<speed>0.2</speed>
<temp>0.00</temp>
<bpm>0</bpm>
<rpm>0.00</rpm>
</extensions>
</trkpt>
<trkpt lat="64.145606995" lon="-21.875211716">
<ele>17.375977</ele>
<time>2012-07-28T21:28:39Z</time>
<speed>0.070000</speed>
<extensions>
<speed>0.1</speed>
<temp>0.00</temp>
<bpm>0</bpm>
<rpm>0.00</rpm>
</extensions>
</trkpt>
<trkpt lat="64.145606995" lon="-21.875217438">
<ele>17.463867</ele>
<time>2012-07-28T21:28:44Z</time>
<speed>0.150000</speed>
<extensions>
<speed>0.2</speed>
<temp>0.00</temp>
<bpm>0</bpm>
<rpm>0.00</rpm>
</extensions>
</trkpt>
<trkpt lat="64.145599365" lon="-21.875230789">
<ele>17.515625</ele>
<time>2012-07-28T21:28:49Z</time>
<speed>0.080000</speed>
<extensions>
<speed>0.1</speed>
<temp>0.00</temp>
<bpm>0</bpm>
<rpm>0.00</rpm>
</extensions>
</trkpt>
<trkpt lat="64.145599365" lon="-21.875226974">
<ele>17.589355</ele>
<time>2012-07-28T21:28:54Z</time>
<speed>0.240000</speed>
<extensions>
<speed>0.2</speed>
<temp>0.00</temp>
<bpm>0</bpm>
<rpm>0.00</rpm>
</extensions>
</trkpt>
<trkpt lat="64.145606995" lon="-21.875211716">
<ele>17.665527</ele>
<time>2012-07-28T21:28:59Z</time>
<speed>0.160000</speed>
<extensions>
<speed>0.2</speed>
<temp>0.00</temp>
<bpm>0</bpm>
<rpm>0.00</rpm>
</extensions>
</trkpt>
<trkpt lat="64.145614624" lon="-21.875213623">
<ele>17.676758</ele>
<time>2012-07-28T21:29:04Z</time>
<speed>0.130000</speed>
<extensions>
<speed>0.1</speed>
<temp>0.00</temp>
<bpm>0</bpm>
<rpm>0.00</rpm>
</extensions>
</trkpt>
<trkpt lat="64.145622253" lon="-21.875221252">
<ele>17.718750</ele>
<time>2012-07-28T21:29:09Z</time>
<speed>0.210000</speed>
<extensions>
<speed>0.2</speed>
<temp>0.00</temp>
<bpm>0</bpm>
<rpm>0.00</rpm>
</extensions>
</trkpt>
<trkpt lat="64.145629883" lon="-21.875204086">
<ele>17.748047</ele>
<time>2012-07-28T21:29:14Z</time>
<speed>0.190000</speed>
<extensions>
<speed>0.2</speed>
<temp>0.00</temp>
<bpm>0</bpm>
<rpm>0.00</rpm>
</extensions>
</trkpt>
<trkpt lat="64.145629883" lon="-21.875198364">
<ele>17.728027</ele>
<time>2012-07-28T21:29:19Z</time>
<speed>0.070000</speed>
<extensions>
<speed>0.1</speed>
<temp>0.00</temp>
<bpm>0</bpm>
<rpm>0.00</rpm>
</extensions>
</trkpt>
<trkpt lat="64.145629883" lon="-21.875198364">
<ele>17.748535</ele>
<time>2012-07-28T21:29:24Z</time>
<speed>0.170000</speed>
<extensions>
<speed>0.2</speed>
<temp>0.00</temp>
<bpm>0</bpm>
<rpm>0.00</rpm>
</extensions>
</trkpt>
<trkpt lat="64.145629883" lon="-21.875198364">
<ele>17.745117</ele>
<time>2012-07-28T21:29:29Z</time>
<speed>0.120000</speed>
<extensions>
<speed>0.1</speed>
<temp>0.00</temp>
<bpm>0</bpm>
<rpm>0.00</rpm>
</extensions>
</trkpt>
<trkpt lat="64.145622253" lon="-21.875196457">
<ele>17.799805</ele>
<time>2012-07-28T21:29:34Z</time>
<speed>0.030000</speed>
<extensions>
<speed>0.0</speed>
<temp>0.00</temp>
<bpm>0</bpm>
<rpm>0.00</rpm>
</extensions>
</trkpt>
<trkpt lat="64.145629883" lon="-21.875196457">
<ele>17.854980</ele>
<time>2012-07-28T21:29:39Z</time>
<speed>0.150000</speed>
<extensions>
<speed>0.2</speed>
<temp>0.00</temp>
<bpm>0</bpm>
<rpm>0.00</rpm>
</extensions>
</trkpt>
<trkpt lat="64.145637512" lon="-21.875192642">
<ele>18.019043</ele>
<time>2012-07-28T21:29:44Z</time>
<speed>0.240000</speed>
<extensions>
<speed>0.2</speed>
<temp>0.00</temp>
<bpm>0</bpm>
<rpm>0.00</rpm>
</extensions>
</trkpt>
<trkpt lat="64.145660400" lon="-21.875177383">
<ele>17.635742</ele>
<time>2012-07-28T21:29:49Z</time>
<speed>0.230000</speed>
<extensions>
<speed>0.2</speed>
<temp>0.00</temp>
<bpm>0</bpm>
<rpm>0.00</rpm>
</extensions>
</trkpt>
<trkpt lat="64.145668030" lon="-21.875154495">
<ele>17.281738</ele>
<time>2012-07-28T21:29:54Z</time>
<speed>0.060000</speed>
<extensions>
<speed>0.1</speed>
<temp>0.00</temp>
<bpm>0</bpm>
<rpm>0.00</rpm>
</extensions>
</trkpt>
<trkpt lat="64.145668030" lon="-21.875150681">
<ele>17.354004</ele>
<time>2012-07-28T21:29:59Z</time>
<speed>0.130000</speed>
<extensions>
<speed>0.1</speed>
<temp>0.00</temp>
<bpm>0</bpm>
<rpm>0.00</rpm>
</extensions>
</trkpt>
<trkpt lat="64.145675659" lon="-21.875150681">
<ele>17.431152</ele>
<time>2012-07-28T21:30:04Z</time>
<speed>0.110000</speed>
<extensions>
<speed>0.1</speed>
<temp>0.00</temp>
<bpm>0</bpm>
<rpm>0.00</rpm>
</extensions>
</trkpt>
<trkpt lat="64.145683289" lon="-21.875150681">
<ele>17.465332</ele>
<time>2012-07-28T21:30:09Z</time>
<speed>0.090000</speed>
<extensions>
<speed>0.1</speed>
<temp>0.00</temp>
<bpm>0</bpm>
<rpm>0.00</rpm>
</extensions>
</trkpt>
<trkpt lat="64.145683289" lon="-21.875146866">
<ele>17.426270</ele>
<time>2012-07-28T21:30:14Z</time>
<speed>0.120000</speed>
<extensions>
<speed>0.1</speed>
<temp>0.00</temp>
<bpm>0</bpm>
<rpm>0.00</rpm>
</extensions>
</trkpt>
<trkpt lat="64.145675659" lon="-21.875139236">
<ele>17.231934</ele>
<time>2012-07-28T21:30:19Z</time>
<speed>0.150000</speed>
<extensions>
<speed>0.2</speed>
<temp>0.00</temp>
<bpm>0</bpm>
<rpm>0.00</rpm>
</extensions>
</trkpt>
<trkpt lat="64.145668030" lon="-21.875139236">
<ele>16.912109</ele>
<time>2012-07-28T21:30:24Z</time>
<speed>0.040000</speed>
<extensions>
<speed>0.0</speed>
<temp>0.00</temp>
<bpm>0</bpm>
<rpm>0.00</rpm>
</extensions>
</trkpt>
<trkpt lat="64.145668030" lon="-21.875139236">
<ele>16.434570</ele>
<time>2012-07-28T21:30:29Z</time>
<speed>0.090000</speed>
<extensions>
<speed>0.1</speed>
<temp>0.00</temp>
<bpm>0</bpm>
<rpm>0.00</rpm>
</extensions>
</trkpt>
<trkpt lat="64.145668030" lon="-21.875144958">
<ele>15.949707</ele>
<time>2012-07-28T21:30:34Z</time>
<speed>0.060000</speed>
<extensions>
<speed>0.1</speed>
<temp>0.00</temp>
<bpm>0</bpm>
<rpm>0.00</rpm>
</extensions>
</trkpt>
<trkpt lat="64.145668030" lon="-21.875146866">
<ele>15.534668</ele>
<time>2012-07-28T21:30:39Z</time>
<speed>0.050000</speed>
<extensions>
<speed>0.1</speed>
<temp>0.00</temp>
<bpm>0</bpm>
<rpm>0.00</rpm>
</extensions>
</trkpt>
<trkpt lat="64.145660400" lon="-21.875152588">
<ele>15.096436</ele>
<time>2012-07-28T21:30:44Z</time>
<speed>0.060000</speed>
<extensions>
<speed>0.1</speed>
<temp>0.00</temp>
<bpm>0</bpm>
<rpm>0.00</rpm>
</extensions>
</trkpt>
<trkpt lat="64.145660400" lon="-21.875160217">
<ele>14.630859</ele>
<time>2012-07-28T21:30:49Z</time>
<speed>0.120000</speed>
<extensions>
<speed>0.1</speed>
<temp>0.00</temp>
<bpm>0</bpm>
<rpm>0.00</rpm>
</extensions>
</trkpt>
<trkpt lat="64.145660400" lon="-21.875171661">
<ele>14.157227</ele>
<time>2012-07-28T21:30:54Z</time>
<speed>0.110000</speed>
<extensions>
<speed>0.1</speed>
<temp>0.00</temp>
<bpm>0</bpm>
<rpm>0.00</rpm>
</extensions>
</trkpt>
<trkpt lat="64.145660400" lon="-21.875181198">
<ele>13.614990</ele>
<time>2012-07-28T21:30:59Z</time>
<speed>0.080000</speed>
<extensions>
<speed>0.1</speed>
<temp>0.00</temp>
<bpm>0</bpm>
<rpm>0.00</rpm>
</extensions>
</trkpt>
<trkpt lat="64.145660400" lon="-21.875183105">
<ele>13.058594</ele>
<time>2012-07-28T21:31:04Z</time>
<speed>0.050000</speed>
<extensions>
<speed>0.1</speed>
<temp>0.00</temp>
<bpm>0</bpm>
<rpm>0.00</rpm>
</extensions>
</trkpt>
<trkpt lat="64.145668030" lon="-21.875181198">
<ele>12.452148</ele>
<time>2012-07-28T21:31:09Z</time>
<speed>0.140000</speed>
<extensions>
<speed>0.1</speed>
<temp>0.00</temp>
<bpm>0</bpm>
<rpm>0.00</rpm>
</extensions>
</trkpt>
<trkpt lat="64.145668030" lon="-21.875177383">
<ele>11.795898</ele>
<time>2012-07-28T21:31:14Z</time>
<speed>0.150000</speed>
<extensions>
<speed>0.2</speed>
<temp>0.00</temp>
<bpm>0</bpm>
<rpm>0.00</rpm>
</extensions>
</trkpt>
<trkpt lat="64.145675659" lon="-21.875171661">
<ele>11.017334</ele>
<time>2012-07-28T21:31:19Z</time>
<speed>0.140000</speed>
<extensions>
<speed>0.1</speed>
<temp>0.00</temp>
<bpm>0</bpm>
<rpm>0.00</rpm>
</extensions>
</trkpt>
<trkpt lat="64.145683289" lon="-21.875164032">
<ele>10.189697</ele>
<time>2012-07-28T21:31:24Z</time>
<speed>0.100000</speed>
<extensions>
<speed>0.1</speed>
<temp>0.00</temp>
<bpm>0</bpm>
<rpm>0.00</rpm>
</extensions>
</trkpt>
<trkpt lat="64.145683289" lon="-21.875158310">
<ele>9.387207</ele>
<time>2012-07-28T21:31:29Z</time>
<speed>0.030000</speed>
<extensions>
<speed>0.0</speed>
<temp>0.00</temp>
<bpm>0</bpm>
<rpm>0.00</rpm>
</extensions>
</trkpt>
<trkpt lat="64.145683289" lon="-21.875160217">
<ele>8.631836</ele>
<time>2012-07-28T21:31:34Z</time>
<speed>0.050000</speed>
<extensions>
<speed>0.1</speed>
<temp>0.00</temp>
<bpm>0</bpm>
<rpm>0.00</rpm>
</extensions>
</trkpt>
<trkpt lat="64.145675659" lon="-21.875164032">
<ele>8.181885</ele>
<time>2012-07-28T21:31:39Z</time>
<speed>0.040000</speed>
<extensions>
<speed>0.0</speed>
<temp>0.00</temp>
<bpm>0</bpm>
<rpm>0.00</rpm>
</extensions>
</trkpt>
<trkpt lat="64.145675659" lon="-21.875164032">
<ele>8.151367</ele>
<time>2012-07-28T21:31:44Z</time>
<extensions>
<speed>0.0</speed>
<temp>0.00</temp>
<bpm>0</bpm>
<rpm>0.00</rpm>
</extensions>
</trkpt>
<trkpt lat="64.145675659" lon="-21.875164032">
<ele>8.182861</ele>
<time>2012-07-28T21:31:49Z</time>
<speed>0.010000</speed>
<extensions>
<speed>0.0</speed>
<temp>0.00</temp>
<bpm>0</bpm>
<rpm>0.00</rpm>
</extensions>
</trkpt>
<trkpt lat="64.145675659" lon="-21.875164032">
<ele>8.203369</ele>
<time>2012-07-28T21:31:54Z</time>
<speed>0.010000</speed>
<extensions>
<speed>0.0</speed>
<temp>0.00</temp>
<bpm>0</bpm>
<rpm>0.00</rpm>
</extensions>
</trkpt>
<trkpt lat="64.145675659" lon="-21.875164032">
<ele>8.203613</ele>
<time>2012-07-28T21:31:59Z</time>
<speed>0.010000</speed>
<extensions>
<speed>0.0</speed>
<temp>0.00</temp>
<bpm>0</bpm>
<rpm>0.00</rpm>
</extensions>
</trkpt>
<trkpt lat="64.145675659" lon="-21.875164032">
<ele>8.178467</ele>
<time>2012-07-28T21:32:04Z</time>
<speed>0.030000</speed>
<extensions>
<speed>0.0</speed>
<temp>0.00</temp>
<bpm>0</bpm>
<rpm>0.00</rpm>
</extensions>
</trkpt>
<trkpt lat="64.145675659" lon="-21.875164032">
<ele>8.189209</ele>
<time>2012-07-28T21:32:09Z</time>
<speed>0.020000</speed>
<extensions>
<speed>0.0</speed>
<temp>0.00</temp>
<bpm>0</bpm>
<rpm>0.00</rpm>
</extensions>
</trkpt>
<trkpt lat="64.145675659" lon="-21.875164032">
<ele>8.203125</ele>
<time>2012-07-28T21:32:14Z</time>
<speed>0.010000</speed>
<extensions>
<speed>0.0</speed>
<temp>0.00</temp>
<bpm>0</bpm>
<rpm>0.00</rpm>
</extensions>
</trkpt>
<trkpt lat="64.145675659" lon="-21.875164032">
<ele>8.194824</ele>
<time>2012-07-28T21:32:19Z</time>
<extensions>
<speed>0.0</speed>
<temp>0.00</temp>
<bpm>0</bpm>
<rpm>0.00</rpm>
</extensions>
</trkpt>
<trkpt lat="64.145675659" lon="-21.875162125">
<ele>8.175537</ele>
<time>2012-07-28T21:32:24Z</time>
<extensions>
<speed>0.0</speed>
<temp>0.00</temp>
<bpm>0</bpm>
<rpm>0.00</rpm>
</extensions>
</trkpt>
<trkpt lat="64.145675659" lon="-21.875162125">
<ele>8.160889</ele>
<time>2012-07-28T21:32:29Z</time>
<speed>0.010000</speed>
<extensions>
<speed>0.0</speed>
<temp>0.00</temp>
<bpm>0</bpm>
<rpm>0.00</rpm>
</extensions>
</trkpt>
<trkpt lat="64.145675659" lon="-21.875162125">
<ele>8.115479</ele>
<time>2012-07-28T21:32:34Z</time>
<speed>0.010000</speed>
<extensions>
<speed>0.0</speed>
<temp>0.00</temp>
<bpm>0</bpm>
<rpm>0.00</rpm>
</extensions>
</trkpt>
<trkpt lat="64.145675659" lon="-21.875162125">
<ele>8.087158</ele>
<time>2012-07-28T21:32:39Z</time>
<extensions>
<speed>0.0</speed>
<temp>0.00</temp>
<bpm>0</bpm>
<rpm>0.00</rpm>
</extensions>
</trkpt>
<trkpt lat="64.145675659" lon="-21.875162125">
<ele>8.110352</ele>
<time>2012-07-28T21:32:44Z</time>
<speed>0.030000</speed>
<extensions>
<speed>0.0</speed>
<temp>0.00</temp>
<bpm>0</bpm>
<rpm>0.00</rpm>
</extensions>
</trkpt>
<trkpt lat="64.145675659" lon="-21.875162125">
<ele>8.145264</ele>
<time>2012-07-28T21:32:49Z</time>
<speed>0.010000</speed>
<extensions>
<speed>0.0</speed>
<temp>0.00</temp>
<bpm>0</bpm>
<rpm>0.00</rpm>
</extensions>
</trkpt>
<trkpt lat="64.145675659" lon="-21.875162125">
<ele>8.162598</ele>
<time>2012-07-28T21:32:54Z</time>
<speed>0.010000</speed>
<extensions>
<speed>0.0</speed>
<temp>0.00</temp>
<bpm>0</bpm>
<rpm>0.00</rpm>
</extensions>
</trkpt>
<trkpt lat="64.145675659" lon="-21.875162125">
<ele>8.177490</ele>
<time>2012-07-28T21:32:59Z</time>
<speed>0.010000</speed>
<extensions>
<speed>0.0</speed>
<temp>0.00</temp>
<bpm>0</bpm>
<rpm>0.00</rpm>
</extensions>
</trkpt>
<trkpt lat="64.145675659" lon="-21.875162125">
<ele>8.199219</ele>
<time>2012-07-28T21:33:04Z</time>
<speed>0.010000</speed>
<extensions>
<speed>0.0</speed>
<temp>0.00</temp>
<bpm>0</bpm>
<rpm>0.00</rpm>
</extensions>
</trkpt>
<trkpt lat="64.145675659" lon="-21.875162125">
<ele>8.212646</ele>
<time>2012-07-28T21:33:09Z</time>
<speed>0.010000</speed>
<extensions>
<speed>0.0</speed>
<temp>0.00</temp>
<bpm>0</bpm>
<rpm>0.00</rpm>
</extensions>
</trkpt>
<trkpt lat="64.145675659" lon="-21.875162125">
<ele>8.250244</ele>
<time>2012-07-28T21:33:14Z</time>
<speed>0.020000</speed>
<extensions>
<speed>0.0</speed>
<temp>0.00</temp>
<bpm>0</bpm>
<rpm>0.00</rpm>
</extensions>
</trkpt>
<trkpt lat="64.145675659" lon="-21.875162125">
<ele>8.286865</ele>
<time>2012-07-28T21:33:19Z</time>
<speed>0.020000</speed>
<extensions>
<speed>0.0</speed>
<temp>0.00</temp>
<bpm>0</bpm>
<rpm>0.00</rpm>
</extensions>
</trkpt>
<trkpt lat="64.145675659" lon="-21.875160217">
<ele>8.342773</ele>
<time>2012-07-28T21:33:24Z</time>
<speed>0.030000</speed>
<extensions>
<speed>0.0</speed>
<temp>0.00</temp>
<bpm>0</bpm>
<rpm>0.00</rpm>
</extensions>
</trkpt>
<trkpt lat="64.145675659" lon="-21.875160217">
<ele>8.357178</ele>
<time>2012-07-28T21:33:29Z</time>
<speed>0.020000</speed>
<extensions>
<speed>0.0</speed>
<temp>0.00</temp>
<bpm>0</bpm>
<rpm>0.00</rpm>
</extensions>
</trkpt>
<trkpt lat="64.145675659" lon="-21.875160217">
<ele>8.373047</ele>
<time>2012-07-28T21:33:34Z</time>
<speed>0.030000</speed>
<extensions>
<speed>0.0</speed>
<temp>0.00</temp>
<bpm>0</bpm>
<rpm>0.00</rpm>
</extensions>
</trkpt>
<trkpt lat="64.145675659" lon="-21.875160217">
<ele>8.400146</ele>
<time>2012-07-28T21:33:39Z</time>
<extensions>
<speed>0.0</speed>
<temp>0.00</temp>
<bpm>0</bpm>
<rpm>0.00</rpm>
</extensions>
</trkpt>
<trkpt lat="64.145675659" lon="-21.875160217">
<ele>8.421631</ele>
<time>2012-07-28T21:33:44Z</time>
<speed>0.010000</speed>
<extensions>
<speed>0.0</speed>
<temp>0.00</temp>
<bpm>0</bpm>
<rpm>0.00</rpm>
</extensions>
</trkpt>
<trkpt lat="64.145675659" lon="-21.875160217">
<ele>8.440674</ele>
<time>2012-07-28T21:33:49Z</time>
<speed>0.020000</speed>
<extensions>
<speed>0.0</speed>
<temp>0.00</temp>
<bpm>0</bpm>
<rpm>0.00</rpm>
</extensions>
</trkpt>
<trkpt lat="64.145675659" lon="-21.875160217">
<ele>8.450928</ele>
<time>2012-07-28T21:33:54Z</time>
<speed>0.030000</speed>
<extensions>
<speed>0.0</speed>
<temp>0.00</temp>
<bpm>0</bpm>
<rpm>0.00</rpm>
</extensions>
</trkpt>
<trkpt lat="64.145675659" lon="-21.875162125">
<ele>8.476563</ele>
<time>2012-07-28T21:33:59Z</time>
<speed>0.020000</speed>
<extensions>
<speed>0.0</speed>
<temp>0.00</temp>
<bpm>0</bpm>
<rpm>0.00</rpm>
</extensions>
</trkpt>
<trkpt lat="64.145675659" lon="-21.875162125">
<ele>8.485352</ele>
<time>2012-07-28T21:34:04Z</time>
<speed>0.010000</speed>
<extensions>
<speed>0.0</speed>
<temp>0.00</temp>
<bpm>0</bpm>
<rpm>0.00</rpm>
</extensions>
</trkpt>
<trkpt lat="64.145675659" lon="-21.875164032">
<ele>8.505127</ele>
<time>2012-07-28T21:34:09Z</time>
<speed>0.010000</speed>
<extensions>
<speed>0.0</speed>
<temp>0.00</temp>
<bpm>0</bpm>
<rpm>0.00</rpm>
</extensions>
</trkpt>
<trkpt lat="64.145675659" lon="-21.875164032">
<ele>8.533203</ele>
<time>2012-07-28T21:34:14Z</time>
<speed>0.010000</speed>
<extensions>
<speed>0.0</speed>
<temp>0.00</temp>
<bpm>0</bpm>
<rpm>0.00</rpm>
</extensions>
</trkpt>
<trkpt lat="64.145675659" lon="-21.875164032">
<ele>8.521973</ele>
<time>2012-07-28T21:34:19Z</time>
<speed>0.010000</speed>
<extensions>
<speed>0.0</speed>
<temp>0.00</temp>
<bpm>0</bpm>
<rpm>0.00</rpm>
</extensions>
</trkpt>
<trkpt lat="64.145675659" lon="-21.875164032">
<ele>8.538818</ele>
<time>2012-07-28T21:34:24Z</time>
<speed>0.010000</speed>
<extensions>
<speed>0.0</speed>
<temp>0.00</temp>
<bpm>0</bpm>
<rpm>0.00</rpm>
</extensions>
</trkpt>
<trkpt lat="64.145675659" lon="-21.875164032">
<ele>8.556396</ele>
<time>2012-07-28T21:34:29Z</time>
<speed>0.020000</speed>
<extensions>
<speed>0.0</speed>
<temp>0.00</temp>
<bpm>0</bpm>
<rpm>0.00</rpm>
</extensions>
</trkpt>
<trkpt lat="64.145668030" lon="-21.875165939">
<ele>8.549805</ele>
<time>2012-07-28T21:34:34Z</time>
<speed>0.040000</speed>
<extensions>
<speed>0.0</speed>
<temp>0.00</temp>
<bpm>0</bpm>
<rpm>0.00</rpm>
</extensions>
</trkpt>
<trkpt lat="64.145668030" lon="-21.875165939">
<ele>8.548584</ele>
<time>2012-07-28T21:34:39Z</time>
<speed>0.030000</speed>
<extensions>
<speed>0.0</speed>
<temp>0.00</temp>
<bpm>0</bpm>
<rpm>0.00</rpm>
</extensions>
</trkpt>
<trkpt lat="64.145668030" lon="-21.875165939">
<ele>8.548340</ele>
<time>2012-07-28T21:34:44Z</time>
<speed>0.030000</speed>
<extensions>
<speed>0.0</speed>
<temp>0.00</temp>
<bpm>0</bpm>
<rpm>0.00</rpm>
</extensions>
</trkpt>
<trkpt lat="64.145668030" lon="-21.875167847">
<ele>8.559326</ele>
<time>2012-07-28T21:34:49Z</time>
<speed>0.010000</speed>
<extensions>
<speed>0.0</speed>
<temp>0.00</temp>
<bpm>0</bpm>
<rpm>0.00</rpm>
</extensions>
</trkpt>
<trkpt lat="64.145668030" lon="-21.875167847">
<ele>8.569092</ele>
<time>2012-07-28T21:34:54Z</time>
<extensions>
<speed>0.0</speed>
<temp>0.00</temp>
<bpm>0</bpm>
<rpm>0.00</rpm>
</extensions>
</trkpt>
<trkpt lat="64.145668030" lon="-21.875167847">
<ele>8.581543</ele>
<time>2012-07-28T21:34:59Z</time>
<speed>0.010000</speed>
<extensions>
<speed>0.0</speed>
<temp>0.00</temp>
<bpm>0</bpm>
<rpm>0.00</rpm>
</extensions>
</trkpt>
<trkpt lat="64.145668030" lon="-21.875167847">
<ele>8.579834</ele>
<time>2012-07-28T21:35:04Z</time>
<extensions>
<speed>0.0</speed>
<temp>0.00</temp>
<bpm>0</bpm>
<rpm>0.00</rpm>
</extensions>
</trkpt>
<trkpt lat="64.145668030" lon="-21.875167847">
<ele>8.576660</ele>
<time>2012-07-28T21:35:09Z</time>
<speed>0.020000</speed>
<extensions>
<speed>0.0</speed>
<temp>0.00</temp>
<bpm>0</bpm>
<rpm>0.00</rpm>
</extensions>
</trkpt>
<trkpt lat="64.145668030" lon="-21.875167847">
<ele>8.588135</ele>
<time>2012-07-28T21:35:14Z</time>
<extensions>
<speed>0.0</speed>
<temp>0.00</temp>
<bpm>0</bpm>
<rpm>0.00</rpm>
</extensions>
</trkpt>
<trkpt lat="64.145668030" lon="-21.875167847">
<ele>8.592285</ele>
<time>2012-07-28T21:35:19Z</time>
<extensions>
<speed>0.0</speed>
<temp>0.00</temp>
<bpm>0</bpm>
<rpm>0.00</rpm>
</extensions>
</trkpt>
<trkpt lat="64.145668030" lon="-21.875167847">
<ele>8.607910</ele>
<time>2012-07-28T21:35:24Z</time>
<speed>0.020000</speed>
<extensions>
<speed>0.0</speed>
<temp>0.00</temp>
<bpm>0</bpm>
<rpm>0.00</rpm>
</extensions>
</trkpt>
<trkpt lat="64.145668030" lon="-21.875167847">
<ele>8.623779</ele>
<time>2012-07-28T21:35:29Z</time>
<speed>0.010000</speed>
<extensions>
<speed>0.0</speed>
<temp>0.00</temp>
<bpm>0</bpm>
<rpm>0.00</rpm>
</extensions>
</trkpt>
<trkpt lat="64.145668030" lon="-21.875167847">
<ele>8.639893</ele>
<time>2012-07-28T21:35:34Z</time>
<speed>0.010000</speed>
<extensions>
<speed>0.0</speed>
<temp>0.00</temp>
<bpm>0</bpm>
<rpm>0.00</rpm>
</extensions>
</trkpt>
<trkpt lat="64.145668030" lon="-21.875167847">
<ele>8.638672</ele>
<time>2012-07-28T21:35:39Z</time>
<speed>0.020000</speed>
<extensions>
<speed>0.0</speed>
<temp>0.00</temp>
<bpm>0</bpm>
<rpm>0.00</rpm>
</extensions>
</trkpt>
<trkpt lat="64.145668030" lon="-21.875167847">
<ele>8.656494</ele>
<time>2012-07-28T21:35:44Z</time>
<speed>0.010000</speed>
<extensions>
<speed>0.0</speed>
<temp>0.00</temp>
<bpm>0</bpm>
<rpm>0.00</rpm>
</extensions>
</trkpt>
<trkpt lat="64.145668030" lon="-21.875167847">
<ele>8.677734</ele>
<time>2012-07-28T21:35:49Z</time>
<speed>0.020000</speed>
<extensions>
<speed>0.0</speed>
<temp>0.00</temp>
<bpm>0</bpm>
<rpm>0.00</rpm>
</extensions>
</trkpt>
<trkpt lat="64.145668030" lon="-21.875169754">
<ele>8.688965</ele>
<time>2012-07-28T21:35:54Z</time>
<speed>0.020000</speed>
<extensions>
<speed>0.0</speed>
<temp>0.00</temp>
<bpm>0</bpm>
<rpm>0.00</rpm>
</extensions>
</trkpt>
<trkpt lat="64.145668030" lon="-21.875169754">
<ele>8.691650</ele>
<time>2012-07-28T21:35:59Z</time>
<speed>0.010000</speed>
<extensions>
<speed>0.0</speed>
<temp>0.00</temp>
<bpm>0</bpm>
<rpm>0.00</rpm>
</extensions>
</trkpt>
<trkpt lat="64.145668030" lon="-21.875169754">
<ele>8.689209</ele>
<time>2012-07-28T21:36:04Z</time>
<speed>0.010000</speed>
<extensions>
<speed>0.0</speed>
<temp>0.00</temp>
<bpm>0</bpm>
<rpm>0.00</rpm>
</extensions>
</trkpt>
<trkpt lat="64.145668030" lon="-21.875169754">
<ele>8.697510</ele>
<time>2012-07-28T21:36:09Z</time>
<speed>0.030000</speed>
<extensions>
<speed>0.0</speed>
<temp>0.00</temp>
<bpm>0</bpm>
<rpm>0.00</rpm>
</extensions>
</trkpt>
<trkpt lat="64.145668030" lon="-21.875169754">
<ele>8.713623</ele>
<time>2012-07-28T21:36:14Z</time>
<extensions>
<speed>0.0</speed>
<temp>0.00</temp>
<bpm>0</bpm>
<rpm>0.00</rpm>
</extensions>
</trkpt>
<trkpt lat="64.145668030" lon="-21.875167847">
<ele>8.727295</ele>
<time>2012-07-28T21:36:19Z</time>
<extensions>
<speed>0.0</speed>
<temp>0.00</temp>
<bpm>0</bpm>
<rpm>0.00</rpm>
</extensions>
</trkpt>
<trkpt lat="64.145668030" lon="-21.875169754">
<ele>8.743164</ele>
<time>2012-07-28T21:36:24Z</time>
<speed>0.010000</speed>
<extensions>
<speed>0.0</speed>
<temp>0.00</temp>
<bpm>0</bpm>
<rpm>0.00</rpm>
</extensions>
</trkpt>
<trkpt lat="64.145668030" lon="-21.875169754">
<ele>8.760010</ele>
<time>2012-07-28T21:36:29Z</time>
<speed>0.010000</speed>
<extensions>
<speed>0.0</speed>
<temp>0.00</temp>
<bpm>0</bpm>
<rpm>0.00</rpm>
</extensions>
</trkpt>
<trkpt lat="64.145668030" lon="-21.875169754">
<ele>8.774902</ele>
<time>2012-07-28T21:36:34Z</time>
<extensions>
<speed>0.0</speed>
<temp>0.00</temp>
<bpm>0</bpm>
<rpm>0.00</rpm>
</extensions>
</trkpt>
<trkpt lat="64.145668030" lon="-21.875169754">
<ele>8.783691</ele>
<time>2012-07-28T21:36:39Z</time>
<speed>0.010000</speed>
<extensions>
<speed>0.0</speed>
<temp>0.00</temp>
<bpm>0</bpm>
<rpm>0.00</rpm>
</extensions>
</trkpt>
<trkpt lat="64.145668030" lon="-21.875169754">
<ele>8.811768</ele>
<time>2012-07-28T21:36:44Z</time>
<extensions>
<speed>0.0</speed>
<temp>0.00</temp>
<bpm>0</bpm>
<rpm>0.00</rpm>
</extensions>
</trkpt>
<trkpt lat="64.145668030" lon="-21.875169754">
<ele>8.847412</ele>
<time>2012-07-28T21:36:49Z</time>
<speed>0.010000</speed>
<extensions>
<speed>0.0</speed>
<temp>0.00</temp>
<bpm>0</bpm>
<rpm>0.00</rpm>
</extensions>
</trkpt>
<trkpt lat="64.145668030" lon="-21.875169754">
<ele>8.856934</ele>
<time>2012-07-28T21:36:54Z</time>
<speed>0.010000</speed>
<extensions>
<speed>0.0</speed>
<temp>0.00</temp>
<bpm>0</bpm>
<rpm>0.00</rpm>
</extensions>
</trkpt>
<trkpt lat="64.145668030" lon="-21.875169754">
<ele>8.869629</ele>
<time>2012-07-28T21:36:59Z</time>
<speed>0.020000</speed>
<extensions>
<speed>0.0</speed>
<temp>0.00</temp>
<bpm>0</bpm>
<rpm>0.00</rpm>
</extensions>
</trkpt>
<trkpt lat="64.145668030" lon="-21.875167847">
<ele>8.898926</ele>
<time>2012-07-28T21:37:04Z</time>
<speed>0.020000</speed>
<extensions>
<speed>0.0</speed>
<temp>0.00</temp>
<bpm>0</bpm>
<rpm>0.00</rpm>
</extensions>
</trkpt>
<trkpt lat="64.145668030" lon="-21.875167847">
<ele>8.922607</ele>
<time>2012-07-28T21:37:09Z</time>
<speed>0.010000</speed>
<extensions>
<speed>0.0</speed>
<temp>0.00</temp>
<bpm>0</bpm>
<rpm>0.00</rpm>
</extensions>
</trkpt>
<trkpt lat="64.145668030" lon="-21.875167847">
<ele>8.936523</ele>
<time>2012-07-28T21:37:14Z</time>
<speed>0.020000</speed>
<extensions>
<speed>0.0</speed>
<temp>0.00</temp>
<bpm>0</bpm>
<rpm>0.00</rpm>
</extensions>
</trkpt>
<trkpt lat="64.145668030" lon="-21.875167847">
<ele>8.935059</ele>
<time>2012-07-28T21:37:19Z</time>
<extensions>
<speed>0.0</speed>
<temp>0.00</temp>
<bpm>0</bpm>
<rpm>0.00</rpm>
</extensions>
</trkpt>
<trkpt lat="64.145668030" lon="-21.875167847">
<ele>8.955811</ele>
<time>2012-07-28T21:37:24Z</time>
<extensions>
<speed>0.0</speed>
<temp>0.00</temp>
<bpm>0</bpm>
<rpm>0.00</rpm>
</extensions>
</trkpt>
<trkpt lat="64.145668030" lon="-21.875165939">
<ele>8.982422</ele>
<time>2012-07-28T21:37:29Z</time>
<speed>0.030000</speed>
<extensions>
<speed>0.0</speed>
<temp>0.00</temp>
<bpm>0</bpm>
<rpm>0.00</rpm>
</extensions>
</trkpt>
<trkpt lat="64.145668030" lon="-21.875165939">
<ele>9.000732</ele>
<time>2012-07-28T21:37:34Z</time>
<extensions>
<speed>0.0</speed>
<temp>0.00</temp>
<bpm>0</bpm>
<rpm>0.00</rpm>
</extensions>
</trkpt>
<trkpt lat="64.145668030" lon="-21.875165939">
<ele>9.020264</ele>
<time>2012-07-28T21:37:39Z</time>
<speed>0.030000</speed>
<extensions>
<speed>0.0</speed>
<temp>0.00</temp>
<bpm>0</bpm>
<rpm>0.00</rpm>
</extensions>
</trkpt>
<trkpt lat="64.145668030" lon="-21.875165939">
<ele>9.035889</ele>
<time>2012-07-28T21:37:44Z</time>
<speed>0.030000</speed>
<extensions>
<speed>0.0</speed>
<temp>0.00</temp>
<bpm>0</bpm>
<rpm>0.00</rpm>
</extensions>
</trkpt>
<trkpt lat="64.145668030" lon="-21.875165939">
<ele>9.038818</ele>
<time>2012-07-28T21:37:49Z</time>
<speed>0.020000</speed>
<extensions>
<speed>0.0</speed>
<temp>0.00</temp>
<bpm>0</bpm>
<rpm>0.00</rpm>
</extensions>
</trkpt>
<trkpt lat="64.145668030" lon="-21.875165939">
<ele>9.062744</ele>
<time>2012-07-28T21:37:54Z</time>
<speed>0.010000</speed>
<extensions>
<speed>0.0</speed>
<temp>0.00</temp>
<bpm>0</bpm>
<rpm>0.00</rpm>
</extensions>
</trkpt>
<trkpt lat="64.145668030" lon="-21.875165939">
<ele>9.080811</ele>
<time>2012-07-28T21:37:59Z</time>
<speed>0.020000</speed>
<extensions>
<speed>0.0</speed>
<temp>0.00</temp>
<bpm>0</bpm>
<rpm>0.00</rpm>
</extensions>
</trkpt>
<trkpt lat="64.145668030" lon="-21.875165939">
<ele>9.106934</ele>
<time>2012-07-28T21:38:04Z</time>
<extensions>
<speed>0.0</speed>
<temp>0.00</temp>
<bpm>0</bpm>
<rpm>0.00</rpm>
</extensions>
</trkpt>
<trkpt lat="64.145668030" lon="-21.875165939">
<ele>9.134521</ele>
<time>2012-07-28T21:38:09Z</time>
<extensions>
<speed>0.0</speed>
<temp>0.00</temp>
<bpm>0</bpm>
<rpm>0.00</rpm>
</extensions>
</trkpt>
<trkpt lat="64.145668030" lon="-21.875165939">
<ele>9.159912</ele>
<time>2012-07-28T21:38:14Z</time>
<speed>0.010000</speed>
<extensions>
<speed>0.0</speed>
<temp>0.00</temp>
<bpm>0</bpm>
<rpm>0.00</rpm>
</extensions>
</trkpt>
<trkpt lat="64.145668030" lon="-21.875165939">
<ele>9.158447</ele>
<time>2012-07-28T21:38:19Z</time>
<speed>0.040000</speed>
<extensions>
<speed>0.0</speed>
<temp>0.00</temp>
<bpm>0</bpm>
<rpm>0.00</rpm>
</extensions>
</trkpt>
<trkpt lat="64.145668030" lon="-21.875164032">
<ele>9.191406</ele>
<time>2012-07-28T21:38:24Z</time>
<extensions>
<speed>0.0</speed>
<temp>0.00</temp>
<bpm>0</bpm>
<rpm>0.00</rpm>
</extensions>
</trkpt>
<trkpt lat="64.145668030" lon="-21.875164032">
<ele>9.186035</ele>
<time>2012-07-28T21:38:29Z</time>
<speed>0.010000</speed>
<extensions>
<speed>0.0</speed>
<temp>0.00</temp>
<bpm>0</bpm>
<rpm>0.00</rpm>
</extensions>
</trkpt>
<trkpt lat="64.145668030" lon="-21.875164032">
<ele>9.211914</ele>
<time>2012-07-28T21:38:34Z</time>
<speed>0.010000</speed>
<extensions>
<speed>0.0</speed>
<temp>0.00</temp>
<bpm>0</bpm>
<rpm>0.00</rpm>
</extensions>
</trkpt>
<trkpt lat="64.145668030" lon="-21.875164032">
<ele>9.246826</ele>
<time>2012-07-28T21:38:39Z</time>
<speed>0.020000</speed>
<extensions>
<speed>0.0</speed>
<temp>0.00</temp>
<bpm>0</bpm>
<rpm>0.00</rpm>
</extensions>
</trkpt>
<trkpt lat="64.145668030" lon="-21.875164032">
<ele>9.266846</ele>
<time>2012-07-28T21:38:44Z</time>
<extensions>
<speed>0.0</speed>
<temp>0.00</temp>
<bpm>0</bpm>
<rpm>0.00</rpm>
</extensions>
</trkpt>
<trkpt lat="64.145668030" lon="-21.875164032">
<ele>9.320313</ele>
<time>2012-07-28T21:38:49Z</time>
<speed>0.020000</speed>
<extensions>
<speed>0.0</speed>
<temp>0.00</temp>
<bpm>0</bpm>
<rpm>0.00</rpm>
</extensions>
</trkpt>
<trkpt lat="64.145668030" lon="-21.875165939">
<ele>9.360352</ele>
<time>2012-07-28T21:38:54Z</time>
<speed>0.010000</speed>
<extensions>
<speed>0.0</speed>
<temp>0.00</temp>
<bpm>0</bpm>
<rpm>0.00</rpm>
</extensions>
</trkpt>
<trkpt lat="64.145668030" lon="-21.875165939">
<ele>9.358643</ele>
<time>2012-07-28T21:38:59Z</time>
<speed>0.030000</speed>
<extensions>
<speed>0.0</speed>
<temp>0.00</temp>
<bpm>0</bpm>
<rpm>0.00</rpm>
</extensions>
</trkpt>
<trkpt lat="64.145668030" lon="-21.875165939">
<ele>9.352539</ele>
<time>2012-07-28T21:39:04Z</time>
<speed>0.010000</speed>
<extensions>
<speed>0.0</speed>
<temp>0.00</temp>
<bpm>0</bpm>
<rpm>0.00</rpm>
</extensions>
</trkpt>
<trkpt lat="64.145668030" lon="-21.875165939">
<ele>9.416748</ele>
<time>2012-07-28T21:39:09Z</time>
<speed>0.010000</speed>
<extensions>
<speed>0.0</speed>
<temp>0.00</temp>
<bpm>0</bpm>
<rpm>0.00</rpm>
</extensions>
</trkpt>
<trkpt lat="64.145668030" lon="-21.875167847">
<ele>9.444336</ele>
<time>2012-07-28T21:39:14Z</time>
<extensions>
<speed>0.0</speed>
<temp>0.00</temp>
<bpm>0</bpm>
<rpm>0.00</rpm>
</extensions>
</trkpt>
<trkpt lat="64.145668030" lon="-21.875167847">
<ele>9.450195</ele>
<time>2012-07-28T21:39:19Z</time>
<speed>0.010000</speed>
<extensions>
<speed>0.0</speed>
<temp>0.00</temp>
<bpm>0</bpm>
<rpm>0.00</rpm>
</extensions>
</trkpt>
<trkpt lat="64.145668030" lon="-21.875167847">
<ele>9.481445</ele>
<time>2012-07-28T21:39:24Z</time>
<speed>0.010000</speed>
<extensions>
<speed>0.0</speed>
<temp>0.00</temp>
<bpm>0</bpm>
<rpm>0.00</rpm>
</extensions>
</trkpt>
<trkpt lat="64.145668030" lon="-21.875167847">
<ele>9.481934</ele>
<time>2012-07-28T21:39:29Z</time>
<speed>0.010000</speed>
<extensions>
<speed>0.0</speed>
<temp>0.00</temp>
<bpm>0</bpm>
<rpm>0.00</rpm>
</extensions>
</trkpt>
<trkpt lat="64.145668030" lon="-21.875167847">
<ele>9.479980</ele>
<time>2012-07-28T21:39:34Z</time>
<speed>0.010000</speed>
<extensions>
<speed>0.0</speed>
<temp>0.00</temp>
<bpm>0</bpm>
<rpm>0.00</rpm>
</extensions>
</trkpt>
<trkpt lat="64.145668030" lon="-21.875167847">
<ele>9.512451</ele>
<time>2012-07-28T21:39:39Z</time>
<speed>0.020000</speed>
<extensions>
<speed>0.0</speed>
<temp>0.00</temp>
<bpm>0</bpm>
<rpm>0.00</rpm>
</extensions>
</trkpt>
<trkpt lat="64.145668030" lon="-21.875169754">
<ele>9.546875</ele>
<time>2012-07-28T21:39:44Z</time>
<extensions>
<speed>0.0</speed>
<temp>0.00</temp>
<bpm>0</bpm>
<rpm>0.00</rpm>
</extensions>
</trkpt>
<trkpt lat="64.145668030" lon="-21.875169754">
<ele>9.555176</ele>
<time>2012-07-28T21:39:49Z</time>
<extensions>
<speed>0.0</speed>
<temp>0.00</temp>
<bpm>0</bpm>
<rpm>0.00</rpm>
</extensions>
</trkpt>
<trkpt lat="64.145668030" lon="-21.875169754">
<ele>9.574463</ele>
<time>2012-07-28T21:39:54Z</time>
<extensions>
<speed>0.0</speed>
<temp>0.00</temp>
<bpm>0</bpm>
<rpm>0.00</rpm>
</extensions>
</trkpt>
<trkpt lat="64.145668030" lon="-21.875169754">
<ele>9.570313</ele>
<time>2012-07-28T21:39:59Z</time>
<speed>0.010000</speed>
<extensions>
<speed>0.0</speed>
<temp>0.00</temp>
<bpm>0</bpm>
<rpm>0.00</rpm>
</extensions>
</trkpt>
<trkpt lat="64.145668030" lon="-21.875169754">
<ele>9.549561</ele>
<time>2012-07-28T21:40:04Z</time>
<speed>0.010000</speed>
<extensions>
<speed>0.0</speed>
<temp>0.00</temp>
<bpm>0</bpm>
<rpm>0.00</rpm>
</extensions>
</trkpt>
<trkpt lat="64.145668030" lon="-21.875169754">
<ele>9.551025</ele>
<time>2012-07-28T21:40:09Z</time>
<speed>0.010000</speed>
<extensions>
<speed>0.0</speed>
<temp>0.00</temp>
<bpm>0</bpm>
<rpm>0.00</rpm>
</extensions>
</trkpt>
<trkpt lat="64.145668030" lon="-21.875171661">
<ele>9.571289</ele>
<time>2012-07-28T21:40:14Z</time>
<speed>0.010000</speed>
<extensions>
<speed>0.0</speed>
<temp>0.00</temp>
<bpm>0</bpm>
<rpm>0.00</rpm>
</extensions>
</trkpt>
<trkpt lat="64.145668030" lon="-21.875171661">
<ele>9.578857</ele>
<time>2012-07-28T21:40:19Z</time>
<speed>0.030000</speed>
<extensions>
<speed>0.0</speed>
<temp>0.00</temp>
<bpm>0</bpm>
<rpm>0.00</rpm>
</extensions>
</trkpt>
<trkpt lat="64.145668030" lon="-21.875171661">
<ele>9.582031</ele>
<time>2012-07-28T21:40:24Z</time>
<extensions>
<speed>0.0</speed>
<temp>0.00</temp>
<bpm>0</bpm>
<rpm>0.00</rpm>
</extensions>
</trkpt>
<trkpt lat="64.145668030" lon="-21.875171661">
<ele>9.595215</ele>
<time>2012-07-28T21:40:29Z</time>
<speed>0.020000</speed>
<extensions>
<speed>0.0</speed>
<temp>0.00</temp>
<bpm>0</bpm>
<rpm>0.00</rpm>
</extensions>
</trkpt>
<trkpt lat="64.145668030" lon="-21.875171661">
<ele>9.601074</ele>
<time>2012-07-28T21:40:34Z</time>
<speed>0.010000</speed>
<extensions>
<speed>0.0</speed>
<temp>0.00</temp>
<bpm>0</bpm>
<rpm>0.00</rpm>
</extensions>
</trkpt>
<trkpt lat="64.145668030" lon="-21.875169754">
<ele>9.583496</ele>
<time>2012-07-28T21:40:39Z</time>
<speed>0.030000</speed>
<extensions>
<speed>0.0</speed>
<temp>0.00</temp>
<bpm>0</bpm>
<rpm>0.00</rpm>
</extensions>
</trkpt>
<trkpt lat="64.145668030" lon="-21.875169754">
<ele>9.596436</ele>
<time>2012-07-28T21:40:44Z</time>
<speed>0.020000</speed>
<extensions>
<speed>0.0</speed>
<temp>0.00</temp>
<bpm>0</bpm>
<rpm>0.00</rpm>
</extensions>
</trkpt>
<trkpt lat="64.145668030" lon="-21.875169754">
<ele>9.607422</ele>
<time>2012-07-28T21:40:49Z</time>
<speed>0.010000</speed>
<extensions>
<speed>0.0</speed>
<temp>0.00</temp>
<bpm>0</bpm>
<rpm>0.00</rpm>
</extensions>
</trkpt>
<trkpt lat="64.145668030" lon="-21.875169754">
<ele>9.634277</ele>
<time>2012-07-28T21:40:54Z</time>
<speed>0.010000</speed>
<extensions>
<speed>0.0</speed>
<temp>0.00</temp>
<bpm>0</bpm>
<rpm>0.00</rpm>
</extensions>
</trkpt>
<trkpt lat="64.145668030" lon="-21.875169754">
<ele>9.635498</ele>
<time>2012-07-28T21:40:59Z</time>
<speed>0.020000</speed>
<extensions>
<speed>0.0</speed>
<temp>0.00</temp>
<bpm>0</bpm>
<rpm>0.00</rpm>
</extensions>
</trkpt>
<trkpt lat="64.145668030" lon="-21.875169754">
<ele>9.667236</ele>
<time>2012-07-28T21:41:04Z</time>
<speed>0.040000</speed>
<extensions>
<speed>0.0</speed>
<temp>0.00</temp>
<bpm>0</bpm>
<rpm>0.00</rpm>
</extensions>
</trkpt>
<trkpt lat="64.145668030" lon="-21.875169754">
<ele>9.670166</ele>
<time>2012-07-28T21:41:09Z</time>
<extensions>
<speed>0.0</speed>
<temp>0.00</temp>
<bpm>0</bpm>
<rpm>0.00</rpm>
</extensions>
</trkpt>
<trkpt lat="64.145668030" lon="-21.875169754">
<ele>9.668701</ele>
<time>2012-07-28T21:41:14Z</time>
<speed>0.010000</speed>
<extensions>
<speed>0.0</speed>
<temp>0.00</temp>
<bpm>0</bpm>
<rpm>0.00</rpm>
</extensions>
</trkpt>
<trkpt lat="64.145668030" lon="-21.875169754">
<ele>9.670410</ele>
<time>2012-07-28T21:41:19Z</time>
<speed>0.040000</speed>
<extensions>
<speed>0.0</speed>
<temp>0.00</temp>
<bpm>0</bpm>
<rpm>0.00</rpm>
</extensions>
</trkpt>
<trkpt lat="64.145668030" lon="-21.875169754">
<ele>9.687256</ele>
<time>2012-07-28T21:41:24Z</time>
<extensions>
<speed>0.0</speed>
<temp>0.00</temp>
<bpm>0</bpm>
<rpm>0.00</rpm>
</extensions>
</trkpt>
<trkpt lat="64.145668030" lon="-21.875169754">
<ele>9.696289</ele>
<time>2012-07-28T21:41:29Z</time>
<extensions>
<speed>0.0</speed>
<temp>0.00</temp>
<bpm>0</bpm>
<rpm>0.00</rpm>
</extensions>
</trkpt>
<trkpt lat="64.145668030" lon="-21.875169754">
<ele>9.714111</ele>
<time>2012-07-28T21:41:34Z</time>
<speed>0.010000</speed>
<extensions>
<speed>0.0</speed>
<temp>0.00</temp>
<bpm>0</bpm>
<rpm>0.00</rpm>
</extensions>
</trkpt>
<trkpt lat="64.145668030" lon="-21.875169754">
<ele>9.737549</ele>
<time>2012-07-28T21:41:39Z</time>
<extensions>
<speed>0.0</speed>
<temp>0.00</temp>
<bpm>0</bpm>
<rpm>0.00</rpm>
</extensions>
</trkpt>
<trkpt lat="64.145668030" lon="-21.875169754">
<ele>9.764404</ele>
<time>2012-07-28T21:41:44Z</time>
<speed>0.020000</speed>
<extensions>
<speed>0.0</speed>
<temp>0.00</temp>
<bpm>0</bpm>
<rpm>0.00</rpm>
</extensions>
</trkpt>
<trkpt lat="64.145668030" lon="-21.875169754">
<ele>9.795166</ele>
<time>2012-07-28T21:41:49Z</time>
<extensions>
<speed>0.0</speed>
<temp>0.00</temp>
<bpm>0</bpm>
<rpm>0.00</rpm>
</extensions>
</trkpt>
<trkpt lat="64.145668030" lon="-21.875169754">
<ele>9.840576</ele>
<time>2012-07-28T21:41:54Z</time>
<extensions>
<speed>0.0</speed>
<temp>0.00</temp>
<bpm>0</bpm>
<rpm>0.00</rpm>
</extensions>
</trkpt>
<trkpt lat="64.145668030" lon="-21.875169754">
<ele>9.880615</ele>
<time>2012-07-28T21:41:59Z</time>
<speed>0.020000</speed>
<extensions>
<speed>0.0</speed>
<temp>0.00</temp>
<bpm>0</bpm>
<rpm>0.00</rpm>
</extensions>
</trkpt>
<trkpt lat="64.145668030" lon="-21.875169754">
<ele>9.934326</ele>
<time>2012-07-28T21:42:04Z</time>
<speed>0.010000</speed>
<extensions>
<speed>0.0</speed>
<temp>0.00</temp>
<bpm>0</bpm>
<rpm>0.00</rpm>
</extensions>
</trkpt>
<trkpt lat="64.145668030" lon="-21.875169754">
<ele>9.974854</ele>
<time>2012-07-28T21:42:09Z</time>
<speed>0.010000</speed>
<extensions>
<speed>0.0</speed>
<temp>0.00</temp>
<bpm>0</bpm>
<rpm>0.00</rpm>
</extensions>
</trkpt>
<trkpt lat="64.145668030" lon="-21.875169754">
<ele>9.981934</ele>
<time>2012-07-28T21:42:14Z</time>
<speed>0.020000</speed>
<extensions>
<speed>0.0</speed>
<temp>0.00</temp>
<bpm>0</bpm>
<rpm>0.00</rpm>
</extensions>
</trkpt>
<trkpt lat="64.145668030" lon="-21.875171661">
<ele>9.997803</ele>
<time>2012-07-28T21:42:19Z</time>
<speed>0.110000</speed>
<extensions>
<speed>0.1</speed>
<temp>0.00</temp>
<bpm>0</bpm>
<rpm>0.00</rpm>
</extensions>
</trkpt>
<trkpt lat="64.145668030" lon="-21.875169754">
<ele>10.019287</ele>
<time>2012-07-28T21:42:24Z</time>
<speed>0.010000</speed>
<extensions>
<speed>0.0</speed>
<temp>0.00</temp>
<bpm>0</bpm>
<rpm>0.00</rpm>
</extensions>
</trkpt>
<trkpt lat="64.145668030" lon="-21.875169754">
<ele>9.995850</ele>
<time>2012-07-28T21:42:29Z</time>
<speed>0.010000</speed>
<extensions>
<speed>0.0</speed>
<temp>0.00</temp>
<bpm>0</bpm>
<rpm>0.00</rpm>
</extensions>
</trkpt>
<trkpt lat="64.145668030" lon="-21.875169754">
<ele>9.989746</ele>
<time>2012-07-28T21:42:34Z</time>
<speed>0.020000</speed>
<extensions>
<speed>0.0</speed>
<temp>0.00</temp>
<bpm>0</bpm>
<rpm>0.00</rpm>
</extensions>
</trkpt>
<trkpt lat="64.145896912" lon="-21.875291824">
<ele>3.771179</ele>
<time>2012-07-28T22:35:28Z</time>
<speed>0.240000</speed>
<extensions>
<speed>0.2</speed>
<temp>0.00</temp>
<bpm>0</bpm>
<rpm>0.00</rpm>
</extensions>
</trkpt>
<trkpt lat="64.145942688" lon="-21.875345230">
<ele>2.847534</ele>
<time>2012-07-28T22:35:33Z</time>
<speed>0.540000</speed>
<extensions>
<speed>0.5</speed>
<temp>0.00</temp>
<bpm>0</bpm>
<rpm>0.00</rpm>
</extensions>
</trkpt>
<trkpt lat="64.145927429" lon="-21.875375748">
<ele>1.062775</ele>
<time>2012-07-28T22:35:38Z</time>
<speed>0.310000</speed>
<extensions>
<speed>0.3</speed>
<temp>0.00</temp>
<bpm>0</bpm>
<rpm>0.00</rpm>
</extensions>
</trkpt>
<trkpt lat="64.145942688" lon="-21.875415802">
<ele>8.525635</ele>
<time>2012-07-28T22:35:43Z</time>
<speed>1.050000</speed>
<extensions>
<speed>1.0</speed>
<temp>0.00</temp>
<bpm>0</bpm>
<rpm>0.00</rpm>
</extensions>
</trkpt>
<trkpt lat="64.146049500" lon="-21.875463486">
<ele>14.864502</ele>
<time>2012-07-28T22:35:49Z</time>
<speed>2.840000</speed>
<extensions>
<speed>2.8</speed>
<temp>0.00</temp>
<bpm>0</bpm>
<rpm>0.00</rpm>
</extensions>
</trkpt>
<trkpt lat="64.146141052" lon="-21.875579834">
<ele>13.250488</ele>
<time>2012-07-28T22:35:54Z</time>
<speed>2.720000</speed>
<extensions>
<speed>2.7</speed>
<temp>0.00</temp>
<bpm>0</bpm>
<rpm>0.00</rpm>
</extensions>
</trkpt>
<trkpt lat="64.146255493" lon="-21.875625610">
<ele>13.219238</ele>
<time>2012-07-28T22:35:59Z</time>
<speed>3.120000</speed>
<extensions>
<speed>3.1</speed>
<temp>0.00</temp>
<bpm>0</bpm>
<rpm>0.00</rpm>
</extensions>
</trkpt>
<trkpt lat="64.146377563" lon="-21.875694275">
<ele>12.964355</ele>
<time>2012-07-28T22:36:04Z</time>
<speed>2.650000</speed>
<extensions>
<speed>2.6</speed>
<temp>0.00</temp>
<bpm>0</bpm>
<rpm>0.00</rpm>
</extensions>
</trkpt>
<trkpt lat="64.146446228" lon="-21.875890732">
<ele>12.287109</ele>
<time>2012-07-28T22:36:09Z</time>
<speed>2.560000</speed>
<extensions>
<speed>2.6</speed>
<temp>0.00</temp>
<bpm>0</bpm>
<rpm>0.00</rpm>
</extensions>
</trkpt>
<trkpt lat="64.146514893" lon="-21.875978470">
<ele>11.144043</ele>
<time>2012-07-28T22:36:14Z</time>
<speed>1.550000</speed>
<extensions>
<speed>1.5</speed>
<temp>0.00</temp>
<bpm>0</bpm>
<rpm>0.00</rpm>
</extensions>
</trkpt>
<trkpt lat="64.146621704" lon="-21.876014709">
<ele>9.343750</ele>
<time>2012-07-28T22:36:19Z</time>
<speed>1.970000</speed>
<extensions>
<speed>2.0</speed>
<temp>0.00</temp>
<bpm>0</bpm>
<rpm>0.00</rpm>
</extensions>
</trkpt>
<trkpt lat="64.146682739" lon="-21.875984192">
<ele>9.789795</ele>
<time>2012-07-28T22:36:24Z</time>
<speed>0.200000</speed>
<extensions>
<speed>0.2</speed>
<temp>0.00</temp>
<bpm>0</bpm>
<rpm>0.00</rpm>
</extensions>
</trkpt>
<trkpt lat="64.146690369" lon="-21.875974655">
<ele>9.999756</ele>
<time>2012-07-28T22:36:29Z</time>
<speed>0.010000</speed>
<extensions>
<speed>0.0</speed>
<temp>0.00</temp>
<bpm>0</bpm>
<rpm>0.00</rpm>
</extensions>
</trkpt>
<trkpt lat="64.146690369" lon="-21.875974655">
<ele>10.005615</ele>
<time>2012-07-28T22:36:34Z</time>
<extensions>
<speed>0.0</speed>
<temp>0.00</temp>
<bpm>0</bpm>
<rpm>0.00</rpm>
</extensions>
</trkpt>
<trkpt lat="64.146697998" lon="-21.875974655">
<ele>9.977295</ele>
<time>2012-07-28T22:36:39Z</time>
<speed>0.320000</speed>
<extensions>
<speed>0.3</speed>
<temp>0.00</temp>
<bpm>0</bpm>
<rpm>0.00</rpm>
</extensions>
</trkpt>
<trkpt lat="64.146743774" lon="-21.875963211">
<ele>10.247314</ele>
<time>2012-07-28T22:36:44Z</time>
<speed>0.700000</speed>
<extensions>
<speed>0.7</speed>
<temp>0.00</temp>
<bpm>0</bpm>
<rpm>0.00</rpm>
</extensions>
</trkpt>
<trkpt lat="64.146766663" lon="-21.876190186">
<ele>10.235352</ele>
<time>2012-07-28T22:36:49Z</time>
<speed>3.130000</speed>
<extensions>
<speed>3.1</speed>
<temp>0.00</temp>
<bpm>0</bpm>
<rpm>0.00</rpm>
</extensions>
</trkpt>
<trkpt lat="64.146774292" lon="-21.876495361">
<ele>9.430908</ele>
<time>2012-07-28T22:36:54Z</time>
<speed>2.770000</speed>
<extensions>
<speed>2.8</speed>
<temp>0.00</temp>
<bpm>0</bpm>
<rpm>0.00</rpm>
</extensions>
</trkpt>
<trkpt lat="64.146766663" lon="-21.876785278">
<ele>9.200684</ele>
<time>2012-07-28T22:36:59Z</time>
<speed>3.060000</speed>
<extensions>
<speed>3.1</speed>
<temp>0.00</temp>
<bpm>0</bpm>
<rpm>0.00</rpm>
</extensions>
</trkpt>
<trkpt lat="64.146774292" lon="-21.877122879">
<ele>8.410400</ele>
<time>2012-07-28T22:37:04Z</time>
<speed>3.440000</speed>
<extensions>
<speed>3.4</speed>
<temp>0.00</temp>
<bpm>0</bpm>
<rpm>0.00</rpm>
</extensions>
</trkpt>
<trkpt lat="64.146774292" lon="-21.877481461">
<ele>8.257080</ele>
<time>2012-07-28T22:37:09Z</time>
<speed>3.610000</speed>
<extensions>
<speed>3.6</speed>
<temp>0.00</temp>
<bpm>0</bpm>
<rpm>0.00</rpm>
</extensions>
</trkpt>
<trkpt lat="64.146766663" lon="-21.877828598">
<ele>8.122314</ele>
<time>2012-07-28T22:37:14Z</time>
<speed>3.430000</speed>
<extensions>
<speed>3.4</speed>
<temp>0.00</temp>
<bpm>0</bpm>
<rpm>0.00</rpm>
</extensions>
</trkpt>
<trkpt lat="64.146766663" lon="-21.878170013">
<ele>7.774292</ele>
<time>2012-07-28T22:37:19Z</time>
<speed>3.130000</speed>
<extensions>
<speed>3.1</speed>
<temp>0.00</temp>
<bpm>0</bpm>
<rpm>0.00</rpm>
</extensions>
</trkpt>
<trkpt lat="64.146759033" lon="-21.878494263">
<ele>8.004150</ele>
<time>2012-07-28T22:37:24Z</time>
<speed>3.190000</speed>
<extensions>
<speed>3.2</speed>
<temp>0.00</temp>
<bpm>0</bpm>
<rpm>0.00</rpm>
</extensions>
</trkpt>
<trkpt lat="64.146751404" lon="-21.878835678">
<ele>7.336182</ele>
<time>2012-07-28T22:37:29Z</time>
<speed>3.280000</speed>
<extensions>
<speed>3.3</speed>
<temp>0.00</temp>
<bpm>0</bpm>
<rpm>0.00</rpm>
</extensions>
</trkpt>
<trkpt lat="64.146743774" lon="-21.879161835">
<ele>6.919189</ele>
<time>2012-07-28T22:37:34Z</time>
<speed>3.310000</speed>
<extensions>
<speed>3.3</speed>
<temp>0.00</temp>
<bpm>0</bpm>
<rpm>0.00</rpm>
</extensions>
</trkpt>
<trkpt lat="64.146759033" lon="-21.879495621">
<ele>6.682373</ele>
<time>2012-07-28T22:37:39Z</time>
<speed>3.090000</speed>
<extensions>
<speed>3.1</speed>
<temp>0.00</temp>
<bpm>0</bpm>
<rpm>0.00</rpm>
</extensions>
</trkpt>
<trkpt lat="64.146774292" lon="-21.879804611">
<ele>6.503662</ele>
<time>2012-07-28T22:37:44Z</time>
<speed>3.470000</speed>
<extensions>
<speed>3.5</speed>
<temp>0.00</temp>
<bpm>0</bpm>
<rpm>0.00</rpm>
</extensions>
</trkpt>
<trkpt lat="64.146766663" lon="-21.880187988">
<ele>5.932983</ele>
<time>2012-07-28T22:37:49Z</time>
<speed>4.150000</speed>
<extensions>
<speed>4.1</speed>
<temp>0.00</temp>
<bpm>0</bpm>
<rpm>0.00</rpm>
</extensions>
</trkpt>
<trkpt lat="64.146781921" lon="-21.880636215">
<ele>5.328369</ele>
<time>2012-07-28T22:37:54Z</time>
<speed>4.500000</speed>
<extensions>
<speed>4.5</speed>
<temp>0.00</temp>
<bpm>0</bpm>
<rpm>0.00</rpm>
</extensions>
</trkpt>
<trkpt lat="64.146781921" lon="-21.881120682">
<ele>5.354248</ele>
<time>2012-07-28T22:37:59Z</time>
<speed>4.340000</speed>
<extensions>
<speed>4.3</speed>
<temp>0.00</temp>
<bpm>0</bpm>
<rpm>0.00</rpm>
</extensions>
</trkpt>
<trkpt lat="64.146759033" lon="-21.881523132">
<ele>5.444702</ele>
<time>2012-07-28T22:38:04Z</time>
<speed>3.500000</speed>
<extensions>
<speed>3.5</speed>
<temp>0.00</temp>
<bpm>0</bpm>
<rpm>0.00</rpm>
</extensions>
</trkpt>
<trkpt lat="64.146751404" lon="-21.881870270">
<ele>6.407959</ele>
<time>2012-07-28T22:38:09Z</time>
<speed>3.610000</speed>
<extensions>
<speed>3.6</speed>
<temp>0.00</temp>
<bpm>0</bpm>
<rpm>0.00</rpm>
</extensions>
</trkpt>
<trkpt lat="64.146736145" lon="-21.882238388">
<ele>6.056763</ele>
<time>2012-07-28T22:38:14Z</time>
<speed>4.020000</speed>
<extensions>
<speed>4.0</speed>
<temp>0.00</temp>
<bpm>0</bpm>
<rpm>0.00</rpm>
</extensions>
</trkpt>
<trkpt lat="64.146728516" lon="-21.882646561">
<ele>6.869141</ele>
<time>2012-07-28T22:38:19Z</time>
<speed>3.610000</speed>
<extensions>
<speed>3.6</speed>
<temp>0.00</temp>
<bpm>0</bpm>
<rpm>0.00</rpm>
</extensions>
</trkpt>
<trkpt lat="64.146705627" lon="-21.883089066">
<ele>6.402466</ele>
<time>2012-07-28T22:38:24Z</time>
<speed>3.920000</speed>
<extensions>
<speed>3.9</speed>
<temp>0.00</temp>
<bpm>0</bpm>
<rpm>0.00</rpm>
</extensions>
</trkpt>
<trkpt lat="64.146682739" lon="-21.883462906">
<ele>7.328613</ele>
<time>2012-07-28T22:38:29Z</time>
<speed>3.670000</speed>
<extensions>
<speed>3.7</speed>
<temp>0.00</temp>
<bpm>0</bpm>
<rpm>0.00</rpm>
</extensions>
</trkpt>
<trkpt lat="64.146682739" lon="-21.883827209">
<ele>7.523682</ele>
<time>2012-07-28T22:38:34Z</time>
<speed>3.430000</speed>
<extensions>
<speed>3.4</speed>
<temp>0.00</temp>
<bpm>0</bpm>
<rpm>0.00</rpm>
</extensions>
</trkpt>
<trkpt lat="64.146675110" lon="-21.884193420">
<ele>8.730957</ele>
<time>2012-07-28T22:38:39Z</time>
<speed>3.960000</speed>
<extensions>
<speed>4.0</speed>
<temp>0.00</temp>
<bpm>0</bpm>
<rpm>0.00</rpm>
</extensions>
</trkpt>
<trkpt lat="64.146659851" lon="-21.884637833">
<ele>8.903809</ele>
<time>2012-07-28T22:38:44Z</time>
<speed>4.040000</speed>
<extensions>
<speed>4.0</speed>
<temp>0.00</temp>
<bpm>0</bpm>
<rpm>0.00</rpm>
</extensions>
</trkpt>
<trkpt lat="64.146659851" lon="-21.885026932">
<ele>8.974609</ele>
<time>2012-07-28T22:38:49Z</time>
<speed>4.040000</speed>
<extensions>
<speed>4.0</speed>
<temp>0.00</temp>
<bpm>0</bpm>
<rpm>0.00</rpm>
</extensions>
</trkpt>
<trkpt lat="64.146652222" lon="-21.885473251">
<ele>9.819824</ele>
<time>2012-07-28T22:38:54Z</time>
<speed>4.810000</speed>
<extensions>
<speed>4.8</speed>
<temp>0.00</temp>
<bpm>0</bpm>
<rpm>0.00</rpm>
</extensions>
</trkpt>
<trkpt lat="64.146644592" lon="-21.885923386">
<ele>9.977539</ele>
<time>2012-07-28T22:38:59Z</time>
<speed>3.790000</speed>
<extensions>
<speed>3.8</speed>
<temp>0.00</temp>
<bpm>0</bpm>
<rpm>0.00</rpm>
</extensions>
</trkpt>
<trkpt lat="64.146644592" lon="-21.886322021">
<ele>9.696289</ele>
<time>2012-07-28T22:39:04Z</time>
<speed>4.520000</speed>
<extensions>
<speed>4.5</speed>
<temp>0.00</temp>
<bpm>0</bpm>
<rpm>0.00</rpm>
</extensions>
</trkpt>
<trkpt lat="64.146636963" lon="-21.886844635">
<ele>9.979736</ele>
<time>2012-07-28T22:39:09Z</time>
<speed>5.370000</speed>
<extensions>
<speed>5.4</speed>
<temp>0.00</temp>
<bpm>0</bpm>
<rpm>0.00</rpm>
</extensions>
</trkpt>
<trkpt lat="64.146636963" lon="-21.887380600">
<ele>10.025146</ele>
<time>2012-07-28T22:39:14Z</time>
<speed>5.220000</speed>
<extensions>
<speed>5.2</speed>
<temp>0.00</temp>
<bpm>0</bpm>
<rpm>0.00</rpm>
</extensions>
</trkpt>
<trkpt lat="64.146621704" lon="-21.887937546">
<ele>9.942139</ele>
<time>2012-07-28T22:39:19Z</time>
<speed>5.150000</speed>
<extensions>
<speed>5.2</speed>
<temp>0.00</temp>
<bpm>0</bpm>
<rpm>0.00</rpm>
</extensions>
</trkpt>
<trkpt lat="64.146614075" lon="-21.888454437">
<ele>8.891357</ele>
<time>2012-07-28T22:39:24Z</time>
<speed>4.880000</speed>
<extensions>
<speed>4.9</speed>
<temp>0.00</temp>
<bpm>0</bpm>
<rpm>0.00</rpm>
</extensions>
</trkpt>
<trkpt lat="64.146606445" lon="-21.888969421">
<ele>8.920898</ele>
<time>2012-07-28T22:39:29Z</time>
<speed>5.130000</speed>
<extensions>
<speed>5.1</speed>
<temp>0.00</temp>
<bpm>0</bpm>
<rpm>0.00</rpm>
</extensions>
</trkpt>
<trkpt lat="64.146583557" lon="-21.889499664">
<ele>8.484375</ele>
<time>2012-07-28T22:39:34Z</time>
<speed>4.980000</speed>
<extensions>
<speed>5.0</speed>
<temp>0.00</temp>
<bpm>0</bpm>
<rpm>0.00</rpm>
</extensions>
</trkpt>
<trkpt lat="64.146545410" lon="-21.890022278">
<ele>8.279541</ele>
<time>2012-07-28T22:39:39Z</time>
<speed>5.630000</speed>
<extensions>
<speed>5.6</speed>
<temp>0.00</temp>
<bpm>0</bpm>
<rpm>0.00</rpm>
</extensions>
</trkpt>
<trkpt lat="64.146530151" lon="-21.890647888">
<ele>6.731812</ele>
<time>2012-07-28T22:39:44Z</time>
<speed>6.400000</speed>
<extensions>
<speed>6.4</speed>
<temp>0.00</temp>
<bpm>0</bpm>
<rpm>0.00</rpm>
</extensions>
</trkpt>
<trkpt lat="64.146507263" lon="-21.891307831">
<ele>5.817627</ele>
<time>2012-07-28T22:39:49Z</time>
<speed>6.050000</speed>
<extensions>
<speed>6.1</speed>
<temp>0.00</temp>
<bpm>0</bpm>
<rpm>0.00</rpm>
</extensions>
</trkpt>
<trkpt lat="64.146461487" lon="-21.891870499">
<ele>4.953735</ele>
<time>2012-07-28T22:39:54Z</time>
<speed>4.610000</speed>
<extensions>
<speed>4.6</speed>
<temp>0.00</temp>
<bpm>0</bpm>
<rpm>0.00</rpm>
</extensions>
</trkpt>
<trkpt lat="64.146446228" lon="-21.892229080">
<ele>4.591797</ele>
<time>2012-07-28T22:39:59Z</time>
<speed>2.710000</speed>
<extensions>
<speed>2.7</speed>
<temp>0.00</temp>
<bpm>0</bpm>
<rpm>0.00</rpm>
</extensions>
</trkpt>
<trkpt lat="64.146446228" lon="-21.892358780">
<ele>5.141968</ele>
<time>2012-07-28T22:40:04Z</time>
<speed>0.130000</speed>
<extensions>
<speed>0.1</speed>
<temp>0.00</temp>
<bpm>0</bpm>
<rpm>0.00</rpm>
</extensions>
</trkpt>
<trkpt lat="64.146446228" lon="-21.892360687">
<ele>5.869629</ele>
<time>2012-07-28T22:40:09Z</time>
<speed>0.010000</speed>
<extensions>
<speed>0.0</speed>
<temp>0.00</temp>
<bpm>0</bpm>
<rpm>0.00</rpm>
</extensions>
</trkpt>
<trkpt lat="64.146446228" lon="-21.892360687">
<ele>6.000610</ele>
<time>2012-07-28T22:40:14Z</time>
<speed>0.040000</speed>
<extensions>
<speed>0.0</speed>
<temp>0.00</temp>
<bpm>0</bpm>
<rpm>0.00</rpm>
</extensions>
</trkpt>
<trkpt lat="64.146446228" lon="-21.892353058">
<ele>6.036011</ele>
<time>2012-07-28T22:40:19Z</time>
<speed>0.160000</speed>
<extensions>
<speed>0.2</speed>
<temp>0.00</temp>
<bpm>0</bpm>
<rpm>0.00</rpm>
</extensions>
</trkpt>
<trkpt lat="64.146438599" lon="-21.892337799">
<ele>6.100952</ele>
<time>2012-07-28T22:40:24Z</time>
<speed>0.150000</speed>
<extensions>
<speed>0.2</speed>
<temp>0.00</temp>
<bpm>0</bpm>
<rpm>0.00</rpm>
</extensions>
</trkpt>
<trkpt lat="64.146446228" lon="-21.892333984">
<ele>6.113770</ele>
<time>2012-07-28T22:40:29Z</time>
<speed>0.280000</speed>
<extensions>
<speed>0.3</speed>
<temp>0.00</temp>
<bpm>0</bpm>
<rpm>0.00</rpm>
</extensions>
</trkpt>
<trkpt lat="64.146438599" lon="-21.892335892">
<ele>6.131348</ele>
<time>2012-07-28T22:40:34Z</time>
<speed>0.100000</speed>
<extensions>
<speed>0.1</speed>
<temp>0.00</temp>
<bpm>0</bpm>
<rpm>0.00</rpm>
</extensions>
</trkpt>
<trkpt lat="64.146438599" lon="-21.892333984">
<ele>6.049194</ele>
<time>2012-07-28T22:40:39Z</time>
<speed>0.090000</speed>
<extensions>
<speed>0.1</speed>
<temp>0.00</temp>
<bpm>0</bpm>
<rpm>0.00</rpm>
</extensions>
</trkpt>
<trkpt lat="64.146438599" lon="-21.892345428">
<ele>5.943970</ele>
<time>2012-07-28T22:40:44Z</time>
<speed>0.170000</speed>
<extensions>
<speed>0.2</speed>
<temp>0.00</temp>
<bpm>0</bpm>
<rpm>0.00</rpm>
</extensions>
</trkpt>
<trkpt lat="64.146438599" lon="-21.892341614">
<ele>5.896118</ele>
<time>2012-07-28T22:40:49Z</time>
<speed>0.220000</speed>
<extensions>
<speed>0.2</speed>
<temp>0.00</temp>
<bpm>0</bpm>
<rpm>0.00</rpm>
</extensions>
</trkpt>
<trkpt lat="64.146430969" lon="-21.892354965">
<ele>5.813599</ele>
<time>2012-07-28T22:40:54Z</time>
<speed>0.010000</speed>
<extensions>
<speed>0.0</speed>
<temp>0.00</temp>
<bpm>0</bpm>
<rpm>0.00</rpm>
</extensions>
</trkpt>
<trkpt lat="64.146430969" lon="-21.892354965">
<ele>5.744019</ele>
<time>2012-07-28T22:40:59Z</time>
<speed>0.020000</speed>
<extensions>
<speed>0.0</speed>
<temp>0.00</temp>
<bpm>0</bpm>
<rpm>0.00</rpm>
</extensions>
</trkpt>
<trkpt lat="64.146430969" lon="-21.892354965">
<ele>5.689697</ele>
<time>2012-07-28T22:41:04Z</time>
<speed>0.010000</speed>
<extensions>
<speed>0.0</speed>
<temp>0.00</temp>
<bpm>0</bpm>
<rpm>0.00</rpm>
</extensions>
</trkpt>
<trkpt lat="64.146430969" lon="-21.892354965">
<ele>5.720703</ele>
<time>2012-07-28T22:41:09Z</time>
<speed>0.060000</speed>
<extensions>
<speed>0.1</speed>
<temp>0.00</temp>
<bpm>0</bpm>
<rpm>0.00</rpm>
</extensions>
</trkpt>
<trkpt lat="64.146430969" lon="-21.892347336">
<ele>5.751343</ele>
<time>2012-07-28T22:41:14Z</time>
<speed>0.050000</speed>
<extensions>
<speed>0.1</speed>
<temp>0.00</temp>
<bpm>0</bpm>
<rpm>0.00</rpm>
</extensions>
</trkpt>
<trkpt lat="64.146438599" lon="-21.892341614">
<ele>5.746094</ele>
<time>2012-07-28T22:41:19Z</time>
<speed>0.040000</speed>
<extensions>
<speed>0.0</speed>
<temp>0.00</temp>
<bpm>0</bpm>
<rpm>0.00</rpm>
</extensions>
</trkpt>
<trkpt lat="64.146438599" lon="-21.892341614">
<ele>5.714355</ele>
<time>2012-07-28T22:41:24Z</time>
<speed>0.100000</speed>
<extensions>
<speed>0.1</speed>
<temp>0.00</temp>
<bpm>0</bpm>
<rpm>0.00</rpm>
</extensions>
</trkpt>
<trkpt lat="64.146438599" lon="-21.892341614">
<ele>5.705200</ele>
<time>2012-07-28T22:41:29Z</time>
<speed>0.010000</speed>
<extensions>
<speed>0.0</speed>
<temp>0.00</temp>
<bpm>0</bpm>
<rpm>0.00</rpm>
</extensions>
</trkpt>
<trkpt lat="64.146438599" lon="-21.892341614">
<ele>5.693481</ele>
<time>2012-07-28T22:41:34Z</time>
<speed>0.010000</speed>
<extensions>
<speed>0.0</speed>
<temp>0.00</temp>
<bpm>0</bpm>
<rpm>0.00</rpm>
</extensions>
</trkpt>
<trkpt lat="64.146430969" lon="-21.892339706">
<ele>5.696533</ele>
<time>2012-07-28T22:41:39Z</time>
<speed>0.020000</speed>
<extensions>
<speed>0.0</speed>
<temp>0.00</temp>
<bpm>0</bpm>
<rpm>0.00</rpm>
</extensions>
</trkpt>
<trkpt lat="64.146438599" lon="-21.892341614">
<ele>5.705322</ele>
<time>2012-07-28T22:41:44Z</time>
<speed>0.320000</speed>
<extensions>
<speed>0.3</speed>
<temp>0.00</temp>
<bpm>0</bpm>
<rpm>0.00</rpm>
</extensions>
</trkpt>
<trkpt lat="64.146446228" lon="-21.892486572">
<ele>6.017578</ele>
<time>2012-07-28T22:41:49Z</time>
<speed>1.810000</speed>
<extensions>
<speed>1.8</speed>
<temp>0.00</temp>
<bpm>0</bpm>
<rpm>0.00</rpm>
</extensions>
</trkpt>
<trkpt lat="64.146476746" lon="-21.892629623">
<ele>7.329102</ele>
<time>2012-07-28T22:41:54Z</time>
<speed>0.940000</speed>
<extensions>
<speed>0.9</speed>
<temp>0.00</temp>
<bpm>0</bpm>
<rpm>0.00</rpm>
</extensions>
</trkpt>
<trkpt lat="64.146492004" lon="-21.892673492">
<ele>7.887207</ele>
<time>2012-07-28T22:41:59Z</time>
<speed>0.030000</speed>
<extensions>
<speed>0.0</speed>
<temp>0.00</temp>
<bpm>0</bpm>
<rpm>0.00</rpm>
</extensions>
</trkpt>
<trkpt lat="64.146476746" lon="-21.892724991">
<ele>7.901123</ele>
<time>2012-07-28T22:42:04Z</time>
<speed>0.050000</speed>
<extensions>
<speed>0.1</speed>
<temp>0.00</temp>
<bpm>0</bpm>
<rpm>0.00</rpm>
</extensions>
</trkpt>
<trkpt lat="64.146476746" lon="-21.892791748">
<ele>9.338379</ele>
<time>2012-07-28T22:42:09Z</time>
<speed>1.230000</speed>
<extensions>
<speed>1.2</speed>
<temp>0.00</temp>
<bpm>0</bpm>
<rpm>0.00</rpm>
</extensions>
</trkpt>
<trkpt lat="64.146423340" lon="-21.893156052">
<ele>9.087646</ele>
<time>2012-07-28T22:42:14Z</time>
<speed>4.070000</speed>
<extensions>
<speed>4.1</speed>
<temp>0.00</temp>
<bpm>0</bpm>
<rpm>0.00</rpm>
</extensions>
</trkpt>
<trkpt lat="64.146392822" lon="-21.893337250">
<ele>9.725342</ele>
<time>2012-07-28T22:42:19Z</time>
<speed>0.280000</speed>
<extensions>
<speed>0.3</speed>
<temp>0.00</temp>
<bpm>0</bpm>
<rpm>0.00</rpm>
</extensions>
</trkpt>
<trkpt lat="64.146385193" lon="-21.893434525">
<ele>10.823242</ele>
<time>2012-07-28T22:42:24Z</time>
<speed>1.910000</speed>
<extensions>
<speed>1.9</speed>
<temp>0.00</temp>
<bpm>0</bpm>
<rpm>0.00</rpm>
</extensions>
</trkpt>
<trkpt lat="64.146339417" lon="-21.893796921">
<ele>11.387939</ele>
<time>2012-07-28T22:42:29Z</time>
<speed>3.650000</speed>
<extensions>
<speed>3.7</speed>
<temp>0.00</temp>
<bpm>0</bpm>
<rpm>0.00</rpm>
</extensions>
</trkpt>
<trkpt lat="64.146301270" lon="-21.894155502">
<ele>13.573242</ele>
<time>2012-07-28T22:42:34Z</time>
<speed>3.080000</speed>
<extensions>
<speed>3.1</speed>
<temp>0.00</temp>
<bpm>0</bpm>
<rpm>0.00</rpm>
</extensions>
</trkpt>
<trkpt lat="64.146278381" lon="-21.894432068">
<ele>15.778809</ele>
<time>2012-07-28T22:42:39Z</time>
<speed>2.880000</speed>
<extensions>
<speed>2.9</speed>
<temp>0.00</temp>
<bpm>0</bpm>
<rpm>0.00</rpm>
</extensions>
</trkpt>
<trkpt lat="64.146263123" lon="-21.894899368">
<ele>17.509277</ele>
<time>2012-07-28T22:42:44Z</time>
<speed>3.390000</speed>
<extensions>
<speed>3.4</speed>
<temp>0.00</temp>
<bpm>0</bpm>
<rpm>0.00</rpm>
</extensions>
</trkpt>
<trkpt lat="64.146263123" lon="-21.895231247">
<ele>15.812988</ele>
<time>2012-07-28T22:42:49Z</time>
<speed>3.050000</speed>
<extensions>
<speed>3.0</speed>
<temp>0.00</temp>
<bpm>0</bpm>
<rpm>0.00</rpm>
</extensions>
</trkpt>
<trkpt lat="64.146194458" lon="-21.895523071">
<ele>16.997559</ele>
<time>2012-07-28T22:42:54Z</time>
<speed>3.530000</speed>
<extensions>
<speed>3.5</speed>
<temp>0.00</temp>
<bpm>0</bpm>
<rpm>0.00</rpm>
</extensions>
</trkpt>
<trkpt lat="64.146125793" lon="-21.895788193">
<ele>15.405273</ele>
<time>2012-07-28T22:42:59Z</time>
<speed>3.640000</speed>
<extensions>
<speed>3.6</speed>
<temp>0.00</temp>
<bpm>0</bpm>
<rpm>0.00</rpm>
</extensions>
</trkpt>
<trkpt lat="64.146095276" lon="-21.896274567">
<ele>22.522461</ele>
<time>2012-07-28T22:43:04Z</time>
<speed>3.790000</speed>
<extensions>
<speed>3.8</speed>
<temp>0.00</temp>
<bpm>0</bpm>
<rpm>0.00</rpm>
</extensions>
</trkpt>
<trkpt lat="64.146041870" lon="-21.896724701">
<ele>23.135742</ele>
<time>2012-07-28T22:43:09Z</time>
<speed>4.230000</speed>
<extensions>
<speed>4.2</speed>
<temp>0.00</temp>
<bpm>0</bpm>
<rpm>0.00</rpm>
</extensions>
</trkpt>
<trkpt lat="64.146041870" lon="-21.897144318">
<ele>19.048340</ele>
<time>2012-07-28T22:43:14Z</time>
<speed>3.950000</speed>
<extensions>
<speed>4.0</speed>
<temp>0.00</temp>
<bpm>0</bpm>
<rpm>0.00</rpm>
</extensions>
</trkpt>
<trkpt lat="64.145996094" lon="-21.897550583">
<ele>14.868652</ele>
<time>2012-07-28T22:43:19Z</time>
<speed>3.060000</speed>
<extensions>
<speed>3.1</speed>
<temp>0.00</temp>
<bpm>0</bpm>
<rpm>0.00</rpm>
</extensions>
</trkpt>
<trkpt lat="64.145965576" lon="-21.897888184">
<ele>13.795898</ele>
<time>2012-07-28T22:43:24Z</time>
<speed>3.090000</speed>
<extensions>
<speed>3.1</speed>
<temp>0.00</temp>
<bpm>0</bpm>
<rpm>0.00</rpm>
</extensions>
</trkpt>
<trkpt lat="64.145942688" lon="-21.898256302">
<ele>14.540771</ele>
<time>2012-07-28T22:43:29Z</time>
<speed>3.560000</speed>
<extensions>
<speed>3.6</speed>
<temp>0.00</temp>
<bpm>0</bpm>
<rpm>0.00</rpm>
</extensions>
</trkpt>
<trkpt lat="64.145942688" lon="-21.898603439">
<ele>10.485840</ele>
<time>2012-07-28T22:43:34Z</time>
<speed>3.180000</speed>
<extensions>
<speed>3.2</speed>
<temp>0.00</temp>
<bpm>0</bpm>
<rpm>0.00</rpm>
</extensions>
</trkpt>
<trkpt lat="64.145896912" lon="-21.898937225">
<ele>11.011719</ele>
<time>2012-07-28T22:43:39Z</time>
<speed>2.950000</speed>
<extensions>
<speed>2.9</speed>
<temp>0.00</temp>
<bpm>0</bpm>
<rpm>0.00</rpm>
</extensions>
</trkpt>
<trkpt lat="64.145866394" lon="-21.899290085">
<ele>9.354736</ele>
<time>2012-07-28T22:43:44Z</time>
<speed>3.670000</speed>
<extensions>
<speed>3.7</speed>
<temp>0.00</temp>
<bpm>0</bpm>
<rpm>0.00</rpm>
</extensions>
</trkpt>
<trkpt lat="64.145851135" lon="-21.899826050">
<ele>17.665039</ele>
<time>2012-07-28T22:43:49Z</time>
<speed>4.000000</speed>
<extensions>
<speed>4.0</speed>
<temp>0.00</temp>
<bpm>0</bpm>
<rpm>0.00</rpm>
</extensions>
</trkpt>
<trkpt lat="64.145812988" lon="-21.900032043">
<ele>13.336670</ele>
<time>2012-07-28T22:43:54Z</time>
<speed>2.560000</speed>
<extensions>
<speed>2.6</speed>
<temp>0.00</temp>
<bpm>0</bpm>
<rpm>0.00</rpm>
</extensions>
</trkpt>
<trkpt lat="64.145698547" lon="-21.900274277">
<ele>7.515747</ele>
<time>2012-07-28T22:43:59Z</time>
<speed>3.250000</speed>
<extensions>
<speed>3.2</speed>
<temp>0.00</temp>
<bpm>0</bpm>
<rpm>0.00</rpm>
</extensions>
</trkpt>
<trkpt lat="64.145668030" lon="-21.900733948">
<ele>15.241699</ele>
<time>2012-07-28T22:44:04Z</time>
<speed>3.230000</speed>
<extensions>
<speed>3.2</speed>
<temp>0.00</temp>
<bpm>0</bpm>
<rpm>0.00</rpm>
</extensions>
</trkpt>
<trkpt lat="64.145736694" lon="-21.901193619">
<ele>17.706055</ele>
<time>2012-07-28T22:44:09Z</time>
<speed>4.270000</speed>
<extensions>
<speed>4.3</speed>
<temp>0.00</temp>
<bpm>0</bpm>
<rpm>0.00</rpm>
</extensions>
</trkpt>
<trkpt lat="64.145713806" lon="-21.901617050">
<ele>17.060059</ele>
<time>2012-07-28T22:44:14Z</time>
<speed>4.450000</speed>
<extensions>
<speed>4.5</speed>
<temp>0.00</temp>
<bpm>0</bpm>
<rpm>0.00</rpm>
</extensions>
</trkpt>
<trkpt lat="64.145645142" lon="-21.902084351">
<ele>16.749023</ele>
<time>2012-07-28T22:44:19Z</time>
<speed>4.240000</speed>
<extensions>
<speed>4.2</speed>
<temp>0.00</temp>
<bpm>0</bpm>
<rpm>0.00</rpm>
</extensions>
</trkpt>
<trkpt lat="64.145637512" lon="-21.902570724">
<ele>14.669678</ele>
<time>2012-07-28T22:44:24Z</time>
<speed>4.870000</speed>
<extensions>
<speed>4.9</speed>
<temp>0.00</temp>
<bpm>0</bpm>
<rpm>0.00</rpm>
</extensions>
</trkpt>
<trkpt lat="64.145591736" lon="-21.903091431">
<ele>13.126221</ele>
<time>2012-07-28T22:44:29Z</time>
<speed>4.510000</speed>
<extensions>
<speed>4.5</speed>
<temp>0.00</temp>
<bpm>0</bpm>
<rpm>0.00</rpm>
</extensions>
</trkpt>
<trkpt lat="64.145561218" lon="-21.903606415">
<ele>15.692627</ele>
<time>2012-07-28T22:44:34Z</time>
<speed>4.730000</speed>
<extensions>
<speed>4.7</speed>
<temp>0.00</temp>
<bpm>0</bpm>
<rpm>0.00</rpm>
</extensions>
</trkpt>
<trkpt lat="64.145599365" lon="-21.904170990">
<ele>15.971680</ele>
<time>2012-07-28T22:44:39Z</time>
<speed>4.860000</speed>
<extensions>
<speed>4.9</speed>
<temp>0.00</temp>
<bpm>0</bpm>
<rpm>0.00</rpm>
</extensions>
</trkpt>
<trkpt lat="64.145584106" lon="-21.904705048">
<ele>15.081787</ele>
<time>2012-07-28T22:44:44Z</time>
<speed>5.160000</speed>
<extensions>
<speed>5.2</speed>
<temp>0.00</temp>
<bpm>0</bpm>
<rpm>0.00</rpm>
</extensions>
</trkpt>
<trkpt lat="64.145545959" lon="-21.905284882">
<ele>12.698242</ele>
<time>2012-07-28T22:44:49Z</time>
<speed>4.480000</speed>
<extensions>
<speed>4.5</speed>
<temp>0.00</temp>
<bpm>0</bpm>
<rpm>0.00</rpm>
</extensions>
</trkpt>
<trkpt lat="64.145538330" lon="-21.905752182">
<ele>15.430420</ele>
<time>2012-07-28T22:44:54Z</time>
<speed>3.280000</speed>
<extensions>
<speed>3.3</speed>
<temp>0.00</temp>
<bpm>0</bpm>
<rpm>0.00</rpm>
</extensions>
</trkpt>
<trkpt lat="64.145561218" lon="-21.906093597">
<ele>16.406738</ele>
<time>2012-07-28T22:44:59Z</time>
<speed>3.800000</speed>
<extensions>
<speed>3.8</speed>
<temp>0.00</temp>
<bpm>0</bpm>
<rpm>0.00</rpm>
</extensions>
</trkpt>
<trkpt lat="64.145576477" lon="-21.906522751">
<ele>17.244629</ele>
<time>2012-07-28T22:45:04Z</time>
<speed>4.230000</speed>
<extensions>
<speed>4.2</speed>
<temp>0.00</temp>
<bpm>0</bpm>
<rpm>0.00</rpm>
</extensions>
</trkpt>
<trkpt lat="64.145530701" lon="-21.906869888">
<ele>17.726074</ele>
<time>2012-07-28T22:45:09Z</time>
<speed>3.220000</speed>
<extensions>
<speed>3.2</speed>
<temp>0.00</temp>
<bpm>0</bpm>
<rpm>0.00</rpm>
</extensions>
</trkpt>
<trkpt lat="64.145545959" lon="-21.907176971">
<ele>19.904297</ele>
<time>2012-07-28T22:45:14Z</time>
<speed>3.460000</speed>
<extensions>
<speed>3.5</speed>
<temp>0.00</temp>
<bpm>0</bpm>
<rpm>0.00</rpm>
</extensions>
</trkpt>
<trkpt lat="64.145492554" lon="-21.907501221">
<ele>20.635742</ele>
<time>2012-07-28T22:45:19Z</time>
<speed>4.250000</speed>
<extensions>
<speed>4.3</speed>
<temp>0.00</temp>
<bpm>0</bpm>
<rpm>0.00</rpm>
</extensions>
</trkpt>
<trkpt lat="64.145492554" lon="-21.907958984">
<ele>21.537598</ele>
<time>2012-07-28T22:45:24Z</time>
<speed>4.320000</speed>
<extensions>
<speed>4.3</speed>
<temp>0.00</temp>
<bpm>0</bpm>
<rpm>0.00</rpm>
</extensions>
</trkpt>
<trkpt lat="64.145469666" lon="-21.908565521">
<ele>19.457520</ele>
<time>2012-07-28T22:45:29Z</time>
<speed>4.920000</speed>
<extensions>
<speed>4.9</speed>
<temp>0.00</temp>
<bpm>0</bpm>
<rpm>0.00</rpm>
</extensions>
</trkpt>
<trkpt lat="64.145439148" lon="-21.909210205">
<ele>21.615234</ele>
<time>2012-07-28T22:45:34Z</time>
<speed>4.760000</speed>
<extensions>
<speed>4.8</speed>
<temp>0.00</temp>
<bpm>0</bpm>
<rpm>0.00</rpm>
</extensions>
</trkpt>
<trkpt lat="64.145408630" lon="-21.909626007">
<ele>23.127441</ele>
<time>2012-07-28T22:45:39Z</time>
<speed>3.850000</speed>
<extensions>
<speed>3.8</speed>
<temp>0.00</temp>
<bpm>0</bpm>
<rpm>0.00</rpm>
</extensions>
</trkpt>
<trkpt lat="64.145408630" lon="-21.909948349">
<ele>25.495117</ele>
<time>2012-07-28T22:45:44Z</time>
<speed>3.470000</speed>
<extensions>
<speed>3.5</speed>
<temp>0.00</temp>
<bpm>0</bpm>
<rpm>0.00</rpm>
</extensions>
</trkpt>
<trkpt lat="64.145378113" lon="-21.910255432">
<ele>27.804688</ele>
<time>2012-07-28T22:45:49Z</time>
<speed>4.390000</speed>
<extensions>
<speed>4.4</speed>
<temp>0.00</temp>
<bpm>0</bpm>
<rpm>0.00</rpm>
</extensions>
</trkpt>
<trkpt lat="64.145301819" lon="-21.910812378">
<ele>30.521973</ele>
<time>2012-07-28T22:45:54Z</time>
<speed>4.900000</speed>
<extensions>
<speed>4.9</speed>
<temp>0.00</temp>
<bpm>0</bpm>
<rpm>0.00</rpm>
</extensions>
</trkpt>
<trkpt lat="64.145263672" lon="-21.911445618">
<ele>32.944336</ele>
<time>2012-07-28T22:45:59Z</time>
<speed>5.410000</speed>
<extensions>
<speed>5.4</speed>
<temp>0.00</temp>
<bpm>0</bpm>
<rpm>0.00</rpm>
</extensions>
</trkpt>
<trkpt lat="64.145240784" lon="-21.912157059">
<ele>35.789063</ele>
<time>2012-07-28T22:46:04Z</time>
<speed>5.380000</speed>
<extensions>
<speed>5.4</speed>
<temp>0.00</temp>
<bpm>0</bpm>
<rpm>0.00</rpm>
</extensions>
</trkpt>
<trkpt lat="64.145072937" lon="-21.912994385">
<ele>40.087891</ele>
<time>2012-07-28T22:46:09Z</time>
<speed>6.620000</speed>
<extensions>
<speed>6.6</speed>
<temp>0.00</temp>
<bpm>0</bpm>
<rpm>0.00</rpm>
</extensions>
</trkpt>
<trkpt lat="64.145011902" lon="-21.913564682">
<ele>48.332031</ele>
<time>2012-07-28T22:46:14Z</time>
<speed>3.940000</speed>
<extensions>
<speed>3.9</speed>
<temp>0.00</temp>
<bpm>0</bpm>
<rpm>0.00</rpm>
</extensions>
</trkpt>
<trkpt lat="64.144905090" lon="-21.913806915">
<ele>52.406250</ele>
<time>2012-07-28T22:46:19Z</time>
<speed>4.530000</speed>
<extensions>
<speed>4.5</speed>
<temp>0.00</temp>
<bpm>0</bpm>
<rpm>0.00</rpm>
</extensions>
</trkpt>
<trkpt lat="64.144767761" lon="-21.913829803">
<ele>55.137695</ele>
<time>2012-07-28T22:46:24Z</time>
<speed>2.100000</speed>
<extensions>
<speed>2.1</speed>
<temp>0.00</temp>
<bpm>0</bpm>
<rpm>0.00</rpm>
</extensions>
</trkpt>
<trkpt lat="64.144767761" lon="-21.913824081">
<ele>57.447266</ele>
<time>2012-07-28T22:46:29Z</time>
<speed>1.920000</speed>
<extensions>
<speed>1.9</speed>
<temp>0.00</temp>
<bpm>0</bpm>
<rpm>0.00</rpm>
</extensions>
</trkpt>
<trkpt lat="64.144798279" lon="-21.913795471">
<ele>58.564453</ele>
<time>2012-07-28T22:46:34Z</time>
<speed>1.590000</speed>
<extensions>
<speed>1.6</speed>
<temp>0.00</temp>
<bpm>0</bpm>
<rpm>0.00</rpm>
</extensions>
</trkpt>
<trkpt lat="64.144813538" lon="-21.913770676">
<ele>63.783203</ele>
<time>2012-07-28T22:46:39Z</time>
<speed>2.860000</speed>
<extensions>
<speed>2.9</speed>
<temp>0.00</temp>
<bpm>0</bpm>
<rpm>0.00</rpm>
</extensions>
</trkpt>
<trkpt lat="64.144966125" lon="-21.913835526">
<ele>72.830078</ele>
<time>2012-07-28T22:46:44Z</time>
<speed>5.100000</speed>
<extensions>
<speed>5.1</speed>
<temp>0.00</temp>
<bpm>0</bpm>
<rpm>0.00</rpm>
</extensions>
</trkpt>
<trkpt lat="64.145133972" lon="-21.913763046">
<ele>80.931641</ele>
<time>2012-07-28T22:46:49Z</time>
<speed>4.280000</speed>
<extensions>
<speed>4.3</speed>
<temp>0.00</temp>
<bpm>0</bpm>
<rpm>0.00</rpm>
</extensions>
</trkpt>
<trkpt lat="64.145492554" lon="-21.913993835">
<ele>102.812500</ele>
<time>2012-07-28T22:46:54Z</time>
<speed>2.870000</speed>
<extensions>
<speed>2.9</speed>
<temp>0.00</temp>
<bpm>0</bpm>
<rpm>0.00</rpm>
</extensions>
</trkpt>
<trkpt lat="64.145584106" lon="-21.913970947">
<ele>101.560547</ele>
<time>2012-07-28T22:46:59Z</time>
<speed>1.080000</speed>
<extensions>
<speed>1.1</speed>
<temp>0.00</temp>
<bpm>0</bpm>
<rpm>0.00</rpm>
</extensions>
</trkpt>
<trkpt lat="64.145599365" lon="-21.914018631">
<ele>100.939453</ele>
<time>2012-07-28T22:47:04Z</time>
<speed>0.170000</speed>
<extensions>
<speed>0.2</speed>
<temp>0.00</temp>
<bpm>0</bpm>
<rpm>0.00</rpm>
</extensions>
</trkpt>
<trkpt lat="64.145629883" lon="-21.914052963">
<ele>101.123047</ele>
<time>2012-07-28T22:47:09Z</time>
<speed>1.530000</speed>
<extensions>
<speed>1.5</speed>
<temp>0.00</temp>
<bpm>0</bpm>
<rpm>0.00</rpm>
</extensions>
</trkpt>
<trkpt lat="64.145774841" lon="-21.914329529">
<ele>95.302734</ele>
<time>2012-07-28T22:47:14Z</time>
<speed>4.080000</speed>
<extensions>
<speed>4.1</speed>
<temp>0.00</temp>
<bpm>0</bpm>
<rpm>0.00</rpm>
</extensions>
</trkpt>
<trkpt lat="64.145874023" lon="-21.914802551">
<ele>87.755859</ele>
<time>2012-07-28T22:47:19Z</time>
<speed>4.710000</speed>
<extensions>
<speed>4.7</speed>
<temp>0.00</temp>
<bpm>0</bpm>
<rpm>0.00</rpm>
</extensions>
</trkpt>
<trkpt lat="64.145912170" lon="-21.915246964">
<ele>81.595703</ele>
<time>2012-07-28T22:47:24Z</time>
<speed>4.380000</speed>
<extensions>
<speed>4.4</speed>
<temp>0.00</temp>
<bpm>0</bpm>
<rpm>0.00</rpm>
</extensions>
</trkpt>
<trkpt lat="64.145904541" lon="-21.915676117">
<ele>70.863281</ele>
<time>2012-07-28T22:47:29Z</time>
<speed>4.640000</speed>
<extensions>
<speed>4.6</speed>
<temp>0.00</temp>
<bpm>0</bpm>
<rpm>0.00</rpm>
</extensions>
</trkpt>
<trkpt lat="64.145942688" lon="-21.916250229">
<ele>62.663086</ele>
<time>2012-07-28T22:47:34Z</time>
<speed>4.850000</speed>
<extensions>
<speed>4.8</speed>
<temp>0.00</temp>
<bpm>0</bpm>
<rpm>0.00</rpm>
</extensions>
</trkpt>
<trkpt lat="64.145980835" lon="-21.916748047">
<ele>57.226563</ele>
<time>2012-07-28T22:47:39Z</time>
<speed>4.600000</speed>
<extensions>
<speed>4.6</speed>
<temp>0.00</temp>
<bpm>0</bpm>
<rpm>0.00</rpm>
</extensions>
</trkpt>
<trkpt lat="64.146034241" lon="-21.917339325">
<ele>50.739258</ele>
<time>2012-07-28T22:47:44Z</time>
<speed>5.040000</speed>
<extensions>
<speed>5.0</speed>
<temp>0.00</temp>
<bpm>0</bpm>
<rpm>0.00</rpm>
</extensions>
</trkpt>
<trkpt lat="64.146125793" lon="-21.917913437">
<ele>41.982422</ele>
<time>2012-07-28T22:47:49Z</time>
<speed>5.320000</speed>
<extensions>
<speed>5.3</speed>
<temp>0.00</temp>
<bpm>0</bpm>
<rpm>0.00</rpm>
</extensions>
</trkpt>
<trkpt lat="64.146209717" lon="-21.918445587">
<ele>35.820313</ele>
<time>2012-07-28T22:47:54Z</time>
<speed>4.780000</speed>
<extensions>
<speed>4.8</speed>
<temp>0.00</temp>
<bpm>0</bpm>
<rpm>0.00</rpm>
</extensions>
</trkpt>
<trkpt lat="64.146308899" lon="-21.918947220">
<ele>32.556641</ele>
<time>2012-07-28T22:47:59Z</time>
<speed>5.510000</speed>
<extensions>
<speed>5.5</speed>
<temp>0.00</temp>
<bpm>0</bpm>
<rpm>0.00</rpm>
</extensions>
</trkpt>
<trkpt lat="64.146430969" lon="-21.919509888">
<ele>28.779785</ele>
<time>2012-07-28T22:48:04Z</time>
<speed>6.270000</speed>
<extensions>
<speed>6.3</speed>
<temp>0.00</temp>
<bpm>0</bpm>
<rpm>0.00</rpm>
</extensions>
</trkpt>
<trkpt lat="64.146568298" lon="-21.919992447">
<ele>25.737305</ele>
<time>2012-07-28T22:48:09Z</time>
<speed>5.370000</speed>
<extensions>
<speed>5.4</speed>
<temp>0.00</temp>
<bpm>0</bpm>
<rpm>0.00</rpm>
</extensions>
</trkpt>
<trkpt lat="64.146697998" lon="-21.920402527">
<ele>24.995605</ele>
<time>2012-07-28T22:48:14Z</time>
<speed>3.140000</speed>
<extensions>
<speed>3.1</speed>
<temp>0.00</temp>
<bpm>0</bpm>
<rpm>0.00</rpm>
</extensions>
</trkpt>
<trkpt lat="64.146728516" lon="-21.920663834">
<ele>22.641602</ele>
<time>2012-07-28T22:48:19Z</time>
<speed>2.210000</speed>
<extensions>
<speed>2.2</speed>
<temp>0.00</temp>
<bpm>0</bpm>
<rpm>0.00</rpm>
</extensions>
</trkpt>
<trkpt lat="64.146736145" lon="-21.920787811">
<ele>21.496582</ele>
<time>2012-07-28T22:48:24Z</time>
<speed>0.790000</speed>
<extensions>
<speed>0.8</speed>
<temp>0.00</temp>
<bpm>0</bpm>
<rpm>0.00</rpm>
</extensions>
</trkpt>
<trkpt lat="64.146743774" lon="-21.920978546">
<ele>21.359375</ele>
<time>2012-07-28T22:48:29Z</time>
<speed>2.130000</speed>
<extensions>
<speed>2.1</speed>
<temp>0.00</temp>
<bpm>0</bpm>
<rpm>0.00</rpm>
</extensions>
</trkpt>
<trkpt lat="64.146690369" lon="-21.921064377">
<ele>20.907715</ele>
<time>2012-07-28T22:48:34Z</time>
<speed>0.100000</speed>
<extensions>
<speed>0.1</speed>
<temp>0.00</temp>
<bpm>0</bpm>
<rpm>0.00</rpm>
</extensions>
</trkpt>
<trkpt lat="64.146690369" lon="-21.921073914">
<ele>20.318848</ele>
<time>2012-07-28T22:48:39Z</time>
<speed>0.040000</speed>
<extensions>
<speed>0.0</speed>
<temp>0.00</temp>
<bpm>0</bpm>
<rpm>0.00</rpm>
</extensions>
</trkpt>
<trkpt lat="64.146690369" lon="-21.921073914">
<ele>20.235352</ele>
<time>2012-07-28T22:48:44Z</time>
<speed>0.040000</speed>
<extensions>
<speed>0.0</speed>
<temp>0.00</temp>
<bpm>0</bpm>
<rpm>0.00</rpm>
</extensions>
</trkpt>
<trkpt lat="64.146690369" lon="-21.921072006">
<ele>20.325684</ele>
<time>2012-07-28T22:48:49Z</time>
<speed>0.030000</speed>
<extensions>
<speed>0.0</speed>
<temp>0.00</temp>
<bpm>0</bpm>
<rpm>0.00</rpm>
</extensions>
</trkpt>
<trkpt lat="64.146690369" lon="-21.921072006">
<ele>20.363281</ele>
<time>2012-07-28T22:48:54Z</time>
<speed>0.030000</speed>
<extensions>
<speed>0.0</speed>
<temp>0.00</temp>
<bpm>0</bpm>
<rpm>0.00</rpm>
</extensions>
</trkpt>
<trkpt lat="64.146690369" lon="-21.921072006">
<ele>20.331055</ele>
<time>2012-07-28T22:48:59Z</time>
<speed>0.030000</speed>
<extensions>
<speed>0.0</speed>
<temp>0.00</temp>
<bpm>0</bpm>
<rpm>0.00</rpm>
</extensions>
</trkpt>
<trkpt lat="64.146690369" lon="-21.921072006">
<ele>20.207520</ele>
<time>2012-07-28T22:49:04Z</time>
<speed>0.040000</speed>
<extensions>
<speed>0.0</speed>
<temp>0.00</temp>
<bpm>0</bpm>
<rpm>0.00</rpm>
</extensions>
</trkpt>
<trkpt lat="64.146690369" lon="-21.921072006">
<ele>20.124512</ele>
<time>2012-07-28T22:49:09Z</time>
<speed>0.030000</speed>
<extensions>
<speed>0.0</speed>
<temp>0.00</temp>
<bpm>0</bpm>
<rpm>0.00</rpm>
</extensions>
</trkpt>
<trkpt lat="64.146690369" lon="-21.921072006">
<ele>20.097656</ele>
<time>2012-07-28T22:49:14Z</time>
<speed>0.020000</speed>
<extensions>
<speed>0.0</speed>
<temp>0.00</temp>
<bpm>0</bpm>
<rpm>0.00</rpm>
</extensions>
</trkpt>
<trkpt lat="64.146690369" lon="-21.921070099">
<ele>20.106445</ele>
<time>2012-07-28T22:49:19Z</time>
<speed>0.880000</speed>
<extensions>
<speed>0.9</speed>
<temp>0.00</temp>
<bpm>0</bpm>
<rpm>0.00</rpm>
</extensions>
</trkpt>
<trkpt lat="64.146697998" lon="-21.921255112">
<ele>21.118652</ele>
<time>2012-07-28T22:49:24Z</time>
<speed>4.020000</speed>
<extensions>
<speed>4.0</speed>
<temp>0.00</temp>
<bpm>0</bpm>
<rpm>0.00</rpm>
</extensions>
</trkpt>
<trkpt lat="64.146652222" lon="-21.921617508">
<ele>20.307617</ele>
<time>2012-07-28T22:49:29Z</time>
<speed>4.420000</speed>
<extensions>
<speed>4.4</speed>
<temp>0.00</temp>
<bpm>0</bpm>
<rpm>0.00</rpm>
</extensions>
</trkpt>
<trkpt lat="64.146568298" lon="-21.922018051">
<ele>18.601074</ele>
<time>2012-07-28T22:49:34Z</time>
<speed>4.370000</speed>
<extensions>
<speed>4.4</speed>
<temp>0.00</temp>
<bpm>0</bpm>
<rpm>0.00</rpm>
</extensions>
</trkpt>
<trkpt lat="64.146659851" lon="-21.922407150">
<ele>18.009766</ele>
<time>2012-07-28T22:49:39Z</time>
<speed>3.830000</speed>
<extensions>
<speed>3.8</speed>
<temp>0.00</temp>
<bpm>0</bpm>
<rpm>0.00</rpm>
</extensions>
</trkpt>
<trkpt lat="64.146728516" lon="-21.922691345">
<ele>16.966797</ele>
<time>2012-07-28T22:49:44Z</time>
<speed>2.550000</speed>
<extensions>
<speed>2.6</speed>
<temp>0.00</temp>
<bpm>0</bpm>
<rpm>0.00</rpm>
</extensions>
</trkpt>
<trkpt lat="64.146797180" lon="-21.922903061">
<ele>17.030762</ele>
<time>2012-07-28T22:49:49Z</time>
<speed>2.080000</speed>
<extensions>
<speed>2.1</speed>
<temp>0.00</temp>
<bpm>0</bpm>
<rpm>0.00</rpm>
</extensions>
</trkpt>
<trkpt lat="64.146697998" lon="-21.923011780">
<ele>17.741699</ele>
<time>2012-07-28T22:49:54Z</time>
<speed>4.770000</speed>
<extensions>
<speed>4.8</speed>
<temp>0.00</temp>
<bpm>0</bpm>
<rpm>0.00</rpm>
</extensions>
</trkpt>
<trkpt lat="64.146507263" lon="-21.923286438">
<ele>24.125488</ele>
<time>2012-07-28T22:49:59Z</time>
<speed>4.540000</speed>
<extensions>
<speed>4.5</speed>
<temp>0.00</temp>
<bpm>0</bpm>
<rpm>0.00</rpm>
</extensions>
</trkpt>
<trkpt lat="64.146408081" lon="-21.923446655">
<ele>27.504395</ele>
<time>2012-07-28T22:50:04Z</time>
<speed>2.050000</speed>
<extensions>
<speed>2.1</speed>
<temp>0.00</temp>
<bpm>0</bpm>
<rpm>0.00</rpm>
</extensions>
</trkpt>
<trkpt lat="64.146301270" lon="-21.923446655">
<ele>28.645996</ele>
<time>2012-07-28T22:50:09Z</time>
<speed>0.880000</speed>
<extensions>
<speed>0.9</speed>
<temp>0.00</temp>
<bpm>0</bpm>
<rpm>0.00</rpm>
</extensions>
</trkpt>
<trkpt lat="64.146286011" lon="-21.923385620">
<ele>33.666992</ele>
<time>2012-07-28T22:50:14Z</time>
<speed>0.900000</speed>
<extensions>
<speed>0.9</speed>
<temp>0.00</temp>
<bpm>0</bpm>
<rpm>0.00</rpm>
</extensions>
</trkpt>
<trkpt lat="64.146232605" lon="-21.923313141">
<ele>35.803711</ele>
<time>2012-07-28T22:50:19Z</time>
<speed>0.170000</speed>
<extensions>
<speed>0.2</speed>
<temp>0.00</temp>
<bpm>0</bpm>
<rpm>0.00</rpm>
</extensions>
</trkpt>
<trkpt lat="64.146217346" lon="-21.923194885">
<ele>40.101563</ele>
<time>2012-07-28T22:50:24Z</time>
<speed>2.210000</speed>
<extensions>
<speed>2.2</speed>
<temp>0.00</temp>
<bpm>0</bpm>
<rpm>0.00</rpm>
</extensions>
</trkpt>
<trkpt lat="64.146080017" lon="-21.923284531">
<ele>44.838867</ele>
<time>2012-07-28T22:50:29Z</time>
<speed>2.100000</speed>
<extensions>
<speed>2.1</speed>
<temp>0.00</temp>
<bpm>0</bpm>
<rpm>0.00</rpm>
</extensions>
</trkpt>
<trkpt lat="64.146003723" lon="-21.923381805">
<ele>50.020508</ele>
<time>2012-07-28T22:50:34Z</time>
<speed>1.540000</speed>
<extensions>
<speed>1.5</speed>
<temp>0.00</temp>
<bpm>0</bpm>
<rpm>0.00</rpm>
</extensions>
</trkpt>
<trkpt lat="64.145957947" lon="-21.923696518">
<ele>47.997070</ele>
<time>2012-07-28T22:50:39Z</time>
<speed>0.160000</speed>
<extensions>
<speed>0.2</speed>
<temp>0.00</temp>
<bpm>0</bpm>
<rpm>0.00</rpm>
</extensions>
</trkpt>
<trkpt lat="64.145919800" lon="-21.923784256">
<ele>48.067383</ele>
<time>2012-07-28T22:50:44Z</time>
<speed>0.430000</speed>
<extensions>
<speed>0.4</speed>
<temp>0.00</temp>
<bpm>0</bpm>
<rpm>0.00</rpm>
</extensions>
</trkpt>
<trkpt lat="64.145889282" lon="-21.923748016">
<ele>48.522461</ele>
<time>2012-07-28T22:50:49Z</time>
<speed>0.030000</speed>
<extensions>
<speed>0.0</speed>
<temp>0.00</temp>
<bpm>0</bpm>
<rpm>0.00</rpm>
</extensions>
</trkpt>
<trkpt lat="64.145889282" lon="-21.923749924">
<ele>48.736328</ele>
<time>2012-07-28T22:50:54Z</time>
<speed>0.060000</speed>
<extensions>
<speed>0.1</speed>
<temp>0.00</temp>
<bpm>0</bpm>
<rpm>0.00</rpm>
</extensions>
</trkpt>
<trkpt lat="64.145881653" lon="-21.923755646">
<ele>48.811523</ele>
<time>2012-07-28T22:50:59Z</time>
<speed>0.310000</speed>
<extensions>
<speed>0.3</speed>
<temp>0.00</temp>
<bpm>0</bpm>
<rpm>0.00</rpm>
</extensions>
</trkpt>
<trkpt lat="64.145843506" lon="-21.923782349">
<ele>47.408203</ele>
<time>2012-07-28T22:51:04Z</time>
<speed>1.570000</speed>
<extensions>
<speed>1.6</speed>
<temp>0.00</temp>
<bpm>0</bpm>
<rpm>0.00</rpm>
</extensions>
</trkpt>
<trkpt lat="64.145751953" lon="-21.923812866">
<ele>44.137695</ele>
<time>2012-07-28T22:51:09Z</time>
<speed>2.050000</speed>
<extensions>
<speed>2.1</speed>
<temp>0.00</temp>
<bpm>0</bpm>
<rpm>0.00</rpm>
</extensions>
</trkpt>
<trkpt lat="64.145706177" lon="-21.923847198">
<ele>44.186523</ele>
<time>2012-07-28T22:51:14Z</time>
<speed>0.190000</speed>
<extensions>
<speed>0.2</speed>
<temp>0.00</temp>
<bpm>0</bpm>
<rpm>0.00</rpm>
</extensions>
</trkpt>
<trkpt lat="64.145713806" lon="-21.923900604">
<ele>44.588867</ele>
<time>2012-07-28T22:51:19Z</time>
<speed>0.030000</speed>
<extensions>
<speed>0.0</speed>
<temp>0.00</temp>
<bpm>0</bpm>
<rpm>0.00</rpm>
</extensions>
</trkpt>
<trkpt lat="64.145713806" lon="-21.923912048">
<ele>44.728516</ele>
<time>2012-07-28T22:51:24Z</time>
<speed>0.080000</speed>
<extensions>
<speed>0.1</speed>
<temp>0.00</temp>
<bpm>0</bpm>
<rpm>0.00</rpm>
</extensions>
</trkpt>
<trkpt lat="64.145713806" lon="-21.923917770">
<ele>44.787109</ele>
<time>2012-07-28T22:51:29Z</time>
<speed>0.120000</speed>
<extensions>
<speed>0.1</speed>
<temp>0.00</temp>
<bpm>0</bpm>
<rpm>0.00</rpm>
</extensions>
</trkpt>
<trkpt lat="64.145706177" lon="-21.923904419">
<ele>44.830078</ele>
<time>2012-07-28T22:51:34Z</time>
<speed>0.500000</speed>
<extensions>
<speed>0.5</speed>
<temp>0.00</temp>
<bpm>0</bpm>
<rpm>0.00</rpm>
</extensions>
</trkpt>
<trkpt lat="64.145721436" lon="-21.924037933">
<ele>45.003906</ele>
<time>2012-07-28T22:51:39Z</time>
<speed>0.080000</speed>
<extensions>
<speed>0.1</speed>
<temp>0.00</temp>
<bpm>0</bpm>
<rpm>0.00</rpm>
</extensions>
</trkpt>
<trkpt lat="64.145721436" lon="-21.924043655">
<ele>45.094727</ele>
<time>2012-07-28T22:51:44Z</time>
<speed>0.120000</speed>
<extensions>
<speed>0.1</speed>
<temp>0.00</temp>
<bpm>0</bpm>
<rpm>0.00</rpm>
</extensions>
</trkpt>
<trkpt lat="64.145713806" lon="-21.924057007">
<ele>45.117188</ele>
<time>2012-07-28T22:51:49Z</time>
<speed>0.210000</speed>
<extensions>
<speed>0.2</speed>
<temp>0.00</temp>
<bpm>0</bpm>
<rpm>0.00</rpm>
</extensions>
</trkpt>
<trkpt lat="64.145690918" lon="-21.924091339">
<ele>44.599609</ele>
<time>2012-07-28T22:51:54Z</time>
<speed>0.300000</speed>
<extensions>
<speed>0.3</speed>
<temp>0.00</temp>
<bpm>0</bpm>
<rpm>0.00</rpm>
</extensions>
</trkpt>
<trkpt lat="64.145660400" lon="-21.924167633">
<ele>44.494141</ele>
<time>2012-07-28T22:51:59Z</time>
<speed>0.340000</speed>
<extensions>
<speed>0.3</speed>
<temp>0.00</temp>
<bpm>0</bpm>
<rpm>0.00</rpm>
</extensions>
</trkpt>
<trkpt lat="64.145652771" lon="-21.924209595">
<ele>43.791992</ele>
<time>2012-07-28T22:52:04Z</time>
<speed>0.220000</speed>
<extensions>
<speed>0.2</speed>
<temp>0.00</temp>
<bpm>0</bpm>
<rpm>0.00</rpm>
</extensions>
</trkpt>
<trkpt lat="64.145652771" lon="-21.924230576">
<ele>42.654297</ele>
<time>2012-07-28T22:52:09Z</time>
<speed>0.190000</speed>
<extensions>
<speed>0.2</speed>
<temp>0.00</temp>
<bpm>0</bpm>
<rpm>0.00</rpm>
</extensions>
</trkpt>
<trkpt lat="64.145645142" lon="-21.924234390">
<ele>42.168945</ele>
<time>2012-07-28T22:52:14Z</time>
<speed>0.040000</speed>
<extensions>
<speed>0.0</speed>
<temp>0.00</temp>
<bpm>0</bpm>
<rpm>0.00</rpm>
</extensions>
</trkpt>
<trkpt lat="64.145645142" lon="-21.924240112">
<ele>41.649414</ele>
<time>2012-07-28T22:52:19Z</time>
<speed>0.140000</speed>
<extensions>
<speed>0.1</speed>
<temp>0.00</temp>
<bpm>0</bpm>
<rpm>0.00</rpm>
</extensions>
</trkpt>
<trkpt lat="64.145637512" lon="-21.924247742">
<ele>41.025391</ele>
<time>2012-07-28T22:52:24Z</time>
<speed>0.100000</speed>
<extensions>
<speed>0.1</speed>
<temp>0.00</temp>
<bpm>0</bpm>
<rpm>0.00</rpm>
</extensions>
</trkpt>
<trkpt lat="64.145637512" lon="-21.924257278">
<ele>40.240234</ele>
<time>2012-07-28T22:52:29Z</time>
<speed>0.210000</speed>
<extensions>
<speed>0.2</speed>
<temp>0.00</temp>
<bpm>0</bpm>
<rpm>0.00</rpm>
</extensions>
</trkpt>
<trkpt lat="64.145629883" lon="-21.924268723">
<ele>39.191406</ele>
<time>2012-07-28T22:52:34Z</time>
<speed>0.220000</speed>
<extensions>
<speed>0.2</speed>
<temp>0.00</temp>
<bpm>0</bpm>
<rpm>0.00</rpm>
</extensions>
</trkpt>
<trkpt lat="64.145622253" lon="-21.924276352">
<ele>37.989258</ele>
<time>2012-07-28T22:52:39Z</time>
<speed>0.150000</speed>
<extensions>
<speed>0.2</speed>
<temp>0.00</temp>
<bpm>0</bpm>
<rpm>0.00</rpm>
</extensions>
</trkpt>
<trkpt lat="64.145606995" lon="-21.924280167">
<ele>36.686523</ele>
<time>2012-07-28T22:52:44Z</time>
<speed>0.130000</speed>
<extensions>
<speed>0.1</speed>
<temp>0.00</temp>
<bpm>0</bpm>
<rpm>0.00</rpm>
</extensions>
</trkpt>
<trkpt lat="64.145599365" lon="-21.924345016">
<ele>36.011719</ele>
<time>2012-07-28T22:52:49Z</time>
<speed>1.330000</speed>
<extensions>
<speed>1.3</speed>
<temp>0.00</temp>
<bpm>0</bpm>
<rpm>0.00</rpm>
</extensions>
</trkpt>
<trkpt lat="64.145599365" lon="-21.924650192">
<ele>36.576172</ele>
<time>2012-07-28T22:52:54Z</time>
<speed>3.100000</speed>
<extensions>
<speed>3.1</speed>
<temp>0.00</temp>
<bpm>0</bpm>
<rpm>0.00</rpm>
</extensions>
</trkpt>
<trkpt lat="64.145652771" lon="-21.924900055">
<ele>41.162109</ele>
<time>2012-07-28T22:52:59Z</time>
<speed>3.010000</speed>
<extensions>
<speed>3.0</speed>
<temp>0.00</temp>
<bpm>0</bpm>
<rpm>0.00</rpm>
</extensions>
</trkpt>
<trkpt lat="64.145744324" lon="-21.925022125">
<ele>52.014648</ele>
<time>2012-07-28T22:53:04Z</time>
<speed>2.080000</speed>
<extensions>
<speed>2.1</speed>
<temp>0.00</temp>
<bpm>0</bpm>
<rpm>0.00</rpm>
</extensions>
</trkpt>
<trkpt lat="64.145782471" lon="-21.925327301">
<ele>57.024414</ele>
<time>2012-07-28T22:53:09Z</time>
<speed>3.210000</speed>
<extensions>
<speed>3.2</speed>
<temp>0.00</temp>
<bpm>0</bpm>
<rpm>0.00</rpm>
</extensions>
</trkpt>
<trkpt lat="64.145828247" lon="-21.925643921">
<ele>61.375977</ele>
<time>2012-07-28T22:53:14Z</time>
<speed>3.070000</speed>
<extensions>
<speed>3.1</speed>
<temp>0.00</temp>
<bpm>0</bpm>
<rpm>0.00</rpm>
</extensions>
</trkpt>
<trkpt lat="64.145866394" lon="-21.925920486">
<ele>66.011719</ele>
<time>2012-07-28T22:53:19Z</time>
<speed>2.790000</speed>
<extensions>
<speed>2.8</speed>
<temp>0.00</temp>
<bpm>0</bpm>
<rpm>0.00</rpm>
</extensions>
</trkpt>
<trkpt lat="64.145919800" lon="-21.926128387">
<ele>72.296875</ele>
<time>2012-07-28T22:53:24Z</time>
<speed>2.520000</speed>
<extensions>
<speed>2.5</speed>
<temp>0.00</temp>
<bpm>0</bpm>
<rpm>0.00</rpm>
</extensions>
</trkpt>
<trkpt lat="64.146011353" lon="-21.926347733">
<ele>77.402344</ele>
<time>2012-07-28T22:53:29Z</time>
<speed>2.570000</speed>
<extensions>
<speed>2.6</speed>
<temp>0.00</temp>
<bpm>0</bpm>
<rpm>0.00</rpm>
</extensions>
</trkpt>
<trkpt lat="64.146087646" lon="-21.926692963">
<ele>81.853516</ele>
<time>2012-07-28T22:53:34Z</time>
<speed>4.060000</speed>
<extensions>
<speed>4.1</speed>
<temp>0.00</temp>
<bpm>0</bpm>
<rpm>0.00</rpm>
</extensions>
</trkpt>
<trkpt lat="64.146194458" lon="-21.926946640">
<ele>87.855469</ele>
<time>2012-07-28T22:53:39Z</time>
<speed>1.910000</speed>
<extensions>
<speed>1.9</speed>
<temp>0.00</temp>
<bpm>0</bpm>
<rpm>0.00</rpm>
</extensions>
</trkpt>
<trkpt lat="64.146224976" lon="-21.927236557">
<ele>94.947266</ele>
<time>2012-07-28T22:53:44Z</time>
<speed>2.640000</speed>
<extensions>
<speed>2.6</speed>
<temp>0.00</temp>
<bpm>0</bpm>
<rpm>0.00</rpm>
</extensions>
</trkpt>
<trkpt lat="64.146240234" lon="-21.927555084">
<ele>101.945313</ele>
<time>2012-07-28T22:53:49Z</time>
<speed>1.930000</speed>
<extensions>
<speed>1.9</speed>
<temp>0.00</temp>
<bpm>0</bpm>
<rpm>0.00</rpm>
</extensions>
</trkpt>
<trkpt lat="64.146247864" lon="-21.927824020">
<ele>104.337891</ele>
<time>2012-07-28T22:53:54Z</time>
<speed>0.870000</speed>
<extensions>
<speed>0.9</speed>
<temp>0.00</temp>
<bpm>0</bpm>
<rpm>0.00</rpm>
</extensions>
</trkpt>
<trkpt lat="64.146247864" lon="-21.928001404">
<ele>101.017578</ele>
<time>2012-07-28T22:53:59Z</time>
<speed>1.450000</speed>
<extensions>
<speed>1.4</speed>
<temp>0.00</temp>
<bpm>0</bpm>
<rpm>0.00</rpm>
</extensions>
</trkpt>
<trkpt lat="64.146293640" lon="-21.928150177">
<ele>101.300781</ele>
<time>2012-07-28T22:54:04Z</time>
<speed>1.640000</speed>
<extensions>
<speed>1.6</speed>
<temp>0.00</temp>
<bpm>0</bpm>
<rpm>0.00</rpm>
</extensions>
</trkpt>
<trkpt lat="64.146316528" lon="-21.928525925">
<ele>96.000000</ele>
<time>2012-07-28T22:54:09Z</time>
<speed>1.620000</speed>
<extensions>
<speed>1.6</speed>
<temp>0.00</temp>
<bpm>0</bpm>
<rpm>0.00</rpm>
</extensions>
</trkpt>
<trkpt lat="64.146362305" lon="-21.928686142">
<ele>94.410156</ele>
<time>2012-07-28T22:54:14Z</time>
<speed>0.700000</speed>
<extensions>
<speed>0.7</speed>
<temp>0.00</temp>
<bpm>0</bpm>
<rpm>0.00</rpm>
</extensions>
</trkpt>
<trkpt lat="64.146377563" lon="-21.928731918">
<ele>96.302734</ele>
<time>2012-07-28T22:54:19Z</time>
<speed>0.140000</speed>
<extensions>
<speed>0.1</speed>
<temp>0.00</temp>
<bpm>0</bpm>
<rpm>0.00</rpm>
</extensions>
</trkpt>
<trkpt lat="64.146377563" lon="-21.928726196">
<ele>97.332031</ele>
<time>2012-07-28T22:54:24Z</time>
<speed>0.160000</speed>
<extensions>
<speed>0.2</speed>
<temp>0.00</temp>
<bpm>0</bpm>
<rpm>0.00</rpm>
</extensions>
</trkpt>
<trkpt lat="64.146377563" lon="-21.928718567">
<ele>97.660156</ele>
<time>2012-07-28T22:54:29Z</time>
<speed>0.130000</speed>
<extensions>
<speed>0.1</speed>
<temp>0.00</temp>
<bpm>0</bpm>
<rpm>0.00</rpm>
</extensions>
</trkpt>
<trkpt lat="64.146385193" lon="-21.928712845">
<ele>97.757813</ele>
<time>2012-07-28T22:54:34Z</time>
<speed>0.080000</speed>
<extensions>
<speed>0.1</speed>
<temp>0.00</temp>
<bpm>0</bpm>
<rpm>0.00</rpm>
</extensions>
</trkpt>
<trkpt lat="64.146385193" lon="-21.928709030">
<ele>97.777344</ele>
<time>2012-07-28T22:54:39Z</time>
<speed>0.050000</speed>
<extensions>
<speed>0.1</speed>
<temp>0.00</temp>
<bpm>0</bpm>
<rpm>0.00</rpm>
</extensions>
</trkpt>
<trkpt lat="64.146385193" lon="-21.928710938">
<ele>97.646484</ele>
<time>2012-07-28T22:54:44Z</time>
<speed>0.030000</speed>
<extensions>
<speed>0.0</speed>
<temp>0.00</temp>
<bpm>0</bpm>
<rpm>0.00</rpm>
</extensions>
</trkpt>
<trkpt lat="64.146385193" lon="-21.928716660">
<ele>97.507813</ele>
<time>2012-07-28T22:54:49Z</time>
<speed>0.040000</speed>
<extensions>
<speed>0.0</speed>
<temp>0.00</temp>
<bpm>0</bpm>
<rpm>0.00</rpm>
</extensions>
</trkpt>
<trkpt lat="64.146392822" lon="-21.928718567">
<ele>97.246094</ele>
<time>2012-07-28T22:54:54Z</time>
<speed>0.010000</speed>
<extensions>
<speed>0.0</speed>
<temp>0.00</temp>
<bpm>0</bpm>
<rpm>0.00</rpm>
</extensions>
</trkpt>
<trkpt lat="64.146392822" lon="-21.928722382">
<ele>97.117188</ele>
<time>2012-07-28T22:54:59Z</time>
<speed>0.020000</speed>
<extensions>
<speed>0.0</speed>
<temp>0.00</temp>
<bpm>0</bpm>
<rpm>0.00</rpm>
</extensions>
</trkpt>
<trkpt lat="64.146392822" lon="-21.928722382">
<ele>96.667969</ele>
<time>2012-07-28T22:55:04Z</time>
<speed>0.020000</speed>
<extensions>
<speed>0.0</speed>
<temp>0.00</temp>
<bpm>0</bpm>
<rpm>0.00</rpm>
</extensions>
</trkpt>
<trkpt lat="64.146392822" lon="-21.928728104">
<ele>95.820313</ele>
<time>2012-07-28T22:55:09Z</time>
<speed>0.040000</speed>
<extensions>
<speed>0.0</speed>
<temp>0.00</temp>
<bpm>0</bpm>
<rpm>0.00</rpm>
</extensions>
</trkpt>
<trkpt lat="64.146354675" lon="-21.928810120">
<ele>93.974609</ele>
<time>2012-07-28T22:55:14Z</time>
<speed>2.940000</speed>
<extensions>
<speed>2.9</speed>
<temp>0.00</temp>
<bpm>0</bpm>
<rpm>0.00</rpm>
</extensions>
</trkpt>
<trkpt lat="64.146331787" lon="-21.928867340">
<ele>89.916016</ele>
<time>2012-07-28T22:55:19Z</time>
<speed>0.100000</speed>
<extensions>
<speed>0.1</speed>
<temp>0.00</temp>
<bpm>0</bpm>
<rpm>0.00</rpm>
</extensions>
</trkpt>
<trkpt lat="64.146354675" lon="-21.928844452">
<ele>88.089844</ele>
<time>2012-07-28T22:55:24Z</time>
<speed>0.050000</speed>
<extensions>
<speed>0.1</speed>
<temp>0.00</temp>
<bpm>0</bpm>
<rpm>0.00</rpm>
</extensions>
</trkpt>
<trkpt lat="64.146362305" lon="-21.928850174">
<ele>87.986328</ele>
<time>2012-07-28T22:55:29Z</time>
<speed>0.070000</speed>
<extensions>
<speed>0.1</speed>
<temp>0.00</temp>
<bpm>0</bpm>
<rpm>0.00</rpm>
</extensions>
</trkpt>
<trkpt lat="64.146362305" lon="-21.928852081">
<ele>87.933594</ele>
<time>2012-07-28T22:55:34Z</time>
<speed>0.030000</speed>
<extensions>
<speed>0.0</speed>
<temp>0.00</temp>
<bpm>0</bpm>
<rpm>0.00</rpm>
</extensions>
</trkpt>
<trkpt lat="64.146392822" lon="-21.928897858">
<ele>88.009766</ele>
<time>2012-07-28T22:55:39Z</time>
<speed>0.210000</speed>
<extensions>
<speed>0.2</speed>
<temp>0.00</temp>
<bpm>0</bpm>
<rpm>0.00</rpm>
</extensions>
</trkpt>
<trkpt lat="64.146385193" lon="-21.928998947">
<ele>87.251953</ele>
<time>2012-07-28T22:55:44Z</time>
<speed>1.060000</speed>
<extensions>
<speed>1.1</speed>
<temp>0.00</temp>
<bpm>0</bpm>
<rpm>0.00</rpm>
</extensions>
</trkpt>
<trkpt lat="64.146400452" lon="-21.929178238">
<ele>86.476563</ele>
<time>2012-07-28T22:55:49Z</time>
<speed>0.130000</speed>
<extensions>
<speed>0.1</speed>
<temp>0.00</temp>
<bpm>0</bpm>
<rpm>0.00</rpm>
</extensions>
</trkpt>
<trkpt lat="64.146415710" lon="-21.929222107">
<ele>87.851563</ele>
<time>2012-07-28T22:55:54Z</time>
<speed>0.030000</speed>
<extensions>
<speed>0.0</speed>
<temp>0.00</temp>
<bpm>0</bpm>
<rpm>0.00</rpm>
</extensions>
</trkpt>
<trkpt lat="64.146415710" lon="-21.929220200">
<ele>89.183594</ele>
<time>2012-07-28T22:55:59Z</time>
<speed>0.040000</speed>
<extensions>
<speed>0.0</speed>
<temp>0.00</temp>
<bpm>0</bpm>
<rpm>0.00</rpm>
</extensions>
</trkpt>
<trkpt lat="64.146423340" lon="-21.929224014">
<ele>90.396484</ele>
<time>2012-07-28T22:56:04Z</time>
<speed>0.110000</speed>
<extensions>
<speed>0.1</speed>
<temp>0.00</temp>
<bpm>0</bpm>
<rpm>0.00</rpm>
</extensions>
</trkpt>
<trkpt lat="64.146415710" lon="-21.929229736">
<ele>91.578125</ele>
<time>2012-07-28T22:56:09Z</time>
<speed>0.210000</speed>
<extensions>
<speed>0.2</speed>
<temp>0.00</temp>
<bpm>0</bpm>
<rpm>0.00</rpm>
</extensions>
</trkpt>
<trkpt lat="64.146415710" lon="-21.929227829">
<ele>92.132813</ele>
<time>2012-07-28T22:56:14Z</time>
<speed>0.150000</speed>
<extensions>
<speed>0.2</speed>
<temp>0.00</temp>
<bpm>0</bpm>
<rpm>0.00</rpm>
</extensions>
</trkpt>
<trkpt lat="64.146415710" lon="-21.929233551">
<ele>92.345703</ele>
<time>2012-07-28T22:56:19Z</time>
<speed>0.090000</speed>
<extensions>
<speed>0.1</speed>
<temp>0.00</temp>
<bpm>0</bpm>
<rpm>0.00</rpm>
</extensions>
</trkpt>
<trkpt lat="64.146415710" lon="-21.929237366">
<ele>92.488281</ele>
<time>2012-07-28T22:56:24Z</time>
<speed>0.140000</speed>
<extensions>
<speed>0.1</speed>
<temp>0.00</temp>
<bpm>0</bpm>
<rpm>0.00</rpm>
</extensions>
</trkpt>
<trkpt lat="64.146423340" lon="-21.929237366">
<ele>92.710938</ele>
<time>2012-07-28T22:56:29Z</time>
<speed>0.030000</speed>
<extensions>
<speed>0.0</speed>
<temp>0.00</temp>
<bpm>0</bpm>
<rpm>0.00</rpm>
</extensions>
</trkpt>
<trkpt lat="64.146415710" lon="-21.929244995">
<ele>93.083984</ele>
<time>2012-07-28T22:56:34Z</time>
<speed>0.190000</speed>
<extensions>
<speed>0.2</speed>
<temp>0.00</temp>
<bpm>0</bpm>
<rpm>0.00</rpm>
</extensions>
</trkpt>
<trkpt lat="64.146400452" lon="-21.929244995">
<ele>93.203125</ele>
<time>2012-07-28T22:56:39Z</time>
<speed>0.370000</speed>
<extensions>
<speed>0.4</speed>
<temp>0.00</temp>
<bpm>0</bpm>
<rpm>0.00</rpm>
</extensions>
</trkpt>
<trkpt lat="64.146408081" lon="-21.929244995">
<ele>93.027344</ele>
<time>2012-07-28T22:56:44Z</time>
<speed>0.260000</speed>
<extensions>
<speed>0.3</speed>
<temp>0.00</temp>
<bpm>0</bpm>
<rpm>0.00</rpm>
</extensions>
</trkpt>
<trkpt lat="64.146408081" lon="-21.929243088">
<ele>93.169922</ele>
<time>2012-07-28T22:56:49Z</time>
<speed>0.130000</speed>
<extensions>
<speed>0.1</speed>
<temp>0.00</temp>
<bpm>0</bpm>
<rpm>0.00</rpm>
</extensions>
</trkpt>
<trkpt lat="64.146415710" lon="-21.929262161">
<ele>93.316406</ele>
<time>2012-07-28T22:56:54Z</time>
<speed>0.260000</speed>
<extensions>
<speed>0.3</speed>
<temp>0.00</temp>
<bpm>0</bpm>
<rpm>0.00</rpm>
</extensions>
</trkpt>
<trkpt lat="64.146415710" lon="-21.929321289">
<ele>93.138672</ele>
<time>2012-07-28T22:56:59Z</time>
<speed>0.320000</speed>
<extensions>
<speed>0.3</speed>
<temp>0.00</temp>
<bpm>0</bpm>
<rpm>0.00</rpm>
</extensions>
</trkpt>
<trkpt lat="64.146415710" lon="-21.929389954">
<ele>92.992188</ele>
<time>2012-07-28T22:57:04Z</time>
<speed>0.340000</speed>
<extensions>
<speed>0.3</speed>
<temp>0.00</temp>
<bpm>0</bpm>
<rpm>0.00</rpm>
</extensions>
</trkpt>
<trkpt lat="64.146400452" lon="-21.929512024">
<ele>92.541016</ele>
<time>2012-07-28T22:57:09Z</time>
<speed>0.350000</speed>
<extensions>
<speed>0.3</speed>
<temp>0.00</temp>
<bpm>0</bpm>
<rpm>0.00</rpm>
</extensions>
</trkpt>
<trkpt lat="64.146446228" lon="-21.929655075">
<ele>91.968750</ele>
<time>2012-07-28T22:57:14Z</time>
<speed>0.450000</speed>
<extensions>
<speed>0.5</speed>
<temp>0.00</temp>
<bpm>0</bpm>
<rpm>0.00</rpm>
</extensions>
</trkpt>
<trkpt lat="64.146461487" lon="-21.929742813">
<ele>91.746094</ele>
<time>2012-07-28T22:57:19Z</time>
<speed>0.430000</speed>
<extensions>
<speed>0.4</speed>
<temp>0.00</temp>
<bpm>0</bpm>
<rpm>0.00</rpm>
</extensions>
</trkpt>
<trkpt lat="64.146469116" lon="-21.929800034">
<ele>91.412109</ele>
<time>2012-07-28T22:57:24Z</time>
<speed>0.330000</speed>
<extensions>
<speed>0.3</speed>
<temp>0.00</temp>
<bpm>0</bpm>
<rpm>0.00</rpm>
</extensions>
</trkpt>
<trkpt lat="64.146461487" lon="-21.929721832">
<ele>91.576172</ele>
<time>2012-07-28T22:57:29Z</time>
<speed>0.260000</speed>
<extensions>
<speed>0.3</speed>
<temp>0.00</temp>
<bpm>0</bpm>
<rpm>0.00</rpm>
</extensions>
</trkpt>
<trkpt lat="64.146408081" lon="-21.929758072">
<ele>91.582031</ele>
<time>2012-07-28T22:57:34Z</time>
<speed>0.560000</speed>
<extensions>
<speed>0.6</speed>
<temp>0.00</temp>
<bpm>0</bpm>
<rpm>0.00</rpm>
</extensions>
</trkpt>
<trkpt lat="64.146400452" lon="-21.929746628">
<ele>91.687500</ele>
<time>2012-07-28T22:57:39Z</time>
<speed>0.220000</speed>
<extensions>
<speed>0.2</speed>
<temp>0.00</temp>
<bpm>0</bpm>
<rpm>0.00</rpm>
</extensions>
</trkpt>
<trkpt lat="64.146392822" lon="-21.929738998">
<ele>91.707031</ele>
<time>2012-07-28T22:57:44Z</time>
<speed>0.180000</speed>
<extensions>
<speed>0.2</speed>
<temp>0.00</temp>
<bpm>0</bpm>
<rpm>0.00</rpm>
</extensions>
</trkpt>
<trkpt lat="64.146392822" lon="-21.929721832">
<ele>91.955078</ele>
<time>2012-07-28T22:57:49Z</time>
<speed>0.130000</speed>
<extensions>
<speed>0.1</speed>
<temp>0.00</temp>
<bpm>0</bpm>
<rpm>0.00</rpm>
</extensions>
</trkpt>
<trkpt lat="64.146392822" lon="-21.929710388">
<ele>92.189453</ele>
<time>2012-07-28T22:57:54Z</time>
<speed>0.080000</speed>
<extensions>
<speed>0.1</speed>
<temp>0.00</temp>
<bpm>0</bpm>
<rpm>0.00</rpm>
</extensions>
</trkpt>
<trkpt lat="64.146385193" lon="-21.929708481">
<ele>92.380859</ele>
<time>2012-07-28T22:57:59Z</time>
<speed>0.110000</speed>
<extensions>
<speed>0.1</speed>
<temp>0.00</temp>
<bpm>0</bpm>
<rpm>0.00</rpm>
</extensions>
</trkpt>
<trkpt lat="64.146392822" lon="-21.929712296">
<ele>92.730469</ele>
<time>2012-07-28T22:58:04Z</time>
<speed>0.410000</speed>
<extensions>
<speed>0.4</speed>
<temp>0.00</temp>
<bpm>0</bpm>
<rpm>0.00</rpm>
</extensions>
</trkpt>
<trkpt lat="64.146377563" lon="-21.929767609">
<ele>93.800781</ele>
<time>2012-07-28T22:58:09Z</time>
<speed>0.450000</speed>
<extensions>
<speed>0.5</speed>
<temp>0.00</temp>
<bpm>0</bpm>
<rpm>0.00</rpm>
</extensions>
</trkpt>
<trkpt lat="64.146354675" lon="-21.929824829">
<ele>94.525391</ele>
<time>2012-07-28T22:58:14Z</time>
<speed>0.430000</speed>
<extensions>
<speed>0.4</speed>
<temp>0.00</temp>
<bpm>0</bpm>
<rpm>0.00</rpm>
</extensions>
</trkpt>
<trkpt lat="64.146331787" lon="-21.929866791">
<ele>95.955078</ele>
<time>2012-07-28T22:58:19Z</time>
<speed>0.330000</speed>
<extensions>
<speed>0.3</speed>
<temp>0.00</temp>
<bpm>0</bpm>
<rpm>0.00</rpm>
</extensions>
</trkpt>
<trkpt lat="64.146339417" lon="-21.929893494">
<ele>95.117188</ele>
<time>2012-07-28T22:58:24Z</time>
<speed>0.330000</speed>
<extensions>
<speed>0.3</speed>
<temp>0.00</temp>
<bpm>0</bpm>
<rpm>0.00</rpm>
</extensions>
</trkpt>
<trkpt lat="64.146354675" lon="-21.929868698">
<ele>94.859375</ele>
<time>2012-07-28T22:58:29Z</time>
<speed>0.150000</speed>
<extensions>
<speed>0.2</speed>
<temp>0.00</temp>
<bpm>0</bpm>
<rpm>0.00</rpm>
</extensions>
</trkpt>
<trkpt lat="64.146354675" lon="-21.929851532">
<ele>95.306641</ele>
<time>2012-07-28T22:58:34Z</time>
<speed>0.040000</speed>
<extensions>
<speed>0.0</speed>
<temp>0.00</temp>
<bpm>0</bpm>
<rpm>0.00</rpm>
</extensions>
</trkpt>
<trkpt lat="64.146362305" lon="-21.929857254">
<ele>96.080078</ele>
<time>2012-07-28T22:58:39Z</time>
<speed>0.180000</speed>
<extensions>
<speed>0.2</speed>
<temp>0.00</temp>
<bpm>0</bpm>
<rpm>0.00</rpm>
</extensions>
</trkpt>
<trkpt lat="64.146369934" lon="-21.929864883">
<ele>96.775391</ele>
<time>2012-07-28T22:58:44Z</time>
<speed>0.230000</speed>
<extensions>
<speed>0.2</speed>
<temp>0.00</temp>
<bpm>0</bpm>
<rpm>0.00</rpm>
</extensions>
</trkpt>
<trkpt lat="64.146377563" lon="-21.929870605">
<ele>97.341797</ele>
<time>2012-07-28T22:58:49Z</time>
<speed>0.170000</speed>
<extensions>
<speed>0.2</speed>
<temp>0.00</temp>
<bpm>0</bpm>
<rpm>0.00</rpm>
</extensions>
</trkpt>
<trkpt lat="64.146385193" lon="-21.929862976">
<ele>97.761719</ele>
<time>2012-07-28T22:58:54Z</time>
<speed>0.140000</speed>
<extensions>
<speed>0.1</speed>
<temp>0.00</temp>
<bpm>0</bpm>
<rpm>0.00</rpm>
</extensions>
</trkpt>
<trkpt lat="64.146385193" lon="-21.929849625">
<ele>98.136719</ele>
<time>2012-07-28T22:58:59Z</time>
<speed>0.130000</speed>
<extensions>
<speed>0.1</speed>
<temp>0.00</temp>
<bpm>0</bpm>
<rpm>0.00</rpm>
</extensions>
</trkpt>
<trkpt lat="64.146377563" lon="-21.929841995">
<ele>98.439453</ele>
<time>2012-07-28T22:59:04Z</time>
<speed>0.040000</speed>
<extensions>
<speed>0.0</speed>
<temp>0.00</temp>
<bpm>0</bpm>
<rpm>0.00</rpm>
</extensions>
</trkpt>
<trkpt lat="64.146385193" lon="-21.929840088">
<ele>98.660156</ele>
<time>2012-07-28T22:59:09Z</time>
<speed>0.080000</speed>
<extensions>
<speed>0.1</speed>
<temp>0.00</temp>
<bpm>0</bpm>
<rpm>0.00</rpm>
</extensions>
</trkpt>
<trkpt lat="64.146392822" lon="-21.929838181">
<ele>98.839844</ele>
<time>2012-07-28T22:59:14Z</time>
<speed>0.070000</speed>
<extensions>
<speed>0.1</speed>
<temp>0.00</temp>
<bpm>0</bpm>
<rpm>0.00</rpm>
</extensions>
</trkpt>
<trkpt lat="64.146400452" lon="-21.929834366">
<ele>98.972656</ele>
<time>2012-07-28T22:59:19Z</time>
<speed>0.110000</speed>
<extensions>
<speed>0.1</speed>
<temp>0.00</temp>
<bpm>0</bpm>
<rpm>0.00</rpm>
</extensions>
</trkpt>
<trkpt lat="64.146400452" lon="-21.929832458">
<ele>99.080078</ele>
<time>2012-07-28T22:59:24Z</time>
<speed>0.170000</speed>
<extensions>
<speed>0.2</speed>
<temp>0.00</temp>
<bpm>0</bpm>
<rpm>0.00</rpm>
</extensions>
</trkpt>
<trkpt lat="64.146415710" lon="-21.929819107">
<ele>99.175781</ele>
<time>2012-07-28T22:59:29Z</time>
<speed>0.240000</speed>
<extensions>
<speed>0.2</speed>
<temp>0.00</temp>
<bpm>0</bpm>
<rpm>0.00</rpm>
</extensions>
</trkpt>
<trkpt lat="64.146415710" lon="-21.929798126">
<ele>99.263672</ele>
<time>2012-07-28T22:59:34Z</time>
<speed>0.210000</speed>
<extensions>
<speed>0.2</speed>
<temp>0.00</temp>
<bpm>0</bpm>
<rpm>0.00</rpm>
</extensions>
</trkpt>
<trkpt lat="64.146423340" lon="-21.929779053">
<ele>99.300781</ele>
<time>2012-07-28T22:59:39Z</time>
<speed>0.190000</speed>
<extensions>
<speed>0.2</speed>
<temp>0.00</temp>
<bpm>0</bpm>
<rpm>0.00</rpm>
</extensions>
</trkpt>
<trkpt lat="64.146423340" lon="-21.929763794">
<ele>99.279297</ele>
<time>2012-07-28T22:59:44Z</time>
<speed>0.210000</speed>
<extensions>
<speed>0.2</speed>
<temp>0.00</temp>
<bpm>0</bpm>
<rpm>0.00</rpm>
</extensions>
</trkpt>
<trkpt lat="64.146423340" lon="-21.929744720">
<ele>99.199219</ele>
<time>2012-07-28T22:59:49Z</time>
<speed>0.150000</speed>
<extensions>
<speed>0.2</speed>
<temp>0.00</temp>
<bpm>0</bpm>
<rpm>0.00</rpm>
</extensions>
</trkpt>
<trkpt lat="64.146423340" lon="-21.929740906">
<ele>99.017578</ele>
<time>2012-07-28T22:59:54Z</time>
<speed>0.220000</speed>
<extensions>
<speed>0.2</speed>
<temp>0.00</temp>
<bpm>0</bpm>
<rpm>0.00</rpm>
</extensions>
</trkpt>
<trkpt lat="64.146415710" lon="-21.929748535">
<ele>98.777344</ele>
<time>2012-07-28T22:59:59Z</time>
<speed>0.110000</speed>
<extensions>
<speed>0.1</speed>
<temp>0.00</temp>
<bpm>0</bpm>
<rpm>0.00</rpm>
</extensions>
</trkpt>
<trkpt lat="64.146408081" lon="-21.929792404">
<ele>98.085938</ele>
<time>2012-07-28T23:00:04Z</time>
<speed>0.400000</speed>
<extensions>
<speed>0.4</speed>
<temp>0.00</temp>
<bpm>0</bpm>
<rpm>0.00</rpm>
</extensions>
</trkpt>
<trkpt lat="64.146430969" lon="-21.929803848">
<ele>96.748047</ele>
<time>2012-07-28T23:00:09Z</time>
<speed>0.380000</speed>
<extensions>
<speed>0.4</speed>
<temp>0.00</temp>
<bpm>0</bpm>
<rpm>0.00</rpm>
</extensions>
</trkpt>
<trkpt lat="64.146423340" lon="-21.929775238">
<ele>96.011719</ele>
<time>2012-07-28T23:00:14Z</time>
<speed>0.460000</speed>
<extensions>
<speed>0.5</speed>
<temp>0.00</temp>
<bpm>0</bpm>
<rpm>0.00</rpm>
</extensions>
</trkpt>
<trkpt lat="64.146400452" lon="-21.929748535">
<ele>94.871094</ele>
<time>2012-07-28T23:00:19Z</time>
<speed>0.420000</speed>
<extensions>
<speed>0.4</speed>
<temp>0.00</temp>
<bpm>0</bpm>
<rpm>0.00</rpm>
</extensions>
</trkpt>
<trkpt lat="64.146369934" lon="-21.929727554">
<ele>93.638672</ele>
<time>2012-07-28T23:00:24Z</time>
<speed>0.410000</speed>
<extensions>
<speed>0.4</speed>
<temp>0.00</temp>
<bpm>0</bpm>
<rpm>0.00</rpm>
</extensions>
</trkpt>
<trkpt lat="64.146339417" lon="-21.929790497">
<ele>91.705078</ele>
<time>2012-07-28T23:00:29Z</time>
<speed>0.480000</speed>
<extensions>
<speed>0.5</speed>
<temp>0.00</temp>
<bpm>0</bpm>
<rpm>0.00</rpm>
</extensions>
</trkpt>
<trkpt lat="64.146293640" lon="-21.929782867">
<ele>90.017578</ele>
<time>2012-07-28T23:00:34Z</time>
<speed>0.460000</speed>
<extensions>
<speed>0.5</speed>
<temp>0.00</temp>
<bpm>0</bpm>
<rpm>0.00</rpm>
</extensions>
</trkpt>
<trkpt lat="64.146286011" lon="-21.929767609">
<ele>88.505859</ele>
<time>2012-07-28T23:00:39Z</time>
<speed>0.220000</speed>
<extensions>
<speed>0.2</speed>
<temp>0.00</temp>
<bpm>0</bpm>
<rpm>0.00</rpm>
</extensions>
</trkpt>
<trkpt lat="64.146278381" lon="-21.929763794">
<ele>87.839844</ele>
<time>2012-07-28T23:00:44Z</time>
<speed>0.050000</speed>
<extensions>
<speed>0.1</speed>
<temp>0.00</temp>
<bpm>0</bpm>
<rpm>0.00</rpm>
</extensions>
</trkpt>
<trkpt lat="64.146278381" lon="-21.929763794">
<ele>87.433594</ele>
<time>2012-07-28T23:00:49Z</time>
<speed>0.090000</speed>
<extensions>
<speed>0.1</speed>
<temp>0.00</temp>
<bpm>0</bpm>
<rpm>0.00</rpm>
</extensions>
</trkpt>
<trkpt lat="64.146270752" lon="-21.929765701">
<ele>87.039063</ele>
<time>2012-07-28T23:00:54Z</time>
<speed>0.170000</speed>
<extensions>
<speed>0.2</speed>
<temp>0.00</temp>
<bpm>0</bpm>
<rpm>0.00</rpm>
</extensions>
</trkpt>
<trkpt lat="64.146263123" lon="-21.929773331">
<ele>86.751953</ele>
<time>2012-07-28T23:00:59Z</time>
<speed>0.230000</speed>
<extensions>
<speed>0.2</speed>
<temp>0.00</temp>
<bpm>0</bpm>
<rpm>0.00</rpm>
</extensions>
</trkpt>
<trkpt lat="64.146255493" lon="-21.929773331">
<ele>86.443359</ele>
<time>2012-07-28T23:01:04Z</time>
<speed>0.330000</speed>
<extensions>
<speed>0.3</speed>
<temp>0.00</temp>
<bpm>0</bpm>
<rpm>0.00</rpm>
</extensions>
</trkpt>
<trkpt lat="64.146224976" lon="-21.929752350">
<ele>85.929688</ele>
<time>2012-07-28T23:01:09Z</time>
<speed>0.190000</speed>
<extensions>
<speed>0.2</speed>
<temp>0.00</temp>
<bpm>0</bpm>
<rpm>0.00</rpm>
</extensions>
</trkpt>
<trkpt lat="64.146217346" lon="-21.929750443">
<ele>85.726563</ele>
<time>2012-07-28T23:01:14Z</time>
<speed>0.400000</speed>
<extensions>
<speed>0.4</speed>
<temp>0.00</temp>
<bpm>0</bpm>
<rpm>0.00</rpm>
</extensions>
</trkpt>
<trkpt lat="64.146171570" lon="-21.929731369">
<ele>85.126953</ele>
<time>2012-07-28T23:01:19Z</time>
<speed>0.320000</speed>
<extensions>
<speed>0.3</speed>
<temp>0.00</temp>
<bpm>0</bpm>
<rpm>0.00</rpm>
</extensions>
</trkpt>
<trkpt lat="64.146148682" lon="-21.929731369">
<ele>84.382813</ele>
<time>2012-07-28T23:01:24Z</time>
<speed>0.010000</speed>
<extensions>
<speed>0.0</speed>
<temp>0.00</temp>
<bpm>0</bpm>
<rpm>0.00</rpm>
</extensions>
</trkpt>
<trkpt lat="64.146148682" lon="-21.929738998">
<ele>84.207031</ele>
<time>2012-07-28T23:01:29Z</time>
<speed>0.110000</speed>
<extensions>
<speed>0.1</speed>
<temp>0.00</temp>
<bpm>0</bpm>
<rpm>0.00</rpm>
</extensions>
</trkpt>
<trkpt lat="64.146141052" lon="-21.929740906">
<ele>83.980469</ele>
<time>2012-07-28T23:01:34Z</time>
<speed>0.140000</speed>
<extensions>
<speed>0.1</speed>
<temp>0.00</temp>
<bpm>0</bpm>
<rpm>0.00</rpm>
</extensions>
</trkpt>
<trkpt lat="64.146141052" lon="-21.929737091">
<ele>83.722656</ele>
<time>2012-07-28T23:01:39Z</time>
<speed>0.250000</speed>
<extensions>
<speed>0.2</speed>
<temp>0.00</temp>
<bpm>0</bpm>
<rpm>0.00</rpm>
</extensions>
</trkpt>
<trkpt lat="64.146148682" lon="-21.929721832">
<ele>83.392578</ele>
<time>2012-07-28T23:01:44Z</time>
<speed>0.330000</speed>
<extensions>
<speed>0.3</speed>
<temp>0.00</temp>
<bpm>0</bpm>
<rpm>0.00</rpm>
</extensions>
</trkpt>
<trkpt lat="64.146156311" lon="-21.929655075">
<ele>81.222656</ele>
<time>2012-07-28T23:01:49Z</time>
<speed>0.200000</speed>
<extensions>
<speed>0.2</speed>
<temp>0.00</temp>
<bpm>0</bpm>
<rpm>0.00</rpm>
</extensions>
</trkpt>
<trkpt lat="64.146171570" lon="-21.929622650">
<ele>80.744141</ele>
<time>2012-07-28T23:01:54Z</time>
<speed>0.140000</speed>
<extensions>
<speed>0.1</speed>
<temp>0.00</temp>
<bpm>0</bpm>
<rpm>0.00</rpm>
</extensions>
</trkpt>
<trkpt lat="64.146171570" lon="-21.929611206">
<ele>80.255859</ele>
<time>2012-07-28T23:01:59Z</time>
<speed>0.030000</speed>
<extensions>
<speed>0.0</speed>
<temp>0.00</temp>
<bpm>0</bpm>
<rpm>0.00</rpm>
</extensions>
</trkpt>
<trkpt lat="64.146171570" lon="-21.929613113">
<ele>79.712891</ele>
<time>2012-07-28T23:02:04Z</time>
<speed>0.170000</speed>
<extensions>
<speed>0.2</speed>
<temp>0.00</temp>
<bpm>0</bpm>
<rpm>0.00</rpm>
</extensions>
</trkpt>
<trkpt lat="64.146156311" lon="-21.929695129">
<ele>78.068359</ele>
<time>2012-07-28T23:02:09Z</time>
<speed>0.370000</speed>
<extensions>
<speed>0.4</speed>
<temp>0.00</temp>
<bpm>0</bpm>
<rpm>0.00</rpm>
</extensions>
</trkpt>
<trkpt lat="64.146148682" lon="-21.929767609">
<ele>75.498047</ele>
<time>2012-07-28T23:02:14Z</time>
<speed>0.330000</speed>
<extensions>
<speed>0.3</speed>
<temp>0.00</temp>
<bpm>0</bpm>
<rpm>0.00</rpm>
</extensions>
</trkpt>
<trkpt lat="64.146148682" lon="-21.929794312">
<ele>74.771484</ele>
<time>2012-07-28T23:02:19Z</time>
<speed>0.200000</speed>
<extensions>
<speed>0.2</speed>
<temp>0.00</temp>
<bpm>0</bpm>
<rpm>0.00</rpm>
</extensions>
</trkpt>
<trkpt lat="64.146148682" lon="-21.929798126">
<ele>74.054688</ele>
<time>2012-07-28T23:02:24Z</time>
<speed>0.210000</speed>
<extensions>
<speed>0.2</speed>
<temp>0.00</temp>
<bpm>0</bpm>
<rpm>0.00</rpm>
</extensions>
</trkpt>
<trkpt lat="64.146148682" lon="-21.929777145">
<ele>73.304688</ele>
<time>2012-07-28T23:02:29Z</time>
<speed>0.260000</speed>
<extensions>
<speed>0.3</speed>
<temp>0.00</temp>
<bpm>0</bpm>
<rpm>0.00</rpm>
</extensions>
</trkpt>
<trkpt lat="64.146141052" lon="-21.929761887">
<ele>72.535156</ele>
<time>2012-07-28T23:02:34Z</time>
<speed>0.080000</speed>
<extensions>
<speed>0.1</speed>
<temp>0.00</temp>
<bpm>0</bpm>
<rpm>0.00</rpm>
</extensions>
</trkpt>
<trkpt lat="64.146141052" lon="-21.929759979">
<ele>71.865234</ele>
<time>2012-07-28T23:02:39Z</time>
<speed>0.060000</speed>
<extensions>
<speed>0.1</speed>
<temp>0.00</temp>
<bpm>0</bpm>
<rpm>0.00</rpm>
</extensions>
</trkpt>
<trkpt lat="64.146141052" lon="-21.929775238">
<ele>71.203125</ele>
<time>2012-07-28T23:02:44Z</time>
<speed>0.230000</speed>
<extensions>
<speed>0.2</speed>
<temp>0.00</temp>
<bpm>0</bpm>
<rpm>0.00</rpm>
</extensions>
</trkpt>
<trkpt lat="64.146141052" lon="-21.929794312">
<ele>70.203125</ele>
<time>2012-07-28T23:02:49Z</time>
<speed>0.140000</speed>
<extensions>
<speed>0.1</speed>
<temp>0.00</temp>
<bpm>0</bpm>
<rpm>0.00</rpm>
</extensions>
</trkpt>
<trkpt lat="64.146141052" lon="-21.929796219">
<ele>67.705078</ele>
<time>2012-07-28T23:02:54Z</time>
<speed>0.300000</speed>
<extensions>
<speed>0.3</speed>
<temp>0.00</temp>
<bpm>0</bpm>
<rpm>0.00</rpm>
</extensions>
</trkpt>
<trkpt lat="64.146148682" lon="-21.929725647">
<ele>64.240234</ele>
<time>2012-07-28T23:02:59Z</time>
<speed>0.260000</speed>
<extensions>
<speed>0.3</speed>
<temp>0.00</temp>
<bpm>0</bpm>
<rpm>0.00</rpm>
</extensions>
</trkpt>
<trkpt lat="64.146163940" lon="-21.929710388">
<ele>63.069336</ele>
<time>2012-07-28T23:03:04Z</time>
<speed>0.220000</speed>
<extensions>
<speed>0.2</speed>
<temp>0.00</temp>
<bpm>0</bpm>
<rpm>0.00</rpm>
</extensions>
</trkpt>
<trkpt lat="64.146179199" lon="-21.929702759">
<ele>62.003906</ele>
<time>2012-07-28T23:03:09Z</time>
<speed>0.130000</speed>
<extensions>
<speed>0.1</speed>
<temp>0.00</temp>
<bpm>0</bpm>
<rpm>0.00</rpm>
</extensions>
</trkpt>
<trkpt lat="64.146186829" lon="-21.929702759">
<ele>61.262695</ele>
<time>2012-07-28T23:03:14Z</time>
<speed>0.190000</speed>
<extensions>
<speed>0.2</speed>
<temp>0.00</temp>
<bpm>0</bpm>
<rpm>0.00</rpm>
</extensions>
</trkpt>
<trkpt lat="64.146194458" lon="-21.929712296">
<ele>60.467773</ele>
<time>2012-07-28T23:03:19Z</time>
<speed>0.110000</speed>
<extensions>
<speed>0.1</speed>
<temp>0.00</temp>
<bpm>0</bpm>
<rpm>0.00</rpm>
</extensions>
</trkpt>
<trkpt lat="64.146194458" lon="-21.929725647">
<ele>59.638672</ele>
<time>2012-07-28T23:03:24Z</time>
<speed>0.200000</speed>
<extensions>
<speed>0.2</speed>
<temp>0.00</temp>
<bpm>0</bpm>
<rpm>0.00</rpm>
</extensions>
</trkpt>
<trkpt lat="64.146202087" lon="-21.929737091">
<ele>58.700195</ele>
<time>2012-07-28T23:03:29Z</time>
<speed>0.230000</speed>
<extensions>
<speed>0.2</speed>
<temp>0.00</temp>
<bpm>0</bpm>
<rpm>0.00</rpm>
</extensions>
</trkpt>
<trkpt lat="64.146209717" lon="-21.929727554">
<ele>57.837891</ele>
<time>2012-07-28T23:03:34Z</time>
<speed>0.230000</speed>
<extensions>
<speed>0.2</speed>
<temp>0.00</temp>
<bpm>0</bpm>
<rpm>0.00</rpm>
</extensions>
</trkpt>
<trkpt lat="64.146224976" lon="-21.929719925">
<ele>57.154297</ele>
<time>2012-07-28T23:03:39Z</time>
<speed>0.240000</speed>
<extensions>
<speed>0.2</speed>
<temp>0.00</temp>
<bpm>0</bpm>
<rpm>0.00</rpm>
</extensions>
</trkpt>
<trkpt lat="64.146286011" lon="-21.930707932">
<ele>56.136719</ele>
<time>2012-07-28T23:03:59Z</time>
<speed>0.090000</speed>
<extensions>
<speed>0.1</speed>
<temp>0.00</temp>
<bpm>0</bpm>
<rpm>0.00</rpm>
</extensions>
</trkpt>
<trkpt lat="64.146270752" lon="-21.930706024">
<ele>56.583008</ele>
<time>2012-07-28T23:04:04Z</time>
<speed>0.120000</speed>
<extensions>
<speed>0.1</speed>
<temp>0.00</temp>
<bpm>0</bpm>
<rpm>0.00</rpm>
</extensions>
</trkpt>
<trkpt lat="64.146263123" lon="-21.930702209">
<ele>56.625000</ele>
<time>2012-07-28T23:04:09Z</time>
<speed>0.060000</speed>
<extensions>
<speed>0.1</speed>
<temp>0.00</temp>
<bpm>0</bpm>
<rpm>0.00</rpm>
</extensions>
</trkpt>
<trkpt lat="64.146270752" lon="-21.930692673">
<ele>56.575195</ele>
<time>2012-07-28T23:04:14Z</time>
<speed>0.240000</speed>
<extensions>
<speed>0.2</speed>
<temp>0.00</temp>
<bpm>0</bpm>
<rpm>0.00</rpm>
</extensions>
</trkpt>
<trkpt lat="64.146293640" lon="-21.930717468">
<ele>58.158203</ele>
<time>2012-07-28T23:04:19Z</time>
<speed>0.330000</speed>
<extensions>
<speed>0.3</speed>
<temp>0.00</temp>
<bpm>0</bpm>
<rpm>0.00</rpm>
</extensions>
</trkpt>
<trkpt lat="64.146301270" lon="-21.930578232">
<ele>53.629883</ele>
<time>2012-07-28T23:04:24Z</time>
<speed>0.310000</speed>
<extensions>
<speed>0.3</speed>
<temp>0.00</temp>
<bpm>0</bpm>
<rpm>0.00</rpm>
</extensions>
</trkpt>
<trkpt lat="64.146263123" lon="-21.930494308">
<ele>47.436523</ele>
<time>2012-07-28T23:04:29Z</time>
<speed>0.170000</speed>
<extensions>
<speed>0.2</speed>
<temp>0.00</temp>
<bpm>0</bpm>
<rpm>0.00</rpm>
</extensions>
</trkpt>
<trkpt lat="64.146270752" lon="-21.930500031">
<ele>47.462891</ele>
<time>2012-07-28T23:04:34Z</time>
<speed>0.550000</speed>
<extensions>
<speed>0.6</speed>
<temp>0.00</temp>
<bpm>0</bpm>
<rpm>0.00</rpm>
</extensions>
</trkpt>
<trkpt lat="64.146415710" lon="-21.930528641">
<ele>41.916016</ele>
<time>2012-07-28T23:04:39Z</time>
<speed>0.410000</speed>
<extensions>
<speed>0.4</speed>
<temp>0.00</temp>
<bpm>0</bpm>
<rpm>0.00</rpm>
</extensions>
</trkpt>
<trkpt lat="64.146499634" lon="-21.930438995">
<ele>43.874023</ele>
<time>2012-07-28T23:04:44Z</time>
<speed>0.400000</speed>
<extensions>
<speed>0.4</speed>
<temp>0.00</temp>
<bpm>0</bpm>
<rpm>0.00</rpm>
</extensions>
</trkpt>
<trkpt lat="64.146545410" lon="-21.930454254">
<ele>44.447266</ele>
<time>2012-07-28T23:04:49Z</time>
<speed>0.230000</speed>
<extensions>
<speed>0.2</speed>
<temp>0.00</temp>
<bpm>0</bpm>
<rpm>0.00</rpm>
</extensions>
</trkpt>
<trkpt lat="64.146568298" lon="-21.930555344">
<ele>43.988281</ele>
<time>2012-07-28T23:04:54Z</time>
<speed>0.380000</speed>
<extensions>
<speed>0.4</speed>
<temp>0.00</temp>
<bpm>0</bpm>
<rpm>0.00</rpm>
</extensions>
</trkpt>
<trkpt lat="64.146583557" lon="-21.930624008">
<ele>44.443359</ele>
<time>2012-07-28T23:04:59Z</time>
<speed>0.450000</speed>
<extensions>
<speed>0.5</speed>
<temp>0.00</temp>
<bpm>0</bpm>
<rpm>0.00</rpm>
</extensions>
</trkpt>
<trkpt lat="64.146591187" lon="-21.930650711">
<ele>44.764648</ele>
<time>2012-07-28T23:05:04Z</time>
<speed>0.100000</speed>
<extensions>
<speed>0.1</speed>
<temp>0.00</temp>
<bpm>0</bpm>
<rpm>0.00</rpm>
</extensions>
</trkpt>
<trkpt lat="64.146591187" lon="-21.930664063">
<ele>44.684570</ele>
<time>2012-07-28T23:05:09Z</time>
<speed>0.140000</speed>
<extensions>
<speed>0.1</speed>
<temp>0.00</temp>
<bpm>0</bpm>
<rpm>0.00</rpm>
</extensions>
</trkpt>
<trkpt lat="64.146591187" lon="-21.930679321">
<ele>44.649414</ele>
<time>2012-07-28T23:05:14Z</time>
<speed>0.260000</speed>
<extensions>
<speed>0.3</speed>
<temp>0.00</temp>
<bpm>0</bpm>
<rpm>0.00</rpm>
</extensions>
</trkpt>
<trkpt lat="64.146568298" lon="-21.930744171">
<ele>45.128906</ele>
<time>2012-07-28T23:05:19Z</time>
<speed>0.380000</speed>
<extensions>
<speed>0.4</speed>
<temp>0.00</temp>
<bpm>0</bpm>
<rpm>0.00</rpm>
</extensions>
</trkpt>
<trkpt lat="64.146507263" lon="-21.930856705">
<ele>48.630859</ele>
<time>2012-07-28T23:05:24Z</time>
<speed>0.510000</speed>
<extensions>
<speed>0.5</speed>
<temp>0.00</temp>
<bpm>0</bpm>
<rpm>0.00</rpm>
</extensions>
</trkpt>
<trkpt lat="64.146499634" lon="-21.930761337">
<ele>53.507813</ele>
<time>2012-07-28T23:05:29Z</time>
<speed>0.420000</speed>
<extensions>
<speed>0.4</speed>
<temp>0.00</temp>
<bpm>0</bpm>
<rpm>0.00</rpm>
</extensions>
</trkpt>
<trkpt lat="64.146530151" lon="-21.930723190">
<ele>55.783203</ele>
<time>2012-07-28T23:05:34Z</time>
<speed>0.290000</speed>
<extensions>
<speed>0.3</speed>
<temp>0.00</temp>
<bpm>0</bpm>
<rpm>0.00</rpm>
</extensions>
</trkpt>
<trkpt lat="64.146545410" lon="-21.930704117">
<ele>57.483398</ele>
<time>2012-07-28T23:05:39Z</time>
<speed>0.150000</speed>
<extensions>
<speed>0.2</speed>
<temp>0.00</temp>
<bpm>0</bpm>
<rpm>0.00</rpm>
</extensions>
</trkpt>
<trkpt lat="64.146545410" lon="-21.930713654">
<ele>57.905273</ele>
<time>2012-07-28T23:05:44Z</time>
<speed>0.120000</speed>
<extensions>
<speed>0.1</speed>
<temp>0.00</temp>
<bpm>0</bpm>
<rpm>0.00</rpm>
</extensions>
</trkpt>
<trkpt lat="64.146553040" lon="-21.930723190">
<ele>58.325195</ele>
<time>2012-07-28T23:05:49Z</time>
<speed>0.110000</speed>
<extensions>
<speed>0.1</speed>
<temp>0.00</temp>
<bpm>0</bpm>
<rpm>0.00</rpm>
</extensions>
</trkpt>
<trkpt lat="64.146553040" lon="-21.930730820">
<ele>58.688477</ele>
<time>2012-07-28T23:05:54Z</time>
<speed>0.050000</speed>
<extensions>
<speed>0.1</speed>
<temp>0.00</temp>
<bpm>0</bpm>
<rpm>0.00</rpm>
</extensions>
</trkpt>
<trkpt lat="64.146553040" lon="-21.930732727">
<ele>59.048828</ele>
<time>2012-07-28T23:05:59Z</time>
<speed>0.050000</speed>
<extensions>
<speed>0.1</speed>
<temp>0.00</temp>
<bpm>0</bpm>
<rpm>0.00</rpm>
</extensions>
</trkpt>
<trkpt lat="64.146545410" lon="-21.930734634">
<ele>59.376953</ele>
<time>2012-07-28T23:06:04Z</time>
<speed>0.030000</speed>
<extensions>
<speed>0.0</speed>
<temp>0.00</temp>
<bpm>0</bpm>
<rpm>0.00</rpm>
</extensions>
</trkpt>
<trkpt lat="64.146545410" lon="-21.930732727">
<ele>59.649414</ele>
<time>2012-07-28T23:06:09Z</time>
<speed>0.100000</speed>
<extensions>
<speed>0.1</speed>
<temp>0.00</temp>
<bpm>0</bpm>
<rpm>0.00</rpm>
</extensions>
</trkpt>
<trkpt lat="64.146545410" lon="-21.930727005">
<ele>59.862305</ele>
<time>2012-07-28T23:06:14Z</time>
<speed>0.060000</speed>
<extensions>
<speed>0.1</speed>
<temp>0.00</temp>
<bpm>0</bpm>
<rpm>0.00</rpm>
</extensions>
</trkpt>
<trkpt lat="64.146537781" lon="-21.930725098">
<ele>60.023438</ele>
<time>2012-07-28T23:06:19Z</time>
<speed>0.050000</speed>
<extensions>
<speed>0.1</speed>
<temp>0.00</temp>
<bpm>0</bpm>
<rpm>0.00</rpm>
</extensions>
</trkpt>
<trkpt lat="64.146537781" lon="-21.930719376">
<ele>60.125977</ele>
<time>2012-07-28T23:06:24Z</time>
<speed>0.060000</speed>
<extensions>
<speed>0.1</speed>
<temp>0.00</temp>
<bpm>0</bpm>
<rpm>0.00</rpm>
</extensions>
</trkpt>
<trkpt lat="64.146537781" lon="-21.930709839">
<ele>60.122070</ele>
<time>2012-07-28T23:06:29Z</time>
<speed>0.130000</speed>
<extensions>
<speed>0.1</speed>
<temp>0.00</temp>
<bpm>0</bpm>
<rpm>0.00</rpm>
</extensions>
</trkpt>
<trkpt lat="64.146530151" lon="-21.930711746">
<ele>59.375000</ele>
<time>2012-07-28T23:06:34Z</time>
<speed>0.370000</speed>
<extensions>
<speed>0.4</speed>
<temp>0.00</temp>
<bpm>0</bpm>
<rpm>0.00</rpm>
</extensions>
</trkpt>
<trkpt lat="64.146499634" lon="-21.930711746">
<ele>58.095703</ele>
<time>2012-07-28T23:06:39Z</time>
<speed>0.440000</speed>
<extensions>
<speed>0.4</speed>
<temp>0.00</temp>
<bpm>0</bpm>
<rpm>0.00</rpm>
</extensions>
</trkpt>
<trkpt lat="64.146476746" lon="-21.930696487">
<ele>56.583008</ele>
<time>2012-07-28T23:06:44Z</time>
<speed>0.320000</speed>
<extensions>
<speed>0.3</speed>
<temp>0.00</temp>
<bpm>0</bpm>
<rpm>0.00</rpm>
</extensions>
</trkpt>
<trkpt lat="64.146453857" lon="-21.930721283">
<ele>56.039063</ele>
<time>2012-07-28T23:06:49Z</time>
<speed>0.320000</speed>
<extensions>
<speed>0.3</speed>
<temp>0.00</temp>
<bpm>0</bpm>
<rpm>0.00</rpm>
</extensions>
</trkpt>
<trkpt lat="64.146430969" lon="-21.930784225">
<ele>55.096680</ele>
<time>2012-07-28T23:06:54Z</time>
<speed>0.320000</speed>
<extensions>
<speed>0.3</speed>
<temp>0.00</temp>
<bpm>0</bpm>
<rpm>0.00</rpm>
</extensions>
</trkpt>
<trkpt lat="64.146415710" lon="-21.930801392">
<ele>54.452148</ele>
<time>2012-07-28T23:06:59Z</time>
<speed>0.310000</speed>
<extensions>
<speed>0.3</speed>
<temp>0.00</temp>
<bpm>0</bpm>
<rpm>0.00</rpm>
</extensions>
</trkpt>
<trkpt lat="64.146408081" lon="-21.930788040">
<ele>53.890625</ele>
<time>2012-07-28T23:07:04Z</time>
<speed>0.280000</speed>
<extensions>
<speed>0.3</speed>
<temp>0.00</temp>
<bpm>0</bpm>
<rpm>0.00</rpm>
</extensions>
</trkpt>
<trkpt lat="64.146392822" lon="-21.930774689">
<ele>53.318359</ele>
<time>2012-07-28T23:07:09Z</time>
<speed>0.290000</speed>
<extensions>
<speed>0.3</speed>
<temp>0.00</temp>
<bpm>0</bpm>
<rpm>0.00</rpm>
</extensions>
</trkpt>
<trkpt lat="64.145980835" lon="-21.931165695">
<ele>58.384766</ele>
<time>2012-07-28T23:12:41Z</time>
<speed>0.580000</speed>
<extensions>
<speed>0.6</speed>
<temp>0.00</temp>
<bpm>0</bpm>
<rpm>0.00</rpm>
</extensions>
</trkpt>
<trkpt lat="64.145874023" lon="-21.930736542">
<ele>58.037109</ele>
<time>2012-07-28T23:12:46Z</time>
<speed>0.660000</speed>
<extensions>
<speed>0.7</speed>
<temp>0.00</temp>
<bpm>0</bpm>
<rpm>0.00</rpm>
</extensions>
</trkpt>
<trkpt lat="64.145935059" lon="-21.930494308">
<ele>57.799805</ele>
<time>2012-07-28T23:12:51Z</time>
<speed>0.650000</speed>
<extensions>
<speed>0.6</speed>
<temp>0.00</temp>
<bpm>0</bpm>
<rpm>0.00</rpm>
</extensions>
</trkpt>
<trkpt lat="64.145957947" lon="-21.930349350">
<ele>57.684570</ele>
<time>2012-07-28T23:12:56Z</time>
<speed>0.650000</speed>
<extensions>
<speed>0.6</speed>
<temp>0.00</temp>
<bpm>0</bpm>
<rpm>0.00</rpm>
</extensions>
</trkpt>
<trkpt lat="64.145950317" lon="-21.930101395">
<ele>57.646484</ele>
<time>2012-07-28T23:13:01Z</time>
<speed>0.680000</speed>
<extensions>
<speed>0.7</speed>
<temp>0.00</temp>
<bpm>0</bpm>
<rpm>0.00</rpm>
</extensions>
</trkpt>
<trkpt lat="64.145942688" lon="-21.929887772">
<ele>57.581055</ele>
<time>2012-07-28T23:13:06Z</time>
<speed>0.530000</speed>
<extensions>
<speed>0.5</speed>
<temp>0.00</temp>
<bpm>0</bpm>
<rpm>0.00</rpm>
</extensions>
</trkpt>
<trkpt lat="64.146003723" lon="-21.929735184">
<ele>57.556641</ele>
<time>2012-07-28T23:13:11Z</time>
<speed>0.780000</speed>
<extensions>
<speed>0.8</speed>
<temp>0.00</temp>
<bpm>0</bpm>
<rpm>0.00</rpm>
</extensions>
</trkpt>
<trkpt lat="64.146049500" lon="-21.929611206">
<ele>57.514648</ele>
<time>2012-07-28T23:13:16Z</time>
<speed>0.710000</speed>
<extensions>
<speed>0.7</speed>
<temp>0.00</temp>
<bpm>0</bpm>
<rpm>0.00</rpm>
</extensions>
</trkpt>
<trkpt lat="64.146087646" lon="-21.929595947">
<ele>57.482422</ele>
<time>2012-07-28T23:13:21Z</time>
<speed>0.670000</speed>
<extensions>
<speed>0.7</speed>
<temp>0.00</temp>
<bpm>0</bpm>
<rpm>0.00</rpm>
</extensions>
</trkpt>
<trkpt lat="64.146194458" lon="-21.929506302">
<ele>57.438477</ele>
<time>2012-07-28T23:13:26Z</time>
<speed>0.940000</speed>
<extensions>
<speed>0.9</speed>
<temp>0.00</temp>
<bpm>0</bpm>
<rpm>0.00</rpm>
</extensions>
</trkpt>
<trkpt lat="64.146301270" lon="-21.929542542">
<ele>57.440430</ele>
<time>2012-07-28T23:13:31Z</time>
<speed>1.140000</speed>
<extensions>
<speed>1.1</speed>
<temp>0.00</temp>
<bpm>0</bpm>
<rpm>0.00</rpm>
</extensions>
</trkpt>
<trkpt lat="64.146240234" lon="-21.929567337">
<ele>57.376953</ele>
<time>2012-07-28T23:13:36Z</time>
<speed>0.740000</speed>
<extensions>
<speed>0.7</speed>
<temp>0.00</temp>
<bpm>0</bpm>
<rpm>0.00</rpm>
</extensions>
</trkpt>
<trkpt lat="64.146171570" lon="-21.929605484">
<ele>56.876953</ele>
<time>2012-07-28T23:13:41Z</time>
<speed>0.220000</speed>
<extensions>
<speed>0.2</speed>
<temp>0.00</temp>
<bpm>0</bpm>
<rpm>0.00</rpm>
</extensions>
</trkpt>
<trkpt lat="64.146209717" lon="-21.929504395">
<ele>56.852539</ele>
<time>2012-07-28T23:13:46Z</time>
<speed>0.460000</speed>
<extensions>
<speed>0.5</speed>
<temp>0.00</temp>
<bpm>0</bpm>
<rpm>0.00</rpm>
</extensions>
</trkpt>
<trkpt lat="64.146194458" lon="-21.929533005">
<ele>56.807617</ele>
<time>2012-07-28T23:13:51Z</time>
<speed>0.310000</speed>
<extensions>
<speed>0.3</speed>
<temp>0.00</temp>
<bpm>0</bpm>
<rpm>0.00</rpm>
</extensions>
</trkpt>
<trkpt lat="64.146163940" lon="-21.929618835">
<ele>56.800781</ele>
<time>2012-07-28T23:13:56Z</time>
<speed>0.350000</speed>
<extensions>
<speed>0.3</speed>
<temp>0.00</temp>
<bpm>0</bpm>
<rpm>0.00</rpm>
</extensions>
</trkpt>
<trkpt lat="64.146186829" lon="-21.929716110">
<ele>56.714844</ele>
<time>2012-07-28T23:14:01Z</time>
<speed>0.440000</speed>
<extensions>
<speed>0.4</speed>
<temp>0.00</temp>
<bpm>0</bpm>
<rpm>0.00</rpm>
</extensions>
</trkpt>
<trkpt lat="64.146217346" lon="-21.929723740">
<ele>56.681641</ele>
<time>2012-07-28T23:14:06Z</time>
<speed>0.480000</speed>
<extensions>
<speed>0.5</speed>
<temp>0.00</temp>
<bpm>0</bpm>
<rpm>0.00</rpm>
</extensions>
</trkpt>
<trkpt lat="64.146224976" lon="-21.929784775">
<ele>56.601563</ele>
<time>2012-07-28T23:14:11Z</time>
<speed>0.700000</speed>
<extensions>
<speed>0.7</speed>
<temp>0.00</temp>
<bpm>0</bpm>
<rpm>0.00</rpm>
</extensions>
</trkpt>
<trkpt lat="64.146224976" lon="-21.929872513">
<ele>56.530273</ele>
<time>2012-07-28T23:14:16Z</time>
<speed>0.970000</speed>
<extensions>
<speed>1.0</speed>
<temp>0.00</temp>
<bpm>0</bpm>
<rpm>0.00</rpm>
</extensions>
</trkpt>
<trkpt lat="64.146286011" lon="-21.929859161">
<ele>56.360352</ele>
<time>2012-07-28T23:14:21Z</time>
<speed>0.750000</speed>
<extensions>
<speed>0.8</speed>
<temp>0.00</temp>
<bpm>0</bpm>
<rpm>0.00</rpm>
</extensions>
</trkpt>
<trkpt lat="64.146240234" lon="-21.929943085">
<ele>56.146484</ele>
<time>2012-07-28T23:14:26Z</time>
<speed>0.790000</speed>
<extensions>
<speed>0.8</speed>
<temp>0.00</temp>
<bpm>0</bpm>
<rpm>0.00</rpm>
</extensions>
</trkpt>
<trkpt lat="64.146125793" lon="-21.930112839">
<ele>55.972656</ele>
<time>2012-07-28T23:14:31Z</time>
<speed>1.780000</speed>
<extensions>
<speed>1.8</speed>
<temp>0.00</temp>
<bpm>0</bpm>
<rpm>0.00</rpm>
</extensions>
</trkpt>
<trkpt lat="64.146133423" lon="-21.930379868">
<ele>55.612305</ele>
<time>2012-07-28T23:14:36Z</time>
<speed>2.750000</speed>
<extensions>
<speed>2.7</speed>
<temp>0.00</temp>
<bpm>0</bpm>
<rpm>0.00</rpm>
</extensions>
</trkpt>
<trkpt lat="64.145996094" lon="-21.929716110">
<ele>51.200195</ele>
<time>2012-07-28T23:16:00Z</time>
<speed>1.700000</speed>
<extensions>
<speed>1.7</speed>
<temp>0.00</temp>
<bpm>0</bpm>
<rpm>0.00</rpm>
</extensions>
</trkpt>
<trkpt lat="64.146118164" lon="-21.929746628">
<ele>47.977539</ele>
<time>2012-07-28T23:16:05Z</time>
<speed>1.470000</speed>
<extensions>
<speed>1.5</speed>
<temp>0.00</temp>
<bpm>0</bpm>
<rpm>0.00</rpm>
</extensions>
</trkpt>
<trkpt lat="64.146194458" lon="-21.929901123">
<ele>44.416992</ele>
<time>2012-07-28T23:16:10Z</time>
<speed>0.820000</speed>
<extensions>
<speed>0.8</speed>
<temp>0.00</temp>
<bpm>0</bpm>
<rpm>0.00</rpm>
</extensions>
</trkpt>
<trkpt lat="64.146163940" lon="-21.930047989">
<ele>42.806641</ele>
<time>2012-07-28T23:16:15Z</time>
<speed>1.270000</speed>
<extensions>
<speed>1.3</speed>
<temp>0.00</temp>
<bpm>0</bpm>
<rpm>0.00</rpm>
</extensions>
</trkpt>
<trkpt lat="64.146224976" lon="-21.930124283">
<ele>41.925781</ele>
<time>2012-07-28T23:16:20Z</time>
<speed>2.510000</speed>
<extensions>
<speed>2.5</speed>
<temp>0.00</temp>
<bpm>0</bpm>
<rpm>0.00</rpm>
</extensions>
</trkpt>
<trkpt lat="64.146286011" lon="-21.930097580">
<ele>41.996094</ele>
<time>2012-07-28T23:16:25Z</time>
<speed>1.780000</speed>
<extensions>
<speed>1.8</speed>
<temp>0.00</temp>
<bpm>0</bpm>
<rpm>0.00</rpm>
</extensions>
</trkpt>
<trkpt lat="64.146339417" lon="-21.930015564">
<ele>42.286133</ele>
<time>2012-07-28T23:16:30Z</time>
<speed>1.060000</speed>
<extensions>
<speed>1.1</speed>
<temp>0.00</temp>
<bpm>0</bpm>
<rpm>0.00</rpm>
</extensions>
</trkpt>
<trkpt lat="64.146339417" lon="-21.930019379">
<ele>40.676758</ele>
<time>2012-07-28T23:16:35Z</time>
<speed>1.160000</speed>
<extensions>
<speed>1.2</speed>
<temp>0.00</temp>
<bpm>0</bpm>
<rpm>0.00</rpm>
</extensions>
</trkpt>
<trkpt lat="64.146301270" lon="-21.930128098">
<ele>38.575195</ele>
<time>2012-07-28T23:16:40Z</time>
<speed>0.890000</speed>
<extensions>
<speed>0.9</speed>
<temp>0.00</temp>
<bpm>0</bpm>
<rpm>0.00</rpm>
</extensions>
</trkpt>
<trkpt lat="64.146331787" lon="-21.930107117">
<ele>37.022461</ele>
<time>2012-07-28T23:16:45Z</time>
<speed>1.660000</speed>
<extensions>
<speed>1.7</speed>
<temp>0.00</temp>
<bpm>0</bpm>
<rpm>0.00</rpm>
</extensions>
</trkpt>
<trkpt lat="64.146293640" lon="-21.930097580">
<ele>34.874023</ele>
<time>2012-07-28T23:16:50Z</time>
<speed>1.160000</speed>
<extensions>
<speed>1.2</speed>
<temp>0.00</temp>
<bpm>0</bpm>
<rpm>0.00</rpm>
</extensions>
</trkpt>
<trkpt lat="64.146301270" lon="-21.930118561">
<ele>32.889648</ele>
<time>2012-07-28T23:16:55Z</time>
<speed>1.190000</speed>
<extensions>
<speed>1.2</speed>
<temp>0.00</temp>
<bpm>0</bpm>
<rpm>0.00</rpm>
</extensions>
</trkpt>
<trkpt lat="64.146308899" lon="-21.930278778">
<ele>31.299316</ele>
<time>2012-07-28T23:17:00Z</time>
<speed>1.160000</speed>
<extensions>
<speed>1.2</speed>
<temp>0.00</temp>
<bpm>0</bpm>
<rpm>0.00</rpm>
</extensions>
</trkpt>
<trkpt lat="64.146316528" lon="-21.930421829">
<ele>29.215820</ele>
<time>2012-07-28T23:17:05Z</time>
<speed>1.650000</speed>
<extensions>
<speed>1.7</speed>
<temp>0.00</temp>
<bpm>0</bpm>
<rpm>0.00</rpm>
</extensions>
</trkpt>
<trkpt lat="64.146392822" lon="-21.930467606">
<ele>27.774902</ele>
<time>2012-07-28T23:17:10Z</time>
<speed>1.530000</speed>
<extensions>
<speed>1.5</speed>
<temp>0.00</temp>
<bpm>0</bpm>
<rpm>0.00</rpm>
</extensions>
</trkpt>
<trkpt lat="64.146362305" lon="-21.930421829">
<ele>25.998535</ele>
<time>2012-07-28T23:17:15Z</time>
<speed>1.940000</speed>
<extensions>
<speed>1.9</speed>
<temp>0.00</temp>
<bpm>0</bpm>
<rpm>0.00</rpm>
</extensions>
</trkpt>
<trkpt lat="64.146354675" lon="-21.930242538">
<ele>23.161621</ele>
<time>2012-07-28T23:17:20Z</time>
<speed>1.380000</speed>
<extensions>
<speed>1.4</speed>
<temp>0.00</temp>
<bpm>0</bpm>
<rpm>0.00</rpm>
</extensions>
</trkpt>
<trkpt lat="64.146400452" lon="-21.930217743">
<ele>17.561035</ele>
<time>2012-07-28T23:17:25Z</time>
<speed>1.840000</speed>
<extensions>
<speed>1.8</speed>
<temp>0.00</temp>
<bpm>0</bpm>
<rpm>0.00</rpm>
</extensions>
</trkpt>
<trkpt lat="64.146400452" lon="-21.930215836">
<ele>11.093506</ele>
<time>2012-07-28T23:17:30Z</time>
<speed>1.590000</speed>
<extensions>
<speed>1.6</speed>
<temp>0.00</temp>
<bpm>0</bpm>
<rpm>0.00</rpm>
</extensions>
</trkpt>
<trkpt lat="64.146438599" lon="-21.930263519">
<ele>5.088623</ele>
<time>2012-07-28T23:17:35Z</time>
<speed>1.620000</speed>
<extensions>
<speed>1.6</speed>
<temp>0.00</temp>
<bpm>0</bpm>
<rpm>0.00</rpm>
</extensions>
</trkpt>
<trkpt lat="64.146476746" lon="-21.930431366">
<ele>-0.369125</ele>
<time>2012-07-28T23:17:40Z</time>
<speed>1.690000</speed>
<extensions>
<speed>1.7</speed>
<temp>0.00</temp>
<bpm>0</bpm>
<rpm>0.00</rpm>
</extensions>
</trkpt>
<trkpt lat="64.146476746" lon="-21.930553436">
<ele>-5.970581</ele>
<time>2012-07-28T23:17:45Z</time>
<speed>1.570000</speed>
<extensions>
<speed>1.6</speed>
<temp>0.00</temp>
<bpm>0</bpm>
<rpm>0.00</rpm>
</extensions>
</trkpt>
<trkpt lat="64.146530151" lon="-21.930629730">
<ele>-10.711182</ele>
<time>2012-07-28T23:17:50Z</time>
<speed>2.390000</speed>
<extensions>
<speed>2.4</speed>
<temp>0.00</temp>
<bpm>0</bpm>
<rpm>0.00</rpm>
</extensions>
</trkpt>
<trkpt lat="64.146652222" lon="-21.930709839">
<ele>-15.981201</ele>
<time>2012-07-28T23:17:55Z</time>
<speed>3.670000</speed>
<extensions>
<speed>3.7</speed>
<temp>0.00</temp>
<bpm>0</bpm>
<rpm>0.00</rpm>
</extensions>
</trkpt>
<trkpt lat="64.146675110" lon="-21.930810928">
<ele>-21.997070</ele>
<time>2012-07-28T23:18:00Z</time>
<speed>1.850000</speed>
<extensions>
<speed>1.8</speed>
<temp>0.00</temp>
<bpm>0</bpm>
<rpm>0.00</rpm>
</extensions>
</trkpt>
<trkpt lat="64.146705627" lon="-21.930843353">
<ele>-25.344727</ele>
<time>2012-07-28T23:18:05Z</time>
<speed>1.830000</speed>
<extensions>
<speed>1.8</speed>
<temp>0.00</temp>
<bpm>0</bpm>
<rpm>0.00</rpm>
</extensions>
</trkpt>
<trkpt lat="64.146743774" lon="-21.930751801">
<ele>-23.779785</ele>
<time>2012-07-28T23:18:10Z</time>
<speed>2.220000</speed>
<extensions>
<speed>2.2</speed>
<temp>0.00</temp>
<bpm>0</bpm>
<rpm>0.00</rpm>
</extensions>
</trkpt>
<trkpt lat="64.146804810" lon="-21.930599213">
<ele>-13.057129</ele>
<time>2012-07-28T23:18:15Z</time>
<speed>1.380000</speed>
<extensions>
<speed>1.4</speed>
<temp>0.00</temp>
<bpm>0</bpm>
<rpm>0.00</rpm>
</extensions>
</trkpt>
<trkpt lat="64.146789551" lon="-21.930433273">
<ele>-4.887085</ele>
<time>2012-07-28T23:18:20Z</time>
<speed>1.600000</speed>
<extensions>
<speed>1.6</speed>
<temp>0.00</temp>
<bpm>0</bpm>
<rpm>0.00</rpm>
</extensions>
</trkpt>
<trkpt lat="64.146743774" lon="-21.930366516">
<ele>4.065552</ele>
<time>2012-07-28T23:18:25Z</time>
<speed>0.670000</speed>
<extensions>
<speed>0.7</speed>
<temp>0.00</temp>
<bpm>0</bpm>
<rpm>0.00</rpm>
</extensions>
</trkpt>
<trkpt lat="64.146720886" lon="-21.930301666">
<ele>7.233521</ele>
<time>2012-07-28T23:18:30Z</time>
<speed>0.700000</speed>
<extensions>
<speed>0.7</speed>
<temp>0.00</temp>
<bpm>0</bpm>
<rpm>0.00</rpm>
</extensions>
</trkpt>
<trkpt lat="64.146659851" lon="-21.930303574">
<ele>9.131592</ele>
<time>2012-07-28T23:18:35Z</time>
<speed>0.590000</speed>
<extensions>
<speed>0.6</speed>
<temp>0.00</temp>
<bpm>0</bpm>
<rpm>0.00</rpm>
</extensions>
</trkpt>
<trkpt lat="64.146575928" lon="-21.930315018">
<ele>10.944824</ele>
<time>2012-07-28T23:18:40Z</time>
<speed>0.620000</speed>
<extensions>
<speed>0.6</speed>
<temp>0.00</temp>
<bpm>0</bpm>
<rpm>0.00</rpm>
</extensions>
</trkpt>
<trkpt lat="64.146484375" lon="-21.930429459">
<ele>11.432373</ele>
<time>2012-07-28T23:18:45Z</time>
<speed>0.600000</speed>
<extensions>
<speed>0.6</speed>
<temp>0.00</temp>
<bpm>0</bpm>
<rpm>0.00</rpm>
</extensions>
</trkpt>
<trkpt lat="64.146324158" lon="-21.930402756">
<ele>15.480225</ele>
<time>2012-07-28T23:18:50Z</time>
<speed>0.700000</speed>
<extensions>
<speed>0.7</speed>
<temp>0.00</temp>
<bpm>0</bpm>
<rpm>0.00</rpm>
</extensions>
</trkpt>
<trkpt lat="64.146148682" lon="-21.930343628">
<ele>20.867188</ele>
<time>2012-07-28T23:18:55Z</time>
<speed>0.970000</speed>
<extensions>
<speed>1.0</speed>
<temp>0.00</temp>
<bpm>0</bpm>
<rpm>0.00</rpm>
</extensions>
</trkpt>
<trkpt lat="64.146125793" lon="-21.930315018">
<ele>22.550293</ele>
<time>2012-07-28T23:19:00Z</time>
<speed>0.840000</speed>
<extensions>
<speed>0.8</speed>
<temp>0.00</temp>
<bpm>0</bpm>
<rpm>0.00</rpm>
</extensions>
</trkpt>
<trkpt lat="64.146163940" lon="-21.930343628">
<ele>23.609375</ele>
<time>2012-07-28T23:19:05Z</time>
<speed>1.940000</speed>
<extensions>
<speed>1.9</speed>
<temp>0.00</temp>
<bpm>0</bpm>
<rpm>0.00</rpm>
</extensions>
</trkpt>
<trkpt lat="64.146209717" lon="-21.930301666">
<ele>24.073242</ele>
<time>2012-07-28T23:19:10Z</time>
<speed>0.640000</speed>
<extensions>
<speed>0.6</speed>
<temp>0.00</temp>
<bpm>0</bpm>
<rpm>0.00</rpm>
</extensions>
</trkpt>
<trkpt lat="64.146247864" lon="-21.930299759">
<ele>23.655762</ele>
<time>2012-07-28T23:19:15Z</time>
<speed>0.790000</speed>
<extensions>
<speed>0.8</speed>
<temp>0.00</temp>
<bpm>0</bpm>
<rpm>0.00</rpm>
</extensions>
</trkpt>
<trkpt lat="64.146270752" lon="-21.930301666">
<ele>23.188965</ele>
<time>2012-07-28T23:19:20Z</time>
<speed>1.070000</speed>
<extensions>
<speed>1.1</speed>
<temp>0.00</temp>
<bpm>0</bpm>
<rpm>0.00</rpm>
</extensions>
</trkpt>
<trkpt lat="64.146286011" lon="-21.930355072">
<ele>22.805664</ele>
<time>2012-07-28T23:19:25Z</time>
<speed>0.930000</speed>
<extensions>
<speed>0.9</speed>
<temp>0.00</temp>
<bpm>0</bpm>
<rpm>0.00</rpm>
</extensions>
</trkpt>
<trkpt lat="64.146308899" lon="-21.930353165">
<ele>21.929688</ele>
<time>2012-07-28T23:19:30Z</time>
<speed>0.510000</speed>
<extensions>
<speed>0.5</speed>
<temp>0.00</temp>
<bpm>0</bpm>
<rpm>0.00</rpm>
</extensions>
</trkpt>
<trkpt lat="64.146301270" lon="-21.930429459">
<ele>21.044434</ele>
<time>2012-07-28T23:19:35Z</time>
<speed>0.800000</speed>
<extensions>
<speed>0.8</speed>
<temp>0.00</temp>
<bpm>0</bpm>
<rpm>0.00</rpm>
</extensions>
</trkpt>
<trkpt lat="64.146308899" lon="-21.930456161">
<ele>19.769043</ele>
<time>2012-07-28T23:19:40Z</time>
<speed>0.760000</speed>
<extensions>
<speed>0.8</speed>
<temp>0.00</temp>
<bpm>0</bpm>
<rpm>0.00</rpm>
</extensions>
</trkpt>
<trkpt lat="64.146278381" lon="-21.930562973">
<ele>18.719727</ele>
<time>2012-07-28T23:19:45Z</time>
<speed>1.130000</speed>
<extensions>
<speed>1.1</speed>
<temp>0.00</temp>
<bpm>0</bpm>
<rpm>0.00</rpm>
</extensions>
</trkpt>
<trkpt lat="64.146286011" lon="-21.930604935">
<ele>17.567383</ele>
<time>2012-07-28T23:19:50Z</time>
<speed>1.080000</speed>
<extensions>
<speed>1.1</speed>
<temp>0.00</temp>
<bpm>0</bpm>
<rpm>0.00</rpm>
</extensions>
</trkpt>
<trkpt lat="64.146316528" lon="-21.930566788">
<ele>15.888428</ele>
<time>2012-07-28T23:19:55Z</time>
<speed>0.900000</speed>
<extensions>
<speed>0.9</speed>
<temp>0.00</temp>
<bpm>0</bpm>
<rpm>0.00</rpm>
</extensions>
</trkpt>
<trkpt lat="64.146270752" lon="-21.930624008">
<ele>14.244385</ele>
<time>2012-07-28T23:20:00Z</time>
<speed>1.610000</speed>
<extensions>
<speed>1.6</speed>
<temp>0.00</temp>
<bpm>0</bpm>
<rpm>0.00</rpm>
</extensions>
</trkpt>
<trkpt lat="64.146156311" lon="-21.930776596">
<ele>12.475586</ele>
<time>2012-07-28T23:20:05Z</time>
<speed>2.420000</speed>
<extensions>
<speed>2.4</speed>
<temp>0.00</temp>
<bpm>0</bpm>
<rpm>0.00</rpm>
</extensions>
</trkpt>
<trkpt lat="64.146194458" lon="-21.930780411">
<ele>10.762939</ele>
<time>2012-07-28T23:20:10Z</time>
<speed>0.990000</speed>
<extensions>
<speed>1.0</speed>
<temp>0.00</temp>
<bpm>0</bpm>
<rpm>0.00</rpm>
</extensions>
</trkpt>
<trkpt lat="64.146202087" lon="-21.930816650">
<ele>9.103271</ele>
<time>2012-07-28T23:20:15Z</time>
<speed>0.900000</speed>
<extensions>
<speed>0.9</speed>
<temp>0.00</temp>
<bpm>0</bpm>
<rpm>0.00</rpm>
</extensions>
</trkpt>
<trkpt lat="64.146232605" lon="-21.930797577">
<ele>7.144165</ele>
<time>2012-07-28T23:20:20Z</time>
<speed>1.430000</speed>
<extensions>
<speed>1.4</speed>
<temp>0.00</temp>
<bpm>0</bpm>
<rpm>0.00</rpm>
</extensions>
</trkpt>
<trkpt lat="64.146240234" lon="-21.930788040">
<ele>5.083862</ele>
<time>2012-07-28T23:20:25Z</time>
<speed>0.840000</speed>
<extensions>
<speed>0.8</speed>
<temp>0.00</temp>
<bpm>0</bpm>
<rpm>0.00</rpm>
</extensions>
</trkpt>
<trkpt lat="64.146308899" lon="-21.930707932">
<ele>2.526855</ele>
<time>2012-07-28T23:20:30Z</time>
<speed>1.480000</speed>
<extensions>
<speed>1.5</speed>
<temp>0.00</temp>
<bpm>0</bpm>
<rpm>0.00</rpm>
</extensions>
</trkpt>
<trkpt lat="64.146430969" lon="-21.930572510">
<ele>0.256844</ele>
<time>2012-07-28T23:20:35Z</time>
<speed>1.700000</speed>
<extensions>
<speed>1.7</speed>
<temp>0.00</temp>
<bpm>0</bpm>
<rpm>0.00</rpm>
</extensions>
</trkpt>
<trkpt lat="64.146514893" lon="-21.930665970">
<ele>-2.139343</ele>
<time>2012-07-28T23:20:40Z</time>
<speed>0.960000</speed>
<extensions>
<speed>1.0</speed>
<temp>0.00</temp>
<bpm>0</bpm>
<rpm>0.00</rpm>
</extensions>
</trkpt>
<trkpt lat="64.146583557" lon="-21.930704117">
<ele>-4.812256</ele>
<time>2012-07-28T23:20:45Z</time>
<speed>0.670000</speed>
<extensions>
<speed>0.7</speed>
<temp>0.00</temp>
<bpm>0</bpm>
<rpm>0.00</rpm>
</extensions>
</trkpt>
<trkpt lat="64.146659851" lon="-21.930704117">
<ele>-8.028320</ele>
<time>2012-07-28T23:20:50Z</time>
<speed>1.050000</speed>
<extensions>
<speed>1.0</speed>
<temp>0.00</temp>
<bpm>0</bpm>
<rpm>0.00</rpm>
</extensions>
</trkpt>
<trkpt lat="64.146675110" lon="-21.930706024">
<ele>-11.753174</ele>
<time>2012-07-28T23:20:55Z</time>
<speed>0.860000</speed>
<extensions>
<speed>0.9</speed>
<temp>0.00</temp>
<bpm>0</bpm>
<rpm>0.00</rpm>
</extensions>
</trkpt>
<trkpt lat="64.146789551" lon="-21.930675507">
<ele>-15.760498</ele>
<time>2012-07-28T23:21:00Z</time>
<speed>1.760000</speed>
<extensions>
<speed>1.8</speed>
<temp>0.00</temp>
<bpm>0</bpm>
<rpm>0.00</rpm>
</extensions>
</trkpt>
<trkpt lat="64.146781921" lon="-21.930755615">
<ele>-19.127930</ele>
<time>2012-07-28T23:21:05Z</time>
<speed>0.660000</speed>
<extensions>
<speed>0.7</speed>
<temp>0.00</temp>
<bpm>0</bpm>
<rpm>0.00</rpm>
</extensions>
</trkpt>
<trkpt lat="64.146812439" lon="-21.930694580">
<ele>-21.506836</ele>
<time>2012-07-28T23:21:10Z</time>
<speed>1.700000</speed>
<extensions>
<speed>1.7</speed>
<temp>0.00</temp>
<bpm>0</bpm>
<rpm>0.00</rpm>
</extensions>
</trkpt>
<trkpt lat="64.146789551" lon="-21.930721283">
<ele>-23.592773</ele>
<time>2012-07-28T23:21:15Z</time>
<speed>0.550000</speed>
<extensions>
<speed>0.6</speed>
<temp>0.00</temp>
<bpm>0</bpm>
<rpm>0.00</rpm>
</extensions>
</trkpt>
<trkpt lat="64.146774292" lon="-21.930860519">
<ele>-25.159668</ele>
<time>2012-07-28T23:21:20Z</time>
<speed>1.410000</speed>
<extensions>
<speed>1.4</speed>
<temp>0.00</temp>
<bpm>0</bpm>
<rpm>0.00</rpm>
</extensions>
</trkpt>
<trkpt lat="64.146781921" lon="-21.930885315">
<ele>-26.912109</ele>
<time>2012-07-28T23:21:25Z</time>
<speed>1.100000</speed>
<extensions>
<speed>1.1</speed>
<temp>0.00</temp>
<bpm>0</bpm>
<rpm>0.00</rpm>
</extensions>
</trkpt>
<trkpt lat="64.146751404" lon="-21.930812836">
<ele>-28.450195</ele>
<time>2012-07-28T23:21:30Z</time>
<speed>1.390000</speed>
<extensions>
<speed>1.4</speed>
<temp>0.00</temp>
<bpm>0</bpm>
<rpm>0.00</rpm>
</extensions>
</trkpt>
<trkpt lat="64.146797180" lon="-21.930824280">
<ele>-29.542480</ele>
<time>2012-07-28T23:21:35Z</time>
<speed>0.990000</speed>
<extensions>
<speed>1.0</speed>
<temp>0.00</temp>
<bpm>0</bpm>
<rpm>0.00</rpm>
</extensions>
</trkpt>
<trkpt lat="64.146820068" lon="-21.930841446">
<ele>-30.480957</ele>
<time>2012-07-28T23:21:40Z</time>
<speed>1.340000</speed>
<extensions>
<speed>1.3</speed>
<temp>0.00</temp>
<bpm>0</bpm>
<rpm>0.00</rpm>
</extensions>
</trkpt>
<trkpt lat="64.146881104" lon="-21.930835724">
<ele>-31.095703</ele>
<time>2012-07-28T23:21:45Z</time>
<speed>1.430000</speed>
<extensions>
<speed>1.4</speed>
<temp>0.00</temp>
<bpm>0</bpm>
<rpm>0.00</rpm>
</extensions>
</trkpt>
<trkpt lat="64.146888733" lon="-21.930892944">
<ele>-31.828613</ele>
<time>2012-07-28T23:21:50Z</time>
<speed>0.940000</speed>
<extensions>
<speed>0.9</speed>
<temp>0.00</temp>
<bpm>0</bpm>
<rpm>0.00</rpm>
</extensions>
</trkpt>
<trkpt lat="64.146896362" lon="-21.930847168">
<ele>-32.531250</ele>
<time>2012-07-28T23:21:55Z</time>
<speed>0.670000</speed>
<extensions>
<speed>0.7</speed>
<temp>0.00</temp>
<bpm>0</bpm>
<rpm>0.00</rpm>
</extensions>
</trkpt>
<trkpt lat="64.146926880" lon="-21.930805206">
<ele>-32.824219</ele>
<time>2012-07-28T23:22:00Z</time>
<speed>1.450000</speed>
<extensions>
<speed>1.4</speed>
<temp>0.00</temp>
<bpm>0</bpm>
<rpm>0.00</rpm>
</extensions>
</trkpt>
<trkpt lat="64.146903992" lon="-21.930850983">
<ele>-33.082031</ele>
<time>2012-07-28T23:22:05Z</time>
<speed>0.830000</speed>
<extensions>
<speed>0.8</speed>
<temp>0.00</temp>
<bpm>0</bpm>
<rpm>0.00</rpm>
</extensions>
</trkpt>
<trkpt lat="64.146888733" lon="-21.930801392">
<ele>-33.255859</ele>
<time>2012-07-28T23:22:10Z</time>
<speed>1.310000</speed>
<extensions>
<speed>1.3</speed>
<temp>0.00</temp>
<bpm>0</bpm>
<rpm>0.00</rpm>
</extensions>
</trkpt>
<trkpt lat="64.146888733" lon="-21.930778503">
<ele>-33.949219</ele>
<time>2012-07-28T23:22:15Z</time>
<speed>0.440000</speed>
<extensions>
<speed>0.4</speed>
<temp>0.00</temp>
<bpm>0</bpm>
<rpm>0.00</rpm>
</extensions>
</trkpt>
<trkpt lat="64.146919250" lon="-21.930681229">
<ele>-34.053711</ele>
<time>2012-07-28T23:22:20Z</time>
<speed>0.920000</speed>
<extensions>
<speed>0.9</speed>
<temp>0.00</temp>
<bpm>0</bpm>
<rpm>0.00</rpm>
</extensions>
</trkpt>
<trkpt lat="64.146919250" lon="-21.930658340">
<ele>-34.343750</ele>
<time>2012-07-28T23:22:25Z</time>
<speed>0.480000</speed>
<extensions>
<speed>0.5</speed>
<temp>0.00</temp>
<bpm>0</bpm>
<rpm>0.00</rpm>
</extensions>
</trkpt>
<trkpt lat="64.146919250" lon="-21.930625916">
<ele>-34.956055</ele>
<time>2012-07-28T23:22:30Z</time>
<speed>1.010000</speed>
<extensions>
<speed>1.0</speed>
<temp>0.00</temp>
<bpm>0</bpm>
<rpm>0.00</rpm>
</extensions>
</trkpt>
<trkpt lat="64.146881104" lon="-21.930641174">
<ele>-34.747070</ele>
<time>2012-07-28T23:22:35Z</time>
<speed>0.360000</speed>
<extensions>
<speed>0.4</speed>
<temp>0.00</temp>
<bpm>0</bpm>
<rpm>0.00</rpm>
</extensions>
</trkpt>
<trkpt lat="64.146850586" lon="-21.930709839">
<ele>-34.446289</ele>
<time>2012-07-28T23:22:40Z</time>
<speed>0.910000</speed>
<extensions>
<speed>0.9</speed>
<temp>0.00</temp>
<bpm>0</bpm>
<rpm>0.00</rpm>
</extensions>
</trkpt>
<trkpt lat="64.146797180" lon="-21.930824280">
<ele>-34.041992</ele>
<time>2012-07-28T23:22:45Z</time>
<speed>1.680000</speed>
<extensions>
<speed>1.7</speed>
<temp>0.00</temp>
<bpm>0</bpm>
<rpm>0.00</rpm>
</extensions>
</trkpt>
<trkpt lat="64.146789551" lon="-21.930889130">
<ele>-33.219727</ele>
<time>2012-07-28T23:22:50Z</time>
<speed>0.490000</speed>
<extensions>
<speed>0.5</speed>
<temp>0.00</temp>
<bpm>0</bpm>
<rpm>0.00</rpm>
</extensions>
</trkpt>
<trkpt lat="64.146446228" lon="-21.930982590">
<ele>-31.539551</ele>
<time>2012-07-28T23:22:55Z</time>
<speed>1.380000</speed>
<extensions>
<speed>1.4</speed>
<temp>0.00</temp>
<bpm>0</bpm>
<rpm>0.00</rpm>
</extensions>
</trkpt>
<trkpt lat="64.146240234" lon="-21.930927277">
<ele>-31.405762</ele>
<time>2012-07-28T23:23:00Z</time>
<speed>0.410000</speed>
<extensions>
<speed>0.4</speed>
<temp>0.00</temp>
<bpm>0</bpm>
<rpm>0.00</rpm>
</extensions>
</trkpt>
<trkpt lat="64.146163940" lon="-21.930887222">
<ele>-31.396973</ele>
<time>2012-07-28T23:23:05Z</time>
<speed>0.200000</speed>
<extensions>
<speed>0.2</speed>
<temp>0.00</temp>
<bpm>0</bpm>
<rpm>0.00</rpm>
</extensions>
</trkpt>
<trkpt lat="64.146049500" lon="-21.930961609">
<ele>-29.935547</ele>
<time>2012-07-28T23:23:10Z</time>
<speed>0.540000</speed>
<extensions>
<speed>0.5</speed>
<temp>0.00</temp>
<bpm>0</bpm>
<rpm>0.00</rpm>
</extensions>
</trkpt>
<trkpt lat="64.145980835" lon="-21.931077957">
<ele>-28.143555</ele>
<time>2012-07-28T23:23:15Z</time>
<speed>0.490000</speed>
<extensions>
<speed>0.5</speed>
<temp>0.00</temp>
<bpm>0</bpm>
<rpm>0.00</rpm>
</extensions>
</trkpt>
<trkpt lat="64.145988464" lon="-21.930980682">
<ele>-26.028809</ele>
<time>2012-07-28T23:23:20Z</time>
<speed>0.710000</speed>
<extensions>
<speed>0.7</speed>
<temp>0.00</temp>
<bpm>0</bpm>
<rpm>0.00</rpm>
</extensions>
</trkpt>
<trkpt lat="64.145957947" lon="-21.931030273">
<ele>-24.190918</ele>
<time>2012-07-28T23:23:25Z</time>
<speed>0.770000</speed>
<extensions>
<speed>0.8</speed>
<temp>0.00</temp>
<bpm>0</bpm>
<rpm>0.00</rpm>
</extensions>
</trkpt>
<trkpt lat="64.146034241" lon="-21.930881500">
<ele>-21.280273</ele>
<time>2012-07-28T23:23:30Z</time>
<speed>0.320000</speed>
<extensions>
<speed>0.3</speed>
<temp>0.00</temp>
<bpm>0</bpm>
<rpm>0.00</rpm>
</extensions>
</trkpt>
<trkpt lat="64.146064758" lon="-21.930774689">
<ele>-18.633789</ele>
<time>2012-07-28T23:23:35Z</time>
<speed>0.640000</speed>
<extensions>
<speed>0.6</speed>
<temp>0.00</temp>
<bpm>0</bpm>
<rpm>0.00</rpm>
</extensions>
</trkpt>
<trkpt lat="64.146080017" lon="-21.930679321">
<ele>-17.803223</ele>
<time>2012-07-28T23:23:40Z</time>
<speed>0.960000</speed>
<extensions>
<speed>1.0</speed>
<temp>0.00</temp>
<bpm>0</bpm>
<rpm>0.00</rpm>
</extensions>
</trkpt>
<trkpt lat="64.146102905" lon="-21.930593491">
<ele>-16.067383</ele>
<time>2012-07-28T23:23:45Z</time>
<speed>0.700000</speed>
<extensions>
<speed>0.7</speed>
<temp>0.00</temp>
<bpm>0</bpm>
<rpm>0.00</rpm>
</extensions>
</trkpt>
<trkpt lat="64.146087646" lon="-21.930604935">
<ele>-15.393799</ele>
<time>2012-07-28T23:23:50Z</time>
<speed>0.590000</speed>
<extensions>
<speed>0.6</speed>
<temp>0.00</temp>
<bpm>0</bpm>
<rpm>0.00</rpm>
</extensions>
</trkpt>
<trkpt lat="64.146163940" lon="-21.930316925">
<ele>-13.401855</ele>
<time>2012-07-28T23:23:55Z</time>
<speed>2.050000</speed>
<extensions>
<speed>2.1</speed>
<temp>0.00</temp>
<bpm>0</bpm>
<rpm>0.00</rpm>
</extensions>
</trkpt>
<trkpt lat="64.146125793" lon="-21.930513382">
<ele>-11.852295</ele>
<time>2012-07-28T23:24:00Z</time>
<speed>3.020000</speed>
<extensions>
<speed>3.0</speed>
<temp>0.00</temp>
<bpm>0</bpm>
<rpm>0.00</rpm>
</extensions>
</trkpt>
<trkpt lat="64.146095276" lon="-21.930641174">
<ele>-9.270264</ele>
<time>2012-07-28T23:24:05Z</time>
<speed>1.810000</speed>
<extensions>
<speed>1.8</speed>
<temp>0.00</temp>
<bpm>0</bpm>
<rpm>0.00</rpm>
</extensions>
</trkpt>
<trkpt lat="64.146110535" lon="-21.930582047">
<ele>-7.302856</ele>
<time>2012-07-28T23:24:10Z</time>
<speed>0.440000</speed>
<extensions>
<speed>0.4</speed>
<temp>0.00</temp>
<bpm>0</bpm>
<rpm>0.00</rpm>
</extensions>
</trkpt>
<trkpt lat="64.146118164" lon="-21.930582047">
<ele>-4.871704</ele>
<time>2012-07-28T23:24:15Z</time>
<speed>0.900000</speed>
<extensions>
<speed>0.9</speed>
<temp>0.00</temp>
<bpm>0</bpm>
<rpm>0.00</rpm>
</extensions>
</trkpt>
<trkpt lat="64.146148682" lon="-21.930414200">
<ele>-1.014771</ele>
<time>2012-07-28T23:24:20Z</time>
<speed>0.970000</speed>
<extensions>
<speed>1.0</speed>
<temp>0.00</temp>
<bpm>0</bpm>
<rpm>0.00</rpm>
</extensions>
</trkpt>
<trkpt lat="64.146156311" lon="-21.930280685">
<ele>1.600342</ele>
<time>2012-07-28T23:24:25Z</time>
<speed>0.450000</speed>
<extensions>
<speed>0.5</speed>
<temp>0.00</temp>
<bpm>0</bpm>
<rpm>0.00</rpm>
</extensions>
</trkpt>
<trkpt lat="64.146163940" lon="-21.930160522">
<ele>2.382202</ele>
<time>2012-07-28T23:24:30Z</time>
<speed>0.150000</speed>
<extensions>
<speed>0.2</speed>
<temp>0.00</temp>
<bpm>0</bpm>
<rpm>0.00</rpm>
</extensions>
</trkpt>
<trkpt lat="64.146156311" lon="-21.930116653">
<ele>3.842468</ele>
<time>2012-07-28T23:24:35Z</time>
<speed>0.900000</speed>
<extensions>
<speed>0.9</speed>
<temp>0.00</temp>
<bpm>0</bpm>
<rpm>0.00</rpm>
</extensions>
</trkpt>
<trkpt lat="64.146133423" lon="-21.930133820">
<ele>5.565308</ele>
<time>2012-07-28T23:24:40Z</time>
<speed>0.980000</speed>
<extensions>
<speed>1.0</speed>
<temp>0.00</temp>
<bpm>0</bpm>
<rpm>0.00</rpm>
</extensions>
</trkpt>
<trkpt lat="64.146133423" lon="-21.930057526">
<ele>6.918457</ele>
<time>2012-07-28T23:24:45Z</time>
<speed>0.240000</speed>
<extensions>
<speed>0.2</speed>
<temp>0.00</temp>
<bpm>0</bpm>
<rpm>0.00</rpm>
</extensions>
</trkpt>
<trkpt lat="64.146171570" lon="-21.929935455">
<ele>8.757568</ele>
<time>2012-07-28T23:24:50Z</time>
<speed>0.930000</speed>
<extensions>
<speed>0.9</speed>
<temp>0.00</temp>
<bpm>0</bpm>
<rpm>0.00</rpm>
</extensions>
</trkpt>
<trkpt lat="64.146156311" lon="-21.929916382">
<ele>11.144531</ele>
<time>2012-07-28T23:24:55Z</time>
<speed>1.040000</speed>
<extensions>
<speed>1.0</speed>
<temp>0.00</temp>
<bpm>0</bpm>
<rpm>0.00</rpm>
</extensions>
</trkpt>
<trkpt lat="64.146156311" lon="-21.929973602">
<ele>13.488281</ele>
<time>2012-07-28T23:25:00Z</time>
<speed>0.290000</speed>
<extensions>
<speed>0.3</speed>
<temp>0.00</temp>
<bpm>0</bpm>
<rpm>0.00</rpm>
</extensions>
</trkpt>
<trkpt lat="64.146148682" lon="-21.929975510">
<ele>14.752930</ele>
<time>2012-07-28T23:25:05Z</time>
<speed>0.440000</speed>
<extensions>
<speed>0.4</speed>
<temp>0.00</temp>
<bpm>0</bpm>
<rpm>0.00</rpm>
</extensions>
</trkpt>
<trkpt lat="64.146133423" lon="-21.930015564">
<ele>15.898193</ele>
<time>2012-07-28T23:25:10Z</time>
<speed>0.330000</speed>
<extensions>
<speed>0.3</speed>
<temp>0.00</temp>
<bpm>0</bpm>
<rpm>0.00</rpm>
</extensions>
</trkpt>
<trkpt lat="64.146163940" lon="-21.929866791">
<ele>18.100098</ele>
<time>2012-07-28T23:25:15Z</time>
<speed>0.830000</speed>
<extensions>
<speed>0.8</speed>
<temp>0.00</temp>
<bpm>0</bpm>
<rpm>0.00</rpm>
</extensions>
</trkpt>
<trkpt lat="64.146133423" lon="-21.929967880">
<ele>20.284180</ele>
<time>2012-07-28T23:25:20Z</time>
<speed>0.940000</speed>
<extensions>
<speed>0.9</speed>
<temp>0.00</temp>
<bpm>0</bpm>
<rpm>0.00</rpm>
</extensions>
</trkpt>
<trkpt lat="64.146118164" lon="-21.930044174">
<ele>22.179688</ele>
<time>2012-07-28T23:25:25Z</time>
<speed>0.770000</speed>
<extensions>
<speed>0.8</speed>
<temp>0.00</temp>
<bpm>0</bpm>
<rpm>0.00</rpm>
</extensions>
</trkpt>
<trkpt lat="64.146110535" lon="-21.930089951">
<ele>22.691895</ele>
<time>2012-07-28T23:25:30Z</time>
<speed>0.600000</speed>
<extensions>
<speed>0.6</speed>
<temp>0.00</temp>
<bpm>0</bpm>
<rpm>0.00</rpm>
</extensions>
</trkpt>
<trkpt lat="64.146080017" lon="-21.930200577">
<ele>24.572754</ele>
<time>2012-07-28T23:25:35Z</time>
<speed>0.480000</speed>
<extensions>
<speed>0.5</speed>
<temp>0.00</temp>
<bpm>0</bpm>
<rpm>0.00</rpm>
</extensions>
</trkpt>
<trkpt lat="64.146125793" lon="-21.930095673">
<ele>26.488770</ele>
<time>2012-07-28T23:25:40Z</time>
<speed>1.000000</speed>
<extensions>
<speed>1.0</speed>
<temp>0.00</temp>
<bpm>0</bpm>
<rpm>0.00</rpm>
</extensions>
</trkpt>
<trkpt lat="64.146148682" lon="-21.930028915">
<ele>27.809082</ele>
<time>2012-07-28T23:25:45Z</time>
<speed>0.470000</speed>
<extensions>
<speed>0.5</speed>
<temp>0.00</temp>
<bpm>0</bpm>
<rpm>0.00</rpm>
</extensions>
</trkpt>
<trkpt lat="64.146156311" lon="-21.929941177">
<ele>29.439453</ele>
<time>2012-07-28T23:25:50Z</time>
<speed>0.160000</speed>
<extensions>
<speed>0.2</speed>
<temp>0.00</temp>
<bpm>0</bpm>
<rpm>0.00</rpm>
</extensions>
</trkpt>
<trkpt lat="64.146179199" lon="-21.929878235">
<ele>30.677734</ele>
<time>2012-07-28T23:25:55Z</time>
<speed>1.430000</speed>
<extensions>
<speed>1.4</speed>
<temp>0.00</temp>
<bpm>0</bpm>
<rpm>0.00</rpm>
</extensions>
</trkpt>
<trkpt lat="64.146224976" lon="-21.929742813">
<ele>32.421875</ele>
<time>2012-07-28T23:26:00Z</time>
<speed>0.600000</speed>
<extensions>
<speed>0.6</speed>
<temp>0.00</temp>
<bpm>0</bpm>
<rpm>0.00</rpm>
</extensions>
</trkpt>
<trkpt lat="64.146240234" lon="-21.929767609">
<ele>35.108398</ele>
<time>2012-07-28T23:26:05Z</time>
<speed>1.080000</speed>
<extensions>
<speed>1.1</speed>
<temp>0.00</temp>
<bpm>0</bpm>
<rpm>0.00</rpm>
</extensions>
</trkpt>
<trkpt lat="64.146255493" lon="-21.929725647">
<ele>37.666992</ele>
<time>2012-07-28T23:26:10Z</time>
<speed>0.510000</speed>
<extensions>
<speed>0.5</speed>
<temp>0.00</temp>
<bpm>0</bpm>
<rpm>0.00</rpm>
</extensions>
</trkpt>
<trkpt lat="64.146255493" lon="-21.929733276">
<ele>39.550781</ele>
<time>2012-07-28T23:26:15Z</time>
<speed>0.270000</speed>
<extensions>
<speed>0.3</speed>
<temp>0.00</temp>
<bpm>0</bpm>
<rpm>0.00</rpm>
</extensions>
</trkpt>
<trkpt lat="64.146247864" lon="-21.929706573">
<ele>40.606445</ele>
<time>2012-07-28T23:26:20Z</time>
<speed>0.380000</speed>
<extensions>
<speed>0.4</speed>
<temp>0.00</temp>
<bpm>0</bpm>
<rpm>0.00</rpm>
</extensions>
</trkpt>
<trkpt lat="64.146224976" lon="-21.929704666">
<ele>42.409180</ele>
<time>2012-07-28T23:26:25Z</time>
<speed>1.000000</speed>
<extensions>
<speed>1.0</speed>
<temp>0.00</temp>
<bpm>0</bpm>
<rpm>0.00</rpm>
</extensions>
</trkpt>
<trkpt lat="64.146202087" lon="-21.929664612">
<ele>44.356445</ele>
<time>2012-07-28T23:26:30Z</time>
<speed>0.290000</speed>
<extensions>
<speed>0.3</speed>
<temp>0.00</temp>
<bpm>0</bpm>
<rpm>0.00</rpm>
</extensions>
</trkpt>
<trkpt lat="64.146202087" lon="-21.929639816">
<ele>45.736328</ele>
<time>2012-07-28T23:26:35Z</time>
<speed>0.210000</speed>
<extensions>
<speed>0.2</speed>
<temp>0.00</temp>
<bpm>0</bpm>
<rpm>0.00</rpm>
</extensions>
</trkpt>
<trkpt lat="64.146194458" lon="-21.929672241">
<ele>46.127930</ele>
<time>2012-07-28T23:26:40Z</time>
<speed>0.590000</speed>
<extensions>
<speed>0.6</speed>
<temp>0.00</temp>
<bpm>0</bpm>
<rpm>0.00</rpm>
</extensions>
</trkpt>
<trkpt lat="64.146156311" lon="-21.929847717">
<ele>46.695313</ele>
<time>2012-07-28T23:26:45Z</time>
<speed>0.840000</speed>
<extensions>
<speed>0.8</speed>
<temp>0.00</temp>
<bpm>0</bpm>
<rpm>0.00</rpm>
</extensions>
</trkpt>
<trkpt lat="64.146141052" lon="-21.929868698">
<ele>47.631836</ele>
<time>2012-07-28T23:26:50Z</time>
<speed>0.340000</speed>
<extensions>
<speed>0.3</speed>
<temp>0.00</temp>
<bpm>0</bpm>
<rpm>0.00</rpm>
</extensions>
</trkpt>
<trkpt lat="64.146171570" lon="-21.929849625">
<ele>47.308594</ele>
<time>2012-07-28T23:26:55Z</time>
<speed>0.790000</speed>
<extensions>
<speed>0.8</speed>
<temp>0.00</temp>
<bpm>0</bpm>
<rpm>0.00</rpm>
</extensions>
</trkpt>
<trkpt lat="64.146194458" lon="-21.929872513">
<ele>46.169922</ele>
<time>2012-07-28T23:27:00Z</time>
<speed>0.970000</speed>
<extensions>
<speed>1.0</speed>
<temp>0.00</temp>
<bpm>0</bpm>
<rpm>0.00</rpm>
</extensions>
</trkpt>
<trkpt lat="64.146255493" lon="-21.929798126">
<ele>44.954102</ele>
<time>2012-07-28T23:27:05Z</time>
<speed>1.810000</speed>
<extensions>
<speed>1.8</speed>
<temp>0.00</temp>
<bpm>0</bpm>
<rpm>0.00</rpm>
</extensions>
</trkpt>
<trkpt lat="64.146270752" lon="-21.929771423">
<ele>43.171875</ele>
<time>2012-07-28T23:27:10Z</time>
<speed>0.140000</speed>
<extensions>
<speed>0.1</speed>
<temp>0.00</temp>
<bpm>0</bpm>
<rpm>0.00</rpm>
</extensions>
</trkpt>
<trkpt lat="64.146232605" lon="-21.929918289">
<ele>41.884766</ele>
<time>2012-07-28T23:27:15Z</time>
<speed>0.610000</speed>
<extensions>
<speed>0.6</speed>
<temp>0.00</temp>
<bpm>0</bpm>
<rpm>0.00</rpm>
</extensions>
</trkpt>
<trkpt lat="64.146232605" lon="-21.929933548">
<ele>41.569336</ele>
<time>2012-07-28T23:27:20Z</time>
<speed>1.580000</speed>
<extensions>
<speed>1.6</speed>
<temp>0.00</temp>
<bpm>0</bpm>
<rpm>0.00</rpm>
</extensions>
</trkpt>
<trkpt lat="64.146240234" lon="-21.929924011">
<ele>39.680664</ele>
<time>2012-07-28T23:27:25Z</time>
<speed>1.210000</speed>
<extensions>
<speed>1.2</speed>
<temp>0.00</temp>
<bpm>0</bpm>
<rpm>0.00</rpm>
</extensions>
</trkpt>
<trkpt lat="64.146247864" lon="-21.929903030">
<ele>37.320313</ele>
<time>2012-07-28T23:27:30Z</time>
<speed>0.380000</speed>
<extensions>
<speed>0.4</speed>
<temp>0.00</temp>
<bpm>0</bpm>
<rpm>0.00</rpm>
</extensions>
</trkpt>
<trkpt lat="64.146240234" lon="-21.929958344">
<ele>35.543945</ele>
<time>2012-07-28T23:27:35Z</time>
<speed>0.360000</speed>
<extensions>
<speed>0.4</speed>
<temp>0.00</temp>
<bpm>0</bpm>
<rpm>0.00</rpm>
</extensions>
</trkpt>
<trkpt lat="64.146247864" lon="-21.929992676">
<ele>34.297852</ele>
<time>2012-07-28T23:27:40Z</time>
<speed>0.700000</speed>
<extensions>
<speed>0.7</speed>
<temp>0.00</temp>
<bpm>0</bpm>
<rpm>0.00</rpm>
</extensions>
</trkpt>
<trkpt lat="64.146240234" lon="-21.929983139">
<ele>32.667969</ele>
<time>2012-07-28T23:27:45Z</time>
<speed>0.320000</speed>
<extensions>
<speed>0.3</speed>
<temp>0.00</temp>
<bpm>0</bpm>
<rpm>0.00</rpm>
</extensions>
</trkpt>
<trkpt lat="64.146209717" lon="-21.930109024">
<ele>31.343750</ele>
<time>2012-07-28T23:27:50Z</time>
<speed>1.070000</speed>
<extensions>
<speed>1.1</speed>
<temp>0.00</temp>
<bpm>0</bpm>
<rpm>0.00</rpm>
</extensions>
</trkpt>
<trkpt lat="64.146179199" lon="-21.930191040">
<ele>30.571777</ele>
<time>2012-07-28T23:27:55Z</time>
<speed>0.850000</speed>
<extensions>
<speed>0.8</speed>
<temp>0.00</temp>
<bpm>0</bpm>
<rpm>0.00</rpm>
</extensions>
</trkpt>
<trkpt lat="64.146186829" lon="-21.930191040">
<ele>29.729492</ele>
<time>2012-07-28T23:28:00Z</time>
<speed>0.370000</speed>
<extensions>
<speed>0.4</speed>
<temp>0.00</temp>
<bpm>0</bpm>
<rpm>0.00</rpm>
</extensions>
</trkpt>
<trkpt lat="64.146163940" lon="-21.930271149">
<ele>28.620117</ele>
<time>2012-07-28T23:28:05Z</time>
<speed>0.660000</speed>
<extensions>
<speed>0.7</speed>
<temp>0.00</temp>
<bpm>0</bpm>
<rpm>0.00</rpm>
</extensions>
</trkpt>
<trkpt lat="64.146163940" lon="-21.930238724">
<ele>26.854004</ele>
<time>2012-07-28T23:28:10Z</time>
<speed>0.080000</speed>
<extensions>
<speed>0.1</speed>
<temp>0.00</temp>
<bpm>0</bpm>
<rpm>0.00</rpm>
</extensions>
</trkpt>
<trkpt lat="64.146148682" lon="-21.930273056">
<ele>25.624023</ele>
<time>2012-07-28T23:28:15Z</time>
<speed>0.210000</speed>
<extensions>
<speed>0.2</speed>
<temp>0.00</temp>
<bpm>0</bpm>
<rpm>0.00</rpm>
</extensions>
</trkpt>
<trkpt lat="64.146148682" lon="-21.930255890">
<ele>25.387207</ele>
<time>2012-07-28T23:28:20Z</time>
<speed>0.630000</speed>
<extensions>
<speed>0.6</speed>
<temp>0.00</temp>
<bpm>0</bpm>
<rpm>0.00</rpm>
</extensions>
</trkpt>
<trkpt lat="64.146125793" lon="-21.930231094">
<ele>25.489258</ele>
<time>2012-07-28T23:28:25Z</time>
<speed>1.140000</speed>
<extensions>
<speed>1.1</speed>
<temp>0.00</temp>
<bpm>0</bpm>
<rpm>0.00</rpm>
</extensions>
</trkpt>
<trkpt lat="64.146110535" lon="-21.930278778">
<ele>25.482422</ele>
<time>2012-07-28T23:28:30Z</time>
<speed>0.910000</speed>
<extensions>
<speed>0.9</speed>
<temp>0.00</temp>
<bpm>0</bpm>
<rpm>0.00</rpm>
</extensions>
</trkpt>
<trkpt lat="64.146141052" lon="-21.930255890">
<ele>25.225586</ele>
<time>2012-07-28T23:28:35Z</time>
<speed>1.380000</speed>
<extensions>
<speed>1.4</speed>
<temp>0.00</temp>
<bpm>0</bpm>
<rpm>0.00</rpm>
</extensions>
</trkpt>
<trkpt lat="64.146202087" lon="-21.930154800">
<ele>24.226074</ele>
<time>2012-07-28T23:28:40Z</time>
<speed>1.400000</speed>
<extensions>
<speed>1.4</speed>
<temp>0.00</temp>
<bpm>0</bpm>
<rpm>0.00</rpm>
</extensions>
</trkpt>
<trkpt lat="64.146209717" lon="-21.930212021">
<ele>23.468262</ele>
<time>2012-07-28T23:28:45Z</time>
<speed>0.370000</speed>
<extensions>
<speed>0.4</speed>
<temp>0.00</temp>
<bpm>0</bpm>
<rpm>0.00</rpm>
</extensions>
</trkpt>
<trkpt lat="64.146278381" lon="-21.930124283">
<ele>23.437988</ele>
<time>2012-07-28T23:28:50Z</time>
<speed>2.410000</speed>
<extensions>
<speed>2.4</speed>
<temp>0.00</temp>
<bpm>0</bpm>
<rpm>0.00</rpm>
</extensions>
</trkpt>
<trkpt lat="64.146255493" lon="-21.930097580">
<ele>22.849609</ele>
<time>2012-07-28T23:28:55Z</time>
<speed>0.600000</speed>
<extensions>
<speed>0.6</speed>
<temp>0.00</temp>
<bpm>0</bpm>
<rpm>0.00</rpm>
</extensions>
</trkpt>
<trkpt lat="64.146270752" lon="-21.930027008">
<ele>22.120605</ele>
<time>2012-07-28T23:29:00Z</time>
<speed>1.320000</speed>
<extensions>
<speed>1.3</speed>
<temp>0.00</temp>
<bpm>0</bpm>
<rpm>0.00</rpm>
</extensions>
</trkpt>
<trkpt lat="64.146301270" lon="-21.929983139">
<ele>21.376465</ele>
<time>2012-07-28T23:29:05Z</time>
<speed>0.460000</speed>
<extensions>
<speed>0.5</speed>
<temp>0.00</temp>
<bpm>0</bpm>
<rpm>0.00</rpm>
</extensions>
</trkpt>
<trkpt lat="64.146308899" lon="-21.930074692">
<ele>20.548340</ele>
<time>2012-07-28T23:29:10Z</time>
<speed>1.460000</speed>
<extensions>
<speed>1.5</speed>
<temp>0.00</temp>
<bpm>0</bpm>
<rpm>0.00</rpm>
</extensions>
</trkpt>
<trkpt lat="64.146278381" lon="-21.930055618">
<ele>20.204590</ele>
<time>2012-07-28T23:29:15Z</time>
<speed>0.700000</speed>
<extensions>
<speed>0.7</speed>
<temp>0.00</temp>
<bpm>0</bpm>
<rpm>0.00</rpm>
</extensions>
</trkpt>
<trkpt lat="64.146286011" lon="-21.929986954">
<ele>20.534668</ele>
<time>2012-07-28T23:29:20Z</time>
<speed>0.420000</speed>
<extensions>
<speed>0.4</speed>
<temp>0.00</temp>
<bpm>0</bpm>
<rpm>0.00</rpm>
</extensions>
</trkpt>
<trkpt lat="64.146293640" lon="-21.929969788">
<ele>20.948730</ele>
<time>2012-07-28T23:29:25Z</time>
<speed>0.270000</speed>
<extensions>
<speed>0.3</speed>
<temp>0.00</temp>
<bpm>0</bpm>
<rpm>0.00</rpm>
</extensions>
</trkpt>
<trkpt lat="64.146301270" lon="-21.930036545">
<ele>21.770020</ele>
<time>2012-07-28T23:29:30Z</time>
<speed>0.150000</speed>
<extensions>
<speed>0.2</speed>
<temp>0.00</temp>
<bpm>0</bpm>
<rpm>0.00</rpm>
</extensions>
</trkpt>
<trkpt lat="64.146324158" lon="-21.930036545">
<ele>23.130859</ele>
<time>2012-07-28T23:29:35Z</time>
<speed>0.800000</speed>
<extensions>
<speed>0.8</speed>
<temp>0.00</temp>
<bpm>0</bpm>
<rpm>0.00</rpm>
</extensions>
</trkpt>
<trkpt lat="64.146331787" lon="-21.929861069">
<ele>25.461426</ele>
<time>2012-07-28T23:29:40Z</time>
<speed>0.790000</speed>
<extensions>
<speed>0.8</speed>
<temp>0.00</temp>
<bpm>0</bpm>
<rpm>0.00</rpm>
</extensions>
</trkpt>
<trkpt lat="64.146324158" lon="-21.929769516">
<ele>28.297363</ele>
<time>2012-07-28T23:29:45Z</time>
<speed>0.040000</speed>
<extensions>
<speed>0.0</speed>
<temp>0.00</temp>
<bpm>0</bpm>
<rpm>0.00</rpm>
</extensions>
</trkpt>
<trkpt lat="64.146324158" lon="-21.929666519">
<ele>30.425781</ele>
<time>2012-07-28T23:29:50Z</time>
<speed>0.870000</speed>
<extensions>
<speed>0.9</speed>
<temp>0.00</temp>
<bpm>0</bpm>
<rpm>0.00</rpm>
</extensions>
</trkpt>
<trkpt lat="64.146247864" lon="-21.929803848">
<ele>33.014648</ele>
<time>2012-07-28T23:29:55Z</time>
<speed>0.590000</speed>
<extensions>
<speed>0.6</speed>
<temp>0.00</temp>
<bpm>0</bpm>
<rpm>0.00</rpm>
</extensions>
</trkpt>
<trkpt lat="64.146263123" lon="-21.929813385">
<ele>34.000977</ele>
<time>2012-07-28T23:30:00Z</time>
<speed>0.460000</speed>
<extensions>
<speed>0.5</speed>
<temp>0.00</temp>
<bpm>0</bpm>
<rpm>0.00</rpm>
</extensions>
</trkpt>
<trkpt lat="64.146232605" lon="-21.929845810">
<ele>34.858398</ele>
<time>2012-07-28T23:30:05Z</time>
<speed>0.510000</speed>
<extensions>
<speed>0.5</speed>
<temp>0.00</temp>
<bpm>0</bpm>
<rpm>0.00</rpm>
</extensions>
</trkpt>
<trkpt lat="64.146255493" lon="-21.929838181">
<ele>35.249023</ele>
<time>2012-07-28T23:30:10Z</time>
<speed>0.330000</speed>
<extensions>
<speed>0.3</speed>
<temp>0.00</temp>
<bpm>0</bpm>
<rpm>0.00</rpm>
</extensions>
</trkpt>
<trkpt lat="64.146255493" lon="-21.929960251">
<ele>35.509766</ele>
<time>2012-07-28T23:30:15Z</time>
<speed>0.820000</speed>
<extensions>
<speed>0.8</speed>
<temp>0.00</temp>
<bpm>0</bpm>
<rpm>0.00</rpm>
</extensions>
</trkpt>
<trkpt lat="64.146270752" lon="-21.930107117">
<ele>34.322266</ele>
<time>2012-07-28T23:30:20Z</time>
<speed>1.010000</speed>
<extensions>
<speed>1.0</speed>
<temp>0.00</temp>
<bpm>0</bpm>
<rpm>0.00</rpm>
</extensions>
</trkpt>
<trkpt lat="64.146293640" lon="-21.930105209">
<ele>32.612305</ele>
<time>2012-07-28T23:30:25Z</time>
<speed>0.750000</speed>
<extensions>
<speed>0.8</speed>
<temp>0.00</temp>
<bpm>0</bpm>
<rpm>0.00</rpm>
</extensions>
</trkpt>
<trkpt lat="64.146293640" lon="-21.930206299">
<ele>31.059570</ele>
<time>2012-07-28T23:30:30Z</time>
<speed>0.810000</speed>
<extensions>
<speed>0.8</speed>
<temp>0.00</temp>
<bpm>0</bpm>
<rpm>0.00</rpm>
</extensions>
</trkpt>
<trkpt lat="64.146308899" lon="-21.930248260">
<ele>29.834961</ele>
<time>2012-07-28T23:30:35Z</time>
<speed>1.060000</speed>
<extensions>
<speed>1.1</speed>
<temp>0.00</temp>
<bpm>0</bpm>
<rpm>0.00</rpm>
</extensions>
</trkpt>
<trkpt lat="64.146270752" lon="-21.930339813">
<ele>27.424316</ele>
<time>2012-07-28T23:30:40Z</time>
<speed>0.750000</speed>
<extensions>
<speed>0.8</speed>
<temp>0.00</temp>
<bpm>0</bpm>
<rpm>0.00</rpm>
</extensions>
</trkpt>
<trkpt lat="64.146286011" lon="-21.930295944">
<ele>25.681641</ele>
<time>2012-07-28T23:30:45Z</time>
<speed>0.790000</speed>
<extensions>
<speed>0.8</speed>
<temp>0.00</temp>
<bpm>0</bpm>
<rpm>0.00</rpm>
</extensions>
</trkpt>
<trkpt lat="64.146293640" lon="-21.930305481">
<ele>23.946777</ele>
<time>2012-07-28T23:30:50Z</time>
<speed>0.530000</speed>
<extensions>
<speed>0.5</speed>
<temp>0.00</temp>
<bpm>0</bpm>
<rpm>0.00</rpm>
</extensions>
</trkpt>
<trkpt lat="64.146278381" lon="-21.930353165">
<ele>22.282227</ele>
<time>2012-07-28T23:30:55Z</time>
<speed>0.590000</speed>
<extensions>
<speed>0.6</speed>
<temp>0.00</temp>
<bpm>0</bpm>
<rpm>0.00</rpm>
</extensions>
</trkpt>
<trkpt lat="64.146255493" lon="-21.930341721">
<ele>20.008789</ele>
<time>2012-07-28T23:31:00Z</time>
<speed>0.360000</speed>
<extensions>
<speed>0.4</speed>
<temp>0.00</temp>
<bpm>0</bpm>
<rpm>0.00</rpm>
</extensions>
</trkpt>
<trkpt lat="64.146301270" lon="-21.930273056">
<ele>18.729004</ele>
<time>2012-07-28T23:31:05Z</time>
<speed>1.350000</speed>
<extensions>
<speed>1.4</speed>
<temp>0.00</temp>
<bpm>0</bpm>
<rpm>0.00</rpm>
</extensions>
</trkpt>
<trkpt lat="64.146347046" lon="-21.930263519">
<ele>17.596191</ele>
<time>2012-07-28T23:31:10Z</time>
<speed>1.060000</speed>
<extensions>
<speed>1.1</speed>
<temp>0.00</temp>
<bpm>0</bpm>
<rpm>0.00</rpm>
</extensions>
</trkpt>
</trkseg>
</trk>
</gpx>